<?xml version="1.0" encoding="UTF-8" standalone="no" ?>
<gpx xmlns="http://www.topografix.com/GPX/1/1" xmlns:xsi="http://www.w3.org/2001/XMLSchema-instance" xsi:schemaLocation="http://www.topografix.com/GPX/1/1 http://www.topografix.com/GPX/1/1/gpx.xsd" version="1.1" creator="VisuGPX - https://www.visugpx.com">
  <metadata>
    <name>Arfons - Bruniquel</name>
  </metadata>
  <trk>
    <name><![CDATA[10683159-Arfons - Bruniquel]]></name>
    <trkseg>
      <trkpt lat="43.48054" lon="2.14485">
        <ele>290</ele>
        <time>2019-11-04T19:15:15Z</time>
      </trkpt>
      <trkpt lat="43.48095" lon="2.1443">
        <ele>288</ele>
        <time>2019-11-04T19:16:01Z</time>
      </trkpt>
      <trkpt lat="43.48131" lon="2.14373">
        <ele>283</ele>
        <time>2019-11-04T19:16:45Z</time>
      </trkpt>
      <trkpt lat="43.48165" lon="2.1428">
        <ele>277</ele>
        <time>2019-11-04T19:17:45Z</time>
      </trkpt>
      <trkpt lat="43.48202" lon="2.14165">
        <ele>277</ele>
        <time>2019-11-04T19:18:58Z</time>
      </trkpt>
      <trkpt lat="43.48215" lon="2.1414">
        <ele>277</ele>
        <time>2019-11-04T19:19:16Z</time>
      </trkpt>
      <trkpt lat="43.48248" lon="2.14097">
        <ele>275</ele>
        <time>2019-11-04T19:19:53Z</time>
      </trkpt>
      <trkpt lat="43.48261" lon="2.14075">
        <ele>275</ele>
        <time>2019-11-04T19:20:09Z</time>
      </trkpt>
      <trkpt lat="43.48302" lon="2.14041">
        <ele>273</ele>
        <time>2019-11-04T19:20:47Z</time>
      </trkpt>
      <trkpt lat="43.48409" lon="2.13978">
        <ele>271</ele>
        <time>2019-11-04T19:22:20Z</time>
      </trkpt>
      <trkpt lat="43.48463" lon="2.13935">
        <ele>270</ele>
        <time>2019-11-04T19:23:10Z</time>
      </trkpt>
      <trkpt lat="43.48472" lon="2.13926">
        <ele>270</ele>
        <time>2019-11-04T19:23:19Z</time>
      </trkpt>
      <trkpt lat="43.48478" lon="2.13914">
        <ele>270</ele>
        <time>2019-11-04T19:23:28Z</time>
      </trkpt>
      <trkpt lat="43.48488" lon="2.13924">
        <ele>269</ele>
        <time>2019-11-04T19:23:38Z</time>
      </trkpt>
      <trkpt lat="43.48507" lon="2.13961">
        <ele>264</ele>
        <time>2019-11-04T19:24:04Z</time>
      </trkpt>
      <trkpt lat="43.48513" lon="2.13964">
        <ele>263</ele>
        <time>2019-11-04T19:24:09Z</time>
      </trkpt>
      <trkpt lat="43.4852" lon="2.13965">
        <ele>262</ele>
        <time>2019-11-04T19:24:15Z</time>
      </trkpt>
      <trkpt lat="43.48538" lon="2.13961">
        <ele>260</ele>
        <time>2019-11-04T19:24:29Z</time>
      </trkpt>
      <trkpt lat="43.48574" lon="2.13946">
        <ele>257</ele>
        <time>2019-11-04T19:24:59Z</time>
      </trkpt>
      <trkpt lat="43.4857" lon="2.13969">
        <ele>255</ele>
        <time>2019-11-04T19:25:13Z</time>
      </trkpt>
      <trkpt lat="43.48572" lon="2.13984">
        <ele>252</ele>
        <time>2019-11-04T19:25:22Z</time>
      </trkpt>
      <trkpt lat="43.48583" lon="2.14005">
        <ele>249</ele>
        <time>2019-11-04T19:25:37Z</time>
      </trkpt>
      <trkpt lat="43.48635" lon="2.14076">
        <ele>248</ele>
        <time>2019-11-04T19:26:36Z</time>
      </trkpt>
      <trkpt lat="43.48698" lon="2.14198">
        <ele>246</ele>
        <time>2019-11-04T19:28:03Z</time>
      </trkpt>
      <trkpt lat="43.48765" lon="2.14172">
        <ele>244</ele>
        <time>2019-11-04T19:28:58Z</time>
      </trkpt>
      <trkpt lat="43.4878" lon="2.14174">
        <ele>244</ele>
        <time>2019-11-04T19:29:11Z</time>
      </trkpt>
      <trkpt lat="43.48836" lon="2.14171">
        <ele>243</ele>
        <time>2019-11-04T19:29:55Z</time>
      </trkpt>
      <trkpt lat="43.48891" lon="2.14173">
        <ele>242</ele>
        <time>2019-11-04T19:30:39Z</time>
      </trkpt>
      <trkpt lat="43.48904" lon="2.14169">
        <ele>241</ele>
        <time>2019-11-04T19:30:50Z</time>
      </trkpt>
      <trkpt lat="43.4891" lon="2.14177">
        <ele>241</ele>
        <time>2019-11-04T19:30:57Z</time>
      </trkpt>
      <trkpt lat="43.49011" lon="2.14175">
        <ele>236</ele>
        <time>2019-11-04T19:32:18Z</time>
      </trkpt>
      <trkpt lat="43.49121" lon="2.14163">
        <ele>232</ele>
        <time>2019-11-04T19:33:46Z</time>
      </trkpt>
      <trkpt lat="43.49156" lon="2.14164">
        <ele>231</ele>
        <time>2019-11-04T19:34:14Z</time>
      </trkpt>
      <trkpt lat="43.4925" lon="2.14179">
        <ele>230</ele>
        <time>2019-11-04T19:35:30Z</time>
      </trkpt>
      <trkpt lat="43.49285" lon="2.14188">
        <ele>229</ele>
        <time>2019-11-04T19:35:58Z</time>
      </trkpt>
      <trkpt lat="43.49323" lon="2.14193">
        <ele>228</ele>
        <time>2019-11-04T19:36:29Z</time>
      </trkpt>
      <trkpt lat="43.49384" lon="2.14191">
        <ele>227</ele>
        <time>2019-11-04T19:37:18Z</time>
      </trkpt>
      <trkpt lat="43.49407" lon="2.14187">
        <ele>227</ele>
        <time>2019-11-04T19:37:36Z</time>
      </trkpt>
      <trkpt lat="43.49457" lon="2.14171">
        <ele>226</ele>
        <time>2019-11-04T19:38:17Z</time>
      </trkpt>
      <trkpt lat="43.49545" lon="2.14164">
        <ele>223</ele>
        <time>2019-11-04T19:39:28Z</time>
      </trkpt>
      <trkpt lat="43.49601" lon="2.1415">
        <ele>222</ele>
        <time>2019-11-04T19:40:14Z</time>
      </trkpt>
      <trkpt lat="43.49619" lon="2.14142">
        <ele>222</ele>
        <time>2019-11-04T19:40:29Z</time>
      </trkpt>
      <trkpt lat="43.49701" lon="2.14094">
        <ele>223</ele>
        <time>2019-11-04T19:41:40Z</time>
      </trkpt>
      <trkpt lat="43.49638" lon="2.1388">
        <ele>230</ele>
        <time>2019-11-04T19:43:54Z</time>
      </trkpt>
      <trkpt lat="43.4948" lon="2.13508">
        <ele>224</ele>
        <time>2019-11-04T19:48:05Z</time>
      </trkpt>
      <trkpt lat="43.49524" lon="2.13481">
        <ele>224</ele>
        <time>2019-11-04T19:48:43Z</time>
      </trkpt>
      <trkpt lat="43.49623" lon="2.13414">
        <ele>220</ele>
        <time>2019-11-04T19:50:11Z</time>
      </trkpt>
      <trkpt lat="43.49718" lon="2.13343">
        <ele>217</ele>
        <time>2019-11-04T19:51:38Z</time>
      </trkpt>
      <trkpt lat="43.49754" lon="2.133">
        <ele>217</ele>
        <time>2019-11-04T19:52:16Z</time>
      </trkpt>
      <trkpt lat="43.49848" lon="2.13178">
        <ele>214</ele>
        <time>2019-11-04T19:53:59Z</time>
      </trkpt>
      <trkpt lat="43.49888" lon="2.13136">
        <ele>213</ele>
        <time>2019-11-04T19:54:40Z</time>
      </trkpt>
      <trkpt lat="43.49923" lon="2.13104">
        <ele>214</ele>
        <time>2019-11-04T19:55:13Z</time>
      </trkpt>
      <trkpt lat="43.49921" lon="2.13082">
        <ele>214</ele>
        <time>2019-11-04T19:55:26Z</time>
      </trkpt>
      <trkpt lat="43.49947" lon="2.12846">
        <ele>212</ele>
        <time>2019-11-04T19:57:45Z</time>
      </trkpt>
      <trkpt lat="43.49946" lon="2.1278">
        <ele>212</ele>
        <time>2019-11-04T19:58:23Z</time>
      </trkpt>
      <trkpt lat="43.49955" lon="2.12741">
        <ele>212</ele>
        <time>2019-11-04T19:58:47Z</time>
      </trkpt>
      <trkpt lat="43.49962" lon="2.12693">
        <ele>212</ele>
        <time>2019-11-04T19:59:15Z</time>
      </trkpt>
      <trkpt lat="43.49964" lon="2.12616">
        <ele>211</ele>
        <time>2019-11-04T20:00:00Z</time>
      </trkpt>
      <trkpt lat="43.49968" lon="2.12566">
        <ele>210</ele>
        <time>2019-11-04T20:00:29Z</time>
      </trkpt>
      <trkpt lat="43.5001" lon="2.12427">
        <ele>209</ele>
        <time>2019-11-04T20:01:57Z</time>
      </trkpt>
      <trkpt lat="43.50018" lon="2.12428">
        <ele>209</ele>
        <time>2019-11-04T20:02:03Z</time>
      </trkpt>
      <trkpt lat="43.50055" lon="2.12464">
        <ele>208</ele>
        <time>2019-11-04T20:02:40Z</time>
      </trkpt>
      <trkpt lat="43.50069" lon="2.12469">
        <ele>208</ele>
        <time>2019-11-04T20:02:51Z</time>
      </trkpt>
      <trkpt lat="43.50081" lon="2.12471">
        <ele>207</ele>
        <time>2019-11-04T20:03:01Z</time>
      </trkpt>
      <trkpt lat="43.50114" lon="2.12469">
        <ele>207</ele>
        <time>2019-11-04T20:03:27Z</time>
      </trkpt>
      <trkpt lat="43.50143" lon="2.12464">
        <ele>206</ele>
        <time>2019-11-04T20:03:51Z</time>
      </trkpt>
      <trkpt lat="43.50192" lon="2.12467">
        <ele>205</ele>
        <time>2019-11-04T20:04:30Z</time>
      </trkpt>
      <trkpt lat="43.50211" lon="2.12464">
        <ele>205</ele>
        <time>2019-11-04T20:04:45Z</time>
      </trkpt>
      <trkpt lat="43.50239" lon="2.12445">
        <ele>205</ele>
        <time>2019-11-04T20:05:10Z</time>
      </trkpt>
      <trkpt lat="43.50381" lon="2.12336">
        <ele>203</ele>
        <time>2019-11-04T20:07:20Z</time>
      </trkpt>
      <trkpt lat="43.50467" lon="2.12278">
        <ele>200</ele>
        <time>2019-11-04T20:08:37Z</time>
      </trkpt>
      <trkpt lat="43.50528" lon="2.12243">
        <ele>201</ele>
        <time>2019-11-04T20:09:30Z</time>
      </trkpt>
      <trkpt lat="43.50591" lon="2.12182">
        <ele>205</ele>
        <time>2019-11-04T20:10:32Z</time>
      </trkpt>
      <trkpt lat="43.50633" lon="2.12147">
        <ele>206</ele>
        <time>2019-11-04T20:11:11Z</time>
      </trkpt>
      <trkpt lat="43.5064" lon="2.12144">
        <ele>207</ele>
        <time>2019-11-04T20:11:17Z</time>
      </trkpt>
      <trkpt lat="43.50643" lon="2.12137">
        <ele>207</ele>
        <time>2019-11-04T20:11:21Z</time>
      </trkpt>
      <trkpt lat="43.50759" lon="2.12067">
        <ele>208</ele>
        <time>2019-11-04T20:13:03Z</time>
      </trkpt>
      <trkpt lat="43.50804" lon="2.12036">
        <ele>208</ele>
        <time>2019-11-04T20:13:43Z</time>
      </trkpt>
      <trkpt lat="43.50836" lon="2.12021">
        <ele>208</ele>
        <time>2019-11-04T20:14:10Z</time>
      </trkpt>
      <trkpt lat="43.50898" lon="2.11998">
        <ele>207</ele>
        <time>2019-11-04T20:15:02Z</time>
      </trkpt>
      <trkpt lat="43.50926" lon="2.11984">
        <ele>206</ele>
        <time>2019-11-04T20:15:25Z</time>
      </trkpt>
      <trkpt lat="43.51039" lon="2.11942">
        <ele>205</ele>
        <time>2019-11-04T20:16:59Z</time>
      </trkpt>
      <trkpt lat="43.51145" lon="2.11875">
        <ele>204</ele>
        <time>2019-11-04T20:18:32Z</time>
      </trkpt>
      <trkpt lat="43.5121" lon="2.11812">
        <ele>205</ele>
        <time>2019-11-04T20:19:36Z</time>
      </trkpt>
      <trkpt lat="43.51255" lon="2.11774">
        <ele>205</ele>
        <time>2019-11-04T20:20:18Z</time>
      </trkpt>
      <trkpt lat="43.51258" lon="2.11766">
        <ele>205</ele>
        <time>2019-11-04T20:20:24Z</time>
      </trkpt>
      <trkpt lat="43.51269" lon="2.11754">
        <ele>205</ele>
        <time>2019-11-04T20:20:35Z</time>
      </trkpt>
      <trkpt lat="43.51344" lon="2.11683">
        <ele>203</ele>
        <time>2019-11-04T20:21:48Z</time>
      </trkpt>
      <trkpt lat="43.51359" lon="2.11663">
        <ele>203</ele>
        <time>2019-11-04T20:22:04Z</time>
      </trkpt>
      <trkpt lat="43.51433" lon="2.11841">
        <ele>200</ele>
        <time>2019-11-04T20:24:03Z</time>
      </trkpt>
      <trkpt lat="43.51463" lon="2.11906">
        <ele>198</ele>
        <time>2019-11-04T20:24:48Z</time>
      </trkpt>
      <trkpt lat="43.51472" lon="2.11933">
        <ele>197</ele>
        <time>2019-11-04T20:25:05Z</time>
      </trkpt>
      <trkpt lat="43.51475" lon="2.12067">
        <ele>195</ele>
        <time>2019-11-04T20:26:23Z</time>
      </trkpt>
      <trkpt lat="43.51499" lon="2.1221">
        <ele>193</ele>
        <time>2019-11-04T20:27:49Z</time>
      </trkpt>
      <trkpt lat="43.51524" lon="2.12476">
        <ele>192</ele>
        <time>2019-11-04T20:30:24Z</time>
      </trkpt>
      <trkpt lat="43.51574" lon="2.12449">
        <ele>189</ele>
        <time>2019-11-04T20:31:07Z</time>
      </trkpt>
      <trkpt lat="43.51582" lon="2.12443">
        <ele>189</ele>
        <time>2019-11-04T20:31:15Z</time>
      </trkpt>
      <trkpt lat="43.51623" lon="2.12391">
        <ele>189</ele>
        <time>2019-11-04T20:31:59Z</time>
      </trkpt>
      <trkpt lat="43.51716" lon="2.12309">
        <ele>188</ele>
        <time>2019-11-04T20:33:28Z</time>
      </trkpt>
      <trkpt lat="43.51763" lon="2.12277">
        <ele>188</ele>
        <time>2019-11-04T20:34:10Z</time>
      </trkpt>
      <trkpt lat="43.51781" lon="2.12259">
        <ele>188</ele>
        <time>2019-11-04T20:34:27Z</time>
      </trkpt>
      <trkpt lat="43.51883" lon="2.12139">
        <ele>186</ele>
        <time>2019-11-04T20:36:15Z</time>
      </trkpt>
      <trkpt lat="43.51898" lon="2.12125">
        <ele>185</ele>
        <time>2019-11-04T20:36:29Z</time>
      </trkpt>
      <trkpt lat="43.5209" lon="2.11912">
        <ele>184</ele>
        <time>2019-11-04T20:39:46Z</time>
      </trkpt>
      <trkpt lat="43.52104" lon="2.11892">
        <ele>184</ele>
        <time>2019-11-04T20:40:03Z</time>
      </trkpt>
      <trkpt lat="43.52174" lon="2.11772">
        <ele>183</ele>
        <time>2019-11-04T20:41:32Z</time>
      </trkpt>
      <trkpt lat="43.52251" lon="2.11698">
        <ele>182</ele>
        <time>2019-11-04T20:42:47Z</time>
      </trkpt>
      <trkpt lat="43.52269" lon="2.11678">
        <ele>182</ele>
        <time>2019-11-04T20:43:06Z</time>
      </trkpt>
      <trkpt lat="43.52397" lon="2.11504">
        <ele>180</ele>
        <time>2019-11-04T20:45:30Z</time>
      </trkpt>
      <trkpt lat="43.52501" lon="2.11313">
        <ele>179</ele>
        <time>2019-11-04T20:47:48Z</time>
      </trkpt>
      <trkpt lat="43.52639" lon="2.11169">
        <ele>177</ele>
        <time>2019-11-04T20:50:07Z</time>
      </trkpt>
      <trkpt lat="43.52773" lon="2.11056">
        <ele>176</ele>
        <time>2019-11-04T20:52:13Z</time>
      </trkpt>
      <trkpt lat="43.53006" lon="2.10751">
        <ele>173</ele>
        <time>2019-11-04T20:56:30Z</time>
      </trkpt>
      <trkpt lat="43.53092" lon="2.10668">
        <ele>172</ele>
        <time>2019-11-04T20:57:54Z</time>
      </trkpt>
      <trkpt lat="43.531" lon="2.10663">
        <ele>172</ele>
        <time>2019-11-04T20:58:01Z</time>
      </trkpt>
      <trkpt lat="43.53113" lon="2.10664">
        <ele>172</ele>
        <time>2019-11-04T20:58:11Z</time>
      </trkpt>
      <trkpt lat="43.53119" lon="2.10669">
        <ele>172</ele>
        <time>2019-11-04T20:58:17Z</time>
      </trkpt>
      <trkpt lat="43.53286" lon="2.10865">
        <ele>172</ele>
        <time>2019-11-04T21:01:12Z</time>
      </trkpt>
      <trkpt lat="43.53298" lon="2.10877">
        <ele>172</ele>
        <time>2019-11-04T21:01:24Z</time>
      </trkpt>
      <trkpt lat="43.53313" lon="2.10881">
        <ele>172</ele>
        <time>2019-11-04T21:01:37Z</time>
      </trkpt>
      <trkpt lat="43.53293" lon="2.10956">
        <ele>172</ele>
        <time>2019-11-04T21:02:23Z</time>
      </trkpt>
      <trkpt lat="43.53268" lon="2.1101">
        <ele>172</ele>
        <time>2019-11-04T21:03:00Z</time>
      </trkpt>
      <trkpt lat="43.5371" lon="2.11711">
        <ele>171</ele>
        <time>2019-11-04T21:11:59Z</time>
      </trkpt>
      <trkpt lat="43.53715" lon="2.11714">
        <ele>171</ele>
        <time>2019-11-04T21:12:04Z</time>
      </trkpt>
      <trkpt lat="43.53722" lon="2.11714">
        <ele>171</ele>
        <time>2019-11-04T21:12:09Z</time>
      </trkpt>
      <trkpt lat="43.53728" lon="2.11709">
        <ele>171</ele>
        <time>2019-11-04T21:12:15Z</time>
      </trkpt>
      <trkpt lat="43.53775" lon="2.11628">
        <ele>171</ele>
        <time>2019-11-04T21:13:15Z</time>
      </trkpt>
      <trkpt lat="43.53781" lon="2.11605">
        <ele>171</ele>
        <time>2019-11-04T21:13:29Z</time>
      </trkpt>
      <trkpt lat="43.53787" lon="2.11594">
        <ele>171</ele>
        <time>2019-11-04T21:13:37Z</time>
      </trkpt>
      <trkpt lat="43.5384" lon="2.11561">
        <ele>170</ele>
        <time>2019-11-04T21:14:24Z</time>
      </trkpt>
      <trkpt lat="43.53895" lon="2.11538">
        <ele>171</ele>
        <time>2019-11-04T21:15:10Z</time>
      </trkpt>
      <trkpt lat="43.53904" lon="2.11537">
        <ele>171</ele>
        <time>2019-11-04T21:15:17Z</time>
      </trkpt>
      <trkpt lat="43.53911" lon="2.11541">
        <ele>171</ele>
        <time>2019-11-04T21:15:23Z</time>
      </trkpt>
      <trkpt lat="43.53921" lon="2.11536">
        <ele>172</ele>
        <time>2019-11-04T21:15:32Z</time>
      </trkpt>
      <trkpt lat="43.53927" lon="2.11529">
        <ele>172</ele>
        <time>2019-11-04T21:15:38Z</time>
      </trkpt>
      <trkpt lat="43.53933" lon="2.11515">
        <ele>172</ele>
        <time>2019-11-04T21:15:47Z</time>
      </trkpt>
      <trkpt lat="43.53948" lon="2.11511">
        <ele>172</ele>
        <time>2019-11-04T21:16:00Z</time>
      </trkpt>
      <trkpt lat="43.53952" lon="2.11504">
        <ele>172</ele>
        <time>2019-11-04T21:16:05Z</time>
      </trkpt>
      <trkpt lat="43.54048" lon="2.11559">
        <ele>170</ele>
        <time>2019-11-04T21:17:28Z</time>
      </trkpt>
      <trkpt lat="43.54122" lon="2.11605">
        <ele>169</ele>
        <time>2019-11-04T21:18:33Z</time>
      </trkpt>
      <trkpt lat="43.54396" lon="2.11781">
        <ele>171</ele>
        <time>2019-11-04T21:22:35Z</time>
      </trkpt>
      <trkpt lat="43.54526" lon="2.11861">
        <ele>171</ele>
        <time>2019-11-04T21:24:29Z</time>
      </trkpt>
      <trkpt lat="43.54538" lon="2.11869">
        <ele>171</ele>
        <time>2019-11-04T21:24:40Z</time>
      </trkpt>
      <trkpt lat="43.54553" lon="2.11912">
        <ele>172</ele>
        <time>2019-11-04T21:25:07Z</time>
      </trkpt>
      <trkpt lat="43.55109" lon="2.12275">
        <ele>174</ele>
        <time>2019-11-04T21:33:20Z</time>
      </trkpt>
      <trkpt lat="43.55125" lon="2.12252">
        <ele>173</ele>
        <time>2019-11-04T21:33:38Z</time>
      </trkpt>
      <trkpt lat="43.55136" lon="2.12262">
        <ele>173</ele>
        <time>2019-11-04T21:33:49Z</time>
      </trkpt>
      <trkpt lat="43.55319" lon="2.12372">
        <ele>173</ele>
        <time>2019-11-04T21:36:29Z</time>
      </trkpt>
      <trkpt lat="43.55445" lon="2.12453">
        <ele>172</ele>
        <time>2019-11-04T21:38:20Z</time>
      </trkpt>
      <trkpt lat="43.55616" lon="2.12555">
        <ele>174</ele>
        <time>2019-11-04T21:40:49Z</time>
      </trkpt>
      <trkpt lat="43.56132" lon="2.12877">
        <ele>166</ele>
        <time>2019-11-04T21:48:23Z</time>
      </trkpt>
      <trkpt lat="43.56125" lon="2.12855">
        <ele>166</ele>
        <time>2019-11-04T21:48:37Z</time>
      </trkpt>
      <trkpt lat="43.56093" lon="2.12786">
        <ele>167</ele>
        <time>2019-11-04T21:49:24Z</time>
      </trkpt>
      <trkpt lat="43.56041" lon="2.12691">
        <ele>168</ele>
        <time>2019-11-04T21:50:33Z</time>
      </trkpt>
      <trkpt lat="43.56037" lon="2.1268">
        <ele>168</ele>
        <time>2019-11-04T21:50:40Z</time>
      </trkpt>
      <trkpt lat="43.56032" lon="2.12478">
        <ele>168</ele>
        <time>2019-11-04T21:52:38Z</time>
      </trkpt>
      <trkpt lat="43.56061" lon="2.12272">
        <ele>167</ele>
        <time>2019-11-04T21:54:39Z</time>
      </trkpt>
      <trkpt lat="43.56071" lon="2.12184">
        <ele>168</ele>
        <time>2019-11-04T21:55:31Z</time>
      </trkpt>
      <trkpt lat="43.5609" lon="2.12115">
        <ele>168</ele>
        <time>2019-11-04T21:56:14Z</time>
      </trkpt>
      <trkpt lat="43.56112" lon="2.12048">
        <ele>168</ele>
        <time>2019-11-04T21:56:57Z</time>
      </trkpt>
      <trkpt lat="43.56144" lon="2.11975">
        <ele>167</ele>
        <time>2019-11-04T21:57:46Z</time>
      </trkpt>
      <trkpt lat="43.56175" lon="2.11888">
        <ele>166</ele>
        <time>2019-11-04T21:58:42Z</time>
      </trkpt>
      <trkpt lat="43.56179" lon="2.11867">
        <ele>166</ele>
        <time>2019-11-04T21:58:55Z</time>
      </trkpt>
      <trkpt lat="43.56179" lon="2.11778">
        <ele>165</ele>
        <time>2019-11-04T21:59:47Z</time>
      </trkpt>
      <trkpt lat="43.56185" lon="2.11772">
        <ele>165</ele>
        <time>2019-11-04T21:59:53Z</time>
      </trkpt>
      <trkpt lat="43.562" lon="2.11771">
        <ele>165</ele>
        <time>2019-11-04T22:00:05Z</time>
      </trkpt>
      <trkpt lat="43.56232" lon="2.11775">
        <ele>164</ele>
        <time>2019-11-04T22:00:30Z</time>
      </trkpt>
      <trkpt lat="43.56241" lon="2.11766">
        <ele>164</ele>
        <time>2019-11-04T22:00:39Z</time>
      </trkpt>
      <trkpt lat="43.56246" lon="2.11752">
        <ele>164</ele>
        <time>2019-11-04T22:00:48Z</time>
      </trkpt>
      <trkpt lat="43.56266" lon="2.11604">
        <ele>171</ele>
        <time>2019-11-04T22:02:16Z</time>
      </trkpt>
      <trkpt lat="43.56276" lon="2.11572">
        <ele>172</ele>
        <time>2019-11-04T22:02:36Z</time>
      </trkpt>
      <trkpt lat="43.5629" lon="2.11548">
        <ele>173</ele>
        <time>2019-11-04T22:02:54Z</time>
      </trkpt>
      <trkpt lat="43.56294" lon="2.11545">
        <ele>173</ele>
        <time>2019-11-04T22:02:57Z</time>
      </trkpt>
      <trkpt lat="43.56327" lon="2.11537">
        <ele>175</ele>
        <time>2019-11-04T22:03:24Z</time>
      </trkpt>
      <trkpt lat="43.56358" lon="2.11567">
        <ele>179</ele>
        <time>2019-11-04T22:03:54Z</time>
      </trkpt>
      <trkpt lat="43.56369" lon="2.11574">
        <ele>181</ele>
        <time>2019-11-04T22:04:04Z</time>
      </trkpt>
      <trkpt lat="43.56375" lon="2.11575">
        <ele>181</ele>
        <time>2019-11-04T22:04:09Z</time>
      </trkpt>
      <trkpt lat="43.56392" lon="2.11572">
        <ele>183</ele>
        <time>2019-11-04T22:04:23Z</time>
      </trkpt>
      <trkpt lat="43.56434" lon="2.11558">
        <ele>185</ele>
        <time>2019-11-04T22:04:57Z</time>
      </trkpt>
      <trkpt lat="43.56474" lon="2.1154">
        <ele>188</ele>
        <time>2019-11-04T22:05:31Z</time>
      </trkpt>
      <trkpt lat="43.56525" lon="2.1151">
        <ele>189</ele>
        <time>2019-11-04T22:06:15Z</time>
      </trkpt>
      <trkpt lat="43.56544" lon="2.11489">
        <ele>190</ele>
        <time>2019-11-04T22:06:35Z</time>
      </trkpt>
      <trkpt lat="43.56565" lon="2.11448">
        <ele>191</ele>
        <time>2019-11-04T22:07:04Z</time>
      </trkpt>
      <trkpt lat="43.56589" lon="2.11389">
        <ele>194</ele>
        <time>2019-11-04T22:07:43Z</time>
      </trkpt>
      <trkpt lat="43.56616" lon="2.11311">
        <ele>194</ele>
        <time>2019-11-04T22:08:33Z</time>
      </trkpt>
      <trkpt lat="43.56677" lon="2.11001">
        <ele>200</ele>
        <time>2019-11-04T22:11:40Z</time>
      </trkpt>
      <trkpt lat="43.56698" lon="2.10944">
        <ele>201</ele>
        <time>2019-11-04T22:12:17Z</time>
      </trkpt>
      <trkpt lat="43.56725" lon="2.10892">
        <ele>202</ele>
        <time>2019-11-04T22:12:54Z</time>
      </trkpt>
      <trkpt lat="43.5675" lon="2.10828">
        <ele>201</ele>
        <time>2019-11-04T22:13:36Z</time>
      </trkpt>
      <trkpt lat="43.56809" lon="2.1087">
        <ele>203</ele>
        <time>2019-11-04T22:14:29Z</time>
      </trkpt>
      <trkpt lat="43.56842" lon="2.10889">
        <ele>204</ele>
        <time>2019-11-04T22:14:58Z</time>
      </trkpt>
      <trkpt lat="43.56876" lon="2.10905">
        <ele>203</ele>
        <time>2019-11-04T22:15:27Z</time>
      </trkpt>
      <trkpt lat="43.56904" lon="2.10912">
        <ele>202</ele>
        <time>2019-11-04T22:15:50Z</time>
      </trkpt>
      <trkpt lat="43.56912" lon="2.10912">
        <ele>202</ele>
        <time>2019-11-04T22:15:56Z</time>
      </trkpt>
      <trkpt lat="43.56929" lon="2.10904">
        <ele>201</ele>
        <time>2019-11-04T22:16:10Z</time>
      </trkpt>
      <trkpt lat="43.56941" lon="2.10885">
        <ele>200</ele>
        <time>2019-11-04T22:16:25Z</time>
      </trkpt>
      <trkpt lat="43.56985" lon="2.10766">
        <ele>201</ele>
        <time>2019-11-04T22:17:42Z</time>
      </trkpt>
      <trkpt lat="43.57007" lon="2.10718">
        <ele>201</ele>
        <time>2019-11-04T22:18:15Z</time>
      </trkpt>
      <trkpt lat="43.57065" lon="2.10544">
        <ele>203</ele>
        <time>2019-11-04T22:20:06Z</time>
      </trkpt>
      <trkpt lat="43.57077" lon="2.10525">
        <ele>202</ele>
        <time>2019-11-04T22:20:21Z</time>
      </trkpt>
      <trkpt lat="43.57139" lon="2.10466">
        <ele>209</ele>
        <time>2019-11-04T22:21:21Z</time>
      </trkpt>
      <trkpt lat="43.57163" lon="2.10451">
        <ele>211</ele>
        <time>2019-11-04T22:21:43Z</time>
      </trkpt>
      <trkpt lat="43.57175" lon="2.10431">
        <ele>212</ele>
        <time>2019-11-04T22:21:58Z</time>
      </trkpt>
      <trkpt lat="43.57216" lon="2.10263">
        <ele>219</ele>
        <time>2019-11-04T22:23:40Z</time>
      </trkpt>
      <trkpt lat="43.57272" lon="2.10205">
        <ele>220</ele>
        <time>2019-11-04T22:24:36Z</time>
      </trkpt>
      <trkpt lat="43.57311" lon="2.1021">
        <ele>220</ele>
        <time>2019-11-04T22:25:08Z</time>
      </trkpt>
      <trkpt lat="43.57343" lon="2.10219">
        <ele>220</ele>
        <time>2019-11-04T22:25:34Z</time>
      </trkpt>
      <trkpt lat="43.57422" lon="2.10284">
        <ele>217</ele>
        <time>2019-11-04T22:26:48Z</time>
      </trkpt>
      <trkpt lat="43.57487" lon="2.09863">
        <ele>232</ele>
        <time>2019-11-04T22:30:57Z</time>
      </trkpt>
      <trkpt lat="43.57495" lon="2.09823">
        <ele>234</ele>
        <time>2019-11-04T22:31:21Z</time>
      </trkpt>
      <trkpt lat="43.57569" lon="2.09807">
        <ele>229</ele>
        <time>2019-11-04T22:32:21Z</time>
      </trkpt>
      <trkpt lat="43.57586" lon="2.09852">
        <ele>227</ele>
        <time>2019-11-04T22:32:51Z</time>
      </trkpt>
      <trkpt lat="43.57602" lon="2.09896">
        <ele>222</ele>
        <time>2019-11-04T22:33:19Z</time>
      </trkpt>
      <trkpt lat="43.57621" lon="2.09984">
        <ele>211</ele>
        <time>2019-11-04T22:34:13Z</time>
      </trkpt>
      <trkpt lat="43.5765" lon="2.10065">
        <ele>201</ele>
        <time>2019-11-04T22:35:05Z</time>
      </trkpt>
      <trkpt lat="43.577" lon="2.10222">
        <ele>187</ele>
        <time>2019-11-04T22:36:44Z</time>
      </trkpt>
      <trkpt lat="43.57672" lon="2.10292">
        <ele>184</ele>
        <time>2019-11-04T22:37:31Z</time>
      </trkpt>
      <trkpt lat="43.57805" lon="2.10351">
        <ele>188</ele>
        <time>2019-11-04T22:39:23Z</time>
      </trkpt>
      <trkpt lat="43.57841" lon="2.10179">
        <ele>192</ele>
        <time>2019-11-04T22:41:07Z</time>
      </trkpt>
      <trkpt lat="43.5789" lon="2.09964">
        <ele>198</ele>
        <time>2019-11-04T22:43:17Z</time>
      </trkpt>
      <trkpt lat="43.57933" lon="2.09851">
        <ele>202</ele>
        <time>2019-11-04T22:44:31Z</time>
      </trkpt>
      <trkpt lat="43.5803" lon="2.09516">
        <ele>210</ele>
        <time>2019-11-04T22:48:01Z</time>
      </trkpt>
      <trkpt lat="43.58041" lon="2.09523">
        <ele>209</ele>
        <time>2019-11-04T22:48:10Z</time>
      </trkpt>
      <trkpt lat="43.58124" lon="2.09631">
        <ele>201</ele>
        <time>2019-11-04T22:49:42Z</time>
      </trkpt>
      <trkpt lat="43.58204" lon="2.09744">
        <ele>198</ele>
        <time>2019-11-04T22:51:13Z</time>
      </trkpt>
      <trkpt lat="43.58221" lon="2.09773">
        <ele>197</ele>
        <time>2019-11-04T22:51:35Z</time>
      </trkpt>
      <trkpt lat="43.58476" lon="2.10142">
        <ele>181</ele>
        <time>2019-11-04T22:56:31Z</time>
      </trkpt>
      <trkpt lat="43.58521" lon="2.10206">
        <ele>180</ele>
        <time>2019-11-04T22:57:22Z</time>
      </trkpt>
      <trkpt lat="43.58533" lon="2.10217">
        <ele>180</ele>
        <time>2019-11-04T22:57:34Z</time>
      </trkpt>
      <trkpt lat="43.58603" lon="2.10325">
        <ele>176</ele>
        <time>2019-11-04T22:58:58Z</time>
      </trkpt>
      <trkpt lat="43.58636" lon="2.10397">
        <ele>177</ele>
        <time>2019-11-04T22:59:47Z</time>
      </trkpt>
      <trkpt lat="43.58648" lon="2.10411">
        <ele>177</ele>
        <time>2019-11-04T23:00:00Z</time>
      </trkpt>
      <trkpt lat="43.58659" lon="2.10419">
        <ele>178</ele>
        <time>2019-11-04T23:00:10Z</time>
      </trkpt>
      <trkpt lat="43.58746" lon="2.10502">
        <ele>186</ele>
        <time>2019-11-04T23:01:35Z</time>
      </trkpt>
      <trkpt lat="43.58751" lon="2.10503">
        <ele>186</ele>
        <time>2019-11-04T23:01:39Z</time>
      </trkpt>
      <trkpt lat="43.58762" lon="2.10498">
        <ele>187</ele>
        <time>2019-11-04T23:01:48Z</time>
      </trkpt>
      <trkpt lat="43.58834" lon="2.10592">
        <ele>192</ele>
        <time>2019-11-04T23:03:07Z</time>
      </trkpt>
      <trkpt lat="43.58852" lon="2.1057">
        <ele>191</ele>
        <time>2019-11-04T23:03:27Z</time>
      </trkpt>
      <trkpt lat="43.58919" lon="2.10475">
        <ele>191</ele>
        <time>2019-11-04T23:04:43Z</time>
      </trkpt>
      <trkpt lat="43.58945" lon="2.10426">
        <ele>190</ele>
        <time>2019-11-04T23:05:19Z</time>
      </trkpt>
      <trkpt lat="43.58955" lon="2.10399">
        <ele>190</ele>
        <time>2019-11-04T23:05:36Z</time>
      </trkpt>
      <trkpt lat="43.58989" lon="2.10278">
        <ele>190</ele>
        <time>2019-11-04T23:06:52Z</time>
      </trkpt>
      <trkpt lat="43.59023" lon="2.1018">
        <ele>188</ele>
        <time>2019-11-04T23:07:55Z</time>
      </trkpt>
      <trkpt lat="43.59057" lon="2.10132">
        <ele>188</ele>
        <time>2019-11-04T23:08:33Z</time>
      </trkpt>
      <trkpt lat="43.59122" lon="2.10074">
        <ele>191</ele>
        <time>2019-11-04T23:09:35Z</time>
      </trkpt>
      <trkpt lat="43.59151" lon="2.10039">
        <ele>193</ele>
        <time>2019-11-04T23:10:06Z</time>
      </trkpt>
      <trkpt lat="43.59164" lon="2.10019">
        <ele>195</ele>
        <time>2019-11-04T23:10:22Z</time>
      </trkpt>
      <trkpt lat="43.59173" lon="2.10024">
        <ele>195</ele>
        <time>2019-11-04T23:10:30Z</time>
      </trkpt>
      <trkpt lat="43.59172" lon="2.1001">
        <ele>195</ele>
        <time>2019-11-04T23:10:38Z</time>
      </trkpt>
      <trkpt lat="43.59174" lon="2.10001">
        <ele>196</ele>
        <time>2019-11-04T23:10:43Z</time>
      </trkpt>
      <trkpt lat="43.59212" lon="2.09907">
        <ele>197</ele>
        <time>2019-11-04T23:11:46Z</time>
      </trkpt>
      <trkpt lat="43.59218" lon="2.09888">
        <ele>199</ele>
        <time>2019-11-04T23:11:58Z</time>
      </trkpt>
      <trkpt lat="43.59221" lon="2.09864">
        <ele>200</ele>
        <time>2019-11-04T23:12:12Z</time>
      </trkpt>
      <trkpt lat="43.59227" lon="2.09851">
        <ele>201</ele>
        <time>2019-11-04T23:12:21Z</time>
      </trkpt>
      <trkpt lat="43.59268" lon="2.09822">
        <ele>203</ele>
        <time>2019-11-04T23:12:58Z</time>
      </trkpt>
      <trkpt lat="43.59284" lon="2.09804">
        <ele>204</ele>
        <time>2019-11-04T23:13:14Z</time>
      </trkpt>
      <trkpt lat="43.59289" lon="2.09794">
        <ele>205</ele>
        <time>2019-11-04T23:13:21Z</time>
      </trkpt>
      <trkpt lat="43.59294" lon="2.09773">
        <ele>206</ele>
        <time>2019-11-04T23:13:34Z</time>
      </trkpt>
      <trkpt lat="43.59299" lon="2.09726">
        <ele>209</ele>
        <time>2019-11-04T23:14:02Z</time>
      </trkpt>
      <trkpt lat="43.59305" lon="2.09696">
        <ele>211</ele>
        <time>2019-11-04T23:14:20Z</time>
      </trkpt>
      <trkpt lat="43.5934" lon="2.09561">
        <ele>215</ele>
        <time>2019-11-04T23:15:43Z</time>
      </trkpt>
      <trkpt lat="43.5935" lon="2.09492">
        <ele>214</ele>
        <time>2019-11-04T23:16:24Z</time>
      </trkpt>
      <trkpt lat="43.59349" lon="2.09479">
        <ele>214</ele>
        <time>2019-11-04T23:16:31Z</time>
      </trkpt>
      <trkpt lat="43.59334" lon="2.0942">
        <ele>214</ele>
        <time>2019-11-04T23:17:07Z</time>
      </trkpt>
      <trkpt lat="43.59327" lon="2.09365">
        <ele>216</ele>
        <time>2019-11-04T23:17:40Z</time>
      </trkpt>
      <trkpt lat="43.59334" lon="2.09332">
        <ele>218</ele>
        <time>2019-11-04T23:18:00Z</time>
      </trkpt>
      <trkpt lat="43.59347" lon="2.0929">
        <ele>217</ele>
        <time>2019-11-04T23:18:26Z</time>
      </trkpt>
      <trkpt lat="43.59353" lon="2.09254">
        <ele>217</ele>
        <time>2019-11-04T23:18:48Z</time>
      </trkpt>
      <trkpt lat="43.59351" lon="2.09233">
        <ele>217</ele>
        <time>2019-11-04T23:19:00Z</time>
      </trkpt>
      <trkpt lat="43.59341" lon="2.09203">
        <ele>218</ele>
        <time>2019-11-04T23:19:19Z</time>
      </trkpt>
      <trkpt lat="43.59312" lon="2.09147">
        <ele>217</ele>
        <time>2019-11-04T23:19:59Z</time>
      </trkpt>
      <trkpt lat="43.59384" lon="2.08952">
        <ele>213</ele>
        <time>2019-11-04T23:22:06Z</time>
      </trkpt>
      <trkpt lat="43.59387" lon="2.08913">
        <ele>212</ele>
        <time>2019-11-04T23:22:29Z</time>
      </trkpt>
      <trkpt lat="43.59372" lon="2.08836">
        <ele>211</ele>
        <time>2019-11-04T23:23:15Z</time>
      </trkpt>
      <trkpt lat="43.59373" lon="2.08809">
        <ele>212</ele>
        <time>2019-11-04T23:23:31Z</time>
      </trkpt>
      <trkpt lat="43.59371" lon="2.08789">
        <ele>213</ele>
        <time>2019-11-04T23:23:42Z</time>
      </trkpt>
      <trkpt lat="43.59392" lon="2.08712">
        <ele>215</ele>
        <time>2019-11-04T23:24:30Z</time>
      </trkpt>
      <trkpt lat="43.59412" lon="2.08685">
        <ele>215</ele>
        <time>2019-11-04T23:24:52Z</time>
      </trkpt>
      <trkpt lat="43.59421" lon="2.08665">
        <ele>216</ele>
        <time>2019-11-04T23:25:06Z</time>
      </trkpt>
      <trkpt lat="43.59439" lon="2.08414">
        <ele>226</ele>
        <time>2019-11-04T23:27:32Z</time>
      </trkpt>
      <trkpt lat="43.59449" lon="2.08351">
        <ele>229</ele>
        <time>2019-11-04T23:28:10Z</time>
      </trkpt>
      <trkpt lat="43.59459" lon="2.08311">
        <ele>232</ele>
        <time>2019-11-04T23:28:34Z</time>
      </trkpt>
      <trkpt lat="43.59466" lon="2.08296">
        <ele>233</ele>
        <time>2019-11-04T23:28:45Z</time>
      </trkpt>
      <trkpt lat="43.5955" lon="2.08168">
        <ele>248</ele>
        <time>2019-11-04T23:30:25Z</time>
      </trkpt>
      <trkpt lat="43.59569" lon="2.08127">
        <ele>251</ele>
        <time>2019-11-04T23:30:53Z</time>
      </trkpt>
      <trkpt lat="43.5957" lon="2.08114">
        <ele>253</ele>
        <time>2019-11-04T23:31:01Z</time>
      </trkpt>
      <trkpt lat="43.59566" lon="2.08101">
        <ele>255</ele>
        <time>2019-11-04T23:31:09Z</time>
      </trkpt>
      <trkpt lat="43.59561" lon="2.08056">
        <ele>261</ele>
        <time>2019-11-04T23:31:35Z</time>
      </trkpt>
      <trkpt lat="43.59564" lon="2.08005">
        <ele>266</ele>
        <time>2019-11-04T23:32:05Z</time>
      </trkpt>
      <trkpt lat="43.59562" lon="2.07982">
        <ele>268</ele>
        <time>2019-11-04T23:32:18Z</time>
      </trkpt>
      <trkpt lat="43.59551" lon="2.07973">
        <ele>271</ele>
        <time>2019-11-04T23:32:29Z</time>
      </trkpt>
      <trkpt lat="43.59534" lon="2.07968">
        <ele>275</ele>
        <time>2019-11-04T23:32:42Z</time>
      </trkpt>
      <trkpt lat="43.59525" lon="2.07972">
        <ele>276</ele>
        <time>2019-11-04T23:32:50Z</time>
      </trkpt>
      <trkpt lat="43.59511" lon="2.07983">
        <ele>277</ele>
        <time>2019-11-04T23:33:03Z</time>
      </trkpt>
      <trkpt lat="43.59517" lon="2.07935">
        <ele>283</ele>
        <time>2019-11-04T23:33:31Z</time>
      </trkpt>
      <trkpt lat="43.59529" lon="2.07898">
        <ele>285</ele>
        <time>2019-11-04T23:33:55Z</time>
      </trkpt>
      <trkpt lat="43.5953" lon="2.07866">
        <ele>289</ele>
        <time>2019-11-04T23:34:13Z</time>
      </trkpt>
      <trkpt lat="43.59543" lon="2.07824">
        <ele>292</ele>
        <time>2019-11-04T23:34:40Z</time>
      </trkpt>
      <trkpt lat="43.59549" lon="2.0779">
        <ele>295</ele>
        <time>2019-11-04T23:35:00Z</time>
      </trkpt>
      <trkpt lat="43.59557" lon="2.07767">
        <ele>296</ele>
        <time>2019-11-04T23:35:15Z</time>
      </trkpt>
      <trkpt lat="43.59558" lon="2.07751">
        <ele>298</ele>
        <time>2019-11-04T23:35:24Z</time>
      </trkpt>
      <trkpt lat="43.59553" lon="2.07721">
        <ele>301</ele>
        <time>2019-11-04T23:35:42Z</time>
      </trkpt>
      <trkpt lat="43.59509" lon="2.07611">
        <ele>306</ele>
        <time>2019-11-04T23:36:55Z</time>
      </trkpt>
      <trkpt lat="43.59503" lon="2.07604">
        <ele>305</ele>
        <time>2019-11-04T23:37:01Z</time>
      </trkpt>
      <trkpt lat="43.59498" lon="2.07602">
        <ele>306</ele>
        <time>2019-11-04T23:37:05Z</time>
      </trkpt>
      <trkpt lat="43.59453" lon="2.07593">
        <ele>313</ele>
        <time>2019-11-04T23:37:42Z</time>
      </trkpt>
      <trkpt lat="43.59421" lon="2.07537">
        <ele>314</ele>
        <time>2019-11-04T23:38:23Z</time>
      </trkpt>
      <trkpt lat="43.59406" lon="2.07489">
        <ele>315</ele>
        <time>2019-11-04T23:38:53Z</time>
      </trkpt>
      <trkpt lat="43.59394" lon="2.07435">
        <ele>317</ele>
        <time>2019-11-04T23:39:26Z</time>
      </trkpt>
      <trkpt lat="43.59376" lon="2.07384">
        <ele>322</ele>
        <time>2019-11-04T23:39:59Z</time>
      </trkpt>
      <trkpt lat="43.59365" lon="2.07314">
        <ele>325</ele>
        <time>2019-11-04T23:40:41Z</time>
      </trkpt>
      <trkpt lat="43.59365" lon="2.0725">
        <ele>328</ele>
        <time>2019-11-04T23:41:18Z</time>
      </trkpt>
      <trkpt lat="43.59426" lon="2.07076">
        <ele>326</ele>
        <time>2019-11-04T23:43:10Z</time>
      </trkpt>
      <trkpt lat="43.59457" lon="2.06947">
        <ele>322</ele>
        <time>2019-11-04T23:44:29Z</time>
      </trkpt>
      <trkpt lat="43.5947" lon="2.06918">
        <ele>322</ele>
        <time>2019-11-04T23:44:48Z</time>
      </trkpt>
      <trkpt lat="43.59486" lon="2.0689">
        <ele>323</ele>
        <time>2019-11-04T23:45:09Z</time>
      </trkpt>
      <trkpt lat="43.595" lon="2.06871">
        <ele>325</ele>
        <time>2019-11-04T23:45:25Z</time>
      </trkpt>
      <trkpt lat="43.59526" lon="2.06848">
        <ele>326</ele>
        <time>2019-11-04T23:45:49Z</time>
      </trkpt>
      <trkpt lat="43.59587" lon="2.06818">
        <ele>326</ele>
        <time>2019-11-04T23:46:41Z</time>
      </trkpt>
      <trkpt lat="43.59776" lon="2.06712">
        <ele>320</ele>
        <time>2019-11-04T23:49:25Z</time>
      </trkpt>
      <trkpt lat="43.59828" lon="2.06675">
        <ele>323</ele>
        <time>2019-11-04T23:50:12Z</time>
      </trkpt>
      <trkpt lat="43.59877" lon="2.06645">
        <ele>322</ele>
        <time>2019-11-04T23:50:54Z</time>
      </trkpt>
      <trkpt lat="43.59887" lon="2.06635">
        <ele>322</ele>
        <time>2019-11-04T23:51:04Z</time>
      </trkpt>
      <trkpt lat="43.59892" lon="2.06626">
        <ele>322</ele>
        <time>2019-11-04T23:51:11Z</time>
      </trkpt>
      <trkpt lat="43.59949" lon="2.0651">
        <ele>325</ele>
        <time>2019-11-04T23:52:32Z</time>
      </trkpt>
      <trkpt lat="43.59961" lon="2.06496">
        <ele>326</ele>
        <time>2019-11-04T23:52:45Z</time>
      </trkpt>
      <trkpt lat="43.6001" lon="2.06456">
        <ele>326</ele>
        <time>2019-11-04T23:53:30Z</time>
      </trkpt>
      <trkpt lat="43.6006" lon="2.06377">
        <ele>325</ele>
        <time>2019-11-04T23:54:31Z</time>
      </trkpt>
      <trkpt lat="43.60075" lon="2.06347">
        <ele>325</ele>
        <time>2019-11-04T23:54:52Z</time>
      </trkpt>
      <trkpt lat="43.6009" lon="2.06305">
        <ele>324</ele>
        <time>2019-11-04T23:55:19Z</time>
      </trkpt>
      <trkpt lat="43.60136" lon="2.06094">
        <ele>321</ele>
        <time>2019-11-04T23:57:27Z</time>
      </trkpt>
      <trkpt lat="43.60168" lon="2.0593">
        <ele>329</ele>
        <time>2019-11-04T23:59:06Z</time>
      </trkpt>
      <trkpt lat="43.60178" lon="2.0589">
        <ele>329</ele>
        <time>2019-11-04T23:59:30Z</time>
      </trkpt>
      <trkpt lat="43.602" lon="2.05822">
        <ele>327</ele>
        <time>2019-11-05T00:00:13Z</time>
      </trkpt>
      <trkpt lat="43.60198" lon="2.05784">
        <ele>325</ele>
        <time>2019-11-05T00:00:36Z</time>
      </trkpt>
      <trkpt lat="43.60184" lon="2.05731">
        <ele>324</ele>
        <time>2019-11-05T00:01:08Z</time>
      </trkpt>
      <trkpt lat="43.60182" lon="2.05715">
        <ele>323</ele>
        <time>2019-11-05T00:01:18Z</time>
      </trkpt>
      <trkpt lat="43.6018" lon="2.05657">
        <ele>320</ele>
        <time>2019-11-05T00:01:51Z</time>
      </trkpt>
      <trkpt lat="43.60186" lon="2.05623">
        <ele>320</ele>
        <time>2019-11-05T00:02:12Z</time>
      </trkpt>
      <trkpt lat="43.60207" lon="2.05662">
        <ele>318</ele>
        <time>2019-11-05T00:02:40Z</time>
      </trkpt>
      <trkpt lat="43.60249" lon="2.05724">
        <ele>317</ele>
        <time>2019-11-05T00:03:29Z</time>
      </trkpt>
      <trkpt lat="43.60298" lon="2.05765">
        <ele>312</ele>
        <time>2019-11-05T00:04:15Z</time>
      </trkpt>
      <trkpt lat="43.60333" lon="2.05811">
        <ele>307</ele>
        <time>2019-11-05T00:04:54Z</time>
      </trkpt>
      <trkpt lat="43.60354" lon="2.05826">
        <ele>306</ele>
        <time>2019-11-05T00:05:12Z</time>
      </trkpt>
      <trkpt lat="43.60393" lon="2.05844">
        <ele>303</ele>
        <time>2019-11-05T00:05:45Z</time>
      </trkpt>
      <trkpt lat="43.60412" lon="2.05865">
        <ele>299</ele>
        <time>2019-11-05T00:06:05Z</time>
      </trkpt>
      <trkpt lat="43.60467" lon="2.05904">
        <ele>294</ele>
        <time>2019-11-05T00:06:54Z</time>
      </trkpt>
      <trkpt lat="43.60486" lon="2.05925">
        <ele>291</ele>
        <time>2019-11-05T00:07:14Z</time>
      </trkpt>
      <trkpt lat="43.60514" lon="2.05972">
        <ele>282</ele>
        <time>2019-11-05T00:07:49Z</time>
      </trkpt>
      <trkpt lat="43.60539" lon="2.06003">
        <ele>276</ele>
        <time>2019-11-05T00:08:16Z</time>
      </trkpt>
      <trkpt lat="43.60575" lon="2.06036">
        <ele>271</ele>
        <time>2019-11-05T00:08:51Z</time>
      </trkpt>
      <trkpt lat="43.60594" lon="2.06047">
        <ele>269</ele>
        <time>2019-11-05T00:09:07Z</time>
      </trkpt>
      <trkpt lat="43.60656" lon="2.06073">
        <ele>262</ele>
        <time>2019-11-05T00:09:59Z</time>
      </trkpt>
      <trkpt lat="43.60704" lon="2.06077">
        <ele>258</ele>
        <time>2019-11-05T00:10:38Z</time>
      </trkpt>
      <trkpt lat="43.60712" lon="2.06075">
        <ele>257</ele>
        <time>2019-11-05T00:10:44Z</time>
      </trkpt>
      <trkpt lat="43.60728" lon="2.06066">
        <ele>257</ele>
        <time>2019-11-05T00:10:58Z</time>
      </trkpt>
      <trkpt lat="43.60759" lon="2.06038">
        <ele>258</ele>
        <time>2019-11-05T00:11:28Z</time>
      </trkpt>
      <trkpt lat="43.60774" lon="2.06031">
        <ele>258</ele>
        <time>2019-11-05T00:11:40Z</time>
      </trkpt>
      <trkpt lat="43.60791" lon="2.06032">
        <ele>257</ele>
        <time>2019-11-05T00:11:54Z</time>
      </trkpt>
      <trkpt lat="43.60805" lon="2.06043">
        <ele>255</ele>
        <time>2019-11-05T00:12:07Z</time>
      </trkpt>
      <trkpt lat="43.60828" lon="2.06075">
        <ele>253</ele>
        <time>2019-11-05T00:12:33Z</time>
      </trkpt>
      <trkpt lat="43.60858" lon="2.06104">
        <ele>250</ele>
        <time>2019-11-05T00:13:02Z</time>
      </trkpt>
      <trkpt lat="43.60873" lon="2.06122">
        <ele>247</ele>
        <time>2019-11-05T00:13:18Z</time>
      </trkpt>
      <trkpt lat="43.60869" lon="2.06137">
        <ele>246</ele>
        <time>2019-11-05T00:13:27Z</time>
      </trkpt>
      <trkpt lat="43.60858" lon="2.06146">
        <ele>245</ele>
        <time>2019-11-05T00:13:38Z</time>
      </trkpt>
      <trkpt lat="43.60778" lon="2.06156">
        <ele>243</ele>
        <time>2019-11-05T00:14:42Z</time>
      </trkpt>
      <trkpt lat="43.60759" lon="2.06164">
        <ele>242</ele>
        <time>2019-11-05T00:14:58Z</time>
      </trkpt>
      <trkpt lat="43.60666" lon="2.06234">
        <ele>239</ele>
        <time>2019-11-05T00:16:23Z</time>
      </trkpt>
      <trkpt lat="43.60656" lon="2.06248">
        <ele>238</ele>
        <time>2019-11-05T00:16:34Z</time>
      </trkpt>
      <trkpt lat="43.60652" lon="2.06266">
        <ele>236</ele>
        <time>2019-11-05T00:16:45Z</time>
      </trkpt>
      <trkpt lat="43.60653" lon="2.06286">
        <ele>235</ele>
        <time>2019-11-05T00:16:57Z</time>
      </trkpt>
      <trkpt lat="43.60714" lon="2.06502">
        <ele>223</ele>
        <time>2019-11-05T00:19:11Z</time>
      </trkpt>
      <trkpt lat="43.60728" lon="2.06532">
        <ele>221</ele>
        <time>2019-11-05T00:19:32Z</time>
      </trkpt>
      <trkpt lat="43.60734" lon="2.06552">
        <ele>220</ele>
        <time>2019-11-05T00:19:44Z</time>
      </trkpt>
      <trkpt lat="43.60735" lon="2.06569">
        <ele>219</ele>
        <time>2019-11-05T00:19:54Z</time>
      </trkpt>
      <trkpt lat="43.60727" lon="2.06588">
        <ele>219</ele>
        <time>2019-11-05T00:20:07Z</time>
      </trkpt>
      <trkpt lat="43.6072" lon="2.06596">
        <ele>219</ele>
        <time>2019-11-05T00:20:14Z</time>
      </trkpt>
      <trkpt lat="43.60706" lon="2.06603">
        <ele>219</ele>
        <time>2019-11-05T00:20:26Z</time>
      </trkpt>
      <trkpt lat="43.60689" lon="2.06604">
        <ele>220</ele>
        <time>2019-11-05T00:20:40Z</time>
      </trkpt>
      <trkpt lat="43.60684" lon="2.06603">
        <ele>220</ele>
        <time>2019-11-05T00:20:44Z</time>
      </trkpt>
      <trkpt lat="43.60677" lon="2.06596">
        <ele>220</ele>
        <time>2019-11-05T00:20:51Z</time>
      </trkpt>
      <trkpt lat="43.60659" lon="2.06573">
        <ele>223</ele>
        <time>2019-11-05T00:21:10Z</time>
      </trkpt>
      <trkpt lat="43.60648" lon="2.06572">
        <ele>225</ele>
        <time>2019-11-05T00:21:19Z</time>
      </trkpt>
      <trkpt lat="43.60643" lon="2.06576">
        <ele>226</ele>
        <time>2019-11-05T00:21:24Z</time>
      </trkpt>
      <trkpt lat="43.60631" lon="2.06595">
        <ele>226</ele>
        <time>2019-11-05T00:21:38Z</time>
      </trkpt>
      <trkpt lat="43.60589" lon="2.06616">
        <ele>230</ele>
        <time>2019-11-05T00:22:14Z</time>
      </trkpt>
      <trkpt lat="43.60575" lon="2.06628">
        <ele>229</ele>
        <time>2019-11-05T00:22:27Z</time>
      </trkpt>
      <trkpt lat="43.60556" lon="2.06654">
        <ele>227</ele>
        <time>2019-11-05T00:22:49Z</time>
      </trkpt>
      <trkpt lat="43.60554" lon="2.06661">
        <ele>226</ele>
        <time>2019-11-05T00:22:53Z</time>
      </trkpt>
      <trkpt lat="43.60555" lon="2.06677">
        <ele>225</ele>
        <time>2019-11-05T00:23:02Z</time>
      </trkpt>
      <trkpt lat="43.60603" lon="2.06749">
        <ele>225</ele>
        <time>2019-11-05T00:23:59Z</time>
      </trkpt>
      <trkpt lat="43.60628" lon="2.06771">
        <ele>227</ele>
        <time>2019-11-05T00:24:23Z</time>
      </trkpt>
      <trkpt lat="43.60644" lon="2.0678">
        <ele>227</ele>
        <time>2019-11-05T00:24:37Z</time>
      </trkpt>
      <trkpt lat="43.6069" lon="2.06787">
        <ele>228</ele>
        <time>2019-11-05T00:25:14Z</time>
      </trkpt>
      <trkpt lat="43.60696" lon="2.06791">
        <ele>229</ele>
        <time>2019-11-05T00:25:19Z</time>
      </trkpt>
      <trkpt lat="43.60703" lon="2.06802">
        <ele>230</ele>
        <time>2019-11-05T00:25:28Z</time>
      </trkpt>
      <trkpt lat="43.60705" lon="2.0681">
        <ele>231</ele>
        <time>2019-11-05T00:25:33Z</time>
      </trkpt>
      <trkpt lat="43.60704" lon="2.06853">
        <ele>235</ele>
        <time>2019-11-05T00:25:57Z</time>
      </trkpt>
      <trkpt lat="43.60708" lon="2.06876">
        <ele>236</ele>
        <time>2019-11-05T00:26:11Z</time>
      </trkpt>
      <trkpt lat="43.60712" lon="2.06883">
        <ele>236</ele>
        <time>2019-11-05T00:26:16Z</time>
      </trkpt>
      <trkpt lat="43.60727" lon="2.06896">
        <ele>237</ele>
        <time>2019-11-05T00:26:31Z</time>
      </trkpt>
      <trkpt lat="43.60787" lon="2.06929">
        <ele>239</ele>
        <time>2019-11-05T00:27:22Z</time>
      </trkpt>
      <trkpt lat="43.60794" lon="2.06935">
        <ele>240</ele>
        <time>2019-11-05T00:27:29Z</time>
      </trkpt>
      <trkpt lat="43.60808" lon="2.06984">
        <ele>244</ele>
        <time>2019-11-05T00:27:59Z</time>
      </trkpt>
      <trkpt lat="43.6082" lon="2.07007">
        <ele>246</ele>
        <time>2019-11-05T00:28:16Z</time>
      </trkpt>
      <trkpt lat="43.60829" lon="2.07017">
        <ele>248</ele>
        <time>2019-11-05T00:28:25Z</time>
      </trkpt>
      <trkpt lat="43.60884" lon="2.0705">
        <ele>254</ele>
        <time>2019-11-05T00:29:13Z</time>
      </trkpt>
      <trkpt lat="43.60896" lon="2.07067">
        <ele>258</ele>
        <time>2019-11-05T00:29:27Z</time>
      </trkpt>
      <trkpt lat="43.60901" lon="2.07088">
        <ele>261</ele>
        <time>2019-11-05T00:29:40Z</time>
      </trkpt>
      <trkpt lat="43.60906" lon="2.07095">
        <ele>262</ele>
        <time>2019-11-05T00:29:45Z</time>
      </trkpt>
      <trkpt lat="43.60923" lon="2.07102">
        <ele>264</ele>
        <time>2019-11-05T00:30:00Z</time>
      </trkpt>
      <trkpt lat="43.60946" lon="2.07101">
        <ele>265</ele>
        <time>2019-11-05T00:30:18Z</time>
      </trkpt>
      <trkpt lat="43.60961" lon="2.07091">
        <ele>265</ele>
        <time>2019-11-05T00:30:31Z</time>
      </trkpt>
      <trkpt lat="43.60984" lon="2.07065">
        <ele>262</ele>
        <time>2019-11-05T00:30:55Z</time>
      </trkpt>
      <trkpt lat="43.60993" lon="2.07061">
        <ele>262</ele>
        <time>2019-11-05T00:31:03Z</time>
      </trkpt>
      <trkpt lat="43.61037" lon="2.07071">
        <ele>264</ele>
        <time>2019-11-05T00:31:38Z</time>
      </trkpt>
      <trkpt lat="43.61075" lon="2.07088">
        <ele>266</ele>
        <time>2019-11-05T00:32:10Z</time>
      </trkpt>
      <trkpt lat="43.611" lon="2.07104">
        <ele>264</ele>
        <time>2019-11-05T00:32:32Z</time>
      </trkpt>
      <trkpt lat="43.61106" lon="2.07115">
        <ele>263</ele>
        <time>2019-11-05T00:32:40Z</time>
      </trkpt>
      <trkpt lat="43.61122" lon="2.07185">
        <ele>262</ele>
        <time>2019-11-05T00:33:23Z</time>
      </trkpt>
      <trkpt lat="43.61117" lon="2.07239">
        <ele>262</ele>
        <time>2019-11-05T00:33:55Z</time>
      </trkpt>
      <trkpt lat="43.61128" lon="2.07325">
        <ele>260</ele>
        <time>2019-11-05T00:34:45Z</time>
      </trkpt>
      <trkpt lat="43.61135" lon="2.07353">
        <ele>258</ele>
        <time>2019-11-05T00:35:02Z</time>
      </trkpt>
      <trkpt lat="43.61145" lon="2.07368">
        <ele>257</ele>
        <time>2019-11-05T00:35:14Z</time>
      </trkpt>
      <trkpt lat="43.61169" lon="2.07379">
        <ele>255</ele>
        <time>2019-11-05T00:35:34Z</time>
      </trkpt>
      <trkpt lat="43.61184" lon="2.07393">
        <ele>254</ele>
        <time>2019-11-05T00:35:49Z</time>
      </trkpt>
      <trkpt lat="43.61214" lon="2.07452">
        <ele>251</ele>
        <time>2019-11-05T00:36:31Z</time>
      </trkpt>
      <trkpt lat="43.61243" lon="2.07501">
        <ele>248</ele>
        <time>2019-11-05T00:37:07Z</time>
      </trkpt>
      <trkpt lat="43.61273" lon="2.07573">
        <ele>246</ele>
        <time>2019-11-05T00:37:56Z</time>
      </trkpt>
      <trkpt lat="43.61292" lon="2.07608">
        <ele>247</ele>
        <time>2019-11-05T00:38:21Z</time>
      </trkpt>
      <trkpt lat="43.61338" lon="2.07649">
        <ele>249</ele>
        <time>2019-11-05T00:39:05Z</time>
      </trkpt>
      <trkpt lat="43.6135" lon="2.07655">
        <ele>248</ele>
        <time>2019-11-05T00:39:15Z</time>
      </trkpt>
      <trkpt lat="43.61364" lon="2.07653">
        <ele>247</ele>
        <time>2019-11-05T00:39:26Z</time>
      </trkpt>
      <trkpt lat="43.61359" lon="2.07671">
        <ele>247</ele>
        <time>2019-11-05T00:39:37Z</time>
      </trkpt>
      <trkpt lat="43.61375" lon="2.07721">
        <ele>242</ele>
        <time>2019-11-05T00:40:09Z</time>
      </trkpt>
      <trkpt lat="43.61378" lon="2.07748">
        <ele>240</ele>
        <time>2019-11-05T00:40:25Z</time>
      </trkpt>
      <trkpt lat="43.6138" lon="2.07855">
        <ele>237</ele>
        <time>2019-11-05T00:41:27Z</time>
      </trkpt>
      <trkpt lat="43.61362" lon="2.08086">
        <ele>244</ele>
        <time>2019-11-05T00:43:42Z</time>
      </trkpt>
      <trkpt lat="43.61367" lon="2.08123">
        <ele>242</ele>
        <time>2019-11-05T00:44:03Z</time>
      </trkpt>
      <trkpt lat="43.61386" lon="2.0818">
        <ele>240</ele>
        <time>2019-11-05T00:44:40Z</time>
      </trkpt>
      <trkpt lat="43.61391" lon="2.08208">
        <ele>239</ele>
        <time>2019-11-05T00:44:57Z</time>
      </trkpt>
      <trkpt lat="43.61388" lon="2.08345">
        <ele>231</ele>
        <time>2019-11-05T00:46:16Z</time>
      </trkpt>
      <trkpt lat="43.61391" lon="2.0838">
        <ele>229</ele>
        <time>2019-11-05T00:46:36Z</time>
      </trkpt>
      <trkpt lat="43.61396" lon="2.08396">
        <ele>229</ele>
        <time>2019-11-05T00:46:47Z</time>
      </trkpt>
      <trkpt lat="43.61427" lon="2.08448">
        <ele>227</ele>
        <time>2019-11-05T00:47:26Z</time>
      </trkpt>
      <trkpt lat="43.61447" lon="2.08518">
        <ele>221</ele>
        <time>2019-11-05T00:48:09Z</time>
      </trkpt>
      <trkpt lat="43.61453" lon="2.08526">
        <ele>221</ele>
        <time>2019-11-05T00:48:16Z</time>
      </trkpt>
      <trkpt lat="43.61458" lon="2.08532">
        <ele>220</ele>
        <time>2019-11-05T00:48:21Z</time>
      </trkpt>
      <trkpt lat="43.6148" lon="2.08537">
        <ele>221</ele>
        <time>2019-11-05T00:48:39Z</time>
      </trkpt>
      <trkpt lat="43.6152" lon="2.08536">
        <ele>219</ele>
        <time>2019-11-05T00:49:11Z</time>
      </trkpt>
      <trkpt lat="43.61521" lon="2.0863">
        <ele>210</ele>
        <time>2019-11-05T00:50:06Z</time>
      </trkpt>
      <trkpt lat="43.61519" lon="2.08643">
        <ele>208</ele>
        <time>2019-11-05T00:50:13Z</time>
      </trkpt>
      <trkpt lat="43.61509" lon="2.08673">
        <ele>205</ele>
        <time>2019-11-05T00:50:32Z</time>
      </trkpt>
      <trkpt lat="43.61491" lon="2.087">
        <ele>200</ele>
        <time>2019-11-05T00:50:54Z</time>
      </trkpt>
      <trkpt lat="43.61489" lon="2.08707">
        <ele>199</ele>
        <time>2019-11-05T00:50:58Z</time>
      </trkpt>
      <trkpt lat="43.6149" lon="2.0872">
        <ele>197</ele>
        <time>2019-11-05T00:51:06Z</time>
      </trkpt>
      <trkpt lat="43.61543" lon="2.08768">
        <ele>191</ele>
        <time>2019-11-05T00:51:56Z</time>
      </trkpt>
      <trkpt lat="43.61563" lon="2.08782">
        <ele>190</ele>
        <time>2019-11-05T00:52:14Z</time>
      </trkpt>
      <trkpt lat="43.61577" lon="2.088">
        <ele>189</ele>
        <time>2019-11-05T00:52:30Z</time>
      </trkpt>
      <trkpt lat="43.61596" lon="2.08776">
        <ele>189</ele>
        <time>2019-11-05T00:52:50Z</time>
      </trkpt>
      <trkpt lat="43.6161" lon="2.08744">
        <ele>189</ele>
        <time>2019-11-05T00:53:12Z</time>
      </trkpt>
      <trkpt lat="43.61623" lon="2.08705">
        <ele>191</ele>
        <time>2019-11-05T00:53:37Z</time>
      </trkpt>
      <trkpt lat="43.61628" lon="2.08669">
        <ele>193</ele>
        <time>2019-11-05T00:53:58Z</time>
      </trkpt>
      <trkpt lat="43.61628" lon="2.08631">
        <ele>194</ele>
        <time>2019-11-05T00:54:20Z</time>
      </trkpt>
      <trkpt lat="43.61619" lon="2.08596">
        <ele>197</ele>
        <time>2019-11-05T00:54:42Z</time>
      </trkpt>
      <trkpt lat="43.61609" lon="2.08575">
        <ele>200</ele>
        <time>2019-11-05T00:54:56Z</time>
      </trkpt>
      <trkpt lat="43.61602" lon="2.08547">
        <ele>203</ele>
        <time>2019-11-05T00:55:13Z</time>
      </trkpt>
      <trkpt lat="43.61613" lon="2.0848">
        <ele>201</ele>
        <time>2019-11-05T00:55:53Z</time>
      </trkpt>
      <trkpt lat="43.61616" lon="2.08425">
        <ele>203</ele>
        <time>2019-11-05T00:56:25Z</time>
      </trkpt>
      <trkpt lat="43.61628" lon="2.08354">
        <ele>205</ele>
        <time>2019-11-05T00:57:07Z</time>
      </trkpt>
      <trkpt lat="43.61639" lon="2.08258">
        <ele>204</ele>
        <time>2019-11-05T00:58:04Z</time>
      </trkpt>
      <trkpt lat="43.61625" lon="2.08194">
        <ele>205</ele>
        <time>2019-11-05T00:58:43Z</time>
      </trkpt>
      <trkpt lat="43.61583" lon="2.08054">
        <ele>212</ele>
        <time>2019-11-05T01:00:10Z</time>
      </trkpt>
      <trkpt lat="43.61591" lon="2.08009">
        <ele>214</ele>
        <time>2019-11-05T01:00:37Z</time>
      </trkpt>
      <trkpt lat="43.6159" lon="2.07985">
        <ele>215</ele>
        <time>2019-11-05T01:00:51Z</time>
      </trkpt>
      <trkpt lat="43.61603" lon="2.0792">
        <ele>215</ele>
        <time>2019-11-05T01:01:30Z</time>
      </trkpt>
      <trkpt lat="43.61606" lon="2.07877">
        <ele>214</ele>
        <time>2019-11-05T01:01:55Z</time>
      </trkpt>
      <trkpt lat="43.61596" lon="2.07826">
        <ele>215</ele>
        <time>2019-11-05T01:02:26Z</time>
      </trkpt>
      <trkpt lat="43.61592" lon="2.07767">
        <ele>216</ele>
        <time>2019-11-05T01:03:00Z</time>
      </trkpt>
      <trkpt lat="43.61584" lon="2.07732">
        <ele>217</ele>
        <time>2019-11-05T01:03:22Z</time>
      </trkpt>
      <trkpt lat="43.61583" lon="2.07716">
        <ele>217</ele>
        <time>2019-11-05T01:03:31Z</time>
      </trkpt>
      <trkpt lat="43.61586" lon="2.0762">
        <ele>220</ele>
        <time>2019-11-05T01:04:27Z</time>
      </trkpt>
      <trkpt lat="43.61577" lon="2.07553">
        <ele>227</ele>
        <time>2019-11-05T01:05:06Z</time>
      </trkpt>
      <trkpt lat="43.61578" lon="2.07547">
        <ele>228</ele>
        <time>2019-11-05T01:05:10Z</time>
      </trkpt>
      <trkpt lat="43.61583" lon="2.07542">
        <ele>228</ele>
        <time>2019-11-05T01:05:15Z</time>
      </trkpt>
      <trkpt lat="43.61588" lon="2.07543">
        <ele>228</ele>
        <time>2019-11-05T01:05:19Z</time>
      </trkpt>
      <trkpt lat="43.6159" lon="2.07534">
        <ele>229</ele>
        <time>2019-11-05T01:05:24Z</time>
      </trkpt>
      <trkpt lat="43.61589" lon="2.07504">
        <ele>233</ele>
        <time>2019-11-05T01:05:41Z</time>
      </trkpt>
      <trkpt lat="43.61585" lon="2.07496">
        <ele>233</ele>
        <time>2019-11-05T01:05:47Z</time>
      </trkpt>
      <trkpt lat="43.61588" lon="2.07482">
        <ele>235</ele>
        <time>2019-11-05T01:05:56Z</time>
      </trkpt>
      <trkpt lat="43.61592" lon="2.07475">
        <ele>236</ele>
        <time>2019-11-05T01:06:01Z</time>
      </trkpt>
      <trkpt lat="43.61592" lon="2.0746">
        <ele>237</ele>
        <time>2019-11-05T01:06:09Z</time>
      </trkpt>
      <trkpt lat="43.61588" lon="2.07443">
        <ele>239</ele>
        <time>2019-11-05T01:06:20Z</time>
      </trkpt>
      <trkpt lat="43.61587" lon="2.07422">
        <ele>241</ele>
        <time>2019-11-05T01:06:32Z</time>
      </trkpt>
      <trkpt lat="43.61576" lon="2.07385">
        <ele>244</ele>
        <time>2019-11-05T01:06:55Z</time>
      </trkpt>
      <trkpt lat="43.616" lon="2.07338">
        <ele>247</ele>
        <time>2019-11-05T01:07:29Z</time>
      </trkpt>
      <trkpt lat="43.61609" lon="2.07334">
        <ele>247</ele>
        <time>2019-11-05T01:07:36Z</time>
      </trkpt>
      <trkpt lat="43.61614" lon="2.07318">
        <ele>246</ele>
        <time>2019-11-05T01:07:46Z</time>
      </trkpt>
      <trkpt lat="43.61631" lon="2.07317">
        <ele>245</ele>
        <time>2019-11-05T01:08:00Z</time>
      </trkpt>
      <trkpt lat="43.61627" lon="2.07284">
        <ele>244</ele>
        <time>2019-11-05T01:08:19Z</time>
      </trkpt>
      <trkpt lat="43.61622" lon="2.07275">
        <ele>244</ele>
        <time>2019-11-05T01:08:26Z</time>
      </trkpt>
      <trkpt lat="43.6161" lon="2.07234">
        <ele>241</ele>
        <time>2019-11-05T01:08:51Z</time>
      </trkpt>
      <trkpt lat="43.6158" lon="2.07199">
        <ele>240</ele>
        <time>2019-11-05T01:09:23Z</time>
      </trkpt>
      <trkpt lat="43.61558" lon="2.07184">
        <ele>242</ele>
        <time>2019-11-05T01:09:43Z</time>
      </trkpt>
      <trkpt lat="43.61555" lon="2.07176">
        <ele>242</ele>
        <time>2019-11-05T01:09:48Z</time>
      </trkpt>
      <trkpt lat="43.61552" lon="2.07114">
        <ele>237</ele>
        <time>2019-11-05T01:10:24Z</time>
      </trkpt>
      <trkpt lat="43.61556" lon="2.07044">
        <ele>230</ele>
        <time>2019-11-05T01:11:04Z</time>
      </trkpt>
      <trkpt lat="43.61559" lon="2.07036">
        <ele>229</ele>
        <time>2019-11-05T01:11:10Z</time>
      </trkpt>
      <trkpt lat="43.61557" lon="2.07015">
        <ele>227</ele>
        <time>2019-11-05T01:11:22Z</time>
      </trkpt>
      <trkpt lat="43.61552" lon="2.07005">
        <ele>227</ele>
        <time>2019-11-05T01:11:29Z</time>
      </trkpt>
      <trkpt lat="43.61549" lon="2.0699">
        <ele>226</ele>
        <time>2019-11-05T01:11:38Z</time>
      </trkpt>
      <trkpt lat="43.61548" lon="2.06962">
        <ele>222</ele>
        <time>2019-11-05T01:11:54Z</time>
      </trkpt>
      <trkpt lat="43.61537" lon="2.06925">
        <ele>219</ele>
        <time>2019-11-05T01:12:17Z</time>
      </trkpt>
      <trkpt lat="43.61534" lon="2.06865">
        <ele>210</ele>
        <time>2019-11-05T01:12:52Z</time>
      </trkpt>
      <trkpt lat="43.61519" lon="2.06831">
        <ele>208</ele>
        <time>2019-11-05T01:13:15Z</time>
      </trkpt>
      <trkpt lat="43.61509" lon="2.06816">
        <ele>206</ele>
        <time>2019-11-05T01:13:27Z</time>
      </trkpt>
      <trkpt lat="43.61501" lon="2.06798">
        <ele>204</ele>
        <time>2019-11-05T01:13:39Z</time>
      </trkpt>
      <trkpt lat="43.61493" lon="2.06788">
        <ele>202</ele>
        <time>2019-11-05T01:13:48Z</time>
      </trkpt>
      <trkpt lat="43.6148" lon="2.06745">
        <ele>195</ele>
        <time>2019-11-05T01:14:15Z</time>
      </trkpt>
      <trkpt lat="43.61491" lon="2.06699">
        <ele>187</ele>
        <time>2019-11-05T01:14:43Z</time>
      </trkpt>
      <trkpt lat="43.61502" lon="2.06698">
        <ele>186</ele>
        <time>2019-11-05T01:14:52Z</time>
      </trkpt>
      <trkpt lat="43.6151" lon="2.06691">
        <ele>185</ele>
        <time>2019-11-05T01:15:00Z</time>
      </trkpt>
      <trkpt lat="43.61512" lon="2.06682">
        <ele>183</ele>
        <time>2019-11-05T01:15:05Z</time>
      </trkpt>
      <trkpt lat="43.61511" lon="2.06632">
        <ele>187</ele>
        <time>2019-11-05T01:15:34Z</time>
      </trkpt>
      <trkpt lat="43.61505" lon="2.06607">
        <ele>191</ele>
        <time>2019-11-05T01:15:49Z</time>
      </trkpt>
      <trkpt lat="43.61569" lon="2.06644">
        <ele>190</ele>
        <time>2019-11-05T01:16:45Z</time>
      </trkpt>
      <trkpt lat="43.61627" lon="2.06664">
        <ele>192</ele>
        <time>2019-11-05T01:17:33Z</time>
      </trkpt>
      <trkpt lat="43.61643" lon="2.06689">
        <ele>191</ele>
        <time>2019-11-05T01:17:52Z</time>
      </trkpt>
      <trkpt lat="43.61658" lon="2.06707">
        <ele>190</ele>
        <time>2019-11-05T01:18:08Z</time>
      </trkpt>
      <trkpt lat="43.61701" lon="2.06747">
        <ele>189</ele>
        <time>2019-11-05T01:18:50Z</time>
      </trkpt>
      <trkpt lat="43.61729" lon="2.06777">
        <ele>188</ele>
        <time>2019-11-05T01:19:18Z</time>
      </trkpt>
      <trkpt lat="43.6176" lon="2.06829">
        <ele>181</ele>
        <time>2019-11-05T01:19:57Z</time>
      </trkpt>
      <trkpt lat="43.6177" lon="2.06839">
        <ele>180</ele>
        <time>2019-11-05T01:20:07Z</time>
      </trkpt>
      <trkpt lat="43.61781" lon="2.0684">
        <ele>180</ele>
        <time>2019-11-05T01:20:16Z</time>
      </trkpt>
      <trkpt lat="43.61791" lon="2.06834">
        <ele>180</ele>
        <time>2019-11-05T01:20:24Z</time>
      </trkpt>
      <trkpt lat="43.61795" lon="2.06827">
        <ele>181</ele>
        <time>2019-11-05T01:20:30Z</time>
      </trkpt>
      <trkpt lat="43.61834" lon="2.06669">
        <ele>193</ele>
        <time>2019-11-05T01:22:06Z</time>
      </trkpt>
      <trkpt lat="43.61872" lon="2.06554">
        <ele>197</ele>
        <time>2019-11-05T01:23:20Z</time>
      </trkpt>
      <trkpt lat="43.619" lon="2.06489">
        <ele>201</ele>
        <time>2019-11-05T01:24:03Z</time>
      </trkpt>
      <trkpt lat="43.61907" lon="2.06481">
        <ele>201</ele>
        <time>2019-11-05T01:24:11Z</time>
      </trkpt>
      <trkpt lat="43.61919" lon="2.06475">
        <ele>200</ele>
        <time>2019-11-05T01:24:21Z</time>
      </trkpt>
      <trkpt lat="43.61931" lon="2.06473">
        <ele>198</ele>
        <time>2019-11-05T01:24:31Z</time>
      </trkpt>
      <trkpt lat="43.6199" lon="2.06484">
        <ele>190</ele>
        <time>2019-11-05T01:25:18Z</time>
      </trkpt>
      <trkpt lat="43.62002" lon="2.0648">
        <ele>189</ele>
        <time>2019-11-05T01:25:28Z</time>
      </trkpt>
      <trkpt lat="43.62008" lon="2.06467">
        <ele>190</ele>
        <time>2019-11-05T01:25:37Z</time>
      </trkpt>
      <trkpt lat="43.62017" lon="2.06425">
        <ele>194</ele>
        <time>2019-11-05T01:26:02Z</time>
      </trkpt>
      <trkpt lat="43.62027" lon="2.06392">
        <ele>197</ele>
        <time>2019-11-05T01:26:23Z</time>
      </trkpt>
      <trkpt lat="43.62071" lon="2.06375">
        <ele>195</ele>
        <time>2019-11-05T01:27:00Z</time>
      </trkpt>
      <trkpt lat="43.62083" lon="2.06365">
        <ele>195</ele>
        <time>2019-11-05T01:27:11Z</time>
      </trkpt>
      <trkpt lat="43.62133" lon="2.0624">
        <ele>196</ele>
        <time>2019-11-05T01:28:34Z</time>
      </trkpt>
      <trkpt lat="43.62138" lon="2.06229">
        <ele>195</ele>
        <time>2019-11-05T01:28:41Z</time>
      </trkpt>
      <trkpt lat="43.6215" lon="2.06215">
        <ele>194</ele>
        <time>2019-11-05T01:28:54Z</time>
      </trkpt>
      <trkpt lat="43.62161" lon="2.06213">
        <ele>192</ele>
        <time>2019-11-05T01:29:03Z</time>
      </trkpt>
      <trkpt lat="43.62198" lon="2.0623">
        <ele>189</ele>
        <time>2019-11-05T01:29:34Z</time>
      </trkpt>
      <trkpt lat="43.62272" lon="2.06257">
        <ele>185</ele>
        <time>2019-11-05T01:30:35Z</time>
      </trkpt>
      <trkpt lat="43.62315" lon="2.06263">
        <ele>183</ele>
        <time>2019-11-05T01:31:10Z</time>
      </trkpt>
      <trkpt lat="43.62359" lon="2.06266">
        <ele>182</ele>
        <time>2019-11-05T01:31:45Z</time>
      </trkpt>
      <trkpt lat="43.62394" lon="2.06265">
        <ele>181</ele>
        <time>2019-11-05T01:32:13Z</time>
      </trkpt>
      <trkpt lat="43.62445" lon="2.06242">
        <ele>177</ele>
        <time>2019-11-05T01:32:56Z</time>
      </trkpt>
      <trkpt lat="43.62454" lon="2.0624">
        <ele>176</ele>
        <time>2019-11-05T01:33:03Z</time>
      </trkpt>
      <trkpt lat="43.62478" lon="2.0624">
        <ele>173</ele>
        <time>2019-11-05T01:33:23Z</time>
      </trkpt>
      <trkpt lat="43.62496" lon="2.06244">
        <ele>170</ele>
        <time>2019-11-05T01:33:37Z</time>
      </trkpt>
      <trkpt lat="43.62545" lon="2.06263">
        <ele>170</ele>
        <time>2019-11-05T01:34:18Z</time>
      </trkpt>
      <trkpt lat="43.62573" lon="2.0628">
        <ele>170</ele>
        <time>2019-11-05T01:34:43Z</time>
      </trkpt>
      <trkpt lat="43.62608" lon="2.06328">
        <ele>168</ele>
        <time>2019-11-05T01:35:22Z</time>
      </trkpt>
      <trkpt lat="43.6266" lon="2.06376">
        <ele>161</ele>
        <time>2019-11-05T01:36:12Z</time>
      </trkpt>
      <trkpt lat="43.62672" lon="2.06384">
        <ele>159</ele>
        <time>2019-11-05T01:36:23Z</time>
      </trkpt>
      <trkpt lat="43.62687" lon="2.06388">
        <ele>158</ele>
        <time>2019-11-05T01:36:35Z</time>
      </trkpt>
      <trkpt lat="43.62704" lon="2.06386">
        <ele>157</ele>
        <time>2019-11-05T01:36:49Z</time>
      </trkpt>
      <trkpt lat="43.62711" lon="2.06383">
        <ele>156</ele>
        <time>2019-11-05T01:36:55Z</time>
      </trkpt>
      <trkpt lat="43.62725" lon="2.06369">
        <ele>155</ele>
        <time>2019-11-05T01:37:08Z</time>
      </trkpt>
      <trkpt lat="43.62738" lon="2.0634">
        <ele>155</ele>
        <time>2019-11-05T01:37:28Z</time>
      </trkpt>
      <trkpt lat="43.62714" lon="2.06338">
        <ele>157</ele>
        <time>2019-11-05T01:37:47Z</time>
      </trkpt>
      <trkpt lat="43.6264" lon="2.06302">
        <ele>167</ele>
        <time>2019-11-05T01:38:50Z</time>
      </trkpt>
      <trkpt lat="43.62628" lon="2.06286">
        <ele>169</ele>
        <time>2019-11-05T01:39:04Z</time>
      </trkpt>
      <trkpt lat="43.62619" lon="2.06263">
        <ele>170</ele>
        <time>2019-11-05T01:39:19Z</time>
      </trkpt>
      <trkpt lat="43.62614" lon="2.06257">
        <ele>170</ele>
        <time>2019-11-05T01:39:24Z</time>
      </trkpt>
      <trkpt lat="43.62603" lon="2.06251">
        <ele>170</ele>
        <time>2019-11-05T01:39:33Z</time>
      </trkpt>
      <trkpt lat="43.62575" lon="2.0621">
        <ele>180</ele>
        <time>2019-11-05T01:40:06Z</time>
      </trkpt>
      <trkpt lat="43.62561" lon="2.06205">
        <ele>180</ele>
        <time>2019-11-05T01:40:18Z</time>
      </trkpt>
      <trkpt lat="43.62538" lon="2.06204">
        <ele>179</ele>
        <time>2019-11-05T01:40:36Z</time>
      </trkpt>
      <trkpt lat="43.62512" lon="2.06171">
        <ele>183</ele>
        <time>2019-11-05T01:41:04Z</time>
      </trkpt>
      <trkpt lat="43.62498" lon="2.0616">
        <ele>184</ele>
        <time>2019-11-05T01:41:17Z</time>
      </trkpt>
      <trkpt lat="43.6244" lon="2.06172">
        <ele>186</ele>
        <time>2019-11-05T01:42:04Z</time>
      </trkpt>
      <trkpt lat="43.62431" lon="2.06171">
        <ele>187</ele>
        <time>2019-11-05T01:42:11Z</time>
      </trkpt>
      <trkpt lat="43.62421" lon="2.06164">
        <ele>189</ele>
        <time>2019-11-05T01:42:20Z</time>
      </trkpt>
      <trkpt lat="43.62418" lon="2.06146">
        <ele>190</ele>
        <time>2019-11-05T01:42:31Z</time>
      </trkpt>
      <trkpt lat="43.62425" lon="2.06103">
        <ele>194</ele>
        <time>2019-11-05T01:42:57Z</time>
      </trkpt>
      <trkpt lat="43.62453" lon="2.06045">
        <ele>202</ele>
        <time>2019-11-05T01:43:37Z</time>
      </trkpt>
      <trkpt lat="43.62456" lon="2.06034">
        <ele>203</ele>
        <time>2019-11-05T01:43:44Z</time>
      </trkpt>
      <trkpt lat="43.62458" lon="2.06019">
        <ele>205</ele>
        <time>2019-11-05T01:43:53Z</time>
      </trkpt>
      <trkpt lat="43.62457" lon="2.05953">
        <ele>211</ele>
        <time>2019-11-05T01:44:31Z</time>
      </trkpt>
      <trkpt lat="43.62461" lon="2.05952">
        <ele>212</ele>
        <time>2019-11-05T01:44:34Z</time>
      </trkpt>
      <trkpt lat="43.62467" lon="2.05955">
        <ele>213</ele>
        <time>2019-11-05T01:44:39Z</time>
      </trkpt>
      <trkpt lat="43.62476" lon="2.05975">
        <ele>212</ele>
        <time>2019-11-05T01:44:53Z</time>
      </trkpt>
      <trkpt lat="43.62485" lon="2.05988">
        <ele>213</ele>
        <time>2019-11-05T01:45:03Z</time>
      </trkpt>
      <trkpt lat="43.62501" lon="2.06002">
        <ele>215</ele>
        <time>2019-11-05T01:45:19Z</time>
      </trkpt>
      <trkpt lat="43.62531" lon="2.06016">
        <ele>218</ele>
        <time>2019-11-05T01:45:44Z</time>
      </trkpt>
      <trkpt lat="43.62548" lon="2.06018">
        <ele>221</ele>
        <time>2019-11-05T01:45:58Z</time>
      </trkpt>
      <trkpt lat="43.62571" lon="2.06007">
        <ele>227</ele>
        <time>2019-11-05T01:46:17Z</time>
      </trkpt>
      <trkpt lat="43.62601" lon="2.06001">
        <ele>231</ele>
        <time>2019-11-05T01:46:41Z</time>
      </trkpt>
      <trkpt lat="43.62611" lon="2.05993">
        <ele>232</ele>
        <time>2019-11-05T01:46:51Z</time>
      </trkpt>
      <trkpt lat="43.6265" lon="2.05999">
        <ele>232</ele>
        <time>2019-11-05T01:47:22Z</time>
      </trkpt>
      <trkpt lat="43.62662" lon="2.06007">
        <ele>231</ele>
        <time>2019-11-05T01:47:33Z</time>
      </trkpt>
      <trkpt lat="43.62672" lon="2.06019">
        <ele>227</ele>
        <time>2019-11-05T01:47:43Z</time>
      </trkpt>
      <trkpt lat="43.62679" lon="2.06006">
        <ele>227</ele>
        <time>2019-11-05T01:47:53Z</time>
      </trkpt>
      <trkpt lat="43.62687" lon="2.05982">
        <ele>228</ele>
        <time>2019-11-05T01:48:08Z</time>
      </trkpt>
      <trkpt lat="43.62688" lon="2.05964">
        <ele>230</ele>
        <time>2019-11-05T01:48:19Z</time>
      </trkpt>
      <trkpt lat="43.62683" lon="2.05957">
        <ele>233</ele>
        <time>2019-11-05T01:48:24Z</time>
      </trkpt>
      <trkpt lat="43.62649" lon="2.05955">
        <ele>238</ele>
        <time>2019-11-05T01:48:51Z</time>
      </trkpt>
      <trkpt lat="43.62626" lon="2.05947">
        <ele>238</ele>
        <time>2019-11-05T01:49:10Z</time>
      </trkpt>
      <trkpt lat="43.62588" lon="2.05946">
        <ele>238</ele>
        <time>2019-11-05T01:49:41Z</time>
      </trkpt>
      <trkpt lat="43.62575" lon="2.05926">
        <ele>238</ele>
        <time>2019-11-05T01:49:56Z</time>
      </trkpt>
      <trkpt lat="43.62564" lon="2.05896">
        <ele>237</ele>
        <time>2019-11-05T01:50:16Z</time>
      </trkpt>
      <trkpt lat="43.62554" lon="2.05824">
        <ele>240</ele>
        <time>2019-11-05T01:50:58Z</time>
      </trkpt>
      <trkpt lat="43.62555" lon="2.05752">
        <ele>246</ele>
        <time>2019-11-05T01:51:40Z</time>
      </trkpt>
      <trkpt lat="43.62545" lon="2.05721">
        <ele>246</ele>
        <time>2019-11-05T01:52:00Z</time>
      </trkpt>
      <trkpt lat="43.62528" lon="2.05705">
        <ele>244</ele>
        <time>2019-11-05T01:52:16Z</time>
      </trkpt>
      <trkpt lat="43.62515" lon="2.05697">
        <ele>242</ele>
        <time>2019-11-05T01:52:28Z</time>
      </trkpt>
      <trkpt lat="43.62539" lon="2.05669">
        <ele>246</ele>
        <time>2019-11-05T01:52:53Z</time>
      </trkpt>
      <trkpt lat="43.62553" lon="2.05647">
        <ele>248</ele>
        <time>2019-11-05T01:53:10Z</time>
      </trkpt>
      <trkpt lat="43.62556" lon="2.05606">
        <ele>249</ele>
        <time>2019-11-05T01:53:34Z</time>
      </trkpt>
      <trkpt lat="43.62549" lon="2.05552">
        <ele>249</ele>
        <time>2019-11-05T01:54:06Z</time>
      </trkpt>
      <trkpt lat="43.6254" lon="2.05521">
        <ele>249</ele>
        <time>2019-11-05T01:54:25Z</time>
      </trkpt>
      <trkpt lat="43.62528" lon="2.05497">
        <ele>249</ele>
        <time>2019-11-05T01:54:42Z</time>
      </trkpt>
      <trkpt lat="43.62509" lon="2.0548">
        <ele>248</ele>
        <time>2019-11-05T01:55:00Z</time>
      </trkpt>
      <trkpt lat="43.62492" lon="2.05477">
        <ele>247</ele>
        <time>2019-11-05T01:55:14Z</time>
      </trkpt>
      <trkpt lat="43.62501" lon="2.05471">
        <ele>247</ele>
        <time>2019-11-05T01:55:22Z</time>
      </trkpt>
      <trkpt lat="43.62525" lon="2.05428">
        <ele>247</ele>
        <time>2019-11-05T01:55:53Z</time>
      </trkpt>
      <trkpt lat="43.62526" lon="2.0539">
        <ele>244</ele>
        <time>2019-11-05T01:56:15Z</time>
      </trkpt>
      <trkpt lat="43.6253" lon="2.05367">
        <ele>241</ele>
        <time>2019-11-05T01:56:29Z</time>
      </trkpt>
      <trkpt lat="43.62536" lon="2.05355">
        <ele>239</ele>
        <time>2019-11-05T01:56:37Z</time>
      </trkpt>
      <trkpt lat="43.62597" lon="2.05303">
        <ele>224</ele>
        <time>2019-11-05T01:57:35Z</time>
      </trkpt>
      <trkpt lat="43.62612" lon="2.05283">
        <ele>221</ele>
        <time>2019-11-05T01:57:51Z</time>
      </trkpt>
      <trkpt lat="43.62641" lon="2.05254">
        <ele>214</ele>
        <time>2019-11-05T01:58:20Z</time>
      </trkpt>
      <trkpt lat="43.62653" lon="2.05231">
        <ele>210</ele>
        <time>2019-11-05T01:58:36Z</time>
      </trkpt>
      <trkpt lat="43.62682" lon="2.05215">
        <ele>205</ele>
        <time>2019-11-05T01:59:01Z</time>
      </trkpt>
      <trkpt lat="43.62694" lon="2.05194">
        <ele>202</ele>
        <time>2019-11-05T01:59:17Z</time>
      </trkpt>
      <trkpt lat="43.62731" lon="2.0516">
        <ele>193</ele>
        <time>2019-11-05T01:59:53Z</time>
      </trkpt>
      <trkpt lat="43.62746" lon="2.05155">
        <ele>191</ele>
        <time>2019-11-05T02:00:05Z</time>
      </trkpt>
      <trkpt lat="43.62756" lon="2.05146">
        <ele>189</ele>
        <time>2019-11-05T02:00:14Z</time>
      </trkpt>
      <trkpt lat="43.62762" lon="2.05131">
        <ele>187</ele>
        <time>2019-11-05T02:00:24Z</time>
      </trkpt>
      <trkpt lat="43.62773" lon="2.05126">
        <ele>185</ele>
        <time>2019-11-05T02:00:34Z</time>
      </trkpt>
      <trkpt lat="43.62781" lon="2.05105">
        <ele>182</ele>
        <time>2019-11-05T02:00:47Z</time>
      </trkpt>
      <trkpt lat="43.62777" lon="2.05088">
        <ele>182</ele>
        <time>2019-11-05T02:00:58Z</time>
      </trkpt>
      <trkpt lat="43.62781" lon="2.05075">
        <ele>181</ele>
        <time>2019-11-05T02:01:06Z</time>
      </trkpt>
      <trkpt lat="43.62792" lon="2.05059">
        <ele>179</ele>
        <time>2019-11-05T02:01:19Z</time>
      </trkpt>
      <trkpt lat="43.62821" lon="2.05033">
        <ele>172</ele>
        <time>2019-11-05T02:01:46Z</time>
      </trkpt>
      <trkpt lat="43.62826" lon="2.05024">
        <ele>170</ele>
        <time>2019-11-05T02:01:53Z</time>
      </trkpt>
      <trkpt lat="43.62831" lon="2.04981">
        <ele>168</ele>
        <time>2019-11-05T02:02:18Z</time>
      </trkpt>
      <trkpt lat="43.62885" lon="2.04819">
        <ele>161</ele>
        <time>2019-11-05T02:04:02Z</time>
      </trkpt>
      <trkpt lat="43.62924" lon="2.04685">
        <ele>159</ele>
        <time>2019-11-05T02:05:25Z</time>
      </trkpt>
      <trkpt lat="43.62971" lon="2.04565">
        <ele>164</ele>
        <time>2019-11-05T02:06:44Z</time>
      </trkpt>
      <trkpt lat="43.62988" lon="2.04535">
        <ele>163</ele>
        <time>2019-11-05T02:07:07Z</time>
      </trkpt>
      <trkpt lat="43.63066" lon="2.04429">
        <ele>160</ele>
        <time>2019-11-05T02:08:34Z</time>
      </trkpt>
      <trkpt lat="43.63093" lon="2.04418">
        <ele>155</ele>
        <time>2019-11-05T02:08:57Z</time>
      </trkpt>
      <trkpt lat="43.63122" lon="2.0444">
        <ele>153</ele>
        <time>2019-11-05T02:09:23Z</time>
      </trkpt>
      <trkpt lat="43.63132" lon="2.04446">
        <ele>152</ele>
        <time>2019-11-05T02:09:32Z</time>
      </trkpt>
      <trkpt lat="43.63139" lon="2.04447">
        <ele>152</ele>
        <time>2019-11-05T02:09:38Z</time>
      </trkpt>
      <trkpt lat="43.63196" lon="2.04376">
        <ele>151</ele>
        <time>2019-11-05T02:10:39Z</time>
      </trkpt>
      <trkpt lat="43.63211" lon="2.0437">
        <ele>151</ele>
        <time>2019-11-05T02:10:51Z</time>
      </trkpt>
      <trkpt lat="43.63288" lon="2.04357">
        <ele>151</ele>
        <time>2019-11-05T02:11:54Z</time>
      </trkpt>
      <trkpt lat="43.63305" lon="2.04358">
        <ele>151</ele>
        <time>2019-11-05T02:12:07Z</time>
      </trkpt>
      <trkpt lat="43.63351" lon="2.04371">
        <ele>152</ele>
        <time>2019-11-05T02:12:45Z</time>
      </trkpt>
      <trkpt lat="43.6358" lon="2.04409">
        <ele>152</ele>
        <time>2019-11-05T02:15:49Z</time>
      </trkpt>
      <trkpt lat="43.63603" lon="2.04411">
        <ele>152</ele>
        <time>2019-11-05T02:16:08Z</time>
      </trkpt>
      <trkpt lat="43.63647" lon="2.04409">
        <ele>152</ele>
        <time>2019-11-05T02:16:43Z</time>
      </trkpt>
      <trkpt lat="43.63734" lon="2.04388">
        <ele>150</ele>
        <time>2019-11-05T02:17:54Z</time>
      </trkpt>
      <trkpt lat="43.63875" lon="2.04348">
        <ele>151</ele>
        <time>2019-11-05T02:19:49Z</time>
      </trkpt>
      <trkpt lat="43.63886" lon="2.0434">
        <ele>151</ele>
        <time>2019-11-05T02:19:59Z</time>
      </trkpt>
      <trkpt lat="43.63919" lon="2.04298">
        <ele>151</ele>
        <time>2019-11-05T02:20:35Z</time>
      </trkpt>
      <trkpt lat="43.63955" lon="2.04265">
        <ele>152</ele>
        <time>2019-11-05T02:21:10Z</time>
      </trkpt>
      <trkpt lat="43.6409" lon="2.0416">
        <ele>154</ele>
        <time>2019-11-05T02:23:14Z</time>
      </trkpt>
      <trkpt lat="43.641" lon="2.04149">
        <ele>153</ele>
        <time>2019-11-05T02:23:24Z</time>
      </trkpt>
      <trkpt lat="43.64114" lon="2.04132">
        <ele>153</ele>
        <time>2019-11-05T02:23:39Z</time>
      </trkpt>
      <trkpt lat="43.64151" lon="2.0406">
        <ele>152</ele>
        <time>2019-11-05T02:24:30Z</time>
      </trkpt>
      <trkpt lat="43.64161" lon="2.04044">
        <ele>152</ele>
        <time>2019-11-05T02:24:42Z</time>
      </trkpt>
      <trkpt lat="43.6419" lon="2.04008">
        <ele>152</ele>
        <time>2019-11-05T02:25:13Z</time>
      </trkpt>
      <trkpt lat="43.64247" lon="2.03909">
        <ele>152</ele>
        <time>2019-11-05T02:26:27Z</time>
      </trkpt>
      <trkpt lat="43.64253" lon="2.03903">
        <ele>152</ele>
        <time>2019-11-05T02:26:33Z</time>
      </trkpt>
      <trkpt lat="43.64305" lon="2.04071">
        <ele>152</ele>
        <time>2019-11-05T02:28:19Z</time>
      </trkpt>
      <trkpt lat="43.64333" lon="2.04106">
        <ele>151</ele>
        <time>2019-11-05T02:28:49Z</time>
      </trkpt>
      <trkpt lat="43.64413" lon="2.04158">
        <ele>150</ele>
        <time>2019-11-05T02:30:00Z</time>
      </trkpt>
      <trkpt lat="43.64425" lon="2.04173">
        <ele>150</ele>
        <time>2019-11-05T02:30:12Z</time>
      </trkpt>
      <trkpt lat="43.64432" lon="2.04194">
        <ele>151</ele>
        <time>2019-11-05T02:30:26Z</time>
      </trkpt>
      <trkpt lat="43.64432" lon="2.04228">
        <ele>152</ele>
        <time>2019-11-05T02:30:46Z</time>
      </trkpt>
      <trkpt lat="43.64415" lon="2.04285">
        <ele>153</ele>
        <time>2019-11-05T02:31:21Z</time>
      </trkpt>
      <trkpt lat="43.64377" lon="2.04435">
        <ele>153</ele>
        <time>2019-11-05T02:32:53Z</time>
      </trkpt>
      <trkpt lat="43.64506" lon="2.04464">
        <ele>152</ele>
        <time>2019-11-05T02:34:38Z</time>
      </trkpt>
      <trkpt lat="43.64738" lon="2.04505">
        <ele>150</ele>
        <time>2019-11-05T02:37:45Z</time>
      </trkpt>
      <trkpt lat="43.6477" lon="2.04514">
        <ele>150</ele>
        <time>2019-11-05T02:38:11Z</time>
      </trkpt>
      <trkpt lat="43.64816" lon="2.04544">
        <ele>150</ele>
        <time>2019-11-05T02:38:52Z</time>
      </trkpt>
      <trkpt lat="43.64839" lon="2.04501">
        <ele>150</ele>
        <time>2019-11-05T02:39:23Z</time>
      </trkpt>
      <trkpt lat="43.64896" lon="2.0442">
        <ele>148</ele>
        <time>2019-11-05T02:40:29Z</time>
      </trkpt>
      <trkpt lat="43.64901" lon="2.04416">
        <ele>148</ele>
        <time>2019-11-05T02:40:33Z</time>
      </trkpt>
      <trkpt lat="43.6495" lon="2.04337">
        <ele>149</ele>
        <time>2019-11-05T02:41:34Z</time>
      </trkpt>
      <trkpt lat="43.65018" lon="2.04261">
        <ele>148</ele>
        <time>2019-11-05T02:42:44Z</time>
      </trkpt>
      <trkpt lat="43.65216" lon="2.03978">
        <ele>150</ele>
        <time>2019-11-05T02:46:32Z</time>
      </trkpt>
      <trkpt lat="43.65257" lon="2.0391">
        <ele>150</ele>
        <time>2019-11-05T02:47:23Z</time>
      </trkpt>
      <trkpt lat="43.65291" lon="2.03845">
        <ele>150</ele>
        <time>2019-11-05T02:48:09Z</time>
      </trkpt>
      <trkpt lat="43.65323" lon="2.03806">
        <ele>150</ele>
        <time>2019-11-05T02:48:44Z</time>
      </trkpt>
      <trkpt lat="43.65337" lon="2.03807">
        <ele>150</ele>
        <time>2019-11-05T02:48:55Z</time>
      </trkpt>
      <trkpt lat="43.65349" lon="2.03799">
        <ele>150</ele>
        <time>2019-11-05T02:49:05Z</time>
      </trkpt>
      <trkpt lat="43.65353" lon="2.03803">
        <ele>150</ele>
        <time>2019-11-05T02:49:09Z</time>
      </trkpt>
      <trkpt lat="43.65374" lon="2.03807">
        <ele>150</ele>
        <time>2019-11-05T02:49:26Z</time>
      </trkpt>
      <trkpt lat="43.65379" lon="2.03813">
        <ele>150</ele>
        <time>2019-11-05T02:49:32Z</time>
      </trkpt>
      <trkpt lat="43.65391" lon="2.03901">
        <ele>150</ele>
        <time>2019-11-05T02:50:24Z</time>
      </trkpt>
      <trkpt lat="43.65399" lon="2.03918">
        <ele>150</ele>
        <time>2019-11-05T02:50:35Z</time>
      </trkpt>
      <trkpt lat="43.65481" lon="2.0399">
        <ele>150</ele>
        <time>2019-11-05T02:51:53Z</time>
      </trkpt>
      <trkpt lat="43.65579" lon="2.04087">
        <ele>153</ele>
        <time>2019-11-05T02:53:30Z</time>
      </trkpt>
      <trkpt lat="43.65713" lon="2.04208">
        <ele>156</ele>
        <time>2019-11-05T02:55:38Z</time>
      </trkpt>
      <trkpt lat="43.65727" lon="2.04223">
        <ele>157</ele>
        <time>2019-11-05T02:55:52Z</time>
      </trkpt>
      <trkpt lat="43.65744" lon="2.04289">
        <ele>160</ele>
        <time>2019-11-05T02:56:32Z</time>
      </trkpt>
      <trkpt lat="43.65774" lon="2.04364">
        <ele>164</ele>
        <time>2019-11-05T02:57:22Z</time>
      </trkpt>
      <trkpt lat="43.65783" lon="2.04395">
        <ele>166</ele>
        <time>2019-11-05T02:57:41Z</time>
      </trkpt>
      <trkpt lat="43.65802" lon="2.04396">
        <ele>167</ele>
        <time>2019-11-05T02:57:57Z</time>
      </trkpt>
      <trkpt lat="43.65849" lon="2.04404">
        <ele>170</ele>
        <time>2019-11-05T02:58:35Z</time>
      </trkpt>
      <trkpt lat="43.65868" lon="2.04402">
        <ele>171</ele>
        <time>2019-11-05T02:58:50Z</time>
      </trkpt>
      <trkpt lat="43.6588" lon="2.04396">
        <ele>171</ele>
        <time>2019-11-05T02:59:00Z</time>
      </trkpt>
      <trkpt lat="43.65998" lon="2.04318">
        <ele>171</ele>
        <time>2019-11-05T03:00:45Z</time>
      </trkpt>
      <trkpt lat="43.66028" lon="2.04294">
        <ele>172</ele>
        <time>2019-11-05T03:01:13Z</time>
      </trkpt>
      <trkpt lat="43.66057" lon="2.04265">
        <ele>172</ele>
        <time>2019-11-05T03:01:41Z</time>
      </trkpt>
      <trkpt lat="43.66072" lon="2.0424">
        <ele>172</ele>
        <time>2019-11-05T03:02:00Z</time>
      </trkpt>
      <trkpt lat="43.66104" lon="2.04148">
        <ele>178</ele>
        <time>2019-11-05T03:02:59Z</time>
      </trkpt>
      <trkpt lat="43.66121" lon="2.04113">
        <ele>180</ele>
        <time>2019-11-05T03:03:24Z</time>
      </trkpt>
      <trkpt lat="43.66129" lon="2.04103">
        <ele>180</ele>
        <time>2019-11-05T03:03:32Z</time>
      </trkpt>
      <trkpt lat="43.66307" lon="2.03938">
        <ele>189</ele>
        <time>2019-11-05T03:06:24Z</time>
      </trkpt>
      <trkpt lat="43.66378" lon="2.03845">
        <ele>192</ele>
        <time>2019-11-05T03:07:42Z</time>
      </trkpt>
      <trkpt lat="43.66401" lon="2.03821">
        <ele>192</ele>
        <time>2019-11-05T03:08:05Z</time>
      </trkpt>
      <trkpt lat="43.66417" lon="2.03808">
        <ele>192</ele>
        <time>2019-11-05T03:08:20Z</time>
      </trkpt>
      <trkpt lat="43.6643" lon="2.03801">
        <ele>193</ele>
        <time>2019-11-05T03:08:31Z</time>
      </trkpt>
      <trkpt lat="43.66443" lon="2.03798">
        <ele>194</ele>
        <time>2019-11-05T03:08:42Z</time>
      </trkpt>
      <trkpt lat="43.66501" lon="2.03808">
        <ele>198</ele>
        <time>2019-11-05T03:09:29Z</time>
      </trkpt>
      <trkpt lat="43.66525" lon="2.03808">
        <ele>201</ele>
        <time>2019-11-05T03:09:48Z</time>
      </trkpt>
      <trkpt lat="43.66549" lon="2.03806">
        <ele>203</ele>
        <time>2019-11-05T03:10:07Z</time>
      </trkpt>
      <trkpt lat="43.66573" lon="2.03796">
        <ele>206</ele>
        <time>2019-11-05T03:10:27Z</time>
      </trkpt>
      <trkpt lat="43.66584" lon="2.03805">
        <ele>207</ele>
        <time>2019-11-05T03:10:37Z</time>
      </trkpt>
      <trkpt lat="43.66647" lon="2.0382">
        <ele>212</ele>
        <time>2019-11-05T03:11:29Z</time>
      </trkpt>
      <trkpt lat="43.66676" lon="2.03819">
        <ele>214</ele>
        <time>2019-11-05T03:11:52Z</time>
      </trkpt>
      <trkpt lat="43.66698" lon="2.03812">
        <ele>216</ele>
        <time>2019-11-05T03:12:10Z</time>
      </trkpt>
      <trkpt lat="43.66801" lon="2.03739">
        <ele>221</ele>
        <time>2019-11-05T03:13:43Z</time>
      </trkpt>
      <trkpt lat="43.66846" lon="2.03719">
        <ele>225</ele>
        <time>2019-11-05T03:14:20Z</time>
      </trkpt>
      <trkpt lat="43.66933" lon="2.03687">
        <ele>235</ele>
        <time>2019-11-05T03:15:32Z</time>
      </trkpt>
      <trkpt lat="43.66952" lon="2.03684">
        <ele>237</ele>
        <time>2019-11-05T03:15:48Z</time>
      </trkpt>
      <trkpt lat="43.67001" lon="2.03683">
        <ele>244</ele>
        <time>2019-11-05T03:16:27Z</time>
      </trkpt>
      <trkpt lat="43.67044" lon="2.03686">
        <ele>248</ele>
        <time>2019-11-05T03:17:01Z</time>
      </trkpt>
      <trkpt lat="43.67063" lon="2.0369">
        <ele>250</ele>
        <time>2019-11-05T03:17:17Z</time>
      </trkpt>
      <trkpt lat="43.6722" lon="2.03757">
        <ele>263</ele>
        <time>2019-11-05T03:19:28Z</time>
      </trkpt>
      <trkpt lat="43.67244" lon="2.03755">
        <ele>264</ele>
        <time>2019-11-05T03:19:48Z</time>
      </trkpt>
      <trkpt lat="43.67356" lon="2.03721">
        <ele>272</ele>
        <time>2019-11-05T03:21:19Z</time>
      </trkpt>
      <trkpt lat="43.67366" lon="2.03713">
        <ele>272</ele>
        <time>2019-11-05T03:21:29Z</time>
      </trkpt>
      <trkpt lat="43.6738" lon="2.03718">
        <ele>273</ele>
        <time>2019-11-05T03:21:40Z</time>
      </trkpt>
      <trkpt lat="43.6747" lon="2.03723">
        <ele>278</ele>
        <time>2019-11-05T03:22:52Z</time>
      </trkpt>
      <trkpt lat="43.67535" lon="2.03737">
        <ele>281</ele>
        <time>2019-11-05T03:23:45Z</time>
      </trkpt>
      <trkpt lat="43.67558" lon="2.03736">
        <ele>282</ele>
        <time>2019-11-05T03:24:04Z</time>
      </trkpt>
      <trkpt lat="43.6761" lon="2.03726">
        <ele>282</ele>
        <time>2019-11-05T03:24:46Z</time>
      </trkpt>
      <trkpt lat="43.67629" lon="2.03726">
        <ele>282</ele>
        <time>2019-11-05T03:25:01Z</time>
      </trkpt>
      <trkpt lat="43.67707" lon="2.03736">
        <ele>282</ele>
        <time>2019-11-05T03:26:04Z</time>
      </trkpt>
      <trkpt lat="43.67735" lon="2.03749">
        <ele>282</ele>
        <time>2019-11-05T03:26:27Z</time>
      </trkpt>
      <trkpt lat="43.67778" lon="2.03793">
        <ele>281</ele>
        <time>2019-11-05T03:27:10Z</time>
      </trkpt>
      <trkpt lat="43.67808" lon="2.03815">
        <ele>281</ele>
        <time>2019-11-05T03:27:37Z</time>
      </trkpt>
      <trkpt lat="43.67842" lon="2.0383">
        <ele>282</ele>
        <time>2019-11-05T03:28:06Z</time>
      </trkpt>
      <trkpt lat="43.67899" lon="2.03849">
        <ele>280</ele>
        <time>2019-11-05T03:28:53Z</time>
      </trkpt>
      <trkpt lat="43.68013" lon="2.03894">
        <ele>275</ele>
        <time>2019-11-05T03:30:28Z</time>
      </trkpt>
      <trkpt lat="43.68038" lon="2.03899">
        <ele>275</ele>
        <time>2019-11-05T03:30:48Z</time>
      </trkpt>
      <trkpt lat="43.68108" lon="2.03899">
        <ele>276</ele>
        <time>2019-11-05T03:31:44Z</time>
      </trkpt>
      <trkpt lat="43.68167" lon="2.03903">
        <ele>278</ele>
        <time>2019-11-05T03:32:31Z</time>
      </trkpt>
      <trkpt lat="43.68211" lon="2.0392">
        <ele>279</ele>
        <time>2019-11-05T03:33:08Z</time>
      </trkpt>
      <trkpt lat="43.68252" lon="2.03932">
        <ele>280</ele>
        <time>2019-11-05T03:33:41Z</time>
      </trkpt>
      <trkpt lat="43.68259" lon="2.03932">
        <ele>280</ele>
        <time>2019-11-05T03:33:47Z</time>
      </trkpt>
      <trkpt lat="43.68281" lon="2.0392">
        <ele>282</ele>
        <time>2019-11-05T03:34:06Z</time>
      </trkpt>
      <trkpt lat="43.6834" lon="2.03864">
        <ele>286</ele>
        <time>2019-11-05T03:35:03Z</time>
      </trkpt>
      <trkpt lat="43.68357" lon="2.03856">
        <ele>288</ele>
        <time>2019-11-05T03:35:18Z</time>
      </trkpt>
      <trkpt lat="43.68368" lon="2.03856">
        <ele>289</ele>
        <time>2019-11-05T03:35:26Z</time>
      </trkpt>
      <trkpt lat="43.68395" lon="2.03868">
        <ele>292</ele>
        <time>2019-11-05T03:35:49Z</time>
      </trkpt>
      <trkpt lat="43.68409" lon="2.03871">
        <ele>293</ele>
        <time>2019-11-05T03:36:00Z</time>
      </trkpt>
      <trkpt lat="43.68446" lon="2.03866">
        <ele>295</ele>
        <time>2019-11-05T03:36:30Z</time>
      </trkpt>
      <trkpt lat="43.6848" lon="2.03869">
        <ele>297</ele>
        <time>2019-11-05T03:36:57Z</time>
      </trkpt>
      <trkpt lat="43.68559" lon="2.03898">
        <ele>294</ele>
        <time>2019-11-05T03:38:03Z</time>
      </trkpt>
      <trkpt lat="43.68578" lon="2.03901">
        <ele>294</ele>
        <time>2019-11-05T03:38:18Z</time>
      </trkpt>
      <trkpt lat="43.68586" lon="2.039">
        <ele>294</ele>
        <time>2019-11-05T03:38:25Z</time>
      </trkpt>
      <trkpt lat="43.68598" lon="2.03895">
        <ele>293</ele>
        <time>2019-11-05T03:38:35Z</time>
      </trkpt>
      <trkpt lat="43.68617" lon="2.0388">
        <ele>292</ele>
        <time>2019-11-05T03:38:52Z</time>
      </trkpt>
      <trkpt lat="43.68687" lon="2.03813">
        <ele>287</ele>
        <time>2019-11-05T03:40:00Z</time>
      </trkpt>
      <trkpt lat="43.68696" lon="2.03807">
        <ele>287</ele>
        <time>2019-11-05T03:40:08Z</time>
      </trkpt>
      <trkpt lat="43.68706" lon="2.03805">
        <ele>286</ele>
        <time>2019-11-05T03:40:16Z</time>
      </trkpt>
      <trkpt lat="43.68704" lon="2.03795">
        <ele>286</ele>
        <time>2019-11-05T03:40:22Z</time>
      </trkpt>
      <trkpt lat="43.68697" lon="2.03789">
        <ele>287</ele>
        <time>2019-11-05T03:40:29Z</time>
      </trkpt>
      <trkpt lat="43.68654" lon="2.03765">
        <ele>292</ele>
        <time>2019-11-05T03:41:06Z</time>
      </trkpt>
      <trkpt lat="43.68626" lon="2.03743">
        <ele>296</ele>
        <time>2019-11-05T03:41:32Z</time>
      </trkpt>
      <trkpt lat="43.68617" lon="2.03732">
        <ele>297</ele>
        <time>2019-11-05T03:41:42Z</time>
      </trkpt>
      <trkpt lat="43.68607" lon="2.03719">
        <ele>298</ele>
        <time>2019-11-05T03:41:53Z</time>
      </trkpt>
      <trkpt lat="43.68581" lon="2.03667">
        <ele>300</ele>
        <time>2019-11-05T03:42:29Z</time>
      </trkpt>
      <trkpt lat="43.6857" lon="2.0365">
        <ele>300</ele>
        <time>2019-11-05T03:42:42Z</time>
      </trkpt>
      <trkpt lat="43.68534" lon="2.03598">
        <ele>301</ele>
        <time>2019-11-05T03:43:24Z</time>
      </trkpt>
      <trkpt lat="43.68487" lon="2.03542">
        <ele>302</ele>
        <time>2019-11-05T03:44:14Z</time>
      </trkpt>
      <trkpt lat="43.68463" lon="2.03501">
        <ele>301</ele>
        <time>2019-11-05T03:44:44Z</time>
      </trkpt>
      <trkpt lat="43.68451" lon="2.0347">
        <ele>300</ele>
        <time>2019-11-05T03:45:05Z</time>
      </trkpt>
      <trkpt lat="43.68436" lon="2.034">
        <ele>301</ele>
        <time>2019-11-05T03:45:47Z</time>
      </trkpt>
      <trkpt lat="43.68427" lon="2.0328">
        <ele>303</ele>
        <time>2019-11-05T03:46:57Z</time>
      </trkpt>
      <trkpt lat="43.68417" lon="2.03199">
        <ele>300</ele>
        <time>2019-11-05T03:47:44Z</time>
      </trkpt>
      <trkpt lat="43.68402" lon="2.03156">
        <ele>296</ele>
        <time>2019-11-05T03:48:12Z</time>
      </trkpt>
      <trkpt lat="43.68361" lon="2.03055">
        <ele>290</ele>
        <time>2019-11-05T03:49:19Z</time>
      </trkpt>
      <trkpt lat="43.68346" lon="2.03046">
        <ele>289</ele>
        <time>2019-11-05T03:49:32Z</time>
      </trkpt>
      <trkpt lat="43.68184" lon="2.02913">
        <ele>276</ele>
        <time>2019-11-05T03:52:03Z</time>
      </trkpt>
      <trkpt lat="43.68169" lon="2.02898">
        <ele>275</ele>
        <time>2019-11-05T03:52:18Z</time>
      </trkpt>
      <trkpt lat="43.68155" lon="2.02877">
        <ele>274</ele>
        <time>2019-11-05T03:52:34Z</time>
      </trkpt>
      <trkpt lat="43.68147" lon="2.0286">
        <ele>273</ele>
        <time>2019-11-05T03:52:46Z</time>
      </trkpt>
      <trkpt lat="43.6813" lon="2.02815">
        <ele>271</ele>
        <time>2019-11-05T03:53:15Z</time>
      </trkpt>
      <trkpt lat="43.68096" lon="2.02703">
        <ele>268</ele>
        <time>2019-11-05T03:54:26Z</time>
      </trkpt>
      <trkpt lat="43.68015" lon="2.02587">
        <ele>261</ele>
        <time>2019-11-05T03:55:59Z</time>
      </trkpt>
      <trkpt lat="43.67965" lon="2.02532">
        <ele>258</ele>
        <time>2019-11-05T03:56:50Z</time>
      </trkpt>
      <trkpt lat="43.67955" lon="2.02525">
        <ele>258</ele>
        <time>2019-11-05T03:56:59Z</time>
      </trkpt>
      <trkpt lat="43.67997" lon="2.02511">
        <ele>259</ele>
        <time>2019-11-05T03:57:34Z</time>
      </trkpt>
      <trkpt lat="43.6806" lon="2.02484">
        <ele>262</ele>
        <time>2019-11-05T03:58:27Z</time>
      </trkpt>
      <trkpt lat="43.68116" lon="2.0241">
        <ele>264</ele>
        <time>2019-11-05T03:59:29Z</time>
      </trkpt>
      <trkpt lat="43.68162" lon="2.02332">
        <ele>269</ele>
        <time>2019-11-05T04:00:27Z</time>
      </trkpt>
      <trkpt lat="43.68219" lon="2.02248">
        <ele>278</ele>
        <time>2019-11-05T04:01:34Z</time>
      </trkpt>
      <trkpt lat="43.68264" lon="2.02175">
        <ele>279</ele>
        <time>2019-11-05T04:02:29Z</time>
      </trkpt>
      <trkpt lat="43.68357" lon="2.02078">
        <ele>284</ele>
        <time>2019-11-05T04:04:03Z</time>
      </trkpt>
      <trkpt lat="43.68354" lon="2.02064">
        <ele>284</ele>
        <time>2019-11-05T04:04:11Z</time>
      </trkpt>
      <trkpt lat="43.68334" lon="2.02015">
        <ele>284</ele>
        <time>2019-11-05T04:04:44Z</time>
      </trkpt>
      <trkpt lat="43.6829" lon="2.01923">
        <ele>279</ele>
        <time>2019-11-05T04:05:47Z</time>
      </trkpt>
      <trkpt lat="43.68327" lon="2.0182">
        <ele>278</ele>
        <time>2019-11-05T04:06:54Z</time>
      </trkpt>
      <trkpt lat="43.68413" lon="2.01685">
        <ele>259</ele>
        <time>2019-11-05T04:08:38Z</time>
      </trkpt>
      <trkpt lat="43.68423" lon="2.01666">
        <ele>257</ele>
        <time>2019-11-05T04:08:52Z</time>
      </trkpt>
      <trkpt lat="43.6844" lon="2.01617">
        <ele>250</ele>
        <time>2019-11-05T04:09:23Z</time>
      </trkpt>
      <trkpt lat="43.68453" lon="2.01587">
        <ele>247</ele>
        <time>2019-11-05T04:09:44Z</time>
      </trkpt>
      <trkpt lat="43.68456" lon="2.01543">
        <ele>243</ele>
        <time>2019-11-05T04:10:09Z</time>
      </trkpt>
      <trkpt lat="43.68449" lon="2.01472">
        <ele>239</ele>
        <time>2019-11-05T04:10:51Z</time>
      </trkpt>
      <trkpt lat="43.68438" lon="2.01406">
        <ele>236</ele>
        <time>2019-11-05T04:11:30Z</time>
      </trkpt>
      <trkpt lat="43.68423" lon="2.01347">
        <ele>230</ele>
        <time>2019-11-05T04:12:06Z</time>
      </trkpt>
      <trkpt lat="43.68413" lon="2.0127">
        <ele>224</ele>
        <time>2019-11-05T04:12:51Z</time>
      </trkpt>
      <trkpt lat="43.68413" lon="2.01251">
        <ele>223</ele>
        <time>2019-11-05T04:13:02Z</time>
      </trkpt>
      <trkpt lat="43.68421" lon="2.01221">
        <ele>222</ele>
        <time>2019-11-05T04:13:21Z</time>
      </trkpt>
      <trkpt lat="43.68444" lon="2.01167">
        <ele>220</ele>
        <time>2019-11-05T04:13:57Z</time>
      </trkpt>
      <trkpt lat="43.68471" lon="2.01124">
        <ele>216</ele>
        <time>2019-11-05T04:14:30Z</time>
      </trkpt>
      <trkpt lat="43.68601" lon="2.00963">
        <ele>197</ele>
        <time>2019-11-05T04:16:50Z</time>
      </trkpt>
      <trkpt lat="43.68622" lon="2.00946">
        <ele>201</ele>
        <time>2019-11-05T04:17:09Z</time>
      </trkpt>
      <trkpt lat="43.68648" lon="2.00917">
        <ele>207</ele>
        <time>2019-11-05T04:17:36Z</time>
      </trkpt>
      <trkpt lat="43.68673" lon="2.0099">
        <ele>205</ele>
        <time>2019-11-05T04:18:23Z</time>
      </trkpt>
      <trkpt lat="43.68689" lon="2.01064">
        <ele>203</ele>
        <time>2019-11-05T04:19:08Z</time>
      </trkpt>
      <trkpt lat="43.68706" lon="2.01101">
        <ele>203</ele>
        <time>2019-11-05T04:19:33Z</time>
      </trkpt>
      <trkpt lat="43.68726" lon="2.01137">
        <ele>203</ele>
        <time>2019-11-05T04:19:59Z</time>
      </trkpt>
      <trkpt lat="43.68754" lon="2.01179">
        <ele>201</ele>
        <time>2019-11-05T04:20:32Z</time>
      </trkpt>
      <trkpt lat="43.6882" lon="2.01085">
        <ele>215</ele>
        <time>2019-11-05T04:21:48Z</time>
      </trkpt>
      <trkpt lat="43.68825" lon="2.01081">
        <ele>216</ele>
        <time>2019-11-05T04:21:53Z</time>
      </trkpt>
      <trkpt lat="43.68846" lon="2.01079">
        <ele>218</ele>
        <time>2019-11-05T04:22:10Z</time>
      </trkpt>
      <trkpt lat="43.6889" lon="2.01041">
        <ele>224</ele>
        <time>2019-11-05T04:22:51Z</time>
      </trkpt>
      <trkpt lat="43.68945" lon="2.01013">
        <ele>228</ele>
        <time>2019-11-05T04:23:38Z</time>
      </trkpt>
      <trkpt lat="43.69023" lon="2.00907">
        <ele>231</ele>
        <time>2019-11-05T04:25:06Z</time>
      </trkpt>
      <trkpt lat="43.69032" lon="2.00893">
        <ele>232</ele>
        <time>2019-11-05T04:25:17Z</time>
      </trkpt>
      <trkpt lat="43.69035" lon="2.00884">
        <ele>232</ele>
        <time>2019-11-05T04:25:22Z</time>
      </trkpt>
      <trkpt lat="43.6904" lon="2.00846">
        <ele>233</ele>
        <time>2019-11-05T04:25:45Z</time>
      </trkpt>
      <trkpt lat="43.69038" lon="2.00712">
        <ele>236</ele>
        <time>2019-11-05T04:27:02Z</time>
      </trkpt>
      <trkpt lat="43.69046" lon="2.00608">
        <ele>240</ele>
        <time>2019-11-05T04:28:03Z</time>
      </trkpt>
      <trkpt lat="43.6905" lon="2.00591">
        <ele>240</ele>
        <time>2019-11-05T04:28:13Z</time>
      </trkpt>
      <trkpt lat="43.69057" lon="2.00578">
        <ele>239</ele>
        <time>2019-11-05T04:28:22Z</time>
      </trkpt>
      <trkpt lat="43.69099" lon="2.00523">
        <ele>237</ele>
        <time>2019-11-05T04:29:09Z</time>
      </trkpt>
      <trkpt lat="43.69123" lon="2.00485">
        <ele>237</ele>
        <time>2019-11-05T04:29:38Z</time>
      </trkpt>
      <trkpt lat="43.69143" lon="2.00428">
        <ele>232</ele>
        <time>2019-11-05T04:30:15Z</time>
      </trkpt>
      <trkpt lat="43.69218" lon="2.00255">
        <ele>229</ele>
        <time>2019-11-05T04:32:11Z</time>
      </trkpt>
      <trkpt lat="43.69224" lon="2.00243">
        <ele>229</ele>
        <time>2019-11-05T04:32:20Z</time>
      </trkpt>
      <trkpt lat="43.6924" lon="2.00233">
        <ele>230</ele>
        <time>2019-11-05T04:32:34Z</time>
      </trkpt>
      <trkpt lat="43.69244" lon="2.00227">
        <ele>230</ele>
        <time>2019-11-05T04:32:39Z</time>
      </trkpt>
      <trkpt lat="43.69252" lon="2.00198">
        <ele>230</ele>
        <time>2019-11-05T04:32:57Z</time>
      </trkpt>
      <trkpt lat="43.69257" lon="2.00188">
        <ele>229</ele>
        <time>2019-11-05T04:33:04Z</time>
      </trkpt>
      <trkpt lat="43.69261" lon="2.00187">
        <ele>228</ele>
        <time>2019-11-05T04:33:07Z</time>
      </trkpt>
      <trkpt lat="43.69277" lon="2.00199">
        <ele>227</ele>
        <time>2019-11-05T04:33:22Z</time>
      </trkpt>
      <trkpt lat="43.6929" lon="2.0022">
        <ele>227</ele>
        <time>2019-11-05T04:33:38Z</time>
      </trkpt>
      <trkpt lat="43.69313" lon="2.00249">
        <ele>226</ele>
        <time>2019-11-05T04:34:02Z</time>
      </trkpt>
      <trkpt lat="43.69318" lon="2.00251">
        <ele>225</ele>
        <time>2019-11-05T04:34:07Z</time>
      </trkpt>
      <trkpt lat="43.69327" lon="2.00244">
        <ele>224</ele>
        <time>2019-11-05T04:34:15Z</time>
      </trkpt>
      <trkpt lat="43.69329" lon="2.00238">
        <ele>224</ele>
        <time>2019-11-05T04:34:19Z</time>
      </trkpt>
      <trkpt lat="43.69336" lon="2.00126">
        <ele>220</ele>
        <time>2019-11-05T04:35:24Z</time>
      </trkpt>
      <trkpt lat="43.69334" lon="2.0005">
        <ele>216</ele>
        <time>2019-11-05T04:36:08Z</time>
      </trkpt>
      <trkpt lat="43.69329" lon="1.99978">
        <ele>212</ele>
        <time>2019-11-05T04:36:50Z</time>
      </trkpt>
      <trkpt lat="43.69319" lon="1.99941">
        <ele>211</ele>
        <time>2019-11-05T04:37:13Z</time>
      </trkpt>
      <trkpt lat="43.69252" lon="1.9977">
        <ele>208</ele>
        <time>2019-11-05T04:39:05Z</time>
      </trkpt>
      <trkpt lat="43.69242" lon="1.99771">
        <ele>208</ele>
        <time>2019-11-05T04:39:13Z</time>
      </trkpt>
      <trkpt lat="43.69244" lon="1.99708">
        <ele>211</ele>
        <time>2019-11-05T04:39:50Z</time>
      </trkpt>
      <trkpt lat="43.69254" lon="1.99642">
        <ele>214</ele>
        <time>2019-11-05T04:40:29Z</time>
      </trkpt>
      <trkpt lat="43.69333" lon="1.99391">
        <ele>233</ele>
        <time>2019-11-05T04:43:07Z</time>
      </trkpt>
      <trkpt lat="43.69343" lon="1.99376">
        <ele>235</ele>
        <time>2019-11-05T04:43:19Z</time>
      </trkpt>
      <trkpt lat="43.69403" lon="1.9934">
        <ele>245</ele>
        <time>2019-11-05T04:44:11Z</time>
      </trkpt>
      <trkpt lat="43.69416" lon="1.9933">
        <ele>248</ele>
        <time>2019-11-05T04:44:23Z</time>
      </trkpt>
      <trkpt lat="43.69423" lon="1.99333">
        <ele>248</ele>
        <time>2019-11-05T04:44:29Z</time>
      </trkpt>
      <trkpt lat="43.69434" lon="1.99328">
        <ele>248</ele>
        <time>2019-11-05T04:44:38Z</time>
      </trkpt>
      <trkpt lat="43.69473" lon="1.99304">
        <ele>250</ele>
        <time>2019-11-05T04:45:13Z</time>
      </trkpt>
      <trkpt lat="43.69543" lon="1.99267">
        <ele>254</ele>
        <time>2019-11-05T04:46:13Z</time>
      </trkpt>
      <trkpt lat="43.69557" lon="1.99219">
        <ele>259</ele>
        <time>2019-11-05T04:46:43Z</time>
      </trkpt>
      <trkpt lat="43.69574" lon="1.99183">
        <ele>263</ele>
        <time>2019-11-05T04:47:07Z</time>
      </trkpt>
      <trkpt lat="43.6964" lon="1.9908">
        <ele>270</ele>
        <time>2019-11-05T04:48:27Z</time>
      </trkpt>
      <trkpt lat="43.69657" lon="1.99046">
        <ele>273</ele>
        <time>2019-11-05T04:48:51Z</time>
      </trkpt>
      <trkpt lat="43.69663" lon="1.98992">
        <ele>278</ele>
        <time>2019-11-05T04:49:23Z</time>
      </trkpt>
      <trkpt lat="43.69683" lon="1.98938">
        <ele>284</ele>
        <time>2019-11-05T04:49:58Z</time>
      </trkpt>
      <trkpt lat="43.69688" lon="1.9893">
        <ele>284</ele>
        <time>2019-11-05T04:50:04Z</time>
      </trkpt>
      <trkpt lat="43.69694" lon="1.98926">
        <ele>284</ele>
        <time>2019-11-05T04:50:09Z</time>
      </trkpt>
      <trkpt lat="43.69725" lon="1.98918">
        <ele>284</ele>
        <time>2019-11-05T04:50:35Z</time>
      </trkpt>
      <trkpt lat="43.69736" lon="1.98913">
        <ele>284</ele>
        <time>2019-11-05T04:50:44Z</time>
      </trkpt>
      <trkpt lat="43.69759" lon="1.98896">
        <ele>285</ele>
        <time>2019-11-05T04:51:05Z</time>
      </trkpt>
      <trkpt lat="43.69791" lon="1.98865">
        <ele>287</ele>
        <time>2019-11-05T04:51:36Z</time>
      </trkpt>
      <trkpt lat="43.69802" lon="1.98848">
        <ele>288</ele>
        <time>2019-11-05T04:51:49Z</time>
      </trkpt>
      <trkpt lat="43.6982" lon="1.98807">
        <ele>290</ele>
        <time>2019-11-05T04:52:17Z</time>
      </trkpt>
      <trkpt lat="43.69843" lon="1.98765">
        <ele>291</ele>
        <time>2019-11-05T04:52:47Z</time>
      </trkpt>
      <trkpt lat="43.69848" lon="1.98764">
        <ele>290</ele>
        <time>2019-11-05T04:52:51Z</time>
      </trkpt>
      <trkpt lat="43.69904" lon="1.98689">
        <ele>294</ele>
        <time>2019-11-05T04:53:54Z</time>
      </trkpt>
      <trkpt lat="43.69915" lon="1.98681">
        <ele>294</ele>
        <time>2019-11-05T04:54:04Z</time>
      </trkpt>
      <trkpt lat="43.69921" lon="1.98673">
        <ele>295</ele>
        <time>2019-11-05T04:54:11Z</time>
      </trkpt>
      <trkpt lat="43.69928" lon="1.98654">
        <ele>297</ele>
        <time>2019-11-05T04:54:23Z</time>
      </trkpt>
      <trkpt lat="43.69928" lon="1.98632">
        <ele>299</ele>
        <time>2019-11-05T04:54:36Z</time>
      </trkpt>
      <trkpt lat="43.69943" lon="1.98618">
        <ele>300</ele>
        <time>2019-11-05T04:54:50Z</time>
      </trkpt>
      <trkpt lat="43.69963" lon="1.98613">
        <ele>301</ele>
        <time>2019-11-05T04:55:06Z</time>
      </trkpt>
      <trkpt lat="43.6997" lon="1.98609">
        <ele>301</ele>
        <time>2019-11-05T04:55:12Z</time>
      </trkpt>
      <trkpt lat="43.69982" lon="1.98596">
        <ele>301</ele>
        <time>2019-11-05T04:55:25Z</time>
      </trkpt>
      <trkpt lat="43.69996" lon="1.98573">
        <ele>303</ele>
        <time>2019-11-05T04:55:42Z</time>
      </trkpt>
      <trkpt lat="43.70015" lon="1.98525">
        <ele>312</ele>
        <time>2019-11-05T04:56:14Z</time>
      </trkpt>
      <trkpt lat="43.70014" lon="1.985">
        <ele>315</ele>
        <time>2019-11-05T04:56:28Z</time>
      </trkpt>
      <trkpt lat="43.70009" lon="1.98481">
        <ele>318</ele>
        <time>2019-11-05T04:56:40Z</time>
      </trkpt>
      <trkpt lat="43.70013" lon="1.98472">
        <ele>320</ele>
        <time>2019-11-05T04:56:46Z</time>
      </trkpt>
      <trkpt lat="43.70024" lon="1.9847">
        <ele>322</ele>
        <time>2019-11-05T04:56:55Z</time>
      </trkpt>
      <trkpt lat="43.70086" lon="1.98477">
        <ele>329</ele>
        <time>2019-11-05T04:57:45Z</time>
      </trkpt>
      <trkpt lat="43.70092" lon="1.98481">
        <ele>329</ele>
        <time>2019-11-05T04:57:50Z</time>
      </trkpt>
      <trkpt lat="43.70102" lon="1.98509">
        <ele>327</ele>
        <time>2019-11-05T04:58:08Z</time>
      </trkpt>
      <trkpt lat="43.70106" lon="1.98514">
        <ele>327</ele>
        <time>2019-11-05T04:58:12Z</time>
      </trkpt>
      <trkpt lat="43.7012" lon="1.9852">
        <ele>329</ele>
        <time>2019-11-05T04:58:24Z</time>
      </trkpt>
      <trkpt lat="43.70124" lon="1.98518">
        <ele>329</ele>
        <time>2019-11-05T04:58:28Z</time>
      </trkpt>
      <trkpt lat="43.7013" lon="1.98508">
        <ele>330</ele>
        <time>2019-11-05T04:58:35Z</time>
      </trkpt>
      <trkpt lat="43.70129" lon="1.98498">
        <ele>330</ele>
        <time>2019-11-05T04:58:41Z</time>
      </trkpt>
      <trkpt lat="43.70134" lon="1.98484">
        <ele>332</ele>
        <time>2019-11-05T04:58:50Z</time>
      </trkpt>
      <trkpt lat="43.70123" lon="1.98444">
        <ele>335</ele>
        <time>2019-11-05T04:59:15Z</time>
      </trkpt>
      <trkpt lat="43.70052" lon="1.98343">
        <ele>347</ele>
        <time>2019-11-05T05:00:36Z</time>
      </trkpt>
      <trkpt lat="43.70126" lon="1.98166">
        <ele>349</ele>
        <time>2019-11-05T05:02:35Z</time>
      </trkpt>
      <trkpt lat="43.70165" lon="1.98112">
        <ele>347</ele>
        <time>2019-11-05T05:03:19Z</time>
      </trkpt>
      <trkpt lat="43.70248" lon="1.98017">
        <ele>345</ele>
        <time>2019-11-05T05:04:45Z</time>
      </trkpt>
      <trkpt lat="43.70296" lon="1.97956">
        <ele>341</ele>
        <time>2019-11-05T05:05:37Z</time>
      </trkpt>
      <trkpt lat="43.70313" lon="1.97932">
        <ele>340</ele>
        <time>2019-11-05T05:05:57Z</time>
      </trkpt>
      <trkpt lat="43.70325" lon="1.979">
        <ele>338</ele>
        <time>2019-11-05T05:06:18Z</time>
      </trkpt>
      <trkpt lat="43.70357" lon="1.97702">
        <ele>320</ele>
        <time>2019-11-05T05:08:15Z</time>
      </trkpt>
      <trkpt lat="43.70366" lon="1.97664">
        <ele>320</ele>
        <time>2019-11-05T05:08:38Z</time>
      </trkpt>
      <trkpt lat="43.70368" lon="1.97642">
        <ele>320</ele>
        <time>2019-11-05T05:08:51Z</time>
      </trkpt>
      <trkpt lat="43.70357" lon="1.97582">
        <ele>320</ele>
        <time>2019-11-05T05:09:27Z</time>
      </trkpt>
      <trkpt lat="43.70358" lon="1.97505">
        <ele>317</ele>
        <time>2019-11-05T05:10:11Z</time>
      </trkpt>
      <trkpt lat="43.70352" lon="1.97448">
        <ele>314</ele>
        <time>2019-11-05T05:10:45Z</time>
      </trkpt>
      <trkpt lat="43.70319" lon="1.97345">
        <ele>306</ele>
        <time>2019-11-05T05:11:50Z</time>
      </trkpt>
      <trkpt lat="43.70331" lon="1.97346">
        <ele>308</ele>
        <time>2019-11-05T05:12:00Z</time>
      </trkpt>
      <trkpt lat="43.704" lon="1.97364">
        <ele>304</ele>
        <time>2019-11-05T05:12:56Z</time>
      </trkpt>
      <trkpt lat="43.7052" lon="1.97403">
        <ele>299</ele>
        <time>2019-11-05T05:14:35Z</time>
      </trkpt>
      <trkpt lat="43.7054" lon="1.97392">
        <ele>297</ele>
        <time>2019-11-05T05:14:52Z</time>
      </trkpt>
      <trkpt lat="43.70564" lon="1.97372">
        <ele>294</ele>
        <time>2019-11-05T05:15:14Z</time>
      </trkpt>
      <trkpt lat="43.70574" lon="1.97368">
        <ele>293</ele>
        <time>2019-11-05T05:15:23Z</time>
      </trkpt>
      <trkpt lat="43.70589" lon="1.97364">
        <ele>292</ele>
        <time>2019-11-05T05:15:35Z</time>
      </trkpt>
      <trkpt lat="43.70625" lon="1.97364">
        <ele>288</ele>
        <time>2019-11-05T05:16:04Z</time>
      </trkpt>
      <trkpt lat="43.70635" lon="1.97379">
        <ele>288</ele>
        <time>2019-11-05T05:16:15Z</time>
      </trkpt>
      <trkpt lat="43.70863" lon="1.97592">
        <ele>255</ele>
        <time>2019-11-05T05:19:56Z</time>
      </trkpt>
      <trkpt lat="43.709" lon="1.97599">
        <ele>248</ele>
        <time>2019-11-05T05:20:26Z</time>
      </trkpt>
      <trkpt lat="43.70927" lon="1.97565">
        <ele>248</ele>
        <time>2019-11-05T05:20:55Z</time>
      </trkpt>
      <trkpt lat="43.70989" lon="1.97504">
        <ele>243</ele>
        <time>2019-11-05T05:21:56Z</time>
      </trkpt>
      <trkpt lat="43.71008" lon="1.97482">
        <ele>239</ele>
        <time>2019-11-05T05:22:16Z</time>
      </trkpt>
      <trkpt lat="43.71041" lon="1.97403">
        <ele>231</ele>
        <time>2019-11-05T05:23:08Z</time>
      </trkpt>
      <trkpt lat="43.71101" lon="1.97395">
        <ele>224</ele>
        <time>2019-11-05T05:23:57Z</time>
      </trkpt>
      <trkpt lat="43.71123" lon="1.97401">
        <ele>226</ele>
        <time>2019-11-05T05:24:15Z</time>
      </trkpt>
      <trkpt lat="43.71154" lon="1.9739">
        <ele>228</ele>
        <time>2019-11-05T05:24:40Z</time>
      </trkpt>
      <trkpt lat="43.7116" lon="1.97391">
        <ele>229</ele>
        <time>2019-11-05T05:24:45Z</time>
      </trkpt>
      <trkpt lat="43.71168" lon="1.974">
        <ele>230</ele>
        <time>2019-11-05T05:24:53Z</time>
      </trkpt>
      <trkpt lat="43.71201" lon="1.97471">
        <ele>234</ele>
        <time>2019-11-05T05:25:42Z</time>
      </trkpt>
      <trkpt lat="43.71217" lon="1.97499">
        <ele>238</ele>
        <time>2019-11-05T05:26:03Z</time>
      </trkpt>
      <trkpt lat="43.71228" lon="1.97513">
        <ele>242</ele>
        <time>2019-11-05T05:26:15Z</time>
      </trkpt>
      <trkpt lat="43.71273" lon="1.97532">
        <ele>251</ele>
        <time>2019-11-05T05:26:52Z</time>
      </trkpt>
      <trkpt lat="43.71351" lon="1.97551">
        <ele>263</ele>
        <time>2019-11-05T05:27:56Z</time>
      </trkpt>
      <trkpt lat="43.71389" lon="1.97567">
        <ele>264</ele>
        <time>2019-11-05T05:28:28Z</time>
      </trkpt>
      <trkpt lat="43.71434" lon="1.97631">
        <ele>267</ele>
        <time>2019-11-05T05:29:19Z</time>
      </trkpt>
      <trkpt lat="43.71447" lon="1.97651">
        <ele>268</ele>
        <time>2019-11-05T05:29:35Z</time>
      </trkpt>
      <trkpt lat="43.71453" lon="1.97666">
        <ele>269</ele>
        <time>2019-11-05T05:29:45Z</time>
      </trkpt>
      <trkpt lat="43.71466" lon="1.97745">
        <ele>272</ele>
        <time>2019-11-05T05:30:32Z</time>
      </trkpt>
      <trkpt lat="43.71473" lon="1.97771">
        <ele>275</ele>
        <time>2019-11-05T05:30:48Z</time>
      </trkpt>
      <trkpt lat="43.71484" lon="1.97791">
        <ele>278</ele>
        <time>2019-11-05T05:31:02Z</time>
      </trkpt>
      <trkpt lat="43.71497" lon="1.97832">
        <ele>283</ele>
        <time>2019-11-05T05:31:28Z</time>
      </trkpt>
      <trkpt lat="43.71509" lon="1.97894">
        <ele>293</ele>
        <time>2019-11-05T05:32:05Z</time>
      </trkpt>
      <trkpt lat="43.71517" lon="1.97909">
        <ele>295</ele>
        <time>2019-11-05T05:32:16Z</time>
      </trkpt>
      <trkpt lat="43.71527" lon="1.97922">
        <ele>296</ele>
        <time>2019-11-05T05:32:27Z</time>
      </trkpt>
      <trkpt lat="43.71535" lon="1.97928">
        <ele>295</ele>
        <time>2019-11-05T05:32:34Z</time>
      </trkpt>
      <trkpt lat="43.71592" lon="1.97938">
        <ele>293</ele>
        <time>2019-11-05T05:33:20Z</time>
      </trkpt>
      <trkpt lat="43.71671" lon="1.97894">
        <ele>305</ele>
        <time>2019-11-05T05:34:29Z</time>
      </trkpt>
      <trkpt lat="43.71674" lon="1.97889">
        <ele>307</ele>
        <time>2019-11-05T05:34:32Z</time>
      </trkpt>
      <trkpt lat="43.71674" lon="1.97881">
        <ele>307</ele>
        <time>2019-11-05T05:34:37Z</time>
      </trkpt>
      <trkpt lat="43.71662" lon="1.97849">
        <ele>308</ele>
        <time>2019-11-05T05:34:58Z</time>
      </trkpt>
      <trkpt lat="43.71663" lon="1.97826">
        <ele>310</ele>
        <time>2019-11-05T05:35:11Z</time>
      </trkpt>
      <trkpt lat="43.71675" lon="1.97788">
        <ele>312</ele>
        <time>2019-11-05T05:35:35Z</time>
      </trkpt>
      <trkpt lat="43.71683" lon="1.97775">
        <ele>314</ele>
        <time>2019-11-05T05:35:45Z</time>
      </trkpt>
      <trkpt lat="43.71691" lon="1.97769">
        <ele>315</ele>
        <time>2019-11-05T05:35:52Z</time>
      </trkpt>
      <trkpt lat="43.71719" lon="1.97757">
        <ele>322</ele>
        <time>2019-11-05T05:36:16Z</time>
      </trkpt>
      <trkpt lat="43.71781" lon="1.97741">
        <ele>334</ele>
        <time>2019-11-05T05:37:06Z</time>
      </trkpt>
      <trkpt lat="43.71783" lon="1.97758">
        <ele>334</ele>
        <time>2019-11-05T05:37:16Z</time>
      </trkpt>
      <trkpt lat="43.71777" lon="1.97765">
        <ele>334</ele>
        <time>2019-11-05T05:37:23Z</time>
      </trkpt>
      <trkpt lat="43.71749" lon="1.97777">
        <ele>330</ele>
        <time>2019-11-05T05:37:46Z</time>
      </trkpt>
      <trkpt lat="43.71744" lon="1.97784">
        <ele>329</ele>
        <time>2019-11-05T05:37:52Z</time>
      </trkpt>
      <trkpt lat="43.71744" lon="1.97793">
        <ele>329</ele>
        <time>2019-11-05T05:37:57Z</time>
      </trkpt>
      <trkpt lat="43.71748" lon="1.978">
        <ele>330</ele>
        <time>2019-11-05T05:38:02Z</time>
      </trkpt>
      <trkpt lat="43.71756" lon="1.97802">
        <ele>332</ele>
        <time>2019-11-05T05:38:09Z</time>
      </trkpt>
      <trkpt lat="43.71784" lon="1.97799">
        <ele>336</ele>
        <time>2019-11-05T05:38:31Z</time>
      </trkpt>
      <trkpt lat="43.718" lon="1.97788">
        <ele>338</ele>
        <time>2019-11-05T05:38:45Z</time>
      </trkpt>
      <trkpt lat="43.71833" lon="1.97756">
        <ele>342</ele>
        <time>2019-11-05T05:39:18Z</time>
      </trkpt>
      <trkpt lat="43.71848" lon="1.97748">
        <ele>342</ele>
        <time>2019-11-05T05:39:31Z</time>
      </trkpt>
      <trkpt lat="43.7188" lon="1.97742">
        <ele>342</ele>
        <time>2019-11-05T05:39:56Z</time>
      </trkpt>
      <trkpt lat="43.71871" lon="1.97705">
        <ele>342</ele>
        <time>2019-11-05T05:40:19Z</time>
      </trkpt>
      <trkpt lat="43.71882" lon="1.97599">
        <ele>343</ele>
        <time>2019-11-05T05:41:21Z</time>
      </trkpt>
      <trkpt lat="43.71897" lon="1.97515">
        <ele>344</ele>
        <time>2019-11-05T05:42:11Z</time>
      </trkpt>
      <trkpt lat="43.71923" lon="1.97451">
        <ele>346</ele>
        <time>2019-11-05T05:42:54Z</time>
      </trkpt>
      <trkpt lat="43.71957" lon="1.97388">
        <ele>346</ele>
        <time>2019-11-05T05:43:39Z</time>
      </trkpt>
      <trkpt lat="43.71969" lon="1.97333">
        <ele>348</ele>
        <time>2019-11-05T05:44:12Z</time>
      </trkpt>
      <trkpt lat="43.71972" lon="1.97302">
        <ele>348</ele>
        <time>2019-11-05T05:44:30Z</time>
      </trkpt>
      <trkpt lat="43.71978" lon="1.97283">
        <ele>348</ele>
        <time>2019-11-05T05:44:42Z</time>
      </trkpt>
      <trkpt lat="43.71987" lon="1.97206">
        <ele>347</ele>
        <time>2019-11-05T05:45:28Z</time>
      </trkpt>
      <trkpt lat="43.71988" lon="1.97033">
        <ele>342</ele>
        <time>2019-11-05T05:47:08Z</time>
      </trkpt>
      <trkpt lat="43.72008" lon="1.96898">
        <ele>345</ele>
        <time>2019-11-05T05:48:27Z</time>
      </trkpt>
      <trkpt lat="43.72022" lon="1.96852">
        <ele>342</ele>
        <time>2019-11-05T05:48:56Z</time>
      </trkpt>
      <trkpt lat="43.72026" lon="1.96763">
        <ele>342</ele>
        <time>2019-11-05T05:49:48Z</time>
      </trkpt>
      <trkpt lat="43.72016" lon="1.96697">
        <ele>341</ele>
        <time>2019-11-05T05:50:27Z</time>
      </trkpt>
      <trkpt lat="43.72005" lon="1.96647">
        <ele>341</ele>
        <time>2019-11-05T05:50:57Z</time>
      </trkpt>
      <trkpt lat="43.72" lon="1.96631">
        <ele>340</ele>
        <time>2019-11-05T05:51:07Z</time>
      </trkpt>
      <trkpt lat="43.71984" lon="1.966">
        <ele>338</ele>
        <time>2019-11-05T05:51:29Z</time>
      </trkpt>
      <trkpt lat="43.71972" lon="1.96553">
        <ele>336</ele>
        <time>2019-11-05T05:51:58Z</time>
      </trkpt>
      <trkpt lat="43.71963" lon="1.9648">
        <ele>335</ele>
        <time>2019-11-05T05:52:41Z</time>
      </trkpt>
      <trkpt lat="43.71913" lon="1.96464">
        <ele>337</ele>
        <time>2019-11-05T05:53:22Z</time>
      </trkpt>
      <trkpt lat="43.71883" lon="1.96447">
        <ele>335</ele>
        <time>2019-11-05T05:53:48Z</time>
      </trkpt>
      <trkpt lat="43.71871" lon="1.96445">
        <ele>335</ele>
        <time>2019-11-05T05:53:58Z</time>
      </trkpt>
      <trkpt lat="43.71866" lon="1.96447">
        <ele>335</ele>
        <time>2019-11-05T05:54:02Z</time>
      </trkpt>
      <trkpt lat="43.71814" lon="1.96427">
        <ele>334</ele>
        <time>2019-11-05T05:54:45Z</time>
      </trkpt>
      <trkpt lat="43.7176" lon="1.96419">
        <ele>333</ele>
        <time>2019-11-05T05:55:29Z</time>
      </trkpt>
      <trkpt lat="43.71713" lon="1.96404">
        <ele>331</ele>
        <time>2019-11-05T05:56:07Z</time>
      </trkpt>
      <trkpt lat="43.71706" lon="1.96377">
        <ele>328</ele>
        <time>2019-11-05T05:56:24Z</time>
      </trkpt>
      <trkpt lat="43.71708" lon="1.96357">
        <ele>326</ele>
        <time>2019-11-05T05:56:35Z</time>
      </trkpt>
      <trkpt lat="43.71719" lon="1.96311">
        <ele>321</ele>
        <time>2019-11-05T05:57:04Z</time>
      </trkpt>
      <trkpt lat="43.71705" lon="1.96313">
        <ele>320</ele>
        <time>2019-11-05T05:57:15Z</time>
      </trkpt>
      <trkpt lat="43.71673" lon="1.96329">
        <ele>318</ele>
        <time>2019-11-05T05:57:42Z</time>
      </trkpt>
      <trkpt lat="43.71646" lon="1.96334">
        <ele>318</ele>
        <time>2019-11-05T05:58:04Z</time>
      </trkpt>
      <trkpt lat="43.71628" lon="1.96333">
        <ele>317</ele>
        <time>2019-11-05T05:58:18Z</time>
      </trkpt>
      <trkpt lat="43.71569" lon="1.96313">
        <ele>313</ele>
        <time>2019-11-05T05:59:07Z</time>
      </trkpt>
      <trkpt lat="43.71541" lon="1.96306">
        <ele>311</ele>
        <time>2019-11-05T05:59:30Z</time>
      </trkpt>
      <trkpt lat="43.71522" lon="1.96304">
        <ele>310</ele>
        <time>2019-11-05T05:59:45Z</time>
      </trkpt>
      <trkpt lat="43.71517" lon="1.96301">
        <ele>309</ele>
        <time>2019-11-05T05:59:49Z</time>
      </trkpt>
      <trkpt lat="43.71506" lon="1.96305">
        <ele>309</ele>
        <time>2019-11-05T05:59:58Z</time>
      </trkpt>
      <trkpt lat="43.71477" lon="1.96309">
        <ele>305</ele>
        <time>2019-11-05T06:00:22Z</time>
      </trkpt>
      <trkpt lat="43.71447" lon="1.96325">
        <ele>301</ele>
        <time>2019-11-05T06:00:47Z</time>
      </trkpt>
      <trkpt lat="43.71414" lon="1.96335">
        <ele>296</ele>
        <time>2019-11-05T06:01:15Z</time>
      </trkpt>
      <trkpt lat="43.71396" lon="1.96336">
        <ele>292</ele>
        <time>2019-11-05T06:01:29Z</time>
      </trkpt>
      <trkpt lat="43.71368" lon="1.96342">
        <ele>287</ele>
        <time>2019-11-05T06:01:52Z</time>
      </trkpt>
      <trkpt lat="43.71341" lon="1.96333">
        <ele>281</ele>
        <time>2019-11-05T06:02:14Z</time>
      </trkpt>
      <trkpt lat="43.71338" lon="1.9634">
        <ele>281</ele>
        <time>2019-11-05T06:02:19Z</time>
      </trkpt>
      <trkpt lat="43.71322" lon="1.96332">
        <ele>278</ele>
        <time>2019-11-05T06:02:32Z</time>
      </trkpt>
      <trkpt lat="43.71222" lon="1.96296">
        <ele>261</ele>
        <time>2019-11-05T06:03:55Z</time>
      </trkpt>
      <trkpt lat="43.71196" lon="1.96288">
        <ele>255</ele>
        <time>2019-11-05T06:04:16Z</time>
      </trkpt>
      <trkpt lat="43.71191" lon="1.96289">
        <ele>254</ele>
        <time>2019-11-05T06:04:20Z</time>
      </trkpt>
      <trkpt lat="43.71172" lon="1.96281">
        <ele>250</ele>
        <time>2019-11-05T06:04:36Z</time>
      </trkpt>
      <trkpt lat="43.7111" lon="1.96264">
        <ele>240</ele>
        <time>2019-11-05T06:05:27Z</time>
      </trkpt>
      <trkpt lat="43.71082" lon="1.96251">
        <ele>236</ele>
        <time>2019-11-05T06:05:50Z</time>
      </trkpt>
      <trkpt lat="43.71054" lon="1.96251">
        <ele>233</ele>
        <time>2019-11-05T06:06:13Z</time>
      </trkpt>
      <trkpt lat="43.71039" lon="1.9623">
        <ele>230</ele>
        <time>2019-11-05T06:06:30Z</time>
      </trkpt>
      <trkpt lat="43.70988" lon="1.96257">
        <ele>225</ele>
        <time>2019-11-05T06:07:14Z</time>
      </trkpt>
      <trkpt lat="43.70994" lon="1.96227">
        <ele>225</ele>
        <time>2019-11-05T06:07:32Z</time>
      </trkpt>
      <trkpt lat="43.71008" lon="1.96187">
        <ele>225</ele>
        <time>2019-11-05T06:07:57Z</time>
      </trkpt>
      <trkpt lat="43.71023" lon="1.96149">
        <ele>225</ele>
        <time>2019-11-05T06:08:23Z</time>
      </trkpt>
      <trkpt lat="43.71049" lon="1.96094">
        <ele>224</ele>
        <time>2019-11-05T06:09:01Z</time>
      </trkpt>
      <trkpt lat="43.71055" lon="1.96041">
        <ele>225</ele>
        <time>2019-11-05T06:09:32Z</time>
      </trkpt>
      <trkpt lat="43.71046" lon="1.96033">
        <ele>225</ele>
        <time>2019-11-05T06:09:40Z</time>
      </trkpt>
      <trkpt lat="43.71021" lon="1.95966">
        <ele>228</ele>
        <time>2019-11-05T06:10:24Z</time>
      </trkpt>
      <trkpt lat="43.70983" lon="1.95911">
        <ele>231</ele>
        <time>2019-11-05T06:11:08Z</time>
      </trkpt>
      <trkpt lat="43.70932" lon="1.9574">
        <ele>252</ele>
        <time>2019-11-05T06:12:55Z</time>
      </trkpt>
      <trkpt lat="43.70891" lon="1.95669">
        <ele>262</ele>
        <time>2019-11-05T06:13:47Z</time>
      </trkpt>
      <trkpt lat="43.70852" lon="1.95628">
        <ele>260</ele>
        <time>2019-11-05T06:14:27Z</time>
      </trkpt>
      <trkpt lat="43.70852" lon="1.95618">
        <ele>261</ele>
        <time>2019-11-05T06:14:33Z</time>
      </trkpt>
      <trkpt lat="43.70892" lon="1.95561">
        <ele>274</ele>
        <time>2019-11-05T06:15:18Z</time>
      </trkpt>
      <trkpt lat="43.70923" lon="1.9546">
        <ele>290</ele>
        <time>2019-11-05T06:16:22Z</time>
      </trkpt>
      <trkpt lat="43.70921" lon="1.95434">
        <ele>292</ele>
        <time>2019-11-05T06:16:37Z</time>
      </trkpt>
      <trkpt lat="43.70929" lon="1.9539">
        <ele>296</ele>
        <time>2019-11-05T06:17:03Z</time>
      </trkpt>
      <trkpt lat="43.70917" lon="1.9533">
        <ele>297</ele>
        <time>2019-11-05T06:17:39Z</time>
      </trkpt>
      <trkpt lat="43.70951" lon="1.95298">
        <ele>294</ele>
        <time>2019-11-05T06:18:12Z</time>
      </trkpt>
      <trkpt lat="43.70977" lon="1.95279">
        <ele>293</ele>
        <time>2019-11-05T06:18:36Z</time>
      </trkpt>
      <trkpt lat="43.71036" lon="1.9529">
        <ele>294</ele>
        <time>2019-11-05T06:19:24Z</time>
      </trkpt>
      <trkpt lat="43.71069" lon="1.95306">
        <ele>297</ele>
        <time>2019-11-05T06:19:52Z</time>
      </trkpt>
      <trkpt lat="43.71106" lon="1.95315">
        <ele>299</ele>
        <time>2019-11-05T06:20:22Z</time>
      </trkpt>
      <trkpt lat="43.71132" lon="1.95314">
        <ele>300</ele>
        <time>2019-11-05T06:20:42Z</time>
      </trkpt>
      <trkpt lat="43.71156" lon="1.95309">
        <ele>300</ele>
        <time>2019-11-05T06:21:02Z</time>
      </trkpt>
      <trkpt lat="43.7119" lon="1.95295">
        <ele>301</ele>
        <time>2019-11-05T06:21:30Z</time>
      </trkpt>
      <trkpt lat="43.71217" lon="1.95278">
        <ele>302</ele>
        <time>2019-11-05T06:21:54Z</time>
      </trkpt>
      <trkpt lat="43.71239" lon="1.95259">
        <ele>303</ele>
        <time>2019-11-05T06:22:15Z</time>
      </trkpt>
      <trkpt lat="43.71288" lon="1.95197">
        <ele>304</ele>
        <time>2019-11-05T06:23:08Z</time>
      </trkpt>
      <trkpt lat="43.71308" lon="1.95151">
        <ele>303</ele>
        <time>2019-11-05T06:23:39Z</time>
      </trkpt>
      <trkpt lat="43.71304" lon="1.95097">
        <ele>298</ele>
        <time>2019-11-05T06:24:10Z</time>
      </trkpt>
      <trkpt lat="43.71324" lon="1.9503">
        <ele>301</ele>
        <time>2019-11-05T06:24:52Z</time>
      </trkpt>
      <trkpt lat="43.71346" lon="1.95007">
        <ele>302</ele>
        <time>2019-11-05T06:25:14Z</time>
      </trkpt>
      <trkpt lat="43.71376" lon="1.94968">
        <ele>303</ele>
        <time>2019-11-05T06:25:47Z</time>
      </trkpt>
      <trkpt lat="43.71468" lon="1.94873">
        <ele>301</ele>
        <time>2019-11-05T06:27:19Z</time>
      </trkpt>
      <trkpt lat="43.71463" lon="1.94772">
        <ele>300</ele>
        <time>2019-11-05T06:28:18Z</time>
      </trkpt>
      <trkpt lat="43.71466" lon="1.94751">
        <ele>300</ele>
        <time>2019-11-05T06:28:30Z</time>
      </trkpt>
      <trkpt lat="43.71579" lon="1.94563">
        <ele>297</ele>
        <time>2019-11-05T06:30:52Z</time>
      </trkpt>
      <trkpt lat="43.71646" lon="1.94457">
        <ele>292</ele>
        <time>2019-11-05T06:32:13Z</time>
      </trkpt>
      <trkpt lat="43.71756" lon="1.94303">
        <ele>283</ele>
        <time>2019-11-05T06:34:19Z</time>
      </trkpt>
      <trkpt lat="43.71759" lon="1.94292">
        <ele>283</ele>
        <time>2019-11-05T06:34:25Z</time>
      </trkpt>
      <trkpt lat="43.71768" lon="1.94284">
        <ele>283</ele>
        <time>2019-11-05T06:34:34Z</time>
      </trkpt>
      <trkpt lat="43.71809" lon="1.94226">
        <ele>283</ele>
        <time>2019-11-05T06:35:21Z</time>
      </trkpt>
      <trkpt lat="43.71889" lon="1.94064">
        <ele>284</ele>
        <time>2019-11-05T06:37:14Z</time>
      </trkpt>
      <trkpt lat="43.71941" lon="1.93979">
        <ele>283</ele>
        <time>2019-11-05T06:38:19Z</time>
      </trkpt>
      <trkpt lat="43.71965" lon="1.93933">
        <ele>281</ele>
        <time>2019-11-05T06:38:52Z</time>
      </trkpt>
      <trkpt lat="43.71996" lon="1.93887">
        <ele>280</ele>
        <time>2019-11-05T06:39:28Z</time>
      </trkpt>
      <trkpt lat="43.72027" lon="1.93824">
        <ele>273</ele>
        <time>2019-11-05T06:40:12Z</time>
      </trkpt>
      <trkpt lat="43.72076" lon="1.93733">
        <ele>262</ele>
        <time>2019-11-05T06:41:18Z</time>
      </trkpt>
      <trkpt lat="43.72146" lon="1.93591">
        <ele>243</ele>
        <time>2019-11-05T06:42:57Z</time>
      </trkpt>
      <trkpt lat="43.7216" lon="1.93552">
        <ele>239</ele>
        <time>2019-11-05T06:43:23Z</time>
      </trkpt>
      <trkpt lat="43.72157" lon="1.93545">
        <ele>239</ele>
        <time>2019-11-05T06:43:27Z</time>
      </trkpt>
      <trkpt lat="43.72186" lon="1.93555">
        <ele>237</ele>
        <time>2019-11-05T06:43:51Z</time>
      </trkpt>
      <trkpt lat="43.72203" lon="1.93565">
        <ele>236</ele>
        <time>2019-11-05T06:44:06Z</time>
      </trkpt>
      <trkpt lat="43.72227" lon="1.93585">
        <ele>235</ele>
        <time>2019-11-05T06:44:28Z</time>
      </trkpt>
      <trkpt lat="43.72442" lon="1.93812">
        <ele>230</ele>
        <time>2019-11-05T06:48:05Z</time>
      </trkpt>
      <trkpt lat="43.72459" lon="1.93824">
        <ele>229</ele>
        <time>2019-11-05T06:48:20Z</time>
      </trkpt>
      <trkpt lat="43.72482" lon="1.9383">
        <ele>229</ele>
        <time>2019-11-05T06:48:39Z</time>
      </trkpt>
      <trkpt lat="43.72542" lon="1.93823">
        <ele>226</ele>
        <time>2019-11-05T06:49:27Z</time>
      </trkpt>
      <trkpt lat="43.72565" lon="1.93826">
        <ele>225</ele>
        <time>2019-11-05T06:49:46Z</time>
      </trkpt>
      <trkpt lat="43.72624" lon="1.93843">
        <ele>223</ele>
        <time>2019-11-05T06:50:34Z</time>
      </trkpt>
      <trkpt lat="43.72674" lon="1.93875">
        <ele>222</ele>
        <time>2019-11-05T06:51:18Z</time>
      </trkpt>
      <trkpt lat="43.72697" lon="1.93817">
        <ele>219</ele>
        <time>2019-11-05T06:51:56Z</time>
      </trkpt>
      <trkpt lat="43.72723" lon="1.93762">
        <ele>217</ele>
        <time>2019-11-05T06:52:34Z</time>
      </trkpt>
      <trkpt lat="43.72762" lon="1.93692">
        <ele>214</ele>
        <time>2019-11-05T06:53:26Z</time>
      </trkpt>
      <trkpt lat="43.72799" lon="1.936">
        <ele>209</ele>
        <time>2019-11-05T06:54:26Z</time>
      </trkpt>
      <trkpt lat="43.72882" lon="1.93469">
        <ele>204</ele>
        <time>2019-11-05T06:56:07Z</time>
      </trkpt>
      <trkpt lat="43.72925" lon="1.93284">
        <ele>203</ele>
        <time>2019-11-05T06:58:00Z</time>
      </trkpt>
      <trkpt lat="43.72933" lon="1.93267">
        <ele>204</ele>
        <time>2019-11-05T06:58:11Z</time>
      </trkpt>
      <trkpt lat="43.72983" lon="1.93242">
        <ele>206</ele>
        <time>2019-11-05T06:58:54Z</time>
      </trkpt>
      <trkpt lat="43.73001" lon="1.93239">
        <ele>207</ele>
        <time>2019-11-05T06:59:09Z</time>
      </trkpt>
      <trkpt lat="43.73019" lon="1.93232">
        <ele>210</ele>
        <time>2019-11-05T06:59:23Z</time>
      </trkpt>
      <trkpt lat="43.73076" lon="1.93185">
        <ele>219</ele>
        <time>2019-11-05T07:00:17Z</time>
      </trkpt>
      <trkpt lat="43.73057" lon="1.93131">
        <ele>218</ele>
        <time>2019-11-05T07:00:51Z</time>
      </trkpt>
      <trkpt lat="43.73047" lon="1.9312">
        <ele>217</ele>
        <time>2019-11-05T07:01:02Z</time>
      </trkpt>
      <trkpt lat="43.73072" lon="1.93073">
        <ele>223</ele>
        <time>2019-11-05T07:01:35Z</time>
      </trkpt>
      <trkpt lat="43.73081" lon="1.93065">
        <ele>226</ele>
        <time>2019-11-05T07:01:44Z</time>
      </trkpt>
      <trkpt lat="43.73085" lon="1.93045">
        <ele>229</ele>
        <time>2019-11-05T07:01:56Z</time>
      </trkpt>
      <trkpt lat="43.73096" lon="1.93015">
        <ele>234</ele>
        <time>2019-11-05T07:02:15Z</time>
      </trkpt>
      <trkpt lat="43.73105" lon="1.92979">
        <ele>240</ele>
        <time>2019-11-05T07:02:37Z</time>
      </trkpt>
      <trkpt lat="43.7311" lon="1.92943">
        <ele>246</ele>
        <time>2019-11-05T07:02:59Z</time>
      </trkpt>
      <trkpt lat="43.73109" lon="1.92931">
        <ele>248</ele>
        <time>2019-11-05T07:03:06Z</time>
      </trkpt>
      <trkpt lat="43.73108" lon="1.92924">
        <ele>249</ele>
        <time>2019-11-05T07:03:10Z</time>
      </trkpt>
      <trkpt lat="43.7309" lon="1.92884">
        <ele>256</ele>
        <time>2019-11-05T07:03:37Z</time>
      </trkpt>
      <trkpt lat="43.73069" lon="1.92826">
        <ele>266</ele>
        <time>2019-11-05T07:04:15Z</time>
      </trkpt>
      <trkpt lat="43.73064" lon="1.92789">
        <ele>269</ele>
        <time>2019-11-05T07:04:36Z</time>
      </trkpt>
      <trkpt lat="43.7303" lon="1.92751">
        <ele>269</ele>
        <time>2019-11-05T07:05:11Z</time>
      </trkpt>
      <trkpt lat="43.73042" lon="1.92753">
        <ele>270</ele>
        <time>2019-11-05T07:05:21Z</time>
      </trkpt>
      <trkpt lat="43.73058" lon="1.92751">
        <ele>273</ele>
        <time>2019-11-05T07:05:34Z</time>
      </trkpt>
      <trkpt lat="43.73069" lon="1.92754">
        <ele>274</ele>
        <time>2019-11-05T07:05:43Z</time>
      </trkpt>
      <trkpt lat="43.73083" lon="1.9276">
        <ele>276</ele>
        <time>2019-11-05T07:05:55Z</time>
      </trkpt>
      <trkpt lat="43.73091" lon="1.92778">
        <ele>275</ele>
        <time>2019-11-05T07:06:07Z</time>
      </trkpt>
      <trkpt lat="43.73092" lon="1.92795">
        <ele>273</ele>
        <time>2019-11-05T07:06:17Z</time>
      </trkpt>
      <trkpt lat="43.73097" lon="1.92812">
        <ele>272</ele>
        <time>2019-11-05T07:06:27Z</time>
      </trkpt>
      <trkpt lat="43.73112" lon="1.92826">
        <ele>272</ele>
        <time>2019-11-05T07:06:42Z</time>
      </trkpt>
      <trkpt lat="43.7312" lon="1.92827">
        <ele>272</ele>
        <time>2019-11-05T07:06:48Z</time>
      </trkpt>
      <trkpt lat="43.73133" lon="1.92823">
        <ele>274</ele>
        <time>2019-11-05T07:06:59Z</time>
      </trkpt>
      <trkpt lat="43.73182" lon="1.92796">
        <ele>281</ele>
        <time>2019-11-05T07:07:41Z</time>
      </trkpt>
      <trkpt lat="43.73196" lon="1.92796">
        <ele>281</ele>
        <time>2019-11-05T07:07:52Z</time>
      </trkpt>
      <trkpt lat="43.73209" lon="1.928">
        <ele>281</ele>
        <time>2019-11-05T07:08:03Z</time>
      </trkpt>
      <trkpt lat="43.73218" lon="1.92809">
        <ele>280</ele>
        <time>2019-11-05T07:08:12Z</time>
      </trkpt>
      <trkpt lat="43.73246" lon="1.92873">
        <ele>276</ele>
        <time>2019-11-05T07:08:55Z</time>
      </trkpt>
      <trkpt lat="43.7327" lon="1.92944">
        <ele>274</ele>
        <time>2019-11-05T07:09:40Z</time>
      </trkpt>
      <trkpt lat="43.73282" lon="1.93015">
        <ele>274</ele>
        <time>2019-11-05T07:10:23Z</time>
      </trkpt>
      <trkpt lat="43.73286" lon="1.93067">
        <ele>275</ele>
        <time>2019-11-05T07:10:53Z</time>
      </trkpt>
      <trkpt lat="43.73299" lon="1.93091">
        <ele>276</ele>
        <time>2019-11-05T07:11:10Z</time>
      </trkpt>
      <trkpt lat="43.73328" lon="1.93116">
        <ele>279</ele>
        <time>2019-11-05T07:11:38Z</time>
      </trkpt>
      <trkpt lat="43.73355" lon="1.93155">
        <ele>280</ele>
        <time>2019-11-05T07:12:09Z</time>
      </trkpt>
      <trkpt lat="43.73378" lon="1.93211">
        <ele>277</ele>
        <time>2019-11-05T07:12:46Z</time>
      </trkpt>
      <trkpt lat="43.73393" lon="1.93275">
        <ele>276</ele>
        <time>2019-11-05T07:13:25Z</time>
      </trkpt>
      <trkpt lat="43.73401" lon="1.93333">
        <ele>276</ele>
        <time>2019-11-05T07:13:59Z</time>
      </trkpt>
      <trkpt lat="43.73399" lon="1.93344">
        <ele>276</ele>
        <time>2019-11-05T07:14:06Z</time>
      </trkpt>
      <trkpt lat="43.73399" lon="1.93389">
        <ele>278</ele>
        <time>2019-11-05T07:14:32Z</time>
      </trkpt>
      <trkpt lat="43.73404" lon="1.93498">
        <ele>284</ele>
        <time>2019-11-05T07:15:35Z</time>
      </trkpt>
      <trkpt lat="43.73411" lon="1.93505">
        <ele>285</ele>
        <time>2019-11-05T07:15:42Z</time>
      </trkpt>
      <trkpt lat="43.73451" lon="1.93643">
        <ele>289</ele>
        <time>2019-11-05T07:17:08Z</time>
      </trkpt>
      <trkpt lat="43.73451" lon="1.93686">
        <ele>286</ele>
        <time>2019-11-05T07:17:33Z</time>
      </trkpt>
      <trkpt lat="43.73438" lon="1.93758">
        <ele>278</ele>
        <time>2019-11-05T07:18:16Z</time>
      </trkpt>
      <trkpt lat="43.73438" lon="1.93824">
        <ele>273</ele>
        <time>2019-11-05T07:18:54Z</time>
      </trkpt>
      <trkpt lat="43.73457" lon="1.93922">
        <ele>278</ele>
        <time>2019-11-05T07:19:53Z</time>
      </trkpt>
      <trkpt lat="43.73462" lon="1.94">
        <ele>283</ele>
        <time>2019-11-05T07:20:38Z</time>
      </trkpt>
      <trkpt lat="43.73481" lon="1.94123">
        <ele>271</ele>
        <time>2019-11-05T07:21:51Z</time>
      </trkpt>
      <trkpt lat="43.73487" lon="1.94198">
        <ele>260</ele>
        <time>2019-11-05T07:22:34Z</time>
      </trkpt>
      <trkpt lat="43.73505" lon="1.94308">
        <ele>253</ele>
        <time>2019-11-05T07:23:40Z</time>
      </trkpt>
      <trkpt lat="43.73506" lon="1.94304">
        <ele>254</ele>
        <time>2019-11-05T07:23:42Z</time>
      </trkpt>
      <trkpt lat="43.73517" lon="1.94355">
        <ele>250</ele>
        <time>2019-11-05T07:24:13Z</time>
      </trkpt>
      <trkpt lat="43.73519" lon="1.94357">
        <ele>250</ele>
        <time>2019-11-05T07:24:15Z</time>
      </trkpt>
      <trkpt lat="43.73538" lon="1.94352">
        <ele>251</ele>
        <time>2019-11-05T07:24:30Z</time>
      </trkpt>
      <trkpt lat="43.73561" lon="1.94359">
        <ele>251</ele>
        <time>2019-11-05T07:24:49Z</time>
      </trkpt>
      <trkpt lat="43.73612" lon="1.94387">
        <ele>253</ele>
        <time>2019-11-05T07:25:33Z</time>
      </trkpt>
      <trkpt lat="43.73678" lon="1.94428">
        <ele>261</ele>
        <time>2019-11-05T07:26:31Z</time>
      </trkpt>
      <trkpt lat="43.73702" lon="1.94447">
        <ele>264</ele>
        <time>2019-11-05T07:26:53Z</time>
      </trkpt>
      <trkpt lat="43.73722" lon="1.94457">
        <ele>266</ele>
        <time>2019-11-05T07:27:10Z</time>
      </trkpt>
      <trkpt lat="43.73753" lon="1.9446">
        <ele>268</ele>
        <time>2019-11-05T07:27:35Z</time>
      </trkpt>
      <trkpt lat="43.73779" lon="1.9447">
        <ele>267</ele>
        <time>2019-11-05T07:27:57Z</time>
      </trkpt>
      <trkpt lat="43.73801" lon="1.94485">
        <ele>267</ele>
        <time>2019-11-05T07:28:16Z</time>
      </trkpt>
      <trkpt lat="43.73818" lon="1.94488">
        <ele>265</ele>
        <time>2019-11-05T07:28:30Z</time>
      </trkpt>
      <trkpt lat="43.73834" lon="1.94509">
        <ele>264</ele>
        <time>2019-11-05T07:28:48Z</time>
      </trkpt>
      <trkpt lat="43.73827" lon="1.94593">
        <ele>267</ele>
        <time>2019-11-05T07:29:37Z</time>
      </trkpt>
      <trkpt lat="43.73831" lon="1.94615">
        <ele>266</ele>
        <time>2019-11-05T07:29:50Z</time>
      </trkpt>
      <trkpt lat="43.73843" lon="1.94636">
        <ele>264</ele>
        <time>2019-11-05T07:30:05Z</time>
      </trkpt>
      <trkpt lat="43.7387" lon="1.94647">
        <ele>262</ele>
        <time>2019-11-05T07:30:28Z</time>
      </trkpt>
      <trkpt lat="43.73918" lon="1.94659">
        <ele>259</ele>
        <time>2019-11-05T07:31:07Z</time>
      </trkpt>
      <trkpt lat="43.73931" lon="1.94668">
        <ele>259</ele>
        <time>2019-11-05T07:31:18Z</time>
      </trkpt>
      <trkpt lat="43.73956" lon="1.94693">
        <ele>257</ele>
        <time>2019-11-05T07:31:43Z</time>
      </trkpt>
      <trkpt lat="43.73973" lon="1.94716">
        <ele>256</ele>
        <time>2019-11-05T07:32:02Z</time>
      </trkpt>
      <trkpt lat="43.74084" lon="1.94729">
        <ele>245</ele>
        <time>2019-11-05T07:33:31Z</time>
      </trkpt>
      <trkpt lat="43.74153" lon="1.94716">
        <ele>241</ele>
        <time>2019-11-05T07:34:27Z</time>
      </trkpt>
      <trkpt lat="43.74218" lon="1.94681">
        <ele>239</ele>
        <time>2019-11-05T07:35:23Z</time>
      </trkpt>
      <trkpt lat="43.74248" lon="1.94661">
        <ele>240</ele>
        <time>2019-11-05T07:35:50Z</time>
      </trkpt>
      <trkpt lat="43.74263" lon="1.94655">
        <ele>239</ele>
        <time>2019-11-05T07:36:02Z</time>
      </trkpt>
      <trkpt lat="43.74322" lon="1.94585">
        <ele>239</ele>
        <time>2019-11-05T07:37:04Z</time>
      </trkpt>
      <trkpt lat="43.74335" lon="1.94552">
        <ele>240</ele>
        <time>2019-11-05T07:37:26Z</time>
      </trkpt>
      <trkpt lat="43.74346" lon="1.94513">
        <ele>240</ele>
        <time>2019-11-05T07:37:50Z</time>
      </trkpt>
      <trkpt lat="43.74354" lon="1.94456">
        <ele>240</ele>
        <time>2019-11-05T07:38:24Z</time>
      </trkpt>
      <trkpt lat="43.74348" lon="1.94284">
        <ele>239</ele>
        <time>2019-11-05T07:40:04Z</time>
      </trkpt>
      <trkpt lat="43.7436" lon="1.94192">
        <ele>239</ele>
        <time>2019-11-05T07:40:58Z</time>
      </trkpt>
      <trkpt lat="43.74418" lon="1.94133">
        <ele>236</ele>
        <time>2019-11-05T07:41:55Z</time>
      </trkpt>
      <trkpt lat="43.74448" lon="1.94126">
        <ele>234</ele>
        <time>2019-11-05T07:42:20Z</time>
      </trkpt>
      <trkpt lat="43.74515" lon="1.94084">
        <ele>230</ele>
        <time>2019-11-05T07:43:18Z</time>
      </trkpt>
      <trkpt lat="43.74507" lon="1.94122">
        <ele>230</ele>
        <time>2019-11-05T07:43:41Z</time>
      </trkpt>
      <trkpt lat="43.74515" lon="1.94153">
        <ele>228</ele>
        <time>2019-11-05T07:44:00Z</time>
      </trkpt>
      <trkpt lat="43.74527" lon="1.94165">
        <ele>227</ele>
        <time>2019-11-05T07:44:12Z</time>
      </trkpt>
      <trkpt lat="43.74544" lon="1.94149">
        <ele>226</ele>
        <time>2019-11-05T07:44:29Z</time>
      </trkpt>
      <trkpt lat="43.74564" lon="1.94159">
        <ele>224</ele>
        <time>2019-11-05T07:44:46Z</time>
      </trkpt>
      <trkpt lat="43.74584" lon="1.94183">
        <ele>222</ele>
        <time>2019-11-05T07:45:07Z</time>
      </trkpt>
      <trkpt lat="43.74608" lon="1.94204">
        <ele>220</ele>
        <time>2019-11-05T07:45:30Z</time>
      </trkpt>
      <trkpt lat="43.74623" lon="1.94204">
        <ele>219</ele>
        <time>2019-11-05T07:45:42Z</time>
      </trkpt>
      <trkpt lat="43.74649" lon="1.94162">
        <ele>217</ele>
        <time>2019-11-05T07:46:14Z</time>
      </trkpt>
      <trkpt lat="43.7467" lon="1.94165">
        <ele>216</ele>
        <time>2019-11-05T07:46:31Z</time>
      </trkpt>
      <trkpt lat="43.74687" lon="1.94175">
        <ele>214</ele>
        <time>2019-11-05T07:46:45Z</time>
      </trkpt>
      <trkpt lat="43.74684" lon="1.94198">
        <ele>215</ele>
        <time>2019-11-05T07:46:59Z</time>
      </trkpt>
      <trkpt lat="43.74685" lon="1.94208">
        <ele>215</ele>
        <time>2019-11-05T07:47:05Z</time>
      </trkpt>
      <trkpt lat="43.74693" lon="1.94223">
        <ele>214</ele>
        <time>2019-11-05T07:47:16Z</time>
      </trkpt>
      <trkpt lat="43.74739" lon="1.94285">
        <ele>213</ele>
        <time>2019-11-05T07:48:07Z</time>
      </trkpt>
      <trkpt lat="43.74795" lon="1.94348">
        <ele>214</ele>
        <time>2019-11-05T07:49:05Z</time>
      </trkpt>
      <trkpt lat="43.74798" lon="1.94369">
        <ele>214</ele>
        <time>2019-11-05T07:49:17Z</time>
      </trkpt>
      <trkpt lat="43.74808" lon="1.94395">
        <ele>215</ele>
        <time>2019-11-05T07:49:34Z</time>
      </trkpt>
      <trkpt lat="43.74812" lon="1.94516">
        <ele>211</ele>
        <time>2019-11-05T07:50:44Z</time>
      </trkpt>
      <trkpt lat="43.74848" lon="1.94518">
        <ele>210</ele>
        <time>2019-11-05T07:51:13Z</time>
      </trkpt>
      <trkpt lat="43.74905" lon="1.94515">
        <ele>208</ele>
        <time>2019-11-05T07:51:59Z</time>
      </trkpt>
      <trkpt lat="43.75031" lon="1.94485">
        <ele>201</ele>
        <time>2019-11-05T07:53:41Z</time>
      </trkpt>
      <trkpt lat="43.75044" lon="1.9448">
        <ele>200</ele>
        <time>2019-11-05T07:53:52Z</time>
      </trkpt>
      <trkpt lat="43.75076" lon="1.94459">
        <ele>199</ele>
        <time>2019-11-05T07:54:20Z</time>
      </trkpt>
      <trkpt lat="43.75162" lon="1.94364">
        <ele>195</ele>
        <time>2019-11-05T07:55:48Z</time>
      </trkpt>
      <trkpt lat="43.75207" lon="1.94306">
        <ele>193</ele>
        <time>2019-11-05T07:56:38Z</time>
      </trkpt>
      <trkpt lat="43.75215" lon="1.94284">
        <ele>192</ele>
        <time>2019-11-05T07:56:52Z</time>
      </trkpt>
      <trkpt lat="43.75223" lon="1.94233">
        <ele>191</ele>
        <time>2019-11-05T07:57:22Z</time>
      </trkpt>
      <trkpt lat="43.75261" lon="1.94131">
        <ele>182</ele>
        <time>2019-11-05T07:58:28Z</time>
      </trkpt>
      <trkpt lat="43.75276" lon="1.94075">
        <ele>176</ele>
        <time>2019-11-05T07:59:03Z</time>
      </trkpt>
      <trkpt lat="43.75278" lon="1.94055">
        <ele>175</ele>
        <time>2019-11-05T07:59:15Z</time>
      </trkpt>
      <trkpt lat="43.75291" lon="1.94037">
        <ele>174</ele>
        <time>2019-11-05T07:59:29Z</time>
      </trkpt>
      <trkpt lat="43.75307" lon="1.94021">
        <ele>172</ele>
        <time>2019-11-05T07:59:45Z</time>
      </trkpt>
      <trkpt lat="43.75309" lon="1.94004">
        <ele>172</ele>
        <time>2019-11-05T07:59:55Z</time>
      </trkpt>
      <trkpt lat="43.75326" lon="1.93976">
        <ele>171</ele>
        <time>2019-11-05T08:00:16Z</time>
      </trkpt>
      <trkpt lat="43.75347" lon="1.93931">
        <ele>169</ele>
        <time>2019-11-05T08:00:47Z</time>
      </trkpt>
      <trkpt lat="43.75352" lon="1.93904">
        <ele>169</ele>
        <time>2019-11-05T08:01:03Z</time>
      </trkpt>
      <trkpt lat="43.75356" lon="1.93847">
        <ele>169</ele>
        <time>2019-11-05T08:01:36Z</time>
      </trkpt>
      <trkpt lat="43.75375" lon="1.93763">
        <ele>165</ele>
        <time>2019-11-05T08:02:27Z</time>
      </trkpt>
      <trkpt lat="43.75384" lon="1.93734">
        <ele>164</ele>
        <time>2019-11-05T08:02:46Z</time>
      </trkpt>
      <trkpt lat="43.75398" lon="1.93707">
        <ele>163</ele>
        <time>2019-11-05T08:03:05Z</time>
      </trkpt>
      <trkpt lat="43.75339" lon="1.93601">
        <ele>166</ele>
        <time>2019-11-05T08:04:22Z</time>
      </trkpt>
      <trkpt lat="43.75396" lon="1.93572">
        <ele>164</ele>
        <time>2019-11-05T08:05:11Z</time>
      </trkpt>
      <trkpt lat="43.75426" lon="1.93573">
        <ele>163</ele>
        <time>2019-11-05T08:05:35Z</time>
      </trkpt>
      <trkpt lat="43.75459" lon="1.93564">
        <ele>162</ele>
        <time>2019-11-05T08:06:02Z</time>
      </trkpt>
      <trkpt lat="43.75556" lon="1.93522">
        <ele>160</ele>
        <time>2019-11-05T08:07:23Z</time>
      </trkpt>
      <trkpt lat="43.75584" lon="1.93505">
        <ele>159</ele>
        <time>2019-11-05T08:07:48Z</time>
      </trkpt>
      <trkpt lat="43.75703" lon="1.9345">
        <ele>155</ele>
        <time>2019-11-05T08:09:28Z</time>
      </trkpt>
      <trkpt lat="43.7579" lon="1.93406">
        <ele>153</ele>
        <time>2019-11-05T08:10:42Z</time>
      </trkpt>
      <trkpt lat="43.75822" lon="1.93405">
        <ele>153</ele>
        <time>2019-11-05T08:11:08Z</time>
      </trkpt>
      <trkpt lat="43.76002" lon="1.93448">
        <ele>148</ele>
        <time>2019-11-05T08:13:34Z</time>
      </trkpt>
      <trkpt lat="43.76052" lon="1.93457">
        <ele>144</ele>
        <time>2019-11-05T08:14:15Z</time>
      </trkpt>
      <trkpt lat="43.76071" lon="1.93454">
        <ele>143</ele>
        <time>2019-11-05T08:14:30Z</time>
      </trkpt>
      <trkpt lat="43.76076" lon="1.93451">
        <ele>142</ele>
        <time>2019-11-05T08:14:34Z</time>
      </trkpt>
      <trkpt lat="43.76081" lon="1.93447">
        <ele>142</ele>
        <time>2019-11-05T08:14:39Z</time>
      </trkpt>
      <trkpt lat="43.76084" lon="1.93434">
        <ele>141</ele>
        <time>2019-11-05T08:14:47Z</time>
      </trkpt>
      <trkpt lat="43.76084" lon="1.93421">
        <ele>141</ele>
        <time>2019-11-05T08:14:54Z</time>
      </trkpt>
      <trkpt lat="43.7608" lon="1.93406">
        <ele>141</ele>
        <time>2019-11-05T08:15:03Z</time>
      </trkpt>
      <trkpt lat="43.76091" lon="1.93354">
        <ele>138</ele>
        <time>2019-11-05T08:15:35Z</time>
      </trkpt>
      <trkpt lat="43.76095" lon="1.93322">
        <ele>137</ele>
        <time>2019-11-05T08:15:54Z</time>
      </trkpt>
      <trkpt lat="43.76084" lon="1.93279">
        <ele>138</ele>
        <time>2019-11-05T08:16:20Z</time>
      </trkpt>
      <trkpt lat="43.76075" lon="1.93255">
        <ele>139</ele>
        <time>2019-11-05T08:16:36Z</time>
      </trkpt>
      <trkpt lat="43.76075" lon="1.9324">
        <ele>139</ele>
        <time>2019-11-05T08:16:44Z</time>
      </trkpt>
      <trkpt lat="43.76079" lon="1.93228">
        <ele>139</ele>
        <time>2019-11-05T08:16:52Z</time>
      </trkpt>
      <trkpt lat="43.7609" lon="1.93213">
        <ele>139</ele>
        <time>2019-11-05T08:17:04Z</time>
      </trkpt>
      <trkpt lat="43.76198" lon="1.93093">
        <ele>143</ele>
        <time>2019-11-05T08:18:55Z</time>
      </trkpt>
      <trkpt lat="43.76219" lon="1.93075">
        <ele>143</ele>
        <time>2019-11-05T08:19:15Z</time>
      </trkpt>
      <trkpt lat="43.7624" lon="1.93065">
        <ele>143</ele>
        <time>2019-11-05T08:19:33Z</time>
      </trkpt>
      <trkpt lat="43.76452" lon="1.93014">
        <ele>144</ele>
        <time>2019-11-05T08:22:25Z</time>
      </trkpt>
      <trkpt lat="43.76508" lon="1.93006">
        <ele>143</ele>
        <time>2019-11-05T08:23:10Z</time>
      </trkpt>
      <trkpt lat="43.76638" lon="1.93007">
        <ele>146</ele>
        <time>2019-11-05T08:24:54Z</time>
      </trkpt>
      <trkpt lat="43.76683" lon="1.93005">
        <ele>148</ele>
        <time>2019-11-05T08:25:30Z</time>
      </trkpt>
      <trkpt lat="43.767" lon="1.92998">
        <ele>150</ele>
        <time>2019-11-05T08:25:44Z</time>
      </trkpt>
      <trkpt lat="43.76708" lon="1.92992">
        <ele>150</ele>
        <time>2019-11-05T08:25:52Z</time>
      </trkpt>
      <trkpt lat="43.76766" lon="1.92913">
        <ele>153</ele>
        <time>2019-11-05T08:26:57Z</time>
      </trkpt>
      <trkpt lat="43.76818" lon="1.92817">
        <ele>161</ele>
        <time>2019-11-05T08:28:06Z</time>
      </trkpt>
      <trkpt lat="43.76831" lon="1.928">
        <ele>164</ele>
        <time>2019-11-05T08:28:21Z</time>
      </trkpt>
      <trkpt lat="43.76931" lon="1.92729">
        <ele>166</ele>
        <time>2019-11-05T08:29:51Z</time>
      </trkpt>
      <trkpt lat="43.76952" lon="1.92715">
        <ele>167</ele>
        <time>2019-11-05T08:30:09Z</time>
      </trkpt>
      <trkpt lat="43.76973" lon="1.92707">
        <ele>167</ele>
        <time>2019-11-05T08:30:27Z</time>
      </trkpt>
      <trkpt lat="43.77075" lon="1.92635">
        <ele>170</ele>
        <time>2019-11-05T08:31:58Z</time>
      </trkpt>
      <trkpt lat="43.77129" lon="1.92588">
        <ele>171</ele>
        <time>2019-11-05T08:32:49Z</time>
      </trkpt>
      <trkpt lat="43.7716" lon="1.92555">
        <ele>172</ele>
        <time>2019-11-05T08:33:21Z</time>
      </trkpt>
      <trkpt lat="43.77196" lon="1.92509">
        <ele>171</ele>
        <time>2019-11-05T08:34:00Z</time>
      </trkpt>
      <trkpt lat="43.77218" lon="1.92475">
        <ele>173</ele>
        <time>2019-11-05T08:34:26Z</time>
      </trkpt>
      <trkpt lat="43.77324" lon="1.92295">
        <ele>185</ele>
        <time>2019-11-05T08:36:41Z</time>
      </trkpt>
      <trkpt lat="43.77345" lon="1.92267">
        <ele>188</ele>
        <time>2019-11-05T08:37:04Z</time>
      </trkpt>
      <trkpt lat="43.77425" lon="1.92164">
        <ele>190</ele>
        <time>2019-11-05T08:38:31Z</time>
      </trkpt>
      <trkpt lat="43.77461" lon="1.92124">
        <ele>191</ele>
        <time>2019-11-05T08:39:08Z</time>
      </trkpt>
      <trkpt lat="43.77512" lon="1.92077">
        <ele>191</ele>
        <time>2019-11-05T08:39:57Z</time>
      </trkpt>
      <trkpt lat="43.7758" lon="1.92021">
        <ele>194</ele>
        <time>2019-11-05T08:41:01Z</time>
      </trkpt>
      <trkpt lat="43.77588" lon="1.92012">
        <ele>195</ele>
        <time>2019-11-05T08:41:09Z</time>
      </trkpt>
      <trkpt lat="43.77647" lon="1.91927">
        <ele>201</ele>
        <time>2019-11-05T08:42:17Z</time>
      </trkpt>
      <trkpt lat="43.77675" lon="1.91883">
        <ele>206</ele>
        <time>2019-11-05T08:42:51Z</time>
      </trkpt>
      <trkpt lat="43.77722" lon="1.91794">
        <ele>209</ele>
        <time>2019-11-05T08:43:55Z</time>
      </trkpt>
      <trkpt lat="43.77773" lon="1.91666">
        <ele>207</ele>
        <time>2019-11-05T08:45:19Z</time>
      </trkpt>
      <trkpt lat="43.77828" lon="1.91542">
        <ele>208</ele>
        <time>2019-11-05T08:46:43Z</time>
      </trkpt>
      <trkpt lat="43.77854" lon="1.91438">
        <ele>211</ele>
        <time>2019-11-05T08:47:47Z</time>
      </trkpt>
      <trkpt lat="43.77868" lon="1.91371">
        <ele>212</ele>
        <time>2019-11-05T08:48:27Z</time>
      </trkpt>
      <trkpt lat="43.7788" lon="1.91341">
        <ele>212</ele>
        <time>2019-11-05T08:48:47Z</time>
      </trkpt>
      <trkpt lat="43.77875" lon="1.91334">
        <ele>212</ele>
        <time>2019-11-05T08:48:53Z</time>
      </trkpt>
      <trkpt lat="43.77886" lon="1.91334">
        <ele>213</ele>
        <time>2019-11-05T08:49:02Z</time>
      </trkpt>
      <trkpt lat="43.77892" lon="1.91329">
        <ele>213</ele>
        <time>2019-11-05T08:49:07Z</time>
      </trkpt>
      <trkpt lat="43.77934" lon="1.91278">
        <ele>214</ele>
        <time>2019-11-05T08:49:52Z</time>
      </trkpt>
      <trkpt lat="43.77988" lon="1.91203">
        <ele>215</ele>
        <time>2019-11-05T08:50:53Z</time>
      </trkpt>
      <trkpt lat="43.78072" lon="1.91079">
        <ele>214</ele>
        <time>2019-11-05T08:52:32Z</time>
      </trkpt>
      <trkpt lat="43.78077" lon="1.91056">
        <ele>213</ele>
        <time>2019-11-05T08:52:45Z</time>
      </trkpt>
      <trkpt lat="43.78079" lon="1.90902">
        <ele>206</ele>
        <time>2019-11-05T08:54:14Z</time>
      </trkpt>
      <trkpt lat="43.78086" lon="1.90854">
        <ele>208</ele>
        <time>2019-11-05T08:54:43Z</time>
      </trkpt>
      <trkpt lat="43.78179" lon="1.90668">
        <ele>189</ele>
        <time>2019-11-05T08:56:54Z</time>
      </trkpt>
      <trkpt lat="43.7819" lon="1.9064">
        <ele>189</ele>
        <time>2019-11-05T08:57:12Z</time>
      </trkpt>
      <trkpt lat="43.78191" lon="1.9063">
        <ele>189</ele>
        <time>2019-11-05T08:57:18Z</time>
      </trkpt>
      <trkpt lat="43.78188" lon="1.90608">
        <ele>189</ele>
        <time>2019-11-05T08:57:31Z</time>
      </trkpt>
      <trkpt lat="43.78182" lon="1.90592">
        <ele>189</ele>
        <time>2019-11-05T08:57:41Z</time>
      </trkpt>
      <trkpt lat="43.78176" lon="1.90585">
        <ele>189</ele>
        <time>2019-11-05T08:57:48Z</time>
      </trkpt>
      <trkpt lat="43.78133" lon="1.90554">
        <ele>192</ele>
        <time>2019-11-05T08:58:26Z</time>
      </trkpt>
      <trkpt lat="43.78083" lon="1.90524">
        <ele>193</ele>
        <time>2019-11-05T08:59:10Z</time>
      </trkpt>
      <trkpt lat="43.78081" lon="1.90508">
        <ele>193</ele>
        <time>2019-11-05T08:59:19Z</time>
      </trkpt>
      <trkpt lat="43.78074" lon="1.90498">
        <ele>192</ele>
        <time>2019-11-05T08:59:27Z</time>
      </trkpt>
      <trkpt lat="43.78072" lon="1.90489">
        <ele>192</ele>
        <time>2019-11-05T08:59:33Z</time>
      </trkpt>
      <trkpt lat="43.78068" lon="1.9043">
        <ele>192</ele>
        <time>2019-11-05T09:00:07Z</time>
      </trkpt>
      <trkpt lat="43.78063" lon="1.90403">
        <ele>192</ele>
        <time>2019-11-05T09:00:23Z</time>
      </trkpt>
      <trkpt lat="43.78047" lon="1.90379">
        <ele>192</ele>
        <time>2019-11-05T09:00:42Z</time>
      </trkpt>
      <trkpt lat="43.78042" lon="1.90376">
        <ele>192</ele>
        <time>2019-11-05T09:00:46Z</time>
      </trkpt>
      <trkpt lat="43.78036" lon="1.90376">
        <ele>192</ele>
        <time>2019-11-05T09:00:51Z</time>
      </trkpt>
      <trkpt lat="43.78024" lon="1.90382">
        <ele>191</ele>
        <time>2019-11-05T09:01:01Z</time>
      </trkpt>
      <trkpt lat="43.78022" lon="1.90373">
        <ele>191</ele>
        <time>2019-11-05T09:01:07Z</time>
      </trkpt>
      <trkpt lat="43.78022" lon="1.90297">
        <ele>194</ele>
        <time>2019-11-05T09:01:51Z</time>
      </trkpt>
      <trkpt lat="43.78033" lon="1.90262">
        <ele>196</ele>
        <time>2019-11-05T09:02:13Z</time>
      </trkpt>
      <trkpt lat="43.781" lon="1.90117">
        <ele>205</ele>
        <time>2019-11-05T09:03:52Z</time>
      </trkpt>
      <trkpt lat="43.7816" lon="1.90018">
        <ele>214</ele>
        <time>2019-11-05T09:05:07Z</time>
      </trkpt>
      <trkpt lat="43.78163" lon="1.90003">
        <ele>216</ele>
        <time>2019-11-05T09:05:16Z</time>
      </trkpt>
      <trkpt lat="43.78163" lon="1.89982">
        <ele>217</ele>
        <time>2019-11-05T09:05:28Z</time>
      </trkpt>
      <trkpt lat="43.78123" lon="1.89854">
        <ele>226</ele>
        <time>2019-11-05T09:06:49Z</time>
      </trkpt>
      <trkpt lat="43.78156" lon="1.8985">
        <ele>227</ele>
        <time>2019-11-05T09:07:15Z</time>
      </trkpt>
      <trkpt lat="43.78168" lon="1.89846">
        <ele>228</ele>
        <time>2019-11-05T09:07:25Z</time>
      </trkpt>
      <trkpt lat="43.78195" lon="1.89828">
        <ele>229</ele>
        <time>2019-11-05T09:07:49Z</time>
      </trkpt>
      <trkpt lat="43.78293" lon="1.89741">
        <ele>235</ele>
        <time>2019-11-05T09:09:23Z</time>
      </trkpt>
      <trkpt lat="43.78325" lon="1.89719">
        <ele>237</ele>
        <time>2019-11-05T09:09:51Z</time>
      </trkpt>
      <trkpt lat="43.78342" lon="1.89712">
        <ele>239</ele>
        <time>2019-11-05T09:10:05Z</time>
      </trkpt>
      <trkpt lat="43.78374" lon="1.89711">
        <ele>243</ele>
        <time>2019-11-05T09:10:31Z</time>
      </trkpt>
      <trkpt lat="43.78486" lon="1.89726">
        <ele>251</ele>
        <time>2019-11-05T09:12:01Z</time>
      </trkpt>
      <trkpt lat="43.78505" lon="1.89724">
        <ele>252</ele>
        <time>2019-11-05T09:12:16Z</time>
      </trkpt>
      <trkpt lat="43.78518" lon="1.89719">
        <ele>251</ele>
        <time>2019-11-05T09:12:27Z</time>
      </trkpt>
      <trkpt lat="43.78533" lon="1.8971">
        <ele>251</ele>
        <time>2019-11-05T09:12:40Z</time>
      </trkpt>
      <trkpt lat="43.78541" lon="1.89697">
        <ele>252</ele>
        <time>2019-11-05T09:12:50Z</time>
      </trkpt>
      <trkpt lat="43.78569" lon="1.89627">
        <ele>251</ele>
        <time>2019-11-05T09:13:36Z</time>
      </trkpt>
      <trkpt lat="43.78561" lon="1.89632">
        <ele>252</ele>
        <time>2019-11-05T09:13:43Z</time>
      </trkpt>
      <trkpt lat="43.78534" lon="1.89662">
        <ele>255</ele>
        <time>2019-11-05T09:14:11Z</time>
      </trkpt>
      <trkpt lat="43.78524" lon="1.89664">
        <ele>256</ele>
        <time>2019-11-05T09:14:19Z</time>
      </trkpt>
      <trkpt lat="43.78518" lon="1.89661">
        <ele>256</ele>
        <time>2019-11-05T09:14:24Z</time>
      </trkpt>
      <trkpt lat="43.78504" lon="1.89651">
        <ele>257</ele>
        <time>2019-11-05T09:14:37Z</time>
      </trkpt>
      <trkpt lat="43.78497" lon="1.89643">
        <ele>258</ele>
        <time>2019-11-05T09:14:44Z</time>
      </trkpt>
      <trkpt lat="43.78473" lon="1.89601">
        <ele>257</ele>
        <time>2019-11-05T09:15:15Z</time>
      </trkpt>
      <trkpt lat="43.78458" lon="1.89538">
        <ele>255</ele>
        <time>2019-11-05T09:15:53Z</time>
      </trkpt>
      <trkpt lat="43.78456" lon="1.8948">
        <ele>251</ele>
        <time>2019-11-05T09:16:27Z</time>
      </trkpt>
      <trkpt lat="43.78458" lon="1.89412">
        <ele>247</ele>
        <time>2019-11-05T09:17:06Z</time>
      </trkpt>
      <trkpt lat="43.78472" lon="1.89354">
        <ele>242</ele>
        <time>2019-11-05T09:17:42Z</time>
      </trkpt>
      <trkpt lat="43.78484" lon="1.89263">
        <ele>234</ele>
        <time>2019-11-05T09:18:35Z</time>
      </trkpt>
      <trkpt lat="43.7848" lon="1.89227">
        <ele>230</ele>
        <time>2019-11-05T09:18:56Z</time>
      </trkpt>
      <trkpt lat="43.78483" lon="1.89222">
        <ele>229</ele>
        <time>2019-11-05T09:19:00Z</time>
      </trkpt>
      <trkpt lat="43.7851" lon="1.892">
        <ele>225</ele>
        <time>2019-11-05T09:19:25Z</time>
      </trkpt>
      <trkpt lat="43.78523" lon="1.89206">
        <ele>225</ele>
        <time>2019-11-05T09:19:36Z</time>
      </trkpt>
      <trkpt lat="43.78529" lon="1.89212">
        <ele>225</ele>
        <time>2019-11-05T09:19:42Z</time>
      </trkpt>
      <trkpt lat="43.78535" lon="1.89214">
        <ele>225</ele>
        <time>2019-11-05T09:19:47Z</time>
      </trkpt>
      <trkpt lat="43.78539" lon="1.89211">
        <ele>224</ele>
        <time>2019-11-05T09:19:51Z</time>
      </trkpt>
      <trkpt lat="43.7854" lon="1.89155">
        <ele>217</ele>
        <time>2019-11-05T09:20:23Z</time>
      </trkpt>
      <trkpt lat="43.78547" lon="1.89153">
        <ele>216</ele>
        <time>2019-11-05T09:20:29Z</time>
      </trkpt>
      <trkpt lat="43.78585" lon="1.89158">
        <ele>214</ele>
        <time>2019-11-05T09:20:59Z</time>
      </trkpt>
      <trkpt lat="43.7861" lon="1.89196">
        <ele>220</ele>
        <time>2019-11-05T09:21:29Z</time>
      </trkpt>
      <trkpt lat="43.78657" lon="1.89225">
        <ele>225</ele>
        <time>2019-11-05T09:22:10Z</time>
      </trkpt>
      <trkpt lat="43.787" lon="1.89281">
        <ele>234</ele>
        <time>2019-11-05T09:22:57Z</time>
      </trkpt>
      <trkpt lat="43.78729" lon="1.89314">
        <ele>241</ele>
        <time>2019-11-05T09:23:27Z</time>
      </trkpt>
      <trkpt lat="43.78747" lon="1.89327">
        <ele>245</ele>
        <time>2019-11-05T09:23:44Z</time>
      </trkpt>
      <trkpt lat="43.78763" lon="1.89329">
        <ele>247</ele>
        <time>2019-11-05T09:23:57Z</time>
      </trkpt>
      <trkpt lat="43.78798" lon="1.8929">
        <ele>245</ele>
        <time>2019-11-05T09:24:33Z</time>
      </trkpt>
      <trkpt lat="43.78869" lon="1.89238">
        <ele>243</ele>
        <time>2019-11-05T09:25:37Z</time>
      </trkpt>
      <trkpt lat="43.78878" lon="1.89225">
        <ele>241</ele>
        <time>2019-11-05T09:25:47Z</time>
      </trkpt>
      <trkpt lat="43.78891" lon="1.89214">
        <ele>240</ele>
        <time>2019-11-05T09:25:59Z</time>
      </trkpt>
      <trkpt lat="43.78917" lon="1.89165">
        <ele>235</ele>
        <time>2019-11-05T09:26:35Z</time>
      </trkpt>
      <trkpt lat="43.78924" lon="1.89158">
        <ele>233</ele>
        <time>2019-11-05T09:26:41Z</time>
      </trkpt>
      <trkpt lat="43.78948" lon="1.8915">
        <ele>232</ele>
        <time>2019-11-05T09:27:01Z</time>
      </trkpt>
      <trkpt lat="43.78953" lon="1.89143">
        <ele>231</ele>
        <time>2019-11-05T09:27:07Z</time>
      </trkpt>
      <trkpt lat="43.78951" lon="1.89134">
        <ele>230</ele>
        <time>2019-11-05T09:27:12Z</time>
      </trkpt>
      <trkpt lat="43.78905" lon="1.89079">
        <ele>222</ele>
        <time>2019-11-05T09:28:01Z</time>
      </trkpt>
      <trkpt lat="43.78905" lon="1.89068">
        <ele>222</ele>
        <time>2019-11-05T09:28:07Z</time>
      </trkpt>
      <trkpt lat="43.78908" lon="1.89059">
        <ele>222</ele>
        <time>2019-11-05T09:28:13Z</time>
      </trkpt>
      <trkpt lat="43.78908" lon="1.89036">
        <ele>223</ele>
        <time>2019-11-05T09:28:26Z</time>
      </trkpt>
      <trkpt lat="43.78902" lon="1.89021">
        <ele>222</ele>
        <time>2019-11-05T09:28:36Z</time>
      </trkpt>
      <trkpt lat="43.78865" lon="1.88983">
        <ele>219</ele>
        <time>2019-11-05T09:29:13Z</time>
      </trkpt>
      <trkpt lat="43.78866" lon="1.88971">
        <ele>220</ele>
        <time>2019-11-05T09:29:20Z</time>
      </trkpt>
      <trkpt lat="43.78878" lon="1.88974">
        <ele>221</ele>
        <time>2019-11-05T09:29:30Z</time>
      </trkpt>
      <trkpt lat="43.78892" lon="1.88991">
        <ele>222</ele>
        <time>2019-11-05T09:29:45Z</time>
      </trkpt>
      <trkpt lat="43.78929" lon="1.89016">
        <ele>226</ele>
        <time>2019-11-05T09:30:18Z</time>
      </trkpt>
      <trkpt lat="43.7895" lon="1.89027">
        <ele>228</ele>
        <time>2019-11-05T09:30:36Z</time>
      </trkpt>
      <trkpt lat="43.78967" lon="1.89028">
        <ele>229</ele>
        <time>2019-11-05T09:30:49Z</time>
      </trkpt>
      <trkpt lat="43.78989" lon="1.89022">
        <ele>232</ele>
        <time>2019-11-05T09:31:07Z</time>
      </trkpt>
      <trkpt lat="43.78998" lon="1.89023">
        <ele>233</ele>
        <time>2019-11-05T09:31:15Z</time>
      </trkpt>
      <trkpt lat="43.79036" lon="1.89054">
        <ele>232</ele>
        <time>2019-11-05T09:31:50Z</time>
      </trkpt>
      <trkpt lat="43.79067" lon="1.89071">
        <ele>230</ele>
        <time>2019-11-05T09:32:17Z</time>
      </trkpt>
      <trkpt lat="43.79101" lon="1.89107">
        <ele>228</ele>
        <time>2019-11-05T09:32:51Z</time>
      </trkpt>
      <trkpt lat="43.79052" lon="1.89116">
        <ele>228</ele>
        <time>2019-11-05T09:33:30Z</time>
      </trkpt>
      <trkpt lat="43.7904" lon="1.89123">
        <ele>229</ele>
        <time>2019-11-05T09:33:41Z</time>
      </trkpt>
      <trkpt lat="43.7903" lon="1.89131">
        <ele>229</ele>
        <time>2019-11-05T09:33:50Z</time>
      </trkpt>
      <trkpt lat="43.79023" lon="1.89141">
        <ele>229</ele>
        <time>2019-11-05T09:33:58Z</time>
      </trkpt>
      <trkpt lat="43.79017" lon="1.89161">
        <ele>231</ele>
        <time>2019-11-05T09:34:11Z</time>
      </trkpt>
      <trkpt lat="43.79014" lon="1.89191">
        <ele>234</ele>
        <time>2019-11-05T09:34:28Z</time>
      </trkpt>
      <trkpt lat="43.79014" lon="1.89247">
        <ele>241</ele>
        <time>2019-11-05T09:35:01Z</time>
      </trkpt>
      <trkpt lat="43.79017" lon="1.8927">
        <ele>244</ele>
        <time>2019-11-05T09:35:14Z</time>
      </trkpt>
      <trkpt lat="43.79027" lon="1.89311">
        <ele>251</ele>
        <time>2019-11-05T09:35:39Z</time>
      </trkpt>
      <trkpt lat="43.79028" lon="1.89339">
        <ele>255</ele>
        <time>2019-11-05T09:35:55Z</time>
      </trkpt>
      <trkpt lat="43.79016" lon="1.89382">
        <ele>261</ele>
        <time>2019-11-05T09:36:22Z</time>
      </trkpt>
      <trkpt lat="43.79011" lon="1.89419">
        <ele>265</ele>
        <time>2019-11-05T09:36:44Z</time>
      </trkpt>
      <trkpt lat="43.79036" lon="1.89426">
        <ele>267</ele>
        <time>2019-11-05T09:37:04Z</time>
      </trkpt>
      <trkpt lat="43.79105" lon="1.89414">
        <ele>270</ele>
        <time>2019-11-05T09:38:00Z</time>
      </trkpt>
      <trkpt lat="43.79114" lon="1.89417">
        <ele>270</ele>
        <time>2019-11-05T09:38:07Z</time>
      </trkpt>
      <trkpt lat="43.79152" lon="1.89405">
        <ele>268</ele>
        <time>2019-11-05T09:38:38Z</time>
      </trkpt>
      <trkpt lat="43.79166" lon="1.89403">
        <ele>268</ele>
        <time>2019-11-05T09:38:50Z</time>
      </trkpt>
      <trkpt lat="43.79193" lon="1.89404">
        <ele>265</ele>
        <time>2019-11-05T09:39:11Z</time>
      </trkpt>
      <trkpt lat="43.7922" lon="1.89414">
        <ele>263</ele>
        <time>2019-11-05T09:39:34Z</time>
      </trkpt>
      <trkpt lat="43.79247" lon="1.89438">
        <ele>261</ele>
        <time>2019-11-05T09:39:59Z</time>
      </trkpt>
      <trkpt lat="43.79281" lon="1.89481">
        <ele>260</ele>
        <time>2019-11-05T09:40:36Z</time>
      </trkpt>
      <trkpt lat="43.79301" lon="1.89464">
        <ele>257</ele>
        <time>2019-11-05T09:40:55Z</time>
      </trkpt>
      <trkpt lat="43.79311" lon="1.89452">
        <ele>255</ele>
        <time>2019-11-05T09:41:06Z</time>
      </trkpt>
      <trkpt lat="43.79366" lon="1.89368">
        <ele>244</ele>
        <time>2019-11-05T09:42:11Z</time>
      </trkpt>
      <trkpt lat="43.79374" lon="1.89359">
        <ele>242</ele>
        <time>2019-11-05T09:42:19Z</time>
      </trkpt>
      <trkpt lat="43.79399" lon="1.89336">
        <ele>239</ele>
        <time>2019-11-05T09:42:43Z</time>
      </trkpt>
      <trkpt lat="43.79514" lon="1.89261">
        <ele>243</ele>
        <time>2019-11-05T09:44:25Z</time>
      </trkpt>
      <trkpt lat="43.79535" lon="1.8923">
        <ele>247</ele>
        <time>2019-11-05T09:44:50Z</time>
      </trkpt>
      <trkpt lat="43.79548" lon="1.89217">
        <ele>249</ele>
        <time>2019-11-05T09:45:03Z</time>
      </trkpt>
      <trkpt lat="43.79684" lon="1.89186">
        <ele>260</ele>
        <time>2019-11-05T09:46:53Z</time>
      </trkpt>
      <trkpt lat="43.79694" lon="1.89182">
        <ele>261</ele>
        <time>2019-11-05T09:47:01Z</time>
      </trkpt>
      <trkpt lat="43.79716" lon="1.89161">
        <ele>262</ele>
        <time>2019-11-05T09:47:23Z</time>
      </trkpt>
      <trkpt lat="43.79732" lon="1.89156">
        <ele>262</ele>
        <time>2019-11-05T09:47:36Z</time>
      </trkpt>
      <trkpt lat="43.79776" lon="1.89169">
        <ele>262</ele>
        <time>2019-11-05T09:48:12Z</time>
      </trkpt>
      <trkpt lat="43.79788" lon="1.89164">
        <ele>264</ele>
        <time>2019-11-05T09:48:22Z</time>
      </trkpt>
      <trkpt lat="43.7982" lon="1.89142">
        <ele>269</ele>
        <time>2019-11-05T09:48:51Z</time>
      </trkpt>
      <trkpt lat="43.79866" lon="1.89091">
        <ele>277</ele>
        <time>2019-11-05T09:49:38Z</time>
      </trkpt>
      <trkpt lat="43.7988" lon="1.89074">
        <ele>280</ele>
        <time>2019-11-05T09:49:53Z</time>
      </trkpt>
      <trkpt lat="43.7991" lon="1.89018">
        <ele>290</ele>
        <time>2019-11-05T09:50:33Z</time>
      </trkpt>
      <trkpt lat="43.79993" lon="1.88966">
        <ele>299</ele>
        <time>2019-11-05T09:51:46Z</time>
      </trkpt>
      <trkpt lat="43.80008" lon="1.88948">
        <ele>303</ele>
        <time>2019-11-05T09:52:02Z</time>
      </trkpt>
      <trkpt lat="43.80027" lon="1.88915">
        <ele>309</ele>
        <time>2019-11-05T09:52:26Z</time>
      </trkpt>
      <trkpt lat="43.80067" lon="1.88807">
        <ele>313</ele>
        <time>2019-11-05T09:53:36Z</time>
      </trkpt>
      <trkpt lat="43.8007" lon="1.8881">
        <ele>314</ele>
        <time>2019-11-05T09:53:39Z</time>
      </trkpt>
      <trkpt lat="43.80088" lon="1.88758">
        <ele>313</ele>
        <time>2019-11-05T09:54:13Z</time>
      </trkpt>
      <trkpt lat="43.80128" lon="1.88624">
        <ele>307</ele>
        <time>2019-11-05T09:55:36Z</time>
      </trkpt>
      <trkpt lat="43.80151" lon="1.88519">
        <ele>303</ele>
        <time>2019-11-05T09:56:40Z</time>
      </trkpt>
      <trkpt lat="43.80195" lon="1.88388">
        <ele>298</ele>
        <time>2019-11-05T09:58:03Z</time>
      </trkpt>
      <trkpt lat="43.80219" lon="1.88338">
        <ele>297</ele>
        <time>2019-11-05T09:58:38Z</time>
      </trkpt>
      <trkpt lat="43.80287" lon="1.88218">
        <ele>291</ele>
        <time>2019-11-05T10:00:06Z</time>
      </trkpt>
      <trkpt lat="43.80305" lon="1.88169">
        <ele>290</ele>
        <time>2019-11-05T10:00:38Z</time>
      </trkpt>
      <trkpt lat="43.8032" lon="1.88138">
        <ele>289</ele>
        <time>2019-11-05T10:00:59Z</time>
      </trkpt>
      <trkpt lat="43.80375" lon="1.8805">
        <ele>284</ele>
        <time>2019-11-05T10:02:07Z</time>
      </trkpt>
      <trkpt lat="43.80399" lon="1.88007">
        <ele>283</ele>
        <time>2019-11-05T10:02:38Z</time>
      </trkpt>
      <trkpt lat="43.80412" lon="1.87978">
        <ele>283</ele>
        <time>2019-11-05T10:02:58Z</time>
      </trkpt>
      <trkpt lat="43.80462" lon="1.87834">
        <ele>278</ele>
        <time>2019-11-05T10:04:30Z</time>
      </trkpt>
      <trkpt lat="43.80523" lon="1.87692">
        <ele>274</ele>
        <time>2019-11-05T10:06:06Z</time>
      </trkpt>
      <trkpt lat="43.80589" lon="1.87582">
        <ele>271</ele>
        <time>2019-11-05T10:07:28Z</time>
      </trkpt>
      <trkpt lat="43.80617" lon="1.87547">
        <ele>270</ele>
        <time>2019-11-05T10:07:59Z</time>
      </trkpt>
      <trkpt lat="43.80661" lon="1.87502">
        <ele>267</ele>
        <time>2019-11-05T10:08:42Z</time>
      </trkpt>
      <trkpt lat="43.80689" lon="1.87477">
        <ele>263</ele>
        <time>2019-11-05T10:09:09Z</time>
      </trkpt>
      <trkpt lat="43.80711" lon="1.87451">
        <ele>260</ele>
        <time>2019-11-05T10:09:32Z</time>
      </trkpt>
      <trkpt lat="43.8073" lon="1.87417">
        <ele>256</ele>
        <time>2019-11-05T10:09:57Z</time>
      </trkpt>
      <trkpt lat="43.80748" lon="1.87392">
        <ele>254</ele>
        <time>2019-11-05T10:10:17Z</time>
      </trkpt>
      <trkpt lat="43.80786" lon="1.87373">
        <ele>250</ele>
        <time>2019-11-05T10:10:50Z</time>
      </trkpt>
      <trkpt lat="43.8084" lon="1.8735">
        <ele>243</ele>
        <time>2019-11-05T10:11:35Z</time>
      </trkpt>
      <trkpt lat="43.80974" lon="1.87309">
        <ele>233</ele>
        <time>2019-11-05T10:13:25Z</time>
      </trkpt>
      <trkpt lat="43.81002" lon="1.87292">
        <ele>231</ele>
        <time>2019-11-05T10:13:49Z</time>
      </trkpt>
      <trkpt lat="43.81122" lon="1.87191">
        <ele>224</ele>
        <time>2019-11-05T10:15:42Z</time>
      </trkpt>
      <trkpt lat="43.81159" lon="1.87151">
        <ele>222</ele>
        <time>2019-11-05T10:16:19Z</time>
      </trkpt>
      <trkpt lat="43.81187" lon="1.87097">
        <ele>223</ele>
        <time>2019-11-05T10:16:58Z</time>
      </trkpt>
      <trkpt lat="43.81231" lon="1.8704">
        <ele>224</ele>
        <time>2019-11-05T10:17:46Z</time>
      </trkpt>
      <trkpt lat="43.81251" lon="1.87009">
        <ele>226</ele>
        <time>2019-11-05T10:18:10Z</time>
      </trkpt>
      <trkpt lat="43.81283" lon="1.86975">
        <ele>224</ele>
        <time>2019-11-05T10:18:42Z</time>
      </trkpt>
      <trkpt lat="43.81341" lon="1.86932">
        <ele>218</ele>
        <time>2019-11-05T10:19:35Z</time>
      </trkpt>
      <trkpt lat="43.81336" lon="1.86721">
        <ele>213</ele>
        <time>2019-11-05T10:21:37Z</time>
      </trkpt>
      <trkpt lat="43.81315" lon="1.86662">
        <ele>211</ele>
        <time>2019-11-05T10:22:15Z</time>
      </trkpt>
      <trkpt lat="43.81272" lon="1.8652">
        <ele>208</ele>
        <time>2019-11-05T10:23:44Z</time>
      </trkpt>
      <trkpt lat="43.8127" lon="1.86485">
        <ele>207</ele>
        <time>2019-11-05T10:24:04Z</time>
      </trkpt>
      <trkpt lat="43.81273" lon="1.86428">
        <ele>205</ele>
        <time>2019-11-05T10:24:37Z</time>
      </trkpt>
      <trkpt lat="43.8129" lon="1.8633">
        <ele>202</ele>
        <time>2019-11-05T10:25:35Z</time>
      </trkpt>
      <trkpt lat="43.81317" lon="1.86222">
        <ele>199</ele>
        <time>2019-11-05T10:26:41Z</time>
      </trkpt>
      <trkpt lat="43.81372" lon="1.8595">
        <ele>196</ele>
        <time>2019-11-05T10:29:25Z</time>
      </trkpt>
      <trkpt lat="43.81387" lon="1.85901">
        <ele>197</ele>
        <time>2019-11-05T10:29:55Z</time>
      </trkpt>
      <trkpt lat="43.81399" lon="1.85837">
        <ele>197</ele>
        <time>2019-11-05T10:30:34Z</time>
      </trkpt>
      <trkpt lat="43.81421" lon="1.8576">
        <ele>199</ele>
        <time>2019-11-05T10:31:22Z</time>
      </trkpt>
      <trkpt lat="43.81447" lon="1.85701">
        <ele>198</ele>
        <time>2019-11-05T10:32:01Z</time>
      </trkpt>
      <trkpt lat="43.81543" lon="1.85574">
        <ele>195</ele>
        <time>2019-11-05T10:33:48Z</time>
      </trkpt>
      <trkpt lat="43.81683" lon="1.85395">
        <ele>191</ele>
        <time>2019-11-05T10:36:20Z</time>
      </trkpt>
      <trkpt lat="43.81719" lon="1.85424">
        <ele>192</ele>
        <time>2019-11-05T10:36:54Z</time>
      </trkpt>
      <trkpt lat="43.81783" lon="1.85468">
        <ele>192</ele>
        <time>2019-11-05T10:37:51Z</time>
      </trkpt>
      <trkpt lat="43.81827" lon="1.85494">
        <ele>192</ele>
        <time>2019-11-05T10:38:29Z</time>
      </trkpt>
      <trkpt lat="43.81917" lon="1.85534">
        <ele>191</ele>
        <time>2019-11-05T10:39:45Z</time>
      </trkpt>
      <trkpt lat="43.82007" lon="1.85405">
        <ele>191</ele>
        <time>2019-11-05T10:41:28Z</time>
      </trkpt>
      <trkpt lat="43.82063" lon="1.8531">
        <ele>189</ele>
        <time>2019-11-05T10:42:39Z</time>
      </trkpt>
      <trkpt lat="43.82134" lon="1.85197">
        <ele>190</ele>
        <time>2019-11-05T10:44:06Z</time>
      </trkpt>
      <trkpt lat="43.82169" lon="1.8515">
        <ele>193</ele>
        <time>2019-11-05T10:44:45Z</time>
      </trkpt>
      <trkpt lat="43.82253" lon="1.85058">
        <ele>190</ele>
        <time>2019-11-05T10:46:11Z</time>
      </trkpt>
      <trkpt lat="43.82336" lon="1.84964">
        <ele>188</ele>
        <time>2019-11-05T10:47:36Z</time>
      </trkpt>
      <trkpt lat="43.82351" lon="1.84944">
        <ele>188</ele>
        <time>2019-11-05T10:47:53Z</time>
      </trkpt>
      <trkpt lat="43.82369" lon="1.84913">
        <ele>188</ele>
        <time>2019-11-05T10:48:16Z</time>
      </trkpt>
      <trkpt lat="43.8239" lon="1.84856">
        <ele>186</ele>
        <time>2019-11-05T10:48:53Z</time>
      </trkpt>
      <trkpt lat="43.82424" lon="1.84785">
        <ele>185</ele>
        <time>2019-11-05T10:49:42Z</time>
      </trkpt>
      <trkpt lat="43.82493" lon="1.84672">
        <ele>183</ele>
        <time>2019-11-05T10:51:08Z</time>
      </trkpt>
      <trkpt lat="43.82532" lon="1.84618">
        <ele>183</ele>
        <time>2019-11-05T10:51:52Z</time>
      </trkpt>
      <trkpt lat="43.82536" lon="1.84616">
        <ele>183</ele>
        <time>2019-11-05T10:51:55Z</time>
      </trkpt>
      <trkpt lat="43.82605" lon="1.8453">
        <ele>182</ele>
        <time>2019-11-05T10:53:10Z</time>
      </trkpt>
      <trkpt lat="43.82741" lon="1.84403">
        <ele>179</ele>
        <time>2019-11-05T10:55:21Z</time>
      </trkpt>
      <trkpt lat="43.82814" lon="1.84331">
        <ele>180</ele>
        <time>2019-11-05T10:56:33Z</time>
      </trkpt>
      <trkpt lat="43.82902" lon="1.84212">
        <ele>180</ele>
        <time>2019-11-05T10:58:11Z</time>
      </trkpt>
      <trkpt lat="43.82939" lon="1.84171">
        <ele>180</ele>
        <time>2019-11-05T10:58:49Z</time>
      </trkpt>
      <trkpt lat="43.82975" lon="1.84125">
        <ele>179</ele>
        <time>2019-11-05T10:59:28Z</time>
      </trkpt>
      <trkpt lat="43.82982" lon="1.84113">
        <ele>179</ele>
        <time>2019-11-05T10:59:37Z</time>
      </trkpt>
      <trkpt lat="43.83108" lon="1.83968">
        <ele>173</ele>
        <time>2019-11-05T11:01:48Z</time>
      </trkpt>
      <trkpt lat="43.83173" lon="1.83899">
        <ele>168</ele>
        <time>2019-11-05T11:02:54Z</time>
      </trkpt>
      <trkpt lat="43.83186" lon="1.83888">
        <ele>166</ele>
        <time>2019-11-05T11:03:06Z</time>
      </trkpt>
      <trkpt lat="43.83209" lon="1.83875">
        <ele>163</ele>
        <time>2019-11-05T11:03:26Z</time>
      </trkpt>
      <trkpt lat="43.83283" lon="1.83842">
        <ele>160</ele>
        <time>2019-11-05T11:04:28Z</time>
      </trkpt>
      <trkpt lat="43.83306" lon="1.83828">
        <ele>160</ele>
        <time>2019-11-05T11:04:48Z</time>
      </trkpt>
      <trkpt lat="43.83315" lon="1.83817">
        <ele>160</ele>
        <time>2019-11-05T11:04:58Z</time>
      </trkpt>
      <trkpt lat="43.83321" lon="1.83796">
        <ele>159</ele>
        <time>2019-11-05T11:05:11Z</time>
      </trkpt>
      <trkpt lat="43.83345" lon="1.83672">
        <ele>159</ele>
        <time>2019-11-05T11:06:25Z</time>
      </trkpt>
      <trkpt lat="43.83359" lon="1.83624">
        <ele>159</ele>
        <time>2019-11-05T11:06:55Z</time>
      </trkpt>
      <trkpt lat="43.83447" lon="1.83423">
        <ele>156</ele>
        <time>2019-11-05T11:09:11Z</time>
      </trkpt>
      <trkpt lat="43.8346" lon="1.83397">
        <ele>156</ele>
        <time>2019-11-05T11:09:29Z</time>
      </trkpt>
      <trkpt lat="43.83476" lon="1.83372">
        <ele>156</ele>
        <time>2019-11-05T11:09:48Z</time>
      </trkpt>
      <trkpt lat="43.83443" lon="1.83307">
        <ele>153</ele>
        <time>2019-11-05T11:10:34Z</time>
      </trkpt>
      <trkpt lat="43.83399" lon="1.83241">
        <ele>151</ele>
        <time>2019-11-05T11:11:26Z</time>
      </trkpt>
      <trkpt lat="43.83368" lon="1.83203">
        <ele>152</ele>
        <time>2019-11-05T11:11:59Z</time>
      </trkpt>
      <trkpt lat="43.83348" lon="1.83171">
        <ele>152</ele>
        <time>2019-11-05T11:12:24Z</time>
      </trkpt>
      <trkpt lat="43.83325" lon="1.83144">
        <ele>152</ele>
        <time>2019-11-05T11:12:48Z</time>
      </trkpt>
      <trkpt lat="43.83296" lon="1.83126">
        <ele>154</ele>
        <time>2019-11-05T11:13:13Z</time>
      </trkpt>
      <trkpt lat="43.83283" lon="1.8311">
        <ele>154</ele>
        <time>2019-11-05T11:13:27Z</time>
      </trkpt>
      <trkpt lat="43.83381" lon="1.83031">
        <ele>151</ele>
        <time>2019-11-05T11:14:58Z</time>
      </trkpt>
      <trkpt lat="43.83391" lon="1.83027">
        <ele>151</ele>
        <time>2019-11-05T11:15:06Z</time>
      </trkpt>
      <trkpt lat="43.83405" lon="1.83026">
        <ele>151</ele>
        <time>2019-11-05T11:15:18Z</time>
      </trkpt>
      <trkpt lat="43.83429" lon="1.83028">
        <ele>151</ele>
        <time>2019-11-05T11:15:37Z</time>
      </trkpt>
      <trkpt lat="43.83457" lon="1.83037">
        <ele>151</ele>
        <time>2019-11-05T11:16:00Z</time>
      </trkpt>
      <trkpt lat="43.83468" lon="1.83044">
        <ele>150</ele>
        <time>2019-11-05T11:16:09Z</time>
      </trkpt>
      <trkpt lat="43.83488" lon="1.83063">
        <ele>150</ele>
        <time>2019-11-05T11:16:29Z</time>
      </trkpt>
      <trkpt lat="43.83513" lon="1.83095">
        <ele>150</ele>
        <time>2019-11-05T11:16:56Z</time>
      </trkpt>
      <trkpt lat="43.83534" lon="1.83115">
        <ele>151</ele>
        <time>2019-11-05T11:17:17Z</time>
      </trkpt>
      <trkpt lat="43.83564" lon="1.8313">
        <ele>151</ele>
        <time>2019-11-05T11:17:42Z</time>
      </trkpt>
      <trkpt lat="43.83587" lon="1.83136">
        <ele>151</ele>
        <time>2019-11-05T11:18:01Z</time>
      </trkpt>
      <trkpt lat="43.8362" lon="1.83137">
        <ele>151</ele>
        <time>2019-11-05T11:18:27Z</time>
      </trkpt>
      <trkpt lat="43.83893" lon="1.83124">
        <ele>152</ele>
        <time>2019-11-05T11:22:06Z</time>
      </trkpt>
      <trkpt lat="43.83997" lon="1.83122">
        <ele>151</ele>
        <time>2019-11-05T11:23:29Z</time>
      </trkpt>
      <trkpt lat="43.83991" lon="1.83107">
        <ele>151</ele>
        <time>2019-11-05T11:23:39Z</time>
      </trkpt>
      <trkpt lat="43.83916" lon="1.82981">
        <ele>148</ele>
        <time>2019-11-05T11:25:13Z</time>
      </trkpt>
      <trkpt lat="43.83896" lon="1.82935">
        <ele>148</ele>
        <time>2019-11-05T11:25:45Z</time>
      </trkpt>
      <trkpt lat="43.83882" lon="1.82887">
        <ele>148</ele>
        <time>2019-11-05T11:26:14Z</time>
      </trkpt>
      <trkpt lat="43.83884" lon="1.82861">
        <ele>149</ele>
        <time>2019-11-05T11:26:30Z</time>
      </trkpt>
      <trkpt lat="43.83888" lon="1.82848">
        <ele>149</ele>
        <time>2019-11-05T11:26:38Z</time>
      </trkpt>
      <trkpt lat="43.84187" lon="1.82443">
        <ele>143</ele>
        <time>2019-11-05T11:32:12Z</time>
      </trkpt>
      <trkpt lat="43.84239" lon="1.82382">
        <ele>143</ele>
        <time>2019-11-05T11:33:07Z</time>
      </trkpt>
      <trkpt lat="43.84273" lon="1.82332">
        <ele>144</ele>
        <time>2019-11-05T11:33:47Z</time>
      </trkpt>
      <trkpt lat="43.84658" lon="1.82662">
        <ele>141</ele>
        <time>2019-11-05T11:39:49Z</time>
      </trkpt>
      <trkpt lat="43.84685" lon="1.82675">
        <ele>139</ele>
        <time>2019-11-05T11:40:12Z</time>
      </trkpt>
      <trkpt lat="43.84699" lon="1.82674">
        <ele>138</ele>
        <time>2019-11-05T11:40:23Z</time>
      </trkpt>
      <trkpt lat="43.84729" lon="1.82666">
        <ele>135</ele>
        <time>2019-11-05T11:40:48Z</time>
      </trkpt>
      <trkpt lat="43.84739" lon="1.82668">
        <ele>134</ele>
        <time>2019-11-05T11:40:56Z</time>
      </trkpt>
      <trkpt lat="43.84768" lon="1.82683">
        <ele>133</ele>
        <time>2019-11-05T11:41:20Z</time>
      </trkpt>
      <trkpt lat="43.84774" lon="1.82688">
        <ele>132</ele>
        <time>2019-11-05T11:41:26Z</time>
      </trkpt>
      <trkpt lat="43.84787" lon="1.82712">
        <ele>133</ele>
        <time>2019-11-05T11:41:43Z</time>
      </trkpt>
      <trkpt lat="43.84787" lon="1.82744">
        <ele>135</ele>
        <time>2019-11-05T11:42:02Z</time>
      </trkpt>
      <trkpt lat="43.84833" lon="1.82775">
        <ele>135</ele>
        <time>2019-11-05T11:42:43Z</time>
      </trkpt>
      <trkpt lat="43.84857" lon="1.82779">
        <ele>133</ele>
        <time>2019-11-05T11:43:02Z</time>
      </trkpt>
      <trkpt lat="43.84884" lon="1.82776">
        <ele>131</ele>
        <time>2019-11-05T11:43:24Z</time>
      </trkpt>
      <trkpt lat="43.8493" lon="1.82756">
        <ele>128</ele>
        <time>2019-11-05T11:44:02Z</time>
      </trkpt>
      <trkpt lat="43.84967" lon="1.82723">
        <ele>126</ele>
        <time>2019-11-05T11:44:38Z</time>
      </trkpt>
      <trkpt lat="43.85004" lon="1.82676">
        <ele>126</ele>
        <time>2019-11-05T11:45:18Z</time>
      </trkpt>
      <trkpt lat="43.85044" lon="1.82611">
        <ele>126</ele>
        <time>2019-11-05T11:46:07Z</time>
      </trkpt>
      <trkpt lat="43.85087" lon="1.82521">
        <ele>126</ele>
        <time>2019-11-05T11:47:10Z</time>
      </trkpt>
      <trkpt lat="43.8511" lon="1.8248">
        <ele>126</ele>
        <time>2019-11-05T11:47:40Z</time>
      </trkpt>
      <trkpt lat="43.85151" lon="1.82379">
        <ele>126</ele>
        <time>2019-11-05T11:48:46Z</time>
      </trkpt>
      <trkpt lat="43.85164" lon="1.82354">
        <ele>126</ele>
        <time>2019-11-05T11:49:04Z</time>
      </trkpt>
      <trkpt lat="43.8517" lon="1.82349">
        <ele>126</ele>
        <time>2019-11-05T11:49:10Z</time>
      </trkpt>
      <trkpt lat="43.85178" lon="1.82352">
        <ele>126</ele>
        <time>2019-11-05T11:49:16Z</time>
      </trkpt>
      <trkpt lat="43.85188" lon="1.8235">
        <ele>126</ele>
        <time>2019-11-05T11:49:25Z</time>
      </trkpt>
      <trkpt lat="43.85231" lon="1.82309">
        <ele>126</ele>
        <time>2019-11-05T11:50:06Z</time>
      </trkpt>
      <trkpt lat="43.85329" lon="1.82197">
        <ele>124</ele>
        <time>2019-11-05T11:51:48Z</time>
      </trkpt>
      <trkpt lat="43.85373" lon="1.82134">
        <ele>124</ele>
        <time>2019-11-05T11:52:39Z</time>
      </trkpt>
      <trkpt lat="43.85273" lon="1.81998">
        <ele>124</ele>
        <time>2019-11-05T11:54:31Z</time>
      </trkpt>
      <trkpt lat="43.85262" lon="1.81988">
        <ele>124</ele>
        <time>2019-11-05T11:54:41Z</time>
      </trkpt>
      <trkpt lat="43.8526" lon="1.81979">
        <ele>124</ele>
        <time>2019-11-05T11:54:47Z</time>
      </trkpt>
      <trkpt lat="43.85231" lon="1.81937">
        <ele>125</ele>
        <time>2019-11-05T11:55:20Z</time>
      </trkpt>
      <trkpt lat="43.85226" lon="1.81902">
        <ele>125</ele>
        <time>2019-11-05T11:55:41Z</time>
      </trkpt>
      <trkpt lat="43.85228" lon="1.81833">
        <ele>125</ele>
        <time>2019-11-05T11:56:21Z</time>
      </trkpt>
      <trkpt lat="43.85254" lon="1.81691">
        <ele>123</ele>
        <time>2019-11-05T11:57:45Z</time>
      </trkpt>
      <trkpt lat="43.85257" lon="1.81655">
        <ele>123</ele>
        <time>2019-11-05T11:58:06Z</time>
      </trkpt>
      <trkpt lat="43.85263" lon="1.81408">
        <ele>123</ele>
        <time>2019-11-05T12:00:29Z</time>
      </trkpt>
      <trkpt lat="43.8524" lon="1.81401">
        <ele>122</ele>
        <time>2019-11-05T12:00:48Z</time>
      </trkpt>
      <trkpt lat="43.85174" lon="1.81392">
        <ele>121</ele>
        <time>2019-11-05T12:01:41Z</time>
      </trkpt>
      <trkpt lat="43.85139" lon="1.81383">
        <ele>120</ele>
        <time>2019-11-05T12:02:09Z</time>
      </trkpt>
      <trkpt lat="43.85112" lon="1.81387">
        <ele>120</ele>
        <time>2019-11-05T12:02:31Z</time>
      </trkpt>
      <trkpt lat="43.85099" lon="1.81196">
        <ele>121</ele>
        <time>2019-11-05T12:04:22Z</time>
      </trkpt>
      <trkpt lat="43.8516" lon="1.81137">
        <ele>126</ele>
        <time>2019-11-05T12:05:22Z</time>
      </trkpt>
      <trkpt lat="43.85156" lon="1.81154">
        <ele>125</ele>
        <time>2019-11-05T12:05:32Z</time>
      </trkpt>
      <trkpt lat="43.85201" lon="1.81159">
        <ele>127</ele>
        <time>2019-11-05T12:06:08Z</time>
      </trkpt>
      <trkpt lat="43.85398" lon="1.81195">
        <ele>126</ele>
        <time>2019-11-05T12:08:47Z</time>
      </trkpt>
      <trkpt lat="43.85417" lon="1.81196">
        <ele>127</ele>
        <time>2019-11-05T12:09:02Z</time>
      </trkpt>
      <trkpt lat="43.8542" lon="1.81193">
        <ele>127</ele>
        <time>2019-11-05T12:09:05Z</time>
      </trkpt>
      <trkpt lat="43.8544" lon="1.81205">
        <ele>127</ele>
        <time>2019-11-05T12:09:23Z</time>
      </trkpt>
      <trkpt lat="43.85475" lon="1.81114">
        <ele>130</ele>
        <time>2019-11-05T12:10:22Z</time>
      </trkpt>
      <trkpt lat="43.85492" lon="1.81118">
        <ele>130</ele>
        <time>2019-11-05T12:10:36Z</time>
      </trkpt>
      <trkpt lat="43.8554" lon="1.81113">
        <ele>128</ele>
        <time>2019-11-05T12:11:15Z</time>
      </trkpt>
      <trkpt lat="43.85568" lon="1.81107">
        <ele>127</ele>
        <time>2019-11-05T12:11:37Z</time>
      </trkpt>
      <trkpt lat="43.85598" lon="1.81109">
        <ele>127</ele>
        <time>2019-11-05T12:12:01Z</time>
      </trkpt>
      <trkpt lat="43.85642" lon="1.81119">
        <ele>127</ele>
        <time>2019-11-05T12:12:37Z</time>
      </trkpt>
      <trkpt lat="43.85743" lon="1.81152">
        <ele>129</ele>
        <time>2019-11-05T12:14:00Z</time>
      </trkpt>
      <trkpt lat="43.85733" lon="1.81195">
        <ele>129</ele>
        <time>2019-11-05T12:14:26Z</time>
      </trkpt>
      <trkpt lat="43.85728" lon="1.81202">
        <ele>129</ele>
        <time>2019-11-05T12:14:32Z</time>
      </trkpt>
      <trkpt lat="43.85745" lon="1.81244">
        <ele>128</ele>
        <time>2019-11-05T12:15:00Z</time>
      </trkpt>
      <trkpt lat="43.85819" lon="1.81358">
        <ele>128</ele>
        <time>2019-11-05T12:16:28Z</time>
      </trkpt>
      <trkpt lat="43.85846" lon="1.81406">
        <ele>128</ele>
        <time>2019-11-05T12:17:03Z</time>
      </trkpt>
      <trkpt lat="43.85865" lon="1.8141">
        <ele>128</ele>
        <time>2019-11-05T12:17:19Z</time>
      </trkpt>
      <trkpt lat="43.85869" lon="1.81416">
        <ele>128</ele>
        <time>2019-11-05T12:17:24Z</time>
      </trkpt>
      <trkpt lat="43.85914" lon="1.81426">
        <ele>128</ele>
        <time>2019-11-05T12:18:00Z</time>
      </trkpt>
      <trkpt lat="43.85933" lon="1.81433">
        <ele>128</ele>
        <time>2019-11-05T12:18:16Z</time>
      </trkpt>
      <trkpt lat="43.85926" lon="1.81504">
        <ele>126</ele>
        <time>2019-11-05T12:18:57Z</time>
      </trkpt>
      <trkpt lat="43.85926" lon="1.81527">
        <ele>124</ele>
        <time>2019-11-05T12:19:10Z</time>
      </trkpt>
      <trkpt lat="43.85946" lon="1.81557">
        <ele>122</ele>
        <time>2019-11-05T12:19:34Z</time>
      </trkpt>
      <trkpt lat="43.86022" lon="1.81619">
        <ele>121</ele>
        <time>2019-11-05T12:20:45Z</time>
      </trkpt>
      <trkpt lat="43.8603" lon="1.81664">
        <ele>119</ele>
        <time>2019-11-05T12:21:11Z</time>
      </trkpt>
      <trkpt lat="43.86048" lon="1.81705">
        <ele>121</ele>
        <time>2019-11-05T12:21:39Z</time>
      </trkpt>
      <trkpt lat="43.86139" lon="1.81889">
        <ele>119</ele>
        <time>2019-11-05T12:23:48Z</time>
      </trkpt>
      <trkpt lat="43.86155" lon="1.81894">
        <ele>120</ele>
        <time>2019-11-05T12:24:01Z</time>
      </trkpt>
      <trkpt lat="43.86162" lon="1.81865">
        <ele>123</ele>
        <time>2019-11-05T12:24:19Z</time>
      </trkpt>
      <trkpt lat="43.86185" lon="1.81851">
        <ele>125</ele>
        <time>2019-11-05T12:24:39Z</time>
      </trkpt>
      <trkpt lat="43.86212" lon="1.81841">
        <ele>125</ele>
        <time>2019-11-05T12:25:01Z</time>
      </trkpt>
      <trkpt lat="43.8625" lon="1.8184">
        <ele>125</ele>
        <time>2019-11-05T12:25:32Z</time>
      </trkpt>
      <trkpt lat="43.8627" lon="1.81834">
        <ele>125</ele>
        <time>2019-11-05T12:25:48Z</time>
      </trkpt>
      <trkpt lat="43.86291" lon="1.81824">
        <ele>126</ele>
        <time>2019-11-05T12:26:06Z</time>
      </trkpt>
      <trkpt lat="43.86281" lon="1.8179">
        <ele>127</ele>
        <time>2019-11-05T12:26:27Z</time>
      </trkpt>
      <trkpt lat="43.86282" lon="1.81778">
        <ele>127</ele>
        <time>2019-11-05T12:26:34Z</time>
      </trkpt>
      <trkpt lat="43.86326" lon="1.81666">
        <ele>131</ele>
        <time>2019-11-05T12:27:48Z</time>
      </trkpt>
      <trkpt lat="43.86379" lon="1.8171">
        <ele>129</ele>
        <time>2019-11-05T12:28:37Z</time>
      </trkpt>
      <trkpt lat="43.86389" lon="1.81722">
        <ele>128</ele>
        <time>2019-11-05T12:28:48Z</time>
      </trkpt>
      <trkpt lat="43.86396" lon="1.81724">
        <ele>128</ele>
        <time>2019-11-05T12:28:53Z</time>
      </trkpt>
      <trkpt lat="43.86401" lon="1.8173">
        <ele>128</ele>
        <time>2019-11-05T12:28:59Z</time>
      </trkpt>
      <trkpt lat="43.86397" lon="1.81709">
        <ele>128</ele>
        <time>2019-11-05T12:29:11Z</time>
      </trkpt>
      <trkpt lat="43.86399" lon="1.81699">
        <ele>128</ele>
        <time>2019-11-05T12:29:17Z</time>
      </trkpt>
      <trkpt lat="43.86412" lon="1.81686">
        <ele>128</ele>
        <time>2019-11-05T12:29:30Z</time>
      </trkpt>
      <trkpt lat="43.86426" lon="1.81685">
        <ele>128</ele>
        <time>2019-11-05T12:29:41Z</time>
      </trkpt>
      <trkpt lat="43.86435" lon="1.8169">
        <ele>128</ele>
        <time>2019-11-05T12:29:49Z</time>
      </trkpt>
      <trkpt lat="43.86441" lon="1.81701">
        <ele>127</ele>
        <time>2019-11-05T12:29:57Z</time>
      </trkpt>
      <trkpt lat="43.86442" lon="1.81715">
        <ele>127</ele>
        <time>2019-11-05T12:30:05Z</time>
      </trkpt>
      <trkpt lat="43.8645" lon="1.81717">
        <ele>127</ele>
        <time>2019-11-05T12:30:12Z</time>
      </trkpt>
      <trkpt lat="43.86461" lon="1.81715">
        <ele>127</ele>
        <time>2019-11-05T12:30:20Z</time>
      </trkpt>
      <trkpt lat="43.86534" lon="1.81685">
        <ele>127</ele>
        <time>2019-11-05T12:31:21Z</time>
      </trkpt>
      <trkpt lat="43.8667" lon="1.8164">
        <ele>127</ele>
        <time>2019-11-05T12:33:13Z</time>
      </trkpt>
      <trkpt lat="43.86706" lon="1.81621">
        <ele>128</ele>
        <time>2019-11-05T12:33:44Z</time>
      </trkpt>
      <trkpt lat="43.8675" lon="1.81584">
        <ele>129</ele>
        <time>2019-11-05T12:34:25Z</time>
      </trkpt>
      <trkpt lat="43.86785" lon="1.81565">
        <ele>130</ele>
        <time>2019-11-05T12:34:56Z</time>
      </trkpt>
      <trkpt lat="43.86824" lon="1.81552">
        <ele>130</ele>
        <time>2019-11-05T12:35:28Z</time>
      </trkpt>
      <trkpt lat="43.86874" lon="1.81548">
        <ele>130</ele>
        <time>2019-11-05T12:36:08Z</time>
      </trkpt>
      <trkpt lat="43.86869" lon="1.81539">
        <ele>130</ele>
        <time>2019-11-05T12:36:14Z</time>
      </trkpt>
      <trkpt lat="43.86836" lon="1.8151">
        <ele>130</ele>
        <time>2019-11-05T12:36:46Z</time>
      </trkpt>
      <trkpt lat="43.86809" lon="1.81492">
        <ele>130</ele>
        <time>2019-11-05T12:37:10Z</time>
      </trkpt>
      <trkpt lat="43.86843" lon="1.81423">
        <ele>132</ele>
        <time>2019-11-05T12:37:58Z</time>
      </trkpt>
      <trkpt lat="43.86867" lon="1.81394">
        <ele>132</ele>
        <time>2019-11-05T12:38:23Z</time>
      </trkpt>
      <trkpt lat="43.86923" lon="1.81341">
        <ele>131</ele>
        <time>2019-11-05T12:39:18Z</time>
      </trkpt>
      <trkpt lat="43.86966" lon="1.81289">
        <ele>132</ele>
        <time>2019-11-05T12:40:03Z</time>
      </trkpt>
      <trkpt lat="43.8703" lon="1.81244">
        <ele>132</ele>
        <time>2019-11-05T12:41:01Z</time>
      </trkpt>
      <trkpt lat="43.87071" lon="1.81207">
        <ele>132</ele>
        <time>2019-11-05T12:41:40Z</time>
      </trkpt>
      <trkpt lat="43.87057" lon="1.81181">
        <ele>132</ele>
        <time>2019-11-05T12:41:59Z</time>
      </trkpt>
      <trkpt lat="43.87035" lon="1.81148">
        <ele>132</ele>
        <time>2019-11-05T12:42:25Z</time>
      </trkpt>
      <trkpt lat="43.86975" lon="1.81079">
        <ele>131</ele>
        <time>2019-11-05T12:43:27Z</time>
      </trkpt>
      <trkpt lat="43.86926" lon="1.81036">
        <ele>132</ele>
        <time>2019-11-05T12:44:13Z</time>
      </trkpt>
      <trkpt lat="43.86873" lon="1.81019">
        <ele>132</ele>
        <time>2019-11-05T12:44:57Z</time>
      </trkpt>
      <trkpt lat="43.86862" lon="1.81012">
        <ele>132</ele>
        <time>2019-11-05T12:45:07Z</time>
      </trkpt>
      <trkpt lat="43.86792" lon="1.80943">
        <ele>132</ele>
        <time>2019-11-05T12:46:15Z</time>
      </trkpt>
      <trkpt lat="43.86772" lon="1.80916">
        <ele>133</ele>
        <time>2019-11-05T12:46:38Z</time>
      </trkpt>
      <trkpt lat="43.86766" lon="1.80898">
        <ele>133</ele>
        <time>2019-11-05T12:46:49Z</time>
      </trkpt>
      <trkpt lat="43.86751" lon="1.80895">
        <ele>133</ele>
        <time>2019-11-05T12:47:01Z</time>
      </trkpt>
      <trkpt lat="43.86738" lon="1.80887">
        <ele>133</ele>
        <time>2019-11-05T12:47:13Z</time>
      </trkpt>
      <trkpt lat="43.86691" lon="1.80846">
        <ele>132</ele>
        <time>2019-11-05T12:47:57Z</time>
      </trkpt>
      <trkpt lat="43.86777" lon="1.80729">
        <ele>133</ele>
        <time>2019-11-05T12:49:34Z</time>
      </trkpt>
      <trkpt lat="43.86786" lon="1.80732">
        <ele>133</ele>
        <time>2019-11-05T12:49:41Z</time>
      </trkpt>
      <trkpt lat="43.86814" lon="1.80755">
        <ele>132</ele>
        <time>2019-11-05T12:50:07Z</time>
      </trkpt>
      <trkpt lat="43.86823" lon="1.80756">
        <ele>132</ele>
        <time>2019-11-05T12:50:14Z</time>
      </trkpt>
      <trkpt lat="43.86829" lon="1.80754">
        <ele>132</ele>
        <time>2019-11-05T12:50:19Z</time>
      </trkpt>
      <trkpt lat="43.86866" lon="1.80734">
        <ele>133</ele>
        <time>2019-11-05T12:50:51Z</time>
      </trkpt>
      <trkpt lat="43.86991" lon="1.80649">
        <ele>133</ele>
        <time>2019-11-05T12:52:42Z</time>
      </trkpt>
      <trkpt lat="43.87067" lon="1.80602">
        <ele>132</ele>
        <time>2019-11-05T12:53:49Z</time>
      </trkpt>
      <trkpt lat="43.87104" lon="1.80574">
        <ele>132</ele>
        <time>2019-11-05T12:54:23Z</time>
      </trkpt>
      <trkpt lat="43.87118" lon="1.80569">
        <ele>132</ele>
        <time>2019-11-05T12:54:34Z</time>
      </trkpt>
      <trkpt lat="43.8713" lon="1.80571">
        <ele>133</ele>
        <time>2019-11-05T12:54:44Z</time>
      </trkpt>
      <trkpt lat="43.8716" lon="1.80592">
        <ele>133</ele>
        <time>2019-11-05T12:55:11Z</time>
      </trkpt>
      <trkpt lat="43.87168" lon="1.80594">
        <ele>133</ele>
        <time>2019-11-05T12:55:18Z</time>
      </trkpt>
      <trkpt lat="43.87245" lon="1.8057">
        <ele>134</ele>
        <time>2019-11-05T12:56:21Z</time>
      </trkpt>
      <trkpt lat="43.87271" lon="1.80558">
        <ele>134</ele>
        <time>2019-11-05T12:56:43Z</time>
      </trkpt>
      <trkpt lat="43.87296" lon="1.80541">
        <ele>135</ele>
        <time>2019-11-05T12:57:05Z</time>
      </trkpt>
      <trkpt lat="43.87339" lon="1.805">
        <ele>137</ele>
        <time>2019-11-05T12:57:47Z</time>
      </trkpt>
      <trkpt lat="43.87368" lon="1.80483">
        <ele>136</ele>
        <time>2019-11-05T12:58:12Z</time>
      </trkpt>
      <trkpt lat="43.87486" lon="1.80426">
        <ele>136</ele>
        <time>2019-11-05T12:59:52Z</time>
      </trkpt>
      <trkpt lat="43.87522" lon="1.80414">
        <ele>137</ele>
        <time>2019-11-05T13:00:22Z</time>
      </trkpt>
      <trkpt lat="43.8753" lon="1.80414">
        <ele>137</ele>
        <time>2019-11-05T13:00:28Z</time>
      </trkpt>
      <trkpt lat="43.87547" lon="1.80423">
        <ele>138</ele>
        <time>2019-11-05T13:00:43Z</time>
      </trkpt>
      <trkpt lat="43.87555" lon="1.80423">
        <ele>138</ele>
        <time>2019-11-05T13:00:49Z</time>
      </trkpt>
      <trkpt lat="43.87754" lon="1.80331">
        <ele>139</ele>
        <time>2019-11-05T13:03:37Z</time>
      </trkpt>
      <trkpt lat="43.87782" lon="1.80325">
        <ele>140</ele>
        <time>2019-11-05T13:04:00Z</time>
      </trkpt>
      <trkpt lat="43.87809" lon="1.80313">
        <ele>141</ele>
        <time>2019-11-05T13:04:22Z</time>
      </trkpt>
      <trkpt lat="43.87924" lon="1.80251">
        <ele>141</ele>
        <time>2019-11-05T13:06:01Z</time>
      </trkpt>
      <trkpt lat="43.88025" lon="1.80213">
        <ele>145</ele>
        <time>2019-11-05T13:07:25Z</time>
      </trkpt>
      <trkpt lat="43.88036" lon="1.80212">
        <ele>145</ele>
        <time>2019-11-05T13:07:34Z</time>
      </trkpt>
      <trkpt lat="43.88041" lon="1.80216">
        <ele>145</ele>
        <time>2019-11-05T13:07:38Z</time>
      </trkpt>
      <trkpt lat="43.88046" lon="1.80225">
        <ele>145</ele>
        <time>2019-11-05T13:07:45Z</time>
      </trkpt>
      <trkpt lat="43.88067" lon="1.80293">
        <ele>145</ele>
        <time>2019-11-05T13:08:28Z</time>
      </trkpt>
      <trkpt lat="43.88071" lon="1.80298">
        <ele>145</ele>
        <time>2019-11-05T13:08:32Z</time>
      </trkpt>
      <trkpt lat="43.88075" lon="1.80298">
        <ele>145</ele>
        <time>2019-11-05T13:08:35Z</time>
      </trkpt>
      <trkpt lat="43.883" lon="1.80179">
        <ele>149</ele>
        <time>2019-11-05T13:11:48Z</time>
      </trkpt>
      <trkpt lat="43.88301" lon="1.80175">
        <ele>149</ele>
        <time>2019-11-05T13:11:50Z</time>
      </trkpt>
      <trkpt lat="43.88409" lon="1.80111">
        <ele>150</ele>
        <time>2019-11-05T13:13:24Z</time>
      </trkpt>
      <trkpt lat="43.88442" lon="1.80089">
        <ele>151</ele>
        <time>2019-11-05T13:13:54Z</time>
      </trkpt>
      <trkpt lat="43.88475" lon="1.80084">
        <ele>153</ele>
        <time>2019-11-05T13:14:20Z</time>
      </trkpt>
      <trkpt lat="43.88523" lon="1.8009">
        <ele>155</ele>
        <time>2019-11-05T13:14:59Z</time>
      </trkpt>
      <trkpt lat="43.88555" lon="1.80096">
        <ele>156</ele>
        <time>2019-11-05T13:15:25Z</time>
      </trkpt>
      <trkpt lat="43.88662" lon="1.80129">
        <ele>161</ele>
        <time>2019-11-05T13:16:52Z</time>
      </trkpt>
      <trkpt lat="43.88667" lon="1.80133">
        <ele>161</ele>
        <time>2019-11-05T13:16:57Z</time>
      </trkpt>
      <trkpt lat="43.8867" lon="1.80155">
        <ele>160</ele>
        <time>2019-11-05T13:17:10Z</time>
      </trkpt>
      <trkpt lat="43.88693" lon="1.80186">
        <ele>159</ele>
        <time>2019-11-05T13:17:36Z</time>
      </trkpt>
      <trkpt lat="43.887" lon="1.80193">
        <ele>160</ele>
        <time>2019-11-05T13:17:43Z</time>
      </trkpt>
      <trkpt lat="43.88711" lon="1.80198">
        <ele>160</ele>
        <time>2019-11-05T13:17:52Z</time>
      </trkpt>
      <trkpt lat="43.88705" lon="1.80196">
        <ele>160</ele>
        <time>2019-11-05T13:17:57Z</time>
      </trkpt>
      <trkpt lat="43.8878" lon="1.80064">
        <ele>165</ele>
        <time>2019-11-05T13:19:34Z</time>
      </trkpt>
      <trkpt lat="43.88776" lon="1.80036">
        <ele>166</ele>
        <time>2019-11-05T13:19:50Z</time>
      </trkpt>
      <trkpt lat="43.88771" lon="1.80022">
        <ele>167</ele>
        <time>2019-11-05T13:19:59Z</time>
      </trkpt>
      <trkpt lat="43.88761" lon="1.80005">
        <ele>167</ele>
        <time>2019-11-05T13:20:12Z</time>
      </trkpt>
      <trkpt lat="43.88707" lon="1.79939">
        <ele>170</ele>
        <time>2019-11-05T13:21:10Z</time>
      </trkpt>
      <trkpt lat="43.88703" lon="1.79928">
        <ele>170</ele>
        <time>2019-11-05T13:21:17Z</time>
      </trkpt>
      <trkpt lat="43.88704" lon="1.7992">
        <ele>171</ele>
        <time>2019-11-05T13:21:21Z</time>
      </trkpt>
      <trkpt lat="43.88709" lon="1.79914">
        <ele>171</ele>
        <time>2019-11-05T13:21:27Z</time>
      </trkpt>
      <trkpt lat="43.88725" lon="1.79912">
        <ele>172</ele>
        <time>2019-11-05T13:21:40Z</time>
      </trkpt>
      <trkpt lat="43.88738" lon="1.79905">
        <ele>173</ele>
        <time>2019-11-05T13:21:51Z</time>
      </trkpt>
      <trkpt lat="43.88759" lon="1.79877">
        <ele>174</ele>
        <time>2019-11-05T13:22:14Z</time>
      </trkpt>
      <trkpt lat="43.8882" lon="1.79806">
        <ele>176</ele>
        <time>2019-11-05T13:23:18Z</time>
      </trkpt>
      <trkpt lat="43.88856" lon="1.79771">
        <ele>176</ele>
        <time>2019-11-05T13:23:53Z</time>
      </trkpt>
      <trkpt lat="43.88897" lon="1.79719">
        <ele>178</ele>
        <time>2019-11-05T13:24:37Z</time>
      </trkpt>
      <trkpt lat="43.88915" lon="1.79688">
        <ele>180</ele>
        <time>2019-11-05T13:25:00Z</time>
      </trkpt>
      <trkpt lat="43.88962" lon="1.79621">
        <ele>186</ele>
        <time>2019-11-05T13:25:54Z</time>
      </trkpt>
      <trkpt lat="43.88971" lon="1.79593">
        <ele>189</ele>
        <time>2019-11-05T13:26:12Z</time>
      </trkpt>
      <trkpt lat="43.88978" lon="1.79514">
        <ele>200</ele>
        <time>2019-11-05T13:26:58Z</time>
      </trkpt>
      <trkpt lat="43.88983" lon="1.7941">
        <ele>218</ele>
        <time>2019-11-05T13:27:58Z</time>
      </trkpt>
      <trkpt lat="43.88988" lon="1.79381">
        <ele>222</ele>
        <time>2019-11-05T13:28:15Z</time>
      </trkpt>
      <trkpt lat="43.8894" lon="1.79332">
        <ele>220</ele>
        <time>2019-11-05T13:29:03Z</time>
      </trkpt>
      <trkpt lat="43.88937" lon="1.79323">
        <ele>219</ele>
        <time>2019-11-05T13:29:09Z</time>
      </trkpt>
      <trkpt lat="43.88939" lon="1.79312">
        <ele>219</ele>
        <time>2019-11-05T13:29:15Z</time>
      </trkpt>
      <trkpt lat="43.88961" lon="1.79273">
        <ele>222</ele>
        <time>2019-11-05T13:29:44Z</time>
      </trkpt>
      <trkpt lat="43.88983" lon="1.79238">
        <ele>225</ele>
        <time>2019-11-05T13:30:11Z</time>
      </trkpt>
      <trkpt lat="43.89008" lon="1.79207">
        <ele>227</ele>
        <time>2019-11-05T13:30:38Z</time>
      </trkpt>
      <trkpt lat="43.89023" lon="1.79196">
        <ele>228</ele>
        <time>2019-11-05T13:30:51Z</time>
      </trkpt>
      <trkpt lat="43.89036" lon="1.79191">
        <ele>229</ele>
        <time>2019-11-05T13:31:02Z</time>
      </trkpt>
      <trkpt lat="43.89047" lon="1.79188">
        <ele>230</ele>
        <time>2019-11-05T13:31:11Z</time>
      </trkpt>
      <trkpt lat="43.89061" lon="1.79189">
        <ele>231</ele>
        <time>2019-11-05T13:31:22Z</time>
      </trkpt>
      <trkpt lat="43.89076" lon="1.79199">
        <ele>234</ele>
        <time>2019-11-05T13:31:35Z</time>
      </trkpt>
      <trkpt lat="43.89093" lon="1.79228">
        <ele>238</ele>
        <time>2019-11-05T13:31:57Z</time>
      </trkpt>
      <trkpt lat="43.8911" lon="1.79244">
        <ele>241</ele>
        <time>2019-11-05T13:32:13Z</time>
      </trkpt>
      <trkpt lat="43.89193" lon="1.79251">
        <ele>245</ele>
        <time>2019-11-05T13:33:20Z</time>
      </trkpt>
      <trkpt lat="43.89206" lon="1.79249">
        <ele>245</ele>
        <time>2019-11-05T13:33:31Z</time>
      </trkpt>
      <trkpt lat="43.89239" lon="1.79231">
        <ele>244</ele>
        <time>2019-11-05T13:33:59Z</time>
      </trkpt>
      <trkpt lat="43.89268" lon="1.79195">
        <ele>243</ele>
        <time>2019-11-05T13:34:30Z</time>
      </trkpt>
      <trkpt lat="43.89278" lon="1.7918">
        <ele>244</ele>
        <time>2019-11-05T13:34:42Z</time>
      </trkpt>
      <trkpt lat="43.89316" lon="1.79096">
        <ele>246</ele>
        <time>2019-11-05T13:35:39Z</time>
      </trkpt>
      <trkpt lat="43.89342" lon="1.79081">
        <ele>247</ele>
        <time>2019-11-05T13:36:02Z</time>
      </trkpt>
      <trkpt lat="43.89366" lon="1.79076">
        <ele>246</ele>
        <time>2019-11-05T13:36:21Z</time>
      </trkpt>
      <trkpt lat="43.89378" lon="1.79078">
        <ele>245</ele>
        <time>2019-11-05T13:36:31Z</time>
      </trkpt>
      <trkpt lat="43.89391" lon="1.79085">
        <ele>244</ele>
        <time>2019-11-05T13:36:42Z</time>
      </trkpt>
      <trkpt lat="43.89402" lon="1.79092">
        <ele>243</ele>
        <time>2019-11-05T13:36:52Z</time>
      </trkpt>
      <trkpt lat="43.89411" lon="1.79103">
        <ele>243</ele>
        <time>2019-11-05T13:37:01Z</time>
      </trkpt>
      <trkpt lat="43.89429" lon="1.7916">
        <ele>243</ele>
        <time>2019-11-05T13:37:37Z</time>
      </trkpt>
      <trkpt lat="43.89438" lon="1.79172">
        <ele>242</ele>
        <time>2019-11-05T13:37:47Z</time>
      </trkpt>
      <trkpt lat="43.8945" lon="1.79182">
        <ele>239</ele>
        <time>2019-11-05T13:37:58Z</time>
      </trkpt>
      <trkpt lat="43.8948" lon="1.7917">
        <ele>237</ele>
        <time>2019-11-05T13:38:23Z</time>
      </trkpt>
      <trkpt lat="43.89587" lon="1.79161">
        <ele>239</ele>
        <time>2019-11-05T13:39:49Z</time>
      </trkpt>
      <trkpt lat="43.89691" lon="1.79135">
        <ele>243</ele>
        <time>2019-11-05T13:41:14Z</time>
      </trkpt>
      <trkpt lat="43.8979" lon="1.79136">
        <ele>244</ele>
        <time>2019-11-05T13:42:33Z</time>
      </trkpt>
      <trkpt lat="43.89839" lon="1.79125">
        <ele>248</ele>
        <time>2019-11-05T13:43:13Z</time>
      </trkpt>
      <trkpt lat="43.89869" lon="1.79132">
        <ele>248</ele>
        <time>2019-11-05T13:43:37Z</time>
      </trkpt>
      <trkpt lat="43.8987" lon="1.79118">
        <ele>248</ele>
        <time>2019-11-05T13:43:45Z</time>
      </trkpt>
      <trkpt lat="43.89883" lon="1.79062">
        <ele>246</ele>
        <time>2019-11-05T13:44:19Z</time>
      </trkpt>
      <trkpt lat="43.89892" lon="1.79047">
        <ele>245</ele>
        <time>2019-11-05T13:44:30Z</time>
      </trkpt>
      <trkpt lat="43.89928" lon="1.79025">
        <ele>241</ele>
        <time>2019-11-05T13:45:02Z</time>
      </trkpt>
      <trkpt lat="43.89951" lon="1.79006">
        <ele>238</ele>
        <time>2019-11-05T13:45:23Z</time>
      </trkpt>
      <trkpt lat="43.89968" lon="1.78984">
        <ele>235</ele>
        <time>2019-11-05T13:45:42Z</time>
      </trkpt>
      <trkpt lat="43.89992" lon="1.78961">
        <ele>230</ele>
        <time>2019-11-05T13:46:05Z</time>
      </trkpt>
      <trkpt lat="43.90007" lon="1.78955">
        <ele>228</ele>
        <time>2019-11-05T13:46:18Z</time>
      </trkpt>
      <trkpt lat="43.9005" lon="1.78954">
        <ele>228</ele>
        <time>2019-11-05T13:46:52Z</time>
      </trkpt>
      <trkpt lat="43.90064" lon="1.78952">
        <ele>227</ele>
        <time>2019-11-05T13:47:04Z</time>
      </trkpt>
      <trkpt lat="43.9007" lon="1.78948">
        <ele>227</ele>
        <time>2019-11-05T13:47:09Z</time>
      </trkpt>
      <trkpt lat="43.90075" lon="1.78933">
        <ele>226</ele>
        <time>2019-11-05T13:47:18Z</time>
      </trkpt>
      <trkpt lat="43.90074" lon="1.78915">
        <ele>225</ele>
        <time>2019-11-05T13:47:29Z</time>
      </trkpt>
      <trkpt lat="43.90063" lon="1.78894">
        <ele>223</ele>
        <time>2019-11-05T13:47:44Z</time>
      </trkpt>
      <trkpt lat="43.90061" lon="1.78879">
        <ele>223</ele>
        <time>2019-11-05T13:47:53Z</time>
      </trkpt>
      <trkpt lat="43.90067" lon="1.78873">
        <ele>223</ele>
        <time>2019-11-05T13:47:58Z</time>
      </trkpt>
      <trkpt lat="43.90076" lon="1.78873">
        <ele>223</ele>
        <time>2019-11-05T13:48:06Z</time>
      </trkpt>
      <trkpt lat="43.90084" lon="1.78869">
        <ele>223</ele>
        <time>2019-11-05T13:48:13Z</time>
      </trkpt>
      <trkpt lat="43.90091" lon="1.78856">
        <ele>225</ele>
        <time>2019-11-05T13:48:22Z</time>
      </trkpt>
      <trkpt lat="43.90093" lon="1.78838">
        <ele>225</ele>
        <time>2019-11-05T13:48:32Z</time>
      </trkpt>
      <trkpt lat="43.90092" lon="1.7882">
        <ele>223</ele>
        <time>2019-11-05T13:48:43Z</time>
      </trkpt>
      <trkpt lat="43.90086" lon="1.78792">
        <ele>218</ele>
        <time>2019-11-05T13:49:00Z</time>
      </trkpt>
      <trkpt lat="43.90087" lon="1.78764">
        <ele>216</ele>
        <time>2019-11-05T13:49:16Z</time>
      </trkpt>
      <trkpt lat="43.9009" lon="1.7875">
        <ele>215</ele>
        <time>2019-11-05T13:49:24Z</time>
      </trkpt>
      <trkpt lat="43.90088" lon="1.78726">
        <ele>213</ele>
        <time>2019-11-05T13:49:38Z</time>
      </trkpt>
      <trkpt lat="43.90083" lon="1.78704">
        <ele>211</ele>
        <time>2019-11-05T13:49:51Z</time>
      </trkpt>
      <trkpt lat="43.90084" lon="1.78641">
        <ele>207</ele>
        <time>2019-11-05T13:50:28Z</time>
      </trkpt>
      <trkpt lat="43.90087" lon="1.78623">
        <ele>206</ele>
        <time>2019-11-05T13:50:39Z</time>
      </trkpt>
      <trkpt lat="43.90084" lon="1.78606">
        <ele>205</ele>
        <time>2019-11-05T13:50:49Z</time>
      </trkpt>
      <trkpt lat="43.90081" lon="1.78546">
        <ele>203</ele>
        <time>2019-11-05T13:51:23Z</time>
      </trkpt>
      <trkpt lat="43.90088" lon="1.78511">
        <ele>203</ele>
        <time>2019-11-05T13:51:44Z</time>
      </trkpt>
      <trkpt lat="43.90087" lon="1.78504">
        <ele>203</ele>
        <time>2019-11-05T13:51:48Z</time>
      </trkpt>
      <trkpt lat="43.90078" lon="1.78493">
        <ele>204</ele>
        <time>2019-11-05T13:51:58Z</time>
      </trkpt>
      <trkpt lat="43.90071" lon="1.78479">
        <ele>206</ele>
        <time>2019-11-05T13:52:08Z</time>
      </trkpt>
      <trkpt lat="43.90069" lon="1.78468">
        <ele>208</ele>
        <time>2019-11-05T13:52:14Z</time>
      </trkpt>
      <trkpt lat="43.90069" lon="1.78458">
        <ele>209</ele>
        <time>2019-11-05T13:52:20Z</time>
      </trkpt>
      <trkpt lat="43.90084" lon="1.78393">
        <ele>216</ele>
        <time>2019-11-05T13:52:59Z</time>
      </trkpt>
      <trkpt lat="43.90092" lon="1.78368">
        <ele>217</ele>
        <time>2019-11-05T13:53:15Z</time>
      </trkpt>
      <trkpt lat="43.90103" lon="1.78353">
        <ele>217</ele>
        <time>2019-11-05T13:53:28Z</time>
      </trkpt>
      <trkpt lat="43.90129" lon="1.78337">
        <ele>214</ele>
        <time>2019-11-05T13:53:50Z</time>
      </trkpt>
      <trkpt lat="43.90153" lon="1.78303">
        <ele>213</ele>
        <time>2019-11-05T13:54:18Z</time>
      </trkpt>
      <trkpt lat="43.90194" lon="1.78229">
        <ele>219</ele>
        <time>2019-11-05T13:55:12Z</time>
      </trkpt>
      <trkpt lat="43.9026" lon="1.78124">
        <ele>232</ele>
        <time>2019-11-05T13:56:32Z</time>
      </trkpt>
      <trkpt lat="43.90274" lon="1.78093">
        <ele>237</ele>
        <time>2019-11-05T13:56:53Z</time>
      </trkpt>
      <trkpt lat="43.90281" lon="1.78061">
        <ele>239</ele>
        <time>2019-11-05T13:57:13Z</time>
      </trkpt>
      <trkpt lat="43.90338" lon="1.7807">
        <ele>242</ele>
        <time>2019-11-05T13:57:58Z</time>
      </trkpt>
      <trkpt lat="43.90348" lon="1.78064">
        <ele>241</ele>
        <time>2019-11-05T13:58:07Z</time>
      </trkpt>
      <trkpt lat="43.90356" lon="1.7805">
        <ele>241</ele>
        <time>2019-11-05T13:58:17Z</time>
      </trkpt>
      <trkpt lat="43.90357" lon="1.78032">
        <ele>241</ele>
        <time>2019-11-05T13:58:28Z</time>
      </trkpt>
      <trkpt lat="43.90351" lon="1.77988">
        <ele>240</ele>
        <time>2019-11-05T13:58:54Z</time>
      </trkpt>
      <trkpt lat="43.90343" lon="1.77971">
        <ele>240</ele>
        <time>2019-11-05T13:59:05Z</time>
      </trkpt>
      <trkpt lat="43.90311" lon="1.7785">
        <ele>244</ele>
        <time>2019-11-05T14:00:20Z</time>
      </trkpt>
      <trkpt lat="43.90288" lon="1.77793">
        <ele>247</ele>
        <time>2019-11-05T14:00:57Z</time>
      </trkpt>
      <trkpt lat="43.90267" lon="1.77749">
        <ele>249</ele>
        <time>2019-11-05T14:01:28Z</time>
      </trkpt>
      <trkpt lat="43.90228" lon="1.77679">
        <ele>250</ele>
        <time>2019-11-05T14:02:19Z</time>
      </trkpt>
      <trkpt lat="43.90187" lon="1.77617">
        <ele>245</ele>
        <time>2019-11-05T14:03:08Z</time>
      </trkpt>
      <trkpt lat="43.90152" lon="1.77547">
        <ele>246</ele>
        <time>2019-11-05T14:03:57Z</time>
      </trkpt>
      <trkpt lat="43.90134" lon="1.77531">
        <ele>246</ele>
        <time>2019-11-05T14:04:14Z</time>
      </trkpt>
      <trkpt lat="43.90073" lon="1.77511">
        <ele>245</ele>
        <time>2019-11-05T14:05:04Z</time>
      </trkpt>
      <trkpt lat="43.90056" lon="1.77502">
        <ele>247</ele>
        <time>2019-11-05T14:05:19Z</time>
      </trkpt>
      <trkpt lat="43.8998" lon="1.77442">
        <ele>248</ele>
        <time>2019-11-05T14:06:29Z</time>
      </trkpt>
      <trkpt lat="43.90021" lon="1.77374">
        <ele>248</ele>
        <time>2019-11-05T14:07:20Z</time>
      </trkpt>
      <trkpt lat="43.90049" lon="1.77337">
        <ele>248</ele>
        <time>2019-11-05T14:07:51Z</time>
      </trkpt>
      <trkpt lat="43.90065" lon="1.7731">
        <ele>248</ele>
        <time>2019-11-05T14:08:11Z</time>
      </trkpt>
      <trkpt lat="43.90114" lon="1.77247">
        <ele>247</ele>
        <time>2019-11-05T14:09:04Z</time>
      </trkpt>
      <trkpt lat="43.9015" lon="1.77257">
        <ele>245</ele>
        <time>2019-11-05T14:09:34Z</time>
      </trkpt>
      <trkpt lat="43.90214" lon="1.7709">
        <ele>247</ele>
        <time>2019-11-05T14:11:23Z</time>
      </trkpt>
      <trkpt lat="43.90216" lon="1.77055">
        <ele>248</ele>
        <time>2019-11-05T14:11:43Z</time>
      </trkpt>
      <trkpt lat="43.90203" lon="1.77014">
        <ele>248</ele>
        <time>2019-11-05T14:12:09Z</time>
      </trkpt>
      <trkpt lat="43.90189" lon="1.76846">
        <ele>246</ele>
        <time>2019-11-05T14:13:46Z</time>
      </trkpt>
      <trkpt lat="43.90186" lon="1.76775">
        <ele>243</ele>
        <time>2019-11-05T14:14:28Z</time>
      </trkpt>
      <trkpt lat="43.90188" lon="1.76664">
        <ele>240</ele>
        <time>2019-11-05T14:15:32Z</time>
      </trkpt>
      <trkpt lat="43.90192" lon="1.7664">
        <ele>238</ele>
        <time>2019-11-05T14:15:46Z</time>
      </trkpt>
      <trkpt lat="43.90228" lon="1.76531">
        <ele>236</ele>
        <time>2019-11-05T14:16:55Z</time>
      </trkpt>
      <trkpt lat="43.90245" lon="1.76451">
        <ele>237</ele>
        <time>2019-11-05T14:17:43Z</time>
      </trkpt>
      <trkpt lat="43.90255" lon="1.7637">
        <ele>239</ele>
        <time>2019-11-05T14:18:30Z</time>
      </trkpt>
      <trkpt lat="43.90254" lon="1.76333">
        <ele>241</ele>
        <time>2019-11-05T14:18:52Z</time>
      </trkpt>
      <trkpt lat="43.90247" lon="1.76301">
        <ele>242</ele>
        <time>2019-11-05T14:19:11Z</time>
      </trkpt>
      <trkpt lat="43.90238" lon="1.76275">
        <ele>243</ele>
        <time>2019-11-05T14:19:28Z</time>
      </trkpt>
      <trkpt lat="43.90229" lon="1.7626">
        <ele>243</ele>
        <time>2019-11-05T14:19:39Z</time>
      </trkpt>
      <trkpt lat="43.90184" lon="1.76212">
        <ele>244</ele>
        <time>2019-11-05T14:20:24Z</time>
      </trkpt>
      <trkpt lat="43.90153" lon="1.76185">
        <ele>244</ele>
        <time>2019-11-05T14:20:54Z</time>
      </trkpt>
      <trkpt lat="43.90133" lon="1.76164">
        <ele>244</ele>
        <time>2019-11-05T14:21:14Z</time>
      </trkpt>
      <trkpt lat="43.90103" lon="1.76141">
        <ele>243</ele>
        <time>2019-11-05T14:21:41Z</time>
      </trkpt>
      <trkpt lat="43.90072" lon="1.76122">
        <ele>243</ele>
        <time>2019-11-05T14:22:08Z</time>
      </trkpt>
      <trkpt lat="43.89989" lon="1.7608">
        <ele>241</ele>
        <time>2019-11-05T14:23:19Z</time>
      </trkpt>
      <trkpt lat="43.89964" lon="1.76062">
        <ele>241</ele>
        <time>2019-11-05T14:23:42Z</time>
      </trkpt>
      <trkpt lat="43.89947" lon="1.76043">
        <ele>241</ele>
        <time>2019-11-05T14:23:59Z</time>
      </trkpt>
      <trkpt lat="43.89937" lon="1.76026">
        <ele>241</ele>
        <time>2019-11-05T14:24:12Z</time>
      </trkpt>
      <trkpt lat="43.89913" lon="1.7596">
        <ele>244</ele>
        <time>2019-11-05T14:24:55Z</time>
      </trkpt>
      <trkpt lat="43.89892" lon="1.75885">
        <ele>246</ele>
        <time>2019-11-05T14:25:41Z</time>
      </trkpt>
      <trkpt lat="43.89871" lon="1.75821">
        <ele>246</ele>
        <time>2019-11-05T14:26:22Z</time>
      </trkpt>
      <trkpt lat="43.89842" lon="1.75791">
        <ele>246</ele>
        <time>2019-11-05T14:26:50Z</time>
      </trkpt>
      <trkpt lat="43.89805" lon="1.75727">
        <ele>243</ele>
        <time>2019-11-05T14:27:38Z</time>
      </trkpt>
      <trkpt lat="43.8978" lon="1.75704">
        <ele>242</ele>
        <time>2019-11-05T14:28:02Z</time>
      </trkpt>
      <trkpt lat="43.89769" lon="1.75697">
        <ele>242</ele>
        <time>2019-11-05T14:28:12Z</time>
      </trkpt>
      <trkpt lat="43.89769" lon="1.7564">
        <ele>243</ele>
        <time>2019-11-05T14:28:44Z</time>
      </trkpt>
      <trkpt lat="43.89758" lon="1.75514">
        <ele>241</ele>
        <time>2019-11-05T14:29:58Z</time>
      </trkpt>
      <trkpt lat="43.89758" lon="1.75465">
        <ele>239</ele>
        <time>2019-11-05T14:30:26Z</time>
      </trkpt>
      <trkpt lat="43.89765" lon="1.7542">
        <ele>237</ele>
        <time>2019-11-05T14:30:52Z</time>
      </trkpt>
      <trkpt lat="43.89771" lon="1.75403">
        <ele>236</ele>
        <time>2019-11-05T14:31:03Z</time>
      </trkpt>
      <trkpt lat="43.89832" lon="1.75298">
        <ele>235</ele>
        <time>2019-11-05T14:32:21Z</time>
      </trkpt>
      <trkpt lat="43.89849" lon="1.7525">
        <ele>232</ele>
        <time>2019-11-05T14:32:52Z</time>
      </trkpt>
      <trkpt lat="43.89859" lon="1.7521">
        <ele>228</ele>
        <time>2019-11-05T14:33:17Z</time>
      </trkpt>
      <trkpt lat="43.89871" lon="1.75183">
        <ele>226</ele>
        <time>2019-11-05T14:33:35Z</time>
      </trkpt>
      <trkpt lat="43.89965" lon="1.75013">
        <ele>220</ele>
        <time>2019-11-05T14:35:38Z</time>
      </trkpt>
      <trkpt lat="43.89982" lon="1.74976">
        <ele>220</ele>
        <time>2019-11-05T14:36:04Z</time>
      </trkpt>
      <trkpt lat="43.90126" lon="1.74609">
        <ele>217</ele>
        <time>2019-11-05T14:40:05Z</time>
      </trkpt>
      <trkpt lat="43.9013" lon="1.74591">
        <ele>216</ele>
        <time>2019-11-05T14:40:16Z</time>
      </trkpt>
      <trkpt lat="43.9013" lon="1.7456">
        <ele>215</ele>
        <time>2019-11-05T14:40:34Z</time>
      </trkpt>
      <trkpt lat="43.90126" lon="1.74535">
        <ele>215</ele>
        <time>2019-11-05T14:40:48Z</time>
      </trkpt>
      <trkpt lat="43.90111" lon="1.74486">
        <ele>215</ele>
        <time>2019-11-05T14:41:19Z</time>
      </trkpt>
      <trkpt lat="43.90105" lon="1.74447">
        <ele>215</ele>
        <time>2019-11-05T14:41:42Z</time>
      </trkpt>
      <trkpt lat="43.90115" lon="1.74361">
        <ele>211</ele>
        <time>2019-11-05T14:42:32Z</time>
      </trkpt>
      <trkpt lat="43.90114" lon="1.74342">
        <ele>211</ele>
        <time>2019-11-05T14:42:43Z</time>
      </trkpt>
      <trkpt lat="43.90123" lon="1.74335">
        <ele>210</ele>
        <time>2019-11-05T14:42:52Z</time>
      </trkpt>
      <trkpt lat="43.90128" lon="1.74319">
        <ele>210</ele>
        <time>2019-11-05T14:43:02Z</time>
      </trkpt>
      <trkpt lat="43.90132" lon="1.74204">
        <ele>210</ele>
        <time>2019-11-05T14:44:08Z</time>
      </trkpt>
      <trkpt lat="43.90135" lon="1.74174">
        <ele>211</ele>
        <time>2019-11-05T14:44:26Z</time>
      </trkpt>
      <trkpt lat="43.90152" lon="1.74093">
        <ele>213</ele>
        <time>2019-11-05T14:45:14Z</time>
      </trkpt>
      <trkpt lat="43.9016" lon="1.74071">
        <ele>214</ele>
        <time>2019-11-05T14:45:28Z</time>
      </trkpt>
      <trkpt lat="43.90187" lon="1.7402">
        <ele>211</ele>
        <time>2019-11-05T14:46:05Z</time>
      </trkpt>
      <trkpt lat="43.90219" lon="1.73971">
        <ele>209</ele>
        <time>2019-11-05T14:46:43Z</time>
      </trkpt>
      <trkpt lat="43.90283" lon="1.73903">
        <ele>206</ele>
        <time>2019-11-05T14:47:48Z</time>
      </trkpt>
      <trkpt lat="43.90315" lon="1.73881">
        <ele>204</ele>
        <time>2019-11-05T14:48:16Z</time>
      </trkpt>
      <trkpt lat="43.90336" lon="1.73863">
        <ele>203</ele>
        <time>2019-11-05T14:48:36Z</time>
      </trkpt>
      <trkpt lat="43.90396" lon="1.73787">
        <ele>197</ele>
        <time>2019-11-05T14:49:41Z</time>
      </trkpt>
      <trkpt lat="43.90448" lon="1.73714">
        <ele>194</ele>
        <time>2019-11-05T14:50:40Z</time>
      </trkpt>
      <trkpt lat="43.90474" lon="1.73641">
        <ele>189</ele>
        <time>2019-11-05T14:51:27Z</time>
      </trkpt>
      <trkpt lat="43.90485" lon="1.73621">
        <ele>187</ele>
        <time>2019-11-05T14:51:42Z</time>
      </trkpt>
      <trkpt lat="43.90536" lon="1.73573">
        <ele>183</ele>
        <time>2019-11-05T14:52:31Z</time>
      </trkpt>
      <trkpt lat="43.90557" lon="1.73566">
        <ele>182</ele>
        <time>2019-11-05T14:52:48Z</time>
      </trkpt>
      <trkpt lat="43.90595" lon="1.73563">
        <ele>180</ele>
        <time>2019-11-05T14:53:19Z</time>
      </trkpt>
      <trkpt lat="43.90614" lon="1.73559">
        <ele>179</ele>
        <time>2019-11-05T14:53:34Z</time>
      </trkpt>
      <trkpt lat="43.9068" lon="1.73541">
        <ele>176</ele>
        <time>2019-11-05T14:54:28Z</time>
      </trkpt>
      <trkpt lat="43.90721" lon="1.73536">
        <ele>175</ele>
        <time>2019-11-05T14:55:01Z</time>
      </trkpt>
      <trkpt lat="43.90749" lon="1.73539">
        <ele>174</ele>
        <time>2019-11-05T14:55:24Z</time>
      </trkpt>
      <trkpt lat="43.90775" lon="1.73551">
        <ele>174</ele>
        <time>2019-11-05T14:55:45Z</time>
      </trkpt>
      <trkpt lat="43.90797" lon="1.73566">
        <ele>173</ele>
        <time>2019-11-05T14:56:05Z</time>
      </trkpt>
      <trkpt lat="43.90814" lon="1.73583">
        <ele>173</ele>
        <time>2019-11-05T14:56:22Z</time>
      </trkpt>
      <trkpt lat="43.90818" lon="1.7359">
        <ele>173</ele>
        <time>2019-11-05T14:56:27Z</time>
      </trkpt>
      <trkpt lat="43.90856" lon="1.73584">
        <ele>173</ele>
        <time>2019-11-05T14:56:58Z</time>
      </trkpt>
      <trkpt lat="43.90855" lon="1.73578">
        <ele>173</ele>
        <time>2019-11-05T14:57:01Z</time>
      </trkpt>
      <trkpt lat="43.90886" lon="1.73574">
        <ele>172</ele>
        <time>2019-11-05T14:57:26Z</time>
      </trkpt>
      <trkpt lat="43.90897" lon="1.73575">
        <ele>172</ele>
        <time>2019-11-05T14:57:35Z</time>
      </trkpt>
      <trkpt lat="43.90953" lon="1.73591">
        <ele>171</ele>
        <time>2019-11-05T14:58:21Z</time>
      </trkpt>
      <trkpt lat="43.90972" lon="1.73587">
        <ele>171</ele>
        <time>2019-11-05T14:58:36Z</time>
      </trkpt>
      <trkpt lat="43.90997" lon="1.73577">
        <ele>170</ele>
        <time>2019-11-05T14:58:57Z</time>
      </trkpt>
      <trkpt lat="43.91009" lon="1.7367">
        <ele>171</ele>
        <time>2019-11-05T14:59:51Z</time>
      </trkpt>
      <trkpt lat="43.91026" lon="1.73748">
        <ele>171</ele>
        <time>2019-11-05T15:00:38Z</time>
      </trkpt>
      <trkpt lat="43.91028" lon="1.73774">
        <ele>172</ele>
        <time>2019-11-05T15:00:54Z</time>
      </trkpt>
      <trkpt lat="43.9104" lon="1.73835">
        <ele>174</ele>
        <time>2019-11-05T15:01:30Z</time>
      </trkpt>
      <trkpt lat="43.91054" lon="1.73875">
        <ele>175</ele>
        <time>2019-11-05T15:01:56Z</time>
      </trkpt>
      <trkpt lat="43.91062" lon="1.73954">
        <ele>175</ele>
        <time>2019-11-05T15:02:42Z</time>
      </trkpt>
      <trkpt lat="43.91073" lon="1.74015">
        <ele>174</ele>
        <time>2019-11-05T15:03:18Z</time>
      </trkpt>
      <trkpt lat="43.91075" lon="1.74053">
        <ele>174</ele>
        <time>2019-11-05T15:03:40Z</time>
      </trkpt>
      <trkpt lat="43.91066" lon="1.74198">
        <ele>175</ele>
        <time>2019-11-05T15:05:04Z</time>
      </trkpt>
      <trkpt lat="43.91066" lon="1.74282">
        <ele>177</ele>
        <time>2019-11-05T15:05:52Z</time>
      </trkpt>
      <trkpt lat="43.91075" lon="1.74343">
        <ele>177</ele>
        <time>2019-11-05T15:06:28Z</time>
      </trkpt>
      <trkpt lat="43.91078" lon="1.74385">
        <ele>177</ele>
        <time>2019-11-05T15:06:53Z</time>
      </trkpt>
      <trkpt lat="43.91077" lon="1.74512">
        <ele>176</ele>
        <time>2019-11-05T15:08:06Z</time>
      </trkpt>
      <trkpt lat="43.91081" lon="1.7456">
        <ele>175</ele>
        <time>2019-11-05T15:08:34Z</time>
      </trkpt>
      <trkpt lat="43.91097" lon="1.74669">
        <ele>176</ele>
        <time>2019-11-05T15:09:38Z</time>
      </trkpt>
      <trkpt lat="43.91106" lon="1.74797">
        <ele>175</ele>
        <time>2019-11-05T15:10:52Z</time>
      </trkpt>
      <trkpt lat="43.91107" lon="1.74864">
        <ele>175</ele>
        <time>2019-11-05T15:11:31Z</time>
      </trkpt>
      <trkpt lat="43.91105" lon="1.74922">
        <ele>175</ele>
        <time>2019-11-05T15:12:04Z</time>
      </trkpt>
      <trkpt lat="43.91102" lon="1.74944">
        <ele>175</ele>
        <time>2019-11-05T15:12:17Z</time>
      </trkpt>
      <trkpt lat="43.9109" lon="1.74943">
        <ele>174</ele>
        <time>2019-11-05T15:12:27Z</time>
      </trkpt>
      <trkpt lat="43.91075" lon="1.74938">
        <ele>173</ele>
        <time>2019-11-05T15:12:39Z</time>
      </trkpt>
      <trkpt lat="43.9108" lon="1.74956">
        <ele>174</ele>
        <time>2019-11-05T15:12:50Z</time>
      </trkpt>
      <trkpt lat="43.91081" lon="1.74971">
        <ele>174</ele>
        <time>2019-11-05T15:12:59Z</time>
      </trkpt>
      <trkpt lat="43.91082" lon="1.75007">
        <ele>174</ele>
        <time>2019-11-05T15:13:20Z</time>
      </trkpt>
      <trkpt lat="43.91079" lon="1.75075">
        <ele>174</ele>
        <time>2019-11-05T15:13:59Z</time>
      </trkpt>
      <trkpt lat="43.91084" lon="1.75114">
        <ele>175</ele>
        <time>2019-11-05T15:14:22Z</time>
      </trkpt>
      <trkpt lat="43.91139" lon="1.75346">
        <ele>184</ele>
        <time>2019-11-05T15:16:43Z</time>
      </trkpt>
      <trkpt lat="43.91152" lon="1.75367">
        <ele>185</ele>
        <time>2019-11-05T15:16:59Z</time>
      </trkpt>
      <trkpt lat="43.91163" lon="1.75404">
        <ele>187</ele>
        <time>2019-11-05T15:17:22Z</time>
      </trkpt>
      <trkpt lat="43.91162" lon="1.75446">
        <ele>186</ele>
        <time>2019-11-05T15:17:46Z</time>
      </trkpt>
      <trkpt lat="43.91174" lon="1.75509">
        <ele>186</ele>
        <time>2019-11-05T15:18:24Z</time>
      </trkpt>
      <trkpt lat="43.91177" lon="1.75573">
        <ele>186</ele>
        <time>2019-11-05T15:19:01Z</time>
      </trkpt>
      <trkpt lat="43.91177" lon="1.75686">
        <ele>188</ele>
        <time>2019-11-05T15:20:06Z</time>
      </trkpt>
      <trkpt lat="43.91174" lon="1.75702">
        <ele>188</ele>
        <time>2019-11-05T15:20:15Z</time>
      </trkpt>
      <trkpt lat="43.91225" lon="1.75686">
        <ele>194</ele>
        <time>2019-11-05T15:20:57Z</time>
      </trkpt>
      <trkpt lat="43.91291" lon="1.75675">
        <ele>201</ele>
        <time>2019-11-05T15:21:50Z</time>
      </trkpt>
      <trkpt lat="43.91334" lon="1.75672">
        <ele>205</ele>
        <time>2019-11-05T15:22:25Z</time>
      </trkpt>
      <trkpt lat="43.91344" lon="1.75658">
        <ele>206</ele>
        <time>2019-11-05T15:22:36Z</time>
      </trkpt>
      <trkpt lat="43.9135" lon="1.75654">
        <ele>206</ele>
        <time>2019-11-05T15:22:42Z</time>
      </trkpt>
      <trkpt lat="43.9138" lon="1.75648">
        <ele>209</ele>
        <time>2019-11-05T15:23:06Z</time>
      </trkpt>
      <trkpt lat="43.91405" lon="1.75638">
        <ele>211</ele>
        <time>2019-11-05T15:23:27Z</time>
      </trkpt>
      <trkpt lat="43.9142" lon="1.75628">
        <ele>212</ele>
        <time>2019-11-05T15:23:40Z</time>
      </trkpt>
      <trkpt lat="43.91431" lon="1.75615">
        <ele>214</ele>
        <time>2019-11-05T15:23:52Z</time>
      </trkpt>
      <trkpt lat="43.91452" lon="1.75579">
        <ele>218</ele>
        <time>2019-11-05T15:24:18Z</time>
      </trkpt>
      <trkpt lat="43.91467" lon="1.75562">
        <ele>220</ele>
        <time>2019-11-05T15:24:34Z</time>
      </trkpt>
      <trkpt lat="43.91522" lon="1.75533">
        <ele>224</ele>
        <time>2019-11-05T15:25:21Z</time>
      </trkpt>
      <trkpt lat="43.91557" lon="1.7551">
        <ele>225</ele>
        <time>2019-11-05T15:25:52Z</time>
      </trkpt>
      <trkpt lat="43.91565" lon="1.75509">
        <ele>225</ele>
        <time>2019-11-05T15:25:58Z</time>
      </trkpt>
      <trkpt lat="43.91604" lon="1.7553">
        <ele>229</ele>
        <time>2019-11-05T15:26:32Z</time>
      </trkpt>
      <trkpt lat="43.9163" lon="1.7554">
        <ele>230</ele>
        <time>2019-11-05T15:26:53Z</time>
      </trkpt>
      <trkpt lat="43.91667" lon="1.7557">
        <ele>233</ele>
        <time>2019-11-05T15:27:28Z</time>
      </trkpt>
      <trkpt lat="43.91677" lon="1.75574">
        <ele>234</ele>
        <time>2019-11-05T15:27:36Z</time>
      </trkpt>
      <trkpt lat="43.91689" lon="1.75575">
        <ele>235</ele>
        <time>2019-11-05T15:27:46Z</time>
      </trkpt>
      <trkpt lat="43.91724" lon="1.75568">
        <ele>237</ele>
        <time>2019-11-05T15:28:14Z</time>
      </trkpt>
      <trkpt lat="43.91777" lon="1.75543">
        <ele>242</ele>
        <time>2019-11-05T15:28:59Z</time>
      </trkpt>
      <trkpt lat="43.91789" lon="1.7554">
        <ele>243</ele>
        <time>2019-11-05T15:29:09Z</time>
      </trkpt>
      <trkpt lat="43.91837" lon="1.75547">
        <ele>247</ele>
        <time>2019-11-05T15:29:47Z</time>
      </trkpt>
      <trkpt lat="43.91864" lon="1.75548">
        <ele>248</ele>
        <time>2019-11-05T15:30:09Z</time>
      </trkpt>
      <trkpt lat="43.91899" lon="1.75543">
        <ele>249</ele>
        <time>2019-11-05T15:30:37Z</time>
      </trkpt>
      <trkpt lat="43.91947" lon="1.75525">
        <ele>249</ele>
        <time>2019-11-05T15:31:17Z</time>
      </trkpt>
      <trkpt lat="43.92064" lon="1.7545">
        <ele>249</ele>
        <time>2019-11-05T15:33:00Z</time>
      </trkpt>
      <trkpt lat="43.92127" lon="1.75433">
        <ele>250</ele>
        <time>2019-11-05T15:33:51Z</time>
      </trkpt>
      <trkpt lat="43.92148" lon="1.75416">
        <ele>251</ele>
        <time>2019-11-05T15:34:11Z</time>
      </trkpt>
      <trkpt lat="43.9216" lon="1.7541">
        <ele>251</ele>
        <time>2019-11-05T15:34:21Z</time>
      </trkpt>
      <trkpt lat="43.92198" lon="1.75408">
        <ele>253</ele>
        <time>2019-11-05T15:34:52Z</time>
      </trkpt>
      <trkpt lat="43.92267" lon="1.75392">
        <ele>255</ele>
        <time>2019-11-05T15:35:48Z</time>
      </trkpt>
      <trkpt lat="43.92312" lon="1.75392">
        <ele>254</ele>
        <time>2019-11-05T15:36:24Z</time>
      </trkpt>
      <trkpt lat="43.9237" lon="1.75383">
        <ele>254</ele>
        <time>2019-11-05T15:37:10Z</time>
      </trkpt>
      <trkpt lat="43.92386" lon="1.75383">
        <ele>255</ele>
        <time>2019-11-05T15:37:23Z</time>
      </trkpt>
      <trkpt lat="43.92402" lon="1.75387">
        <ele>255</ele>
        <time>2019-11-05T15:37:36Z</time>
      </trkpt>
      <trkpt lat="43.92459" lon="1.75414">
        <ele>257</ele>
        <time>2019-11-05T15:38:24Z</time>
      </trkpt>
      <trkpt lat="43.92496" lon="1.75426">
        <ele>257</ele>
        <time>2019-11-05T15:38:55Z</time>
      </trkpt>
      <trkpt lat="43.92564" lon="1.75453">
        <ele>257</ele>
        <time>2019-11-05T15:39:51Z</time>
      </trkpt>
      <trkpt lat="43.92588" lon="1.75467">
        <ele>257</ele>
        <time>2019-11-05T15:40:12Z</time>
      </trkpt>
      <trkpt lat="43.92647" lon="1.75519">
        <ele>258</ele>
        <time>2019-11-05T15:41:08Z</time>
      </trkpt>
      <trkpt lat="43.92716" lon="1.75558">
        <ele>261</ele>
        <time>2019-11-05T15:42:08Z</time>
      </trkpt>
      <trkpt lat="43.92734" lon="1.75563">
        <ele>262</ele>
        <time>2019-11-05T15:42:23Z</time>
      </trkpt>
      <trkpt lat="43.92794" lon="1.75571">
        <ele>263</ele>
        <time>2019-11-05T15:43:11Z</time>
      </trkpt>
      <trkpt lat="43.92815" lon="1.75577">
        <ele>264</ele>
        <time>2019-11-05T15:43:28Z</time>
      </trkpt>
      <trkpt lat="43.92872" lon="1.75604">
        <ele>264</ele>
        <time>2019-11-05T15:44:16Z</time>
      </trkpt>
      <trkpt lat="43.92885" lon="1.75605">
        <ele>264</ele>
        <time>2019-11-05T15:44:27Z</time>
      </trkpt>
      <trkpt lat="43.92892" lon="1.75561">
        <ele>262</ele>
        <time>2019-11-05T15:44:53Z</time>
      </trkpt>
      <trkpt lat="43.92909" lon="1.75522">
        <ele>260</ele>
        <time>2019-11-05T15:45:19Z</time>
      </trkpt>
      <trkpt lat="43.92929" lon="1.75489">
        <ele>258</ele>
        <time>2019-11-05T15:45:44Z</time>
      </trkpt>
      <trkpt lat="43.92937" lon="1.7548">
        <ele>257</ele>
        <time>2019-11-05T15:45:52Z</time>
      </trkpt>
      <trkpt lat="43.92945" lon="1.75477">
        <ele>257</ele>
        <time>2019-11-05T15:45:59Z</time>
      </trkpt>
      <trkpt lat="43.92955" lon="1.75477">
        <ele>257</ele>
        <time>2019-11-05T15:46:07Z</time>
      </trkpt>
      <trkpt lat="43.92972" lon="1.75485">
        <ele>257</ele>
        <time>2019-11-05T15:46:21Z</time>
      </trkpt>
      <trkpt lat="43.92986" lon="1.75486">
        <ele>256</ele>
        <time>2019-11-05T15:46:32Z</time>
      </trkpt>
      <trkpt lat="43.92999" lon="1.75481">
        <ele>255</ele>
        <time>2019-11-05T15:46:43Z</time>
      </trkpt>
      <trkpt lat="43.93011" lon="1.75469">
        <ele>254</ele>
        <time>2019-11-05T15:46:55Z</time>
      </trkpt>
      <trkpt lat="43.93019" lon="1.75457">
        <ele>253</ele>
        <time>2019-11-05T15:47:04Z</time>
      </trkpt>
      <trkpt lat="43.93041" lon="1.75414">
        <ele>251</ele>
        <time>2019-11-05T15:47:35Z</time>
      </trkpt>
      <trkpt lat="43.93045" lon="1.75385">
        <ele>250</ele>
        <time>2019-11-05T15:47:52Z</time>
      </trkpt>
      <trkpt lat="43.93044" lon="1.75335">
        <ele>247</ele>
        <time>2019-11-05T15:48:21Z</time>
      </trkpt>
      <trkpt lat="43.93051" lon="1.75313">
        <ele>246</ele>
        <time>2019-11-05T15:48:35Z</time>
      </trkpt>
      <trkpt lat="43.93052" lon="1.75297">
        <ele>245</ele>
        <time>2019-11-05T15:48:44Z</time>
      </trkpt>
      <trkpt lat="43.93052" lon="1.75277">
        <ele>244</ele>
        <time>2019-11-05T15:48:55Z</time>
      </trkpt>
      <trkpt lat="43.93043" lon="1.75235">
        <ele>241</ele>
        <time>2019-11-05T15:49:21Z</time>
      </trkpt>
      <trkpt lat="43.93041" lon="1.75211">
        <ele>239</ele>
        <time>2019-11-05T15:49:35Z</time>
      </trkpt>
      <trkpt lat="43.93043" lon="1.7515">
        <ele>235</ele>
        <time>2019-11-05T15:50:10Z</time>
      </trkpt>
      <trkpt lat="43.93052" lon="1.75087">
        <ele>230</ele>
        <time>2019-11-05T15:50:47Z</time>
      </trkpt>
      <trkpt lat="43.93061" lon="1.75071">
        <ele>229</ele>
        <time>2019-11-05T15:50:58Z</time>
      </trkpt>
      <trkpt lat="43.9311" lon="1.75037">
        <ele>226</ele>
        <time>2019-11-05T15:51:42Z</time>
      </trkpt>
      <trkpt lat="43.93122" lon="1.75035">
        <ele>226</ele>
        <time>2019-11-05T15:51:52Z</time>
      </trkpt>
      <trkpt lat="43.9313" lon="1.75037">
        <ele>226</ele>
        <time>2019-11-05T15:51:59Z</time>
      </trkpt>
      <trkpt lat="43.93156" lon="1.75049">
        <ele>228</ele>
        <time>2019-11-05T15:52:20Z</time>
      </trkpt>
      <trkpt lat="43.93169" lon="1.75052">
        <ele>228</ele>
        <time>2019-11-05T15:52:31Z</time>
      </trkpt>
      <trkpt lat="43.93183" lon="1.75052">
        <ele>229</ele>
        <time>2019-11-05T15:52:42Z</time>
      </trkpt>
      <trkpt lat="43.93194" lon="1.75043">
        <ele>230</ele>
        <time>2019-11-05T15:52:52Z</time>
      </trkpt>
      <trkpt lat="43.93245" lon="1.75124">
        <ele>231</ele>
        <time>2019-11-05T15:53:54Z</time>
      </trkpt>
      <trkpt lat="43.93255" lon="1.75136">
        <ele>231</ele>
        <time>2019-11-05T15:54:05Z</time>
      </trkpt>
      <trkpt lat="43.93288" lon="1.75162">
        <ele>233</ele>
        <time>2019-11-05T15:54:35Z</time>
      </trkpt>
      <trkpt lat="43.93306" lon="1.75181">
        <ele>234</ele>
        <time>2019-11-05T15:54:54Z</time>
      </trkpt>
      <trkpt lat="43.93351" lon="1.75254">
        <ele>230</ele>
        <time>2019-11-05T15:55:49Z</time>
      </trkpt>
      <trkpt lat="43.93358" lon="1.75261">
        <ele>230</ele>
        <time>2019-11-05T15:55:56Z</time>
      </trkpt>
      <trkpt lat="43.93374" lon="1.75258">
        <ele>231</ele>
        <time>2019-11-05T15:56:09Z</time>
      </trkpt>
      <trkpt lat="43.93384" lon="1.75261">
        <ele>231</ele>
        <time>2019-11-05T15:56:17Z</time>
      </trkpt>
      <trkpt lat="43.93409" lon="1.75263">
        <ele>231</ele>
        <time>2019-11-05T15:56:37Z</time>
      </trkpt>
      <trkpt lat="43.93485" lon="1.75264">
        <ele>245</ele>
        <time>2019-11-05T15:57:38Z</time>
      </trkpt>
      <trkpt lat="43.9349" lon="1.75255">
        <ele>247</ele>
        <time>2019-11-05T15:57:44Z</time>
      </trkpt>
      <trkpt lat="43.93494" lon="1.75235">
        <ele>246</ele>
        <time>2019-11-05T15:57:56Z</time>
      </trkpt>
      <trkpt lat="43.93502" lon="1.7522">
        <ele>246</ele>
        <time>2019-11-05T15:58:07Z</time>
      </trkpt>
      <trkpt lat="43.93507" lon="1.75194">
        <ele>244</ele>
        <time>2019-11-05T15:58:23Z</time>
      </trkpt>
      <trkpt lat="43.93507" lon="1.75154">
        <ele>240</ele>
        <time>2019-11-05T15:58:46Z</time>
      </trkpt>
      <trkpt lat="43.93513" lon="1.75138">
        <ele>240</ele>
        <time>2019-11-05T15:58:56Z</time>
      </trkpt>
      <trkpt lat="43.93515" lon="1.75119">
        <ele>240</ele>
        <time>2019-11-05T15:59:07Z</time>
      </trkpt>
      <trkpt lat="43.93528" lon="1.75087">
        <ele>239</ele>
        <time>2019-11-05T15:59:28Z</time>
      </trkpt>
      <trkpt lat="43.93563" lon="1.75053">
        <ele>241</ele>
        <time>2019-11-05T16:00:03Z</time>
      </trkpt>
      <trkpt lat="43.93572" lon="1.75041">
        <ele>242</ele>
        <time>2019-11-05T16:00:13Z</time>
      </trkpt>
      <trkpt lat="43.93586" lon="1.75029">
        <ele>243</ele>
        <time>2019-11-05T16:00:26Z</time>
      </trkpt>
      <trkpt lat="43.93597" lon="1.75023">
        <ele>243</ele>
        <time>2019-11-05T16:00:35Z</time>
      </trkpt>
      <trkpt lat="43.93655" lon="1.74997">
        <ele>243</ele>
        <time>2019-11-05T16:01:24Z</time>
      </trkpt>
      <trkpt lat="43.9366" lon="1.74995">
        <ele>244</ele>
        <time>2019-11-05T16:01:28Z</time>
      </trkpt>
      <trkpt lat="43.93677" lon="1.74995">
        <ele>244</ele>
        <time>2019-11-05T16:01:42Z</time>
      </trkpt>
      <trkpt lat="43.937" lon="1.74988">
        <ele>245</ele>
        <time>2019-11-05T16:02:01Z</time>
      </trkpt>
      <trkpt lat="43.93722" lon="1.74973">
        <ele>247</ele>
        <time>2019-11-05T16:02:20Z</time>
      </trkpt>
      <trkpt lat="43.93741" lon="1.74951">
        <ele>249</ele>
        <time>2019-11-05T16:02:40Z</time>
      </trkpt>
      <trkpt lat="43.93763" lon="1.74951">
        <ele>250</ele>
        <time>2019-11-05T16:02:58Z</time>
      </trkpt>
      <trkpt lat="43.93772" lon="1.74959">
        <ele>251</ele>
        <time>2019-11-05T16:03:06Z</time>
      </trkpt>
      <trkpt lat="43.93783" lon="1.74974">
        <ele>252</ele>
        <time>2019-11-05T16:03:19Z</time>
      </trkpt>
      <trkpt lat="43.93793" lon="1.7498">
        <ele>254</ele>
        <time>2019-11-05T16:03:27Z</time>
      </trkpt>
      <trkpt lat="43.93801" lon="1.7498">
        <ele>255</ele>
        <time>2019-11-05T16:03:34Z</time>
      </trkpt>
      <trkpt lat="43.93831" lon="1.74923">
        <ele>255</ele>
        <time>2019-11-05T16:04:14Z</time>
      </trkpt>
      <trkpt lat="43.93835" lon="1.74818">
        <ele>256</ele>
        <time>2019-11-05T16:05:15Z</time>
      </trkpt>
      <trkpt lat="43.9384" lon="1.74795">
        <ele>259</ele>
        <time>2019-11-05T16:05:29Z</time>
      </trkpt>
      <trkpt lat="43.9384" lon="1.74774">
        <ele>260</ele>
        <time>2019-11-05T16:05:41Z</time>
      </trkpt>
      <trkpt lat="43.93875" lon="1.74731">
        <ele>264</ele>
        <time>2019-11-05T16:06:18Z</time>
      </trkpt>
      <trkpt lat="43.93875" lon="1.74719">
        <ele>265</ele>
        <time>2019-11-05T16:06:25Z</time>
      </trkpt>
      <trkpt lat="43.93887" lon="1.74687">
        <ele>267</ele>
        <time>2019-11-05T16:06:46Z</time>
      </trkpt>
      <trkpt lat="43.93903" lon="1.74661">
        <ele>268</ele>
        <time>2019-11-05T16:07:06Z</time>
      </trkpt>
      <trkpt lat="43.93945" lon="1.74605">
        <ele>266</ele>
        <time>2019-11-05T16:07:52Z</time>
      </trkpt>
      <trkpt lat="43.93931" lon="1.74736">
        <ele>262</ele>
        <time>2019-11-05T16:09:09Z</time>
      </trkpt>
      <trkpt lat="43.93931" lon="1.74891">
        <ele>266</ele>
        <time>2019-11-05T16:10:38Z</time>
      </trkpt>
      <trkpt lat="43.9398" lon="1.7491">
        <ele>268</ele>
        <time>2019-11-05T16:11:19Z</time>
      </trkpt>
      <trkpt lat="43.94001" lon="1.74913">
        <ele>269</ele>
        <time>2019-11-05T16:11:36Z</time>
      </trkpt>
      <trkpt lat="43.94165" lon="1.74924">
        <ele>266</ele>
        <time>2019-11-05T16:13:47Z</time>
      </trkpt>
      <trkpt lat="43.9421" lon="1.74918">
        <ele>264</ele>
        <time>2019-11-05T16:14:24Z</time>
      </trkpt>
      <trkpt lat="43.9423" lon="1.7491">
        <ele>263</ele>
        <time>2019-11-05T16:14:40Z</time>
      </trkpt>
      <trkpt lat="43.943" lon="1.74899">
        <ele>260</ele>
        <time>2019-11-05T16:15:37Z</time>
      </trkpt>
      <trkpt lat="43.94318" lon="1.74891">
        <ele>259</ele>
        <time>2019-11-05T16:15:52Z</time>
      </trkpt>
      <trkpt lat="43.94359" lon="1.74868">
        <ele>258</ele>
        <time>2019-11-05T16:16:27Z</time>
      </trkpt>
      <trkpt lat="43.94379" lon="1.74851">
        <ele>258</ele>
        <time>2019-11-05T16:16:46Z</time>
      </trkpt>
      <trkpt lat="43.94391" lon="1.74837">
        <ele>258</ele>
        <time>2019-11-05T16:16:58Z</time>
      </trkpt>
      <trkpt lat="43.9443" lon="1.74776">
        <ele>254</ele>
        <time>2019-11-05T16:17:45Z</time>
      </trkpt>
      <trkpt lat="43.94495" lon="1.74682">
        <ele>252</ele>
        <time>2019-11-05T16:19:01Z</time>
      </trkpt>
      <trkpt lat="43.94526" lon="1.74601">
        <ele>250</ele>
        <time>2019-11-05T16:19:53Z</time>
      </trkpt>
      <trkpt lat="43.94535" lon="1.74583">
        <ele>251</ele>
        <time>2019-11-05T16:20:06Z</time>
      </trkpt>
      <trkpt lat="43.94549" lon="1.74564">
        <ele>250</ele>
        <time>2019-11-05T16:20:22Z</time>
      </trkpt>
      <trkpt lat="43.94617" lon="1.74501">
        <ele>253</ele>
        <time>2019-11-05T16:21:27Z</time>
      </trkpt>
      <trkpt lat="43.94668" lon="1.74449">
        <ele>255</ele>
        <time>2019-11-05T16:22:18Z</time>
      </trkpt>
      <trkpt lat="43.94712" lon="1.74377">
        <ele>253</ele>
        <time>2019-11-05T16:23:12Z</time>
      </trkpt>
      <trkpt lat="43.94727" lon="1.74361">
        <ele>254</ele>
        <time>2019-11-05T16:23:27Z</time>
      </trkpt>
      <trkpt lat="43.94753" lon="1.74339">
        <ele>256</ele>
        <time>2019-11-05T16:23:52Z</time>
      </trkpt>
      <trkpt lat="43.94779" lon="1.74327">
        <ele>253</ele>
        <time>2019-11-05T16:24:14Z</time>
      </trkpt>
      <trkpt lat="43.94799" lon="1.74321">
        <ele>251</ele>
        <time>2019-11-05T16:24:30Z</time>
      </trkpt>
      <trkpt lat="43.94849" lon="1.74313">
        <ele>248</ele>
        <time>2019-11-05T16:25:10Z</time>
      </trkpt>
      <trkpt lat="43.9496" lon="1.74318">
        <ele>246</ele>
        <time>2019-11-05T16:26:39Z</time>
      </trkpt>
      <trkpt lat="43.94984" lon="1.74318">
        <ele>246</ele>
        <time>2019-11-05T16:26:59Z</time>
      </trkpt>
      <trkpt lat="43.95033" lon="1.74313">
        <ele>242</ele>
        <time>2019-11-05T16:27:38Z</time>
      </trkpt>
      <trkpt lat="43.95098" lon="1.74322">
        <ele>236</ele>
        <time>2019-11-05T16:28:30Z</time>
      </trkpt>
      <trkpt lat="43.95125" lon="1.7432">
        <ele>236</ele>
        <time>2019-11-05T16:28:52Z</time>
      </trkpt>
      <trkpt lat="43.95142" lon="1.74309">
        <ele>236</ele>
        <time>2019-11-05T16:29:07Z</time>
      </trkpt>
      <trkpt lat="43.95187" lon="1.74271">
        <ele>235</ele>
        <time>2019-11-05T16:29:49Z</time>
      </trkpt>
      <trkpt lat="43.95207" lon="1.74258">
        <ele>236</ele>
        <time>2019-11-05T16:30:07Z</time>
      </trkpt>
      <trkpt lat="43.95283" lon="1.7422">
        <ele>234</ele>
        <time>2019-11-05T16:31:11Z</time>
      </trkpt>
      <trkpt lat="43.95307" lon="1.74213">
        <ele>235</ele>
        <time>2019-11-05T16:31:31Z</time>
      </trkpt>
      <trkpt lat="43.95316" lon="1.74214">
        <ele>235</ele>
        <time>2019-11-05T16:31:38Z</time>
      </trkpt>
      <trkpt lat="43.95322" lon="1.74112">
        <ele>230</ele>
        <time>2019-11-05T16:32:37Z</time>
      </trkpt>
      <trkpt lat="43.95328" lon="1.74075">
        <ele>227</ele>
        <time>2019-11-05T16:32:59Z</time>
      </trkpt>
      <trkpt lat="43.95401" lon="1.73864">
        <ele>185</ele>
        <time>2019-11-05T16:35:14Z</time>
      </trkpt>
      <trkpt lat="43.95441" lon="1.73776">
        <ele>176</ele>
        <time>2019-11-05T16:36:14Z</time>
      </trkpt>
      <trkpt lat="43.95453" lon="1.73782">
        <ele>175</ele>
        <time>2019-11-05T16:36:24Z</time>
      </trkpt>
      <trkpt lat="43.95463" lon="1.73784">
        <ele>175</ele>
        <time>2019-11-05T16:36:32Z</time>
      </trkpt>
      <trkpt lat="43.95638" lon="1.73778">
        <ele>184</ele>
        <time>2019-11-05T16:38:53Z</time>
      </trkpt>
      <trkpt lat="43.95778" lon="1.73765">
        <ele>197</ele>
        <time>2019-11-05T16:40:45Z</time>
      </trkpt>
      <trkpt lat="43.95811" lon="1.73773">
        <ele>198</ele>
        <time>2019-11-05T16:41:12Z</time>
      </trkpt>
      <trkpt lat="43.95823" lon="1.73764">
        <ele>198</ele>
        <time>2019-11-05T16:41:23Z</time>
      </trkpt>
      <trkpt lat="43.95869" lon="1.73797">
        <ele>196</ele>
        <time>2019-11-05T16:42:04Z</time>
      </trkpt>
      <trkpt lat="43.95922" lon="1.73814">
        <ele>194</ele>
        <time>2019-11-05T16:42:48Z</time>
      </trkpt>
      <trkpt lat="43.95952" lon="1.73838">
        <ele>193</ele>
        <time>2019-11-05T16:43:15Z</time>
      </trkpt>
      <trkpt lat="43.95959" lon="1.73826">
        <ele>193</ele>
        <time>2019-11-05T16:43:24Z</time>
      </trkpt>
      <trkpt lat="43.95965" lon="1.73805">
        <ele>191</ele>
        <time>2019-11-05T16:43:37Z</time>
      </trkpt>
      <trkpt lat="43.95978" lon="1.73812">
        <ele>191</ele>
        <time>2019-11-05T16:43:48Z</time>
      </trkpt>
      <trkpt lat="43.95983" lon="1.73812">
        <ele>191</ele>
        <time>2019-11-05T16:43:52Z</time>
      </trkpt>
      <trkpt lat="43.95993" lon="1.73793">
        <ele>189</ele>
        <time>2019-11-05T16:44:06Z</time>
      </trkpt>
      <trkpt lat="43.96004" lon="1.73794">
        <ele>188</ele>
        <time>2019-11-05T16:44:15Z</time>
      </trkpt>
      <trkpt lat="43.96019" lon="1.73777">
        <ele>184</ele>
        <time>2019-11-05T16:44:30Z</time>
      </trkpt>
      <trkpt lat="43.96019" lon="1.73756">
        <ele>182</ele>
        <time>2019-11-05T16:44:42Z</time>
      </trkpt>
      <trkpt lat="43.96015" lon="1.73737">
        <ele>182</ele>
        <time>2019-11-05T16:44:54Z</time>
      </trkpt>
      <trkpt lat="43.96016" lon="1.73698">
        <ele>180</ele>
        <time>2019-11-05T16:45:16Z</time>
      </trkpt>
      <trkpt lat="43.9602" lon="1.73689">
        <ele>179</ele>
        <time>2019-11-05T16:45:22Z</time>
      </trkpt>
      <trkpt lat="43.96031" lon="1.73678">
        <ele>176</ele>
        <time>2019-11-05T16:45:33Z</time>
      </trkpt>
      <trkpt lat="43.96045" lon="1.73671">
        <ele>174</ele>
        <time>2019-11-05T16:45:45Z</time>
      </trkpt>
      <trkpt lat="43.96071" lon="1.7365">
        <ele>168</ele>
        <time>2019-11-05T16:46:09Z</time>
      </trkpt>
      <trkpt lat="43.96074" lon="1.73641">
        <ele>167</ele>
        <time>2019-11-05T16:46:15Z</time>
      </trkpt>
      <trkpt lat="43.96084" lon="1.73559">
        <ele>163</ele>
        <time>2019-11-05T16:47:03Z</time>
      </trkpt>
      <trkpt lat="43.96089" lon="1.73541">
        <ele>162</ele>
        <time>2019-11-05T16:47:14Z</time>
      </trkpt>
      <trkpt lat="43.96102" lon="1.73516">
        <ele>160</ele>
        <time>2019-11-05T16:47:32Z</time>
      </trkpt>
      <trkpt lat="43.96128" lon="1.7344">
        <ele>156</ele>
        <time>2019-11-05T16:48:20Z</time>
      </trkpt>
      <trkpt lat="43.96151" lon="1.73387">
        <ele>153</ele>
        <time>2019-11-05T16:48:56Z</time>
      </trkpt>
      <trkpt lat="43.96184" lon="1.73293">
        <ele>151</ele>
        <time>2019-11-05T16:49:56Z</time>
      </trkpt>
      <trkpt lat="43.9617" lon="1.73216">
        <ele>151</ele>
        <time>2019-11-05T16:50:42Z</time>
      </trkpt>
      <trkpt lat="43.9616" lon="1.73136">
        <ele>151</ele>
        <time>2019-11-05T16:51:29Z</time>
      </trkpt>
      <trkpt lat="43.96148" lon="1.73099">
        <ele>151</ele>
        <time>2019-11-05T16:51:52Z</time>
      </trkpt>
      <trkpt lat="43.96135" lon="1.73069">
        <ele>152</ele>
        <time>2019-11-05T16:52:12Z</time>
      </trkpt>
      <trkpt lat="43.96129" lon="1.73045">
        <ele>154</ele>
        <time>2019-11-05T16:52:27Z</time>
      </trkpt>
      <trkpt lat="43.96127" lon="1.7303">
        <ele>155</ele>
        <time>2019-11-05T16:52:36Z</time>
      </trkpt>
      <trkpt lat="43.96129" lon="1.72983">
        <ele>157</ele>
        <time>2019-11-05T16:53:03Z</time>
      </trkpt>
      <trkpt lat="43.96125" lon="1.72974">
        <ele>157</ele>
        <time>2019-11-05T16:53:09Z</time>
      </trkpt>
      <trkpt lat="43.96115" lon="1.72893">
        <ele>163</ele>
        <time>2019-11-05T16:53:56Z</time>
      </trkpt>
      <trkpt lat="43.96106" lon="1.72874">
        <ele>167</ele>
        <time>2019-11-05T16:54:10Z</time>
      </trkpt>
      <trkpt lat="43.96084" lon="1.72855">
        <ele>171</ele>
        <time>2019-11-05T16:54:30Z</time>
      </trkpt>
      <trkpt lat="43.96079" lon="1.72847">
        <ele>172</ele>
        <time>2019-11-05T16:54:36Z</time>
      </trkpt>
      <trkpt lat="43.96061" lon="1.72769">
        <ele>178</ele>
        <time>2019-11-05T16:55:24Z</time>
      </trkpt>
      <trkpt lat="43.96062" lon="1.72761">
        <ele>179</ele>
        <time>2019-11-05T16:55:28Z</time>
      </trkpt>
      <trkpt lat="43.96073" lon="1.72741">
        <ele>182</ele>
        <time>2019-11-05T16:55:43Z</time>
      </trkpt>
      <trkpt lat="43.96113" lon="1.72735">
        <ele>184</ele>
        <time>2019-11-05T16:56:15Z</time>
      </trkpt>
      <trkpt lat="43.96145" lon="1.7271">
        <ele>187</ele>
        <time>2019-11-05T16:56:44Z</time>
      </trkpt>
      <trkpt lat="43.96155" lon="1.72698">
        <ele>188</ele>
        <time>2019-11-05T16:56:55Z</time>
      </trkpt>
      <trkpt lat="43.96155" lon="1.72689">
        <ele>189</ele>
        <time>2019-11-05T16:57:00Z</time>
      </trkpt>
      <trkpt lat="43.96144" lon="1.72674">
        <ele>190</ele>
        <time>2019-11-05T16:57:12Z</time>
      </trkpt>
      <trkpt lat="43.96136" lon="1.72614">
        <ele>197</ele>
        <time>2019-11-05T16:57:48Z</time>
      </trkpt>
      <trkpt lat="43.96126" lon="1.72566">
        <ele>204</ele>
        <time>2019-11-05T16:58:16Z</time>
      </trkpt>
      <trkpt lat="43.96122" lon="1.7256">
        <ele>206</ele>
        <time>2019-11-05T16:58:21Z</time>
      </trkpt>
      <trkpt lat="43.96131" lon="1.72551">
        <ele>207</ele>
        <time>2019-11-05T16:58:30Z</time>
      </trkpt>
      <trkpt lat="43.96176" lon="1.72523">
        <ele>211</ele>
        <time>2019-11-05T16:59:10Z</time>
      </trkpt>
      <trkpt lat="43.96181" lon="1.72516">
        <ele>212</ele>
        <time>2019-11-05T16:59:15Z</time>
      </trkpt>
      <trkpt lat="43.9619" lon="1.72472">
        <ele>217</ele>
        <time>2019-11-05T16:59:42Z</time>
      </trkpt>
      <trkpt lat="43.96194" lon="1.72442">
        <ele>220</ele>
        <time>2019-11-05T16:59:59Z</time>
      </trkpt>
      <trkpt lat="43.96195" lon="1.72411">
        <ele>222</ele>
        <time>2019-11-05T17:00:17Z</time>
      </trkpt>
      <trkpt lat="43.96189" lon="1.72397">
        <ele>223</ele>
        <time>2019-11-05T17:00:26Z</time>
      </trkpt>
      <trkpt lat="43.96155" lon="1.72384">
        <ele>227</ele>
        <time>2019-11-05T17:00:55Z</time>
      </trkpt>
      <trkpt lat="43.96103" lon="1.72369">
        <ele>231</ele>
        <time>2019-11-05T17:01:37Z</time>
      </trkpt>
      <trkpt lat="43.96094" lon="1.72363">
        <ele>231</ele>
        <time>2019-11-05T17:01:45Z</time>
      </trkpt>
      <trkpt lat="43.96084" lon="1.72352">
        <ele>232</ele>
        <time>2019-11-05T17:01:55Z</time>
      </trkpt>
      <trkpt lat="43.96077" lon="1.7233">
        <ele>232</ele>
        <time>2019-11-05T17:02:09Z</time>
      </trkpt>
      <trkpt lat="43.96076" lon="1.72249">
        <ele>234</ele>
        <time>2019-11-05T17:02:56Z</time>
      </trkpt>
      <trkpt lat="43.96079" lon="1.72206">
        <ele>238</ele>
        <time>2019-11-05T17:03:21Z</time>
      </trkpt>
      <trkpt lat="43.96085" lon="1.72167">
        <ele>242</ele>
        <time>2019-11-05T17:03:44Z</time>
      </trkpt>
      <trkpt lat="43.96088" lon="1.72092">
        <ele>243</ele>
        <time>2019-11-05T17:04:27Z</time>
      </trkpt>
      <trkpt lat="43.96079" lon="1.71985">
        <ele>245</ele>
        <time>2019-11-05T17:05:29Z</time>
      </trkpt>
      <trkpt lat="43.9608" lon="1.71822">
        <ele>246</ele>
        <time>2019-11-05T17:07:03Z</time>
      </trkpt>
      <trkpt lat="43.96073" lon="1.71762">
        <ele>250</ele>
        <time>2019-11-05T17:07:38Z</time>
      </trkpt>
      <trkpt lat="43.96064" lon="1.71742">
        <ele>250</ele>
        <time>2019-11-05T17:07:52Z</time>
      </trkpt>
      <trkpt lat="43.95997" lon="1.71637">
        <ele>250</ele>
        <time>2019-11-05T17:09:13Z</time>
      </trkpt>
      <trkpt lat="43.95972" lon="1.71624">
        <ele>249</ele>
        <time>2019-11-05T17:09:34Z</time>
      </trkpt>
      <trkpt lat="43.95939" lon="1.71621">
        <ele>249</ele>
        <time>2019-11-05T17:10:01Z</time>
      </trkpt>
      <trkpt lat="43.95923" lon="1.71623">
        <ele>249</ele>
        <time>2019-11-05T17:10:13Z</time>
      </trkpt>
      <trkpt lat="43.95881" lon="1.71647">
        <ele>249</ele>
        <time>2019-11-05T17:10:50Z</time>
      </trkpt>
      <trkpt lat="43.95825" lon="1.71651">
        <ele>250</ele>
        <time>2019-11-05T17:11:35Z</time>
      </trkpt>
      <trkpt lat="43.95841" lon="1.71621">
        <ele>249</ele>
        <time>2019-11-05T17:11:56Z</time>
      </trkpt>
      <trkpt lat="43.95868" lon="1.71561">
        <ele>248</ele>
        <time>2019-11-05T17:12:37Z</time>
      </trkpt>
      <trkpt lat="43.9588" lon="1.71517">
        <ele>247</ele>
        <time>2019-11-05T17:13:04Z</time>
      </trkpt>
      <trkpt lat="43.95899" lon="1.71474">
        <ele>247</ele>
        <time>2019-11-05T17:13:33Z</time>
      </trkpt>
      <trkpt lat="43.95921" lon="1.71457">
        <ele>247</ele>
        <time>2019-11-05T17:13:53Z</time>
      </trkpt>
      <trkpt lat="43.95962" lon="1.71436">
        <ele>246</ele>
        <time>2019-11-05T17:14:28Z</time>
      </trkpt>
      <trkpt lat="43.96056" lon="1.71394">
        <ele>244</ele>
        <time>2019-11-05T17:15:47Z</time>
      </trkpt>
      <trkpt lat="43.96096" lon="1.71384">
        <ele>245</ele>
        <time>2019-11-05T17:16:20Z</time>
      </trkpt>
      <trkpt lat="43.96107" lon="1.71383">
        <ele>245</ele>
        <time>2019-11-05T17:16:29Z</time>
      </trkpt>
      <trkpt lat="43.9614" lon="1.71392">
        <ele>245</ele>
        <time>2019-11-05T17:16:56Z</time>
      </trkpt>
      <trkpt lat="43.96184" lon="1.71395">
        <ele>246</ele>
        <time>2019-11-05T17:17:31Z</time>
      </trkpt>
      <trkpt lat="43.96291" lon="1.71387">
        <ele>248</ele>
        <time>2019-11-05T17:18:57Z</time>
      </trkpt>
      <trkpt lat="43.96358" lon="1.71378">
        <ele>245</ele>
        <time>2019-11-05T17:19:51Z</time>
      </trkpt>
      <trkpt lat="43.96401" lon="1.71362">
        <ele>240</ele>
        <time>2019-11-05T17:20:26Z</time>
      </trkpt>
      <trkpt lat="43.96453" lon="1.71337">
        <ele>235</ele>
        <time>2019-11-05T17:21:10Z</time>
      </trkpt>
      <trkpt lat="43.96485" lon="1.71318">
        <ele>229</ele>
        <time>2019-11-05T17:21:38Z</time>
      </trkpt>
      <trkpt lat="43.96537" lon="1.71292">
        <ele>219</ele>
        <time>2019-11-05T17:22:22Z</time>
      </trkpt>
      <trkpt lat="43.96597" lon="1.71267">
        <ele>208</ele>
        <time>2019-11-05T17:23:13Z</time>
      </trkpt>
      <trkpt lat="43.96614" lon="1.71257">
        <ele>204</ele>
        <time>2019-11-05T17:23:27Z</time>
      </trkpt>
      <trkpt lat="43.96634" lon="1.71232">
        <ele>198</ele>
        <time>2019-11-05T17:23:49Z</time>
      </trkpt>
      <trkpt lat="43.96645" lon="1.71224">
        <ele>195</ele>
        <time>2019-11-05T17:23:59Z</time>
      </trkpt>
      <trkpt lat="43.9665" lon="1.71224">
        <ele>194</ele>
        <time>2019-11-05T17:24:03Z</time>
      </trkpt>
      <trkpt lat="43.96659" lon="1.71231">
        <ele>193</ele>
        <time>2019-11-05T17:24:11Z</time>
      </trkpt>
      <trkpt lat="43.96661" lon="1.71296">
        <ele>195</ele>
        <time>2019-11-05T17:24:49Z</time>
      </trkpt>
      <trkpt lat="43.96669" lon="1.7129">
        <ele>194</ele>
        <time>2019-11-05T17:24:56Z</time>
      </trkpt>
      <trkpt lat="43.96692" lon="1.71247">
        <ele>191</ele>
        <time>2019-11-05T17:25:27Z</time>
      </trkpt>
      <trkpt lat="43.96696" lon="1.71198">
        <ele>188</ele>
        <time>2019-11-05T17:25:55Z</time>
      </trkpt>
      <trkpt lat="43.96699" lon="1.71189">
        <ele>188</ele>
        <time>2019-11-05T17:26:01Z</time>
      </trkpt>
      <trkpt lat="43.9672" lon="1.71156">
        <ele>187</ele>
        <time>2019-11-05T17:26:26Z</time>
      </trkpt>
      <trkpt lat="43.96736" lon="1.71136">
        <ele>188</ele>
        <time>2019-11-05T17:26:43Z</time>
      </trkpt>
      <trkpt lat="43.96743" lon="1.7114">
        <ele>188</ele>
        <time>2019-11-05T17:26:50Z</time>
      </trkpt>
      <trkpt lat="43.96764" lon="1.71144">
        <ele>187</ele>
        <time>2019-11-05T17:27:07Z</time>
      </trkpt>
      <trkpt lat="43.96776" lon="1.71144">
        <ele>187</ele>
        <time>2019-11-05T17:27:16Z</time>
      </trkpt>
      <trkpt lat="43.96803" lon="1.71139">
        <ele>186</ele>
        <time>2019-11-05T17:27:38Z</time>
      </trkpt>
      <trkpt lat="43.96825" lon="1.71133">
        <ele>186</ele>
        <time>2019-11-05T17:27:56Z</time>
      </trkpt>
      <trkpt lat="43.96866" lon="1.71115">
        <ele>181</ele>
        <time>2019-11-05T17:28:30Z</time>
      </trkpt>
      <trkpt lat="43.9689" lon="1.71101">
        <ele>177</ele>
        <time>2019-11-05T17:28:51Z</time>
      </trkpt>
      <trkpt lat="43.96947" lon="1.71084">
        <ele>172</ele>
        <time>2019-11-05T17:29:38Z</time>
      </trkpt>
      <trkpt lat="43.9698" lon="1.71089">
        <ele>172</ele>
        <time>2019-11-05T17:30:04Z</time>
      </trkpt>
      <trkpt lat="43.97052" lon="1.71147">
        <ele>177</ele>
        <time>2019-11-05T17:31:11Z</time>
      </trkpt>
      <trkpt lat="43.97089" lon="1.71152">
        <ele>181</ele>
        <time>2019-11-05T17:31:41Z</time>
      </trkpt>
      <trkpt lat="43.97108" lon="1.71159">
        <ele>183</ele>
        <time>2019-11-05T17:31:57Z</time>
      </trkpt>
      <trkpt lat="43.97154" lon="1.71185">
        <ele>187</ele>
        <time>2019-11-05T17:32:36Z</time>
      </trkpt>
      <trkpt lat="43.97161" lon="1.71191">
        <ele>188</ele>
        <time>2019-11-05T17:32:43Z</time>
      </trkpt>
      <trkpt lat="43.9717" lon="1.71207">
        <ele>189</ele>
        <time>2019-11-05T17:32:55Z</time>
      </trkpt>
      <trkpt lat="43.97175" lon="1.71227">
        <ele>190</ele>
        <time>2019-11-05T17:33:07Z</time>
      </trkpt>
      <trkpt lat="43.97194" lon="1.71325">
        <ele>193</ele>
        <time>2019-11-05T17:34:05Z</time>
      </trkpt>
      <trkpt lat="43.97198" lon="1.71335">
        <ele>193</ele>
        <time>2019-11-05T17:34:12Z</time>
      </trkpt>
      <trkpt lat="43.97204" lon="1.71342">
        <ele>194</ele>
        <time>2019-11-05T17:34:18Z</time>
      </trkpt>
      <trkpt lat="43.97219" lon="1.71346">
        <ele>196</ele>
        <time>2019-11-05T17:34:30Z</time>
      </trkpt>
      <trkpt lat="43.97231" lon="1.71346">
        <ele>197</ele>
        <time>2019-11-05T17:34:40Z</time>
      </trkpt>
      <trkpt lat="43.97295" lon="1.71333">
        <ele>204</ele>
        <time>2019-11-05T17:35:32Z</time>
      </trkpt>
      <trkpt lat="43.97358" lon="1.71317">
        <ele>209</ele>
        <time>2019-11-05T17:36:23Z</time>
      </trkpt>
      <trkpt lat="43.97371" lon="1.71316">
        <ele>210</ele>
        <time>2019-11-05T17:36:33Z</time>
      </trkpt>
      <trkpt lat="43.97383" lon="1.71318">
        <ele>210</ele>
        <time>2019-11-05T17:36:43Z</time>
      </trkpt>
      <trkpt lat="43.97393" lon="1.71324">
        <ele>210</ele>
        <time>2019-11-05T17:36:52Z</time>
      </trkpt>
      <trkpt lat="43.97399" lon="1.71332">
        <ele>209</ele>
        <time>2019-11-05T17:36:59Z</time>
      </trkpt>
      <trkpt lat="43.97429" lon="1.71394">
        <ele>210</ele>
        <time>2019-11-05T17:37:42Z</time>
      </trkpt>
      <trkpt lat="43.97435" lon="1.71382">
        <ele>210</ele>
        <time>2019-11-05T17:37:50Z</time>
      </trkpt>
      <trkpt lat="43.97509" lon="1.71391">
        <ele>206</ele>
        <time>2019-11-05T17:38:49Z</time>
      </trkpt>
      <trkpt lat="43.97541" lon="1.71398">
        <ele>205</ele>
        <time>2019-11-05T17:39:15Z</time>
      </trkpt>
      <trkpt lat="43.97606" lon="1.71422">
        <ele>202</ele>
        <time>2019-11-05T17:40:09Z</time>
      </trkpt>
      <trkpt lat="43.97618" lon="1.7142">
        <ele>202</ele>
        <time>2019-11-05T17:40:19Z</time>
      </trkpt>
      <trkpt lat="43.97645" lon="1.71407">
        <ele>201</ele>
        <time>2019-11-05T17:40:42Z</time>
      </trkpt>
      <trkpt lat="43.97712" lon="1.71368">
        <ele>203</ele>
        <time>2019-11-05T17:41:40Z</time>
      </trkpt>
      <trkpt lat="43.97722" lon="1.71367">
        <ele>203</ele>
        <time>2019-11-05T17:41:48Z</time>
      </trkpt>
      <trkpt lat="43.97786" lon="1.71402">
        <ele>201</ele>
        <time>2019-11-05T17:42:43Z</time>
      </trkpt>
      <trkpt lat="43.97806" lon="1.71409">
        <ele>200</ele>
        <time>2019-11-05T17:43:00Z</time>
      </trkpt>
      <trkpt lat="43.97817" lon="1.7141">
        <ele>200</ele>
        <time>2019-11-05T17:43:08Z</time>
      </trkpt>
      <trkpt lat="43.97834" lon="1.71407">
        <ele>200</ele>
        <time>2019-11-05T17:43:22Z</time>
      </trkpt>
      <trkpt lat="43.97846" lon="1.714">
        <ele>196</ele>
        <time>2019-11-05T17:43:33Z</time>
      </trkpt>
      <trkpt lat="43.97851" lon="1.71393">
        <ele>194</ele>
        <time>2019-11-05T17:43:38Z</time>
      </trkpt>
      <trkpt lat="43.97938" lon="1.71155">
        <ele>182</ele>
        <time>2019-11-05T17:46:12Z</time>
      </trkpt>
      <trkpt lat="43.9798" lon="1.71113">
        <ele>170</ele>
        <time>2019-11-05T17:46:53Z</time>
      </trkpt>
      <trkpt lat="43.97984" lon="1.71073">
        <ele>172</ele>
        <time>2019-11-05T17:47:17Z</time>
      </trkpt>
      <trkpt lat="43.98002" lon="1.71033">
        <ele>168</ele>
        <time>2019-11-05T17:47:44Z</time>
      </trkpt>
      <trkpt lat="43.98017" lon="1.71018">
        <ele>166</ele>
        <time>2019-11-05T17:47:59Z</time>
      </trkpt>
      <trkpt lat="43.9804" lon="1.70988">
        <ele>164</ele>
        <time>2019-11-05T17:48:24Z</time>
      </trkpt>
      <trkpt lat="43.98046" lon="1.71012">
        <ele>162</ele>
        <time>2019-11-05T17:48:39Z</time>
      </trkpt>
      <trkpt lat="43.98046" lon="1.71038">
        <ele>160</ele>
        <time>2019-11-05T17:48:54Z</time>
      </trkpt>
      <trkpt lat="43.98048" lon="1.71044">
        <ele>160</ele>
        <time>2019-11-05T17:48:57Z</time>
      </trkpt>
      <trkpt lat="43.98086" lon="1.71074">
        <ele>151</ele>
        <time>2019-11-05T17:49:32Z</time>
      </trkpt>
      <trkpt lat="43.98104" lon="1.71079">
        <ele>148</ele>
        <time>2019-11-05T17:49:47Z</time>
      </trkpt>
      <trkpt lat="43.98112" lon="1.71078">
        <ele>148</ele>
        <time>2019-11-05T17:49:54Z</time>
      </trkpt>
      <trkpt lat="43.9817" lon="1.71055">
        <ele>144</ele>
        <time>2019-11-05T17:50:42Z</time>
      </trkpt>
      <trkpt lat="43.98224" lon="1.71029">
        <ele>142</ele>
        <time>2019-11-05T17:51:28Z</time>
      </trkpt>
      <trkpt lat="43.98299" lon="1.71006">
        <ele>139</ele>
        <time>2019-11-05T17:52:29Z</time>
      </trkpt>
      <trkpt lat="43.98324" lon="1.70992">
        <ele>139</ele>
        <time>2019-11-05T17:52:51Z</time>
      </trkpt>
      <trkpt lat="43.98366" lon="1.70958">
        <ele>139</ele>
        <time>2019-11-05T17:53:30Z</time>
      </trkpt>
      <trkpt lat="43.98381" lon="1.70949">
        <ele>139</ele>
        <time>2019-11-05T17:53:43Z</time>
      </trkpt>
      <trkpt lat="43.98394" lon="1.70947">
        <ele>139</ele>
        <time>2019-11-05T17:53:53Z</time>
      </trkpt>
      <trkpt lat="43.98427" lon="1.70948">
        <ele>139</ele>
        <time>2019-11-05T17:54:20Z</time>
      </trkpt>
      <trkpt lat="43.98457" lon="1.70956">
        <ele>139</ele>
        <time>2019-11-05T17:54:44Z</time>
      </trkpt>
      <trkpt lat="43.98481" lon="1.70957">
        <ele>139</ele>
        <time>2019-11-05T17:55:03Z</time>
      </trkpt>
      <trkpt lat="43.98491" lon="1.70953">
        <ele>139</ele>
        <time>2019-11-05T17:55:12Z</time>
      </trkpt>
      <trkpt lat="43.98531" lon="1.70927">
        <ele>139</ele>
        <time>2019-11-05T17:55:47Z</time>
      </trkpt>
      <trkpt lat="43.98553" lon="1.70925">
        <ele>138</ele>
        <time>2019-11-05T17:56:05Z</time>
      </trkpt>
      <trkpt lat="43.98598" lon="1.70935">
        <ele>139</ele>
        <time>2019-11-05T17:56:41Z</time>
      </trkpt>
      <trkpt lat="43.98631" lon="1.70947">
        <ele>140</ele>
        <time>2019-11-05T17:57:08Z</time>
      </trkpt>
      <trkpt lat="43.98669" lon="1.70978">
        <ele>141</ele>
        <time>2019-11-05T17:57:44Z</time>
      </trkpt>
      <trkpt lat="43.98764" lon="1.71037">
        <ele>149</ele>
        <time>2019-11-05T17:59:07Z</time>
      </trkpt>
      <trkpt lat="43.98771" lon="1.7105">
        <ele>151</ele>
        <time>2019-11-05T17:59:16Z</time>
      </trkpt>
      <trkpt lat="43.98792" lon="1.71043">
        <ele>150</ele>
        <time>2019-11-05T17:59:34Z</time>
      </trkpt>
      <trkpt lat="43.9881" lon="1.71032">
        <ele>150</ele>
        <time>2019-11-05T17:59:49Z</time>
      </trkpt>
      <trkpt lat="43.98827" lon="1.71016">
        <ele>149</ele>
        <time>2019-11-05T18:00:06Z</time>
      </trkpt>
      <trkpt lat="43.98838" lon="1.71056">
        <ele>153</ele>
        <time>2019-11-05T18:00:30Z</time>
      </trkpt>
      <trkpt lat="43.98896" lon="1.71058">
        <ele>168</ele>
        <time>2019-11-05T18:01:17Z</time>
      </trkpt>
      <trkpt lat="43.98914" lon="1.71048">
        <ele>172</ele>
        <time>2019-11-05T18:01:32Z</time>
      </trkpt>
      <trkpt lat="43.98928" lon="1.71037">
        <ele>176</ele>
        <time>2019-11-05T18:01:45Z</time>
      </trkpt>
      <trkpt lat="43.98944" lon="1.71035">
        <ele>181</ele>
        <time>2019-11-05T18:01:58Z</time>
      </trkpt>
      <trkpt lat="43.98963" lon="1.71036">
        <ele>188</ele>
        <time>2019-11-05T18:02:13Z</time>
      </trkpt>
      <trkpt lat="43.98971" lon="1.71039">
        <ele>191</ele>
        <time>2019-11-05T18:02:20Z</time>
      </trkpt>
      <trkpt lat="43.98979" lon="1.7105">
        <ele>194</ele>
        <time>2019-11-05T18:02:29Z</time>
      </trkpt>
      <trkpt lat="43.98981" lon="1.7106">
        <ele>195</ele>
        <time>2019-11-05T18:02:35Z</time>
      </trkpt>
      <trkpt lat="43.99019" lon="1.71058">
        <ele>208</ele>
        <time>2019-11-05T18:03:05Z</time>
      </trkpt>
      <trkpt lat="43.99028" lon="1.7106">
        <ele>212</ele>
        <time>2019-11-05T18:03:13Z</time>
      </trkpt>
      <trkpt lat="43.99041" lon="1.71069">
        <ele>218</ele>
        <time>2019-11-05T18:03:24Z</time>
      </trkpt>
      <trkpt lat="43.99045" lon="1.7108">
        <ele>220</ele>
        <time>2019-11-05T18:03:32Z</time>
      </trkpt>
      <trkpt lat="43.9905" lon="1.71121">
        <ele>218</ele>
        <time>2019-11-05T18:03:55Z</time>
      </trkpt>
      <trkpt lat="43.99053" lon="1.7113">
        <ele>219</ele>
        <time>2019-11-05T18:04:01Z</time>
      </trkpt>
      <trkpt lat="43.99058" lon="1.71136">
        <ele>220</ele>
        <time>2019-11-05T18:04:06Z</time>
      </trkpt>
      <trkpt lat="43.99078" lon="1.71144">
        <ele>227</ele>
        <time>2019-11-05T18:04:23Z</time>
      </trkpt>
      <trkpt lat="43.99084" lon="1.71145">
        <ele>229</ele>
        <time>2019-11-05T18:04:28Z</time>
      </trkpt>
      <trkpt lat="43.99094" lon="1.71142">
        <ele>233</ele>
        <time>2019-11-05T18:04:36Z</time>
      </trkpt>
      <trkpt lat="43.99095" lon="1.71114">
        <ele>237</ele>
        <time>2019-11-05T18:04:52Z</time>
      </trkpt>
      <trkpt lat="43.99099" lon="1.71103">
        <ele>240</ele>
        <time>2019-11-05T18:04:59Z</time>
      </trkpt>
      <trkpt lat="43.99107" lon="1.71099">
        <ele>244</ele>
        <time>2019-11-05T18:05:06Z</time>
      </trkpt>
      <trkpt lat="43.99115" lon="1.71096">
        <ele>248</ele>
        <time>2019-11-05T18:05:13Z</time>
      </trkpt>
      <trkpt lat="43.99146" lon="1.711">
        <ele>260</ele>
        <time>2019-11-05T18:05:38Z</time>
      </trkpt>
      <trkpt lat="43.99176" lon="1.71099">
        <ele>270</ele>
        <time>2019-11-05T18:06:02Z</time>
      </trkpt>
      <trkpt lat="43.99256" lon="1.71136">
        <ele>275</ele>
        <time>2019-11-05T18:07:09Z</time>
      </trkpt>
      <trkpt lat="43.99356" lon="1.71173">
        <ele>268</ele>
        <time>2019-11-05T18:08:32Z</time>
      </trkpt>
      <trkpt lat="43.99369" lon="1.71181">
        <ele>265</ele>
        <time>2019-11-05T18:08:44Z</time>
      </trkpt>
      <trkpt lat="43.99407" lon="1.71214">
        <ele>257</ele>
        <time>2019-11-05T18:09:19Z</time>
      </trkpt>
      <trkpt lat="43.9942" lon="1.71234">
        <ele>254</ele>
        <time>2019-11-05T18:09:35Z</time>
      </trkpt>
      <trkpt lat="43.99422" lon="1.71244">
        <ele>252</ele>
        <time>2019-11-05T18:09:41Z</time>
      </trkpt>
      <trkpt lat="43.99428" lon="1.71252">
        <ele>250</ele>
        <time>2019-11-05T18:09:48Z</time>
      </trkpt>
      <trkpt lat="43.99433" lon="1.71266">
        <ele>249</ele>
        <time>2019-11-05T18:09:57Z</time>
      </trkpt>
      <trkpt lat="43.99452" lon="1.71281">
        <ele>244</ele>
        <time>2019-11-05T18:10:14Z</time>
      </trkpt>
      <trkpt lat="43.99456" lon="1.71287">
        <ele>244</ele>
        <time>2019-11-05T18:10:19Z</time>
      </trkpt>
      <trkpt lat="43.99475" lon="1.71278">
        <ele>240</ele>
        <time>2019-11-05T18:10:35Z</time>
      </trkpt>
      <trkpt lat="43.99511" lon="1.71245">
        <ele>233</ele>
        <time>2019-11-05T18:11:09Z</time>
      </trkpt>
      <trkpt lat="43.99529" lon="1.71211">
        <ele>227</ele>
        <time>2019-11-05T18:11:34Z</time>
      </trkpt>
      <trkpt lat="43.99539" lon="1.71177">
        <ele>224</ele>
        <time>2019-11-05T18:11:55Z</time>
      </trkpt>
      <trkpt lat="43.99552" lon="1.71144">
        <ele>219</ele>
        <time>2019-11-05T18:12:17Z</time>
      </trkpt>
      <trkpt lat="43.99565" lon="1.71125">
        <ele>215</ele>
        <time>2019-11-05T18:12:32Z</time>
      </trkpt>
      <trkpt lat="43.99595" lon="1.7111">
        <ele>209</ele>
        <time>2019-11-05T18:12:57Z</time>
      </trkpt>
      <trkpt lat="43.99625" lon="1.71091">
        <ele>206</ele>
        <time>2019-11-05T18:13:24Z</time>
      </trkpt>
      <trkpt lat="43.99672" lon="1.7105">
        <ele>199</ele>
        <time>2019-11-05T18:14:08Z</time>
      </trkpt>
      <trkpt lat="43.9968" lon="1.7105">
        <ele>199</ele>
        <time>2019-11-05T18:14:14Z</time>
      </trkpt>
      <trkpt lat="43.9968" lon="1.71056">
        <ele>199</ele>
        <time>2019-11-05T18:14:18Z</time>
      </trkpt>
      <trkpt lat="43.99698" lon="1.71074">
        <ele>201</ele>
        <time>2019-11-05T18:14:36Z</time>
      </trkpt>
      <trkpt lat="43.99713" lon="1.71079">
        <ele>202</ele>
        <time>2019-11-05T18:14:48Z</time>
      </trkpt>
      <trkpt lat="43.99755" lon="1.7108">
        <ele>202</ele>
        <time>2019-11-05T18:15:22Z</time>
      </trkpt>
      <trkpt lat="43.99775" lon="1.71077">
        <ele>204</ele>
        <time>2019-11-05T18:15:38Z</time>
      </trkpt>
      <trkpt lat="43.99789" lon="1.71065">
        <ele>204</ele>
        <time>2019-11-05T18:15:51Z</time>
      </trkpt>
      <trkpt lat="43.99815" lon="1.71025">
        <ele>199</ele>
        <time>2019-11-05T18:16:22Z</time>
      </trkpt>
      <trkpt lat="43.99834" lon="1.71009">
        <ele>197</ele>
        <time>2019-11-05T18:16:40Z</time>
      </trkpt>
      <trkpt lat="43.99855" lon="1.70998">
        <ele>194</ele>
        <time>2019-11-05T18:16:58Z</time>
      </trkpt>
      <trkpt lat="43.99873" lon="1.70993">
        <ele>194</ele>
        <time>2019-11-05T18:17:12Z</time>
      </trkpt>
      <trkpt lat="43.99907" lon="1.70989">
        <ele>194</ele>
        <time>2019-11-05T18:17:40Z</time>
      </trkpt>
      <trkpt lat="43.99918" lon="1.70984">
        <ele>194</ele>
        <time>2019-11-05T18:17:49Z</time>
      </trkpt>
      <trkpt lat="43.9995" lon="1.70956">
        <ele>196</ele>
        <time>2019-11-05T18:18:19Z</time>
      </trkpt>
      <trkpt lat="43.99964" lon="1.70947">
        <ele>197</ele>
        <time>2019-11-05T18:18:32Z</time>
      </trkpt>
      <trkpt lat="43.99983" lon="1.70943">
        <ele>199</ele>
        <time>2019-11-05T18:18:47Z</time>
      </trkpt>
      <trkpt lat="44.00029" lon="1.70944">
        <ele>205</ele>
        <time>2019-11-05T18:19:24Z</time>
      </trkpt>
      <trkpt lat="44.00089" lon="1.70921">
        <ele>219</ele>
        <time>2019-11-05T18:20:14Z</time>
      </trkpt>
      <trkpt lat="44.00135" lon="1.70911">
        <ele>228</ele>
        <time>2019-11-05T18:20:51Z</time>
      </trkpt>
      <trkpt lat="44.00185" lon="1.70913">
        <ele>234</ele>
        <time>2019-11-05T18:21:31Z</time>
      </trkpt>
      <trkpt lat="44.0021" lon="1.70903">
        <ele>238</ele>
        <time>2019-11-05T18:21:52Z</time>
      </trkpt>
      <trkpt lat="44.00234" lon="1.70885">
        <ele>244</ele>
        <time>2019-11-05T18:22:14Z</time>
      </trkpt>
      <trkpt lat="44.00248" lon="1.70867">
        <ele>249</ele>
        <time>2019-11-05T18:22:29Z</time>
      </trkpt>
      <trkpt lat="44.00265" lon="1.70835">
        <ele>258</ele>
        <time>2019-11-05T18:22:52Z</time>
      </trkpt>
      <trkpt lat="44.00275" lon="1.70826">
        <ele>264</ele>
        <time>2019-11-05T18:23:01Z</time>
      </trkpt>
      <trkpt lat="44.00285" lon="1.70811">
        <ele>271</ele>
        <time>2019-11-05T18:23:13Z</time>
      </trkpt>
      <trkpt lat="44.00297" lon="1.70801">
        <ele>277</ele>
        <time>2019-11-05T18:23:24Z</time>
      </trkpt>
      <trkpt lat="44.00317" lon="1.70816">
        <ele>276</ele>
        <time>2019-11-05T18:23:43Z</time>
      </trkpt>
      <trkpt lat="44.00351" lon="1.7086">
        <ele>278</ele>
        <time>2019-11-05T18:24:20Z</time>
      </trkpt>
      <trkpt lat="44.00372" lon="1.70881">
        <ele>283</ele>
        <time>2019-11-05T18:24:40Z</time>
      </trkpt>
      <trkpt lat="44.00379" lon="1.70884">
        <ele>285</ele>
        <time>2019-11-05T18:24:46Z</time>
      </trkpt>
      <trkpt lat="44.00413" lon="1.70919">
        <ele>292</ele>
        <time>2019-11-05T18:25:20Z</time>
      </trkpt>
      <trkpt lat="44.00423" lon="1.70935">
        <ele>289</ele>
        <time>2019-11-05T18:25:32Z</time>
      </trkpt>
      <trkpt lat="44.00433" lon="1.70944">
        <ele>289</ele>
        <time>2019-11-05T18:25:42Z</time>
      </trkpt>
      <trkpt lat="44.00452" lon="1.7097">
        <ele>286</ele>
        <time>2019-11-05T18:26:03Z</time>
      </trkpt>
      <trkpt lat="44.00459" lon="1.70973">
        <ele>287</ele>
        <time>2019-11-05T18:26:09Z</time>
      </trkpt>
      <trkpt lat="44.00469" lon="1.70971">
        <ele>291</ele>
        <time>2019-11-05T18:26:17Z</time>
      </trkpt>
      <trkpt lat="44.00478" lon="1.7096">
        <ele>297</ele>
        <time>2019-11-05T18:26:27Z</time>
      </trkpt>
      <trkpt lat="44.00471" lon="1.70955">
        <ele>297</ele>
        <time>2019-11-05T18:26:33Z</time>
      </trkpt>
      <trkpt lat="44.0046" lon="1.70941">
        <ele>298</ele>
        <time>2019-11-05T18:26:45Z</time>
      </trkpt>
      <trkpt lat="44.00458" lon="1.70932">
        <ele>300</ele>
        <time>2019-11-05T18:26:50Z</time>
      </trkpt>
      <trkpt lat="44.00473" lon="1.70917">
        <ele>308</ele>
        <time>2019-11-05T18:27:05Z</time>
      </trkpt>
      <trkpt lat="44.00479" lon="1.70904">
        <ele>312</ele>
        <time>2019-11-05T18:27:14Z</time>
      </trkpt>
      <trkpt lat="44.00506" lon="1.70794">
        <ele>329</ele>
        <time>2019-11-05T18:28:21Z</time>
      </trkpt>
      <trkpt lat="44.00542" lon="1.70717">
        <ele>336</ele>
        <time>2019-11-05T18:29:14Z</time>
      </trkpt>
      <trkpt lat="44.0058" lon="1.70647">
        <ele>338</ele>
        <time>2019-11-05T18:30:05Z</time>
      </trkpt>
      <trkpt lat="44.00595" lon="1.70631">
        <ele>337</ele>
        <time>2019-11-05T18:30:20Z</time>
      </trkpt>
      <trkpt lat="44.00612" lon="1.706">
        <ele>335</ele>
        <time>2019-11-05T18:30:42Z</time>
      </trkpt>
      <trkpt lat="44.00648" lon="1.70548">
        <ele>332</ele>
        <time>2019-11-05T18:31:24Z</time>
      </trkpt>
      <trkpt lat="44.00671" lon="1.7053">
        <ele>330</ele>
        <time>2019-11-05T18:31:45Z</time>
      </trkpt>
      <trkpt lat="44.00729" lon="1.70513">
        <ele>324</ele>
        <time>2019-11-05T18:32:32Z</time>
      </trkpt>
      <trkpt lat="44.00753" lon="1.7051">
        <ele>322</ele>
        <time>2019-11-05T18:32:52Z</time>
      </trkpt>
      <trkpt lat="44.00786" lon="1.70499">
        <ele>316</ele>
        <time>2019-11-05T18:33:19Z</time>
      </trkpt>
      <trkpt lat="44.00918" lon="1.7036">
        <ele>296</ele>
        <time>2019-11-05T18:35:31Z</time>
      </trkpt>
      <trkpt lat="44.00927" lon="1.7036">
        <ele>296</ele>
        <time>2019-11-05T18:35:39Z</time>
      </trkpt>
      <trkpt lat="44.00948" lon="1.70366">
        <ele>295</ele>
        <time>2019-11-05T18:35:56Z</time>
      </trkpt>
      <trkpt lat="44.00971" lon="1.70367">
        <ele>293</ele>
        <time>2019-11-05T18:36:14Z</time>
      </trkpt>
      <trkpt lat="44.0103" lon="1.70341">
        <ele>288</ele>
        <time>2019-11-05T18:37:04Z</time>
      </trkpt>
      <trkpt lat="44.01047" lon="1.70328">
        <ele>286</ele>
        <time>2019-11-05T18:37:19Z</time>
      </trkpt>
      <trkpt lat="44.01051" lon="1.70322">
        <ele>286</ele>
        <time>2019-11-05T18:37:24Z</time>
      </trkpt>
      <trkpt lat="44.01056" lon="1.70301">
        <ele>285</ele>
        <time>2019-11-05T18:37:37Z</time>
      </trkpt>
      <trkpt lat="44.01097" lon="1.702">
        <ele>279</ele>
        <time>2019-11-05T18:38:43Z</time>
      </trkpt>
      <trkpt lat="44.01125" lon="1.70201">
        <ele>276</ele>
        <time>2019-11-05T18:39:06Z</time>
      </trkpt>
      <trkpt lat="44.01138" lon="1.70198">
        <ele>275</ele>
        <time>2019-11-05T18:39:16Z</time>
      </trkpt>
      <trkpt lat="44.01148" lon="1.70192">
        <ele>273</ele>
        <time>2019-11-05T18:39:25Z</time>
      </trkpt>
      <trkpt lat="44.01164" lon="1.70173">
        <ele>271</ele>
        <time>2019-11-05T18:39:42Z</time>
      </trkpt>
      <trkpt lat="44.01207" lon="1.70097">
        <ele>262</ele>
        <time>2019-11-05T18:40:38Z</time>
      </trkpt>
      <trkpt lat="44.01208" lon="1.70089">
        <ele>262</ele>
        <time>2019-11-05T18:40:42Z</time>
      </trkpt>
      <trkpt lat="44.01203" lon="1.70069">
        <ele>260</ele>
        <time>2019-11-05T18:40:55Z</time>
      </trkpt>
      <trkpt lat="44.01193" lon="1.70042">
        <ele>257</ele>
        <time>2019-11-05T18:41:12Z</time>
      </trkpt>
      <trkpt lat="44.01181" lon="1.7002">
        <ele>255</ele>
        <time>2019-11-05T18:41:28Z</time>
      </trkpt>
      <trkpt lat="44.01179" lon="1.69983">
        <ele>250</ele>
        <time>2019-11-05T18:41:49Z</time>
      </trkpt>
      <trkpt lat="44.01192" lon="1.69915">
        <ele>242</ele>
        <time>2019-11-05T18:42:30Z</time>
      </trkpt>
      <trkpt lat="44.01222" lon="1.69834">
        <ele>233</ele>
        <time>2019-11-05T18:43:22Z</time>
      </trkpt>
      <trkpt lat="44.01225" lon="1.6982">
        <ele>232</ele>
        <time>2019-11-05T18:43:31Z</time>
      </trkpt>
      <trkpt lat="44.01224" lon="1.69789">
        <ele>229</ele>
        <time>2019-11-05T18:43:49Z</time>
      </trkpt>
      <trkpt lat="44.01245" lon="1.69788">
        <ele>229</ele>
        <time>2019-11-05T18:44:05Z</time>
      </trkpt>
      <trkpt lat="44.01287" lon="1.69781">
        <ele>224</ele>
        <time>2019-11-05T18:44:39Z</time>
      </trkpt>
      <trkpt lat="44.01301" lon="1.69786">
        <ele>223</ele>
        <time>2019-11-05T18:44:51Z</time>
      </trkpt>
      <trkpt lat="44.01309" lon="1.69793">
        <ele>222</ele>
        <time>2019-11-05T18:44:58Z</time>
      </trkpt>
      <trkpt lat="44.01318" lon="1.6983">
        <ele>222</ele>
        <time>2019-11-05T18:45:21Z</time>
      </trkpt>
      <trkpt lat="44.01345" lon="1.69867">
        <ele>219</ele>
        <time>2019-11-05T18:45:51Z</time>
      </trkpt>
      <trkpt lat="44.01366" lon="1.69921">
        <ele>217</ele>
        <time>2019-11-05T18:46:27Z</time>
      </trkpt>
      <trkpt lat="44.01382" lon="1.69947">
        <ele>217</ele>
        <time>2019-11-05T18:46:46Z</time>
      </trkpt>
      <trkpt lat="44.01422" lon="1.69981">
        <ele>213</ele>
        <time>2019-11-05T18:47:24Z</time>
      </trkpt>
      <trkpt lat="44.01444" lon="1.69994">
        <ele>212</ele>
        <time>2019-11-05T18:47:43Z</time>
      </trkpt>
      <trkpt lat="44.01463" lon="1.69998">
        <ele>210</ele>
        <time>2019-11-05T18:47:58Z</time>
      </trkpt>
      <trkpt lat="44.01487" lon="1.70008">
        <ele>208</ele>
        <time>2019-11-05T18:48:18Z</time>
      </trkpt>
      <trkpt lat="44.015" lon="1.70016">
        <ele>207</ele>
        <time>2019-11-05T18:48:30Z</time>
      </trkpt>
      <trkpt lat="44.01523" lon="1.70048">
        <ele>211</ele>
        <time>2019-11-05T18:48:56Z</time>
      </trkpt>
      <trkpt lat="44.01533" lon="1.70057">
        <ele>212</ele>
        <time>2019-11-05T18:49:05Z</time>
      </trkpt>
      <trkpt lat="44.01543" lon="1.7006">
        <ele>213</ele>
        <time>2019-11-05T18:49:14Z</time>
      </trkpt>
      <trkpt lat="44.01554" lon="1.70057">
        <ele>212</ele>
        <time>2019-11-05T18:49:23Z</time>
      </trkpt>
      <trkpt lat="44.01574" lon="1.70043">
        <ele>210</ele>
        <time>2019-11-05T18:49:40Z</time>
      </trkpt>
      <trkpt lat="44.01591" lon="1.70037">
        <ele>210</ele>
        <time>2019-11-05T18:49:55Z</time>
      </trkpt>
      <trkpt lat="44.0168" lon="1.70039">
        <ele>213</ele>
        <time>2019-11-05T18:51:06Z</time>
      </trkpt>
      <trkpt lat="44.01713" lon="1.70051">
        <ele>215</ele>
        <time>2019-11-05T18:51:33Z</time>
      </trkpt>
      <trkpt lat="44.01779" lon="1.7007">
        <ele>217</ele>
        <time>2019-11-05T18:52:27Z</time>
      </trkpt>
      <trkpt lat="44.01828" lon="1.70103">
        <ele>222</ele>
        <time>2019-11-05T18:53:11Z</time>
      </trkpt>
      <trkpt lat="44.01849" lon="1.70114">
        <ele>225</ele>
        <time>2019-11-05T18:53:29Z</time>
      </trkpt>
      <trkpt lat="44.01863" lon="1.70118">
        <ele>226</ele>
        <time>2019-11-05T18:53:40Z</time>
      </trkpt>
      <trkpt lat="44.01909" lon="1.70119">
        <ele>227</ele>
        <time>2019-11-05T18:54:17Z</time>
      </trkpt>
      <trkpt lat="44.01965" lon="1.70109">
        <ele>226</ele>
        <time>2019-11-05T18:55:02Z</time>
      </trkpt>
      <trkpt lat="44.01985" lon="1.70108">
        <ele>226</ele>
        <time>2019-11-05T18:55:18Z</time>
      </trkpt>
      <trkpt lat="44.01999" lon="1.70111">
        <ele>227</ele>
        <time>2019-11-05T18:55:29Z</time>
      </trkpt>
      <trkpt lat="44.02017" lon="1.7012">
        <ele>229</ele>
        <time>2019-11-05T18:55:45Z</time>
      </trkpt>
      <trkpt lat="44.02041" lon="1.70139">
        <ele>232</ele>
        <time>2019-11-05T18:56:07Z</time>
      </trkpt>
      <trkpt lat="44.0206" lon="1.70145">
        <ele>233</ele>
        <time>2019-11-05T18:56:22Z</time>
      </trkpt>
      <trkpt lat="44.02133" lon="1.70152">
        <ele>235</ele>
        <time>2019-11-05T18:57:21Z</time>
      </trkpt>
      <trkpt lat="44.02148" lon="1.7016">
        <ele>235</ele>
        <time>2019-11-05T18:57:34Z</time>
      </trkpt>
      <trkpt lat="44.02173" lon="1.70183">
        <ele>238</ele>
        <time>2019-11-05T18:57:58Z</time>
      </trkpt>
      <trkpt lat="44.02224" lon="1.70267">
        <ele>245</ele>
        <time>2019-11-05T18:59:01Z</time>
      </trkpt>
      <trkpt lat="44.02313" lon="1.70373">
        <ele>255</ele>
        <time>2019-11-05T19:00:35Z</time>
      </trkpt>
      <trkpt lat="44.02375" lon="1.70423">
        <ele>255</ele>
        <time>2019-11-05T19:01:32Z</time>
      </trkpt>
      <trkpt lat="44.02398" lon="1.70435">
        <ele>256</ele>
        <time>2019-11-05T19:01:52Z</time>
      </trkpt>
      <trkpt lat="44.02412" lon="1.70437">
        <ele>256</ele>
        <time>2019-11-05T19:02:03Z</time>
      </trkpt>
      <trkpt lat="44.02483" lon="1.7043">
        <ele>256</ele>
        <time>2019-11-05T19:03:00Z</time>
      </trkpt>
      <trkpt lat="44.02497" lon="1.70434">
        <ele>257</ele>
        <time>2019-11-05T19:03:12Z</time>
      </trkpt>
      <trkpt lat="44.02504" lon="1.70432">
        <ele>257</ele>
        <time>2019-11-05T19:03:18Z</time>
      </trkpt>
      <trkpt lat="44.02512" lon="1.70417">
        <ele>256</ele>
        <time>2019-11-05T19:03:28Z</time>
      </trkpt>
      <trkpt lat="44.02516" lon="1.70389">
        <ele>261</ele>
        <time>2019-11-05T19:03:45Z</time>
      </trkpt>
      <trkpt lat="44.02547" lon="1.70368">
        <ele>266</ele>
        <time>2019-11-05T19:04:12Z</time>
      </trkpt>
      <trkpt lat="44.02568" lon="1.70364">
        <ele>268</ele>
        <time>2019-11-05T19:04:29Z</time>
      </trkpt>
      <trkpt lat="44.02578" lon="1.70354">
        <ele>270</ele>
        <time>2019-11-05T19:04:39Z</time>
      </trkpt>
      <trkpt lat="44.02575" lon="1.70339">
        <ele>272</ele>
        <time>2019-11-05T19:04:48Z</time>
      </trkpt>
      <trkpt lat="44.02557" lon="1.70307">
        <ele>277</ele>
        <time>2019-11-05T19:05:12Z</time>
      </trkpt>
      <trkpt lat="44.02519" lon="1.703">
        <ele>278</ele>
        <time>2019-11-05T19:05:42Z</time>
      </trkpt>
      <trkpt lat="44.02495" lon="1.70311">
        <ele>274</ele>
        <time>2019-11-05T19:06:02Z</time>
      </trkpt>
      <trkpt lat="44.02475" lon="1.70312">
        <ele>272</ele>
        <time>2019-11-05T19:06:18Z</time>
      </trkpt>
      <trkpt lat="44.02459" lon="1.70302">
        <ele>273</ele>
        <time>2019-11-05T19:06:33Z</time>
      </trkpt>
      <trkpt lat="44.02453" lon="1.70276">
        <ele>278</ele>
        <time>2019-11-05T19:06:48Z</time>
      </trkpt>
      <trkpt lat="44.02465" lon="1.70209">
        <ele>288</ele>
        <time>2019-11-05T19:07:28Z</time>
      </trkpt>
      <trkpt lat="44.02492" lon="1.70114">
        <ele>303</ele>
        <time>2019-11-05T19:08:27Z</time>
      </trkpt>
      <trkpt lat="44.02499" lon="1.70081">
        <ele>308</ele>
        <time>2019-11-05T19:08:47Z</time>
      </trkpt>
      <trkpt lat="44.02501" lon="1.70067">
        <ele>311</ele>
        <time>2019-11-05T19:08:55Z</time>
      </trkpt>
      <trkpt lat="44.02499" lon="1.70047">
        <ele>314</ele>
        <time>2019-11-05T19:09:06Z</time>
      </trkpt>
      <trkpt lat="44.02483" lon="1.70002">
        <ele>319</ele>
        <time>2019-11-05T19:09:35Z</time>
      </trkpt>
      <trkpt lat="44.02475" lon="1.69986">
        <ele>320</ele>
        <time>2019-11-05T19:09:47Z</time>
      </trkpt>
      <trkpt lat="44.02449" lon="1.69941">
        <ele>323</ele>
        <time>2019-11-05T19:10:20Z</time>
      </trkpt>
      <trkpt lat="44.02442" lon="1.69927">
        <ele>324</ele>
        <time>2019-11-05T19:10:30Z</time>
      </trkpt>
      <trkpt lat="44.02442" lon="1.69921">
        <ele>326</ele>
        <time>2019-11-05T19:10:33Z</time>
      </trkpt>
      <trkpt lat="44.02435" lon="1.6992">
        <ele>324</ele>
        <time>2019-11-05T19:10:39Z</time>
      </trkpt>
      <trkpt lat="44.02435" lon="1.69901">
        <ele>327</ele>
        <time>2019-11-05T19:10:50Z</time>
      </trkpt>
      <trkpt lat="44.02438" lon="1.69889">
        <ele>330</ele>
        <time>2019-11-05T19:10:57Z</time>
      </trkpt>
      <trkpt lat="44.02425" lon="1.69883">
        <ele>328</ele>
        <time>2019-11-05T19:11:08Z</time>
      </trkpt>
      <trkpt lat="44.02427" lon="1.69866">
        <ele>331</ele>
        <time>2019-11-05T19:11:18Z</time>
      </trkpt>
      <trkpt lat="44.02418" lon="1.69842">
        <ele>332</ele>
        <time>2019-11-05T19:11:33Z</time>
      </trkpt>
      <trkpt lat="44.02409" lon="1.69828">
        <ele>333</ele>
        <time>2019-11-05T19:11:44Z</time>
      </trkpt>
      <trkpt lat="44.02389" lon="1.69802">
        <ele>334</ele>
        <time>2019-11-05T19:12:06Z</time>
      </trkpt>
      <trkpt lat="44.02348" lon="1.69756">
        <ele>336</ele>
        <time>2019-11-05T19:12:48Z</time>
      </trkpt>
      <trkpt lat="44.02309" lon="1.69679">
        <ele>349</ele>
        <time>2019-11-05T19:13:43Z</time>
      </trkpt>
      <trkpt lat="44.02284" lon="1.69653">
        <ele>352</ele>
        <time>2019-11-05T19:14:08Z</time>
      </trkpt>
      <trkpt lat="44.02251" lon="1.69639">
        <ele>351</ele>
        <time>2019-11-05T19:14:35Z</time>
      </trkpt>
      <trkpt lat="44.02231" lon="1.69634">
        <ele>351</ele>
        <time>2019-11-05T19:14:51Z</time>
      </trkpt>
      <trkpt lat="44.0221" lon="1.69618">
        <ele>352</ele>
        <time>2019-11-05T19:15:11Z</time>
      </trkpt>
      <trkpt lat="44.02185" lon="1.69575">
        <ele>359</ele>
        <time>2019-11-05T19:15:42Z</time>
      </trkpt>
      <trkpt lat="44.02169" lon="1.69542">
        <ele>362</ele>
        <time>2019-11-05T19:16:05Z</time>
      </trkpt>
      <trkpt lat="44.02153" lon="1.695">
        <ele>365</ele>
        <time>2019-11-05T19:16:33Z</time>
      </trkpt>
      <trkpt lat="44.02158" lon="1.69481">
        <ele>368</ele>
        <time>2019-11-05T19:16:44Z</time>
      </trkpt>
      <trkpt lat="44.02152" lon="1.69423">
        <ele>372</ele>
        <time>2019-11-05T19:17:18Z</time>
      </trkpt>
      <trkpt lat="44.02154" lon="1.69404">
        <ele>373</ele>
        <time>2019-11-05T19:17:29Z</time>
      </trkpt>
      <trkpt lat="44.02152" lon="1.6937">
        <ele>374</ele>
        <time>2019-11-05T19:17:49Z</time>
      </trkpt>
      <trkpt lat="44.02153" lon="1.69304">
        <ele>374</ele>
        <time>2019-11-05T19:18:27Z</time>
      </trkpt>
      <trkpt lat="44.02158" lon="1.69287">
        <ele>374</ele>
        <time>2019-11-05T19:18:37Z</time>
      </trkpt>
      <trkpt lat="44.02166" lon="1.69276">
        <ele>374</ele>
        <time>2019-11-05T19:18:46Z</time>
      </trkpt>
      <trkpt lat="44.0219" lon="1.69252">
        <ele>375</ele>
        <time>2019-11-05T19:19:10Z</time>
      </trkpt>
      <trkpt lat="44.02216" lon="1.69232">
        <ele>374</ele>
        <time>2019-11-05T19:19:34Z</time>
      </trkpt>
      <trkpt lat="44.02246" lon="1.69233">
        <ele>377</ele>
        <time>2019-11-05T19:19:58Z</time>
      </trkpt>
      <trkpt lat="44.02265" lon="1.69237">
        <ele>379</ele>
        <time>2019-11-05T19:20:13Z</time>
      </trkpt>
      <trkpt lat="44.02384" lon="1.69247">
        <ele>380</ele>
        <time>2019-11-05T19:21:49Z</time>
      </trkpt>
      <trkpt lat="44.02504" lon="1.69262">
        <ele>379</ele>
        <time>2019-11-05T19:23:25Z</time>
      </trkpt>
      <trkpt lat="44.02627" lon="1.69265">
        <ele>373</ele>
        <time>2019-11-05T19:25:04Z</time>
      </trkpt>
      <trkpt lat="44.02623" lon="1.69255">
        <ele>372</ele>
        <time>2019-11-05T19:25:10Z</time>
      </trkpt>
      <trkpt lat="44.02602" lon="1.69222">
        <ele>367</ele>
        <time>2019-11-05T19:25:36Z</time>
      </trkpt>
      <trkpt lat="44.02606" lon="1.69221">
        <ele>367</ele>
        <time>2019-11-05T19:25:39Z</time>
      </trkpt>
      <trkpt lat="44.026" lon="1.69185">
        <ele>362</ele>
        <time>2019-11-05T19:26:00Z</time>
      </trkpt>
      <trkpt lat="44.02596" lon="1.69175">
        <ele>361</ele>
        <time>2019-11-05T19:26:07Z</time>
      </trkpt>
      <trkpt lat="44.0259" lon="1.69126">
        <ele>357</ele>
        <time>2019-11-05T19:26:35Z</time>
      </trkpt>
      <trkpt lat="44.02588" lon="1.69086">
        <ele>354</ele>
        <time>2019-11-05T19:26:58Z</time>
      </trkpt>
      <trkpt lat="44.02594" lon="1.69049">
        <ele>354</ele>
        <time>2019-11-05T19:27:20Z</time>
      </trkpt>
      <trkpt lat="44.02599" lon="1.69024">
        <ele>354</ele>
        <time>2019-11-05T19:27:35Z</time>
      </trkpt>
      <trkpt lat="44.02609" lon="1.68992">
        <ele>354</ele>
        <time>2019-11-05T19:27:55Z</time>
      </trkpt>
      <trkpt lat="44.02626" lon="1.68957">
        <ele>353</ele>
        <time>2019-11-05T19:28:20Z</time>
      </trkpt>
      <trkpt lat="44.02641" lon="1.68944">
        <ele>352</ele>
        <time>2019-11-05T19:28:34Z</time>
      </trkpt>
      <trkpt lat="44.02626" lon="1.68957">
        <ele>353</ele>
        <time>2019-11-05T19:28:48Z</time>
      </trkpt>
      <trkpt lat="44.02641" lon="1.68944">
        <ele>352</ele>
        <time>2019-11-05T19:29:02Z</time>
      </trkpt>
      <trkpt lat="44.02658" lon="1.68887">
        <ele>351</ele>
        <time>2019-11-05T19:29:38Z</time>
      </trkpt>
      <trkpt lat="44.02668" lon="1.68874">
        <ele>351</ele>
        <time>2019-11-05T19:29:49Z</time>
      </trkpt>
      <trkpt lat="44.02681" lon="1.68849">
        <ele>350</ele>
        <time>2019-11-05T19:30:06Z</time>
      </trkpt>
      <trkpt lat="44.02685" lon="1.68825">
        <ele>349</ele>
        <time>2019-11-05T19:30:21Z</time>
      </trkpt>
      <trkpt lat="44.02706" lon="1.68774">
        <ele>347</ele>
        <time>2019-11-05T19:30:54Z</time>
      </trkpt>
      <trkpt lat="44.02721" lon="1.68707">
        <ele>347</ele>
        <time>2019-11-05T19:31:35Z</time>
      </trkpt>
      <trkpt lat="44.02748" lon="1.68634">
        <ele>349</ele>
        <time>2019-11-05T19:32:22Z</time>
      </trkpt>
      <trkpt lat="44.02751" lon="1.68621">
        <ele>350</ele>
        <time>2019-11-05T19:32:30Z</time>
      </trkpt>
      <trkpt lat="44.02749" lon="1.68596">
        <ele>351</ele>
        <time>2019-11-05T19:32:44Z</time>
      </trkpt>
      <trkpt lat="44.02765" lon="1.68545">
        <ele>355</ele>
        <time>2019-11-05T19:33:16Z</time>
      </trkpt>
      <trkpt lat="44.02779" lon="1.68454">
        <ele>360</ele>
        <time>2019-11-05T19:34:10Z</time>
      </trkpt>
      <trkpt lat="44.02781" lon="1.68371">
        <ele>358</ele>
        <time>2019-11-05T19:34:58Z</time>
      </trkpt>
      <trkpt lat="44.02785" lon="1.68339">
        <ele>356</ele>
        <time>2019-11-05T19:35:17Z</time>
      </trkpt>
      <trkpt lat="44.02784" lon="1.68266">
        <ele>348</ele>
        <time>2019-11-05T19:35:59Z</time>
      </trkpt>
      <trkpt lat="44.02807" lon="1.68188">
        <ele>339</ele>
        <time>2019-11-05T19:36:47Z</time>
      </trkpt>
      <trkpt lat="44.0282" lon="1.68164">
        <ele>337</ele>
        <time>2019-11-05T19:37:04Z</time>
      </trkpt>
      <trkpt lat="44.02836" lon="1.68145">
        <ele>334</ele>
        <time>2019-11-05T19:37:21Z</time>
      </trkpt>
      <trkpt lat="44.02841" lon="1.68132">
        <ele>332</ele>
        <time>2019-11-05T19:37:30Z</time>
      </trkpt>
      <trkpt lat="44.02822" lon="1.68102">
        <ele>324</ele>
        <time>2019-11-05T19:37:53Z</time>
      </trkpt>
      <trkpt lat="44.02801" lon="1.681">
        <ele>321</ele>
        <time>2019-11-05T19:38:10Z</time>
      </trkpt>
      <trkpt lat="44.02787" lon="1.68084">
        <ele>317</ele>
        <time>2019-11-05T19:38:24Z</time>
      </trkpt>
      <trkpt lat="44.02782" lon="1.68064">
        <ele>312</ele>
        <time>2019-11-05T19:38:36Z</time>
      </trkpt>
      <trkpt lat="44.028" lon="1.6804">
        <ele>309</ele>
        <time>2019-11-05T19:38:56Z</time>
      </trkpt>
      <trkpt lat="44.02819" lon="1.68001">
        <ele>303</ele>
        <time>2019-11-05T19:39:23Z</time>
      </trkpt>
      <trkpt lat="44.02802" lon="1.67977">
        <ele>297</ele>
        <time>2019-11-05T19:39:43Z</time>
      </trkpt>
      <trkpt lat="44.0278" lon="1.6792">
        <ele>287</ele>
        <time>2019-11-05T19:40:20Z</time>
      </trkpt>
      <trkpt lat="44.02776" lon="1.6789">
        <ele>281</ele>
        <time>2019-11-05T19:40:38Z</time>
      </trkpt>
      <trkpt lat="44.02767" lon="1.6786">
        <ele>276</ele>
        <time>2019-11-05T19:40:56Z</time>
      </trkpt>
      <trkpt lat="44.02763" lon="1.67812">
        <ele>267</ele>
        <time>2019-11-05T19:41:24Z</time>
      </trkpt>
      <trkpt lat="44.02764" lon="1.67783">
        <ele>262</ele>
        <time>2019-11-05T19:41:41Z</time>
      </trkpt>
      <trkpt lat="44.02771" lon="1.67737">
        <ele>253</ele>
        <time>2019-11-05T19:42:08Z</time>
      </trkpt>
      <trkpt lat="44.02781" lon="1.67713">
        <ele>249</ele>
        <time>2019-11-05T19:42:24Z</time>
      </trkpt>
      <trkpt lat="44.02788" lon="1.67706">
        <ele>247</ele>
        <time>2019-11-05T19:42:31Z</time>
      </trkpt>
      <trkpt lat="44.0281" lon="1.67635">
        <ele>235</ele>
        <time>2019-11-05T19:43:15Z</time>
      </trkpt>
      <trkpt lat="44.02821" lon="1.6761">
        <ele>232</ele>
        <time>2019-11-05T19:43:32Z</time>
      </trkpt>
      <trkpt lat="44.02831" lon="1.67571">
        <ele>227</ele>
        <time>2019-11-05T19:43:56Z</time>
      </trkpt>
      <trkpt lat="44.02841" lon="1.67551">
        <ele>222</ele>
        <time>2019-11-05T19:44:10Z</time>
      </trkpt>
      <trkpt lat="44.02841" lon="1.67539">
        <ele>221</ele>
        <time>2019-11-05T19:44:17Z</time>
      </trkpt>
      <trkpt lat="44.02852" lon="1.67518">
        <ele>216</ele>
        <time>2019-11-05T19:44:32Z</time>
      </trkpt>
      <trkpt lat="44.02854" lon="1.67502">
        <ele>213</ele>
        <time>2019-11-05T19:44:41Z</time>
      </trkpt>
      <trkpt lat="44.02864" lon="1.67482">
        <ele>207</ele>
        <time>2019-11-05T19:44:55Z</time>
      </trkpt>
      <trkpt lat="44.02917" lon="1.67402">
        <ele>194</ele>
        <time>2019-11-05T19:45:58Z</time>
      </trkpt>
      <trkpt lat="44.02956" lon="1.67352">
        <ele>181</ele>
        <time>2019-11-05T19:46:40Z</time>
      </trkpt>
      <trkpt lat="44.02971" lon="1.6734">
        <ele>180</ele>
        <time>2019-11-05T19:46:54Z</time>
      </trkpt>
      <trkpt lat="44.02978" lon="1.67331">
        <ele>179</ele>
        <time>2019-11-05T19:47:02Z</time>
      </trkpt>
      <trkpt lat="44.02988" lon="1.6731">
        <ele>173</ele>
        <time>2019-11-05T19:47:16Z</time>
      </trkpt>
      <trkpt lat="44.02999" lon="1.67294">
        <ele>170</ele>
        <time>2019-11-05T19:47:29Z</time>
      </trkpt>
      <trkpt lat="44.03037" lon="1.67251">
        <ele>162</ele>
        <time>2019-11-05T19:48:08Z</time>
      </trkpt>
      <trkpt lat="44.03077" lon="1.67237">
        <ele>163</ele>
        <time>2019-11-05T19:48:41Z</time>
      </trkpt>
      <trkpt lat="44.03101" lon="1.67221">
        <ele>161</ele>
        <time>2019-11-05T19:49:03Z</time>
      </trkpt>
      <trkpt lat="44.03121" lon="1.67213">
        <ele>161</ele>
        <time>2019-11-05T19:49:19Z</time>
      </trkpt>
      <trkpt lat="44.03165" lon="1.67187">
        <ele>162</ele>
        <time>2019-11-05T19:49:58Z</time>
      </trkpt>
      <trkpt lat="44.03191" lon="1.67161">
        <ele>158</ele>
        <time>2019-11-05T19:50:23Z</time>
      </trkpt>
      <trkpt lat="44.03203" lon="1.6716">
        <ele>157</ele>
        <time>2019-11-05T19:50:33Z</time>
      </trkpt>
      <trkpt lat="44.03211" lon="1.67154">
        <ele>155</ele>
        <time>2019-11-05T19:50:40Z</time>
      </trkpt>
      <trkpt lat="44.0322" lon="1.67145">
        <ele>154</ele>
        <time>2019-11-05T19:50:49Z</time>
      </trkpt>
      <trkpt lat="44.03229" lon="1.67122">
        <ele>151</ele>
        <time>2019-11-05T19:51:04Z</time>
      </trkpt>
      <trkpt lat="44.03236" lon="1.67111">
        <ele>150</ele>
        <time>2019-11-05T19:51:13Z</time>
      </trkpt>
      <trkpt lat="44.03291" lon="1.67045">
        <ele>138</ele>
        <time>2019-11-05T19:52:11Z</time>
      </trkpt>
      <trkpt lat="44.03318" lon="1.67023">
        <ele>134</ele>
        <time>2019-11-05T19:52:36Z</time>
      </trkpt>
      <trkpt lat="44.03338" lon="1.6699">
        <ele>131</ele>
        <time>2019-11-05T19:53:01Z</time>
      </trkpt>
      <trkpt lat="44.03352" lon="1.66975">
        <ele>129</ele>
        <time>2019-11-05T19:53:15Z</time>
      </trkpt>
      <trkpt lat="44.03378" lon="1.66962">
        <ele>127</ele>
        <time>2019-11-05T19:53:37Z</time>
      </trkpt>
      <trkpt lat="44.03378" lon="1.66973">
        <ele>128</ele>
        <time>2019-11-05T19:53:43Z</time>
      </trkpt>
      <trkpt lat="44.03455" lon="1.66975">
        <ele>126</ele>
        <time>2019-11-05T19:54:45Z</time>
      </trkpt>
      <trkpt lat="44.03495" lon="1.6698">
        <ele>126</ele>
        <time>2019-11-05T19:55:17Z</time>
      </trkpt>
      <trkpt lat="44.03505" lon="1.66984">
        <ele>126</ele>
        <time>2019-11-05T19:55:25Z</time>
      </trkpt>
      <trkpt lat="44.03518" lon="1.66978">
        <ele>125</ele>
        <time>2019-11-05T19:55:36Z</time>
      </trkpt>
      <trkpt lat="44.03533" lon="1.66984">
        <ele>125</ele>
        <time>2019-11-05T19:55:49Z</time>
      </trkpt>
      <trkpt lat="44.03548" lon="1.66985">
        <ele>125</ele>
        <time>2019-11-05T19:56:01Z</time>
      </trkpt>
      <trkpt lat="44.03558" lon="1.66985">
        <ele>125</ele>
        <time>2019-11-05T19:56:09Z</time>
      </trkpt>
      <trkpt lat="44.03562" lon="1.66969">
        <ele>124</ele>
        <time>2019-11-05T19:56:19Z</time>
      </trkpt>
      <trkpt lat="44.03574" lon="1.66966">
        <ele>123</ele>
        <time>2019-11-05T19:56:28Z</time>
      </trkpt>
      <trkpt lat="44.03586" lon="1.6698">
        <ele>124</ele>
        <time>2019-11-05T19:56:41Z</time>
      </trkpt>
      <trkpt lat="44.03595" lon="1.66982">
        <ele>123</ele>
        <time>2019-11-05T19:56:48Z</time>
      </trkpt>
      <trkpt lat="44.03607" lon="1.66989">
        <ele>123</ele>
        <time>2019-11-05T19:56:59Z</time>
      </trkpt>
      <trkpt lat="44.0362" lon="1.67003">
        <ele>122</ele>
        <time>2019-11-05T19:57:12Z</time>
      </trkpt>
      <trkpt lat="44.03629" lon="1.67001">
        <ele>121</ele>
        <time>2019-11-05T19:57:19Z</time>
      </trkpt>
      <trkpt lat="44.03698" lon="1.67029">
        <ele>117</ele>
        <time>2019-11-05T19:58:17Z</time>
      </trkpt>
      <trkpt lat="44.03723" lon="1.67032">
        <ele>115</ele>
        <time>2019-11-05T19:58:37Z</time>
      </trkpt>
      <trkpt lat="44.03741" lon="1.67037">
        <ele>114</ele>
        <time>2019-11-05T19:58:51Z</time>
      </trkpt>
      <trkpt lat="44.03826" lon="1.67127">
        <ele>114</ele>
        <time>2019-11-05T20:00:17Z</time>
      </trkpt>
      <trkpt lat="44.03937" lon="1.67252">
        <ele>116</ele>
        <time>2019-11-05T20:02:11Z</time>
      </trkpt>
      <trkpt lat="44.03962" lon="1.67276">
        <ele>117</ele>
        <time>2019-11-05T20:02:36Z</time>
      </trkpt>
      <trkpt lat="44.03984" lon="1.67281">
        <ele>118</ele>
        <time>2019-11-05T20:02:53Z</time>
      </trkpt>
      <trkpt lat="44.04025" lon="1.67279">
        <ele>118</ele>
        <time>2019-11-05T20:03:26Z</time>
      </trkpt>
      <trkpt lat="44.04137" lon="1.67266">
        <ele>123</ele>
        <time>2019-11-05T20:04:56Z</time>
      </trkpt>
      <trkpt lat="44.04157" lon="1.67253">
        <ele>123</ele>
        <time>2019-11-05T20:05:14Z</time>
      </trkpt>
      <trkpt lat="44.04188" lon="1.67225">
        <ele>125</ele>
        <time>2019-11-05T20:05:44Z</time>
      </trkpt>
      <trkpt lat="44.04253" lon="1.67154">
        <ele>119</ele>
        <time>2019-11-05T20:06:50Z</time>
      </trkpt>
      <trkpt lat="44.04269" lon="1.67141">
        <ele>119</ele>
        <time>2019-11-05T20:07:05Z</time>
      </trkpt>
      <trkpt lat="44.04306" lon="1.67124">
        <ele>119</ele>
        <time>2019-11-05T20:07:36Z</time>
      </trkpt>
      <trkpt lat="44.04366" lon="1.67091">
        <ele>118</ele>
        <time>2019-11-05T20:08:27Z</time>
      </trkpt>
      <trkpt lat="44.04402" lon="1.67082">
        <ele>118</ele>
        <time>2019-11-05T20:08:57Z</time>
      </trkpt>
      <trkpt lat="44.04437" lon="1.67063">
        <ele>116</ele>
        <time>2019-11-05T20:09:27Z</time>
      </trkpt>
      <trkpt lat="44.04462" lon="1.67057">
        <ele>114</ele>
        <time>2019-11-05T20:09:47Z</time>
      </trkpt>
      <trkpt lat="44.04471" lon="1.67042">
        <ele>113</ele>
        <time>2019-11-05T20:09:58Z</time>
      </trkpt>
      <trkpt lat="44.04494" lon="1.66978">
        <ele>111</ele>
        <time>2019-11-05T20:10:40Z</time>
      </trkpt>
      <trkpt lat="44.04505" lon="1.6696">
        <ele>113</ele>
        <time>2019-11-05T20:10:53Z</time>
      </trkpt>
      <trkpt lat="44.0452" lon="1.66949">
        <ele>117</ele>
        <time>2019-11-05T20:11:07Z</time>
      </trkpt>
      <trkpt lat="44.0459" lon="1.67032">
        <ele>116</ele>
        <time>2019-11-05T20:12:20Z</time>
      </trkpt>
      <trkpt lat="44.04605" lon="1.67071">
        <ele>114</ele>
        <time>2019-11-05T20:12:46Z</time>
      </trkpt>
      <trkpt lat="44.0462" lon="1.67098">
        <ele>114</ele>
        <time>2019-11-05T20:13:05Z</time>
      </trkpt>
      <trkpt lat="44.04634" lon="1.67134">
        <ele>114</ele>
        <time>2019-11-05T20:13:29Z</time>
      </trkpt>
      <trkpt lat="44.04691" lon="1.67216">
        <ele>115</ele>
        <time>2019-11-05T20:14:35Z</time>
      </trkpt>
      <trkpt lat="44.04702" lon="1.67237">
        <ele>114</ele>
        <time>2019-11-05T20:14:50Z</time>
      </trkpt>
      <trkpt lat="44.04721" lon="1.67287">
        <ele>113</ele>
        <time>2019-11-05T20:15:22Z</time>
      </trkpt>
      <trkpt lat="44.0475" lon="1.67332">
        <ele>111</ele>
        <time>2019-11-05T20:15:57Z</time>
      </trkpt>
      <trkpt lat="44.04762" lon="1.6736">
        <ele>112</ele>
        <time>2019-11-05T20:16:16Z</time>
      </trkpt>
      <trkpt lat="44.048" lon="1.67373">
        <ele>112</ele>
        <time>2019-11-05T20:16:47Z</time>
      </trkpt>
      <trkpt lat="44.04824" lon="1.67374">
        <ele>112</ele>
        <time>2019-11-05T20:17:06Z</time>
      </trkpt>
      <trkpt lat="44.04861" lon="1.67373">
        <ele>112</ele>
        <time>2019-11-05T20:17:36Z</time>
      </trkpt>
      <trkpt lat="44.04884" lon="1.67365">
        <ele>111</ele>
        <time>2019-11-05T20:17:55Z</time>
      </trkpt>
      <trkpt lat="44.04911" lon="1.67347">
        <ele>109</ele>
        <time>2019-11-05T20:18:19Z</time>
      </trkpt>
      <trkpt lat="44.04935" lon="1.67341">
        <ele>109</ele>
        <time>2019-11-05T20:18:38Z</time>
      </trkpt>
      <trkpt lat="44.04955" lon="1.67323">
        <ele>109</ele>
        <time>2019-11-05T20:18:57Z</time>
      </trkpt>
      <trkpt lat="44.04979" lon="1.67275">
        <ele>112</ele>
        <time>2019-11-05T20:19:31Z</time>
      </trkpt>
      <trkpt lat="44.05008" lon="1.67244">
        <ele>111</ele>
        <time>2019-11-05T20:20:00Z</time>
      </trkpt>
      <trkpt lat="44.05027" lon="1.67218">
        <ele>112</ele>
        <time>2019-11-05T20:20:22Z</time>
      </trkpt>
      <trkpt lat="44.05057" lon="1.67156">
        <ele>113</ele>
        <time>2019-11-05T20:21:05Z</time>
      </trkpt>
      <trkpt lat="44.0507" lon="1.67149">
        <ele>113</ele>
        <time>2019-11-05T20:21:16Z</time>
      </trkpt>
      <trkpt lat="44.05084" lon="1.6718">
        <ele>108</ele>
        <time>2019-11-05T20:21:37Z</time>
      </trkpt>
      <trkpt lat="44.05101" lon="1.67206">
        <ele>107</ele>
        <time>2019-11-05T20:21:57Z</time>
      </trkpt>
      <trkpt lat="44.05115" lon="1.67188">
        <ele>107</ele>
        <time>2019-11-05T20:22:12Z</time>
      </trkpt>
      <trkpt lat="44.05128" lon="1.67183">
        <ele>107</ele>
        <time>2019-11-05T20:22:23Z</time>
      </trkpt>
      <trkpt lat="44.05151" lon="1.67157">
        <ele>106</ele>
        <time>2019-11-05T20:22:47Z</time>
      </trkpt>
      <trkpt lat="44.05166" lon="1.67148">
        <ele>107</ele>
        <time>2019-11-05T20:23:00Z</time>
      </trkpt>
      <trkpt lat="44.05174" lon="1.67149">
        <ele>106</ele>
        <time>2019-11-05T20:23:06Z</time>
      </trkpt>
      <trkpt lat="44.05205" lon="1.67136">
        <ele>107</ele>
        <time>2019-11-05T20:23:32Z</time>
      </trkpt>
      <trkpt lat="44.05243" lon="1.67134">
        <ele>107</ele>
        <time>2019-11-05T20:24:03Z</time>
      </trkpt>
      <trkpt lat="44.0526" lon="1.67136">
        <ele>106</ele>
        <time>2019-11-05T20:24:16Z</time>
      </trkpt>
      <trkpt lat="44.05308" lon="1.67098">
        <ele>106</ele>
        <time>2019-11-05T20:25:01Z</time>
      </trkpt>
      <trkpt lat="44.05315" lon="1.67088">
        <ele>106</ele>
        <time>2019-11-05T20:25:09Z</time>
      </trkpt>
      <trkpt lat="44.05317" lon="1.67072">
        <ele>106</ele>
        <time>2019-11-05T20:25:18Z</time>
      </trkpt>
      <trkpt lat="44.05324" lon="1.67071">
        <ele>106</ele>
        <time>2019-11-05T20:25:24Z</time>
      </trkpt>
      <trkpt lat="44.05303" lon="1.67043">
        <ele>109</ele>
        <time>2019-11-05T20:25:47Z</time>
      </trkpt>
      <trkpt lat="44.05296" lon="1.6703">
        <ele>110</ele>
        <time>2019-11-05T20:25:56Z</time>
      </trkpt>
      <trkpt lat="44.05297" lon="1.6702">
        <ele>111</ele>
        <time>2019-11-05T20:26:02Z</time>
      </trkpt>
      <trkpt lat="44.05304" lon="1.67003">
        <ele>111</ele>
        <time>2019-11-05T20:26:13Z</time>
      </trkpt>
      <trkpt lat="44.05328" lon="1.66976">
        <ele>114</ele>
        <time>2019-11-05T20:26:38Z</time>
      </trkpt>
      <trkpt lat="44.0534" lon="1.66955">
        <ele>116</ele>
        <time>2019-11-05T20:26:54Z</time>
      </trkpt>
      <trkpt lat="44.05351" lon="1.66945">
        <ele>116</ele>
        <time>2019-11-05T20:27:04Z</time>
      </trkpt>
      <trkpt lat="44.05374" lon="1.6691">
        <ele>118</ele>
        <time>2019-11-05T20:27:31Z</time>
      </trkpt>
      <trkpt lat="44.05392" lon="1.66889">
        <ele>117</ele>
        <time>2019-11-05T20:27:50Z</time>
      </trkpt>
      <trkpt lat="44.05412" lon="1.66847">
        <ele>119</ele>
        <time>2019-11-05T20:28:19Z</time>
      </trkpt>
      <trkpt lat="44.05418" lon="1.66822">
        <ele>121</ele>
        <time>2019-11-05T20:28:34Z</time>
      </trkpt>
      <trkpt lat="44.05416" lon="1.668">
        <ele>125</ele>
        <time>2019-11-05T20:28:47Z</time>
      </trkpt>
      <trkpt lat="44.05429" lon="1.66782">
        <ele>128</ele>
        <time>2019-11-05T20:29:02Z</time>
      </trkpt>
      <trkpt lat="44.05466" lon="1.66826">
        <ele>118</ele>
        <time>2019-11-05T20:29:41Z</time>
      </trkpt>
      <trkpt lat="44.0548" lon="1.66846">
        <ele>114</ele>
        <time>2019-11-05T20:29:57Z</time>
      </trkpt>
      <trkpt lat="44.05495" lon="1.66875">
        <ele>109</ele>
        <time>2019-11-05T20:30:17Z</time>
      </trkpt>
      <trkpt lat="44.05512" lon="1.66895">
        <ele>106</ele>
        <time>2019-11-05T20:30:35Z</time>
      </trkpt>
      <trkpt lat="44.05525" lon="1.66906">
        <ele>105</ele>
        <time>2019-11-05T20:30:47Z</time>
      </trkpt>
      <trkpt lat="44.05537" lon="1.66926">
        <ele>104</ele>
        <time>2019-11-05T20:31:02Z</time>
      </trkpt>
      <trkpt lat="44.05546" lon="1.66945">
        <ele>104</ele>
        <time>2019-11-05T20:31:15Z</time>
      </trkpt>
      <trkpt lat="44.05551" lon="1.66966">
        <ele>104</ele>
        <time>2019-11-05T20:31:28Z</time>
      </trkpt>
      <trkpt lat="44.05557" lon="1.67023">
        <ele>104</ele>
        <time>2019-11-05T20:32:01Z</time>
      </trkpt>
      <trkpt lat="44.05562" lon="1.6703">
        <ele>105</ele>
        <time>2019-11-05T20:32:07Z</time>
      </trkpt>
      <trkpt lat="44.05569" lon="1.67034">
        <ele>105</ele>
        <time>2019-11-05T20:32:13Z</time>
      </trkpt>
      <trkpt lat="44.05582" lon="1.67032">
        <ele>105</ele>
        <time>2019-11-05T20:32:24Z</time>
      </trkpt>
      <trkpt lat="44.05591" lon="1.67041">
        <ele>105</ele>
        <time>2019-11-05T20:32:32Z</time>
      </trkpt>
      <trkpt lat="44.05612" lon="1.67045">
        <ele>106</ele>
        <time>2019-11-05T20:32:49Z</time>
      </trkpt>
      <trkpt lat="44.05629" lon="1.67046">
        <ele>106</ele>
        <time>2019-11-05T20:33:03Z</time>
      </trkpt>
      <trkpt lat="44.05634" lon="1.67037">
        <ele>105</ele>
        <time>2019-11-05T20:33:10Z</time>
      </trkpt>
      <trkpt lat="44.0563" lon="1.67005">
        <ele>104</ele>
        <time>2019-11-05T20:33:28Z</time>
      </trkpt>
      <trkpt lat="44.05628" lon="1.66955">
        <ele>103</ele>
        <time>2019-11-05T20:33:57Z</time>
      </trkpt>
      <trkpt lat="44.0564" lon="1.66952">
        <ele>103</ele>
        <time>2019-11-05T20:34:07Z</time>
      </trkpt>
      <trkpt lat="44.05658" lon="1.66955">
        <ele>103</ele>
        <time>2019-11-05T20:34:21Z</time>
      </trkpt>
      <trkpt lat="44.05679" lon="1.66954">
        <ele>104</ele>
        <time>2019-11-05T20:34:38Z</time>
      </trkpt>
      <trkpt lat="44.05695" lon="1.66956">
        <ele>106</ele>
        <time>2019-11-05T20:34:51Z</time>
      </trkpt>
      <trkpt lat="44.05706" lon="1.66954">
        <ele>107</ele>
        <time>2019-11-05T20:35:00Z</time>
      </trkpt>
      <trkpt lat="44.0573" lon="1.66935">
        <ele>109</ele>
        <time>2019-11-05T20:35:22Z</time>
      </trkpt>
      <trkpt lat="44.0574" lon="1.66924">
        <ele>110</ele>
        <time>2019-11-05T20:35:32Z</time>
      </trkpt>
      <trkpt lat="44.05745" lon="1.66915">
        <ele>110</ele>
        <time>2019-11-05T20:35:39Z</time>
      </trkpt>
      <trkpt lat="44.05748" lon="1.66901">
        <ele>110</ele>
        <time>2019-11-05T20:35:47Z</time>
      </trkpt>
      <trkpt lat="44.05764" lon="1.66899">
        <ele>112</ele>
        <time>2019-11-05T20:36:00Z</time>
      </trkpt>
      <trkpt lat="44.05819" lon="1.669">
        <ele>119</ele>
        <time>2019-11-05T20:36:44Z</time>
      </trkpt>
      <trkpt lat="44.05858" lon="1.66904">
        <ele>124</ele>
        <time>2019-11-05T20:37:15Z</time>
      </trkpt>
      <trkpt lat="44.05924" lon="1.66916">
        <ele>133</ele>
        <time>2019-11-05T20:38:09Z</time>
      </trkpt>
      <trkpt lat="44.05929" lon="1.66929">
        <ele>134</ele>
        <time>2019-11-05T20:38:17Z</time>
      </trkpt>
      <trkpt lat="44.05938" lon="1.66931">
        <ele>135</ele>
        <time>2019-11-05T20:38:25Z</time>
      </trkpt>
      <trkpt lat="44.05944" lon="1.66944">
        <ele>136</ele>
        <time>2019-11-05T20:38:33Z</time>
      </trkpt>
      <trkpt lat="44.05951" lon="1.66948">
        <ele>137</ele>
        <time>2019-11-05T20:38:39Z</time>
      </trkpt>
      <trkpt lat="44.05961" lon="1.66948">
        <ele>138</ele>
        <time>2019-11-05T20:38:47Z</time>
      </trkpt>
      <trkpt lat="44.05973" lon="1.66932">
        <ele>140</ele>
        <time>2019-11-05T20:39:01Z</time>
      </trkpt>
      <trkpt lat="44.05988" lon="1.66928">
        <ele>142</ele>
        <time>2019-11-05T20:39:13Z</time>
      </trkpt>
      <trkpt lat="44.06001" lon="1.66918">
        <ele>145</ele>
        <time>2019-11-05T20:39:25Z</time>
      </trkpt>
      <trkpt lat="44.0606" lon="1.66916">
        <ele>154</ele>
        <time>2019-11-05T20:40:12Z</time>
      </trkpt>
      <trkpt lat="44.06087" lon="1.669">
        <ele>155</ele>
        <time>2019-11-05T20:40:36Z</time>
      </trkpt>
      <trkpt lat="44.06097" lon="1.669">
        <ele>156</ele>
        <time>2019-11-05T20:40:44Z</time>
      </trkpt>
      <trkpt lat="44.06096" lon="1.66908">
        <ele>158</ele>
        <time>2019-11-05T20:40:48Z</time>
      </trkpt>
      <trkpt lat="44.06082" lon="1.66921">
        <ele>157</ele>
        <time>2019-11-05T20:41:02Z</time>
      </trkpt>
      <trkpt lat="44.06069" lon="1.66958">
        <ele>149</ele>
        <time>2019-11-05T20:41:25Z</time>
      </trkpt>
      <trkpt lat="44.06081" lon="1.66962">
        <ele>150</ele>
        <time>2019-11-05T20:41:35Z</time>
      </trkpt>
      <trkpt lat="44.06087" lon="1.66969">
        <ele>149</ele>
        <time>2019-11-05T20:41:42Z</time>
      </trkpt>
      <trkpt lat="44.06102" lon="1.66974">
        <ele>149</ele>
        <time>2019-11-05T20:41:54Z</time>
      </trkpt>
      <trkpt lat="44.06114" lon="1.66965">
        <ele>152</ele>
        <time>2019-11-05T20:42:05Z</time>
      </trkpt>
      <trkpt lat="44.06128" lon="1.66948">
        <ele>157</ele>
        <time>2019-11-05T20:42:20Z</time>
      </trkpt>
      <trkpt lat="44.06143" lon="1.6694">
        <ele>160</ele>
        <time>2019-11-05T20:42:33Z</time>
      </trkpt>
      <trkpt lat="44.06172" lon="1.66939">
        <ele>163</ele>
        <time>2019-11-05T20:42:56Z</time>
      </trkpt>
      <trkpt lat="44.06188" lon="1.66941">
        <ele>164</ele>
        <time>2019-11-05T20:43:09Z</time>
      </trkpt>
      <trkpt lat="44.06205" lon="1.66948">
        <ele>165</ele>
        <time>2019-11-05T20:43:23Z</time>
      </trkpt>
      <trkpt lat="44.06233" lon="1.66952">
        <ele>168</ele>
        <time>2019-11-05T20:43:45Z</time>
      </trkpt>
      <trkpt lat="44.06273" lon="1.66972">
        <ele>168</ele>
        <time>2019-11-05T20:44:19Z</time>
      </trkpt>
      <trkpt lat="44.06305" lon="1.6698">
        <ele>169</ele>
        <time>2019-11-05T20:44:46Z</time>
      </trkpt>
      <trkpt lat="44.06348" lon="1.66976">
        <ele>173</ele>
        <time>2019-11-05T20:45:20Z</time>
      </trkpt>
      <trkpt lat="44.06409" lon="1.66955">
        <ele>177</ele>
        <time>2019-11-05T20:46:10Z</time>
      </trkpt>
      <trkpt lat="44.06427" lon="1.66952">
        <ele>178</ele>
        <time>2019-11-05T20:46:25Z</time>
      </trkpt>
      <trkpt lat="44.06447" lon="1.66955">
        <ele>178</ele>
        <time>2019-11-05T20:46:41Z</time>
      </trkpt>
      <trkpt lat="44.06475" lon="1.66967">
        <ele>180</ele>
        <time>2019-11-05T20:47:04Z</time>
      </trkpt>
      <trkpt lat="44.06507" lon="1.66975">
        <ele>181</ele>
        <time>2019-11-05T20:47:30Z</time>
      </trkpt>
      <trkpt lat="44.06528" lon="1.66985">
        <ele>182</ele>
        <time>2019-11-05T20:47:48Z</time>
      </trkpt>
      <trkpt lat="44.06569" lon="1.67017">
        <ele>186</ele>
        <time>2019-11-05T20:48:26Z</time>
      </trkpt>
      <trkpt lat="44.06597" lon="1.67047">
        <ele>192</ele>
        <time>2019-11-05T20:48:54Z</time>
      </trkpt>
      <trkpt lat="44.06615" lon="1.67057">
        <ele>195</ele>
        <time>2019-11-05T20:49:10Z</time>
      </trkpt>
      <trkpt lat="44.06672" lon="1.67104">
        <ele>203</ele>
        <time>2019-11-05T20:50:03Z</time>
      </trkpt>
      <trkpt lat="44.06686" lon="1.67112">
        <ele>204</ele>
        <time>2019-11-05T20:50:15Z</time>
      </trkpt>
      <trkpt lat="44.06694" lon="1.67125">
        <ele>204</ele>
        <time>2019-11-05T20:50:25Z</time>
      </trkpt>
      <trkpt lat="44.06711" lon="1.67144">
        <ele>205</ele>
        <time>2019-11-05T20:50:42Z</time>
      </trkpt>
      <trkpt lat="44.0673" lon="1.67148">
        <ele>206</ele>
        <time>2019-11-05T20:50:58Z</time>
      </trkpt>
      <trkpt lat="44.06786" lon="1.67175">
        <ele>211</ele>
        <time>2019-11-05T20:51:45Z</time>
      </trkpt>
      <trkpt lat="44.06805" lon="1.67191">
        <ele>211</ele>
        <time>2019-11-05T20:52:03Z</time>
      </trkpt>
      <trkpt lat="44.06851" lon="1.67239">
        <ele>214</ele>
        <time>2019-11-05T20:52:49Z</time>
      </trkpt>
      <trkpt lat="44.0688" lon="1.6726">
        <ele>217</ele>
        <time>2019-11-05T20:53:15Z</time>
      </trkpt>
      <trkpt lat="44.06906" lon="1.67312">
        <ele>216</ele>
        <time>2019-11-05T20:53:51Z</time>
      </trkpt>
      <trkpt lat="44.06925" lon="1.67376">
        <ele>215</ele>
        <time>2019-11-05T20:54:31Z</time>
      </trkpt>
      <trkpt lat="44.06953" lon="1.67442">
        <ele>216</ele>
        <time>2019-11-05T20:55:15Z</time>
      </trkpt>
      <trkpt lat="44.06977" lon="1.67488">
        <ele>221</ele>
        <time>2019-11-05T20:55:48Z</time>
      </trkpt>
      <trkpt lat="44.07002" lon="1.67544">
        <ele>228</ele>
        <time>2019-11-05T20:56:26Z</time>
      </trkpt>
      <trkpt lat="44.0703" lon="1.67632">
        <ele>229</ele>
        <time>2019-11-05T20:57:21Z</time>
      </trkpt>
      <trkpt lat="44.07062" lon="1.67721">
        <ele>234</ele>
        <time>2019-11-05T20:58:19Z</time>
      </trkpt>
      <trkpt lat="44.07075" lon="1.67771">
        <ele>236</ele>
        <time>2019-11-05T20:58:49Z</time>
      </trkpt>
      <trkpt lat="44.07088" lon="1.67802">
        <ele>237</ele>
        <time>2019-11-05T20:59:10Z</time>
      </trkpt>
      <trkpt lat="44.07118" lon="1.67854">
        <ele>236</ele>
        <time>2019-11-05T20:59:48Z</time>
      </trkpt>
      <trkpt lat="44.07134" lon="1.67876">
        <ele>235</ele>
        <time>2019-11-05T21:00:06Z</time>
      </trkpt>
      <trkpt lat="44.07162" lon="1.67906">
        <ele>238</ele>
        <time>2019-11-05T21:00:35Z</time>
      </trkpt>
      <trkpt lat="44.07186" lon="1.67921">
        <ele>239</ele>
        <time>2019-11-05T21:00:56Z</time>
      </trkpt>
      <trkpt lat="44.07205" lon="1.67939">
        <ele>239</ele>
        <time>2019-11-05T21:01:14Z</time>
      </trkpt>
      <trkpt lat="44.07222" lon="1.6795">
        <ele>240</ele>
        <time>2019-11-05T21:01:29Z</time>
      </trkpt>
      <trkpt lat="44.07276" lon="1.68025">
        <ele>239</ele>
        <time>2019-11-05T21:02:30Z</time>
      </trkpt>
      <trkpt lat="44.07287" lon="1.68055">
        <ele>237</ele>
        <time>2019-11-05T21:02:49Z</time>
      </trkpt>
      <trkpt lat="44.07309" lon="1.68059">
        <ele>240</ele>
        <time>2019-11-05T21:03:07Z</time>
      </trkpt>
      <trkpt lat="44.07353" lon="1.68103">
        <ele>241</ele>
        <time>2019-11-05T21:03:51Z</time>
      </trkpt>
      <trkpt lat="44.07361" lon="1.68122">
        <ele>239</ele>
        <time>2019-11-05T21:04:03Z</time>
      </trkpt>
      <trkpt lat="44.07402" lon="1.68186">
        <ele>239</ele>
        <time>2019-11-05T21:04:53Z</time>
      </trkpt>
      <trkpt lat="44.07446" lon="1.68264">
        <ele>241</ele>
        <time>2019-11-05T21:05:50Z</time>
      </trkpt>
      <trkpt lat="44.07468" lon="1.68313">
        <ele>242</ele>
        <time>2019-11-05T21:06:23Z</time>
      </trkpt>
      <trkpt lat="44.0749" lon="1.68328">
        <ele>246</ele>
        <time>2019-11-05T21:06:42Z</time>
      </trkpt>
      <trkpt lat="44.07509" lon="1.68358">
        <ele>247</ele>
        <time>2019-11-05T21:07:05Z</time>
      </trkpt>
      <trkpt lat="44.07534" lon="1.68376">
        <ele>248</ele>
        <time>2019-11-05T21:07:28Z</time>
      </trkpt>
      <trkpt lat="44.07572" lon="1.68417">
        <ele>252</ele>
        <time>2019-11-05T21:08:07Z</time>
      </trkpt>
      <trkpt lat="44.07629" lon="1.68462">
        <ele>255</ele>
        <time>2019-11-05T21:08:59Z</time>
      </trkpt>
      <trkpt lat="44.0767" lon="1.68491">
        <ele>257</ele>
        <time>2019-11-05T21:09:36Z</time>
      </trkpt>
      <trkpt lat="44.07695" lon="1.68532">
        <ele>257</ele>
        <time>2019-11-05T21:10:07Z</time>
      </trkpt>
      <trkpt lat="44.0773" lon="1.6857">
        <ele>257</ele>
        <time>2019-11-05T21:10:42Z</time>
      </trkpt>
      <trkpt lat="44.07771" lon="1.68603">
        <ele>259</ele>
        <time>2019-11-05T21:11:20Z</time>
      </trkpt>
      <trkpt lat="44.07823" lon="1.68602">
        <ele>260</ele>
        <time>2019-11-05T21:12:02Z</time>
      </trkpt>
      <trkpt lat="44.07855" lon="1.6864">
        <ele>262</ele>
        <time>2019-11-05T21:12:36Z</time>
      </trkpt>
      <trkpt lat="44.07877" lon="1.68658">
        <ele>264</ele>
        <time>2019-11-05T21:12:56Z</time>
      </trkpt>
      <trkpt lat="44.07891" lon="1.68684">
        <ele>265</ele>
        <time>2019-11-05T21:13:15Z</time>
      </trkpt>
      <trkpt lat="44.0791" lon="1.68703">
        <ele>267</ele>
        <time>2019-11-05T21:13:33Z</time>
      </trkpt>
      <trkpt lat="44.07921" lon="1.68729">
        <ele>268</ele>
        <time>2019-11-05T21:13:51Z</time>
      </trkpt>
      <trkpt lat="44.07978" lon="1.68759">
        <ele>270</ele>
        <time>2019-11-05T21:14:40Z</time>
      </trkpt>
      <trkpt lat="44.08014" lon="1.68773">
        <ele>270</ele>
        <time>2019-11-05T21:15:09Z</time>
      </trkpt>
      <trkpt lat="44.08076" lon="1.6878">
        <ele>270</ele>
        <time>2019-11-05T21:15:59Z</time>
      </trkpt>
      <trkpt lat="44.08106" lon="1.68787">
        <ele>271</ele>
        <time>2019-11-05T21:16:24Z</time>
      </trkpt>
      <trkpt lat="44.08193" lon="1.68832">
        <ele>271</ele>
        <time>2019-11-05T21:17:38Z</time>
      </trkpt>
      <trkpt lat="44.0828" lon="1.68895">
        <ele>269</ele>
        <time>2019-11-05T21:18:56Z</time>
      </trkpt>
      <trkpt lat="44.08419" lon="1.68972">
        <ele>271</ele>
        <time>2019-11-05T21:20:56Z</time>
      </trkpt>
      <trkpt lat="44.08398" lon="1.69063">
        <ele>272</ele>
        <time>2019-11-05T21:21:51Z</time>
      </trkpt>
      <trkpt lat="44.08396" lon="1.69146">
        <ele>274</ele>
        <time>2019-11-05T21:22:39Z</time>
      </trkpt>
      <trkpt lat="44.08391" lon="1.6918">
        <ele>275</ele>
        <time>2019-11-05T21:22:59Z</time>
      </trkpt>
      <trkpt lat="44.08369" lon="1.69266">
        <ele>276</ele>
        <time>2019-11-05T21:23:51Z</time>
      </trkpt>
      <trkpt lat="44.08362" lon="1.69353">
        <ele>275</ele>
        <time>2019-11-05T21:24:42Z</time>
      </trkpt>
      <trkpt lat="44.08378" lon="1.69387">
        <ele>275</ele>
        <time>2019-11-05T21:25:05Z</time>
      </trkpt>
      <trkpt lat="44.08386" lon="1.6939">
        <ele>274</ele>
        <time>2019-11-05T21:25:12Z</time>
      </trkpt>
      <trkpt lat="44.08406" lon="1.69451">
        <ele>272</ele>
        <time>2019-11-05T21:25:50Z</time>
      </trkpt>
      <trkpt lat="44.08406" lon="1.69466">
        <ele>271</ele>
        <time>2019-11-05T21:25:59Z</time>
      </trkpt>
      <trkpt lat="44.0842" lon="1.6948">
        <ele>271</ele>
        <time>2019-11-05T21:26:13Z</time>
      </trkpt>
      <trkpt lat="44.08428" lon="1.69499">
        <ele>270</ele>
        <time>2019-11-05T21:26:25Z</time>
      </trkpt>
      <trkpt lat="44.08447" lon="1.69507">
        <ele>270</ele>
        <time>2019-11-05T21:26:41Z</time>
      </trkpt>
      <trkpt lat="44.08461" lon="1.69529">
        <ele>269</ele>
        <time>2019-11-05T21:26:58Z</time>
      </trkpt>
      <trkpt lat="44.08442" lon="1.69571">
        <ele>267</ele>
        <time>2019-11-05T21:27:27Z</time>
      </trkpt>
      <trkpt lat="44.0842" lon="1.6959">
        <ele>266</ele>
        <time>2019-11-05T21:27:48Z</time>
      </trkpt>
      <trkpt lat="44.08401" lon="1.69631">
        <ele>263</ele>
        <time>2019-11-05T21:28:16Z</time>
      </trkpt>
      <trkpt lat="44.08364" lon="1.69684">
        <ele>260</ele>
        <time>2019-11-05T21:28:58Z</time>
      </trkpt>
      <trkpt lat="44.08337" lon="1.69775">
        <ele>256</ele>
        <time>2019-11-05T21:29:55Z</time>
      </trkpt>
      <trkpt lat="44.08332" lon="1.69877">
        <ele>254</ele>
        <time>2019-11-05T21:30:54Z</time>
      </trkpt>
      <trkpt lat="44.08333" lon="1.69997">
        <ele>263</ele>
        <time>2019-11-05T21:32:03Z</time>
      </trkpt>
      <trkpt lat="44.08352" lon="1.70039">
        <ele>268</ele>
        <time>2019-11-05T21:32:31Z</time>
      </trkpt>
      <trkpt lat="44.08361" lon="1.70076">
        <ele>271</ele>
        <time>2019-11-05T21:32:54Z</time>
      </trkpt>
      <trkpt lat="44.08369" lon="1.70144">
        <ele>278</ele>
        <time>2019-11-05T21:33:33Z</time>
      </trkpt>
      <trkpt lat="44.08383" lon="1.70189">
        <ele>281</ele>
        <time>2019-11-05T21:34:01Z</time>
      </trkpt>
      <trkpt lat="44.08381" lon="1.70275">
        <ele>288</ele>
        <time>2019-11-05T21:34:51Z</time>
      </trkpt>
      <trkpt lat="44.08375" lon="1.70294">
        <ele>290</ele>
        <time>2019-11-05T21:35:03Z</time>
      </trkpt>
      <trkpt lat="44.08368" lon="1.70415">
        <ele>297</ele>
        <time>2019-11-05T21:36:13Z</time>
      </trkpt>
      <trkpt lat="44.08371" lon="1.70464">
        <ele>300</ele>
        <time>2019-11-05T21:36:41Z</time>
      </trkpt>
      <trkpt lat="44.08369" lon="1.70513">
        <ele>302</ele>
        <time>2019-11-05T21:37:09Z</time>
      </trkpt>
      <trkpt lat="44.08375" lon="1.70599">
        <ele>303</ele>
        <time>2019-11-05T21:37:59Z</time>
      </trkpt>
      <trkpt lat="44.08372" lon="1.70682">
        <ele>302</ele>
        <time>2019-11-05T21:38:47Z</time>
      </trkpt>
      <trkpt lat="44.08378" lon="1.70761">
        <ele>302</ele>
        <time>2019-11-05T21:39:32Z</time>
      </trkpt>
      <trkpt lat="44.08346" lon="1.70814">
        <ele>301</ele>
        <time>2019-11-05T21:40:12Z</time>
      </trkpt>
      <trkpt lat="44.08327" lon="1.70852">
        <ele>300</ele>
        <time>2019-11-05T21:40:39Z</time>
      </trkpt>
      <trkpt lat="44.08314" lon="1.70871">
        <ele>300</ele>
        <time>2019-11-05T21:40:54Z</time>
      </trkpt>
      <trkpt lat="44.08314" lon="1.70935">
        <ele>297</ele>
        <time>2019-11-05T21:41:31Z</time>
      </trkpt>
      <trkpt lat="44.08301" lon="1.70962">
        <ele>296</ele>
        <time>2019-11-05T21:41:49Z</time>
      </trkpt>
      <trkpt lat="44.08282" lon="1.71018">
        <ele>293</ele>
        <time>2019-11-05T21:42:25Z</time>
      </trkpt>
      <trkpt lat="44.08263" lon="1.71086">
        <ele>290</ele>
        <time>2019-11-05T21:43:07Z</time>
      </trkpt>
      <trkpt lat="44.08189" lon="1.71407">
        <ele>283</ele>
        <time>2019-11-05T21:46:21Z</time>
      </trkpt>
      <trkpt lat="44.08187" lon="1.71509">
        <ele>281</ele>
        <time>2019-11-05T21:47:20Z</time>
      </trkpt>
      <trkpt lat="44.08177" lon="1.71581">
        <ele>283</ele>
        <time>2019-11-05T21:48:02Z</time>
      </trkpt>
      <trkpt lat="44.08177" lon="1.71607">
        <ele>282</ele>
        <time>2019-11-05T21:48:17Z</time>
      </trkpt>
      <trkpt lat="44.08215" lon="1.71671">
        <ele>280</ele>
        <time>2019-11-05T21:49:04Z</time>
      </trkpt>
      <trkpt lat="44.08259" lon="1.71734">
        <ele>277</ele>
        <time>2019-11-05T21:49:55Z</time>
      </trkpt>
      <trkpt lat="44.08292" lon="1.71802">
        <ele>276</ele>
        <time>2019-11-05T21:50:42Z</time>
      </trkpt>
      <trkpt lat="44.08317" lon="1.71843">
        <ele>279</ele>
        <time>2019-11-05T21:51:13Z</time>
      </trkpt>
      <trkpt lat="44.08311" lon="1.71907">
        <ele>275</ele>
        <time>2019-11-05T21:51:50Z</time>
      </trkpt>
      <trkpt lat="44.08334" lon="1.72042">
        <ele>282</ele>
        <time>2019-11-05T21:53:10Z</time>
      </trkpt>
      <trkpt lat="44.0834" lon="1.72095">
        <ele>280</ele>
        <time>2019-11-05T21:53:41Z</time>
      </trkpt>
      <trkpt lat="44.08374" lon="1.7212">
        <ele>280</ele>
        <time>2019-11-05T21:54:12Z</time>
      </trkpt>
      <trkpt lat="44.08397" lon="1.72151">
        <ele>278</ele>
        <time>2019-11-05T21:54:37Z</time>
      </trkpt>
      <trkpt lat="44.08405" lon="1.72177">
        <ele>276</ele>
        <time>2019-11-05T21:54:54Z</time>
      </trkpt>
      <trkpt lat="44.08413" lon="1.72192">
        <ele>274</ele>
        <time>2019-11-05T21:55:04Z</time>
      </trkpt>
      <trkpt lat="44.08419" lon="1.72226">
        <ele>269</ele>
        <time>2019-11-05T21:55:24Z</time>
      </trkpt>
      <trkpt lat="44.08438" lon="1.72274">
        <ele>266</ele>
        <time>2019-11-05T21:55:56Z</time>
      </trkpt>
      <trkpt lat="44.08449" lon="1.72278">
        <ele>268</ele>
        <time>2019-11-05T21:56:05Z</time>
      </trkpt>
      <trkpt lat="44.08466" lon="1.72297">
        <ele>270</ele>
        <time>2019-11-05T21:56:23Z</time>
      </trkpt>
      <trkpt lat="44.0845" lon="1.72346">
        <ele>264</ele>
        <time>2019-11-05T21:56:53Z</time>
      </trkpt>
      <trkpt lat="44.08442" lon="1.72387">
        <ele>260</ele>
        <time>2019-11-05T21:57:18Z</time>
      </trkpt>
      <trkpt lat="44.08439" lon="1.72453">
        <ele>256</ele>
        <time>2019-11-05T21:57:56Z</time>
      </trkpt>
      <trkpt lat="44.08451" lon="1.72488">
        <ele>257</ele>
        <time>2019-11-05T21:58:18Z</time>
      </trkpt>
      <trkpt lat="44.08466" lon="1.72565">
        <ele>250</ele>
        <time>2019-11-05T21:59:04Z</time>
      </trkpt>
      <trkpt lat="44.0848" lon="1.72614">
        <ele>246</ele>
        <time>2019-11-05T21:59:34Z</time>
      </trkpt>
      <trkpt lat="44.085" lon="1.72654">
        <ele>245</ele>
        <time>2019-11-05T22:00:03Z</time>
      </trkpt>
      <trkpt lat="44.08533" lon="1.72695">
        <ele>244</ele>
        <time>2019-11-05T22:00:38Z</time>
      </trkpt>
      <trkpt lat="44.0855" lon="1.72744">
        <ele>239</ele>
        <time>2019-11-05T22:01:09Z</time>
      </trkpt>
      <trkpt lat="44.08569" lon="1.72773">
        <ele>238</ele>
        <time>2019-11-05T22:01:32Z</time>
      </trkpt>
      <trkpt lat="44.0857" lon="1.72788">
        <ele>235</ele>
        <time>2019-11-05T22:01:40Z</time>
      </trkpt>
      <trkpt lat="44.08567" lon="1.72792">
        <ele>234</ele>
        <time>2019-11-05T22:01:44Z</time>
      </trkpt>
      <trkpt lat="44.08563" lon="1.72793">
        <ele>232</ele>
        <time>2019-11-05T22:01:47Z</time>
      </trkpt>
      <trkpt lat="44.08555" lon="1.72791">
        <ele>231</ele>
        <time>2019-11-05T22:01:54Z</time>
      </trkpt>
      <trkpt lat="44.08531" lon="1.72756">
        <ele>232</ele>
        <time>2019-11-05T22:02:21Z</time>
      </trkpt>
      <trkpt lat="44.08515" lon="1.72742">
        <ele>231</ele>
        <time>2019-11-05T22:02:37Z</time>
      </trkpt>
      <trkpt lat="44.08478" lon="1.72734">
        <ele>224</ele>
        <time>2019-11-05T22:03:06Z</time>
      </trkpt>
      <trkpt lat="44.08465" lon="1.72728">
        <ele>223</ele>
        <time>2019-11-05T22:03:17Z</time>
      </trkpt>
      <trkpt lat="44.08442" lon="1.72698">
        <ele>222</ele>
        <time>2019-11-05T22:03:43Z</time>
      </trkpt>
      <trkpt lat="44.08432" lon="1.72697">
        <ele>220</ele>
        <time>2019-11-05T22:03:51Z</time>
      </trkpt>
      <trkpt lat="44.08427" lon="1.72705">
        <ele>217</ele>
        <time>2019-11-05T22:03:57Z</time>
      </trkpt>
      <trkpt lat="44.08427" lon="1.72712">
        <ele>216</ele>
        <time>2019-11-05T22:04:01Z</time>
      </trkpt>
      <trkpt lat="44.08476" lon="1.7278">
        <ele>215</ele>
        <time>2019-11-05T22:04:56Z</time>
      </trkpt>
      <trkpt lat="44.08485" lon="1.72798">
        <ele>214</ele>
        <time>2019-11-05T22:05:09Z</time>
      </trkpt>
      <trkpt lat="44.08517" lon="1.72895">
        <ele>204</ele>
        <time>2019-11-05T22:06:10Z</time>
      </trkpt>
      <trkpt lat="44.08614" lon="1.73114">
        <ele>175</ele>
        <time>2019-11-05T22:08:38Z</time>
      </trkpt>
      <trkpt lat="44.08617" lon="1.73127">
        <ele>173</ele>
        <time>2019-11-05T22:08:46Z</time>
      </trkpt>
      <trkpt lat="44.08616" lon="1.73155">
        <ele>169</ele>
        <time>2019-11-05T22:09:02Z</time>
      </trkpt>
      <trkpt lat="44.08606" lon="1.73189">
        <ele>164</ele>
        <time>2019-11-05T22:09:23Z</time>
      </trkpt>
      <trkpt lat="44.08592" lon="1.73213">
        <ele>163</ele>
        <time>2019-11-05T22:09:41Z</time>
      </trkpt>
      <trkpt lat="44.0854" lon="1.73289">
        <ele>154</ele>
        <time>2019-11-05T22:10:41Z</time>
      </trkpt>
      <trkpt lat="44.08526" lon="1.733">
        <ele>152</ele>
        <time>2019-11-05T22:10:54Z</time>
      </trkpt>
      <trkpt lat="44.08506" lon="1.73304">
        <ele>152</ele>
        <time>2019-11-05T22:11:11Z</time>
      </trkpt>
      <trkpt lat="44.08483" lon="1.73298">
        <ele>150</ele>
        <time>2019-11-05T22:11:29Z</time>
      </trkpt>
      <trkpt lat="44.08473" lon="1.73292">
        <ele>149</ele>
        <time>2019-11-05T22:11:38Z</time>
      </trkpt>
      <trkpt lat="44.08462" lon="1.73278">
        <ele>149</ele>
        <time>2019-11-05T22:11:50Z</time>
      </trkpt>
      <trkpt lat="44.08436" lon="1.73228">
        <ele>149</ele>
        <time>2019-11-05T22:12:25Z</time>
      </trkpt>
      <trkpt lat="44.084" lon="1.73181">
        <ele>145</ele>
        <time>2019-11-05T22:13:05Z</time>
      </trkpt>
      <trkpt lat="44.0839" lon="1.73153">
        <ele>145</ele>
        <time>2019-11-05T22:13:23Z</time>
      </trkpt>
      <trkpt lat="44.08351" lon="1.73065">
        <ele>145</ele>
        <time>2019-11-05T22:14:22Z</time>
      </trkpt>
      <trkpt lat="44.08208" lon="1.72827">
        <ele>128</ele>
        <time>2019-11-05T22:17:21Z</time>
      </trkpt>
      <trkpt lat="44.08197" lon="1.72815">
        <ele>126</ele>
        <time>2019-11-05T22:17:32Z</time>
      </trkpt>
      <trkpt lat="44.08184" lon="1.72816">
        <ele>123</ele>
        <time>2019-11-05T22:17:42Z</time>
      </trkpt>
      <trkpt lat="44.08165" lon="1.72808">
        <ele>119</ele>
        <time>2019-11-05T22:17:58Z</time>
      </trkpt>
      <trkpt lat="44.08105" lon="1.72775">
        <ele>114</ele>
        <time>2019-11-05T22:18:50Z</time>
      </trkpt>
      <trkpt lat="44.08064" lon="1.72738">
        <ele>111</ele>
        <time>2019-11-05T22:19:29Z</time>
      </trkpt>
      <trkpt lat="44.08026" lon="1.72723">
        <ele>110</ele>
        <time>2019-11-05T22:20:01Z</time>
      </trkpt>
      <trkpt lat="44.07982" lon="1.72694">
        <ele>119</ele>
        <time>2019-11-05T22:20:40Z</time>
      </trkpt>
      <trkpt lat="44.07951" lon="1.7267">
        <ele>135</ele>
        <time>2019-11-05T22:21:08Z</time>
      </trkpt>
      <trkpt lat="44.07838" lon="1.72969">
        <ele>129</ele>
        <time>2019-11-05T22:24:22Z</time>
      </trkpt>
      <trkpt lat="44.07822" lon="1.73043">
        <ele>125</ele>
        <time>2019-11-05T22:25:07Z</time>
      </trkpt>
      <trkpt lat="44.0781" lon="1.73135">
        <ele>124</ele>
        <time>2019-11-05T22:26:01Z</time>
      </trkpt>
      <trkpt lat="44.07815" lon="1.73201">
        <ele>125</ele>
        <time>2019-11-05T22:26:39Z</time>
      </trkpt>
      <trkpt lat="44.07822" lon="1.73241">
        <ele>126</ele>
        <time>2019-11-05T22:27:03Z</time>
      </trkpt>
      <trkpt lat="44.07833" lon="1.73282">
        <ele>126</ele>
        <time>2019-11-05T22:27:28Z</time>
      </trkpt>
      <trkpt lat="44.07857" lon="1.73354">
        <ele>127</ele>
        <time>2019-11-05T22:28:13Z</time>
      </trkpt>
      <trkpt lat="44.0788" lon="1.73411">
        <ele>127</ele>
        <time>2019-11-05T22:28:51Z</time>
      </trkpt>
      <trkpt lat="44.07904" lon="1.73462">
        <ele>125</ele>
        <time>2019-11-05T22:29:26Z</time>
      </trkpt>
      <trkpt lat="44.07974" lon="1.736">
        <ele>124</ele>
        <time>2019-11-05T22:31:03Z</time>
      </trkpt>
      <trkpt lat="44.08065" lon="1.73732">
        <ele>125</ele>
        <time>2019-11-05T22:32:48Z</time>
      </trkpt>
      <trkpt lat="44.08135" lon="1.73817">
        <ele>126</ele>
        <time>2019-11-05T22:34:03Z</time>
      </trkpt>
      <trkpt lat="44.08212" lon="1.73917">
        <ele>120</ele>
        <time>2019-11-05T22:35:27Z</time>
      </trkpt>
      <trkpt lat="44.08233" lon="1.73939">
        <ele>120</ele>
        <time>2019-11-05T22:35:48Z</time>
      </trkpt>
      <trkpt lat="44.0828" lon="1.73859">
        <ele>118</ele>
        <time>2019-11-05T22:36:48Z</time>
      </trkpt>
      <trkpt lat="44.08287" lon="1.73855">
        <ele>118</ele>
        <time>2019-11-05T22:36:54Z</time>
      </trkpt>
      <trkpt lat="44.08331" lon="1.73846">
        <ele>118</ele>
        <time>2019-11-05T22:37:29Z</time>
      </trkpt>
      <trkpt lat="44.08349" lon="1.7384">
        <ele>120</ele>
        <time>2019-11-05T22:37:44Z</time>
      </trkpt>
      <trkpt lat="44.08351" lon="1.73821">
        <ele>119</ele>
        <time>2019-11-05T22:37:55Z</time>
      </trkpt>
      <trkpt lat="44.08395" lon="1.7378">
        <ele>119</ele>
        <time>2019-11-05T22:38:38Z</time>
      </trkpt>
      <trkpt lat="44.08485" lon="1.73715">
        <ele>122</ele>
        <time>2019-11-05T22:39:59Z</time>
      </trkpt>
      <trkpt lat="44.08581" lon="1.7364">
        <ele>123</ele>
        <time>2019-11-05T22:41:27Z</time>
      </trkpt>
      <trkpt lat="44.0863" lon="1.73595">
        <ele>128</ele>
        <time>2019-11-05T22:42:14Z</time>
      </trkpt>
      <trkpt lat="44.08704" lon="1.7351">
        <ele>128</ele>
        <time>2019-11-05T22:43:31Z</time>
      </trkpt>
      <trkpt lat="44.08797" lon="1.73367">
        <ele>124</ele>
        <time>2019-11-05T22:45:22Z</time>
      </trkpt>
      <trkpt lat="44.08859" lon="1.73265">
        <ele>120</ele>
        <time>2019-11-05T22:46:38Z</time>
      </trkpt>
      <trkpt lat="44.08867" lon="1.73258">
        <ele>121</ele>
        <time>2019-11-05T22:46:46Z</time>
      </trkpt>
      <trkpt lat="44.08908" lon="1.73171">
        <ele>121</ele>
        <time>2019-11-05T22:47:46Z</time>
      </trkpt>
      <trkpt lat="44.08923" lon="1.73128">
        <ele>120</ele>
        <time>2019-11-05T22:48:13Z</time>
      </trkpt>
      <trkpt lat="44.0895" lon="1.73107">
        <ele>122</ele>
        <time>2019-11-05T22:48:38Z</time>
      </trkpt>
      <trkpt lat="44.08982" lon="1.73037">
        <ele>122</ele>
        <time>2019-11-05T22:49:26Z</time>
      </trkpt>
      <trkpt lat="44.08997" lon="1.73015">
        <ele>123</ele>
        <time>2019-11-05T22:49:43Z</time>
      </trkpt>
      <trkpt lat="44.09015" lon="1.73009">
        <ele>127</ele>
        <time>2019-11-05T22:49:58Z</time>
      </trkpt>
      <trkpt lat="44.09029" lon="1.73103">
        <ele>136</ele>
        <time>2019-11-05T22:50:53Z</time>
      </trkpt>
      <trkpt lat="44.09022" lon="1.7312">
        <ele>137</ele>
        <time>2019-11-05T22:51:05Z</time>
      </trkpt>
      <trkpt lat="44.09002" lon="1.73139">
        <ele>135</ele>
        <time>2019-11-05T22:51:24Z</time>
      </trkpt>
      <trkpt lat="44.08952" lon="1.73258">
        <ele>146</ele>
        <time>2019-11-05T22:52:43Z</time>
      </trkpt>
      <trkpt lat="44.08904" lon="1.73349">
        <ele>149</ele>
        <time>2019-11-05T22:53:48Z</time>
      </trkpt>
      <trkpt lat="44.08842" lon="1.73482">
        <ele>165</ele>
        <time>2019-11-05T22:55:19Z</time>
      </trkpt>
      <trkpt lat="44.08991" lon="1.73359">
        <ele>181</ele>
        <time>2019-11-05T22:57:38Z</time>
      </trkpt>
      <trkpt lat="44.09062" lon="1.7332">
        <ele>190</ele>
        <time>2019-11-05T22:58:39Z</time>
      </trkpt>
      <trkpt lat="44.09079" lon="1.73308">
        <ele>191</ele>
        <time>2019-11-05T22:58:54Z</time>
      </trkpt>
      <trkpt lat="44.09062" lon="1.73331">
        <ele>193</ele>
        <time>2019-11-05T22:59:13Z</time>
      </trkpt>
      <trkpt lat="44.09054" lon="1.73351">
        <ele>196</ele>
        <time>2019-11-05T22:59:27Z</time>
      </trkpt>
      <trkpt lat="44.09022" lon="1.73413">
        <ele>204</ele>
        <time>2019-11-05T23:00:11Z</time>
      </trkpt>
      <trkpt lat="44.08999" lon="1.73464">
        <ele>210</ele>
        <time>2019-11-05T23:00:45Z</time>
      </trkpt>
      <trkpt lat="44.08974" lon="1.7353">
        <ele>220</ele>
        <time>2019-11-05T23:01:28Z</time>
      </trkpt>
      <trkpt lat="44.08878" lon="1.73733">
        <ele>246</ele>
        <time>2019-11-05T23:03:48Z</time>
      </trkpt>
      <trkpt lat="44.08912" lon="1.73713">
        <ele>249</ele>
        <time>2019-11-05T23:04:17Z</time>
      </trkpt>
      <trkpt lat="44.08907" lon="1.73725">
        <ele>251</ele>
        <time>2019-11-05T23:04:25Z</time>
      </trkpt>
      <trkpt lat="44.08884" lon="1.73774">
        <ele>259</ele>
        <time>2019-11-05T23:04:59Z</time>
      </trkpt>
      <trkpt lat="44.08842" lon="1.73842">
        <ele>269</ele>
        <time>2019-11-05T23:05:51Z</time>
      </trkpt>
      <trkpt lat="44.08769" lon="1.73925">
        <ele>282</ele>
        <time>2019-11-05T23:07:06Z</time>
      </trkpt>
      <trkpt lat="44.08743" lon="1.73948">
        <ele>284</ele>
        <time>2019-11-05T23:07:31Z</time>
      </trkpt>
      <trkpt lat="44.08728" lon="1.73966">
        <ele>288</ele>
        <time>2019-11-05T23:07:47Z</time>
      </trkpt>
      <trkpt lat="44.08722" lon="1.73969">
        <ele>288</ele>
        <time>2019-11-05T23:07:52Z</time>
      </trkpt>
      <trkpt lat="44.08682" lon="1.73973">
        <ele>289</ele>
        <time>2019-11-05T23:08:24Z</time>
      </trkpt>
      <trkpt lat="44.08669" lon="1.73978">
        <ele>290</ele>
        <time>2019-11-05T23:08:35Z</time>
      </trkpt>
      <trkpt lat="44.08663" lon="1.73984">
        <ele>290</ele>
        <time>2019-11-05T23:08:41Z</time>
      </trkpt>
      <trkpt lat="44.08656" lon="1.73986">
        <ele>289</ele>
        <time>2019-11-05T23:08:46Z</time>
      </trkpt>
      <trkpt lat="44.08644" lon="1.73985">
        <ele>287</ele>
        <time>2019-11-05T23:08:56Z</time>
      </trkpt>
      <trkpt lat="44.08592" lon="1.74004">
        <ele>280</ele>
        <time>2019-11-05T23:09:39Z</time>
      </trkpt>
      <trkpt lat="44.08608" lon="1.74012">
        <ele>282</ele>
        <time>2019-11-05T23:09:53Z</time>
      </trkpt>
      <trkpt lat="44.08629" lon="1.74034">
        <ele>283</ele>
        <time>2019-11-05T23:10:14Z</time>
      </trkpt>
      <trkpt lat="44.08632" lon="1.74043">
        <ele>283</ele>
        <time>2019-11-05T23:10:19Z</time>
      </trkpt>
      <trkpt lat="44.08647" lon="1.74055">
        <ele>286</ele>
        <time>2019-11-05T23:10:33Z</time>
      </trkpt>
      <trkpt lat="44.08673" lon="1.7407">
        <ele>290</ele>
        <time>2019-11-05T23:10:56Z</time>
      </trkpt>
      <trkpt lat="44.08698" lon="1.74092">
        <ele>289</ele>
        <time>2019-11-05T23:11:19Z</time>
      </trkpt>
      <trkpt lat="44.08723" lon="1.74127">
        <ele>286</ele>
        <time>2019-11-05T23:11:48Z</time>
      </trkpt>
      <trkpt lat="44.08746" lon="1.74131">
        <ele>292</ele>
        <time>2019-11-05T23:12:06Z</time>
      </trkpt>
      <trkpt lat="44.08763" lon="1.74143">
        <ele>294</ele>
        <time>2019-11-05T23:12:22Z</time>
      </trkpt>
      <trkpt lat="44.08778" lon="1.74162">
        <ele>295</ele>
        <time>2019-11-05T23:12:38Z</time>
      </trkpt>
      <trkpt lat="44.08788" lon="1.74183">
        <ele>293</ele>
        <time>2019-11-05T23:12:52Z</time>
      </trkpt>
      <trkpt lat="44.08797" lon="1.74219">
        <ele>289</ele>
        <time>2019-11-05T23:13:14Z</time>
      </trkpt>
      <trkpt lat="44.08808" lon="1.74239">
        <ele>289</ele>
        <time>2019-11-05T23:13:29Z</time>
      </trkpt>
      <trkpt lat="44.08837" lon="1.74269">
        <ele>291</ele>
        <time>2019-11-05T23:13:58Z</time>
      </trkpt>
      <trkpt lat="44.08877" lon="1.74316">
        <ele>293</ele>
        <time>2019-11-05T23:14:40Z</time>
      </trkpt>
      <trkpt lat="44.08891" lon="1.74326">
        <ele>295</ele>
        <time>2019-11-05T23:14:52Z</time>
      </trkpt>
      <trkpt lat="44.08898" lon="1.74334">
        <ele>297</ele>
        <time>2019-11-05T23:14:59Z</time>
      </trkpt>
      <trkpt lat="44.089" lon="1.74347">
        <ele>298</ele>
        <time>2019-11-05T23:15:07Z</time>
      </trkpt>
      <trkpt lat="44.089" lon="1.74358">
        <ele>298</ele>
        <time>2019-11-05T23:15:13Z</time>
      </trkpt>
      <trkpt lat="44.08884" lon="1.74408">
        <ele>294</ele>
        <time>2019-11-05T23:15:45Z</time>
      </trkpt>
      <trkpt lat="44.08881" lon="1.74435">
        <ele>293</ele>
        <time>2019-11-05T23:16:01Z</time>
      </trkpt>
      <trkpt lat="44.08897" lon="1.74492">
        <ele>296</ele>
        <time>2019-11-05T23:16:36Z</time>
      </trkpt>
      <trkpt lat="44.089" lon="1.74535">
        <ele>296</ele>
        <time>2019-11-05T23:17:01Z</time>
      </trkpt>
      <trkpt lat="44.08908" lon="1.74586">
        <ele>299</ele>
        <time>2019-11-05T23:17:31Z</time>
      </trkpt>
      <trkpt lat="44.08906" lon="1.74661">
        <ele>297</ele>
        <time>2019-11-05T23:18:14Z</time>
      </trkpt>
      <trkpt lat="44.0891" lon="1.74679">
        <ele>299</ele>
        <time>2019-11-05T23:18:25Z</time>
      </trkpt>
      <trkpt lat="44.08905" lon="1.747">
        <ele>296</ele>
        <time>2019-11-05T23:18:37Z</time>
      </trkpt>
      <trkpt lat="44.08891" lon="1.74726">
        <ele>289</ele>
        <time>2019-11-05T23:18:56Z</time>
      </trkpt>
      <trkpt lat="44.08893" lon="1.74755">
        <ele>289</ele>
        <time>2019-11-05T23:19:13Z</time>
      </trkpt>
      <trkpt lat="44.08901" lon="1.74804">
        <ele>291</ele>
        <time>2019-11-05T23:19:42Z</time>
      </trkpt>
      <trkpt lat="44.08898" lon="1.74823">
        <ele>289</ele>
        <time>2019-11-05T23:19:53Z</time>
      </trkpt>
      <trkpt lat="44.08891" lon="1.74844">
        <ele>285</ele>
        <time>2019-11-05T23:20:06Z</time>
      </trkpt>
      <trkpt lat="44.08885" lon="1.74875">
        <ele>282</ele>
        <time>2019-11-05T23:20:25Z</time>
      </trkpt>
      <trkpt lat="44.08871" lon="1.74903">
        <ele>275</ele>
        <time>2019-11-05T23:20:44Z</time>
      </trkpt>
      <trkpt lat="44.08876" lon="1.74949">
        <ele>277</ele>
        <time>2019-11-05T23:21:11Z</time>
      </trkpt>
      <trkpt lat="44.08877" lon="1.74982">
        <ele>278</ele>
        <time>2019-11-05T23:21:30Z</time>
      </trkpt>
      <trkpt lat="44.08883" lon="1.7501">
        <ele>282</ele>
        <time>2019-11-05T23:21:47Z</time>
      </trkpt>
      <trkpt lat="44.08877" lon="1.75037">
        <ele>281</ele>
        <time>2019-11-05T23:22:03Z</time>
      </trkpt>
      <trkpt lat="44.08863" lon="1.75065">
        <ele>278</ele>
        <time>2019-11-05T23:22:23Z</time>
      </trkpt>
      <trkpt lat="44.08856" lon="1.75161">
        <ele>283</ele>
        <time>2019-11-05T23:23:18Z</time>
      </trkpt>
      <trkpt lat="44.0884" lon="1.75237">
        <ele>286</ele>
        <time>2019-11-05T23:24:04Z</time>
      </trkpt>
      <trkpt lat="44.08831" lon="1.75341">
        <ele>293</ele>
        <time>2019-11-05T23:25:04Z</time>
      </trkpt>
      <trkpt lat="44.08805" lon="1.75431">
        <ele>288</ele>
        <time>2019-11-05T23:26:00Z</time>
      </trkpt>
      <trkpt lat="44.08798" lon="1.75487">
        <ele>289</ele>
        <time>2019-11-05T23:26:32Z</time>
      </trkpt>
      <trkpt lat="44.08756" lon="1.75643">
        <ele>293</ele>
        <time>2019-11-05T23:28:08Z</time>
      </trkpt>
      <trkpt lat="44.08749" lon="1.75659">
        <ele>293</ele>
        <time>2019-11-05T23:28:19Z</time>
      </trkpt>
      <trkpt lat="44.08728" lon="1.75686">
        <ele>283</ele>
        <time>2019-11-05T23:28:42Z</time>
      </trkpt>
      <trkpt lat="44.08727" lon="1.757">
        <ele>282</ele>
        <time>2019-11-05T23:28:50Z</time>
      </trkpt>
      <trkpt lat="44.08729" lon="1.7571">
        <ele>283</ele>
        <time>2019-11-05T23:28:56Z</time>
      </trkpt>
      <trkpt lat="44.08756" lon="1.75761">
        <ele>294</ele>
        <time>2019-11-05T23:29:32Z</time>
      </trkpt>
      <trkpt lat="44.08777" lon="1.75788">
        <ele>296</ele>
        <time>2019-11-05T23:29:55Z</time>
      </trkpt>
      <trkpt lat="44.08788" lon="1.7581">
        <ele>296</ele>
        <time>2019-11-05T23:30:11Z</time>
      </trkpt>
      <trkpt lat="44.08804" lon="1.75859">
        <ele>296</ele>
        <time>2019-11-05T23:30:42Z</time>
      </trkpt>
      <trkpt lat="44.08823" lon="1.7589">
        <ele>299</ele>
        <time>2019-11-05T23:31:05Z</time>
      </trkpt>
      <trkpt lat="44.08849" lon="1.75961">
        <ele>297</ele>
        <time>2019-11-05T23:31:51Z</time>
      </trkpt>
      <trkpt lat="44.08895" lon="1.76053">
        <ele>302</ele>
        <time>2019-11-05T23:32:55Z</time>
      </trkpt>
      <trkpt lat="44.08917" lon="1.76113">
        <ele>305</ele>
        <time>2019-11-05T23:33:34Z</time>
      </trkpt>
      <trkpt lat="44.08932" lon="1.7617">
        <ele>301</ele>
        <time>2019-11-05T23:34:09Z</time>
      </trkpt>
      <trkpt lat="44.08955" lon="1.76203">
        <ele>299</ele>
        <time>2019-11-05T23:34:35Z</time>
      </trkpt>
      <trkpt lat="44.08984" lon="1.76272">
        <ele>297</ele>
        <time>2019-11-05T23:35:21Z</time>
      </trkpt>
      <trkpt lat="44.08995" lon="1.76281">
        <ele>299</ele>
        <time>2019-11-05T23:35:32Z</time>
      </trkpt>
      <trkpt lat="44.09004" lon="1.76306">
        <ele>296</ele>
        <time>2019-11-05T23:35:48Z</time>
      </trkpt>
      <trkpt lat="44.09016" lon="1.76328">
        <ele>293</ele>
        <time>2019-11-05T23:36:04Z</time>
      </trkpt>
      <trkpt lat="44.09025" lon="1.76339">
        <ele>293</ele>
        <time>2019-11-05T23:36:13Z</time>
      </trkpt>
      <trkpt lat="44.09058" lon="1.76369">
        <ele>295</ele>
        <time>2019-11-05T23:36:45Z</time>
      </trkpt>
      <trkpt lat="44.09101" lon="1.76404">
        <ele>299</ele>
        <time>2019-11-05T23:37:25Z</time>
      </trkpt>
      <trkpt lat="44.09127" lon="1.76405">
        <ele>301</ele>
        <time>2019-11-05T23:37:46Z</time>
      </trkpt>
      <trkpt lat="44.09145" lon="1.7641">
        <ele>302</ele>
        <time>2019-11-05T23:38:00Z</time>
      </trkpt>
      <trkpt lat="44.09191" lon="1.76429">
        <ele>305</ele>
        <time>2019-11-05T23:38:39Z</time>
      </trkpt>
      <trkpt lat="44.09219" lon="1.76443">
        <ele>306</ele>
        <time>2019-11-05T23:39:02Z</time>
      </trkpt>
      <trkpt lat="44.09268" lon="1.76475">
        <ele>308</ele>
        <time>2019-11-05T23:39:46Z</time>
      </trkpt>
      <trkpt lat="44.09287" lon="1.76495">
        <ele>308</ele>
        <time>2019-11-05T23:40:05Z</time>
      </trkpt>
      <trkpt lat="44.09309" lon="1.76531">
        <ele>310</ele>
        <time>2019-11-05T23:40:32Z</time>
      </trkpt>
      <trkpt lat="44.09459" lon="1.76831">
        <ele>313</ele>
        <time>2019-11-05T23:44:02Z</time>
      </trkpt>
      <trkpt lat="44.09519" lon="1.76917">
        <ele>314</ele>
        <time>2019-11-05T23:45:11Z</time>
      </trkpt>
      <trkpt lat="44.09557" lon="1.76956">
        <ele>313</ele>
        <time>2019-11-05T23:45:49Z</time>
      </trkpt>
      <trkpt lat="44.09577" lon="1.76994">
        <ele>313</ele>
        <time>2019-11-05T23:46:16Z</time>
      </trkpt>
      <trkpt lat="44.0959" lon="1.77013">
        <ele>312</ele>
        <time>2019-11-05T23:46:31Z</time>
      </trkpt>
      <trkpt lat="44.09603" lon="1.77023">
        <ele>312</ele>
        <time>2019-11-05T23:46:43Z</time>
      </trkpt>
      <trkpt lat="44.09619" lon="1.7705">
        <ele>311</ele>
        <time>2019-11-05T23:47:03Z</time>
      </trkpt>
      <trkpt lat="44.09668" lon="1.77087">
        <ele>319</ele>
        <time>2019-11-05T23:47:48Z</time>
      </trkpt>
      <trkpt lat="44.09676" lon="1.7709">
        <ele>319</ele>
        <time>2019-11-05T23:47:54Z</time>
      </trkpt>
      <trkpt lat="44.09677" lon="1.77093">
        <ele>318</ele>
        <time>2019-11-05T23:47:56Z</time>
      </trkpt>
      <trkpt lat="44.09696" lon="1.77106">
        <ele>318</ele>
        <time>2019-11-05T23:48:13Z</time>
      </trkpt>
      <trkpt lat="44.09707" lon="1.77109">
        <ele>318</ele>
        <time>2019-11-05T23:48:22Z</time>
      </trkpt>
      <trkpt lat="44.09737" lon="1.77109">
        <ele>319</ele>
        <time>2019-11-05T23:48:46Z</time>
      </trkpt>
      <trkpt lat="44.09742" lon="1.77111">
        <ele>319</ele>
        <time>2019-11-05T23:48:50Z</time>
      </trkpt>
      <trkpt lat="44.09765" lon="1.77137">
        <ele>320</ele>
        <time>2019-11-05T23:49:14Z</time>
      </trkpt>
      <trkpt lat="44.0975" lon="1.77173">
        <ele>319</ele>
        <time>2019-11-05T23:49:38Z</time>
      </trkpt>
      <trkpt lat="44.09735" lon="1.77194">
        <ele>316</ele>
        <time>2019-11-05T23:49:55Z</time>
      </trkpt>
      <trkpt lat="44.09711" lon="1.77218">
        <ele>311</ele>
        <time>2019-11-05T23:50:19Z</time>
      </trkpt>
      <trkpt lat="44.09686" lon="1.77223">
        <ele>306</ele>
        <time>2019-11-05T23:50:39Z</time>
      </trkpt>
      <trkpt lat="44.09685" lon="1.7723">
        <ele>305</ele>
        <time>2019-11-05T23:50:43Z</time>
      </trkpt>
      <trkpt lat="44.09705" lon="1.77241">
        <ele>307</ele>
        <time>2019-11-05T23:51:00Z</time>
      </trkpt>
      <trkpt lat="44.09712" lon="1.7725">
        <ele>307</ele>
        <time>2019-11-05T23:51:08Z</time>
      </trkpt>
      <trkpt lat="44.09705" lon="1.7725">
        <ele>306</ele>
        <time>2019-11-05T23:51:14Z</time>
      </trkpt>
      <trkpt lat="44.0972" lon="1.77264">
        <ele>307</ele>
        <time>2019-11-05T23:51:28Z</time>
      </trkpt>
      <trkpt lat="44.09733" lon="1.773">
        <ele>304</ele>
        <time>2019-11-05T23:51:51Z</time>
      </trkpt>
      <trkpt lat="44.09739" lon="1.77345">
        <ele>299</ele>
        <time>2019-11-05T23:52:18Z</time>
      </trkpt>
      <trkpt lat="44.09746" lon="1.77372">
        <ele>295</ele>
        <time>2019-11-05T23:52:34Z</time>
      </trkpt>
      <trkpt lat="44.09751" lon="1.77383">
        <ele>293</ele>
        <time>2019-11-05T23:52:42Z</time>
      </trkpt>
      <trkpt lat="44.09762" lon="1.77398">
        <ele>292</ele>
        <time>2019-11-05T23:52:54Z</time>
      </trkpt>
      <trkpt lat="44.09799" lon="1.77432">
        <ele>292</ele>
        <time>2019-11-05T23:53:29Z</time>
      </trkpt>
      <trkpt lat="44.09805" lon="1.77441">
        <ele>292</ele>
        <time>2019-11-05T23:53:36Z</time>
      </trkpt>
      <trkpt lat="44.09807" lon="1.77459">
        <ele>290</ele>
        <time>2019-11-05T23:53:47Z</time>
      </trkpt>
      <trkpt lat="44.09806" lon="1.77474">
        <ele>288</ele>
        <time>2019-11-05T23:53:56Z</time>
      </trkpt>
      <trkpt lat="44.09791" lon="1.77531">
        <ele>279</ele>
        <time>2019-11-05T23:54:30Z</time>
      </trkpt>
      <trkpt lat="44.09762" lon="1.77607">
        <ele>269</ele>
        <time>2019-11-05T23:55:20Z</time>
      </trkpt>
      <trkpt lat="44.09753" lon="1.77613">
        <ele>266</ele>
        <time>2019-11-05T23:55:28Z</time>
      </trkpt>
      <trkpt lat="44.09743" lon="1.77611">
        <ele>264</ele>
        <time>2019-11-05T23:55:36Z</time>
      </trkpt>
      <trkpt lat="44.09708" lon="1.77572">
        <ele>261</ele>
        <time>2019-11-05T23:56:12Z</time>
      </trkpt>
      <trkpt lat="44.09707" lon="1.77579">
        <ele>261</ele>
        <time>2019-11-05T23:56:16Z</time>
      </trkpt>
      <trkpt lat="44.09624" lon="1.77491">
        <ele>252</ele>
        <time>2019-11-05T23:57:40Z</time>
      </trkpt>
      <trkpt lat="44.09616" lon="1.7748">
        <ele>251</ele>
        <time>2019-11-05T23:57:49Z</time>
      </trkpt>
      <trkpt lat="44.09592" lon="1.77436">
        <ele>249</ele>
        <time>2019-11-05T23:58:20Z</time>
      </trkpt>
      <trkpt lat="44.09553" lon="1.77329">
        <ele>253</ele>
        <time>2019-11-05T23:59:29Z</time>
      </trkpt>
      <trkpt lat="44.09548" lon="1.7732">
        <ele>254</ele>
        <time>2019-11-05T23:59:36Z</time>
      </trkpt>
      <trkpt lat="44.09536" lon="1.77308">
        <ele>252</ele>
        <time>2019-11-05T23:59:48Z</time>
      </trkpt>
      <trkpt lat="44.09523" lon="1.77306">
        <ele>250</ele>
        <time>2019-11-05T23:59:58Z</time>
      </trkpt>
      <trkpt lat="44.09516" lon="1.77309">
        <ele>248</ele>
        <time>2019-11-06T00:00:04Z</time>
      </trkpt>
      <trkpt lat="44.09503" lon="1.77324">
        <ele>244</ele>
        <time>2019-11-06T00:00:18Z</time>
      </trkpt>
      <trkpt lat="44.09469" lon="1.77418">
        <ele>238</ele>
        <time>2019-11-06T00:01:18Z</time>
      </trkpt>
      <trkpt lat="44.09455" lon="1.77438">
        <ele>239</ele>
        <time>2019-11-06T00:01:34Z</time>
      </trkpt>
      <trkpt lat="44.09442" lon="1.77445">
        <ele>241</ele>
        <time>2019-11-06T00:01:45Z</time>
      </trkpt>
      <trkpt lat="44.0943" lon="1.77444">
        <ele>241</ele>
        <time>2019-11-06T00:01:55Z</time>
      </trkpt>
      <trkpt lat="44.09425" lon="1.77439">
        <ele>241</ele>
        <time>2019-11-06T00:02:00Z</time>
      </trkpt>
      <trkpt lat="44.09414" lon="1.77417">
        <ele>241</ele>
        <time>2019-11-06T00:02:15Z</time>
      </trkpt>
      <trkpt lat="44.09398" lon="1.77365">
        <ele>242</ele>
        <time>2019-11-06T00:02:48Z</time>
      </trkpt>
      <trkpt lat="44.09378" lon="1.77337">
        <ele>243</ele>
        <time>2019-11-06T00:03:10Z</time>
      </trkpt>
      <trkpt lat="44.09358" lon="1.77315">
        <ele>243</ele>
        <time>2019-11-06T00:03:31Z</time>
      </trkpt>
      <trkpt lat="44.09347" lon="1.77307">
        <ele>243</ele>
        <time>2019-11-06T00:03:41Z</time>
      </trkpt>
      <trkpt lat="44.09339" lon="1.77305">
        <ele>243</ele>
        <time>2019-11-06T00:03:47Z</time>
      </trkpt>
      <trkpt lat="44.09332" lon="1.77307">
        <ele>244</ele>
        <time>2019-11-06T00:03:53Z</time>
      </trkpt>
      <trkpt lat="44.09321" lon="1.77316">
        <ele>246</ele>
        <time>2019-11-06T00:04:03Z</time>
      </trkpt>
      <trkpt lat="44.09294" lon="1.7739">
        <ele>255</ele>
        <time>2019-11-06T00:04:51Z</time>
      </trkpt>
      <trkpt lat="44.09283" lon="1.77405">
        <ele>257</ele>
        <time>2019-11-06T00:05:03Z</time>
      </trkpt>
      <trkpt lat="44.09274" lon="1.77413">
        <ele>258</ele>
        <time>2019-11-06T00:05:12Z</time>
      </trkpt>
      <trkpt lat="44.09254" lon="1.7742">
        <ele>260</ele>
        <time>2019-11-06T00:05:28Z</time>
      </trkpt>
      <trkpt lat="44.09244" lon="1.77421">
        <ele>261</ele>
        <time>2019-11-06T00:05:36Z</time>
      </trkpt>
      <trkpt lat="44.09233" lon="1.77419">
        <ele>261</ele>
        <time>2019-11-06T00:05:45Z</time>
      </trkpt>
      <trkpt lat="44.09203" lon="1.77407">
        <ele>262</ele>
        <time>2019-11-06T00:06:10Z</time>
      </trkpt>
      <trkpt lat="44.09186" lon="1.77395">
        <ele>263</ele>
        <time>2019-11-06T00:06:26Z</time>
      </trkpt>
      <trkpt lat="44.09107" lon="1.77324">
        <ele>261</ele>
        <time>2019-11-06T00:07:41Z</time>
      </trkpt>
      <trkpt lat="44.09094" lon="1.77318">
        <ele>261</ele>
        <time>2019-11-06T00:07:52Z</time>
      </trkpt>
      <trkpt lat="44.09085" lon="1.77315">
        <ele>261</ele>
        <time>2019-11-06T00:07:59Z</time>
      </trkpt>
      <trkpt lat="44.09075" lon="1.77316">
        <ele>261</ele>
        <time>2019-11-06T00:08:07Z</time>
      </trkpt>
      <trkpt lat="44.09035" lon="1.77332">
        <ele>260</ele>
        <time>2019-11-06T00:08:41Z</time>
      </trkpt>
      <trkpt lat="44.09015" lon="1.77334">
        <ele>259</ele>
        <time>2019-11-06T00:08:57Z</time>
      </trkpt>
      <trkpt lat="44.08948" lon="1.77314">
        <ele>253</ele>
        <time>2019-11-06T00:09:51Z</time>
      </trkpt>
      <trkpt lat="44.08941" lon="1.77314">
        <ele>253</ele>
        <time>2019-11-06T00:09:57Z</time>
      </trkpt>
      <trkpt lat="44.08857" lon="1.77367">
        <ele>252</ele>
        <time>2019-11-06T00:11:11Z</time>
      </trkpt>
      <trkpt lat="44.08845" lon="1.77377">
        <ele>252</ele>
        <time>2019-11-06T00:11:22Z</time>
      </trkpt>
      <trkpt lat="44.08842" lon="1.77382">
        <ele>252</ele>
        <time>2019-11-06T00:11:26Z</time>
      </trkpt>
      <trkpt lat="44.0884" lon="1.77398">
        <ele>251</ele>
        <time>2019-11-06T00:11:35Z</time>
      </trkpt>
      <trkpt lat="44.08835" lon="1.77408">
        <ele>251</ele>
        <time>2019-11-06T00:11:42Z</time>
      </trkpt>
      <trkpt lat="44.08793" lon="1.7745">
        <ele>247</ele>
        <time>2019-11-06T00:12:24Z</time>
      </trkpt>
      <trkpt lat="44.08786" lon="1.77462">
        <ele>246</ele>
        <time>2019-11-06T00:12:33Z</time>
      </trkpt>
      <trkpt lat="44.0878" lon="1.77475">
        <ele>245</ele>
        <time>2019-11-06T00:12:41Z</time>
      </trkpt>
      <trkpt lat="44.08769" lon="1.77513">
        <ele>244</ele>
        <time>2019-11-06T00:13:05Z</time>
      </trkpt>
      <trkpt lat="44.08758" lon="1.77532">
        <ele>245</ele>
        <time>2019-11-06T00:13:19Z</time>
      </trkpt>
      <trkpt lat="44.08753" lon="1.77547">
        <ele>245</ele>
        <time>2019-11-06T00:13:29Z</time>
      </trkpt>
      <trkpt lat="44.08749" lon="1.7755">
        <ele>246</ele>
        <time>2019-11-06T00:13:32Z</time>
      </trkpt>
      <trkpt lat="44.08744" lon="1.77552">
        <ele>246</ele>
        <time>2019-11-06T00:13:36Z</time>
      </trkpt>
      <trkpt lat="44.08736" lon="1.77551">
        <ele>247</ele>
        <time>2019-11-06T00:13:43Z</time>
      </trkpt>
      <trkpt lat="44.08682" lon="1.77531">
        <ele>252</ele>
        <time>2019-11-06T00:14:27Z</time>
      </trkpt>
      <trkpt lat="44.08595" lon="1.77507">
        <ele>256</ele>
        <time>2019-11-06T00:15:38Z</time>
      </trkpt>
      <trkpt lat="44.08581" lon="1.77509">
        <ele>258</ele>
        <time>2019-11-06T00:15:50Z</time>
      </trkpt>
      <trkpt lat="44.0854" lon="1.7755">
        <ele>265</ele>
        <time>2019-11-06T00:16:30Z</time>
      </trkpt>
      <trkpt lat="44.08536" lon="1.77558">
        <ele>266</ele>
        <time>2019-11-06T00:16:36Z</time>
      </trkpt>
      <trkpt lat="44.08538" lon="1.7757">
        <ele>268</ele>
        <time>2019-11-06T00:16:43Z</time>
      </trkpt>
      <trkpt lat="44.08577" lon="1.77632">
        <ele>276</ele>
        <time>2019-11-06T00:17:30Z</time>
      </trkpt>
      <trkpt lat="44.08581" lon="1.77647">
        <ele>278</ele>
        <time>2019-11-06T00:17:39Z</time>
      </trkpt>
      <trkpt lat="44.0858" lon="1.77652">
        <ele>279</ele>
        <time>2019-11-06T00:17:42Z</time>
      </trkpt>
      <trkpt lat="44.08571" lon="1.77669">
        <ele>281</ele>
        <time>2019-11-06T00:17:55Z</time>
      </trkpt>
      <trkpt lat="44.08536" lon="1.77721">
        <ele>285</ele>
        <time>2019-11-06T00:18:36Z</time>
      </trkpt>
      <trkpt lat="44.08517" lon="1.77758">
        <ele>290</ele>
        <time>2019-11-06T00:19:02Z</time>
      </trkpt>
      <trkpt lat="44.08509" lon="1.77796">
        <ele>293</ele>
        <time>2019-11-06T00:19:25Z</time>
      </trkpt>
      <trkpt lat="44.08506" lon="1.77839">
        <ele>295</ele>
        <time>2019-11-06T00:19:49Z</time>
      </trkpt>
      <trkpt lat="44.08503" lon="1.7785">
        <ele>296</ele>
        <time>2019-11-06T00:19:56Z</time>
      </trkpt>
      <trkpt lat="44.08484" lon="1.77895">
        <ele>300</ele>
        <time>2019-11-06T00:20:26Z</time>
      </trkpt>
      <trkpt lat="44.08437" lon="1.77972">
        <ele>309</ele>
        <time>2019-11-06T00:21:24Z</time>
      </trkpt>
      <trkpt lat="44.08427" lon="1.77994">
        <ele>310</ele>
        <time>2019-11-06T00:21:39Z</time>
      </trkpt>
      <trkpt lat="44.08421" lon="1.78033">
        <ele>313</ele>
        <time>2019-11-06T00:22:02Z</time>
      </trkpt>
      <trkpt lat="44.08417" lon="1.78043">
        <ele>315</ele>
        <time>2019-11-06T00:22:09Z</time>
      </trkpt>
      <trkpt lat="44.08378" lon="1.78096">
        <ele>322</ele>
        <time>2019-11-06T00:22:52Z</time>
      </trkpt>
      <trkpt lat="44.08343" lon="1.78134">
        <ele>326</ele>
        <time>2019-11-06T00:23:28Z</time>
      </trkpt>
      <trkpt lat="44.08332" lon="1.78149">
        <ele>328</ele>
        <time>2019-11-06T00:23:40Z</time>
      </trkpt>
      <trkpt lat="44.08309" lon="1.78191">
        <ele>333</ele>
        <time>2019-11-06T00:24:11Z</time>
      </trkpt>
      <trkpt lat="44.08299" lon="1.78222">
        <ele>335</ele>
        <time>2019-11-06T00:24:30Z</time>
      </trkpt>
      <trkpt lat="44.08319" lon="1.78237">
        <ele>337</ele>
        <time>2019-11-06T00:24:48Z</time>
      </trkpt>
      <trkpt lat="44.08324" lon="1.78244">
        <ele>338</ele>
        <time>2019-11-06T00:24:54Z</time>
      </trkpt>
      <trkpt lat="44.08347" lon="1.78286">
        <ele>340</ele>
        <time>2019-11-06T00:25:24Z</time>
      </trkpt>
      <trkpt lat="44.08355" lon="1.78316">
        <ele>342</ele>
        <time>2019-11-06T00:25:43Z</time>
      </trkpt>
      <trkpt lat="44.08365" lon="1.78342">
        <ele>344</ele>
        <time>2019-11-06T00:26:00Z</time>
      </trkpt>
      <trkpt lat="44.08378" lon="1.78355">
        <ele>346</ele>
        <time>2019-11-06T00:26:13Z</time>
      </trkpt>
      <trkpt lat="44.08433" lon="1.78386">
        <ele>352</ele>
        <time>2019-11-06T00:27:00Z</time>
      </trkpt>
      <trkpt lat="44.08454" lon="1.78405">
        <ele>352</ele>
        <time>2019-11-06T00:27:20Z</time>
      </trkpt>
      <trkpt lat="44.08465" lon="1.7843">
        <ele>354</ele>
        <time>2019-11-06T00:27:37Z</time>
      </trkpt>
      <trkpt lat="44.08475" lon="1.78484">
        <ele>357</ele>
        <time>2019-11-06T00:28:09Z</time>
      </trkpt>
      <trkpt lat="44.08499" lon="1.78519">
        <ele>357</ele>
        <time>2019-11-06T00:28:37Z</time>
      </trkpt>
      <trkpt lat="44.08513" lon="1.78532">
        <ele>356</ele>
        <time>2019-11-06T00:28:50Z</time>
      </trkpt>
      <trkpt lat="44.08531" lon="1.78555">
        <ele>355</ele>
        <time>2019-11-06T00:29:10Z</time>
      </trkpt>
      <trkpt lat="44.08561" lon="1.78602">
        <ele>354</ele>
        <time>2019-11-06T00:29:46Z</time>
      </trkpt>
      <trkpt lat="44.08575" lon="1.78632">
        <ele>352</ele>
        <time>2019-11-06T00:30:07Z</time>
      </trkpt>
      <trkpt lat="44.08584" lon="1.78658">
        <ele>352</ele>
        <time>2019-11-06T00:30:23Z</time>
      </trkpt>
      <trkpt lat="44.08585" lon="1.78672">
        <ele>352</ele>
        <time>2019-11-06T00:30:31Z</time>
      </trkpt>
      <trkpt lat="44.08582" lon="1.78697">
        <ele>352</ele>
        <time>2019-11-06T00:30:46Z</time>
      </trkpt>
      <trkpt lat="44.08568" lon="1.78724">
        <ele>354</ele>
        <time>2019-11-06T00:31:05Z</time>
      </trkpt>
      <trkpt lat="44.08556" lon="1.78737">
        <ele>356</ele>
        <time>2019-11-06T00:31:17Z</time>
      </trkpt>
      <trkpt lat="44.08536" lon="1.78751">
        <ele>358</ele>
        <time>2019-11-06T00:31:35Z</time>
      </trkpt>
      <trkpt lat="44.08504" lon="1.78749">
        <ele>363</ele>
        <time>2019-11-06T00:32:01Z</time>
      </trkpt>
      <trkpt lat="44.08428" lon="1.78774">
        <ele>358</ele>
        <time>2019-11-06T00:33:03Z</time>
      </trkpt>
      <trkpt lat="44.08411" lon="1.78782">
        <ele>356</ele>
        <time>2019-11-06T00:33:18Z</time>
      </trkpt>
      <trkpt lat="44.08403" lon="1.78791">
        <ele>354</ele>
        <time>2019-11-06T00:33:26Z</time>
      </trkpt>
      <trkpt lat="44.0835" lon="1.78873">
        <ele>348</ele>
        <time>2019-11-06T00:34:29Z</time>
      </trkpt>
      <trkpt lat="44.08328" lon="1.78903">
        <ele>352</ele>
        <time>2019-11-06T00:34:54Z</time>
      </trkpt>
      <trkpt lat="44.08315" lon="1.78927">
        <ele>355</ele>
        <time>2019-11-06T00:35:11Z</time>
      </trkpt>
      <trkpt lat="44.08293" lon="1.78957">
        <ele>358</ele>
        <time>2019-11-06T00:35:36Z</time>
      </trkpt>
      <trkpt lat="44.08286" lon="1.78985">
        <ele>360</ele>
        <time>2019-11-06T00:35:53Z</time>
      </trkpt>
      <trkpt lat="44.08289" lon="1.78998">
        <ele>359</ele>
        <time>2019-11-06T00:36:01Z</time>
      </trkpt>
      <trkpt lat="44.08315" lon="1.79047">
        <ele>357</ele>
        <time>2019-11-06T00:36:36Z</time>
      </trkpt>
      <trkpt lat="44.08316" lon="1.79073">
        <ele>358</ele>
        <time>2019-11-06T00:36:51Z</time>
      </trkpt>
      <trkpt lat="44.08309" lon="1.79105">
        <ele>363</ele>
        <time>2019-11-06T00:37:10Z</time>
      </trkpt>
      <trkpt lat="44.08302" lon="1.79157">
        <ele>369</ele>
        <time>2019-11-06T00:37:41Z</time>
      </trkpt>
      <trkpt lat="44.08301" lon="1.79208">
        <ele>373</ele>
        <time>2019-11-06T00:38:10Z</time>
      </trkpt>
      <trkpt lat="44.08308" lon="1.79275">
        <ele>375</ele>
        <time>2019-11-06T00:38:49Z</time>
      </trkpt>
      <trkpt lat="44.08306" lon="1.79308">
        <ele>376</ele>
        <time>2019-11-06T00:39:08Z</time>
      </trkpt>
      <trkpt lat="44.08304" lon="1.79326">
        <ele>377</ele>
        <time>2019-11-06T00:39:18Z</time>
      </trkpt>
      <trkpt lat="44.08292" lon="1.79369">
        <ele>378</ele>
        <time>2019-11-06T00:39:45Z</time>
      </trkpt>
      <trkpt lat="44.08285" lon="1.79385">
        <ele>379</ele>
        <time>2019-11-06T00:39:56Z</time>
      </trkpt>
      <trkpt lat="44.08271" lon="1.79407">
        <ele>380</ele>
        <time>2019-11-06T00:40:13Z</time>
      </trkpt>
      <trkpt lat="44.08216" lon="1.7947">
        <ele>386</ele>
        <time>2019-11-06T00:41:10Z</time>
      </trkpt>
      <trkpt lat="44.08162" lon="1.79513">
        <ele>392</ele>
        <time>2019-11-06T00:42:00Z</time>
      </trkpt>
      <trkpt lat="44.08088" lon="1.79552">
        <ele>401</ele>
        <time>2019-11-06T00:43:03Z</time>
      </trkpt>
      <trkpt lat="44.08049" lon="1.79578">
        <ele>402</ele>
        <time>2019-11-06T00:43:37Z</time>
      </trkpt>
      <trkpt lat="44.07966" lon="1.79645">
        <ele>403</ele>
        <time>2019-11-06T00:44:54Z</time>
      </trkpt>
      <trkpt lat="44.07957" lon="1.79658">
        <ele>404</ele>
        <time>2019-11-06T00:45:05Z</time>
      </trkpt>
      <trkpt lat="44.07942" lon="1.79697">
        <ele>405</ele>
        <time>2019-11-06T00:45:30Z</time>
      </trkpt>
      <trkpt lat="44.07904" lon="1.79777">
        <ele>411</ele>
        <time>2019-11-06T00:46:25Z</time>
      </trkpt>
      <trkpt lat="44.0783" lon="1.79879">
        <ele>421</ele>
        <time>2019-11-06T00:47:49Z</time>
      </trkpt>
      <trkpt lat="44.07802" lon="1.79963">
        <ele>426</ele>
        <time>2019-11-06T00:48:42Z</time>
      </trkpt>
      <trkpt lat="44.07792" lon="1.79984">
        <ele>427</ele>
        <time>2019-11-06T00:48:56Z</time>
      </trkpt>
      <trkpt lat="44.07785" lon="1.80006">
        <ele>427</ele>
        <time>2019-11-06T00:49:10Z</time>
      </trkpt>
      <trkpt lat="44.07781" lon="1.80042">
        <ele>425</ele>
        <time>2019-11-06T00:49:31Z</time>
      </trkpt>
      <trkpt lat="44.07771" lon="1.80168">
        <ele>417</ele>
        <time>2019-11-06T00:50:44Z</time>
      </trkpt>
      <trkpt lat="44.07772" lon="1.80183">
        <ele>416</ele>
        <time>2019-11-06T00:50:53Z</time>
      </trkpt>
      <trkpt lat="44.07699" lon="1.80228">
        <ele>414</ele>
        <time>2019-11-06T00:51:57Z</time>
      </trkpt>
      <trkpt lat="44.07693" lon="1.80383">
        <ele>420</ele>
        <time>2019-11-06T00:53:26Z</time>
      </trkpt>
      <trkpt lat="44.07696" lon="1.80392">
        <ele>420</ele>
        <time>2019-11-06T00:53:32Z</time>
      </trkpt>
      <trkpt lat="44.07703" lon="1.80398">
        <ele>421</ele>
        <time>2019-11-06T00:53:38Z</time>
      </trkpt>
      <trkpt lat="44.07757" lon="1.80429">
        <ele>422</ele>
        <time>2019-11-06T00:54:25Z</time>
      </trkpt>
      <trkpt lat="44.07913" lon="1.8051">
        <ele>420</ele>
        <time>2019-11-06T00:56:38Z</time>
      </trkpt>
      <trkpt lat="44.0799" lon="1.80535">
        <ele>425</ele>
        <time>2019-11-06T00:57:42Z</time>
      </trkpt>
      <trkpt lat="44.08098" lon="1.80593">
        <ele>430</ele>
        <time>2019-11-06T00:59:14Z</time>
      </trkpt>
      <trkpt lat="44.08199" lon="1.80654">
        <ele>431</ele>
        <time>2019-11-06T01:00:43Z</time>
      </trkpt>
      <trkpt lat="44.08234" lon="1.80682">
        <ele>431</ele>
        <time>2019-11-06T01:01:15Z</time>
      </trkpt>
      <trkpt lat="44.08417" lon="1.80843">
        <ele>429</ele>
        <time>2019-11-06T01:04:08Z</time>
      </trkpt>
      <trkpt lat="44.08557" lon="1.8096">
        <ele>432</ele>
        <time>2019-11-06T01:06:19Z</time>
      </trkpt>
      <trkpt lat="44.0858" lon="1.80983">
        <ele>432</ele>
        <time>2019-11-06T01:06:42Z</time>
      </trkpt>
      <trkpt lat="44.086" lon="1.8101">
        <ele>430</ele>
        <time>2019-11-06T01:07:04Z</time>
      </trkpt>
      <trkpt lat="44.08675" lon="1.80955">
        <ele>426</ele>
        <time>2019-11-06T01:08:12Z</time>
      </trkpt>
      <trkpt lat="44.08713" lon="1.80924">
        <ele>426</ele>
        <time>2019-11-06T01:08:47Z</time>
      </trkpt>
      <trkpt lat="44.08776" lon="1.80866">
        <ele>425</ele>
        <time>2019-11-06T01:09:48Z</time>
      </trkpt>
      <trkpt lat="44.08796" lon="1.80843">
        <ele>424</ele>
        <time>2019-11-06T01:10:08Z</time>
      </trkpt>
      <trkpt lat="44.08831" lon="1.80793">
        <ele>423</ele>
        <time>2019-11-06T01:10:48Z</time>
      </trkpt>
      <trkpt lat="44.08837" lon="1.80781">
        <ele>422</ele>
        <time>2019-11-06T01:10:57Z</time>
      </trkpt>
      <trkpt lat="44.0884" lon="1.80759">
        <ele>421</ele>
        <time>2019-11-06T01:11:10Z</time>
      </trkpt>
      <trkpt lat="44.08855" lon="1.80716">
        <ele>419</ele>
        <time>2019-11-06T01:11:37Z</time>
      </trkpt>
      <trkpt lat="44.08886" lon="1.8067">
        <ele>416</ele>
        <time>2019-11-06T01:12:14Z</time>
      </trkpt>
      <trkpt lat="44.08895" lon="1.80637">
        <ele>415</ele>
        <time>2019-11-06T01:12:34Z</time>
      </trkpt>
      <trkpt lat="44.08905" lon="1.80621">
        <ele>414</ele>
        <time>2019-11-06T01:12:46Z</time>
      </trkpt>
      <trkpt lat="44.0893" lon="1.80606">
        <ele>414</ele>
        <time>2019-11-06T01:13:08Z</time>
      </trkpt>
      <trkpt lat="44.08938" lon="1.8061">
        <ele>413</ele>
        <time>2019-11-06T01:13:15Z</time>
      </trkpt>
      <trkpt lat="44.08959" lon="1.80597">
        <ele>413</ele>
        <time>2019-11-06T01:13:33Z</time>
      </trkpt>
      <trkpt lat="44.08992" lon="1.8062">
        <ele>411</ele>
        <time>2019-11-06T01:14:03Z</time>
      </trkpt>
      <trkpt lat="44.09026" lon="1.8067">
        <ele>410</ele>
        <time>2019-11-06T01:14:42Z</time>
      </trkpt>
      <trkpt lat="44.09047" lon="1.80689">
        <ele>410</ele>
        <time>2019-11-06T01:15:02Z</time>
      </trkpt>
      <trkpt lat="44.09051" lon="1.80703">
        <ele>410</ele>
        <time>2019-11-06T01:15:11Z</time>
      </trkpt>
      <trkpt lat="44.09057" lon="1.80712">
        <ele>411</ele>
        <time>2019-11-06T01:15:18Z</time>
      </trkpt>
      <trkpt lat="44.09195" lon="1.80851">
        <ele>412</ele>
        <time>2019-11-06T01:17:34Z</time>
      </trkpt>
      <trkpt lat="44.09228" lon="1.80876">
        <ele>412</ele>
        <time>2019-11-06T01:18:04Z</time>
      </trkpt>
      <trkpt lat="44.09307" lon="1.80909">
        <ele>410</ele>
        <time>2019-11-06T01:19:10Z</time>
      </trkpt>
      <trkpt lat="44.09365" lon="1.80949">
        <ele>409</ele>
        <time>2019-11-06T01:20:02Z</time>
      </trkpt>
      <trkpt lat="44.09405" lon="1.80967">
        <ele>408</ele>
        <time>2019-11-06T01:20:36Z</time>
      </trkpt>
      <trkpt lat="44.09426" lon="1.80974">
        <ele>408</ele>
        <time>2019-11-06T01:20:53Z</time>
      </trkpt>
      <trkpt lat="44.09457" lon="1.80979">
        <ele>407</ele>
        <time>2019-11-06T01:21:18Z</time>
      </trkpt>
      <trkpt lat="44.09514" lon="1.80975">
        <ele>405</ele>
        <time>2019-11-06T01:22:04Z</time>
      </trkpt>
      <trkpt lat="44.09564" lon="1.80978">
        <ele>401</ele>
        <time>2019-11-06T01:22:44Z</time>
      </trkpt>
      <trkpt lat="44.09598" lon="1.80991">
        <ele>399</ele>
        <time>2019-11-06T01:23:12Z</time>
      </trkpt>
      <trkpt lat="44.09672" lon="1.81038">
        <ele>393</ele>
        <time>2019-11-06T01:24:17Z</time>
      </trkpt>
      <trkpt lat="44.09696" lon="1.81047">
        <ele>392</ele>
        <time>2019-11-06T01:24:37Z</time>
      </trkpt>
      <trkpt lat="44.09711" lon="1.81045">
        <ele>391</ele>
        <time>2019-11-06T01:24:49Z</time>
      </trkpt>
      <trkpt lat="44.09728" lon="1.81037">
        <ele>389</ele>
        <time>2019-11-06T01:25:04Z</time>
      </trkpt>
      <trkpt lat="44.09776" lon="1.81">
        <ele>384</ele>
        <time>2019-11-06T01:25:48Z</time>
      </trkpt>
      <trkpt lat="44.09892" lon="1.80942">
        <ele>373</ele>
        <time>2019-11-06T01:27:26Z</time>
      </trkpt>
      <trkpt lat="44.0991" lon="1.8094">
        <ele>372</ele>
        <time>2019-11-06T01:27:41Z</time>
      </trkpt>
      <trkpt lat="44.09942" lon="1.80942">
        <ele>368</ele>
        <time>2019-11-06T01:28:06Z</time>
      </trkpt>
      <trkpt lat="44.09951" lon="1.80945">
        <ele>367</ele>
        <time>2019-11-06T01:28:14Z</time>
      </trkpt>
      <trkpt lat="44.09982" lon="1.80973">
        <ele>365</ele>
        <time>2019-11-06T01:28:43Z</time>
      </trkpt>
      <trkpt lat="44.09991" lon="1.80978">
        <ele>364</ele>
        <time>2019-11-06T01:28:51Z</time>
      </trkpt>
      <trkpt lat="44.10002" lon="1.80981">
        <ele>362</ele>
        <time>2019-11-06T01:29:00Z</time>
      </trkpt>
      <trkpt lat="44.10035" lon="1.8098">
        <ele>359</ele>
        <time>2019-11-06T01:29:27Z</time>
      </trkpt>
      <trkpt lat="44.10072" lon="1.80986">
        <ele>357</ele>
        <time>2019-11-06T01:29:56Z</time>
      </trkpt>
      <trkpt lat="44.10087" lon="1.80991">
        <ele>356</ele>
        <time>2019-11-06T01:30:09Z</time>
      </trkpt>
      <trkpt lat="44.10129" lon="1.81014">
        <ele>351</ele>
        <time>2019-11-06T01:30:45Z</time>
      </trkpt>
      <trkpt lat="44.10137" lon="1.81014">
        <ele>350</ele>
        <time>2019-11-06T01:30:51Z</time>
      </trkpt>
      <trkpt lat="44.10154" lon="1.81006">
        <ele>349</ele>
        <time>2019-11-06T01:31:06Z</time>
      </trkpt>
      <trkpt lat="44.10172" lon="1.8098">
        <ele>345</ele>
        <time>2019-11-06T01:31:26Z</time>
      </trkpt>
      <trkpt lat="44.10175" lon="1.81015">
        <ele>345</ele>
        <time>2019-11-06T01:31:47Z</time>
      </trkpt>
      <trkpt lat="44.10166" lon="1.81085">
        <ele>340</ele>
        <time>2019-11-06T01:32:28Z</time>
      </trkpt>
      <trkpt lat="44.10164" lon="1.8114">
        <ele>338</ele>
        <time>2019-11-06T01:32:59Z</time>
      </trkpt>
      <trkpt lat="44.10167" lon="1.81141">
        <ele>338</ele>
        <time>2019-11-06T01:33:02Z</time>
      </trkpt>
      <trkpt lat="44.10175" lon="1.81135">
        <ele>337</ele>
        <time>2019-11-06T01:33:09Z</time>
      </trkpt>
      <trkpt lat="44.10225" lon="1.81044">
        <ele>334</ele>
        <time>2019-11-06T01:34:15Z</time>
      </trkpt>
      <trkpt lat="44.10229" lon="1.81042">
        <ele>333</ele>
        <time>2019-11-06T01:34:18Z</time>
      </trkpt>
      <trkpt lat="44.1023" lon="1.81069">
        <ele>332</ele>
        <time>2019-11-06T01:34:34Z</time>
      </trkpt>
      <trkpt lat="44.10232" lon="1.81075">
        <ele>331</ele>
        <time>2019-11-06T01:34:38Z</time>
      </trkpt>
      <trkpt lat="44.10237" lon="1.81079">
        <ele>330</ele>
        <time>2019-11-06T01:34:42Z</time>
      </trkpt>
      <trkpt lat="44.10243" lon="1.81082">
        <ele>329</ele>
        <time>2019-11-06T01:34:47Z</time>
      </trkpt>
      <trkpt lat="44.1025" lon="1.81081">
        <ele>328</ele>
        <time>2019-11-06T01:34:53Z</time>
      </trkpt>
      <trkpt lat="44.1029" lon="1.81071">
        <ele>324</ele>
        <time>2019-11-06T01:35:25Z</time>
      </trkpt>
      <trkpt lat="44.10306" lon="1.8108">
        <ele>322</ele>
        <time>2019-11-06T01:35:39Z</time>
      </trkpt>
      <trkpt lat="44.10374" lon="1.81135">
        <ele>314</ele>
        <time>2019-11-06T01:36:42Z</time>
      </trkpt>
      <trkpt lat="44.10397" lon="1.8116">
        <ele>311</ele>
        <time>2019-11-06T01:37:06Z</time>
      </trkpt>
      <trkpt lat="44.10429" lon="1.81202">
        <ele>304</ele>
        <time>2019-11-06T01:37:41Z</time>
      </trkpt>
      <trkpt lat="44.10437" lon="1.81253">
        <ele>301</ele>
        <time>2019-11-06T01:38:11Z</time>
      </trkpt>
      <trkpt lat="44.10442" lon="1.81253">
        <ele>300</ele>
        <time>2019-11-06T01:38:15Z</time>
      </trkpt>
      <trkpt lat="44.10449" lon="1.81248">
        <ele>300</ele>
        <time>2019-11-06T01:38:21Z</time>
      </trkpt>
      <trkpt lat="44.10478" lon="1.81219">
        <ele>295</ele>
        <time>2019-11-06T01:38:50Z</time>
      </trkpt>
      <trkpt lat="44.10485" lon="1.81193">
        <ele>293</ele>
        <time>2019-11-06T01:39:06Z</time>
      </trkpt>
      <trkpt lat="44.10485" lon="1.8118">
        <ele>293</ele>
        <time>2019-11-06T01:39:13Z</time>
      </trkpt>
      <trkpt lat="44.1048" lon="1.81168">
        <ele>293</ele>
        <time>2019-11-06T01:39:21Z</time>
      </trkpt>
      <trkpt lat="44.10474" lon="1.81156">
        <ele>294</ele>
        <time>2019-11-06T01:39:30Z</time>
      </trkpt>
      <trkpt lat="44.10461" lon="1.81142">
        <ele>297</ele>
        <time>2019-11-06T01:39:43Z</time>
      </trkpt>
      <trkpt lat="44.10447" lon="1.8112">
        <ele>300</ele>
        <time>2019-11-06T01:40:00Z</time>
      </trkpt>
      <trkpt lat="44.10447" lon="1.81109">
        <ele>300</ele>
        <time>2019-11-06T01:40:06Z</time>
      </trkpt>
      <trkpt lat="44.10455" lon="1.81106">
        <ele>298</ele>
        <time>2019-11-06T01:40:13Z</time>
      </trkpt>
      <trkpt lat="44.10465" lon="1.81098">
        <ele>296</ele>
        <time>2019-11-06T01:40:22Z</time>
      </trkpt>
      <trkpt lat="44.10489" lon="1.81089">
        <ele>290</ele>
        <time>2019-11-06T01:40:42Z</time>
      </trkpt>
      <trkpt lat="44.10515" lon="1.81074">
        <ele>285</ele>
        <time>2019-11-06T01:41:04Z</time>
      </trkpt>
      <trkpt lat="44.10515" lon="1.81051">
        <ele>285</ele>
        <time>2019-11-06T01:41:17Z</time>
      </trkpt>
      <trkpt lat="44.1051" lon="1.81026">
        <ele>287</ele>
        <time>2019-11-06T01:41:32Z</time>
      </trkpt>
      <trkpt lat="44.1051" lon="1.81002">
        <ele>288</ele>
        <time>2019-11-06T01:41:46Z</time>
      </trkpt>
      <trkpt lat="44.10513" lon="1.80982">
        <ele>288</ele>
        <time>2019-11-06T01:41:58Z</time>
      </trkpt>
      <trkpt lat="44.10521" lon="1.80964">
        <ele>287</ele>
        <time>2019-11-06T01:42:10Z</time>
      </trkpt>
      <trkpt lat="44.1053" lon="1.80956">
        <ele>287</ele>
        <time>2019-11-06T01:42:19Z</time>
      </trkpt>
      <trkpt lat="44.1054" lon="1.80958">
        <ele>285</ele>
        <time>2019-11-06T01:42:27Z</time>
      </trkpt>
      <trkpt lat="44.10544" lon="1.8097">
        <ele>284</ele>
        <time>2019-11-06T01:42:34Z</time>
      </trkpt>
      <trkpt lat="44.10542" lon="1.8098">
        <ele>284</ele>
        <time>2019-11-06T01:42:40Z</time>
      </trkpt>
      <trkpt lat="44.10543" lon="1.80996">
        <ele>283</ele>
        <time>2019-11-06T01:42:50Z</time>
      </trkpt>
      <trkpt lat="44.10552" lon="1.81009">
        <ele>281</ele>
        <time>2019-11-06T01:43:00Z</time>
      </trkpt>
      <trkpt lat="44.106" lon="1.81056">
        <ele>269</ele>
        <time>2019-11-06T01:43:47Z</time>
      </trkpt>
      <trkpt lat="44.10607" lon="1.81059">
        <ele>268</ele>
        <time>2019-11-06T01:43:53Z</time>
      </trkpt>
      <trkpt lat="44.10663" lon="1.81062">
        <ele>263</ele>
        <time>2019-11-06T01:44:38Z</time>
      </trkpt>
      <trkpt lat="44.10686" lon="1.81056">
        <ele>259</ele>
        <time>2019-11-06T01:44:56Z</time>
      </trkpt>
      <trkpt lat="44.10703" lon="1.81044">
        <ele>257</ele>
        <time>2019-11-06T01:45:12Z</time>
      </trkpt>
      <trkpt lat="44.10717" lon="1.81028">
        <ele>255</ele>
        <time>2019-11-06T01:45:26Z</time>
      </trkpt>
      <trkpt lat="44.10731" lon="1.80998">
        <ele>254</ele>
        <time>2019-11-06T01:45:47Z</time>
      </trkpt>
      <trkpt lat="44.10736" lon="1.80991">
        <ele>253</ele>
        <time>2019-11-06T01:45:52Z</time>
      </trkpt>
      <trkpt lat="44.10739" lon="1.80993">
        <ele>253</ele>
        <time>2019-11-06T01:45:55Z</time>
      </trkpt>
      <trkpt lat="44.10737" lon="1.81022">
        <ele>251</ele>
        <time>2019-11-06T01:46:12Z</time>
      </trkpt>
      <trkpt lat="44.1073" lon="1.81042">
        <ele>252</ele>
        <time>2019-11-06T01:46:25Z</time>
      </trkpt>
      <trkpt lat="44.10718" lon="1.81064">
        <ele>252</ele>
        <time>2019-11-06T01:46:40Z</time>
      </trkpt>
      <trkpt lat="44.10697" lon="1.8109">
        <ele>254</ele>
        <time>2019-11-06T01:47:03Z</time>
      </trkpt>
      <trkpt lat="44.10647" lon="1.81118">
        <ele>261</ele>
        <time>2019-11-06T01:47:46Z</time>
      </trkpt>
      <trkpt lat="44.10645" lon="1.81123">
        <ele>261</ele>
        <time>2019-11-06T01:47:49Z</time>
      </trkpt>
      <trkpt lat="44.10648" lon="1.81129">
        <ele>260</ele>
        <time>2019-11-06T01:47:54Z</time>
      </trkpt>
      <trkpt lat="44.1067" lon="1.81139">
        <ele>256</ele>
        <time>2019-11-06T01:48:12Z</time>
      </trkpt>
      <trkpt lat="44.10701" lon="1.81143">
        <ele>251</ele>
        <time>2019-11-06T01:48:37Z</time>
      </trkpt>
      <trkpt lat="44.10718" lon="1.81141">
        <ele>249</ele>
        <time>2019-11-06T01:48:51Z</time>
      </trkpt>
      <trkpt lat="44.10777" lon="1.81106">
        <ele>240</ele>
        <time>2019-11-06T01:49:42Z</time>
      </trkpt>
      <trkpt lat="44.10811" lon="1.81091">
        <ele>234</ele>
        <time>2019-11-06T01:50:11Z</time>
      </trkpt>
      <trkpt lat="44.10828" lon="1.8109">
        <ele>231</ele>
        <time>2019-11-06T01:50:24Z</time>
      </trkpt>
      <trkpt lat="44.10866" lon="1.81093">
        <ele>226</ele>
        <time>2019-11-06T01:50:55Z</time>
      </trkpt>
      <trkpt lat="44.1089" lon="1.811">
        <ele>223</ele>
        <time>2019-11-06T01:51:14Z</time>
      </trkpt>
      <trkpt lat="44.10948" lon="1.81108">
        <ele>218</ele>
        <time>2019-11-06T01:52:01Z</time>
      </trkpt>
      <trkpt lat="44.10939" lon="1.81131">
        <ele>219</ele>
        <time>2019-11-06T01:52:16Z</time>
      </trkpt>
      <trkpt lat="44.10904" lon="1.81188">
        <ele>220</ele>
        <time>2019-11-06T01:52:59Z</time>
      </trkpt>
      <trkpt lat="44.10898" lon="1.81214">
        <ele>220</ele>
        <time>2019-11-06T01:53:15Z</time>
      </trkpt>
      <trkpt lat="44.10884" lon="1.81233">
        <ele>220</ele>
        <time>2019-11-06T01:53:31Z</time>
      </trkpt>
      <trkpt lat="44.109" lon="1.81287">
        <ele>223</ele>
        <time>2019-11-06T01:54:04Z</time>
      </trkpt>
      <trkpt lat="44.10905" lon="1.81354">
        <ele>232</ele>
        <time>2019-11-06T01:54:43Z</time>
      </trkpt>
      <trkpt lat="44.10895" lon="1.81438">
        <ele>247</ele>
        <time>2019-11-06T01:55:32Z</time>
      </trkpt>
      <trkpt lat="44.10872" lon="1.81539">
        <ele>263</ele>
        <time>2019-11-06T01:56:33Z</time>
      </trkpt>
      <trkpt lat="44.10851" lon="1.81606">
        <ele>270</ele>
        <time>2019-11-06T01:57:15Z</time>
      </trkpt>
      <trkpt lat="44.10817" lon="1.81685">
        <ele>281</ele>
        <time>2019-11-06T01:58:08Z</time>
      </trkpt>
      <trkpt lat="44.10757" lon="1.81789">
        <ele>306</ele>
        <time>2019-11-06T01:59:24Z</time>
      </trkpt>
      <trkpt lat="44.10642" lon="1.81888">
        <ele>348</ele>
        <time>2019-11-06T02:01:13Z</time>
      </trkpt>
      <trkpt lat="44.10544" lon="1.82004">
        <ele>379</ele>
        <time>2019-11-06T02:02:56Z</time>
      </trkpt>
      <trkpt lat="44.10474" lon="1.82079">
        <ele>395</ele>
        <time>2019-11-06T02:04:06Z</time>
      </trkpt>
      <trkpt lat="44.10448" lon="1.82127">
        <ele>400</ele>
        <time>2019-11-06T02:04:41Z</time>
      </trkpt>
      <trkpt lat="44.10464" lon="1.82191">
        <ele>401</ele>
        <time>2019-11-06T02:05:20Z</time>
      </trkpt>
      <trkpt lat="44.1049" lon="1.8227">
        <ele>402</ele>
        <time>2019-11-06T02:06:10Z</time>
      </trkpt>
      <trkpt lat="44.10539" lon="1.82392">
        <ele>403</ele>
        <time>2019-11-06T02:07:30Z</time>
      </trkpt>
      <trkpt lat="44.10439" lon="1.82478">
        <ele>411</ele>
        <time>2019-11-06T02:09:04Z</time>
      </trkpt>
      <trkpt lat="44.10405" lon="1.82478">
        <ele>412</ele>
        <time>2019-11-06T02:09:32Z</time>
      </trkpt>
      <trkpt lat="44.10317" lon="1.82466">
        <ele>415</ele>
        <time>2019-11-06T02:10:42Z</time>
      </trkpt>
      <trkpt lat="44.10278" lon="1.82471">
        <ele>414</ele>
        <time>2019-11-06T02:11:14Z</time>
      </trkpt>
      <trkpt lat="44.10222" lon="1.82491">
        <ele>413</ele>
        <time>2019-11-06T02:12:00Z</time>
      </trkpt>
      <trkpt lat="44.10189" lon="1.82497">
        <ele>412</ele>
        <time>2019-11-06T02:12:27Z</time>
      </trkpt>
      <trkpt lat="44.10144" lon="1.825">
        <ele>413</ele>
        <time>2019-11-06T02:13:03Z</time>
      </trkpt>
      <trkpt lat="44.10116" lon="1.82499">
        <ele>414</ele>
        <time>2019-11-06T02:13:25Z</time>
      </trkpt>
      <trkpt lat="44.10086" lon="1.82502">
        <ele>416</ele>
        <time>2019-11-06T02:13:49Z</time>
      </trkpt>
      <trkpt lat="44.10076" lon="1.82506">
        <ele>416</ele>
        <time>2019-11-06T02:13:58Z</time>
      </trkpt>
      <trkpt lat="44.10031" lon="1.82541">
        <ele>418</ele>
        <time>2019-11-06T02:14:39Z</time>
      </trkpt>
      <trkpt lat="44.10023" lon="1.82549">
        <ele>419</ele>
        <time>2019-11-06T02:14:47Z</time>
      </trkpt>
      <trkpt lat="44.10009" lon="1.82574">
        <ele>419</ele>
        <time>2019-11-06T02:15:05Z</time>
      </trkpt>
      <trkpt lat="44.0998" lon="1.82651">
        <ele>422</ele>
        <time>2019-11-06T02:15:55Z</time>
      </trkpt>
      <trkpt lat="44.09972" lon="1.82692">
        <ele>423</ele>
        <time>2019-11-06T02:16:19Z</time>
      </trkpt>
      <trkpt lat="44.09973" lon="1.8277">
        <ele>422</ele>
        <time>2019-11-06T02:17:04Z</time>
      </trkpt>
      <trkpt lat="44.09983" lon="1.82819">
        <ele>422</ele>
        <time>2019-11-06T02:17:33Z</time>
      </trkpt>
      <trkpt lat="44.09991" lon="1.82895">
        <ele>424</ele>
        <time>2019-11-06T02:18:18Z</time>
      </trkpt>
      <trkpt lat="44.09991" lon="1.82946">
        <ele>425</ele>
        <time>2019-11-06T02:18:47Z</time>
      </trkpt>
      <trkpt lat="44.09985" lon="1.83073">
        <ele>425</ele>
        <time>2019-11-06T02:20:00Z</time>
      </trkpt>
      <trkpt lat="44.09981" lon="1.83105">
        <ele>425</ele>
        <time>2019-11-06T02:20:19Z</time>
      </trkpt>
      <trkpt lat="44.09981" lon="1.83182">
        <ele>423</ele>
        <time>2019-11-06T02:21:03Z</time>
      </trkpt>
      <trkpt lat="44.09974" lon="1.83206">
        <ele>422</ele>
        <time>2019-11-06T02:21:18Z</time>
      </trkpt>
      <trkpt lat="44.09963" lon="1.83227">
        <ele>422</ele>
        <time>2019-11-06T02:21:33Z</time>
      </trkpt>
      <trkpt lat="44.09952" lon="1.83256">
        <ele>422</ele>
        <time>2019-11-06T02:21:52Z</time>
      </trkpt>
      <trkpt lat="44.09928" lon="1.83298">
        <ele>421</ele>
        <time>2019-11-06T02:22:23Z</time>
      </trkpt>
      <trkpt lat="44.09905" lon="1.83324">
        <ele>420</ele>
        <time>2019-11-06T02:22:46Z</time>
      </trkpt>
      <trkpt lat="44.09896" lon="1.83341">
        <ele>419</ele>
        <time>2019-11-06T02:22:59Z</time>
      </trkpt>
      <trkpt lat="44.09819" lon="1.83518">
        <ele>421</ele>
        <time>2019-11-06T02:24:58Z</time>
      </trkpt>
      <trkpt lat="44.09933" lon="1.83501">
        <ele>417</ele>
        <time>2019-11-06T02:26:29Z</time>
      </trkpt>
      <trkpt lat="44.09976" lon="1.83498">
        <ele>415</ele>
        <time>2019-11-06T02:27:04Z</time>
      </trkpt>
      <trkpt lat="44.09964" lon="1.83512">
        <ele>415</ele>
        <time>2019-11-06T02:27:16Z</time>
      </trkpt>
      <trkpt lat="44.09947" lon="1.83541">
        <ele>415</ele>
        <time>2019-11-06T02:27:38Z</time>
      </trkpt>
      <trkpt lat="44.09858" lon="1.83704">
        <ele>416</ele>
        <time>2019-11-06T02:29:36Z</time>
      </trkpt>
      <trkpt lat="44.09854" lon="1.83725">
        <ele>415</ele>
        <time>2019-11-06T02:29:48Z</time>
      </trkpt>
      <trkpt lat="44.09853" lon="1.83772">
        <ele>413</ele>
        <time>2019-11-06T02:30:15Z</time>
      </trkpt>
      <trkpt lat="44.0985" lon="1.83798">
        <ele>412</ele>
        <time>2019-11-06T02:30:30Z</time>
      </trkpt>
      <trkpt lat="44.09824" lon="1.83847">
        <ele>412</ele>
        <time>2019-11-06T02:31:05Z</time>
      </trkpt>
      <trkpt lat="44.09816" lon="1.8388">
        <ele>412</ele>
        <time>2019-11-06T02:31:25Z</time>
      </trkpt>
      <trkpt lat="44.09812" lon="1.83924">
        <ele>412</ele>
        <time>2019-11-06T02:31:51Z</time>
      </trkpt>
      <trkpt lat="44.09812" lon="1.83951">
        <ele>413</ele>
        <time>2019-11-06T02:32:06Z</time>
      </trkpt>
      <trkpt lat="44.09813" lon="1.83989">
        <ele>414</ele>
        <time>2019-11-06T02:32:28Z</time>
      </trkpt>
      <trkpt lat="44.09818" lon="1.84038">
        <ele>418</ele>
        <time>2019-11-06T02:32:57Z</time>
      </trkpt>
      <trkpt lat="44.09903" lon="1.84035">
        <ele>419</ele>
        <time>2019-11-06T02:34:05Z</time>
      </trkpt>
      <trkpt lat="44.09912" lon="1.84108">
        <ele>428</ele>
        <time>2019-11-06T02:34:47Z</time>
      </trkpt>
      <trkpt lat="44.09926" lon="1.84182">
        <ele>436</ele>
        <time>2019-11-06T02:35:31Z</time>
      </trkpt>
      <trkpt lat="44.0995" lon="1.84254">
        <ele>443</ele>
        <time>2019-11-06T02:36:17Z</time>
      </trkpt>
      <trkpt lat="44.10004" lon="1.84378">
        <ele>450</ele>
        <time>2019-11-06T02:37:40Z</time>
      </trkpt>
      <trkpt lat="44.1002" lon="1.84451">
        <ele>452</ele>
        <time>2019-11-06T02:38:24Z</time>
      </trkpt>
      <trkpt lat="44.10032" lon="1.84482">
        <ele>451</ele>
        <time>2019-11-06T02:38:45Z</time>
      </trkpt>
      <trkpt lat="44.10059" lon="1.84512">
        <ele>449</ele>
        <time>2019-11-06T02:39:12Z</time>
      </trkpt>
      <trkpt lat="44.10073" lon="1.84523">
        <ele>448</ele>
        <time>2019-11-06T02:39:25Z</time>
      </trkpt>
      <trkpt lat="44.10112" lon="1.84544">
        <ele>445</ele>
        <time>2019-11-06T02:39:59Z</time>
      </trkpt>
      <trkpt lat="44.10185" lon="1.84603">
        <ele>445</ele>
        <time>2019-11-06T02:41:06Z</time>
      </trkpt>
      <trkpt lat="44.10226" lon="1.84643">
        <ele>444</ele>
        <time>2019-11-06T02:41:46Z</time>
      </trkpt>
      <trkpt lat="44.10241" lon="1.84661">
        <ele>444</ele>
        <time>2019-11-06T02:42:02Z</time>
      </trkpt>
      <trkpt lat="44.10263" lon="1.84701">
        <ele>444</ele>
        <time>2019-11-06T02:42:31Z</time>
      </trkpt>
      <trkpt lat="44.10282" lon="1.84759">
        <ele>446</ele>
        <time>2019-11-06T02:43:08Z</time>
      </trkpt>
      <trkpt lat="44.10295" lon="1.8478">
        <ele>447</ele>
        <time>2019-11-06T02:43:24Z</time>
      </trkpt>
      <trkpt lat="44.10315" lon="1.84796">
        <ele>447</ele>
        <time>2019-11-06T02:43:42Z</time>
      </trkpt>
      <trkpt lat="44.1034" lon="1.84836">
        <ele>448</ele>
        <time>2019-11-06T02:44:13Z</time>
      </trkpt>
      <trkpt lat="44.10342" lon="1.84846">
        <ele>449</ele>
        <time>2019-11-06T02:44:19Z</time>
      </trkpt>
      <trkpt lat="44.10343" lon="1.84855">
        <ele>449</ele>
        <time>2019-11-06T02:44:24Z</time>
      </trkpt>
      <trkpt lat="44.10331" lon="1.84896">
        <ele>454</ele>
        <time>2019-11-06T02:44:49Z</time>
      </trkpt>
      <trkpt lat="44.10331" lon="1.84903">
        <ele>454</ele>
        <time>2019-11-06T02:44:53Z</time>
      </trkpt>
      <trkpt lat="44.10345" lon="1.84996">
        <ele>456</ele>
        <time>2019-11-06T02:45:48Z</time>
      </trkpt>
      <trkpt lat="44.10348" lon="1.85079">
        <ele>459</ele>
        <time>2019-11-06T02:46:36Z</time>
      </trkpt>
      <trkpt lat="44.10355" lon="1.85104">
        <ele>458</ele>
        <time>2019-11-06T02:46:51Z</time>
      </trkpt>
      <trkpt lat="44.10358" lon="1.85132">
        <ele>458</ele>
        <time>2019-11-06T02:47:07Z</time>
      </trkpt>
      <trkpt lat="44.10348" lon="1.85167">
        <ele>460</ele>
        <time>2019-11-06T02:47:29Z</time>
      </trkpt>
      <trkpt lat="44.10344" lon="1.85212">
        <ele>461</ele>
        <time>2019-11-06T02:47:55Z</time>
      </trkpt>
      <trkpt lat="44.10339" lon="1.85222">
        <ele>461</ele>
        <time>2019-11-06T02:48:02Z</time>
      </trkpt>
      <trkpt lat="44.10339" lon="1.85233">
        <ele>461</ele>
        <time>2019-11-06T02:48:08Z</time>
      </trkpt>
      <trkpt lat="44.10351" lon="1.85287">
        <ele>459</ele>
        <time>2019-11-06T02:48:41Z</time>
      </trkpt>
      <trkpt lat="44.1037" lon="1.854">
        <ele>455</ele>
        <time>2019-11-06T02:49:48Z</time>
      </trkpt>
      <trkpt lat="44.10338" lon="1.85497">
        <ele>458</ele>
        <time>2019-11-06T02:50:49Z</time>
      </trkpt>
      <trkpt lat="44.10298" lon="1.85581">
        <ele>462</ele>
        <time>2019-11-06T02:51:47Z</time>
      </trkpt>
      <trkpt lat="44.10269" lon="1.85627">
        <ele>462</ele>
        <time>2019-11-06T02:52:22Z</time>
      </trkpt>
      <trkpt lat="44.10229" lon="1.85681">
        <ele>460</ele>
        <time>2019-11-06T02:53:07Z</time>
      </trkpt>
      <trkpt lat="44.10199" lon="1.85712">
        <ele>457</ele>
        <time>2019-11-06T02:53:37Z</time>
      </trkpt>
      <trkpt lat="44.10164" lon="1.85739">
        <ele>456</ele>
        <time>2019-11-06T02:54:09Z</time>
      </trkpt>
      <trkpt lat="44.10159" lon="1.85746">
        <ele>454</ele>
        <time>2019-11-06T02:54:14Z</time>
      </trkpt>
      <trkpt lat="44.10157" lon="1.85754">
        <ele>454</ele>
        <time>2019-11-06T02:54:19Z</time>
      </trkpt>
      <trkpt lat="44.10158" lon="1.85789">
        <ele>452</ele>
        <time>2019-11-06T02:54:39Z</time>
      </trkpt>
      <trkpt lat="44.10167" lon="1.85855">
        <ele>449</ele>
        <time>2019-11-06T02:55:18Z</time>
      </trkpt>
      <trkpt lat="44.10173" lon="1.85855">
        <ele>449</ele>
        <time>2019-11-06T02:55:23Z</time>
      </trkpt>
      <trkpt lat="44.10182" lon="1.85866">
        <ele>449</ele>
        <time>2019-11-06T02:55:32Z</time>
      </trkpt>
      <trkpt lat="44.10199" lon="1.85901">
        <ele>449</ele>
        <time>2019-11-06T02:55:57Z</time>
      </trkpt>
      <trkpt lat="44.10205" lon="1.85935">
        <ele>448</ele>
        <time>2019-11-06T02:56:17Z</time>
      </trkpt>
      <trkpt lat="44.10212" lon="1.86011">
        <ele>445</ele>
        <time>2019-11-06T02:57:01Z</time>
      </trkpt>
      <trkpt lat="44.10214" lon="1.86036">
        <ele>443</ele>
        <time>2019-11-06T02:57:15Z</time>
      </trkpt>
      <trkpt lat="44.10212" lon="1.86119">
        <ele>437</ele>
        <time>2019-11-06T02:58:03Z</time>
      </trkpt>
      <trkpt lat="44.10213" lon="1.86227">
        <ele>432</ele>
        <time>2019-11-06T02:59:05Z</time>
      </trkpt>
      <trkpt lat="44.10216" lon="1.86265">
        <ele>431</ele>
        <time>2019-11-06T02:59:27Z</time>
      </trkpt>
      <trkpt lat="44.10209" lon="1.86305">
        <ele>430</ele>
        <time>2019-11-06T02:59:51Z</time>
      </trkpt>
      <trkpt lat="44.10213" lon="1.8638">
        <ele>427</ele>
        <time>2019-11-06T03:00:34Z</time>
      </trkpt>
      <trkpt lat="44.10224" lon="1.86464">
        <ele>422</ele>
        <time>2019-11-06T03:01:23Z</time>
      </trkpt>
      <trkpt lat="44.10224" lon="1.86536">
        <ele>414</ele>
        <time>2019-11-06T03:02:05Z</time>
      </trkpt>
      <trkpt lat="44.10226" lon="1.86549">
        <ele>412</ele>
        <time>2019-11-06T03:02:12Z</time>
      </trkpt>
      <trkpt lat="44.10245" lon="1.86604">
        <ele>408</ele>
        <time>2019-11-06T03:02:47Z</time>
      </trkpt>
      <trkpt lat="44.10248" lon="1.8663">
        <ele>406</ele>
        <time>2019-11-06T03:03:02Z</time>
      </trkpt>
      <trkpt lat="44.1028" lon="1.86667">
        <ele>403</ele>
        <time>2019-11-06T03:03:36Z</time>
      </trkpt>
      <trkpt lat="44.10303" lon="1.86722">
        <ele>404</ele>
        <time>2019-11-06T03:04:12Z</time>
      </trkpt>
      <trkpt lat="44.10306" lon="1.86734">
        <ele>404</ele>
        <time>2019-11-06T03:04:20Z</time>
      </trkpt>
      <trkpt lat="44.10305" lon="1.86774">
        <ele>403</ele>
        <time>2019-11-06T03:04:43Z</time>
      </trkpt>
      <trkpt lat="44.10312" lon="1.86822">
        <ele>403</ele>
        <time>2019-11-06T03:05:11Z</time>
      </trkpt>
      <trkpt lat="44.10318" lon="1.86849">
        <ele>404</ele>
        <time>2019-11-06T03:05:27Z</time>
      </trkpt>
      <trkpt lat="44.10335" lon="1.86903">
        <ele>405</ele>
        <time>2019-11-06T03:06:01Z</time>
      </trkpt>
      <trkpt lat="44.10336" lon="1.86926">
        <ele>405</ele>
        <time>2019-11-06T03:06:14Z</time>
      </trkpt>
      <trkpt lat="44.10328" lon="1.86988">
        <ele>405</ele>
        <time>2019-11-06T03:06:50Z</time>
      </trkpt>
      <trkpt lat="44.10322" lon="1.87024">
        <ele>403</ele>
        <time>2019-11-06T03:07:12Z</time>
      </trkpt>
      <trkpt lat="44.10311" lon="1.87049">
        <ele>401</ele>
        <time>2019-11-06T03:07:29Z</time>
      </trkpt>
      <trkpt lat="44.10319" lon="1.87062">
        <ele>402</ele>
        <time>2019-11-06T03:07:38Z</time>
      </trkpt>
      <trkpt lat="44.10351" lon="1.8708">
        <ele>402</ele>
        <time>2019-11-06T03:08:06Z</time>
      </trkpt>
      <trkpt lat="44.10393" lon="1.87149">
        <ele>400</ele>
        <time>2019-11-06T03:08:58Z</time>
      </trkpt>
      <trkpt lat="44.10415" lon="1.8718">
        <ele>399</ele>
        <time>2019-11-06T03:09:23Z</time>
      </trkpt>
      <trkpt lat="44.10426" lon="1.87204">
        <ele>400</ele>
        <time>2019-11-06T03:09:39Z</time>
      </trkpt>
      <trkpt lat="44.1046" lon="1.87246">
        <ele>398</ele>
        <time>2019-11-06T03:10:16Z</time>
      </trkpt>
      <trkpt lat="44.10477" lon="1.87274">
        <ele>395</ele>
        <time>2019-11-06T03:10:37Z</time>
      </trkpt>
      <trkpt lat="44.1049" lon="1.87283">
        <ele>393</ele>
        <time>2019-11-06T03:10:49Z</time>
      </trkpt>
      <trkpt lat="44.10512" lon="1.8729">
        <ele>389</ele>
        <time>2019-11-06T03:11:07Z</time>
      </trkpt>
      <trkpt lat="44.10543" lon="1.87316">
        <ele>386</ele>
        <time>2019-11-06T03:11:36Z</time>
      </trkpt>
      <trkpt lat="44.1057" lon="1.87332">
        <ele>383</ele>
        <time>2019-11-06T03:11:59Z</time>
      </trkpt>
      <trkpt lat="44.10593" lon="1.87355">
        <ele>381</ele>
        <time>2019-11-06T03:12:22Z</time>
      </trkpt>
      <trkpt lat="44.10626" lon="1.87371">
        <ele>378</ele>
        <time>2019-11-06T03:12:50Z</time>
      </trkpt>
      <trkpt lat="44.10634" lon="1.87377">
        <ele>378</ele>
        <time>2019-11-06T03:12:57Z</time>
      </trkpt>
      <trkpt lat="44.10626" lon="1.87393">
        <ele>378</ele>
        <time>2019-11-06T03:13:08Z</time>
      </trkpt>
      <trkpt lat="44.1057" lon="1.8746">
        <ele>379</ele>
        <time>2019-11-06T03:14:07Z</time>
      </trkpt>
      <trkpt lat="44.10552" lon="1.87492">
        <ele>378</ele>
        <time>2019-11-06T03:14:31Z</time>
      </trkpt>
      <trkpt lat="44.10542" lon="1.87516">
        <ele>377</ele>
        <time>2019-11-06T03:14:47Z</time>
      </trkpt>
      <trkpt lat="44.10526" lon="1.87537">
        <ele>376</ele>
        <time>2019-11-06T03:15:04Z</time>
      </trkpt>
      <trkpt lat="44.10498" lon="1.87591">
        <ele>373</ele>
        <time>2019-11-06T03:15:43Z</time>
      </trkpt>
      <trkpt lat="44.10489" lon="1.87603">
        <ele>372</ele>
        <time>2019-11-06T03:15:53Z</time>
      </trkpt>
      <trkpt lat="44.10486" lon="1.87639">
        <ele>370</ele>
        <time>2019-11-06T03:16:13Z</time>
      </trkpt>
      <trkpt lat="44.10479" lon="1.87673">
        <ele>368</ele>
        <time>2019-11-06T03:16:34Z</time>
      </trkpt>
      <trkpt lat="44.1048" lon="1.87678">
        <ele>368</ele>
        <time>2019-11-06T03:16:37Z</time>
      </trkpt>
      <trkpt lat="44.10465" lon="1.87713">
        <ele>368</ele>
        <time>2019-11-06T03:17:00Z</time>
      </trkpt>
      <trkpt lat="44.1046" lon="1.87718">
        <ele>367</ele>
        <time>2019-11-06T03:17:05Z</time>
      </trkpt>
      <trkpt lat="44.10438" lon="1.87729">
        <ele>366</ele>
        <time>2019-11-06T03:17:24Z</time>
      </trkpt>
      <trkpt lat="44.10398" lon="1.87756">
        <ele>363</ele>
        <time>2019-11-06T03:17:59Z</time>
      </trkpt>
      <trkpt lat="44.10386" lon="1.87761">
        <ele>361</ele>
        <time>2019-11-06T03:18:09Z</time>
      </trkpt>
      <trkpt lat="44.10342" lon="1.87771">
        <ele>356</ele>
        <time>2019-11-06T03:18:45Z</time>
      </trkpt>
      <trkpt lat="44.10316" lon="1.87782">
        <ele>353</ele>
        <time>2019-11-06T03:19:07Z</time>
      </trkpt>
      <trkpt lat="44.10306" lon="1.87798">
        <ele>351</ele>
        <time>2019-11-06T03:19:19Z</time>
      </trkpt>
      <trkpt lat="44.10284" lon="1.87819">
        <ele>348</ele>
        <time>2019-11-06T03:19:40Z</time>
      </trkpt>
      <trkpt lat="44.10259" lon="1.87857">
        <ele>343</ele>
        <time>2019-11-06T03:20:10Z</time>
      </trkpt>
      <trkpt lat="44.10234" lon="1.87907">
        <ele>338</ele>
        <time>2019-11-06T03:20:45Z</time>
      </trkpt>
      <trkpt lat="44.10229" lon="1.87913">
        <ele>337</ele>
        <time>2019-11-06T03:20:50Z</time>
      </trkpt>
      <trkpt lat="44.10225" lon="1.87915">
        <ele>336</ele>
        <time>2019-11-06T03:20:54Z</time>
      </trkpt>
      <trkpt lat="44.10218" lon="1.87913">
        <ele>336</ele>
        <time>2019-11-06T03:21:00Z</time>
      </trkpt>
      <trkpt lat="44.10188" lon="1.87913">
        <ele>333</ele>
        <time>2019-11-06T03:21:24Z</time>
      </trkpt>
      <trkpt lat="44.10159" lon="1.87958">
        <ele>326</ele>
        <time>2019-11-06T03:21:58Z</time>
      </trkpt>
      <trkpt lat="44.10138" lon="1.87976">
        <ele>319</ele>
        <time>2019-11-06T03:22:18Z</time>
      </trkpt>
      <trkpt lat="44.10134" lon="1.87999">
        <ele>316</ele>
        <time>2019-11-06T03:22:32Z</time>
      </trkpt>
      <trkpt lat="44.10131" lon="1.88004">
        <ele>315</ele>
        <time>2019-11-06T03:22:35Z</time>
      </trkpt>
      <trkpt lat="44.10126" lon="1.88008">
        <ele>313</ele>
        <time>2019-11-06T03:22:40Z</time>
      </trkpt>
      <trkpt lat="44.10108" lon="1.8801">
        <ele>309</ele>
        <time>2019-11-06T03:22:54Z</time>
      </trkpt>
      <trkpt lat="44.10096" lon="1.88099">
        <ele>295</ele>
        <time>2019-11-06T03:23:47Z</time>
      </trkpt>
      <trkpt lat="44.1008" lon="1.88148">
        <ele>281</ele>
        <time>2019-11-06T03:24:17Z</time>
      </trkpt>
      <trkpt lat="44.10068" lon="1.88176">
        <ele>272</ele>
        <time>2019-11-06T03:24:36Z</time>
      </trkpt>
      <trkpt lat="44.10047" lon="1.8821">
        <ele>263</ele>
        <time>2019-11-06T03:25:02Z</time>
      </trkpt>
      <trkpt lat="44.10043" lon="1.8821">
        <ele>262</ele>
        <time>2019-11-06T03:25:05Z</time>
      </trkpt>
      <trkpt lat="44.10031" lon="1.882">
        <ele>261</ele>
        <time>2019-11-06T03:25:16Z</time>
      </trkpt>
      <trkpt lat="44.10027" lon="1.88203">
        <ele>260</ele>
        <time>2019-11-06T03:25:20Z</time>
      </trkpt>
      <trkpt lat="44.09991" lon="1.8827">
        <ele>249</ele>
        <time>2019-11-06T03:26:08Z</time>
      </trkpt>
      <trkpt lat="44.09937" lon="1.88394">
        <ele>230</ele>
        <time>2019-11-06T03:27:32Z</time>
      </trkpt>
      <trkpt lat="44.09933" lon="1.8843">
        <ele>227</ele>
        <time>2019-11-06T03:27:52Z</time>
      </trkpt>
      <trkpt lat="44.09944" lon="1.88483">
        <ele>226</ele>
        <time>2019-11-06T03:28:24Z</time>
      </trkpt>
      <trkpt lat="44.0994" lon="1.88511">
        <ele>224</ele>
        <time>2019-11-06T03:28:41Z</time>
      </trkpt>
      <trkpt lat="44.09913" lon="1.8857">
        <ele>217</ele>
        <time>2019-11-06T03:29:21Z</time>
      </trkpt>
      <trkpt lat="44.09905" lon="1.886">
        <ele>212</ele>
        <time>2019-11-06T03:29:39Z</time>
      </trkpt>
      <trkpt lat="44.09893" lon="1.88683">
        <ele>197</ele>
        <time>2019-11-06T03:30:28Z</time>
      </trkpt>
      <trkpt lat="44.0989" lon="1.88722">
        <ele>189</ele>
        <time>2019-11-06T03:30:50Z</time>
      </trkpt>
      <trkpt lat="44.09881" lon="1.88749">
        <ele>184</ele>
        <time>2019-11-06T03:31:08Z</time>
      </trkpt>
      <trkpt lat="44.0987" lon="1.88763">
        <ele>181</ele>
        <time>2019-11-06T03:31:20Z</time>
      </trkpt>
      <trkpt lat="44.09862" lon="1.8878">
        <ele>178</ele>
        <time>2019-11-06T03:31:31Z</time>
      </trkpt>
      <trkpt lat="44.09856" lon="1.88781">
        <ele>177</ele>
        <time>2019-11-06T03:31:36Z</time>
      </trkpt>
      <trkpt lat="44.09836" lon="1.88777">
        <ele>175</ele>
        <time>2019-11-06T03:31:52Z</time>
      </trkpt>
      <trkpt lat="44.09832" lon="1.88795">
        <ele>172</ele>
        <time>2019-11-06T03:32:03Z</time>
      </trkpt>
      <trkpt lat="44.09818" lon="1.88833">
        <ele>166</ele>
        <time>2019-11-06T03:32:28Z</time>
      </trkpt>
      <trkpt lat="44.09792" lon="1.88863">
        <ele>161</ele>
        <time>2019-11-06T03:32:55Z</time>
      </trkpt>
      <trkpt lat="44.0979" lon="1.88871">
        <ele>160</ele>
        <time>2019-11-06T03:33:00Z</time>
      </trkpt>
      <trkpt lat="44.09795" lon="1.88871">
        <ele>160</ele>
        <time>2019-11-06T03:33:04Z</time>
      </trkpt>
      <trkpt lat="44.09792" lon="1.88886">
        <ele>159</ele>
        <time>2019-11-06T03:33:13Z</time>
      </trkpt>
      <trkpt lat="44.09787" lon="1.8889">
        <ele>158</ele>
        <time>2019-11-06T03:33:17Z</time>
      </trkpt>
      <trkpt lat="44.09779" lon="1.88891">
        <ele>158</ele>
        <time>2019-11-06T03:33:24Z</time>
      </trkpt>
      <trkpt lat="44.09753" lon="1.88886">
        <ele>158</ele>
        <time>2019-11-06T03:33:45Z</time>
      </trkpt>
      <trkpt lat="44.09723" lon="1.8893">
        <ele>155</ele>
        <time>2019-11-06T03:34:19Z</time>
      </trkpt>
      <trkpt lat="44.09683" lon="1.88961">
        <ele>157</ele>
        <time>2019-11-06T03:34:56Z</time>
      </trkpt>
      <trkpt lat="44.09666" lon="1.88981">
        <ele>158</ele>
        <time>2019-11-06T03:35:14Z</time>
      </trkpt>
      <trkpt lat="44.09664" lon="1.89007">
        <ele>159</ele>
        <time>2019-11-06T03:35:29Z</time>
      </trkpt>
      <trkpt lat="44.09667" lon="1.89056">
        <ele>164</ele>
        <time>2019-11-06T03:35:57Z</time>
      </trkpt>
      <trkpt lat="44.09672" lon="1.89074">
        <ele>166</ele>
        <time>2019-11-06T03:36:08Z</time>
      </trkpt>
      <trkpt lat="44.09671" lon="1.89093">
        <ele>169</ele>
        <time>2019-11-06T03:36:19Z</time>
      </trkpt>
      <trkpt lat="44.09662" lon="1.89118">
        <ele>173</ele>
        <time>2019-11-06T03:36:35Z</time>
      </trkpt>
      <trkpt lat="44.09634" lon="1.89164">
        <ele>178</ele>
        <time>2019-11-06T03:37:10Z</time>
      </trkpt>
      <trkpt lat="44.0962" lon="1.89194">
        <ele>181</ele>
        <time>2019-11-06T03:37:31Z</time>
      </trkpt>
      <trkpt lat="44.09622" lon="1.89203">
        <ele>183</ele>
        <time>2019-11-06T03:37:36Z</time>
      </trkpt>
      <trkpt lat="44.09626" lon="1.89205">
        <ele>184</ele>
        <time>2019-11-06T03:37:39Z</time>
      </trkpt>
      <trkpt lat="44.09632" lon="1.89203">
        <ele>184</ele>
        <time>2019-11-06T03:37:44Z</time>
      </trkpt>
      <trkpt lat="44.0964" lon="1.89196">
        <ele>185</ele>
        <time>2019-11-06T03:37:52Z</time>
      </trkpt>
      <trkpt lat="44.09651" lon="1.89182">
        <ele>184</ele>
        <time>2019-11-06T03:38:04Z</time>
      </trkpt>
      <trkpt lat="44.09657" lon="1.89179">
        <ele>184</ele>
        <time>2019-11-06T03:38:09Z</time>
      </trkpt>
      <trkpt lat="44.09661" lon="1.89181">
        <ele>185</ele>
        <time>2019-11-06T03:38:12Z</time>
      </trkpt>
      <trkpt lat="44.09631" lon="1.893">
        <ele>198</ele>
        <time>2019-11-06T03:39:25Z</time>
      </trkpt>
      <trkpt lat="44.09615" lon="1.89374">
        <ele>201</ele>
        <time>2019-11-06T03:40:09Z</time>
      </trkpt>
      <trkpt lat="44.0962" lon="1.89426">
        <ele>206</ele>
        <time>2019-11-06T03:40:40Z</time>
      </trkpt>
      <trkpt lat="44.09629" lon="1.89465">
        <ele>210</ele>
        <time>2019-11-06T03:41:03Z</time>
      </trkpt>
      <trkpt lat="44.09631" lon="1.89524">
        <ele>215</ele>
        <time>2019-11-06T03:41:37Z</time>
      </trkpt>
      <trkpt lat="44.0962" lon="1.8963">
        <ele>225</ele>
        <time>2019-11-06T03:42:39Z</time>
      </trkpt>
      <trkpt lat="44.0959" lon="1.8971">
        <ele>230</ele>
        <time>2019-11-06T03:43:31Z</time>
      </trkpt>
      <trkpt lat="44.0957" lon="1.89752">
        <ele>234</ele>
        <time>2019-11-06T03:43:59Z</time>
      </trkpt>
      <trkpt lat="44.09564" lon="1.89774">
        <ele>237</ele>
        <time>2019-11-06T03:44:13Z</time>
      </trkpt>
      <trkpt lat="44.09551" lon="1.89807">
        <ele>242</ele>
        <time>2019-11-06T03:44:35Z</time>
      </trkpt>
      <trkpt lat="44.09501" lon="1.89857">
        <ele>244</ele>
        <time>2019-11-06T03:45:24Z</time>
      </trkpt>
      <trkpt lat="44.09481" lon="1.89882">
        <ele>245</ele>
        <time>2019-11-06T03:45:45Z</time>
      </trkpt>
      <trkpt lat="44.09471" lon="1.89916">
        <ele>248</ele>
        <time>2019-11-06T03:46:07Z</time>
      </trkpt>
      <trkpt lat="44.09454" lon="1.90008">
        <ele>257</ele>
        <time>2019-11-06T03:47:01Z</time>
      </trkpt>
      <trkpt lat="44.09445" lon="1.90029">
        <ele>259</ele>
        <time>2019-11-06T03:47:15Z</time>
      </trkpt>
      <trkpt lat="44.09386" lon="1.90128">
        <ele>269</ele>
        <time>2019-11-06T03:48:29Z</time>
      </trkpt>
      <trkpt lat="44.09366" lon="1.90154">
        <ele>272</ele>
        <time>2019-11-06T03:48:51Z</time>
      </trkpt>
      <trkpt lat="44.09353" lon="1.90164">
        <ele>273</ele>
        <time>2019-11-06T03:49:03Z</time>
      </trkpt>
      <trkpt lat="44.09326" lon="1.90169">
        <ele>273</ele>
        <time>2019-11-06T03:49:25Z</time>
      </trkpt>
      <trkpt lat="44.09264" lon="1.90223">
        <ele>277</ele>
        <time>2019-11-06T03:50:23Z</time>
      </trkpt>
      <trkpt lat="44.0923" lon="1.90235">
        <ele>272</ele>
        <time>2019-11-06T03:50:52Z</time>
      </trkpt>
      <trkpt lat="44.0918" lon="1.90283">
        <ele>269</ele>
        <time>2019-11-06T03:51:40Z</time>
      </trkpt>
      <trkpt lat="44.09166" lon="1.90313">
        <ele>272</ele>
        <time>2019-11-06T03:52:01Z</time>
      </trkpt>
      <trkpt lat="44.09144" lon="1.90377">
        <ele>281</ele>
        <time>2019-11-06T03:52:42Z</time>
      </trkpt>
      <trkpt lat="44.09134" lon="1.90393">
        <ele>282</ele>
        <time>2019-11-06T03:52:54Z</time>
      </trkpt>
      <trkpt lat="44.09125" lon="1.90402">
        <ele>283</ele>
        <time>2019-11-06T03:53:03Z</time>
      </trkpt>
      <trkpt lat="44.09104" lon="1.90418">
        <ele>282</ele>
        <time>2019-11-06T03:53:22Z</time>
      </trkpt>
      <trkpt lat="44.09094" lon="1.90422">
        <ele>281</ele>
        <time>2019-11-06T03:53:30Z</time>
      </trkpt>
      <trkpt lat="44.09072" lon="1.90421">
        <ele>280</ele>
        <time>2019-11-06T03:53:48Z</time>
      </trkpt>
      <trkpt lat="44.0903" lon="1.90411">
        <ele>279</ele>
        <time>2019-11-06T03:54:22Z</time>
      </trkpt>
      <trkpt lat="44.08989" lon="1.90414">
        <ele>280</ele>
        <time>2019-11-06T03:54:55Z</time>
      </trkpt>
      <trkpt lat="44.08984" lon="1.90417">
        <ele>280</ele>
        <time>2019-11-06T03:54:59Z</time>
      </trkpt>
      <trkpt lat="44.08982" lon="1.90429">
        <ele>281</ele>
        <time>2019-11-06T03:55:06Z</time>
      </trkpt>
      <trkpt lat="44.08996" lon="1.90463">
        <ele>285</ele>
        <time>2019-11-06T03:55:29Z</time>
      </trkpt>
      <trkpt lat="44.09001" lon="1.90482">
        <ele>288</ele>
        <time>2019-11-06T03:55:40Z</time>
      </trkpt>
      <trkpt lat="44.08982" lon="1.90496">
        <ele>283</ele>
        <time>2019-11-06T03:55:58Z</time>
      </trkpt>
      <trkpt lat="44.08975" lon="1.90519">
        <ele>280</ele>
        <time>2019-11-06T03:56:12Z</time>
      </trkpt>
      <trkpt lat="44.08975" lon="1.90527">
        <ele>280</ele>
        <time>2019-11-06T03:56:17Z</time>
      </trkpt>
      <trkpt lat="44.0899" lon="1.90591">
        <ele>282</ele>
        <time>2019-11-06T03:56:55Z</time>
      </trkpt>
      <trkpt lat="44.08998" lon="1.90638">
        <ele>284</ele>
        <time>2019-11-06T03:57:23Z</time>
      </trkpt>
      <trkpt lat="44.08985" lon="1.90851">
        <ele>284</ele>
        <time>2019-11-06T03:59:26Z</time>
      </trkpt>
      <trkpt lat="44.08967" lon="1.90941">
        <ele>282</ele>
        <time>2019-11-06T04:00:20Z</time>
      </trkpt>
      <trkpt lat="44.08964" lon="1.90966">
        <ele>283</ele>
        <time>2019-11-06T04:00:34Z</time>
      </trkpt>
      <trkpt lat="44.08928" lon="1.9103">
        <ele>284</ele>
        <time>2019-11-06T04:01:21Z</time>
      </trkpt>
      <trkpt lat="44.08925" lon="1.9104">
        <ele>285</ele>
        <time>2019-11-06T04:01:27Z</time>
      </trkpt>
      <trkpt lat="44.08921" lon="1.9108">
        <ele>291</ele>
        <time>2019-11-06T04:01:50Z</time>
      </trkpt>
      <trkpt lat="44.08914" lon="1.91112">
        <ele>293</ele>
        <time>2019-11-06T04:02:10Z</time>
      </trkpt>
      <trkpt lat="44.08881" lon="1.91199">
        <ele>298</ele>
        <time>2019-11-06T04:03:06Z</time>
      </trkpt>
      <trkpt lat="44.0891" lon="1.91281">
        <ele>304</ele>
        <time>2019-11-06T04:03:59Z</time>
      </trkpt>
      <trkpt lat="44.0892" lon="1.91324">
        <ele>305</ele>
        <time>2019-11-06T04:04:25Z</time>
      </trkpt>
      <trkpt lat="44.08901" lon="1.91324">
        <ele>305</ele>
        <time>2019-11-06T04:04:40Z</time>
      </trkpt>
      <trkpt lat="44.08881" lon="1.91334">
        <ele>305</ele>
        <time>2019-11-06T04:04:57Z</time>
      </trkpt>
      <trkpt lat="44.08811" lon="1.91382">
        <ele>304</ele>
        <time>2019-11-06T04:06:00Z</time>
      </trkpt>
      <trkpt lat="44.08725" lon="1.91462">
        <ele>303</ele>
        <time>2019-11-06T04:07:22Z</time>
      </trkpt>
      <trkpt lat="44.08707" lon="1.91475">
        <ele>303</ele>
        <time>2019-11-06T04:07:39Z</time>
      </trkpt>
      <trkpt lat="44.08654" lon="1.91501">
        <ele>303</ele>
        <time>2019-11-06T04:08:24Z</time>
      </trkpt>
      <trkpt lat="44.08514" lon="1.91539">
        <ele>298</ele>
        <time>2019-11-06T04:10:18Z</time>
      </trkpt>
      <trkpt lat="44.08465" lon="1.91549">
        <ele>297</ele>
        <time>2019-11-06T04:10:57Z</time>
      </trkpt>
      <trkpt lat="44.08432" lon="1.91549">
        <ele>297</ele>
        <time>2019-11-06T04:11:24Z</time>
      </trkpt>
      <trkpt lat="44.08372" lon="1.91562">
        <ele>298</ele>
        <time>2019-11-06T04:12:12Z</time>
      </trkpt>
      <trkpt lat="44.08286" lon="1.91589">
        <ele>301</ele>
        <time>2019-11-06T04:13:23Z</time>
      </trkpt>
      <trkpt lat="44.08244" lon="1.9161">
        <ele>302</ele>
        <time>2019-11-06T04:13:59Z</time>
      </trkpt>
      <trkpt lat="44.08237" lon="1.91614">
        <ele>301</ele>
        <time>2019-11-06T04:14:05Z</time>
      </trkpt>
      <trkpt lat="44.08137" lon="1.91732">
        <ele>298</ele>
        <time>2019-11-06T04:15:50Z</time>
      </trkpt>
      <trkpt lat="44.08103" lon="1.91782">
        <ele>296</ele>
        <time>2019-11-06T04:16:29Z</time>
      </trkpt>
      <trkpt lat="44.07968" lon="1.91711">
        <ele>292</ele>
        <time>2019-11-06T04:18:25Z</time>
      </trkpt>
      <trkpt lat="44.07961" lon="1.9174">
        <ele>292</ele>
        <time>2019-11-06T04:18:43Z</time>
      </trkpt>
      <trkpt lat="44.07955" lon="1.9175">
        <ele>292</ele>
        <time>2019-11-06T04:18:50Z</time>
      </trkpt>
      <trkpt lat="44.07933" lon="1.91766">
        <ele>290</ele>
        <time>2019-11-06T04:19:10Z</time>
      </trkpt>
      <trkpt lat="44.07888" lon="1.9179">
        <ele>287</ele>
        <time>2019-11-06T04:19:49Z</time>
      </trkpt>
      <trkpt lat="44.07876" lon="1.9179">
        <ele>286</ele>
        <time>2019-11-06T04:19:58Z</time>
      </trkpt>
      <trkpt lat="44.07847" lon="1.91769">
        <ele>283</ele>
        <time>2019-11-06T04:20:24Z</time>
      </trkpt>
      <trkpt lat="44.07836" lon="1.91863">
        <ele>284</ele>
        <time>2019-11-06T04:21:19Z</time>
      </trkpt>
      <trkpt lat="44.07831" lon="1.91885">
        <ele>284</ele>
        <time>2019-11-06T04:21:32Z</time>
      </trkpt>
      <trkpt lat="44.07817" lon="1.91917">
        <ele>281</ele>
        <time>2019-11-06T04:21:54Z</time>
      </trkpt>
      <trkpt lat="44.07797" lon="1.92026">
        <ele>277</ele>
        <time>2019-11-06T04:22:59Z</time>
      </trkpt>
      <trkpt lat="44.07792" lon="1.92045">
        <ele>277</ele>
        <time>2019-11-06T04:23:10Z</time>
      </trkpt>
      <trkpt lat="44.07777" lon="1.92053">
        <ele>272</ele>
        <time>2019-11-06T04:23:23Z</time>
      </trkpt>
      <trkpt lat="44.07737" lon="1.92187">
        <ele>268</ele>
        <time>2019-11-06T04:24:47Z</time>
      </trkpt>
      <trkpt lat="44.07734" lon="1.92217">
        <ele>268</ele>
        <time>2019-11-06T04:25:04Z</time>
      </trkpt>
      <trkpt lat="44.07719" lon="1.92267">
        <ele>264</ele>
        <time>2019-11-06T04:25:35Z</time>
      </trkpt>
      <trkpt lat="44.07671" lon="1.92346">
        <ele>248</ele>
        <time>2019-11-06T04:26:35Z</time>
      </trkpt>
      <trkpt lat="44.07644" lon="1.92404">
        <ele>241</ele>
        <time>2019-11-06T04:27:14Z</time>
      </trkpt>
      <trkpt lat="44.07596" lon="1.92495">
        <ele>226</ele>
        <time>2019-11-06T04:28:19Z</time>
      </trkpt>
      <trkpt lat="44.07536" lon="1.92576">
        <ele>209</ele>
        <time>2019-11-06T04:29:26Z</time>
      </trkpt>
      <trkpt lat="44.07493" lon="1.92626">
        <ele>197</ele>
        <time>2019-11-06T04:30:11Z</time>
      </trkpt>
      <trkpt lat="44.07491" lon="1.92632">
        <ele>196</ele>
        <time>2019-11-06T04:30:15Z</time>
      </trkpt>
      <trkpt lat="44.07492" lon="1.92643">
        <ele>196</ele>
        <time>2019-11-06T04:30:21Z</time>
      </trkpt>
      <trkpt lat="44.07501" lon="1.92659">
        <ele>196</ele>
        <time>2019-11-06T04:30:33Z</time>
      </trkpt>
      <trkpt lat="44.07483" lon="1.92672">
        <ele>191</ele>
        <time>2019-11-06T04:30:49Z</time>
      </trkpt>
      <trkpt lat="44.07467" lon="1.92688">
        <ele>185</ele>
        <time>2019-11-06T04:31:05Z</time>
      </trkpt>
      <trkpt lat="44.07425" lon="1.92704">
        <ele>175</ele>
        <time>2019-11-06T04:31:40Z</time>
      </trkpt>
      <trkpt lat="44.07436" lon="1.92719">
        <ele>175</ele>
        <time>2019-11-06T04:31:52Z</time>
      </trkpt>
      <trkpt lat="44.07442" lon="1.92735">
        <ele>174</ele>
        <time>2019-11-06T04:32:03Z</time>
      </trkpt>
      <trkpt lat="44.07456" lon="1.92789">
        <ele>170</ele>
        <time>2019-11-06T04:32:36Z</time>
      </trkpt>
      <trkpt lat="44.07485" lon="1.92853">
        <ele>167</ele>
        <time>2019-11-06T04:33:19Z</time>
      </trkpt>
      <trkpt lat="44.07521" lon="1.92913">
        <ele>168</ele>
        <time>2019-11-06T04:34:04Z</time>
      </trkpt>
      <trkpt lat="44.0754" lon="1.92966">
        <ele>171</ele>
        <time>2019-11-06T04:34:38Z</time>
      </trkpt>
      <trkpt lat="44.07548" lon="1.93016">
        <ele>173</ele>
        <time>2019-11-06T04:35:08Z</time>
      </trkpt>
      <trkpt lat="44.07548" lon="1.93034">
        <ele>174</ele>
        <time>2019-11-06T04:35:18Z</time>
      </trkpt>
      <trkpt lat="44.07547" lon="1.93064">
        <ele>175</ele>
        <time>2019-11-06T04:35:35Z</time>
      </trkpt>
      <trkpt lat="44.07538" lon="1.93098">
        <ele>175</ele>
        <time>2019-11-06T04:35:56Z</time>
      </trkpt>
      <trkpt lat="44.0745" lon="1.9325">
        <ele>169</ele>
        <time>2019-11-06T04:37:48Z</time>
      </trkpt>
      <trkpt lat="44.07367" lon="1.93473">
        <ele>167</ele>
        <time>2019-11-06T04:40:13Z</time>
      </trkpt>
      <trkpt lat="44.07357" lon="1.93482">
        <ele>166</ele>
        <time>2019-11-06T04:40:22Z</time>
      </trkpt>
      <trkpt lat="44.07329" lon="1.93479">
        <ele>163</ele>
        <time>2019-11-06T04:40:45Z</time>
      </trkpt>
      <trkpt lat="44.07312" lon="1.93492">
        <ele>162</ele>
        <time>2019-11-06T04:41:00Z</time>
      </trkpt>
      <trkpt lat="44.07306" lon="1.93506">
        <ele>162</ele>
        <time>2019-11-06T04:41:10Z</time>
      </trkpt>
      <trkpt lat="44.07297" lon="1.93516">
        <ele>162</ele>
        <time>2019-11-06T04:41:19Z</time>
      </trkpt>
      <trkpt lat="44.0699" lon="1.94059">
        <ele>164</ele>
        <time>2019-11-06T04:47:57Z</time>
      </trkpt>
      <trkpt lat="44.06981" lon="1.94073">
        <ele>164</ele>
        <time>2019-11-06T04:48:07Z</time>
      </trkpt>
      <trkpt lat="44.06972" lon="1.94072">
        <ele>164</ele>
        <time>2019-11-06T04:48:15Z</time>
      </trkpt>
      <trkpt lat="44.06976" lon="1.94082">
        <ele>164</ele>
        <time>2019-11-06T04:48:21Z</time>
      </trkpt>
      <trkpt lat="44.06984" lon="1.94087">
        <ele>164</ele>
        <time>2019-11-06T04:48:28Z</time>
      </trkpt>
      <trkpt lat="44.06998" lon="1.94072">
        <ele>164</ele>
        <time>2019-11-06T04:48:42Z</time>
      </trkpt>
      <trkpt lat="44.07001" lon="1.94081">
        <ele>164</ele>
        <time>2019-11-06T04:48:48Z</time>
      </trkpt>
      <trkpt lat="44.07007" lon="1.94088">
        <ele>164</ele>
        <time>2019-11-06T04:48:54Z</time>
      </trkpt>
      <trkpt lat="44.07034" lon="1.94105">
        <ele>165</ele>
        <time>2019-11-06T04:49:18Z</time>
      </trkpt>
      <trkpt lat="44.07051" lon="1.9413">
        <ele>165</ele>
        <time>2019-11-06T04:49:38Z</time>
      </trkpt>
      <trkpt lat="44.07078" lon="1.94146">
        <ele>166</ele>
        <time>2019-11-06T04:50:01Z</time>
      </trkpt>
      <trkpt lat="44.07105" lon="1.94151">
        <ele>166</ele>
        <time>2019-11-06T04:50:23Z</time>
      </trkpt>
      <trkpt lat="44.07121" lon="1.94151">
        <ele>167</ele>
        <time>2019-11-06T04:50:36Z</time>
      </trkpt>
      <trkpt lat="44.07154" lon="1.94146">
        <ele>168</ele>
        <time>2019-11-06T04:51:03Z</time>
      </trkpt>
      <trkpt lat="44.07211" lon="1.94148">
        <ele>170</ele>
        <time>2019-11-06T04:51:48Z</time>
      </trkpt>
      <trkpt lat="44.07227" lon="1.94151">
        <ele>171</ele>
        <time>2019-11-06T04:52:01Z</time>
      </trkpt>
      <trkpt lat="44.07238" lon="1.94156">
        <ele>171</ele>
        <time>2019-11-06T04:52:10Z</time>
      </trkpt>
      <trkpt lat="44.07254" lon="1.94167">
        <ele>171</ele>
        <time>2019-11-06T04:52:25Z</time>
      </trkpt>
      <trkpt lat="44.07267" lon="1.9418">
        <ele>171</ele>
        <time>2019-11-06T04:52:37Z</time>
      </trkpt>
      <trkpt lat="44.07306" lon="1.94233">
        <ele>172</ele>
        <time>2019-11-06T04:53:21Z</time>
      </trkpt>
      <trkpt lat="44.07324" lon="1.94264">
        <ele>172</ele>
        <time>2019-11-06T04:53:44Z</time>
      </trkpt>
      <trkpt lat="44.0733" lon="1.94279">
        <ele>172</ele>
        <time>2019-11-06T04:53:54Z</time>
      </trkpt>
      <trkpt lat="44.0734" lon="1.94337">
        <ele>172</ele>
        <time>2019-11-06T04:54:28Z</time>
      </trkpt>
      <trkpt lat="44.07362" lon="1.94421">
        <ele>171</ele>
        <time>2019-11-06T04:55:20Z</time>
      </trkpt>
      <trkpt lat="44.07397" lon="1.94498">
        <ele>170</ele>
        <time>2019-11-06T04:56:12Z</time>
      </trkpt>
      <trkpt lat="44.07604" lon="1.94428">
        <ele>191</ele>
        <time>2019-11-06T04:59:03Z</time>
      </trkpt>
      <trkpt lat="44.07591" lon="1.94429">
        <ele>190</ele>
        <time>2019-11-06T04:59:13Z</time>
      </trkpt>
      <trkpt lat="44.07581" lon="1.94426">
        <ele>190</ele>
        <time>2019-11-06T04:59:21Z</time>
      </trkpt>
      <trkpt lat="44.07568" lon="1.94376">
        <ele>189</ele>
        <time>2019-11-06T04:59:52Z</time>
      </trkpt>
      <trkpt lat="44.07562" lon="1.94323">
        <ele>189</ele>
        <time>2019-11-06T05:00:23Z</time>
      </trkpt>
      <trkpt lat="44.07559" lon="1.94209">
        <ele>192</ele>
        <time>2019-11-06T05:01:28Z</time>
      </trkpt>
      <trkpt lat="44.07527" lon="1.94067">
        <ele>192</ele>
        <time>2019-11-06T05:02:54Z</time>
      </trkpt>
      <trkpt lat="44.0752" lon="1.94021">
        <ele>190</ele>
        <time>2019-11-06T05:03:21Z</time>
      </trkpt>
      <trkpt lat="44.0758" lon="1.94032">
        <ele>196</ele>
        <time>2019-11-06T05:04:09Z</time>
      </trkpt>
      <trkpt lat="44.07627" lon="1.94045">
        <ele>202</ele>
        <time>2019-11-06T05:04:48Z</time>
      </trkpt>
      <trkpt lat="44.07685" lon="1.94068">
        <ele>209</ele>
        <time>2019-11-06T05:05:36Z</time>
      </trkpt>
      <trkpt lat="44.07701" lon="1.94078">
        <ele>210</ele>
        <time>2019-11-06T05:05:50Z</time>
      </trkpt>
      <trkpt lat="44.07715" lon="1.94092">
        <ele>211</ele>
        <time>2019-11-06T05:06:04Z</time>
      </trkpt>
      <trkpt lat="44.07739" lon="1.94128">
        <ele>212</ele>
        <time>2019-11-06T05:06:32Z</time>
      </trkpt>
      <trkpt lat="44.07764" lon="1.94174">
        <ele>213</ele>
        <time>2019-11-06T05:07:05Z</time>
      </trkpt>
      <trkpt lat="44.07774" lon="1.94187">
        <ele>213</ele>
        <time>2019-11-06T05:07:16Z</time>
      </trkpt>
      <trkpt lat="44.0778" lon="1.94188">
        <ele>213</ele>
        <time>2019-11-06T05:07:21Z</time>
      </trkpt>
      <trkpt lat="44.07824" lon="1.94177">
        <ele>216</ele>
        <time>2019-11-06T05:07:57Z</time>
      </trkpt>
      <trkpt lat="44.07836" lon="1.9418">
        <ele>216</ele>
        <time>2019-11-06T05:08:07Z</time>
      </trkpt>
      <trkpt lat="44.07843" lon="1.94186">
        <ele>217</ele>
        <time>2019-11-06T05:08:13Z</time>
      </trkpt>
      <trkpt lat="44.07868" lon="1.94244">
        <ele>221</ele>
        <time>2019-11-06T05:08:52Z</time>
      </trkpt>
      <trkpt lat="44.07923" lon="1.94356">
        <ele>227</ele>
        <time>2019-11-06T05:10:10Z</time>
      </trkpt>
      <trkpt lat="44.07934" lon="1.94389">
        <ele>228</ele>
        <time>2019-11-06T05:10:31Z</time>
      </trkpt>
      <trkpt lat="44.07971" lon="1.94472">
        <ele>229</ele>
        <time>2019-11-06T05:11:27Z</time>
      </trkpt>
      <trkpt lat="44.07998" lon="1.94507">
        <ele>230</ele>
        <time>2019-11-06T05:11:57Z</time>
      </trkpt>
      <trkpt lat="44.08021" lon="1.94528">
        <ele>232</ele>
        <time>2019-11-06T05:12:19Z</time>
      </trkpt>
      <trkpt lat="44.08068" lon="1.94559">
        <ele>237</ele>
        <time>2019-11-06T05:13:01Z</time>
      </trkpt>
      <trkpt lat="44.08092" lon="1.9457">
        <ele>240</ele>
        <time>2019-11-06T05:13:21Z</time>
      </trkpt>
      <trkpt lat="44.08104" lon="1.94573">
        <ele>241</ele>
        <time>2019-11-06T05:13:31Z</time>
      </trkpt>
      <trkpt lat="44.08124" lon="1.94571">
        <ele>243</ele>
        <time>2019-11-06T05:13:47Z</time>
      </trkpt>
      <trkpt lat="44.08134" lon="1.94573">
        <ele>244</ele>
        <time>2019-11-06T05:13:55Z</time>
      </trkpt>
      <trkpt lat="44.08146" lon="1.94578">
        <ele>245</ele>
        <time>2019-11-06T05:14:05Z</time>
      </trkpt>
      <trkpt lat="44.08151" lon="1.94583">
        <ele>246</ele>
        <time>2019-11-06T05:14:10Z</time>
      </trkpt>
      <trkpt lat="44.08159" lon="1.94606">
        <ele>250</ele>
        <time>2019-11-06T05:14:24Z</time>
      </trkpt>
      <trkpt lat="44.08152" lon="1.94694">
        <ele>261</ele>
        <time>2019-11-06T05:15:15Z</time>
      </trkpt>
      <trkpt lat="44.08153" lon="1.94736">
        <ele>267</ele>
        <time>2019-11-06T05:15:39Z</time>
      </trkpt>
      <trkpt lat="44.08154" lon="1.94742">
        <ele>268</ele>
        <time>2019-11-06T05:15:43Z</time>
      </trkpt>
      <trkpt lat="44.08158" lon="1.94747">
        <ele>269</ele>
        <time>2019-11-06T05:15:47Z</time>
      </trkpt>
      <trkpt lat="44.08164" lon="1.94749">
        <ele>271</ele>
        <time>2019-11-06T05:15:52Z</time>
      </trkpt>
      <trkpt lat="44.08197" lon="1.94747">
        <ele>278</ele>
        <time>2019-11-06T05:16:19Z</time>
      </trkpt>
      <trkpt lat="44.08249" lon="1.94732">
        <ele>286</ele>
        <time>2019-11-06T05:17:01Z</time>
      </trkpt>
      <trkpt lat="44.08286" lon="1.94725">
        <ele>288</ele>
        <time>2019-11-06T05:17:31Z</time>
      </trkpt>
      <trkpt lat="44.08326" lon="1.94728">
        <ele>293</ele>
        <time>2019-11-06T05:18:03Z</time>
      </trkpt>
      <trkpt lat="44.08336" lon="1.94731">
        <ele>295</ele>
        <time>2019-11-06T05:18:11Z</time>
      </trkpt>
      <trkpt lat="44.08353" lon="1.94742">
        <ele>298</ele>
        <time>2019-11-06T05:18:26Z</time>
      </trkpt>
      <trkpt lat="44.08372" lon="1.94762">
        <ele>301</ele>
        <time>2019-11-06T05:18:45Z</time>
      </trkpt>
      <trkpt lat="44.08395" lon="1.94792">
        <ele>303</ele>
        <time>2019-11-06T05:19:11Z</time>
      </trkpt>
      <trkpt lat="44.08424" lon="1.9484">
        <ele>306</ele>
        <time>2019-11-06T05:19:47Z</time>
      </trkpt>
      <trkpt lat="44.08455" lon="1.94928">
        <ele>306</ele>
        <time>2019-11-06T05:20:43Z</time>
      </trkpt>
      <trkpt lat="44.08475" lon="1.9497">
        <ele>307</ele>
        <time>2019-11-06T05:21:12Z</time>
      </trkpt>
      <trkpt lat="44.08527" lon="1.95016">
        <ele>309</ele>
        <time>2019-11-06T05:22:01Z</time>
      </trkpt>
      <trkpt lat="44.08577" lon="1.95033">
        <ele>309</ele>
        <time>2019-11-06T05:22:43Z</time>
      </trkpt>
      <trkpt lat="44.08599" lon="1.95046">
        <ele>309</ele>
        <time>2019-11-06T05:23:02Z</time>
      </trkpt>
      <trkpt lat="44.08612" lon="1.95057">
        <ele>309</ele>
        <time>2019-11-06T05:23:14Z</time>
      </trkpt>
      <trkpt lat="44.08634" lon="1.95067">
        <ele>309</ele>
        <time>2019-11-06T05:23:32Z</time>
      </trkpt>
      <trkpt lat="44.08654" lon="1.95074">
        <ele>309</ele>
        <time>2019-11-06T05:23:49Z</time>
      </trkpt>
      <trkpt lat="44.08706" lon="1.95086">
        <ele>308</ele>
        <time>2019-11-06T05:24:31Z</time>
      </trkpt>
      <trkpt lat="44.08713" lon="1.95082">
        <ele>308</ele>
        <time>2019-11-06T05:24:37Z</time>
      </trkpt>
      <trkpt lat="44.08752" lon="1.95071">
        <ele>308</ele>
        <time>2019-11-06T05:25:09Z</time>
      </trkpt>
      <trkpt lat="44.08789" lon="1.9505">
        <ele>309</ele>
        <time>2019-11-06T05:25:41Z</time>
      </trkpt>
      <trkpt lat="44.08821" lon="1.95038">
        <ele>309</ele>
        <time>2019-11-06T05:26:08Z</time>
      </trkpt>
      <trkpt lat="44.08834" lon="1.95036">
        <ele>309</ele>
        <time>2019-11-06T05:26:18Z</time>
      </trkpt>
      <trkpt lat="44.08878" lon="1.9504">
        <ele>309</ele>
        <time>2019-11-06T05:26:53Z</time>
      </trkpt>
      <trkpt lat="44.08898" lon="1.95048">
        <ele>309</ele>
        <time>2019-11-06T05:27:10Z</time>
      </trkpt>
      <trkpt lat="44.08913" lon="1.95063">
        <ele>310</ele>
        <time>2019-11-06T05:27:25Z</time>
      </trkpt>
      <trkpt lat="44.08929" lon="1.95086">
        <ele>312</ele>
        <time>2019-11-06T05:27:43Z</time>
      </trkpt>
      <trkpt lat="44.08977" lon="1.95118">
        <ele>313</ele>
        <time>2019-11-06T05:28:26Z</time>
      </trkpt>
      <trkpt lat="44.09011" lon="1.95155">
        <ele>314</ele>
        <time>2019-11-06T05:29:00Z</time>
      </trkpt>
      <trkpt lat="44.09029" lon="1.95177">
        <ele>313</ele>
        <time>2019-11-06T05:29:20Z</time>
      </trkpt>
      <trkpt lat="44.09047" lon="1.95215">
        <ele>312</ele>
        <time>2019-11-06T05:29:46Z</time>
      </trkpt>
      <trkpt lat="44.09059" lon="1.95234">
        <ele>313</ele>
        <time>2019-11-06T05:30:00Z</time>
      </trkpt>
      <trkpt lat="44.09108" lon="1.95292">
        <ele>317</ele>
        <time>2019-11-06T05:30:52Z</time>
      </trkpt>
      <trkpt lat="44.09157" lon="1.95337">
        <ele>320</ele>
        <time>2019-11-06T05:31:39Z</time>
      </trkpt>
      <trkpt lat="44.09223" lon="1.95383">
        <ele>320</ele>
        <time>2019-11-06T05:32:38Z</time>
      </trkpt>
      <trkpt lat="44.09299" lon="1.95431">
        <ele>317</ele>
        <time>2019-11-06T05:33:45Z</time>
      </trkpt>
      <trkpt lat="44.09309" lon="1.95441">
        <ele>317</ele>
        <time>2019-11-06T05:33:55Z</time>
      </trkpt>
      <trkpt lat="44.09338" lon="1.9548">
        <ele>316</ele>
        <time>2019-11-06T05:34:27Z</time>
      </trkpt>
      <trkpt lat="44.094" lon="1.95539">
        <ele>316</ele>
        <time>2019-11-06T05:35:27Z</time>
      </trkpt>
      <trkpt lat="44.09432" lon="1.95566">
        <ele>316</ele>
        <time>2019-11-06T05:35:57Z</time>
      </trkpt>
      <trkpt lat="44.09469" lon="1.95617">
        <ele>315</ele>
        <time>2019-11-06T05:36:39Z</time>
      </trkpt>
      <trkpt lat="44.09522" lon="1.95728">
        <ele>319</ele>
        <time>2019-11-06T05:37:55Z</time>
      </trkpt>
      <trkpt lat="44.09549" lon="1.95828">
        <ele>321</ele>
        <time>2019-11-06T05:38:57Z</time>
      </trkpt>
      <trkpt lat="44.09568" lon="1.95885">
        <ele>322</ele>
        <time>2019-11-06T05:39:33Z</time>
      </trkpt>
      <trkpt lat="44.09591" lon="1.95966">
        <ele>322</ele>
        <time>2019-11-06T05:40:23Z</time>
      </trkpt>
      <trkpt lat="44.09593" lon="1.95987">
        <ele>322</ele>
        <time>2019-11-06T05:40:35Z</time>
      </trkpt>
      <trkpt lat="44.09589" lon="1.9605">
        <ele>321</ele>
        <time>2019-11-06T05:41:12Z</time>
      </trkpt>
      <trkpt lat="44.09591" lon="1.96081">
        <ele>321</ele>
        <time>2019-11-06T05:41:29Z</time>
      </trkpt>
      <trkpt lat="44.09614" lon="1.96166">
        <ele>320</ele>
        <time>2019-11-06T05:42:22Z</time>
      </trkpt>
      <trkpt lat="44.09631" lon="1.96289">
        <ele>319</ele>
        <time>2019-11-06T05:43:34Z</time>
      </trkpt>
      <trkpt lat="44.09661" lon="1.96384">
        <ele>322</ele>
        <time>2019-11-06T05:44:33Z</time>
      </trkpt>
      <trkpt lat="44.09664" lon="1.96413">
        <ele>322</ele>
        <time>2019-11-06T05:44:50Z</time>
      </trkpt>
      <trkpt lat="44.09674" lon="1.96405">
        <ele>321</ele>
        <time>2019-11-06T05:44:59Z</time>
      </trkpt>
      <trkpt lat="44.09696" lon="1.96375">
        <ele>317</ele>
        <time>2019-11-06T05:45:24Z</time>
      </trkpt>
      <trkpt lat="44.09724" lon="1.96328">
        <ele>315</ele>
        <time>2019-11-06T05:45:59Z</time>
      </trkpt>
      <trkpt lat="44.09752" lon="1.96308">
        <ele>314</ele>
        <time>2019-11-06T05:46:24Z</time>
      </trkpt>
      <trkpt lat="44.09794" lon="1.96268">
        <ele>307</ele>
        <time>2019-11-06T05:47:05Z</time>
      </trkpt>
      <trkpt lat="44.09808" lon="1.96261">
        <ele>305</ele>
        <time>2019-11-06T05:47:17Z</time>
      </trkpt>
      <trkpt lat="44.09867" lon="1.96275">
        <ele>289</ele>
        <time>2019-11-06T05:48:05Z</time>
      </trkpt>
      <trkpt lat="44.09879" lon="1.96275">
        <ele>286</ele>
        <time>2019-11-06T05:48:15Z</time>
      </trkpt>
      <trkpt lat="44.09917" lon="1.96246">
        <ele>279</ele>
        <time>2019-11-06T05:48:49Z</time>
      </trkpt>
      <trkpt lat="44.09926" lon="1.96236">
        <ele>277</ele>
        <time>2019-11-06T05:48:59Z</time>
      </trkpt>
      <trkpt lat="44.09939" lon="1.96205">
        <ele>275</ele>
        <time>2019-11-06T05:49:19Z</time>
      </trkpt>
      <trkpt lat="44.09969" lon="1.96166">
        <ele>274</ele>
        <time>2019-11-06T05:49:52Z</time>
      </trkpt>
      <trkpt lat="44.10057" lon="1.96085">
        <ele>265</ele>
        <time>2019-11-06T05:51:16Z</time>
      </trkpt>
      <trkpt lat="44.1007" lon="1.96083">
        <ele>265</ele>
        <time>2019-11-06T05:51:27Z</time>
      </trkpt>
      <trkpt lat="44.10148" lon="1.96109">
        <ele>261</ele>
        <time>2019-11-06T05:52:31Z</time>
      </trkpt>
      <trkpt lat="44.10159" lon="1.9611">
        <ele>261</ele>
        <time>2019-11-06T05:52:40Z</time>
      </trkpt>
      <trkpt lat="44.10171" lon="1.96109">
        <ele>260</ele>
        <time>2019-11-06T05:52:50Z</time>
      </trkpt>
      <trkpt lat="44.10208" lon="1.96096">
        <ele>256</ele>
        <time>2019-11-06T05:53:20Z</time>
      </trkpt>
      <trkpt lat="44.10243" lon="1.96076">
        <ele>253</ele>
        <time>2019-11-06T05:53:50Z</time>
      </trkpt>
      <trkpt lat="44.10261" lon="1.96075">
        <ele>252</ele>
        <time>2019-11-06T05:54:05Z</time>
      </trkpt>
      <trkpt lat="44.10286" lon="1.96083">
        <ele>250</ele>
        <time>2019-11-06T05:54:25Z</time>
      </trkpt>
      <trkpt lat="44.10285" lon="1.96056">
        <ele>250</ele>
        <time>2019-11-06T05:54:41Z</time>
      </trkpt>
      <trkpt lat="44.10287" lon="1.96041">
        <ele>250</ele>
        <time>2019-11-06T05:54:50Z</time>
      </trkpt>
      <trkpt lat="44.10297" lon="1.9602">
        <ele>249</ele>
        <time>2019-11-06T05:55:04Z</time>
      </trkpt>
      <trkpt lat="44.10306" lon="1.96013">
        <ele>249</ele>
        <time>2019-11-06T05:55:12Z</time>
      </trkpt>
      <trkpt lat="44.1033" lon="1.96007">
        <ele>248</ele>
        <time>2019-11-06T05:55:32Z</time>
      </trkpt>
      <trkpt lat="44.10357" lon="1.95996">
        <ele>248</ele>
        <time>2019-11-06T05:55:55Z</time>
      </trkpt>
      <trkpt lat="44.1037" lon="1.95988">
        <ele>248</ele>
        <time>2019-11-06T05:56:06Z</time>
      </trkpt>
      <trkpt lat="44.10394" lon="1.95968">
        <ele>248</ele>
        <time>2019-11-06T05:56:28Z</time>
      </trkpt>
      <trkpt lat="44.10464" lon="1.95899">
        <ele>252</ele>
        <time>2019-11-06T05:57:37Z</time>
      </trkpt>
      <trkpt lat="44.10477" lon="1.95923">
        <ele>250</ele>
        <time>2019-11-06T05:57:54Z</time>
      </trkpt>
      <trkpt lat="44.10484" lon="1.95931">
        <ele>250</ele>
        <time>2019-11-06T05:58:01Z</time>
      </trkpt>
      <trkpt lat="44.10492" lon="1.95936">
        <ele>249</ele>
        <time>2019-11-06T05:58:09Z</time>
      </trkpt>
      <trkpt lat="44.10527" lon="1.95942">
        <ele>249</ele>
        <time>2019-11-06T05:58:37Z</time>
      </trkpt>
      <trkpt lat="44.10533" lon="1.95945">
        <ele>249</ele>
        <time>2019-11-06T05:58:42Z</time>
      </trkpt>
      <trkpt lat="44.10683" lon="1.9607">
        <ele>240</ele>
        <time>2019-11-06T06:01:02Z</time>
      </trkpt>
      <trkpt lat="44.10687" lon="1.96082">
        <ele>238</ele>
        <time>2019-11-06T06:01:09Z</time>
      </trkpt>
      <trkpt lat="44.10691" lon="1.96117">
        <ele>238</ele>
        <time>2019-11-06T06:01:30Z</time>
      </trkpt>
      <trkpt lat="44.1075" lon="1.96172">
        <ele>235</ele>
        <time>2019-11-06T06:02:27Z</time>
      </trkpt>
      <trkpt lat="44.10856" lon="1.96296">
        <ele>253</ele>
        <time>2019-11-06T06:04:17Z</time>
      </trkpt>
      <trkpt lat="44.10931" lon="1.96412">
        <ele>261</ele>
        <time>2019-11-06T06:05:47Z</time>
      </trkpt>
      <trkpt lat="44.10955" lon="1.96454">
        <ele>263</ele>
        <time>2019-11-06T06:06:18Z</time>
      </trkpt>
      <trkpt lat="44.10977" lon="1.96503">
        <ele>267</ele>
        <time>2019-11-06T06:06:51Z</time>
      </trkpt>
      <trkpt lat="44.1102" lon="1.96631">
        <ele>270</ele>
        <time>2019-11-06T06:08:13Z</time>
      </trkpt>
      <trkpt lat="44.11041" lon="1.96729">
        <ele>275</ele>
        <time>2019-11-06T06:09:11Z</time>
      </trkpt>
      <trkpt lat="44.11078" lon="1.96772">
        <ele>279</ele>
        <time>2019-11-06T06:09:50Z</time>
      </trkpt>
      <trkpt lat="44.11105" lon="1.96759">
        <ele>280</ele>
        <time>2019-11-06T06:10:13Z</time>
      </trkpt>
      <trkpt lat="44.11147" lon="1.96746">
        <ele>280</ele>
        <time>2019-11-06T06:10:47Z</time>
      </trkpt>
      <trkpt lat="44.11187" lon="1.96738">
        <ele>279</ele>
        <time>2019-11-06T06:11:20Z</time>
      </trkpt>
      <trkpt lat="44.11223" lon="1.96731">
        <ele>278</ele>
        <time>2019-11-06T06:11:49Z</time>
      </trkpt>
      <trkpt lat="44.11257" lon="1.96728">
        <ele>276</ele>
        <time>2019-11-06T06:12:16Z</time>
      </trkpt>
      <trkpt lat="44.11329" lon="1.96727">
        <ele>275</ele>
        <time>2019-11-06T06:13:14Z</time>
      </trkpt>
      <trkpt lat="44.1136" lon="1.96723">
        <ele>274</ele>
        <time>2019-11-06T06:13:39Z</time>
      </trkpt>
      <trkpt lat="44.11413" lon="1.96696">
        <ele>273</ele>
        <time>2019-11-06T06:14:24Z</time>
      </trkpt>
      <trkpt lat="44.11425" lon="1.96693">
        <ele>273</ele>
        <time>2019-11-06T06:14:34Z</time>
      </trkpt>
      <trkpt lat="44.11561" lon="1.96671">
        <ele>273</ele>
        <time>2019-11-06T06:16:23Z</time>
      </trkpt>
      <trkpt lat="44.11624" lon="1.96665">
        <ele>273</ele>
        <time>2019-11-06T06:17:14Z</time>
      </trkpt>
      <trkpt lat="44.11667" lon="1.96656">
        <ele>273</ele>
        <time>2019-11-06T06:17:49Z</time>
      </trkpt>
      <trkpt lat="44.11766" lon="1.96621">
        <ele>270</ele>
        <time>2019-11-06T06:19:10Z</time>
      </trkpt>
      <trkpt lat="44.11799" lon="1.96612">
        <ele>268</ele>
        <time>2019-11-06T06:19:37Z</time>
      </trkpt>
      <trkpt lat="44.11832" lon="1.966">
        <ele>267</ele>
        <time>2019-11-06T06:20:05Z</time>
      </trkpt>
      <trkpt lat="44.11874" lon="1.96581">
        <ele>264</ele>
        <time>2019-11-06T06:20:40Z</time>
      </trkpt>
      <trkpt lat="44.11975" lon="1.965">
        <ele>253</ele>
        <time>2019-11-06T06:22:13Z</time>
      </trkpt>
      <trkpt lat="44.12004" lon="1.96488">
        <ele>250</ele>
        <time>2019-11-06T06:22:37Z</time>
      </trkpt>
      <trkpt lat="44.12028" lon="1.96487">
        <ele>246</ele>
        <time>2019-11-06T06:22:57Z</time>
      </trkpt>
      <trkpt lat="44.12057" lon="1.96496">
        <ele>243</ele>
        <time>2019-11-06T06:23:20Z</time>
      </trkpt>
      <trkpt lat="44.12128" lon="1.96541">
        <ele>232</ele>
        <time>2019-11-06T06:24:23Z</time>
      </trkpt>
      <trkpt lat="44.12171" lon="1.96564">
        <ele>223</ele>
        <time>2019-11-06T06:25:00Z</time>
      </trkpt>
      <trkpt lat="44.12182" lon="1.96569">
        <ele>221</ele>
        <time>2019-11-06T06:25:09Z</time>
      </trkpt>
      <trkpt lat="44.1221" lon="1.96575">
        <ele>215</ele>
        <time>2019-11-06T06:25:32Z</time>
      </trkpt>
      <trkpt lat="44.12217" lon="1.96579">
        <ele>213</ele>
        <time>2019-11-06T06:25:38Z</time>
      </trkpt>
      <trkpt lat="44.12241" lon="1.96579">
        <ele>209</ele>
        <time>2019-11-06T06:25:57Z</time>
      </trkpt>
      <trkpt lat="44.12265" lon="1.96574">
        <ele>208</ele>
        <time>2019-11-06T06:26:16Z</time>
      </trkpt>
      <trkpt lat="44.12302" lon="1.96556">
        <ele>210</ele>
        <time>2019-11-06T06:26:48Z</time>
      </trkpt>
      <trkpt lat="44.12327" lon="1.96551">
        <ele>210</ele>
        <time>2019-11-06T06:27:08Z</time>
      </trkpt>
      <trkpt lat="44.12334" lon="1.96544">
        <ele>211</ele>
        <time>2019-11-06T06:27:15Z</time>
      </trkpt>
      <trkpt lat="44.12345" lon="1.96576">
        <ele>213</ele>
        <time>2019-11-06T06:27:35Z</time>
      </trkpt>
      <trkpt lat="44.12351" lon="1.96588">
        <ele>213</ele>
        <time>2019-11-06T06:27:44Z</time>
      </trkpt>
      <trkpt lat="44.12358" lon="1.96596">
        <ele>214</ele>
        <time>2019-11-06T06:27:51Z</time>
      </trkpt>
      <trkpt lat="44.12396" lon="1.96613">
        <ele>219</ele>
        <time>2019-11-06T06:28:23Z</time>
      </trkpt>
      <trkpt lat="44.1244" lon="1.9664">
        <ele>225</ele>
        <time>2019-11-06T06:29:01Z</time>
      </trkpt>
      <trkpt lat="44.12448" lon="1.96642">
        <ele>227</ele>
        <time>2019-11-06T06:29:08Z</time>
      </trkpt>
      <trkpt lat="44.12468" lon="1.96641">
        <ele>231</ele>
        <time>2019-11-06T06:29:24Z</time>
      </trkpt>
      <trkpt lat="44.12536" lon="1.96659">
        <ele>245</ele>
        <time>2019-11-06T06:30:19Z</time>
      </trkpt>
      <trkpt lat="44.12545" lon="1.96654">
        <ele>247</ele>
        <time>2019-11-06T06:30:27Z</time>
      </trkpt>
      <trkpt lat="44.12567" lon="1.96664">
        <ele>251</ele>
        <time>2019-11-06T06:30:46Z</time>
      </trkpt>
      <trkpt lat="44.12579" lon="1.96664">
        <ele>254</ele>
        <time>2019-11-06T06:30:55Z</time>
      </trkpt>
      <trkpt lat="44.12614" lon="1.96644">
        <ele>263</ele>
        <time>2019-11-06T06:31:26Z</time>
      </trkpt>
      <trkpt lat="44.127" lon="1.96621">
        <ele>275</ele>
        <time>2019-11-06T06:32:36Z</time>
      </trkpt>
      <trkpt lat="44.12725" lon="1.96622">
        <ele>277</ele>
        <time>2019-11-06T06:32:56Z</time>
      </trkpt>
      <trkpt lat="44.12783" lon="1.96631">
        <ele>283</ele>
        <time>2019-11-06T06:33:42Z</time>
      </trkpt>
      <trkpt lat="44.12883" lon="1.96634">
        <ele>292</ele>
        <time>2019-11-06T06:35:03Z</time>
      </trkpt>
      <trkpt lat="44.12938" lon="1.96656">
        <ele>294</ele>
        <time>2019-11-06T06:35:48Z</time>
      </trkpt>
      <trkpt lat="44.12966" lon="1.96674">
        <ele>294</ele>
        <time>2019-11-06T06:36:13Z</time>
      </trkpt>
      <trkpt lat="44.12985" lon="1.96678">
        <ele>294</ele>
        <time>2019-11-06T06:36:28Z</time>
      </trkpt>
      <trkpt lat="44.13021" lon="1.96678">
        <ele>292</ele>
        <time>2019-11-06T06:36:57Z</time>
      </trkpt>
      <trkpt lat="44.1303" lon="1.9668">
        <ele>291</ele>
        <time>2019-11-06T06:37:05Z</time>
      </trkpt>
      <trkpt lat="44.13037" lon="1.96685">
        <ele>290</ele>
        <time>2019-11-06T06:37:11Z</time>
      </trkpt>
      <trkpt lat="44.13041" lon="1.9669">
        <ele>290</ele>
        <time>2019-11-06T06:37:15Z</time>
      </trkpt>
      <trkpt lat="44.13045" lon="1.96708">
        <ele>289</ele>
        <time>2019-11-06T06:37:26Z</time>
      </trkpt>
      <trkpt lat="44.13043" lon="1.9675">
        <ele>286</ele>
        <time>2019-11-06T06:37:50Z</time>
      </trkpt>
      <trkpt lat="44.13046" lon="1.96763">
        <ele>286</ele>
        <time>2019-11-06T06:37:58Z</time>
      </trkpt>
      <trkpt lat="44.13055" lon="1.96772">
        <ele>284</ele>
        <time>2019-11-06T06:38:07Z</time>
      </trkpt>
      <trkpt lat="44.13063" lon="1.96775">
        <ele>284</ele>
        <time>2019-11-06T06:38:14Z</time>
      </trkpt>
      <trkpt lat="44.13098" lon="1.96775">
        <ele>281</ele>
        <time>2019-11-06T06:38:42Z</time>
      </trkpt>
      <trkpt lat="44.13157" lon="1.96792">
        <ele>275</ele>
        <time>2019-11-06T06:39:30Z</time>
      </trkpt>
      <trkpt lat="44.13269" lon="1.9684">
        <ele>265</ele>
        <time>2019-11-06T06:41:04Z</time>
      </trkpt>
      <trkpt lat="44.13278" lon="1.96842">
        <ele>264</ele>
        <time>2019-11-06T06:41:11Z</time>
      </trkpt>
      <trkpt lat="44.13288" lon="1.96839">
        <ele>264</ele>
        <time>2019-11-06T06:41:19Z</time>
      </trkpt>
      <trkpt lat="44.13295" lon="1.96831">
        <ele>263</ele>
        <time>2019-11-06T06:41:26Z</time>
      </trkpt>
      <trkpt lat="44.133" lon="1.96818">
        <ele>263</ele>
        <time>2019-11-06T06:41:35Z</time>
      </trkpt>
      <trkpt lat="44.13308" lon="1.96771">
        <ele>262</ele>
        <time>2019-11-06T06:42:03Z</time>
      </trkpt>
      <trkpt lat="44.13314" lon="1.96762">
        <ele>261</ele>
        <time>2019-11-06T06:42:10Z</time>
      </trkpt>
      <trkpt lat="44.13323" lon="1.96756">
        <ele>260</ele>
        <time>2019-11-06T06:42:18Z</time>
      </trkpt>
      <trkpt lat="44.13331" lon="1.96756">
        <ele>259</ele>
        <time>2019-11-06T06:42:24Z</time>
      </trkpt>
      <trkpt lat="44.13344" lon="1.96765">
        <ele>259</ele>
        <time>2019-11-06T06:42:36Z</time>
      </trkpt>
      <trkpt lat="44.13351" lon="1.96786">
        <ele>259</ele>
        <time>2019-11-06T06:42:49Z</time>
      </trkpt>
      <trkpt lat="44.13357" lon="1.96897">
        <ele>256</ele>
        <time>2019-11-06T06:43:53Z</time>
      </trkpt>
      <trkpt lat="44.1336" lon="1.9691">
        <ele>255</ele>
        <time>2019-11-06T06:44:01Z</time>
      </trkpt>
      <trkpt lat="44.13365" lon="1.9692">
        <ele>255</ele>
        <time>2019-11-06T06:44:08Z</time>
      </trkpt>
      <trkpt lat="44.13378" lon="1.96927">
        <ele>255</ele>
        <time>2019-11-06T06:44:19Z</time>
      </trkpt>
      <trkpt lat="44.13385" lon="1.96927">
        <ele>255</ele>
        <time>2019-11-06T06:44:25Z</time>
      </trkpt>
      <trkpt lat="44.13399" lon="1.9692">
        <ele>255</ele>
        <time>2019-11-06T06:44:36Z</time>
      </trkpt>
      <trkpt lat="44.13428" lon="1.96891">
        <ele>255</ele>
        <time>2019-11-06T06:45:05Z</time>
      </trkpt>
      <trkpt lat="44.13442" lon="1.96885">
        <ele>254</ele>
        <time>2019-11-06T06:45:17Z</time>
      </trkpt>
      <trkpt lat="44.13454" lon="1.96885">
        <ele>254</ele>
        <time>2019-11-06T06:45:26Z</time>
      </trkpt>
      <trkpt lat="44.13544" lon="1.96899">
        <ele>249</ele>
        <time>2019-11-06T06:46:39Z</time>
      </trkpt>
      <trkpt lat="44.13563" lon="1.96897">
        <ele>248</ele>
        <time>2019-11-06T06:46:54Z</time>
      </trkpt>
      <trkpt lat="44.13648" lon="1.96863">
        <ele>242</ele>
        <time>2019-11-06T06:48:05Z</time>
      </trkpt>
      <trkpt lat="44.1367" lon="1.96859">
        <ele>240</ele>
        <time>2019-11-06T06:48:23Z</time>
      </trkpt>
      <trkpt lat="44.13706" lon="1.9687">
        <ele>235</ele>
        <time>2019-11-06T06:48:52Z</time>
      </trkpt>
      <trkpt lat="44.13726" lon="1.96873">
        <ele>232</ele>
        <time>2019-11-06T06:49:08Z</time>
      </trkpt>
      <trkpt lat="44.13745" lon="1.96868">
        <ele>229</ele>
        <time>2019-11-06T06:49:24Z</time>
      </trkpt>
      <trkpt lat="44.13772" lon="1.96851">
        <ele>224</ele>
        <time>2019-11-06T06:49:48Z</time>
      </trkpt>
      <trkpt lat="44.13817" lon="1.96831">
        <ele>214</ele>
        <time>2019-11-06T06:50:25Z</time>
      </trkpt>
      <trkpt lat="44.13846" lon="1.96821">
        <ele>211</ele>
        <time>2019-11-06T06:50:49Z</time>
      </trkpt>
      <trkpt lat="44.13951" lon="1.96831">
        <ele>205</ele>
        <time>2019-11-06T06:52:14Z</time>
      </trkpt>
      <trkpt lat="44.14165" lon="1.96863">
        <ele>192</ele>
        <time>2019-11-06T06:55:06Z</time>
      </trkpt>
      <trkpt lat="44.14219" lon="1.96865">
        <ele>183</ele>
        <time>2019-11-06T06:55:49Z</time>
      </trkpt>
      <trkpt lat="44.14234" lon="1.9692">
        <ele>185</ele>
        <time>2019-11-06T06:56:23Z</time>
      </trkpt>
      <trkpt lat="44.14235" lon="1.97003">
        <ele>181</ele>
        <time>2019-11-06T06:57:11Z</time>
      </trkpt>
      <trkpt lat="44.14222" lon="1.97175">
        <ele>173</ele>
        <time>2019-11-06T06:58:50Z</time>
      </trkpt>
      <trkpt lat="44.14229" lon="1.97219">
        <ele>168</ele>
        <time>2019-11-06T06:59:16Z</time>
      </trkpt>
      <trkpt lat="44.14254" lon="1.97339">
        <ele>161</ele>
        <time>2019-11-06T07:00:28Z</time>
      </trkpt>
      <trkpt lat="44.1428" lon="1.97399">
        <ele>164</ele>
        <time>2019-11-06T07:01:08Z</time>
      </trkpt>
      <trkpt lat="44.14333" lon="1.97486">
        <ele>160</ele>
        <time>2019-11-06T07:02:14Z</time>
      </trkpt>
      <trkpt lat="44.1436" lon="1.97542">
        <ele>164</ele>
        <time>2019-11-06T07:02:52Z</time>
      </trkpt>
      <trkpt lat="44.14367" lon="1.97564">
        <ele>165</ele>
        <time>2019-11-06T07:03:06Z</time>
      </trkpt>
      <trkpt lat="44.14383" lon="1.97637">
        <ele>168</ele>
        <time>2019-11-06T07:03:50Z</time>
      </trkpt>
      <trkpt lat="44.14401" lon="1.97661">
        <ele>164</ele>
        <time>2019-11-06T07:04:10Z</time>
      </trkpt>
      <trkpt lat="44.14392" lon="1.97679">
        <ele>167</ele>
        <time>2019-11-06T07:04:23Z</time>
      </trkpt>
      <trkpt lat="44.14403" lon="1.97719">
        <ele>165</ele>
        <time>2019-11-06T07:04:47Z</time>
      </trkpt>
      <trkpt lat="44.14383" lon="1.97742">
        <ele>170</ele>
        <time>2019-11-06T07:05:08Z</time>
      </trkpt>
      <trkpt lat="44.14367" lon="1.97766">
        <ele>176</ele>
        <time>2019-11-06T07:05:27Z</time>
      </trkpt>
      <trkpt lat="44.14347" lon="1.97779">
        <ele>182</ele>
        <time>2019-11-06T07:05:44Z</time>
      </trkpt>
      <trkpt lat="44.14329" lon="1.97787">
        <ele>188</ele>
        <time>2019-11-06T07:06:00Z</time>
      </trkpt>
      <trkpt lat="44.14277" lon="1.97799">
        <ele>200</ele>
        <time>2019-11-06T07:06:42Z</time>
      </trkpt>
      <trkpt lat="44.14261" lon="1.97807">
        <ele>203</ele>
        <time>2019-11-06T07:06:55Z</time>
      </trkpt>
      <trkpt lat="44.14248" lon="1.97819">
        <ele>205</ele>
        <time>2019-11-06T07:07:08Z</time>
      </trkpt>
      <trkpt lat="44.142" lon="1.97897">
        <ele>219</ele>
        <time>2019-11-06T07:08:07Z</time>
      </trkpt>
      <trkpt lat="44.14172" lon="1.97933">
        <ele>220</ele>
        <time>2019-11-06T07:08:37Z</time>
      </trkpt>
      <trkpt lat="44.1416" lon="1.97939">
        <ele>221</ele>
        <time>2019-11-06T07:08:48Z</time>
      </trkpt>
      <trkpt lat="44.14133" lon="1.97947">
        <ele>225</ele>
        <time>2019-11-06T07:09:10Z</time>
      </trkpt>
      <trkpt lat="44.14099" lon="1.97963">
        <ele>229</ele>
        <time>2019-11-06T07:09:38Z</time>
      </trkpt>
      <trkpt lat="44.14068" lon="1.97989">
        <ele>233</ele>
        <time>2019-11-06T07:10:07Z</time>
      </trkpt>
      <trkpt lat="44.14053" lon="1.98013">
        <ele>237</ele>
        <time>2019-11-06T07:10:26Z</time>
      </trkpt>
      <trkpt lat="44.1405" lon="1.98029">
        <ele>239</ele>
        <time>2019-11-06T07:10:35Z</time>
      </trkpt>
      <trkpt lat="44.14049" lon="1.98075">
        <ele>244</ele>
        <time>2019-11-06T07:11:02Z</time>
      </trkpt>
      <trkpt lat="44.14057" lon="1.98125">
        <ele>255</ele>
        <time>2019-11-06T07:11:31Z</time>
      </trkpt>
      <trkpt lat="44.14061" lon="1.98215">
        <ele>271</ele>
        <time>2019-11-06T07:12:23Z</time>
      </trkpt>
      <trkpt lat="44.1406" lon="1.98244">
        <ele>275</ele>
        <time>2019-11-06T07:12:40Z</time>
      </trkpt>
      <trkpt lat="44.14054" lon="1.98282">
        <ele>279</ele>
        <time>2019-11-06T07:13:02Z</time>
      </trkpt>
      <trkpt lat="44.1405" lon="1.98341">
        <ele>286</ele>
        <time>2019-11-06T07:13:36Z</time>
      </trkpt>
      <trkpt lat="44.14049" lon="1.98455">
        <ele>300</ele>
        <time>2019-11-06T07:14:41Z</time>
      </trkpt>
      <trkpt lat="44.14052" lon="1.98612">
        <ele>314</ele>
        <time>2019-11-06T07:16:12Z</time>
      </trkpt>
      <trkpt lat="44.14049" lon="1.98626">
        <ele>315</ele>
        <time>2019-11-06T07:16:20Z</time>
      </trkpt>
      <trkpt lat="44.14022" lon="1.98686">
        <ele>315</ele>
        <time>2019-11-06T07:17:01Z</time>
      </trkpt>
      <trkpt lat="44.14024" lon="1.9872">
        <ele>317</ele>
        <time>2019-11-06T07:17:20Z</time>
      </trkpt>
      <trkpt lat="44.1402" lon="1.98761">
        <ele>319</ele>
        <time>2019-11-06T07:17:44Z</time>
      </trkpt>
      <trkpt lat="44.1401" lon="1.98794">
        <ele>321</ele>
        <time>2019-11-06T07:18:05Z</time>
      </trkpt>
      <trkpt lat="44.13986" lon="1.9885">
        <ele>326</ele>
        <time>2019-11-06T07:18:42Z</time>
      </trkpt>
      <trkpt lat="44.13969" lon="1.98882">
        <ele>328</ele>
        <time>2019-11-06T07:19:05Z</time>
      </trkpt>
      <trkpt lat="44.13951" lon="1.9891">
        <ele>330</ele>
        <time>2019-11-06T07:19:27Z</time>
      </trkpt>
      <trkpt lat="44.13933" lon="1.98932">
        <ele>332</ele>
        <time>2019-11-06T07:19:46Z</time>
      </trkpt>
      <trkpt lat="44.13907" lon="1.99011">
        <ele>335</ele>
        <time>2019-11-06T07:20:36Z</time>
      </trkpt>
      <trkpt lat="44.13907" lon="1.99029">
        <ele>335</ele>
        <time>2019-11-06T07:20:46Z</time>
      </trkpt>
      <trkpt lat="44.13914" lon="1.99066">
        <ele>336</ele>
        <time>2019-11-06T07:21:08Z</time>
      </trkpt>
      <trkpt lat="44.13915" lon="1.99083">
        <ele>336</ele>
        <time>2019-11-06T07:21:18Z</time>
      </trkpt>
      <trkpt lat="44.13908" lon="1.99273">
        <ele>335</ele>
        <time>2019-11-06T07:23:07Z</time>
      </trkpt>
      <trkpt lat="44.13902" lon="1.99275">
        <ele>335</ele>
        <time>2019-11-06T07:23:12Z</time>
      </trkpt>
      <trkpt lat="44.13873" lon="1.99297">
        <ele>334</ele>
        <time>2019-11-06T07:23:39Z</time>
      </trkpt>
      <trkpt lat="44.13865" lon="1.99298">
        <ele>334</ele>
        <time>2019-11-06T07:23:45Z</time>
      </trkpt>
      <trkpt lat="44.13838" lon="1.99403">
        <ele>331</ele>
        <time>2019-11-06T07:24:49Z</time>
      </trkpt>
      <trkpt lat="44.13821" lon="1.99455">
        <ele>330</ele>
        <time>2019-11-06T07:25:22Z</time>
      </trkpt>
      <trkpt lat="44.13805" lon="1.99497">
        <ele>329</ele>
        <time>2019-11-06T07:25:49Z</time>
      </trkpt>
      <trkpt lat="44.1379" lon="1.99527">
        <ele>329</ele>
        <time>2019-11-06T07:26:10Z</time>
      </trkpt>
      <trkpt lat="44.13782" lon="1.99538">
        <ele>329</ele>
        <time>2019-11-06T07:26:19Z</time>
      </trkpt>
      <trkpt lat="44.13784" lon="1.99551">
        <ele>328</ele>
        <time>2019-11-06T07:26:27Z</time>
      </trkpt>
      <trkpt lat="44.13773" lon="1.99693">
        <ele>325</ele>
        <time>2019-11-06T07:27:49Z</time>
      </trkpt>
      <trkpt lat="44.13771" lon="1.99772">
        <ele>325</ele>
        <time>2019-11-06T07:28:34Z</time>
      </trkpt>
      <trkpt lat="44.1379" lon="1.99886">
        <ele>323</ele>
        <time>2019-11-06T07:29:42Z</time>
      </trkpt>
      <trkpt lat="44.1379" lon="1.99944">
        <ele>322</ele>
        <time>2019-11-06T07:30:15Z</time>
      </trkpt>
      <trkpt lat="44.13787" lon="1.99995">
        <ele>321</ele>
        <time>2019-11-06T07:30:44Z</time>
      </trkpt>
      <trkpt lat="44.13782" lon="2.00026">
        <ele>318</ele>
        <time>2019-11-06T07:31:03Z</time>
      </trkpt>
      <trkpt lat="44.13777" lon="2.00036">
        <ele>318</ele>
        <time>2019-11-06T07:31:10Z</time>
      </trkpt>
      <trkpt lat="44.1373" lon="2.00086">
        <ele>317</ele>
        <time>2019-11-06T07:31:57Z</time>
      </trkpt>
      <trkpt lat="44.1373" lon="2.00093">
        <ele>317</ele>
        <time>2019-11-06T07:32:01Z</time>
      </trkpt>
      <trkpt lat="44.13756" lon="2.001">
        <ele>316</ele>
        <time>2019-11-06T07:32:22Z</time>
      </trkpt>
      <trkpt lat="44.13717" lon="2.00252">
        <ele>324</ele>
        <time>2019-11-06T07:33:55Z</time>
      </trkpt>
      <trkpt lat="44.13701" lon="2.00328">
        <ele>325</ele>
        <time>2019-11-06T07:34:41Z</time>
      </trkpt>
      <trkpt lat="44.13683" lon="2.00391">
        <ele>328</ele>
        <time>2019-11-06T07:35:19Z</time>
      </trkpt>
      <trkpt lat="44.13659" lon="2.00401">
        <ele>329</ele>
        <time>2019-11-06T07:35:40Z</time>
      </trkpt>
      <trkpt lat="44.13711" lon="2.00491">
        <ele>326</ele>
        <time>2019-11-06T07:36:46Z</time>
      </trkpt>
      <trkpt lat="44.13742" lon="2.00571">
        <ele>325</ele>
        <time>2019-11-06T07:37:38Z</time>
      </trkpt>
      <trkpt lat="44.13717" lon="2.0058">
        <ele>324</ele>
        <time>2019-11-06T07:37:59Z</time>
      </trkpt>
      <trkpt lat="44.13703" lon="2.00589">
        <ele>323</ele>
        <time>2019-11-06T07:38:11Z</time>
      </trkpt>
      <trkpt lat="44.13667" lon="2.00647">
        <ele>320</ele>
        <time>2019-11-06T07:38:55Z</time>
      </trkpt>
      <trkpt lat="44.13662" lon="2.00659">
        <ele>320</ele>
        <time>2019-11-06T07:39:03Z</time>
      </trkpt>
      <trkpt lat="44.13657" lon="2.00689">
        <ele>319</ele>
        <time>2019-11-06T07:39:21Z</time>
      </trkpt>
      <trkpt lat="44.13655" lon="2.0076">
        <ele>317</ele>
        <time>2019-11-06T07:40:02Z</time>
      </trkpt>
      <trkpt lat="44.13646" lon="2.00837">
        <ele>312</ele>
        <time>2019-11-06T07:40:47Z</time>
      </trkpt>
      <trkpt lat="44.13666" lon="2.00901">
        <ele>306</ele>
        <time>2019-11-06T07:41:27Z</time>
      </trkpt>
      <trkpt lat="44.13673" lon="2.00933">
        <ele>302</ele>
        <time>2019-11-06T07:41:46Z</time>
      </trkpt>
      <trkpt lat="44.13667" lon="2.00963">
        <ele>298</ele>
        <time>2019-11-06T07:42:04Z</time>
      </trkpt>
      <trkpt lat="44.13664" lon="2.00997">
        <ele>294</ele>
        <time>2019-11-06T07:42:24Z</time>
      </trkpt>
      <trkpt lat="44.13671" lon="2.01041">
        <ele>289</ele>
        <time>2019-11-06T07:42:49Z</time>
      </trkpt>
      <trkpt lat="44.13681" lon="2.01055">
        <ele>288</ele>
        <time>2019-11-06T07:43:01Z</time>
      </trkpt>
      <trkpt lat="44.13702" lon="2.01073">
        <ele>286</ele>
        <time>2019-11-06T07:43:21Z</time>
      </trkpt>
      <trkpt lat="44.13803" lon="2.01127">
        <ele>276</ele>
        <time>2019-11-06T07:44:47Z</time>
      </trkpt>
      <trkpt lat="44.13858" lon="2.01149">
        <ele>270</ele>
        <time>2019-11-06T07:45:33Z</time>
      </trkpt>
      <trkpt lat="44.13883" lon="2.01171">
        <ele>263</ele>
        <time>2019-11-06T07:45:57Z</time>
      </trkpt>
      <trkpt lat="44.13894" lon="2.01185">
        <ele>260</ele>
        <time>2019-11-06T07:46:09Z</time>
      </trkpt>
      <trkpt lat="44.13901" lon="2.01202">
        <ele>257</ele>
        <time>2019-11-06T07:46:20Z</time>
      </trkpt>
      <trkpt lat="44.13904" lon="2.01219">
        <ele>255</ele>
        <time>2019-11-06T07:46:30Z</time>
      </trkpt>
      <trkpt lat="44.13905" lon="2.01259">
        <ele>251</ele>
        <time>2019-11-06T07:46:53Z</time>
      </trkpt>
      <trkpt lat="44.13908" lon="2.01274">
        <ele>250</ele>
        <time>2019-11-06T07:47:02Z</time>
      </trkpt>
      <trkpt lat="44.13915" lon="2.01284">
        <ele>248</ele>
        <time>2019-11-06T07:47:10Z</time>
      </trkpt>
      <trkpt lat="44.13952" lon="2.01322">
        <ele>237</ele>
        <time>2019-11-06T07:47:47Z</time>
      </trkpt>
      <trkpt lat="44.13956" lon="2.01333">
        <ele>236</ele>
        <time>2019-11-06T07:47:54Z</time>
      </trkpt>
      <trkpt lat="44.13949" lon="2.01335">
        <ele>237</ele>
        <time>2019-11-06T07:47:59Z</time>
      </trkpt>
      <trkpt lat="44.13936" lon="2.01332">
        <ele>239</ele>
        <time>2019-11-06T07:48:10Z</time>
      </trkpt>
      <trkpt lat="44.13919" lon="2.0132">
        <ele>243</ele>
        <time>2019-11-06T07:48:25Z</time>
      </trkpt>
      <trkpt lat="44.13896" lon="2.01295">
        <ele>246</ele>
        <time>2019-11-06T07:48:49Z</time>
      </trkpt>
      <trkpt lat="44.13866" lon="2.0127">
        <ele>248</ele>
        <time>2019-11-06T07:49:17Z</time>
      </trkpt>
      <trkpt lat="44.13846" lon="2.0126">
        <ele>249</ele>
        <time>2019-11-06T07:49:34Z</time>
      </trkpt>
      <trkpt lat="44.138" lon="2.01244">
        <ele>255</ele>
        <time>2019-11-06T07:50:12Z</time>
      </trkpt>
      <trkpt lat="44.13769" lon="2.01227">
        <ele>260</ele>
        <time>2019-11-06T07:50:38Z</time>
      </trkpt>
      <trkpt lat="44.13756" lon="2.01225">
        <ele>262</ele>
        <time>2019-11-06T07:50:49Z</time>
      </trkpt>
      <trkpt lat="44.1375" lon="2.01229">
        <ele>262</ele>
        <time>2019-11-06T07:50:54Z</time>
      </trkpt>
      <trkpt lat="44.13749" lon="2.01237">
        <ele>261</ele>
        <time>2019-11-06T07:50:59Z</time>
      </trkpt>
      <trkpt lat="44.13754" lon="2.01248">
        <ele>260</ele>
        <time>2019-11-06T07:51:06Z</time>
      </trkpt>
      <trkpt lat="44.13766" lon="2.01263">
        <ele>259</ele>
        <time>2019-11-06T07:51:19Z</time>
      </trkpt>
      <trkpt lat="44.13821" lon="2.01318">
        <ele>247</ele>
        <time>2019-11-06T07:52:13Z</time>
      </trkpt>
      <trkpt lat="44.13857" lon="2.01363">
        <ele>241</ele>
        <time>2019-11-06T07:52:52Z</time>
      </trkpt>
      <trkpt lat="44.13888" lon="2.01414">
        <ele>232</ele>
        <time>2019-11-06T07:53:30Z</time>
      </trkpt>
      <trkpt lat="44.13916" lon="2.0148">
        <ele>225</ele>
        <time>2019-11-06T07:54:14Z</time>
      </trkpt>
      <trkpt lat="44.13926" lon="2.01495">
        <ele>223</ele>
        <time>2019-11-06T07:54:26Z</time>
      </trkpt>
      <trkpt lat="44.13962" lon="2.01522">
        <ele>222</ele>
        <time>2019-11-06T07:54:59Z</time>
      </trkpt>
      <trkpt lat="44.13983" lon="2.0153">
        <ele>219</ele>
        <time>2019-11-06T07:55:16Z</time>
      </trkpt>
      <trkpt lat="44.14067" lon="2.01545">
        <ele>202</ele>
        <time>2019-11-06T07:56:24Z</time>
      </trkpt>
      <trkpt lat="44.14097" lon="2.01552">
        <ele>197</ele>
        <time>2019-11-06T07:56:49Z</time>
      </trkpt>
      <trkpt lat="44.14109" lon="2.01558">
        <ele>196</ele>
        <time>2019-11-06T07:56:59Z</time>
      </trkpt>
      <trkpt lat="44.14133" lon="2.01589">
        <ele>196</ele>
        <time>2019-11-06T07:57:25Z</time>
      </trkpt>
      <trkpt lat="44.14131" lon="2.01613">
        <ele>196</ele>
        <time>2019-11-06T07:57:39Z</time>
      </trkpt>
      <trkpt lat="44.14124" lon="2.01643">
        <ele>197</ele>
        <time>2019-11-06T07:57:57Z</time>
      </trkpt>
      <trkpt lat="44.14141" lon="2.01653">
        <ele>197</ele>
        <time>2019-11-06T07:58:12Z</time>
      </trkpt>
      <trkpt lat="44.14161" lon="2.01566">
        <ele>193</ele>
        <time>2019-11-06T07:59:04Z</time>
      </trkpt>
      <trkpt lat="44.14178" lon="2.01531">
        <ele>197</ele>
        <time>2019-11-06T07:59:29Z</time>
      </trkpt>
      <trkpt lat="44.14181" lon="2.01519">
        <ele>198</ele>
        <time>2019-11-06T07:59:36Z</time>
      </trkpt>
      <trkpt lat="44.14182" lon="2.01506">
        <ele>199</ele>
        <time>2019-11-06T07:59:43Z</time>
      </trkpt>
      <trkpt lat="44.14177" lon="2.01423">
        <ele>197</ele>
        <time>2019-11-06T08:00:31Z</time>
      </trkpt>
      <trkpt lat="44.14176" lon="2.01355">
        <ele>197</ele>
        <time>2019-11-06T08:01:10Z</time>
      </trkpt>
      <trkpt lat="44.14178" lon="2.01319">
        <ele>198</ele>
        <time>2019-11-06T08:01:31Z</time>
      </trkpt>
      <trkpt lat="44.14196" lon="2.01253">
        <ele>202</ele>
        <time>2019-11-06T08:02:12Z</time>
      </trkpt>
      <trkpt lat="44.1421" lon="2.01225">
        <ele>204</ele>
        <time>2019-11-06T08:02:31Z</time>
      </trkpt>
      <trkpt lat="44.14247" lon="2.0117">
        <ele>202</ele>
        <time>2019-11-06T08:03:15Z</time>
      </trkpt>
      <trkpt lat="44.14297" lon="2.01112">
        <ele>205</ele>
        <time>2019-11-06T08:04:07Z</time>
      </trkpt>
      <trkpt lat="44.14324" lon="2.01086">
        <ele>206</ele>
        <time>2019-11-06T08:04:33Z</time>
      </trkpt>
      <trkpt lat="44.14354" lon="2.01065">
        <ele>209</ele>
        <time>2019-11-06T08:05:00Z</time>
      </trkpt>
      <trkpt lat="44.1438" lon="2.01051">
        <ele>211</ele>
        <time>2019-11-06T08:05:22Z</time>
      </trkpt>
      <trkpt lat="44.14396" lon="2.01046">
        <ele>214</ele>
        <time>2019-11-06T08:05:35Z</time>
      </trkpt>
      <trkpt lat="44.14487" lon="2.00991">
        <ele>216</ele>
        <time>2019-11-06T08:06:55Z</time>
      </trkpt>
      <trkpt lat="44.14503" lon="2.00985">
        <ele>217</ele>
        <time>2019-11-06T08:07:08Z</time>
      </trkpt>
      <trkpt lat="44.14507" lon="2.00989">
        <ele>218</ele>
        <time>2019-11-06T08:07:12Z</time>
      </trkpt>
      <trkpt lat="44.1451" lon="2.00999">
        <ele>221</ele>
        <time>2019-11-06T08:07:18Z</time>
      </trkpt>
      <trkpt lat="44.14502" lon="2.00998">
        <ele>220</ele>
        <time>2019-11-06T08:07:25Z</time>
      </trkpt>
      <trkpt lat="44.14497" lon="2.01">
        <ele>219</ele>
        <time>2019-11-06T08:07:29Z</time>
      </trkpt>
      <trkpt lat="44.14476" lon="2.01017">
        <ele>220</ele>
        <time>2019-11-06T08:07:48Z</time>
      </trkpt>
      <trkpt lat="44.14417" lon="2.01082">
        <ele>230</ele>
        <time>2019-11-06T08:08:48Z</time>
      </trkpt>
      <trkpt lat="44.14364" lon="2.01134">
        <ele>230</ele>
        <time>2019-11-06T08:09:40Z</time>
      </trkpt>
      <trkpt lat="44.14343" lon="2.01161">
        <ele>232</ele>
        <time>2019-11-06T08:10:03Z</time>
      </trkpt>
      <trkpt lat="44.14331" lon="2.01181">
        <ele>234</ele>
        <time>2019-11-06T08:10:18Z</time>
      </trkpt>
      <trkpt lat="44.14312" lon="2.01229">
        <ele>240</ele>
        <time>2019-11-06T08:10:50Z</time>
      </trkpt>
      <trkpt lat="44.14304" lon="2.0126">
        <ele>244</ele>
        <time>2019-11-06T08:11:09Z</time>
      </trkpt>
      <trkpt lat="44.1429" lon="2.01329">
        <ele>248</ele>
        <time>2019-11-06T08:11:50Z</time>
      </trkpt>
      <trkpt lat="44.14285" lon="2.01384">
        <ele>249</ele>
        <time>2019-11-06T08:12:22Z</time>
      </trkpt>
      <trkpt lat="44.14291" lon="2.01476">
        <ele>251</ele>
        <time>2019-11-06T08:13:15Z</time>
      </trkpt>
      <trkpt lat="44.14309" lon="2.01527">
        <ele>259</ele>
        <time>2019-11-06T08:13:47Z</time>
      </trkpt>
      <trkpt lat="44.14331" lon="2.01569">
        <ele>269</ele>
        <time>2019-11-06T08:14:17Z</time>
      </trkpt>
      <trkpt lat="44.14336" lon="2.01592">
        <ele>271</ele>
        <time>2019-11-06T08:14:31Z</time>
      </trkpt>
      <trkpt lat="44.14335" lon="2.01646">
        <ele>273</ele>
        <time>2019-11-06T08:15:02Z</time>
      </trkpt>
      <trkpt lat="44.14344" lon="2.01711">
        <ele>278</ele>
        <time>2019-11-06T08:15:40Z</time>
      </trkpt>
      <trkpt lat="44.14341" lon="2.01751">
        <ele>279</ele>
        <time>2019-11-06T08:16:03Z</time>
      </trkpt>
      <trkpt lat="44.14343" lon="2.01762">
        <ele>279</ele>
        <time>2019-11-06T08:16:10Z</time>
      </trkpt>
      <trkpt lat="44.14348" lon="2.01775">
        <ele>280</ele>
        <time>2019-11-06T08:16:18Z</time>
      </trkpt>
      <trkpt lat="44.14366" lon="2.01806">
        <ele>282</ele>
        <time>2019-11-06T08:16:41Z</time>
      </trkpt>
      <trkpt lat="44.1439" lon="2.01834">
        <ele>285</ele>
        <time>2019-11-06T08:17:06Z</time>
      </trkpt>
      <trkpt lat="44.14394" lon="2.01853">
        <ele>286</ele>
        <time>2019-11-06T08:17:18Z</time>
      </trkpt>
      <trkpt lat="44.14394" lon="2.01862">
        <ele>286</ele>
        <time>2019-11-06T08:17:23Z</time>
      </trkpt>
      <trkpt lat="44.14391" lon="2.01869">
        <ele>286</ele>
        <time>2019-11-06T08:17:27Z</time>
      </trkpt>
      <trkpt lat="44.14337" lon="2.01934">
        <ele>280</ele>
        <time>2019-11-06T08:18:25Z</time>
      </trkpt>
      <trkpt lat="44.14326" lon="2.01954">
        <ele>280</ele>
        <time>2019-11-06T08:18:39Z</time>
      </trkpt>
      <trkpt lat="44.14316" lon="2.01992">
        <ele>282</ele>
        <time>2019-11-06T08:19:02Z</time>
      </trkpt>
      <trkpt lat="44.14314" lon="2.02009">
        <ele>283</ele>
        <time>2019-11-06T08:19:12Z</time>
      </trkpt>
      <trkpt lat="44.14315" lon="2.0204">
        <ele>284</ele>
        <time>2019-11-06T08:19:30Z</time>
      </trkpt>
      <trkpt lat="44.14326" lon="2.0208">
        <ele>287</ele>
        <time>2019-11-06T08:19:55Z</time>
      </trkpt>
      <trkpt lat="44.14413" lon="2.02239">
        <ele>295</ele>
        <time>2019-11-06T08:21:49Z</time>
      </trkpt>
      <trkpt lat="44.14422" lon="2.02263">
        <ele>295</ele>
        <time>2019-11-06T08:22:05Z</time>
      </trkpt>
      <trkpt lat="44.1443" lon="2.0232">
        <ele>297</ele>
        <time>2019-11-06T08:22:38Z</time>
      </trkpt>
      <trkpt lat="44.14429" lon="2.02364">
        <ele>299</ele>
        <time>2019-11-06T08:23:04Z</time>
      </trkpt>
      <trkpt lat="44.144" lon="2.02383">
        <ele>301</ele>
        <time>2019-11-06T08:23:29Z</time>
      </trkpt>
      <trkpt lat="44.14386" lon="2.02382">
        <ele>302</ele>
        <time>2019-11-06T08:23:41Z</time>
      </trkpt>
      <trkpt lat="44.14388" lon="2.02398">
        <ele>303</ele>
        <time>2019-11-06T08:23:50Z</time>
      </trkpt>
      <trkpt lat="44.14396" lon="2.02416">
        <ele>303</ele>
        <time>2019-11-06T08:24:02Z</time>
      </trkpt>
      <trkpt lat="44.14408" lon="2.02431">
        <ele>303</ele>
        <time>2019-11-06T08:24:15Z</time>
      </trkpt>
      <trkpt lat="44.14417" lon="2.02452">
        <ele>303</ele>
        <time>2019-11-06T08:24:29Z</time>
      </trkpt>
      <trkpt lat="44.1444" lon="2.02526">
        <ele>303</ele>
        <time>2019-11-06T08:25:15Z</time>
      </trkpt>
      <trkpt lat="44.14469" lon="2.02632">
        <ele>301</ele>
        <time>2019-11-06T08:26:21Z</time>
      </trkpt>
      <trkpt lat="44.14479" lon="2.02658">
        <ele>300</ele>
        <time>2019-11-06T08:26:37Z</time>
      </trkpt>
      <trkpt lat="44.14501" lon="2.02695">
        <ele>299</ele>
        <time>2019-11-06T08:27:05Z</time>
      </trkpt>
      <trkpt lat="44.14542" lon="2.02691">
        <ele>299</ele>
        <time>2019-11-06T08:27:38Z</time>
      </trkpt>
      <trkpt lat="44.14586" lon="2.02694">
        <ele>299</ele>
        <time>2019-11-06T08:28:13Z</time>
      </trkpt>
      <trkpt lat="44.14635" lon="2.02712">
        <ele>297</ele>
        <time>2019-11-06T08:28:54Z</time>
      </trkpt>
      <trkpt lat="44.14692" lon="2.02726">
        <ele>296</ele>
        <time>2019-11-06T08:29:40Z</time>
      </trkpt>
      <trkpt lat="44.14816" lon="2.02763">
        <ele>295</ele>
        <time>2019-11-06T08:31:22Z</time>
      </trkpt>
      <trkpt lat="44.14843" lon="2.02775">
        <ele>295</ele>
        <time>2019-11-06T08:31:44Z</time>
      </trkpt>
      <trkpt lat="44.14907" lon="2.02831">
        <ele>295</ele>
        <time>2019-11-06T08:32:45Z</time>
      </trkpt>
      <trkpt lat="44.14918" lon="2.02837">
        <ele>295</ele>
        <time>2019-11-06T08:32:54Z</time>
      </trkpt>
      <trkpt lat="44.1497" lon="2.02851">
        <ele>298</ele>
        <time>2019-11-06T08:33:37Z</time>
      </trkpt>
      <trkpt lat="44.15017" lon="2.02872">
        <ele>300</ele>
        <time>2019-11-06T08:34:16Z</time>
      </trkpt>
      <trkpt lat="44.15039" lon="2.02877">
        <ele>301</ele>
        <time>2019-11-06T08:34:34Z</time>
      </trkpt>
      <trkpt lat="44.15053" lon="2.02913">
        <ele>303</ele>
        <time>2019-11-06T08:34:58Z</time>
      </trkpt>
      <trkpt lat="44.15063" lon="2.02927">
        <ele>303</ele>
        <time>2019-11-06T08:35:09Z</time>
      </trkpt>
      <trkpt lat="44.1507" lon="2.03027">
        <ele>304</ele>
        <time>2019-11-06T08:36:07Z</time>
      </trkpt>
      <trkpt lat="44.15069" lon="2.03059">
        <ele>304</ele>
        <time>2019-11-06T08:36:25Z</time>
      </trkpt>
      <trkpt lat="44.15102" lon="2.0307">
        <ele>304</ele>
        <time>2019-11-06T08:36:52Z</time>
      </trkpt>
      <trkpt lat="44.15183" lon="2.0309">
        <ele>299</ele>
        <time>2019-11-06T08:37:58Z</time>
      </trkpt>
      <trkpt lat="44.15196" lon="2.0311">
        <ele>297</ele>
        <time>2019-11-06T08:38:14Z</time>
      </trkpt>
      <trkpt lat="44.15204" lon="2.03115">
        <ele>296</ele>
        <time>2019-11-06T08:38:21Z</time>
      </trkpt>
      <trkpt lat="44.15266" lon="2.03175">
        <ele>286</ele>
        <time>2019-11-06T08:39:21Z</time>
      </trkpt>
      <trkpt lat="44.15307" lon="2.03201">
        <ele>277</ele>
        <time>2019-11-06T08:39:57Z</time>
      </trkpt>
      <trkpt lat="44.15343" lon="2.0322">
        <ele>266</ele>
        <time>2019-11-06T08:40:28Z</time>
      </trkpt>
      <trkpt lat="44.15355" lon="2.03306">
        <ele>266</ele>
        <time>2019-11-06T08:41:18Z</time>
      </trkpt>
      <trkpt lat="44.1535" lon="2.0355">
        <ele>279</ele>
        <time>2019-11-06T08:43:39Z</time>
      </trkpt>
      <trkpt lat="44.15351" lon="2.03564">
        <ele>279</ele>
        <time>2019-11-06T08:43:47Z</time>
      </trkpt>
      <trkpt lat="44.15365" lon="2.03608">
        <ele>275</ele>
        <time>2019-11-06T08:44:14Z</time>
      </trkpt>
      <trkpt lat="44.15364" lon="2.0365">
        <ele>278</ele>
        <time>2019-11-06T08:44:38Z</time>
      </trkpt>
      <trkpt lat="44.15358" lon="2.03716">
        <ele>283</ele>
        <time>2019-11-06T08:45:17Z</time>
      </trkpt>
      <trkpt lat="44.15415" lon="2.03762">
        <ele>269</ele>
        <time>2019-11-06T08:46:09Z</time>
      </trkpt>
      <trkpt lat="44.15445" lon="2.03783">
        <ele>264</ele>
        <time>2019-11-06T08:46:36Z</time>
      </trkpt>
      <trkpt lat="44.15474" lon="2.03796">
        <ele>258</ele>
        <time>2019-11-06T08:47:01Z</time>
      </trkpt>
      <trkpt lat="44.15496" lon="2.03803">
        <ele>254</ele>
        <time>2019-11-06T08:47:19Z</time>
      </trkpt>
      <trkpt lat="44.15523" lon="2.03808">
        <ele>252</ele>
        <time>2019-11-06T08:47:41Z</time>
      </trkpt>
      <trkpt lat="44.1557" lon="2.03807">
        <ele>248</ele>
        <time>2019-11-06T08:48:18Z</time>
      </trkpt>
      <trkpt lat="44.1559" lon="2.03802">
        <ele>245</ele>
        <time>2019-11-06T08:48:34Z</time>
      </trkpt>
      <trkpt lat="44.15615" lon="2.0379">
        <ele>242</ele>
        <time>2019-11-06T08:48:56Z</time>
      </trkpt>
      <trkpt lat="44.15646" lon="2.03768">
        <ele>235</ele>
        <time>2019-11-06T08:49:23Z</time>
      </trkpt>
      <trkpt lat="44.15657" lon="2.03758">
        <ele>232</ele>
        <time>2019-11-06T08:49:34Z</time>
      </trkpt>
      <trkpt lat="44.15668" lon="2.03743">
        <ele>229</ele>
        <time>2019-11-06T08:49:46Z</time>
      </trkpt>
      <trkpt lat="44.15669" lon="2.03739">
        <ele>228</ele>
        <time>2019-11-06T08:49:49Z</time>
      </trkpt>
      <trkpt lat="44.15662" lon="2.03724">
        <ele>224</ele>
        <time>2019-11-06T08:49:59Z</time>
      </trkpt>
      <trkpt lat="44.15673" lon="2.03714">
        <ele>223</ele>
        <time>2019-11-06T08:50:10Z</time>
      </trkpt>
      <trkpt lat="44.15712" lon="2.03666">
        <ele>218</ele>
        <time>2019-11-06T08:50:51Z</time>
      </trkpt>
      <trkpt lat="44.15742" lon="2.03623">
        <ele>215</ele>
        <time>2019-11-06T08:51:26Z</time>
      </trkpt>
      <trkpt lat="44.15773" lon="2.03555">
        <ele>209</ele>
        <time>2019-11-06T08:52:12Z</time>
      </trkpt>
      <trkpt lat="44.15783" lon="2.03526">
        <ele>207</ele>
        <time>2019-11-06T08:52:30Z</time>
      </trkpt>
      <trkpt lat="44.15826" lon="2.03496">
        <ele>209</ele>
        <time>2019-11-06T08:53:09Z</time>
      </trkpt>
      <trkpt lat="44.15861" lon="2.03465">
        <ele>213</ele>
        <time>2019-11-06T08:53:42Z</time>
      </trkpt>
      <trkpt lat="44.15899" lon="2.03422">
        <ele>217</ele>
        <time>2019-11-06T08:54:21Z</time>
      </trkpt>
      <trkpt lat="44.15925" lon="2.03405">
        <ele>220</ele>
        <time>2019-11-06T08:54:44Z</time>
      </trkpt>
      <trkpt lat="44.15973" lon="2.03368">
        <ele>223</ele>
        <time>2019-11-06T08:55:28Z</time>
      </trkpt>
      <trkpt lat="44.16046" lon="2.03324">
        <ele>225</ele>
        <time>2019-11-06T08:56:32Z</time>
      </trkpt>
      <trkpt lat="44.16069" lon="2.03317">
        <ele>225</ele>
        <time>2019-11-06T08:56:51Z</time>
      </trkpt>
      <trkpt lat="44.16136" lon="2.03329">
        <ele>233</ele>
        <time>2019-11-06T08:57:45Z</time>
      </trkpt>
      <trkpt lat="44.16189" lon="2.03352">
        <ele>239</ele>
        <time>2019-11-06T08:58:29Z</time>
      </trkpt>
      <trkpt lat="44.1622" lon="2.03369">
        <ele>241</ele>
        <time>2019-11-06T08:58:56Z</time>
      </trkpt>
      <trkpt lat="44.16236" lon="2.03382">
        <ele>242</ele>
        <time>2019-11-06T08:59:11Z</time>
      </trkpt>
      <trkpt lat="44.16253" lon="2.03405">
        <ele>244</ele>
        <time>2019-11-06T08:59:30Z</time>
      </trkpt>
      <trkpt lat="44.16264" lon="2.03438">
        <ele>249</ele>
        <time>2019-11-06T08:59:51Z</time>
      </trkpt>
      <trkpt lat="44.16267" lon="2.03468">
        <ele>251</ele>
        <time>2019-11-06T09:00:08Z</time>
      </trkpt>
      <trkpt lat="44.16267" lon="2.03499">
        <ele>253</ele>
        <time>2019-11-06T09:00:26Z</time>
      </trkpt>
      <trkpt lat="44.1627" lon="2.03511">
        <ele>255</ele>
        <time>2019-11-06T09:00:33Z</time>
      </trkpt>
      <trkpt lat="44.16283" lon="2.03516">
        <ele>258</ele>
        <time>2019-11-06T09:00:44Z</time>
      </trkpt>
      <trkpt lat="44.16295" lon="2.03506">
        <ele>258</ele>
        <time>2019-11-06T09:00:55Z</time>
      </trkpt>
      <trkpt lat="44.16305" lon="2.03467">
        <ele>259</ele>
        <time>2019-11-06T09:01:19Z</time>
      </trkpt>
      <trkpt lat="44.16306" lon="2.03438">
        <ele>258</ele>
        <time>2019-11-06T09:01:36Z</time>
      </trkpt>
      <trkpt lat="44.16299" lon="2.03377">
        <ele>255</ele>
        <time>2019-11-06T09:02:11Z</time>
      </trkpt>
      <trkpt lat="44.1629" lon="2.03333">
        <ele>250</ele>
        <time>2019-11-06T09:02:37Z</time>
      </trkpt>
      <trkpt lat="44.1628" lon="2.033">
        <ele>245</ele>
        <time>2019-11-06T09:02:58Z</time>
      </trkpt>
      <trkpt lat="44.16276" lon="2.03249">
        <ele>241</ele>
        <time>2019-11-06T09:03:27Z</time>
      </trkpt>
      <trkpt lat="44.16276" lon="2.03228">
        <ele>236</ele>
        <time>2019-11-06T09:03:39Z</time>
      </trkpt>
      <trkpt lat="44.16296" lon="2.03219">
        <ele>240</ele>
        <time>2019-11-06T09:03:56Z</time>
      </trkpt>
      <trkpt lat="44.16307" lon="2.03219">
        <ele>244</ele>
        <time>2019-11-06T09:04:05Z</time>
      </trkpt>
      <trkpt lat="44.1632" lon="2.03228">
        <ele>251</ele>
        <time>2019-11-06T09:04:17Z</time>
      </trkpt>
      <trkpt lat="44.16307" lon="2.03244">
        <ele>251</ele>
        <time>2019-11-06T09:04:31Z</time>
      </trkpt>
      <trkpt lat="44.16304" lon="2.03253">
        <ele>251</ele>
        <time>2019-11-06T09:04:36Z</time>
      </trkpt>
      <trkpt lat="44.16305" lon="2.03283">
        <ele>253</ele>
        <time>2019-11-06T09:04:54Z</time>
      </trkpt>
      <trkpt lat="44.16356" lon="2.03419">
        <ele>274</ele>
        <time>2019-11-06T09:06:22Z</time>
      </trkpt>
      <trkpt lat="44.16364" lon="2.03443">
        <ele>278</ele>
        <time>2019-11-06T09:06:37Z</time>
      </trkpt>
      <trkpt lat="44.16368" lon="2.0347">
        <ele>280</ele>
        <time>2019-11-06T09:06:53Z</time>
      </trkpt>
      <trkpt lat="44.16372" lon="2.03551">
        <ele>290</ele>
        <time>2019-11-06T09:07:39Z</time>
      </trkpt>
      <trkpt lat="44.1637" lon="2.03574">
        <ele>292</ele>
        <time>2019-11-06T09:07:53Z</time>
      </trkpt>
      <trkpt lat="44.16351" lon="2.03604">
        <ele>290</ele>
        <time>2019-11-06T09:08:16Z</time>
      </trkpt>
      <trkpt lat="44.16349" lon="2.0361">
        <ele>290</ele>
        <time>2019-11-06T09:08:19Z</time>
      </trkpt>
      <trkpt lat="44.16352" lon="2.03617">
        <ele>293</ele>
        <time>2019-11-06T09:08:24Z</time>
      </trkpt>
      <trkpt lat="44.16358" lon="2.03614">
        <ele>295</ele>
        <time>2019-11-06T09:08:29Z</time>
      </trkpt>
      <trkpt lat="44.16379" lon="2.03587">
        <ele>298</ele>
        <time>2019-11-06T09:08:52Z</time>
      </trkpt>
      <trkpt lat="44.16389" lon="2.03569">
        <ele>300</ele>
        <time>2019-11-06T09:09:05Z</time>
      </trkpt>
      <trkpt lat="44.16395" lon="2.0355">
        <ele>300</ele>
        <time>2019-11-06T09:09:17Z</time>
      </trkpt>
      <trkpt lat="44.16411" lon="2.03444">
        <ele>299</ele>
        <time>2019-11-06T09:10:19Z</time>
      </trkpt>
      <trkpt lat="44.1642" lon="2.03429">
        <ele>301</ele>
        <time>2019-11-06T09:10:31Z</time>
      </trkpt>
      <trkpt lat="44.16441" lon="2.0341">
        <ele>302</ele>
        <time>2019-11-06T09:10:51Z</time>
      </trkpt>
      <trkpt lat="44.16452" lon="2.03406">
        <ele>302</ele>
        <time>2019-11-06T09:11:00Z</time>
      </trkpt>
      <trkpt lat="44.16475" lon="2.03407">
        <ele>305</ele>
        <time>2019-11-06T09:11:18Z</time>
      </trkpt>
      <trkpt lat="44.16484" lon="2.03423">
        <ele>308</ele>
        <time>2019-11-06T09:11:30Z</time>
      </trkpt>
      <trkpt lat="44.16489" lon="2.03438">
        <ele>309</ele>
        <time>2019-11-06T09:11:39Z</time>
      </trkpt>
      <trkpt lat="44.1649" lon="2.03457">
        <ele>311</ele>
        <time>2019-11-06T09:11:50Z</time>
      </trkpt>
      <trkpt lat="44.16485" lon="2.03485">
        <ele>312</ele>
        <time>2019-11-06T09:12:07Z</time>
      </trkpt>
      <trkpt lat="44.16484" lon="2.03515">
        <ele>315</ele>
        <time>2019-11-06T09:12:24Z</time>
      </trkpt>
      <trkpt lat="44.16489" lon="2.0357">
        <ele>321</ele>
        <time>2019-11-06T09:12:56Z</time>
      </trkpt>
      <trkpt lat="44.16505" lon="2.0365">
        <ele>331</ele>
        <time>2019-11-06T09:13:44Z</time>
      </trkpt>
      <trkpt lat="44.16506" lon="2.03684">
        <ele>335</ele>
        <time>2019-11-06T09:14:03Z</time>
      </trkpt>
      <trkpt lat="44.16503" lon="2.03737">
        <ele>340</ele>
        <time>2019-11-06T09:14:34Z</time>
      </trkpt>
      <trkpt lat="44.16485" lon="2.03832">
        <ele>343</ele>
        <time>2019-11-06T09:15:30Z</time>
      </trkpt>
      <trkpt lat="44.16484" lon="2.04059">
        <ele>351</ele>
        <time>2019-11-06T09:17:41Z</time>
      </trkpt>
      <trkpt lat="44.1648" lon="2.04119">
        <ele>356</ele>
        <time>2019-11-06T09:18:15Z</time>
      </trkpt>
      <trkpt lat="44.16465" lon="2.04187">
        <ele>359</ele>
        <time>2019-11-06T09:18:56Z</time>
      </trkpt>
      <trkpt lat="44.1644" lon="2.04253">
        <ele>359</ele>
        <time>2019-11-06T09:19:39Z</time>
      </trkpt>
      <trkpt lat="44.16425" lon="2.04312">
        <ele>357</ele>
        <time>2019-11-06T09:20:15Z</time>
      </trkpt>
      <trkpt lat="44.16406" lon="2.04437">
        <ele>355</ele>
        <time>2019-11-06T09:21:28Z</time>
      </trkpt>
      <trkpt lat="44.16392" lon="2.04512">
        <ele>355</ele>
        <time>2019-11-06T09:22:13Z</time>
      </trkpt>
      <trkpt lat="44.16363" lon="2.04614">
        <ele>356</ele>
        <time>2019-11-06T09:23:16Z</time>
      </trkpt>
      <trkpt lat="44.16353" lon="2.0466">
        <ele>357</ele>
        <time>2019-11-06T09:23:43Z</time>
      </trkpt>
      <trkpt lat="44.16351" lon="2.04703">
        <ele>360</ele>
        <time>2019-11-06T09:24:08Z</time>
      </trkpt>
      <trkpt lat="44.16353" lon="2.04729">
        <ele>361</ele>
        <time>2019-11-06T09:24:23Z</time>
      </trkpt>
      <trkpt lat="44.16355" lon="2.04734">
        <ele>362</ele>
        <time>2019-11-06T09:24:26Z</time>
      </trkpt>
      <trkpt lat="44.16421" lon="2.04738">
        <ele>357</ele>
        <time>2019-11-06T09:25:19Z</time>
      </trkpt>
      <trkpt lat="44.16443" lon="2.04744">
        <ele>355</ele>
        <time>2019-11-06T09:25:37Z</time>
      </trkpt>
      <trkpt lat="44.16472" lon="2.04763">
        <ele>354</ele>
        <time>2019-11-06T09:26:03Z</time>
      </trkpt>
      <trkpt lat="44.1649" lon="2.04788">
        <ele>356</ele>
        <time>2019-11-06T09:26:23Z</time>
      </trkpt>
      <trkpt lat="44.16502" lon="2.04795">
        <ele>356</ele>
        <time>2019-11-06T09:26:34Z</time>
      </trkpt>
      <trkpt lat="44.16584" lon="2.04779">
        <ele>350</ele>
        <time>2019-11-06T09:27:40Z</time>
      </trkpt>
      <trkpt lat="44.16604" lon="2.04781">
        <ele>347</ele>
        <time>2019-11-06T09:27:56Z</time>
      </trkpt>
      <trkpt lat="44.16614" lon="2.04787">
        <ele>346</ele>
        <time>2019-11-06T09:28:05Z</time>
      </trkpt>
      <trkpt lat="44.16646" lon="2.04822">
        <ele>343</ele>
        <time>2019-11-06T09:28:37Z</time>
      </trkpt>
      <trkpt lat="44.16657" lon="2.04843">
        <ele>343</ele>
        <time>2019-11-06T09:28:52Z</time>
      </trkpt>
      <trkpt lat="44.16658" lon="2.04852">
        <ele>343</ele>
        <time>2019-11-06T09:28:57Z</time>
      </trkpt>
      <trkpt lat="44.16655" lon="2.04875">
        <ele>346</ele>
        <time>2019-11-06T09:29:11Z</time>
      </trkpt>
      <trkpt lat="44.16638" lon="2.04947">
        <ele>356</ele>
        <time>2019-11-06T09:29:54Z</time>
      </trkpt>
      <trkpt lat="44.16639" lon="2.04973">
        <ele>358</ele>
        <time>2019-11-06T09:30:09Z</time>
      </trkpt>
      <trkpt lat="44.1665" lon="2.04994">
        <ele>358</ele>
        <time>2019-11-06T09:30:24Z</time>
      </trkpt>
      <trkpt lat="44.16666" lon="2.05003">
        <ele>355</ele>
        <time>2019-11-06T09:30:38Z</time>
      </trkpt>
      <trkpt lat="44.16686" lon="2.05001">
        <ele>351</ele>
        <time>2019-11-06T09:30:54Z</time>
      </trkpt>
      <trkpt lat="44.16784" lon="2.04922">
        <ele>319</ele>
        <time>2019-11-06T09:32:25Z</time>
      </trkpt>
      <trkpt lat="44.16806" lon="2.04923">
        <ele>314</ele>
        <time>2019-11-06T09:32:42Z</time>
      </trkpt>
      <trkpt lat="44.16815" lon="2.04934">
        <ele>312</ele>
        <time>2019-11-06T09:32:52Z</time>
      </trkpt>
      <trkpt lat="44.16826" lon="2.04963">
        <ele>311</ele>
        <time>2019-11-06T09:33:11Z</time>
      </trkpt>
      <trkpt lat="44.1684" lon="2.05022">
        <ele>303</ele>
        <time>2019-11-06T09:33:47Z</time>
      </trkpt>
      <trkpt lat="44.16844" lon="2.05058">
        <ele>298</ele>
        <time>2019-11-06T09:34:08Z</time>
      </trkpt>
      <trkpt lat="44.16845" lon="2.05083">
        <ele>295</ele>
        <time>2019-11-06T09:34:22Z</time>
      </trkpt>
      <trkpt lat="44.1683" lon="2.05159">
        <ele>297</ele>
        <time>2019-11-06T09:35:07Z</time>
      </trkpt>
      <trkpt lat="44.16834" lon="2.05188">
        <ele>295</ele>
        <time>2019-11-06T09:35:24Z</time>
      </trkpt>
      <trkpt lat="44.16852" lon="2.05214">
        <ele>287</ele>
        <time>2019-11-06T09:35:45Z</time>
      </trkpt>
      <trkpt lat="44.16893" lon="2.05261">
        <ele>266</ele>
        <time>2019-11-06T09:36:27Z</time>
      </trkpt>
      <trkpt lat="44.16967" lon="2.05382">
        <ele>228</ele>
        <time>2019-11-06T09:37:59Z</time>
      </trkpt>
      <trkpt lat="44.16982" lon="2.0539">
        <ele>218</ele>
        <time>2019-11-06T09:38:12Z</time>
      </trkpt>
      <trkpt lat="44.17023" lon="2.05387">
        <ele>197</ele>
        <time>2019-11-06T09:38:44Z</time>
      </trkpt>
      <trkpt lat="44.17038" lon="2.0539">
        <ele>192</ele>
        <time>2019-11-06T09:38:57Z</time>
      </trkpt>
      <trkpt lat="44.17056" lon="2.05563">
        <ele>190</ele>
        <time>2019-11-06T09:40:37Z</time>
      </trkpt>
      <trkpt lat="44.17058" lon="2.05605">
        <ele>190</ele>
        <time>2019-11-06T09:41:01Z</time>
      </trkpt>
      <trkpt lat="44.17058" lon="2.05737">
        <ele>186</ele>
        <time>2019-11-06T09:42:17Z</time>
      </trkpt>
      <trkpt lat="44.1705" lon="2.05824">
        <ele>185</ele>
        <time>2019-11-06T09:43:07Z</time>
      </trkpt>
      <trkpt lat="44.17045" lon="2.05843">
        <ele>186</ele>
        <time>2019-11-06T09:43:19Z</time>
      </trkpt>
      <trkpt lat="44.17034" lon="2.05861">
        <ele>187</ele>
        <time>2019-11-06T09:43:33Z</time>
      </trkpt>
      <trkpt lat="44.17004" lon="2.0589">
        <ele>190</ele>
        <time>2019-11-06T09:44:02Z</time>
      </trkpt>
      <trkpt lat="44.17036" lon="2.05943">
        <ele>185</ele>
        <time>2019-11-06T09:44:42Z</time>
      </trkpt>
      <trkpt lat="44.17045" lon="2.05955">
        <ele>185</ele>
        <time>2019-11-06T09:44:52Z</time>
      </trkpt>
      <trkpt lat="44.17059" lon="2.05967">
        <ele>186</ele>
        <time>2019-11-06T09:45:05Z</time>
      </trkpt>
      <trkpt lat="44.17075" lon="2.05973">
        <ele>187</ele>
        <time>2019-11-06T09:45:18Z</time>
      </trkpt>
      <trkpt lat="44.17166" lon="2.05979">
        <ele>182</ele>
        <time>2019-11-06T09:46:31Z</time>
      </trkpt>
      <trkpt lat="44.1718" lon="2.05984">
        <ele>181</ele>
        <time>2019-11-06T09:46:42Z</time>
      </trkpt>
      <trkpt lat="44.1719" lon="2.0599">
        <ele>180</ele>
        <time>2019-11-06T09:46:51Z</time>
      </trkpt>
      <trkpt lat="44.1723" lon="2.06027">
        <ele>182</ele>
        <time>2019-11-06T09:47:30Z</time>
      </trkpt>
      <trkpt lat="44.17268" lon="2.06055">
        <ele>182</ele>
        <time>2019-11-06T09:48:04Z</time>
      </trkpt>
      <trkpt lat="44.17287" lon="2.06064">
        <ele>182</ele>
        <time>2019-11-06T09:48:20Z</time>
      </trkpt>
      <trkpt lat="44.17375" lon="2.06091">
        <ele>180</ele>
        <time>2019-11-06T09:49:32Z</time>
      </trkpt>
      <trkpt lat="44.17471" lon="2.06086">
        <ele>179</ele>
        <time>2019-11-06T09:50:49Z</time>
      </trkpt>
      <trkpt lat="44.1754" lon="2.06079">
        <ele>182</ele>
        <time>2019-11-06T09:51:45Z</time>
      </trkpt>
      <trkpt lat="44.1756" lon="2.06073">
        <ele>182</ele>
        <time>2019-11-06T09:52:01Z</time>
      </trkpt>
      <trkpt lat="44.17568" lon="2.06068">
        <ele>182</ele>
        <time>2019-11-06T09:52:08Z</time>
      </trkpt>
      <trkpt lat="44.17573" lon="2.0606">
        <ele>182</ele>
        <time>2019-11-06T09:52:14Z</time>
      </trkpt>
      <trkpt lat="44.17628" lon="2.0605">
        <ele>186</ele>
        <time>2019-11-06T09:52:58Z</time>
      </trkpt>
      <trkpt lat="44.177" lon="2.06005">
        <ele>189</ele>
        <time>2019-11-06T09:54:02Z</time>
      </trkpt>
      <trkpt lat="44.17799" lon="2.0596">
        <ele>203</ele>
        <time>2019-11-06T09:55:25Z</time>
      </trkpt>
      <trkpt lat="44.17832" lon="2.05941">
        <ele>207</ele>
        <time>2019-11-06T09:55:54Z</time>
      </trkpt>
      <trkpt lat="44.17857" lon="2.05894">
        <ele>201</ele>
        <time>2019-11-06T09:56:27Z</time>
      </trkpt>
      <trkpt lat="44.17888" lon="2.05856">
        <ele>199</ele>
        <time>2019-11-06T09:57:00Z</time>
      </trkpt>
      <trkpt lat="44.17916" lon="2.0581">
        <ele>193</ele>
        <time>2019-11-06T09:57:35Z</time>
      </trkpt>
      <trkpt lat="44.1794" lon="2.05789">
        <ele>194</ele>
        <time>2019-11-06T09:57:58Z</time>
      </trkpt>
      <trkpt lat="44.17946" lon="2.05777">
        <ele>193</ele>
        <time>2019-11-06T09:58:06Z</time>
      </trkpt>
      <trkpt lat="44.18026" lon="2.0566">
        <ele>190</ele>
        <time>2019-11-06T09:59:39Z</time>
      </trkpt>
      <trkpt lat="44.18062" lon="2.05599">
        <ele>188</ele>
        <time>2019-11-06T10:00:24Z</time>
      </trkpt>
      <trkpt lat="44.1809" lon="2.05566">
        <ele>188</ele>
        <time>2019-11-06T10:00:53Z</time>
      </trkpt>
      <trkpt lat="44.18126" lon="2.05532">
        <ele>190</ele>
        <time>2019-11-06T10:01:28Z</time>
      </trkpt>
      <trkpt lat="44.18166" lon="2.05499">
        <ele>186</ele>
        <time>2019-11-06T10:02:06Z</time>
      </trkpt>
      <trkpt lat="44.18199" lon="2.05479">
        <ele>191</ele>
        <time>2019-11-06T10:02:34Z</time>
      </trkpt>
      <trkpt lat="44.18213" lon="2.05464">
        <ele>192</ele>
        <time>2019-11-06T10:02:48Z</time>
      </trkpt>
      <trkpt lat="44.18231" lon="2.05436">
        <ele>189</ele>
        <time>2019-11-06T10:03:10Z</time>
      </trkpt>
      <trkpt lat="44.18255" lon="2.05376">
        <ele>186</ele>
        <time>2019-11-06T10:03:50Z</time>
      </trkpt>
      <trkpt lat="44.18288" lon="2.05318">
        <ele>183</ele>
        <time>2019-11-06T10:04:32Z</time>
      </trkpt>
      <trkpt lat="44.18311" lon="2.05294">
        <ele>182</ele>
        <time>2019-11-06T10:04:55Z</time>
      </trkpt>
      <trkpt lat="44.18341" lon="2.0527">
        <ele>178</ele>
        <time>2019-11-06T10:05:23Z</time>
      </trkpt>
      <trkpt lat="44.18354" lon="2.05262">
        <ele>177</ele>
        <time>2019-11-06T10:05:34Z</time>
      </trkpt>
      <trkpt lat="44.18393" lon="2.05245">
        <ele>176</ele>
        <time>2019-11-06T10:06:07Z</time>
      </trkpt>
      <trkpt lat="44.18477" lon="2.05221">
        <ele>177</ele>
        <time>2019-11-06T10:07:15Z</time>
      </trkpt>
      <trkpt lat="44.18598" lon="2.05181">
        <ele>177</ele>
        <time>2019-11-06T10:08:55Z</time>
      </trkpt>
      <trkpt lat="44.18621" lon="2.05178">
        <ele>177</ele>
        <time>2019-11-06T10:09:14Z</time>
      </trkpt>
      <trkpt lat="44.18652" lon="2.05162">
        <ele>177</ele>
        <time>2019-11-06T10:09:40Z</time>
      </trkpt>
      <trkpt lat="44.18674" lon="2.05159">
        <ele>177</ele>
        <time>2019-11-06T10:09:58Z</time>
      </trkpt>
      <trkpt lat="44.18727" lon="2.05143">
        <ele>178</ele>
        <time>2019-11-06T10:10:41Z</time>
      </trkpt>
      <trkpt lat="44.1874" lon="2.05143">
        <ele>177</ele>
        <time>2019-11-06T10:10:52Z</time>
      </trkpt>
      <trkpt lat="44.18753" lon="2.05147">
        <ele>177</ele>
        <time>2019-11-06T10:11:02Z</time>
      </trkpt>
      <trkpt lat="44.18806" lon="2.05173">
        <ele>178</ele>
        <time>2019-11-06T10:11:47Z</time>
      </trkpt>
      <trkpt lat="44.18834" lon="2.05202">
        <ele>181</ele>
        <time>2019-11-06T10:12:15Z</time>
      </trkpt>
      <trkpt lat="44.18858" lon="2.0526">
        <ele>183</ele>
        <time>2019-11-06T10:12:54Z</time>
      </trkpt>
      <trkpt lat="44.18896" lon="2.05394">
        <ele>187</ele>
        <time>2019-11-06T10:14:16Z</time>
      </trkpt>
      <trkpt lat="44.18915" lon="2.05503">
        <ele>188</ele>
        <time>2019-11-06T10:15:21Z</time>
      </trkpt>
      <trkpt lat="44.18924" lon="2.05578">
        <ele>190</ele>
        <time>2019-11-06T10:16:04Z</time>
      </trkpt>
      <trkpt lat="44.1895" lon="2.05641">
        <ele>189</ele>
        <time>2019-11-06T10:16:46Z</time>
      </trkpt>
      <trkpt lat="44.18968" lon="2.05709">
        <ele>188</ele>
        <time>2019-11-06T10:17:28Z</time>
      </trkpt>
      <trkpt lat="44.18973" lon="2.05759">
        <ele>188</ele>
        <time>2019-11-06T10:17:57Z</time>
      </trkpt>
      <trkpt lat="44.18975" lon="2.05811">
        <ele>188</ele>
        <time>2019-11-06T10:18:27Z</time>
      </trkpt>
      <trkpt lat="44.18974" lon="2.05824">
        <ele>188</ele>
        <time>2019-11-06T10:18:34Z</time>
      </trkpt>
      <trkpt lat="44.18969" lon="2.05839">
        <ele>189</ele>
        <time>2019-11-06T10:18:44Z</time>
      </trkpt>
      <trkpt lat="44.18947" lon="2.05847">
        <ele>194</ele>
        <time>2019-11-06T10:19:02Z</time>
      </trkpt>
      <trkpt lat="44.18937" lon="2.05831">
        <ele>196</ele>
        <time>2019-11-06T10:19:14Z</time>
      </trkpt>
      <trkpt lat="44.1893" lon="2.05776">
        <ele>196</ele>
        <time>2019-11-06T10:19:46Z</time>
      </trkpt>
      <trkpt lat="44.1892" lon="2.05726">
        <ele>195</ele>
        <time>2019-11-06T10:20:16Z</time>
      </trkpt>
      <trkpt lat="44.18909" lon="2.05691">
        <ele>197</ele>
        <time>2019-11-06T10:20:38Z</time>
      </trkpt>
      <trkpt lat="44.18907" lon="2.05645">
        <ele>197</ele>
        <time>2019-11-06T10:21:04Z</time>
      </trkpt>
      <trkpt lat="44.18877" lon="2.05542">
        <ele>209</ele>
        <time>2019-11-06T10:22:08Z</time>
      </trkpt>
      <trkpt lat="44.18868" lon="2.05503">
        <ele>211</ele>
        <time>2019-11-06T10:22:32Z</time>
      </trkpt>
      <trkpt lat="44.18843" lon="2.05474">
        <ele>219</ele>
        <time>2019-11-06T10:22:58Z</time>
      </trkpt>
      <trkpt lat="44.18816" lon="2.05452">
        <ele>223</ele>
        <time>2019-11-06T10:23:23Z</time>
      </trkpt>
      <trkpt lat="44.18804" lon="2.05438">
        <ele>222</ele>
        <time>2019-11-06T10:23:35Z</time>
      </trkpt>
      <trkpt lat="44.18792" lon="2.05435">
        <ele>223</ele>
        <time>2019-11-06T10:23:45Z</time>
      </trkpt>
      <trkpt lat="44.18783" lon="2.05444">
        <ele>225</ele>
        <time>2019-11-06T10:23:54Z</time>
      </trkpt>
      <trkpt lat="44.18781" lon="2.0546">
        <ele>227</ele>
        <time>2019-11-06T10:24:03Z</time>
      </trkpt>
      <trkpt lat="44.18785" lon="2.05486">
        <ele>230</ele>
        <time>2019-11-06T10:24:18Z</time>
      </trkpt>
      <trkpt lat="44.1879" lon="2.05658">
        <ele>250</ele>
        <time>2019-11-06T10:25:57Z</time>
      </trkpt>
      <trkpt lat="44.18798" lon="2.05759">
        <ele>256</ele>
        <time>2019-11-06T10:26:56Z</time>
      </trkpt>
      <trkpt lat="44.18797" lon="2.05802">
        <ele>257</ele>
        <time>2019-11-06T10:27:20Z</time>
      </trkpt>
      <trkpt lat="44.18788" lon="2.05843">
        <ele>262</ele>
        <time>2019-11-06T10:27:45Z</time>
      </trkpt>
      <trkpt lat="44.18782" lon="2.05859">
        <ele>264</ele>
        <time>2019-11-06T10:27:55Z</time>
      </trkpt>
      <trkpt lat="44.18767" lon="2.05881">
        <ele>270</ele>
        <time>2019-11-06T10:28:13Z</time>
      </trkpt>
      <trkpt lat="44.18764" lon="2.05892">
        <ele>271</ele>
        <time>2019-11-06T10:28:19Z</time>
      </trkpt>
      <trkpt lat="44.18753" lon="2.05966">
        <ele>273</ele>
        <time>2019-11-06T10:29:03Z</time>
      </trkpt>
      <trkpt lat="44.18754" lon="2.06038">
        <ele>269</ele>
        <time>2019-11-06T10:29:44Z</time>
      </trkpt>
      <trkpt lat="44.1875" lon="2.06064">
        <ele>269</ele>
        <time>2019-11-06T10:29:59Z</time>
      </trkpt>
      <trkpt lat="44.18725" lon="2.06153">
        <ele>267</ele>
        <time>2019-11-06T10:30:54Z</time>
      </trkpt>
      <trkpt lat="44.18705" lon="2.06172">
        <ele>272</ele>
        <time>2019-11-06T10:31:14Z</time>
      </trkpt>
      <trkpt lat="44.18695" lon="2.06196">
        <ele>274</ele>
        <time>2019-11-06T10:31:30Z</time>
      </trkpt>
      <trkpt lat="44.18692" lon="2.06211">
        <ele>274</ele>
        <time>2019-11-06T10:31:39Z</time>
      </trkpt>
      <trkpt lat="44.18695" lon="2.06228">
        <ele>272</ele>
        <time>2019-11-06T10:31:49Z</time>
      </trkpt>
      <trkpt lat="44.18718" lon="2.06261">
        <ele>265</ele>
        <time>2019-11-06T10:32:15Z</time>
      </trkpt>
      <trkpt lat="44.18735" lon="2.06296">
        <ele>264</ele>
        <time>2019-11-06T10:32:39Z</time>
      </trkpt>
      <trkpt lat="44.1875" lon="2.06388">
        <ele>270</ele>
        <time>2019-11-06T10:33:33Z</time>
      </trkpt>
      <trkpt lat="44.18765" lon="2.06416">
        <ele>267</ele>
        <time>2019-11-06T10:33:54Z</time>
      </trkpt>
      <trkpt lat="44.18781" lon="2.06504">
        <ele>272</ele>
        <time>2019-11-06T10:34:46Z</time>
      </trkpt>
      <trkpt lat="44.18793" lon="2.06548">
        <ele>271</ele>
        <time>2019-11-06T10:35:13Z</time>
      </trkpt>
      <trkpt lat="44.18798" lon="2.06585">
        <ele>272</ele>
        <time>2019-11-06T10:35:34Z</time>
      </trkpt>
      <trkpt lat="44.18799" lon="2.0662">
        <ele>271</ele>
        <time>2019-11-06T10:35:54Z</time>
      </trkpt>
      <trkpt lat="44.1879" lon="2.06679">
        <ele>268</ele>
        <time>2019-11-06T10:36:29Z</time>
      </trkpt>
      <trkpt lat="44.18785" lon="2.06686">
        <ele>268</ele>
        <time>2019-11-06T10:36:35Z</time>
      </trkpt>
      <trkpt lat="44.18774" lon="2.06689">
        <ele>268</ele>
        <time>2019-11-06T10:36:44Z</time>
      </trkpt>
      <trkpt lat="44.18725" lon="2.06669">
        <ele>278</ele>
        <time>2019-11-06T10:37:25Z</time>
      </trkpt>
      <trkpt lat="44.18709" lon="2.06668">
        <ele>279</ele>
        <time>2019-11-06T10:37:37Z</time>
      </trkpt>
      <trkpt lat="44.18687" lon="2.0667">
        <ele>280</ele>
        <time>2019-11-06T10:37:55Z</time>
      </trkpt>
      <trkpt lat="44.18661" lon="2.06677">
        <ele>277</ele>
        <time>2019-11-06T10:38:16Z</time>
      </trkpt>
      <trkpt lat="44.18654" lon="2.0668">
        <ele>276</ele>
        <time>2019-11-06T10:38:22Z</time>
      </trkpt>
      <trkpt lat="44.18644" lon="2.06689">
        <ele>271</ele>
        <time>2019-11-06T10:38:32Z</time>
      </trkpt>
      <trkpt lat="44.18634" lon="2.06692">
        <ele>269</ele>
        <time>2019-11-06T10:38:40Z</time>
      </trkpt>
      <trkpt lat="44.18628" lon="2.06689">
        <ele>270</ele>
        <time>2019-11-06T10:38:45Z</time>
      </trkpt>
      <trkpt lat="44.1861" lon="2.06671">
        <ele>278</ele>
        <time>2019-11-06T10:39:03Z</time>
      </trkpt>
      <trkpt lat="44.18599" lon="2.06665">
        <ele>280</ele>
        <time>2019-11-06T10:39:12Z</time>
      </trkpt>
      <trkpt lat="44.18576" lon="2.0666">
        <ele>280</ele>
        <time>2019-11-06T10:39:31Z</time>
      </trkpt>
      <trkpt lat="44.18549" lon="2.06663">
        <ele>276</ele>
        <time>2019-11-06T10:39:52Z</time>
      </trkpt>
      <trkpt lat="44.18524" lon="2.06671">
        <ele>269</ele>
        <time>2019-11-06T10:40:13Z</time>
      </trkpt>
      <trkpt lat="44.18503" lon="2.06682">
        <ele>263</ele>
        <time>2019-11-06T10:40:31Z</time>
      </trkpt>
      <trkpt lat="44.18493" lon="2.06683">
        <ele>262</ele>
        <time>2019-11-06T10:40:39Z</time>
      </trkpt>
      <trkpt lat="44.18439" lon="2.06674">
        <ele>261</ele>
        <time>2019-11-06T10:41:23Z</time>
      </trkpt>
      <trkpt lat="44.18396" lon="2.06654">
        <ele>269</ele>
        <time>2019-11-06T10:41:59Z</time>
      </trkpt>
      <trkpt lat="44.1838" lon="2.06653">
        <ele>272</ele>
        <time>2019-11-06T10:42:12Z</time>
      </trkpt>
      <trkpt lat="44.18374" lon="2.06656">
        <ele>272</ele>
        <time>2019-11-06T10:42:17Z</time>
      </trkpt>
      <trkpt lat="44.18367" lon="2.06665">
        <ele>269</ele>
        <time>2019-11-06T10:42:24Z</time>
      </trkpt>
      <trkpt lat="44.18354" lon="2.06697">
        <ele>260</ele>
        <time>2019-11-06T10:42:45Z</time>
      </trkpt>
      <trkpt lat="44.18349" lon="2.06703">
        <ele>258</ele>
        <time>2019-11-06T10:42:51Z</time>
      </trkpt>
      <trkpt lat="44.18336" lon="2.06708">
        <ele>258</ele>
        <time>2019-11-06T10:43:02Z</time>
      </trkpt>
      <trkpt lat="44.18317" lon="2.06709">
        <ele>261</ele>
        <time>2019-11-06T10:43:17Z</time>
      </trkpt>
      <trkpt lat="44.18306" lon="2.06712">
        <ele>262</ele>
        <time>2019-11-06T10:43:26Z</time>
      </trkpt>
      <trkpt lat="44.18284" lon="2.06725">
        <ele>262</ele>
        <time>2019-11-06T10:43:45Z</time>
      </trkpt>
      <trkpt lat="44.18257" lon="2.06748">
        <ele>259</ele>
        <time>2019-11-06T10:44:10Z</time>
      </trkpt>
      <trkpt lat="44.18223" lon="2.06782">
        <ele>255</ele>
        <time>2019-11-06T10:44:44Z</time>
      </trkpt>
      <trkpt lat="44.18219" lon="2.06789">
        <ele>253</ele>
        <time>2019-11-06T10:44:49Z</time>
      </trkpt>
      <trkpt lat="44.18219" lon="2.06795">
        <ele>252</ele>
        <time>2019-11-06T10:44:52Z</time>
      </trkpt>
      <trkpt lat="44.18223" lon="2.068">
        <ele>250</ele>
        <time>2019-11-06T10:44:57Z</time>
      </trkpt>
      <trkpt lat="44.18223" lon="2.06807">
        <ele>248</ele>
        <time>2019-11-06T10:45:01Z</time>
      </trkpt>
      <trkpt lat="44.18185" lon="2.06816">
        <ele>252</ele>
        <time>2019-11-06T10:45:31Z</time>
      </trkpt>
      <trkpt lat="44.18173" lon="2.06826">
        <ele>252</ele>
        <time>2019-11-06T10:45:43Z</time>
      </trkpt>
      <trkpt lat="44.18167" lon="2.06843">
        <ele>250</ele>
        <time>2019-11-06T10:45:54Z</time>
      </trkpt>
      <trkpt lat="44.18162" lon="2.06873">
        <ele>248</ele>
        <time>2019-11-06T10:46:11Z</time>
      </trkpt>
      <trkpt lat="44.18159" lon="2.06916">
        <ele>243</ele>
        <time>2019-11-06T10:46:36Z</time>
      </trkpt>
      <trkpt lat="44.18153" lon="2.07055">
        <ele>243</ele>
        <time>2019-11-06T10:47:56Z</time>
      </trkpt>
      <trkpt lat="44.18156" lon="2.07106">
        <ele>240</ele>
        <time>2019-11-06T10:48:25Z</time>
      </trkpt>
      <trkpt lat="44.18154" lon="2.07117">
        <ele>241</ele>
        <time>2019-11-06T10:48:32Z</time>
      </trkpt>
      <trkpt lat="44.18148" lon="2.07129">
        <ele>243</ele>
        <time>2019-11-06T10:48:40Z</time>
      </trkpt>
      <trkpt lat="44.18138" lon="2.07138">
        <ele>247</ele>
        <time>2019-11-06T10:48:50Z</time>
      </trkpt>
      <trkpt lat="44.18133" lon="2.07148">
        <ele>248</ele>
        <time>2019-11-06T10:48:57Z</time>
      </trkpt>
      <trkpt lat="44.18138" lon="2.0716">
        <ele>246</ele>
        <time>2019-11-06T10:49:05Z</time>
      </trkpt>
      <trkpt lat="44.1817" lon="2.07182">
        <ele>233</ele>
        <time>2019-11-06T10:49:33Z</time>
      </trkpt>
      <trkpt lat="44.18186" lon="2.07201">
        <ele>226</ele>
        <time>2019-11-06T10:49:50Z</time>
      </trkpt>
      <trkpt lat="44.18192" lon="2.07222">
        <ele>223</ele>
        <time>2019-11-06T10:50:03Z</time>
      </trkpt>
      <trkpt lat="44.1819" lon="2.07258">
        <ele>222</ele>
        <time>2019-11-06T10:50:24Z</time>
      </trkpt>
      <trkpt lat="44.18185" lon="2.0729">
        <ele>219</ele>
        <time>2019-11-06T10:50:43Z</time>
      </trkpt>
      <trkpt lat="44.1818" lon="2.07318">
        <ele>216</ele>
        <time>2019-11-06T10:50:59Z</time>
      </trkpt>
      <trkpt lat="44.18169" lon="2.07355">
        <ele>213</ele>
        <time>2019-11-06T10:51:22Z</time>
      </trkpt>
      <trkpt lat="44.18165" lon="2.07368">
        <ele>211</ele>
        <time>2019-11-06T10:51:30Z</time>
      </trkpt>
      <trkpt lat="44.18158" lon="2.0738">
        <ele>211</ele>
        <time>2019-11-06T10:51:39Z</time>
      </trkpt>
      <trkpt lat="44.1815" lon="2.07389">
        <ele>211</ele>
        <time>2019-11-06T10:51:48Z</time>
      </trkpt>
      <trkpt lat="44.18139" lon="2.07396">
        <ele>212</ele>
        <time>2019-11-06T10:51:57Z</time>
      </trkpt>
      <trkpt lat="44.18123" lon="2.07404">
        <ele>215</ele>
        <time>2019-11-06T10:52:11Z</time>
      </trkpt>
      <trkpt lat="44.18102" lon="2.0741">
        <ele>219</ele>
        <time>2019-11-06T10:52:28Z</time>
      </trkpt>
      <trkpt lat="44.18096" lon="2.07415">
        <ele>219</ele>
        <time>2019-11-06T10:52:34Z</time>
      </trkpt>
      <trkpt lat="44.18094" lon="2.07424">
        <ele>218</ele>
        <time>2019-11-06T10:52:39Z</time>
      </trkpt>
      <trkpt lat="44.181" lon="2.07438">
        <ele>215</ele>
        <time>2019-11-06T10:52:48Z</time>
      </trkpt>
      <trkpt lat="44.18111" lon="2.07449">
        <ele>210</ele>
        <time>2019-11-06T10:52:59Z</time>
      </trkpt>
      <trkpt lat="44.1813" lon="2.07462">
        <ele>203</ele>
        <time>2019-11-06T10:53:16Z</time>
      </trkpt>
      <trkpt lat="44.1814" lon="2.07474">
        <ele>199</ele>
        <time>2019-11-06T10:53:27Z</time>
      </trkpt>
      <trkpt lat="44.18142" lon="2.07487">
        <ele>197</ele>
        <time>2019-11-06T10:53:34Z</time>
      </trkpt>
      <trkpt lat="44.18136" lon="2.0752">
        <ele>195</ele>
        <time>2019-11-06T10:53:54Z</time>
      </trkpt>
      <trkpt lat="44.18082" lon="2.07591">
        <ele>201</ele>
        <time>2019-11-06T10:54:53Z</time>
      </trkpt>
      <trkpt lat="44.18057" lon="2.07628">
        <ele>204</ele>
        <time>2019-11-06T10:55:23Z</time>
      </trkpt>
      <trkpt lat="44.18009" lon="2.07727">
        <ele>207</ele>
        <time>2019-11-06T10:56:31Z</time>
      </trkpt>
      <trkpt lat="44.17995" lon="2.07771">
        <ele>206</ele>
        <time>2019-11-06T10:56:59Z</time>
      </trkpt>
      <trkpt lat="44.1799" lon="2.07798">
        <ele>205</ele>
        <time>2019-11-06T10:57:15Z</time>
      </trkpt>
      <trkpt lat="44.17981" lon="2.07884">
        <ele>204</ele>
        <time>2019-11-06T10:58:05Z</time>
      </trkpt>
      <trkpt lat="44.17977" lon="2.07989">
        <ele>202</ele>
        <time>2019-11-06T10:59:05Z</time>
      </trkpt>
      <trkpt lat="44.1797" lon="2.08012">
        <ele>206</ele>
        <time>2019-11-06T10:59:19Z</time>
      </trkpt>
      <trkpt lat="44.17977" lon="2.08074">
        <ele>204</ele>
        <time>2019-11-06T10:59:55Z</time>
      </trkpt>
      <trkpt lat="44.17995" lon="2.08134">
        <ele>199</ele>
        <time>2019-11-06T11:00:33Z</time>
      </trkpt>
      <trkpt lat="44.18039" lon="2.08208">
        <ele>198</ele>
        <time>2019-11-06T11:01:28Z</time>
      </trkpt>
      <trkpt lat="44.18091" lon="2.08304">
        <ele>202</ele>
        <time>2019-11-06T11:02:37Z</time>
      </trkpt>
      <trkpt lat="44.18114" lon="2.08327">
        <ele>202</ele>
        <time>2019-11-06T11:03:00Z</time>
      </trkpt>
      <trkpt lat="44.18165" lon="2.08351">
        <ele>192</ele>
        <time>2019-11-06T11:03:43Z</time>
      </trkpt>
      <trkpt lat="44.18169" lon="2.08364">
        <ele>194</ele>
        <time>2019-11-06T11:03:51Z</time>
      </trkpt>
      <trkpt lat="44.18175" lon="2.08369">
        <ele>195</ele>
        <time>2019-11-06T11:03:57Z</time>
      </trkpt>
      <trkpt lat="44.18222" lon="2.08399">
        <ele>196</ele>
        <time>2019-11-06T11:04:38Z</time>
      </trkpt>
      <trkpt lat="44.18236" lon="2.08403">
        <ele>195</ele>
        <time>2019-11-06T11:04:49Z</time>
      </trkpt>
      <trkpt lat="44.18263" lon="2.08416">
        <ele>195</ele>
        <time>2019-11-06T11:05:12Z</time>
      </trkpt>
      <trkpt lat="44.18329" lon="2.08492">
        <ele>202</ele>
        <time>2019-11-06T11:06:21Z</time>
      </trkpt>
      <trkpt lat="44.18352" lon="2.08521">
        <ele>206</ele>
        <time>2019-11-06T11:06:46Z</time>
      </trkpt>
      <trkpt lat="44.18364" lon="2.08542">
        <ele>210</ele>
        <time>2019-11-06T11:07:01Z</time>
      </trkpt>
      <trkpt lat="44.18377" lon="2.0855">
        <ele>208</ele>
        <time>2019-11-06T11:07:12Z</time>
      </trkpt>
      <trkpt lat="44.18413" lon="2.08581">
        <ele>202</ele>
        <time>2019-11-06T11:07:46Z</time>
      </trkpt>
      <trkpt lat="44.18446" lon="2.08614">
        <ele>201</ele>
        <time>2019-11-06T11:08:19Z</time>
      </trkpt>
      <trkpt lat="44.18461" lon="2.08634">
        <ele>200</ele>
        <time>2019-11-06T11:08:35Z</time>
      </trkpt>
      <trkpt lat="44.18499" lon="2.08673">
        <ele>192</ele>
        <time>2019-11-06T11:09:13Z</time>
      </trkpt>
      <trkpt lat="44.18503" lon="2.08674">
        <ele>191</ele>
        <time>2019-11-06T11:09:16Z</time>
      </trkpt>
      <trkpt lat="44.18502" lon="2.08668">
        <ele>190</ele>
        <time>2019-11-06T11:09:20Z</time>
      </trkpt>
      <trkpt lat="44.1852" lon="2.08687">
        <ele>192</ele>
        <time>2019-11-06T11:09:38Z</time>
      </trkpt>
      <trkpt lat="44.1853" lon="2.08707">
        <ele>194</ele>
        <time>2019-11-06T11:09:52Z</time>
      </trkpt>
      <trkpt lat="44.1854" lon="2.08765">
        <ele>200</ele>
        <time>2019-11-06T11:10:26Z</time>
      </trkpt>
      <trkpt lat="44.18543" lon="2.088">
        <ele>204</ele>
        <time>2019-11-06T11:10:47Z</time>
      </trkpt>
      <trkpt lat="44.18549" lon="2.08941">
        <ele>221</ele>
        <time>2019-11-06T11:12:08Z</time>
      </trkpt>
      <trkpt lat="44.18549" lon="2.09011">
        <ele>233</ele>
        <time>2019-11-06T11:12:48Z</time>
      </trkpt>
      <trkpt lat="44.18557" lon="2.0904">
        <ele>232</ele>
        <time>2019-11-06T11:13:06Z</time>
      </trkpt>
      <trkpt lat="44.18569" lon="2.09124">
        <ele>233</ele>
        <time>2019-11-06T11:13:55Z</time>
      </trkpt>
      <trkpt lat="44.18574" lon="2.09187">
        <ele>233</ele>
        <time>2019-11-06T11:14:31Z</time>
      </trkpt>
      <trkpt lat="44.18573" lon="2.09213">
        <ele>232</ele>
        <time>2019-11-06T11:14:46Z</time>
      </trkpt>
      <trkpt lat="44.18567" lon="2.09228">
        <ele>233</ele>
        <time>2019-11-06T11:14:56Z</time>
      </trkpt>
      <trkpt lat="44.18559" lon="2.09238">
        <ele>235</ele>
        <time>2019-11-06T11:15:05Z</time>
      </trkpt>
      <trkpt lat="44.18549" lon="2.09244">
        <ele>236</ele>
        <time>2019-11-06T11:15:13Z</time>
      </trkpt>
      <trkpt lat="44.18519" lon="2.09247">
        <ele>242</ele>
        <time>2019-11-06T11:15:37Z</time>
      </trkpt>
      <trkpt lat="44.18504" lon="2.09246">
        <ele>245</ele>
        <time>2019-11-06T11:15:49Z</time>
      </trkpt>
      <trkpt lat="44.18468" lon="2.09237">
        <ele>252</ele>
        <time>2019-11-06T11:16:19Z</time>
      </trkpt>
      <trkpt lat="44.18434" lon="2.09232">
        <ele>257</ele>
        <time>2019-11-06T11:16:46Z</time>
      </trkpt>
      <trkpt lat="44.18415" lon="2.09231">
        <ele>260</ele>
        <time>2019-11-06T11:17:01Z</time>
      </trkpt>
      <trkpt lat="44.18401" lon="2.09233">
        <ele>263</ele>
        <time>2019-11-06T11:17:13Z</time>
      </trkpt>
      <trkpt lat="44.18391" lon="2.09236">
        <ele>264</ele>
        <time>2019-11-06T11:17:21Z</time>
      </trkpt>
      <trkpt lat="44.18295" lon="2.09285">
        <ele>270</ele>
        <time>2019-11-06T11:18:43Z</time>
      </trkpt>
      <trkpt lat="44.1828" lon="2.09297">
        <ele>271</ele>
        <time>2019-11-06T11:18:57Z</time>
      </trkpt>
      <trkpt lat="44.18249" lon="2.0933">
        <ele>270</ele>
        <time>2019-11-06T11:19:28Z</time>
      </trkpt>
      <trkpt lat="44.18211" lon="2.09365">
        <ele>276</ele>
        <time>2019-11-06T11:20:04Z</time>
      </trkpt>
      <trkpt lat="44.18197" lon="2.09382">
        <ele>278</ele>
        <time>2019-11-06T11:20:19Z</time>
      </trkpt>
      <trkpt lat="44.18177" lon="2.0943">
        <ele>274</ele>
        <time>2019-11-06T11:20:51Z</time>
      </trkpt>
      <trkpt lat="44.1814" lon="2.09318">
        <ele>312</ele>
        <time>2019-11-06T11:22:02Z</time>
      </trkpt>
      <trkpt lat="44.18127" lon="2.09286">
        <ele>324</ele>
        <time>2019-11-06T11:22:23Z</time>
      </trkpt>
      <trkpt lat="44.18098" lon="2.0923">
        <ele>348</ele>
        <time>2019-11-06T11:23:03Z</time>
      </trkpt>
      <trkpt lat="44.1807" lon="2.09236">
        <ele>348</ele>
        <time>2019-11-06T11:23:25Z</time>
      </trkpt>
      <trkpt lat="44.18039" lon="2.09235">
        <ele>345</ele>
        <time>2019-11-06T11:23:50Z</time>
      </trkpt>
      <trkpt lat="44.18011" lon="2.09223">
        <ele>346</ele>
        <time>2019-11-06T11:24:13Z</time>
      </trkpt>
      <trkpt lat="44.17966" lon="2.09185">
        <ele>351</ele>
        <time>2019-11-06T11:24:56Z</time>
      </trkpt>
      <trkpt lat="44.17947" lon="2.09161">
        <ele>355</ele>
        <time>2019-11-06T11:25:16Z</time>
      </trkpt>
      <trkpt lat="44.17928" lon="2.09107">
        <ele>363</ele>
        <time>2019-11-06T11:25:51Z</time>
      </trkpt>
      <trkpt lat="44.179" lon="2.09054">
        <ele>368</ele>
        <time>2019-11-06T11:26:28Z</time>
      </trkpt>
      <trkpt lat="44.17868" lon="2.08984">
        <ele>377</ele>
        <time>2019-11-06T11:27:16Z</time>
      </trkpt>
      <trkpt lat="44.17828" lon="2.0893">
        <ele>380</ele>
        <time>2019-11-06T11:28:01Z</time>
      </trkpt>
      <trkpt lat="44.17811" lon="2.08913">
        <ele>383</ele>
        <time>2019-11-06T11:28:17Z</time>
      </trkpt>
      <trkpt lat="44.1775" lon="2.08883">
        <ele>387</ele>
        <time>2019-11-06T11:29:09Z</time>
      </trkpt>
      <trkpt lat="44.17723" lon="2.08885">
        <ele>388</ele>
        <time>2019-11-06T11:29:31Z</time>
      </trkpt>
      <trkpt lat="44.17684" lon="2.08893">
        <ele>388</ele>
        <time>2019-11-06T11:30:02Z</time>
      </trkpt>
      <trkpt lat="44.17645" lon="2.08887">
        <ele>391</ele>
        <time>2019-11-06T11:30:34Z</time>
      </trkpt>
      <trkpt lat="44.17609" lon="2.08887">
        <ele>393</ele>
        <time>2019-11-06T11:31:03Z</time>
      </trkpt>
      <trkpt lat="44.17592" lon="2.08882">
        <ele>395</ele>
        <time>2019-11-06T11:31:17Z</time>
      </trkpt>
      <trkpt lat="44.1756" lon="2.08886">
        <ele>395</ele>
        <time>2019-11-06T11:31:42Z</time>
      </trkpt>
      <trkpt lat="44.1753" lon="2.08898">
        <ele>394</ele>
        <time>2019-11-06T11:32:07Z</time>
      </trkpt>
      <trkpt lat="44.17393" lon="2.0892">
        <ele>394</ele>
        <time>2019-11-06T11:33:58Z</time>
      </trkpt>
      <trkpt lat="44.17367" lon="2.0893">
        <ele>395</ele>
        <time>2019-11-06T11:34:19Z</time>
      </trkpt>
      <trkpt lat="44.17349" lon="2.08944">
        <ele>394</ele>
        <time>2019-11-06T11:34:36Z</time>
      </trkpt>
      <trkpt lat="44.17333" lon="2.08966">
        <ele>392</ele>
        <time>2019-11-06T11:34:54Z</time>
      </trkpt>
      <trkpt lat="44.17317" lon="2.08975">
        <ele>392</ele>
        <time>2019-11-06T11:35:08Z</time>
      </trkpt>
      <trkpt lat="44.17285" lon="2.08984">
        <ele>395</ele>
        <time>2019-11-06T11:35:34Z</time>
      </trkpt>
      <trkpt lat="44.17256" lon="2.09004">
        <ele>396</ele>
        <time>2019-11-06T11:36:00Z</time>
      </trkpt>
      <trkpt lat="44.17227" lon="2.09035">
        <ele>398</ele>
        <time>2019-11-06T11:36:29Z</time>
      </trkpt>
      <trkpt lat="44.17216" lon="2.0905">
        <ele>399</ele>
        <time>2019-11-06T11:36:41Z</time>
      </trkpt>
      <trkpt lat="44.17196" lon="2.09102">
        <ele>395</ele>
        <time>2019-11-06T11:37:15Z</time>
      </trkpt>
      <trkpt lat="44.17181" lon="2.09121">
        <ele>395</ele>
        <time>2019-11-06T11:37:31Z</time>
      </trkpt>
      <trkpt lat="44.17176" lon="2.09124">
        <ele>396</ele>
        <time>2019-11-06T11:37:36Z</time>
      </trkpt>
      <trkpt lat="44.17131" lon="2.09207">
        <ele>393</ele>
        <time>2019-11-06T11:38:36Z</time>
      </trkpt>
      <trkpt lat="44.17088" lon="2.09403">
        <ele>374</ele>
        <time>2019-11-06T11:40:33Z</time>
      </trkpt>
      <trkpt lat="44.17081" lon="2.09463">
        <ele>369</ele>
        <time>2019-11-06T11:41:08Z</time>
      </trkpt>
      <trkpt lat="44.17084" lon="2.09474">
        <ele>366</ele>
        <time>2019-11-06T11:41:15Z</time>
      </trkpt>
      <trkpt lat="44.17089" lon="2.09478">
        <ele>364</ele>
        <time>2019-11-06T11:41:20Z</time>
      </trkpt>
      <trkpt lat="44.17095" lon="2.09477">
        <ele>362</ele>
        <time>2019-11-06T11:41:24Z</time>
      </trkpt>
      <trkpt lat="44.17114" lon="2.0946">
        <ele>357</ele>
        <time>2019-11-06T11:41:42Z</time>
      </trkpt>
      <trkpt lat="44.17119" lon="2.09461">
        <ele>356</ele>
        <time>2019-11-06T11:41:46Z</time>
      </trkpt>
      <trkpt lat="44.17122" lon="2.09467">
        <ele>354</ele>
        <time>2019-11-06T11:41:51Z</time>
      </trkpt>
      <trkpt lat="44.17124" lon="2.09491">
        <ele>350</ele>
        <time>2019-11-06T11:42:05Z</time>
      </trkpt>
      <trkpt lat="44.17118" lon="2.09554">
        <ele>350</ele>
        <time>2019-11-06T11:42:41Z</time>
      </trkpt>
      <trkpt lat="44.17119" lon="2.09577">
        <ele>349</ele>
        <time>2019-11-06T11:42:54Z</time>
      </trkpt>
      <trkpt lat="44.17127" lon="2.09617">
        <ele>349</ele>
        <time>2019-11-06T11:43:18Z</time>
      </trkpt>
      <trkpt lat="44.17216" lon="2.09878">
        <ele>341</ele>
        <time>2019-11-06T11:46:04Z</time>
      </trkpt>
      <trkpt lat="44.17232" lon="2.09913">
        <ele>341</ele>
        <time>2019-11-06T11:46:28Z</time>
      </trkpt>
      <trkpt lat="44.17246" lon="2.09933">
        <ele>338</ele>
        <time>2019-11-06T11:46:44Z</time>
      </trkpt>
      <trkpt lat="44.17268" lon="2.09978">
        <ele>339</ele>
        <time>2019-11-06T11:47:15Z</time>
      </trkpt>
      <trkpt lat="44.17293" lon="2.10053">
        <ele>343</ele>
        <time>2019-11-06T11:48:03Z</time>
      </trkpt>
      <trkpt lat="44.17303" lon="2.10078">
        <ele>344</ele>
        <time>2019-11-06T11:48:19Z</time>
      </trkpt>
      <trkpt lat="44.17308" lon="2.10084">
        <ele>343</ele>
        <time>2019-11-06T11:48:24Z</time>
      </trkpt>
      <trkpt lat="44.17351" lon="2.10125">
        <ele>339</ele>
        <time>2019-11-06T11:49:06Z</time>
      </trkpt>
      <trkpt lat="44.17382" lon="2.1016">
        <ele>342</ele>
        <time>2019-11-06T11:49:38Z</time>
      </trkpt>
      <trkpt lat="44.17407" lon="2.10182">
        <ele>344</ele>
        <time>2019-11-06T11:50:02Z</time>
      </trkpt>
      <trkpt lat="44.17453" lon="2.10204">
        <ele>341</ele>
        <time>2019-11-06T11:50:41Z</time>
      </trkpt>
      <trkpt lat="44.17491" lon="2.1023">
        <ele>340</ele>
        <time>2019-11-06T11:51:15Z</time>
      </trkpt>
      <trkpt lat="44.17503" lon="2.10232">
        <ele>338</ele>
        <time>2019-11-06T11:51:24Z</time>
      </trkpt>
      <trkpt lat="44.17519" lon="2.10229">
        <ele>334</ele>
        <time>2019-11-06T11:51:37Z</time>
      </trkpt>
      <trkpt lat="44.17553" lon="2.10217">
        <ele>326</ele>
        <time>2019-11-06T11:52:05Z</time>
      </trkpt>
      <trkpt lat="44.17568" lon="2.10217">
        <ele>324</ele>
        <time>2019-11-06T11:52:17Z</time>
      </trkpt>
      <trkpt lat="44.17585" lon="2.10222">
        <ele>322</ele>
        <time>2019-11-06T11:52:31Z</time>
      </trkpt>
      <trkpt lat="44.17634" lon="2.10266">
        <ele>318</ele>
        <time>2019-11-06T11:53:18Z</time>
      </trkpt>
      <trkpt lat="44.17643" lon="2.10277">
        <ele>319</ele>
        <time>2019-11-06T11:53:27Z</time>
      </trkpt>
      <trkpt lat="44.17649" lon="2.10275">
        <ele>316</ele>
        <time>2019-11-06T11:53:32Z</time>
      </trkpt>
      <trkpt lat="44.1765" lon="2.10262">
        <ele>313</ele>
        <time>2019-11-06T11:53:40Z</time>
      </trkpt>
      <trkpt lat="44.1764" lon="2.10222">
        <ele>310</ele>
        <time>2019-11-06T11:54:04Z</time>
      </trkpt>
      <trkpt lat="44.17639" lon="2.10209">
        <ele>309</ele>
        <time>2019-11-06T11:54:12Z</time>
      </trkpt>
      <trkpt lat="44.1766" lon="2.10202">
        <ele>304</ele>
        <time>2019-11-06T11:54:29Z</time>
      </trkpt>
      <trkpt lat="44.17673" lon="2.10189">
        <ele>299</ele>
        <time>2019-11-06T11:54:42Z</time>
      </trkpt>
      <trkpt lat="44.17681" lon="2.10174">
        <ele>294</ele>
        <time>2019-11-06T11:54:53Z</time>
      </trkpt>
      <trkpt lat="44.17682" lon="2.10203">
        <ele>295</ele>
        <time>2019-11-06T11:55:09Z</time>
      </trkpt>
      <trkpt lat="44.17702" lon="2.10259">
        <ele>290</ele>
        <time>2019-11-06T11:55:45Z</time>
      </trkpt>
      <trkpt lat="44.17722" lon="2.10299">
        <ele>290</ele>
        <time>2019-11-06T11:56:13Z</time>
      </trkpt>
      <trkpt lat="44.17767" lon="2.10367">
        <ele>281</ele>
        <time>2019-11-06T11:57:06Z</time>
      </trkpt>
      <trkpt lat="44.17774" lon="2.10401">
        <ele>284</ele>
        <time>2019-11-06T11:57:27Z</time>
      </trkpt>
      <trkpt lat="44.17771" lon="2.10462">
        <ele>295</ele>
        <time>2019-11-06T11:58:02Z</time>
      </trkpt>
      <trkpt lat="44.17764" lon="2.10494">
        <ele>303</ele>
        <time>2019-11-06T11:58:21Z</time>
      </trkpt>
      <trkpt lat="44.17765" lon="2.1052">
        <ele>309</ele>
        <time>2019-11-06T11:58:36Z</time>
      </trkpt>
      <trkpt lat="44.1777" lon="2.10528">
        <ele>308</ele>
        <time>2019-11-06T11:58:42Z</time>
      </trkpt>
      <trkpt lat="44.17815" lon="2.10548">
        <ele>292</ele>
        <time>2019-11-06T11:59:20Z</time>
      </trkpt>
      <trkpt lat="44.17838" lon="2.10563">
        <ele>287</ele>
        <time>2019-11-06T11:59:40Z</time>
      </trkpt>
      <trkpt lat="44.17857" lon="2.10579">
        <ele>285</ele>
        <time>2019-11-06T11:59:58Z</time>
      </trkpt>
      <trkpt lat="44.17887" lon="2.10612">
        <ele>286</ele>
        <time>2019-11-06T12:00:28Z</time>
      </trkpt>
      <trkpt lat="44.17904" lon="2.10638">
        <ele>288</ele>
        <time>2019-11-06T12:00:49Z</time>
      </trkpt>
      <trkpt lat="44.1795" lon="2.10694">
        <ele>283</ele>
        <time>2019-11-06T12:01:38Z</time>
      </trkpt>
      <trkpt lat="44.17957" lon="2.10715">
        <ele>286</ele>
        <time>2019-11-06T12:01:51Z</time>
      </trkpt>
      <trkpt lat="44.17973" lon="2.10792">
        <ele>301</ele>
        <time>2019-11-06T12:02:37Z</time>
      </trkpt>
      <trkpt lat="44.17984" lon="2.10831">
        <ele>306</ele>
        <time>2019-11-06T12:03:01Z</time>
      </trkpt>
      <trkpt lat="44.17995" lon="2.10863">
        <ele>306</ele>
        <time>2019-11-06T12:03:21Z</time>
      </trkpt>
      <trkpt lat="44.1802" lon="2.10915">
        <ele>304</ele>
        <time>2019-11-06T12:03:57Z</time>
      </trkpt>
      <trkpt lat="44.18025" lon="2.10944">
        <ele>307</ele>
        <time>2019-11-06T12:04:14Z</time>
      </trkpt>
      <trkpt lat="44.18019" lon="2.10982">
        <ele>316</ele>
        <time>2019-11-06T12:04:37Z</time>
      </trkpt>
      <trkpt lat="44.18017" lon="2.1106">
        <ele>335</ele>
        <time>2019-11-06T12:05:22Z</time>
      </trkpt>
      <trkpt lat="44.18019" lon="2.1108">
        <ele>340</ele>
        <time>2019-11-06T12:05:33Z</time>
      </trkpt>
      <trkpt lat="44.18024" lon="2.11093">
        <ele>342</ele>
        <time>2019-11-06T12:05:42Z</time>
      </trkpt>
      <trkpt lat="44.18038" lon="2.11083">
        <ele>336</ele>
        <time>2019-11-06T12:05:54Z</time>
      </trkpt>
      <trkpt lat="44.18063" lon="2.11073">
        <ele>326</ele>
        <time>2019-11-06T12:06:15Z</time>
      </trkpt>
      <trkpt lat="44.18091" lon="2.11072">
        <ele>320</ele>
        <time>2019-11-06T12:06:38Z</time>
      </trkpt>
      <trkpt lat="44.1815" lon="2.11103">
        <ele>324</ele>
        <time>2019-11-06T12:07:28Z</time>
      </trkpt>
      <trkpt lat="44.18179" lon="2.11134">
        <ele>329</ele>
        <time>2019-11-06T12:07:57Z</time>
      </trkpt>
      <trkpt lat="44.18226" lon="2.11208">
        <ele>343</ele>
        <time>2019-11-06T12:08:54Z</time>
      </trkpt>
      <trkpt lat="44.18239" lon="2.11217">
        <ele>343</ele>
        <time>2019-11-06T12:09:06Z</time>
      </trkpt>
      <trkpt lat="44.18246" lon="2.11225">
        <ele>345</ele>
        <time>2019-11-06T12:09:13Z</time>
      </trkpt>
      <trkpt lat="44.18252" lon="2.11227">
        <ele>345</ele>
        <time>2019-11-06T12:09:18Z</time>
      </trkpt>
      <trkpt lat="44.18258" lon="2.11228">
        <ele>345</ele>
        <time>2019-11-06T12:09:23Z</time>
      </trkpt>
      <trkpt lat="44.18269" lon="2.11214">
        <ele>340</ele>
        <time>2019-11-06T12:09:35Z</time>
      </trkpt>
      <trkpt lat="44.18282" lon="2.11178">
        <ele>326</ele>
        <time>2019-11-06T12:09:58Z</time>
      </trkpt>
      <trkpt lat="44.18288" lon="2.11168">
        <ele>323</ele>
        <time>2019-11-06T12:10:05Z</time>
      </trkpt>
      <trkpt lat="44.18297" lon="2.11164">
        <ele>321</ele>
        <time>2019-11-06T12:10:13Z</time>
      </trkpt>
      <trkpt lat="44.1831" lon="2.11168">
        <ele>322</ele>
        <time>2019-11-06T12:10:23Z</time>
      </trkpt>
      <trkpt lat="44.1837" lon="2.11226">
        <ele>336</ele>
        <time>2019-11-06T12:11:22Z</time>
      </trkpt>
      <trkpt lat="44.18415" lon="2.1128">
        <ele>341</ele>
        <time>2019-11-06T12:12:09Z</time>
      </trkpt>
      <trkpt lat="44.18432" lon="2.11297">
        <ele>345</ele>
        <time>2019-11-06T12:12:26Z</time>
      </trkpt>
      <trkpt lat="44.18451" lon="2.1131">
        <ele>346</ele>
        <time>2019-11-06T12:12:43Z</time>
      </trkpt>
      <trkpt lat="44.18471" lon="2.11315">
        <ele>343</ele>
        <time>2019-11-06T12:12:59Z</time>
      </trkpt>
      <trkpt lat="44.18484" lon="2.11312">
        <ele>341</ele>
        <time>2019-11-06T12:13:10Z</time>
      </trkpt>
      <trkpt lat="44.18497" lon="2.11298">
        <ele>338</ele>
        <time>2019-11-06T12:13:23Z</time>
      </trkpt>
      <trkpt lat="44.185" lon="2.1129">
        <ele>337</ele>
        <time>2019-11-06T12:13:28Z</time>
      </trkpt>
      <trkpt lat="44.1849" lon="2.1127">
        <ele>337</ele>
        <time>2019-11-06T12:13:42Z</time>
      </trkpt>
      <trkpt lat="44.18475" lon="2.11252">
        <ele>334</ele>
        <time>2019-11-06T12:13:58Z</time>
      </trkpt>
      <trkpt lat="44.18463" lon="2.11219">
        <ele>332</ele>
        <time>2019-11-06T12:14:19Z</time>
      </trkpt>
      <trkpt lat="44.18453" lon="2.11175">
        <ele>326</ele>
        <time>2019-11-06T12:14:46Z</time>
      </trkpt>
      <trkpt lat="44.18442" lon="2.11142">
        <ele>319</ele>
        <time>2019-11-06T12:15:07Z</time>
      </trkpt>
      <trkpt lat="44.18438" lon="2.11081">
        <ele>312</ele>
        <time>2019-11-06T12:15:42Z</time>
      </trkpt>
      <trkpt lat="44.18442" lon="2.11064">
        <ele>309</ele>
        <time>2019-11-06T12:15:52Z</time>
      </trkpt>
      <trkpt lat="44.18451" lon="2.11056">
        <ele>310</ele>
        <time>2019-11-06T12:16:01Z</time>
      </trkpt>
      <trkpt lat="44.18489" lon="2.11044">
        <ele>317</ele>
        <time>2019-11-06T12:16:32Z</time>
      </trkpt>
      <trkpt lat="44.18559" lon="2.11028">
        <ele>327</ele>
        <time>2019-11-06T12:17:29Z</time>
      </trkpt>
      <trkpt lat="44.18592" lon="2.11014">
        <ele>329</ele>
        <time>2019-11-06T12:17:56Z</time>
      </trkpt>
      <trkpt lat="44.18636" lon="2.1099">
        <ele>330</ele>
        <time>2019-11-06T12:18:34Z</time>
      </trkpt>
      <trkpt lat="44.18666" lon="2.10969">
        <ele>329</ele>
        <time>2019-11-06T12:19:01Z</time>
      </trkpt>
      <trkpt lat="44.18714" lon="2.10944">
        <ele>329</ele>
        <time>2019-11-06T12:19:42Z</time>
      </trkpt>
      <trkpt lat="44.18743" lon="2.10926">
        <ele>329</ele>
        <time>2019-11-06T12:20:07Z</time>
      </trkpt>
      <trkpt lat="44.18779" lon="2.10915">
        <ele>328</ele>
        <time>2019-11-06T12:20:37Z</time>
      </trkpt>
      <trkpt lat="44.188" lon="2.10912">
        <ele>328</ele>
        <time>2019-11-06T12:20:54Z</time>
      </trkpt>
      <trkpt lat="44.18828" lon="2.10914">
        <ele>330</ele>
        <time>2019-11-06T12:21:16Z</time>
      </trkpt>
      <trkpt lat="44.1884" lon="2.1092">
        <ele>334</ele>
        <time>2019-11-06T12:21:27Z</time>
      </trkpt>
      <trkpt lat="44.18849" lon="2.10915">
        <ele>334</ele>
        <time>2019-11-06T12:21:34Z</time>
      </trkpt>
      <trkpt lat="44.18879" lon="2.10861">
        <ele>322</ele>
        <time>2019-11-06T12:22:14Z</time>
      </trkpt>
      <trkpt lat="44.18894" lon="2.10847">
        <ele>320</ele>
        <time>2019-11-06T12:22:28Z</time>
      </trkpt>
      <trkpt lat="44.18927" lon="2.10839">
        <ele>323</ele>
        <time>2019-11-06T12:22:55Z</time>
      </trkpt>
      <trkpt lat="44.18953" lon="2.10837">
        <ele>324</ele>
        <time>2019-11-06T12:23:16Z</time>
      </trkpt>
      <trkpt lat="44.19007" lon="2.10853">
        <ele>335</ele>
        <time>2019-11-06T12:24:00Z</time>
      </trkpt>
      <trkpt lat="44.19037" lon="2.1087">
        <ele>340</ele>
        <time>2019-11-06T12:24:26Z</time>
      </trkpt>
      <trkpt lat="44.19066" lon="2.10873">
        <ele>340</ele>
        <time>2019-11-06T12:24:49Z</time>
      </trkpt>
      <trkpt lat="44.19093" lon="2.10867">
        <ele>338</ele>
        <time>2019-11-06T12:25:11Z</time>
      </trkpt>
      <trkpt lat="44.19122" lon="2.10872">
        <ele>342</ele>
        <time>2019-11-06T12:25:34Z</time>
      </trkpt>
      <trkpt lat="44.19164" lon="2.10874">
        <ele>346</ele>
        <time>2019-11-06T12:26:08Z</time>
      </trkpt>
      <trkpt lat="44.19194" lon="2.10869">
        <ele>347</ele>
        <time>2019-11-06T12:26:32Z</time>
      </trkpt>
      <trkpt lat="44.19219" lon="2.10857">
        <ele>346</ele>
        <time>2019-11-06T12:26:53Z</time>
      </trkpt>
      <trkpt lat="44.19244" lon="2.1084">
        <ele>345</ele>
        <time>2019-11-06T12:27:16Z</time>
      </trkpt>
      <trkpt lat="44.19256" lon="2.10837">
        <ele>342</ele>
        <time>2019-11-06T12:27:25Z</time>
      </trkpt>
      <trkpt lat="44.19268" lon="2.10838">
        <ele>335</ele>
        <time>2019-11-06T12:27:35Z</time>
      </trkpt>
      <trkpt lat="44.19275" lon="2.10847">
        <ele>333</ele>
        <time>2019-11-06T12:27:43Z</time>
      </trkpt>
      <trkpt lat="44.19281" lon="2.10888">
        <ele>338</ele>
        <time>2019-11-06T12:28:07Z</time>
      </trkpt>
      <trkpt lat="44.19278" lon="2.10917">
        <ele>345</ele>
        <time>2019-11-06T12:28:23Z</time>
      </trkpt>
      <trkpt lat="44.1928" lon="2.11002">
        <ele>356</ele>
        <time>2019-11-06T12:29:12Z</time>
      </trkpt>
      <trkpt lat="44.19295" lon="2.11028">
        <ele>347</ele>
        <time>2019-11-06T12:29:31Z</time>
      </trkpt>
      <trkpt lat="44.19307" lon="2.11055">
        <ele>342</ele>
        <time>2019-11-06T12:29:50Z</time>
      </trkpt>
      <trkpt lat="44.19311" lon="2.11093">
        <ele>343</ele>
        <time>2019-11-06T12:30:12Z</time>
      </trkpt>
      <trkpt lat="44.19307" lon="2.11123">
        <ele>349</ele>
        <time>2019-11-06T12:30:29Z</time>
      </trkpt>
      <trkpt lat="44.19301" lon="2.11144">
        <ele>355</ele>
        <time>2019-11-06T12:30:42Z</time>
      </trkpt>
      <trkpt lat="44.19304" lon="2.11175">
        <ele>356</ele>
        <time>2019-11-06T12:31:00Z</time>
      </trkpt>
      <trkpt lat="44.19326" lon="2.11212">
        <ele>345</ele>
        <time>2019-11-06T12:31:28Z</time>
      </trkpt>
      <trkpt lat="44.19329" lon="2.11223">
        <ele>344</ele>
        <time>2019-11-06T12:31:35Z</time>
      </trkpt>
      <trkpt lat="44.19328" lon="2.11244">
        <ele>346</ele>
        <time>2019-11-06T12:31:47Z</time>
      </trkpt>
      <trkpt lat="44.19334" lon="2.113">
        <ele>344</ele>
        <time>2019-11-06T12:32:19Z</time>
      </trkpt>
      <trkpt lat="44.1934" lon="2.11321">
        <ele>342</ele>
        <time>2019-11-06T12:32:32Z</time>
      </trkpt>
      <trkpt lat="44.19358" lon="2.11356">
        <ele>338</ele>
        <time>2019-11-06T12:32:57Z</time>
      </trkpt>
      <trkpt lat="44.19365" lon="2.11364">
        <ele>336</ele>
        <time>2019-11-06T12:33:04Z</time>
      </trkpt>
      <trkpt lat="44.19384" lon="2.11405">
        <ele>334</ele>
        <time>2019-11-06T12:33:32Z</time>
      </trkpt>
      <trkpt lat="44.19404" lon="2.11493">
        <ele>342</ele>
        <time>2019-11-06T12:34:25Z</time>
      </trkpt>
      <trkpt lat="44.19417" lon="2.11527">
        <ele>339</ele>
        <time>2019-11-06T12:34:47Z</time>
      </trkpt>
      <trkpt lat="44.19428" lon="2.11617">
        <ele>342</ele>
        <time>2019-11-06T12:35:40Z</time>
      </trkpt>
      <trkpt lat="44.19431" lon="2.11672">
        <ele>342</ele>
        <time>2019-11-06T12:36:11Z</time>
      </trkpt>
      <trkpt lat="44.19428" lon="2.11756">
        <ele>343</ele>
        <time>2019-11-06T12:37:00Z</time>
      </trkpt>
      <trkpt lat="44.19415" lon="2.11838">
        <ele>349</ele>
        <time>2019-11-06T12:37:48Z</time>
      </trkpt>
      <trkpt lat="44.19413" lon="2.11926">
        <ele>346</ele>
        <time>2019-11-06T12:38:38Z</time>
      </trkpt>
      <trkpt lat="44.19421" lon="2.11996">
        <ele>339</ele>
        <time>2019-11-06T12:39:19Z</time>
      </trkpt>
      <trkpt lat="44.19428" lon="2.12013">
        <ele>333</ele>
        <time>2019-11-06T12:39:30Z</time>
      </trkpt>
      <trkpt lat="44.1941" lon="2.12194">
        <ele>349</ele>
        <time>2019-11-06T12:41:15Z</time>
      </trkpt>
      <trkpt lat="44.19412" lon="2.12222">
        <ele>350</ele>
        <time>2019-11-06T12:41:31Z</time>
      </trkpt>
      <trkpt lat="44.19417" lon="2.12248">
        <ele>349</ele>
        <time>2019-11-06T12:41:47Z</time>
      </trkpt>
      <trkpt lat="44.19416" lon="2.123">
        <ele>349</ele>
        <time>2019-11-06T12:42:17Z</time>
      </trkpt>
      <trkpt lat="44.19418" lon="2.12343">
        <ele>346</ele>
        <time>2019-11-06T12:42:41Z</time>
      </trkpt>
      <trkpt lat="44.19413" lon="2.12377">
        <ele>345</ele>
        <time>2019-11-06T12:43:01Z</time>
      </trkpt>
      <trkpt lat="44.19403" lon="2.12401">
        <ele>347</ele>
        <time>2019-11-06T12:43:17Z</time>
      </trkpt>
      <trkpt lat="44.19393" lon="2.12412">
        <ele>351</ele>
        <time>2019-11-06T12:43:27Z</time>
      </trkpt>
      <trkpt lat="44.19381" lon="2.12431">
        <ele>356</ele>
        <time>2019-11-06T12:43:42Z</time>
      </trkpt>
      <trkpt lat="44.19368" lon="2.1246">
        <ele>360</ele>
        <time>2019-11-06T12:44:02Z</time>
      </trkpt>
      <trkpt lat="44.19371" lon="2.12532">
        <ele>357</ele>
        <time>2019-11-06T12:44:43Z</time>
      </trkpt>
      <trkpt lat="44.19375" lon="2.1257">
        <ele>355</ele>
        <time>2019-11-06T12:45:05Z</time>
      </trkpt>
      <trkpt lat="44.19388" lon="2.1261">
        <ele>342</ele>
        <time>2019-11-06T12:45:30Z</time>
      </trkpt>
      <trkpt lat="44.19386" lon="2.1265">
        <ele>340</ele>
        <time>2019-11-06T12:45:53Z</time>
      </trkpt>
      <trkpt lat="44.19375" lon="2.12698">
        <ele>342</ele>
        <time>2019-11-06T12:46:22Z</time>
      </trkpt>
      <trkpt lat="44.19351" lon="2.1277">
        <ele>345</ele>
        <time>2019-11-06T12:47:08Z</time>
      </trkpt>
      <trkpt lat="44.19331" lon="2.1284">
        <ele>347</ele>
        <time>2019-11-06T12:47:51Z</time>
      </trkpt>
      <trkpt lat="44.19311" lon="2.12893">
        <ele>359</ele>
        <time>2019-11-06T12:48:25Z</time>
      </trkpt>
      <trkpt lat="44.19305" lon="2.12902">
        <ele>362</ele>
        <time>2019-11-06T12:48:33Z</time>
      </trkpt>
      <trkpt lat="44.19309" lon="2.12909">
        <ele>360</ele>
        <time>2019-11-06T12:48:38Z</time>
      </trkpt>
      <trkpt lat="44.19349" lon="2.12927">
        <ele>343</ele>
        <time>2019-11-06T12:49:11Z</time>
      </trkpt>
      <trkpt lat="44.19382" lon="2.12951">
        <ele>336</ele>
        <time>2019-11-06T12:49:41Z</time>
      </trkpt>
      <trkpt lat="44.19392" lon="2.12962">
        <ele>335</ele>
        <time>2019-11-06T12:49:51Z</time>
      </trkpt>
      <trkpt lat="44.1942" lon="2.12971">
        <ele>325</ele>
        <time>2019-11-06T12:50:14Z</time>
      </trkpt>
      <trkpt lat="44.19427" lon="2.12982">
        <ele>323</ele>
        <time>2019-11-06T12:50:23Z</time>
      </trkpt>
      <trkpt lat="44.19439" lon="2.1302">
        <ele>327</ele>
        <time>2019-11-06T12:50:47Z</time>
      </trkpt>
      <trkpt lat="44.19459" lon="2.13069">
        <ele>327</ele>
        <time>2019-11-06T12:51:19Z</time>
      </trkpt>
      <trkpt lat="44.19464" lon="2.13109">
        <ele>334</ele>
        <time>2019-11-06T12:51:42Z</time>
      </trkpt>
      <trkpt lat="44.19469" lon="2.13121">
        <ele>333</ele>
        <time>2019-11-06T12:51:50Z</time>
      </trkpt>
      <trkpt lat="44.19533" lon="2.13209">
        <ele>322</ele>
        <time>2019-11-06T12:53:02Z</time>
      </trkpt>
      <trkpt lat="44.19562" lon="2.13259">
        <ele>328</ele>
        <time>2019-11-06T12:53:39Z</time>
      </trkpt>
      <trkpt lat="44.19589" lon="2.13284">
        <ele>327</ele>
        <time>2019-11-06T12:54:05Z</time>
      </trkpt>
      <trkpt lat="44.19612" lon="2.13301">
        <ele>325</ele>
        <time>2019-11-06T12:54:26Z</time>
      </trkpt>
      <trkpt lat="44.19669" lon="2.13363">
        <ele>325</ele>
        <time>2019-11-06T12:55:24Z</time>
      </trkpt>
      <trkpt lat="44.19678" lon="2.13382">
        <ele>331</ele>
        <time>2019-11-06T12:55:37Z</time>
      </trkpt>
      <trkpt lat="44.19684" lon="2.13408">
        <ele>340</ele>
        <time>2019-11-06T12:55:53Z</time>
      </trkpt>
      <trkpt lat="44.19717" lon="2.13424">
        <ele>338</ele>
        <time>2019-11-06T12:56:21Z</time>
      </trkpt>
      <trkpt lat="44.19768" lon="2.13437">
        <ele>331</ele>
        <time>2019-11-06T12:57:02Z</time>
      </trkpt>
      <trkpt lat="44.19781" lon="2.13447">
        <ele>332</ele>
        <time>2019-11-06T12:57:14Z</time>
      </trkpt>
      <trkpt lat="44.19799" lon="2.13487">
        <ele>342</ele>
        <time>2019-11-06T12:57:41Z</time>
      </trkpt>
      <trkpt lat="44.19824" lon="2.13527">
        <ele>346</ele>
        <time>2019-11-06T12:58:11Z</time>
      </trkpt>
      <trkpt lat="44.19852" lon="2.13543">
        <ele>338</ele>
        <time>2019-11-06T12:58:36Z</time>
      </trkpt>
      <trkpt lat="44.19846" lon="2.13546">
        <ele>341</ele>
        <time>2019-11-06T12:58:41Z</time>
      </trkpt>
      <trkpt lat="44.1983" lon="2.13565">
        <ele>352</ele>
        <time>2019-11-06T12:58:58Z</time>
      </trkpt>
      <trkpt lat="44.19794" lon="2.13689">
        <ele>364</ele>
        <time>2019-11-06T13:00:14Z</time>
      </trkpt>
      <trkpt lat="44.19781" lon="2.13759">
        <ele>364</ele>
        <time>2019-11-06T13:00:56Z</time>
      </trkpt>
      <trkpt lat="44.19773" lon="2.13826">
        <ele>366</ele>
        <time>2019-11-06T13:01:35Z</time>
      </trkpt>
      <trkpt lat="44.19788" lon="2.13889">
        <ele>358</ele>
        <time>2019-11-06T13:02:13Z</time>
      </trkpt>
      <trkpt lat="44.19792" lon="2.13948">
        <ele>361</ele>
        <time>2019-11-06T13:02:47Z</time>
      </trkpt>
      <trkpt lat="44.19795" lon="2.13958">
        <ele>360</ele>
        <time>2019-11-06T13:02:53Z</time>
      </trkpt>
      <trkpt lat="44.19812" lon="2.13979">
        <ele>350</ele>
        <time>2019-11-06T13:03:11Z</time>
      </trkpt>
      <trkpt lat="44.1982" lon="2.14053">
        <ele>358</ele>
        <time>2019-11-06T13:03:54Z</time>
      </trkpt>
      <trkpt lat="44.19839" lon="2.14091">
        <ele>355</ele>
        <time>2019-11-06T13:04:21Z</time>
      </trkpt>
      <trkpt lat="44.19868" lon="2.14117">
        <ele>350</ele>
        <time>2019-11-06T13:04:49Z</time>
      </trkpt>
      <trkpt lat="44.19903" lon="2.1413">
        <ele>338</ele>
        <time>2019-11-06T13:05:18Z</time>
      </trkpt>
      <trkpt lat="44.1996" lon="2.142">
        <ele>328</ele>
        <time>2019-11-06T13:06:18Z</time>
      </trkpt>
      <trkpt lat="44.1997" lon="2.14217">
        <ele>324</ele>
        <time>2019-11-06T13:06:31Z</time>
      </trkpt>
      <trkpt lat="44.19968" lon="2.14231">
        <ele>327</ele>
        <time>2019-11-06T13:06:39Z</time>
      </trkpt>
      <trkpt lat="44.19922" lon="2.14295">
        <ele>344</ele>
        <time>2019-11-06T13:07:31Z</time>
      </trkpt>
      <trkpt lat="44.19906" lon="2.14321">
        <ele>347</ele>
        <time>2019-11-06T13:07:51Z</time>
      </trkpt>
      <trkpt lat="44.19892" lon="2.14353">
        <ele>349</ele>
        <time>2019-11-06T13:08:12Z</time>
      </trkpt>
      <trkpt lat="44.19881" lon="2.14398">
        <ele>345</ele>
        <time>2019-11-06T13:08:40Z</time>
      </trkpt>
      <trkpt lat="44.1988" lon="2.14414">
        <ele>342</ele>
        <time>2019-11-06T13:08:49Z</time>
      </trkpt>
      <trkpt lat="44.19867" lon="2.14454">
        <ele>344</ele>
        <time>2019-11-06T13:09:14Z</time>
      </trkpt>
      <trkpt lat="44.1985" lon="2.14538">
        <ele>347</ele>
        <time>2019-11-06T13:10:04Z</time>
      </trkpt>
      <trkpt lat="44.19855" lon="2.14573">
        <ele>342</ele>
        <time>2019-11-06T13:10:25Z</time>
      </trkpt>
      <trkpt lat="44.19865" lon="2.14591">
        <ele>335</ele>
        <time>2019-11-06T13:10:38Z</time>
      </trkpt>
      <trkpt lat="44.19882" lon="2.14606">
        <ele>324</ele>
        <time>2019-11-06T13:10:54Z</time>
      </trkpt>
      <trkpt lat="44.19891" lon="2.14649">
        <ele>321</ele>
        <time>2019-11-06T13:11:20Z</time>
      </trkpt>
      <trkpt lat="44.19888" lon="2.14721">
        <ele>325</ele>
        <time>2019-11-06T13:12:01Z</time>
      </trkpt>
      <trkpt lat="44.1989" lon="2.14775">
        <ele>322</ele>
        <time>2019-11-06T13:12:32Z</time>
      </trkpt>
      <trkpt lat="44.19887" lon="2.14806">
        <ele>320</ele>
        <time>2019-11-06T13:12:50Z</time>
      </trkpt>
      <trkpt lat="44.19874" lon="2.14848">
        <ele>317</ele>
        <time>2019-11-06T13:13:16Z</time>
      </trkpt>
      <trkpt lat="44.19868" lon="2.14858">
        <ele>316</ele>
        <time>2019-11-06T13:13:24Z</time>
      </trkpt>
      <trkpt lat="44.19863" lon="2.14864">
        <ele>316</ele>
        <time>2019-11-06T13:13:29Z</time>
      </trkpt>
      <trkpt lat="44.19839" lon="2.1488">
        <ele>319</ele>
        <time>2019-11-06T13:13:50Z</time>
      </trkpt>
      <trkpt lat="44.19831" lon="2.14889">
        <ele>318</ele>
        <time>2019-11-06T13:13:59Z</time>
      </trkpt>
      <trkpt lat="44.19802" lon="2.14933">
        <ele>310</ele>
        <time>2019-11-06T13:14:33Z</time>
      </trkpt>
      <trkpt lat="44.19793" lon="2.14934">
        <ele>312</ele>
        <time>2019-11-06T13:14:40Z</time>
      </trkpt>
      <trkpt lat="44.19758" lon="2.14948">
        <ele>319</ele>
        <time>2019-11-06T13:15:09Z</time>
      </trkpt>
      <trkpt lat="44.19746" lon="2.14956">
        <ele>321</ele>
        <time>2019-11-06T13:15:20Z</time>
      </trkpt>
      <trkpt lat="44.19707" lon="2.15036">
        <ele>308</ele>
        <time>2019-11-06T13:16:15Z</time>
      </trkpt>
      <trkpt lat="44.19697" lon="2.15071">
        <ele>299</ele>
        <time>2019-11-06T13:16:37Z</time>
      </trkpt>
      <trkpt lat="44.19693" lon="2.15079">
        <ele>297</ele>
        <time>2019-11-06T13:16:43Z</time>
      </trkpt>
      <trkpt lat="44.19686" lon="2.15086">
        <ele>297</ele>
        <time>2019-11-06T13:16:50Z</time>
      </trkpt>
      <trkpt lat="44.19681" lon="2.15084">
        <ele>300</ele>
        <time>2019-11-06T13:16:54Z</time>
      </trkpt>
      <trkpt lat="44.19616" lon="2.15084">
        <ele>302</ele>
        <time>2019-11-06T13:17:46Z</time>
      </trkpt>
      <trkpt lat="44.19568" lon="2.15075">
        <ele>301</ele>
        <time>2019-11-06T13:18:25Z</time>
      </trkpt>
      <trkpt lat="44.19531" lon="2.15065">
        <ele>299</ele>
        <time>2019-11-06T13:18:55Z</time>
      </trkpt>
      <trkpt lat="44.19509" lon="2.15056">
        <ele>299</ele>
        <time>2019-11-06T13:19:13Z</time>
      </trkpt>
      <trkpt lat="44.19492" lon="2.15046">
        <ele>301</ele>
        <time>2019-11-06T13:19:28Z</time>
      </trkpt>
      <trkpt lat="44.19472" lon="2.15025">
        <ele>307</ele>
        <time>2019-11-06T13:19:48Z</time>
      </trkpt>
      <trkpt lat="44.19462" lon="2.1502">
        <ele>307</ele>
        <time>2019-11-06T13:19:56Z</time>
      </trkpt>
      <trkpt lat="44.19425" lon="2.15013">
        <ele>301</ele>
        <time>2019-11-06T13:20:26Z</time>
      </trkpt>
      <trkpt lat="44.19419" lon="2.15008">
        <ele>301</ele>
        <time>2019-11-06T13:20:32Z</time>
      </trkpt>
      <trkpt lat="44.1941" lon="2.14988">
        <ele>307</ele>
        <time>2019-11-06T13:20:45Z</time>
      </trkpt>
      <trkpt lat="44.19405" lon="2.14982">
        <ele>308</ele>
        <time>2019-11-06T13:20:51Z</time>
      </trkpt>
      <trkpt lat="44.1935" lon="2.14979">
        <ele>292</ele>
        <time>2019-11-06T13:21:35Z</time>
      </trkpt>
      <trkpt lat="44.19341" lon="2.14967">
        <ele>295</ele>
        <time>2019-11-06T13:21:45Z</time>
      </trkpt>
      <trkpt lat="44.19315" lon="2.14919">
        <ele>310</ele>
        <time>2019-11-06T13:22:19Z</time>
      </trkpt>
      <trkpt lat="44.19295" lon="2.14874">
        <ele>321</ele>
        <time>2019-11-06T13:22:50Z</time>
      </trkpt>
      <trkpt lat="44.19278" lon="2.14851">
        <ele>324</ele>
        <time>2019-11-06T13:23:09Z</time>
      </trkpt>
      <trkpt lat="44.19267" lon="2.14828">
        <ele>327</ele>
        <time>2019-11-06T13:23:25Z</time>
      </trkpt>
      <trkpt lat="44.19264" lon="2.14827">
        <ele>327</ele>
        <time>2019-11-06T13:23:27Z</time>
      </trkpt>
      <trkpt lat="44.19257" lon="2.14829">
        <ele>323</ele>
        <time>2019-11-06T13:23:33Z</time>
      </trkpt>
      <trkpt lat="44.19254" lon="2.14834">
        <ele>320</ele>
        <time>2019-11-06T13:23:37Z</time>
      </trkpt>
      <trkpt lat="44.19245" lon="2.1486">
        <ele>311</ele>
        <time>2019-11-06T13:23:53Z</time>
      </trkpt>
      <trkpt lat="44.19249" lon="2.14902">
        <ele>298</ele>
        <time>2019-11-06T13:24:17Z</time>
      </trkpt>
      <trkpt lat="44.19243" lon="2.1492">
        <ele>293</ele>
        <time>2019-11-06T13:24:29Z</time>
      </trkpt>
      <trkpt lat="44.19235" lon="2.14925">
        <ele>292</ele>
        <time>2019-11-06T13:24:36Z</time>
      </trkpt>
      <trkpt lat="44.19205" lon="2.14936">
        <ele>290</ele>
        <time>2019-11-06T13:25:01Z</time>
      </trkpt>
      <trkpt lat="44.19188" lon="2.14928">
        <ele>295</ele>
        <time>2019-11-06T13:25:15Z</time>
      </trkpt>
      <trkpt lat="44.19164" lon="2.14934">
        <ele>295</ele>
        <time>2019-11-06T13:25:35Z</time>
      </trkpt>
      <trkpt lat="44.19131" lon="2.1496">
        <ele>287</ele>
        <time>2019-11-06T13:26:05Z</time>
      </trkpt>
      <trkpt lat="44.19061" lon="2.14992">
        <ele>280</ele>
        <time>2019-11-06T13:27:04Z</time>
      </trkpt>
      <trkpt lat="44.19029" lon="2.15015">
        <ele>270</ele>
        <time>2019-11-06T13:27:33Z</time>
      </trkpt>
      <trkpt lat="44.19021" lon="2.15018">
        <ele>269</ele>
        <time>2019-11-06T13:27:39Z</time>
      </trkpt>
      <trkpt lat="44.19007" lon="2.1502">
        <ele>269</ele>
        <time>2019-11-06T13:27:51Z</time>
      </trkpt>
      <trkpt lat="44.18955" lon="2.14996">
        <ele>284</ele>
        <time>2019-11-06T13:28:34Z</time>
      </trkpt>
      <trkpt lat="44.1895" lon="2.15003">
        <ele>283</ele>
        <time>2019-11-06T13:28:40Z</time>
      </trkpt>
      <trkpt lat="44.18949" lon="2.15011">
        <ele>282</ele>
        <time>2019-11-06T13:28:45Z</time>
      </trkpt>
      <trkpt lat="44.18953" lon="2.15041">
        <ele>276</ele>
        <time>2019-11-06T13:29:02Z</time>
      </trkpt>
      <trkpt lat="44.1896" lon="2.15063">
        <ele>269</ele>
        <time>2019-11-06T13:29:16Z</time>
      </trkpt>
      <trkpt lat="44.18986" lon="2.15106">
        <ele>251</ele>
        <time>2019-11-06T13:29:48Z</time>
      </trkpt>
      <trkpt lat="44.18989" lon="2.15125">
        <ele>247</ele>
        <time>2019-11-06T13:30:00Z</time>
      </trkpt>
      <trkpt lat="44.18988" lon="2.15146">
        <ele>246</ele>
        <time>2019-11-06T13:30:12Z</time>
      </trkpt>
      <trkpt lat="44.1898" lon="2.15244">
        <ele>240</ele>
        <time>2019-11-06T13:31:08Z</time>
      </trkpt>
      <trkpt lat="44.18965" lon="2.15312">
        <ele>242</ele>
        <time>2019-11-06T13:31:49Z</time>
      </trkpt>
      <trkpt lat="44.18957" lon="2.15332">
        <ele>243</ele>
        <time>2019-11-06T13:32:02Z</time>
      </trkpt>
      <trkpt lat="44.18941" lon="2.15427">
        <ele>241</ele>
        <time>2019-11-06T13:32:58Z</time>
      </trkpt>
      <trkpt lat="44.1894" lon="2.15445">
        <ele>240</ele>
        <time>2019-11-06T13:33:09Z</time>
      </trkpt>
      <trkpt lat="44.18933" lon="2.15474">
        <ele>239</ele>
        <time>2019-11-06T13:33:26Z</time>
      </trkpt>
      <trkpt lat="44.18924" lon="2.15581">
        <ele>235</ele>
        <time>2019-11-06T13:34:28Z</time>
      </trkpt>
      <trkpt lat="44.18918" lon="2.15626">
        <ele>231</ele>
        <time>2019-11-06T13:34:54Z</time>
      </trkpt>
      <trkpt lat="44.18877" lon="2.15751">
        <ele>237</ele>
        <time>2019-11-06T13:36:13Z</time>
      </trkpt>
      <trkpt lat="44.18861" lon="2.15845">
        <ele>232</ele>
        <time>2019-11-06T13:37:09Z</time>
      </trkpt>
      <trkpt lat="44.1885" lon="2.15889">
        <ele>233</ele>
        <time>2019-11-06T13:37:36Z</time>
      </trkpt>
      <trkpt lat="44.18822" lon="2.15975">
        <ele>231</ele>
        <time>2019-11-06T13:38:30Z</time>
      </trkpt>
      <trkpt lat="44.1882" lon="2.15993">
        <ele>229</ele>
        <time>2019-11-06T13:38:40Z</time>
      </trkpt>
      <trkpt lat="44.18821" lon="2.16015">
        <ele>227</ele>
        <time>2019-11-06T13:38:53Z</time>
      </trkpt>
      <trkpt lat="44.18811" lon="2.16025">
        <ele>229</ele>
        <time>2019-11-06T13:39:03Z</time>
      </trkpt>
      <trkpt lat="44.18802" lon="2.16047">
        <ele>230</ele>
        <time>2019-11-06T13:39:17Z</time>
      </trkpt>
      <trkpt lat="44.18747" lon="2.16115">
        <ele>233</ele>
        <time>2019-11-06T13:40:16Z</time>
      </trkpt>
      <trkpt lat="44.18723" lon="2.16137">
        <ele>228</ele>
        <time>2019-11-06T13:40:39Z</time>
      </trkpt>
      <trkpt lat="44.18703" lon="2.1615">
        <ele>226</ele>
        <time>2019-11-06T13:40:57Z</time>
      </trkpt>
      <trkpt lat="44.18694" lon="2.16149">
        <ele>226</ele>
        <time>2019-11-06T13:41:04Z</time>
      </trkpt>
      <trkpt lat="44.18687" lon="2.16142">
        <ele>227</ele>
        <time>2019-11-06T13:41:11Z</time>
      </trkpt>
      <trkpt lat="44.18678" lon="2.16103">
        <ele>230</ele>
        <time>2019-11-06T13:41:34Z</time>
      </trkpt>
      <trkpt lat="44.18674" lon="2.16055">
        <ele>233</ele>
        <time>2019-11-06T13:42:02Z</time>
      </trkpt>
      <trkpt lat="44.18674" lon="2.15992">
        <ele>237</ele>
        <time>2019-11-06T13:42:38Z</time>
      </trkpt>
      <trkpt lat="44.1868" lon="2.15935">
        <ele>236</ele>
        <time>2019-11-06T13:43:11Z</time>
      </trkpt>
      <trkpt lat="44.18684" lon="2.15922">
        <ele>237</ele>
        <time>2019-11-06T13:43:20Z</time>
      </trkpt>
      <trkpt lat="44.18679" lon="2.15849">
        <ele>244</ele>
        <time>2019-11-06T13:44:02Z</time>
      </trkpt>
      <trkpt lat="44.18675" lon="2.15823">
        <ele>246</ele>
        <time>2019-11-06T13:44:17Z</time>
      </trkpt>
      <trkpt lat="44.1867" lon="2.15807">
        <ele>247</ele>
        <time>2019-11-06T13:44:27Z</time>
      </trkpt>
      <trkpt lat="44.18609" lon="2.15695">
        <ele>246</ele>
        <time>2019-11-06T13:45:48Z</time>
      </trkpt>
      <trkpt lat="44.18558" lon="2.15621">
        <ele>246</ele>
        <time>2019-11-06T13:46:47Z</time>
      </trkpt>
      <trkpt lat="44.18452" lon="2.15532">
        <ele>239</ele>
        <time>2019-11-06T13:48:26Z</time>
      </trkpt>
      <trkpt lat="44.18345" lon="2.15432">
        <ele>237</ele>
        <time>2019-11-06T13:50:09Z</time>
      </trkpt>
      <trkpt lat="44.1832" lon="2.15401">
        <ele>242</ele>
        <time>2019-11-06T13:50:36Z</time>
      </trkpt>
      <trkpt lat="44.18311" lon="2.15394">
        <ele>245</ele>
        <time>2019-11-06T13:50:44Z</time>
      </trkpt>
      <trkpt lat="44.183" lon="2.15388">
        <ele>246</ele>
        <time>2019-11-06T13:50:53Z</time>
      </trkpt>
      <trkpt lat="44.1823" lon="2.15364">
        <ele>250</ele>
        <time>2019-11-06T13:51:51Z</time>
      </trkpt>
      <trkpt lat="44.18181" lon="2.15357">
        <ele>251</ele>
        <time>2019-11-06T13:52:30Z</time>
      </trkpt>
      <trkpt lat="44.18153" lon="2.15357">
        <ele>253</ele>
        <time>2019-11-06T13:52:53Z</time>
      </trkpt>
      <trkpt lat="44.18125" lon="2.15366">
        <ele>256</ele>
        <time>2019-11-06T13:53:16Z</time>
      </trkpt>
      <trkpt lat="44.18074" lon="2.15404">
        <ele>253</ele>
        <time>2019-11-06T13:54:02Z</time>
      </trkpt>
      <trkpt lat="44.18003" lon="2.15444">
        <ele>261</ele>
        <time>2019-11-06T13:55:03Z</time>
      </trkpt>
      <trkpt lat="44.17966" lon="2.1546">
        <ele>262</ele>
        <time>2019-11-06T13:55:35Z</time>
      </trkpt>
      <trkpt lat="44.17948" lon="2.15476">
        <ele>261</ele>
        <time>2019-11-06T13:55:52Z</time>
      </trkpt>
      <trkpt lat="44.17941" lon="2.15479">
        <ele>262</ele>
        <time>2019-11-06T13:55:57Z</time>
      </trkpt>
      <trkpt lat="44.17931" lon="2.15475">
        <ele>265</ele>
        <time>2019-11-06T13:56:06Z</time>
      </trkpt>
      <trkpt lat="44.17928" lon="2.15466">
        <ele>268</ele>
        <time>2019-11-06T13:56:11Z</time>
      </trkpt>
      <trkpt lat="44.17928" lon="2.15435">
        <ele>276</ele>
        <time>2019-11-06T13:56:29Z</time>
      </trkpt>
      <trkpt lat="44.17922" lon="2.15436">
        <ele>277</ele>
        <time>2019-11-06T13:56:34Z</time>
      </trkpt>
      <trkpt lat="44.17909" lon="2.15473">
        <ele>268</ele>
        <time>2019-11-06T13:56:58Z</time>
      </trkpt>
      <trkpt lat="44.17906" lon="2.15522">
        <ele>258</ele>
        <time>2019-11-06T13:57:26Z</time>
      </trkpt>
      <trkpt lat="44.17892" lon="2.15596">
        <ele>245</ele>
        <time>2019-11-06T13:58:10Z</time>
      </trkpt>
      <trkpt lat="44.17886" lon="2.15601">
        <ele>244</ele>
        <time>2019-11-06T13:58:16Z</time>
      </trkpt>
      <trkpt lat="44.1788" lon="2.15598">
        <ele>245</ele>
        <time>2019-11-06T13:58:21Z</time>
      </trkpt>
      <trkpt lat="44.17874" lon="2.15589">
        <ele>245</ele>
        <time>2019-11-06T13:58:28Z</time>
      </trkpt>
      <trkpt lat="44.17836" lon="2.15511">
        <ele>253</ele>
        <time>2019-11-06T13:59:22Z</time>
      </trkpt>
      <trkpt lat="44.17812" lon="2.15474">
        <ele>256</ele>
        <time>2019-11-06T13:59:51Z</time>
      </trkpt>
      <trkpt lat="44.17801" lon="2.15461">
        <ele>256</ele>
        <time>2019-11-06T14:00:02Z</time>
      </trkpt>
      <trkpt lat="44.17782" lon="2.15449">
        <ele>254</ele>
        <time>2019-11-06T14:00:19Z</time>
      </trkpt>
      <trkpt lat="44.17764" lon="2.15448">
        <ele>251</ele>
        <time>2019-11-06T14:00:33Z</time>
      </trkpt>
      <trkpt lat="44.17751" lon="2.15433">
        <ele>249</ele>
        <time>2019-11-06T14:00:47Z</time>
      </trkpt>
      <trkpt lat="44.17745" lon="2.15432">
        <ele>250</ele>
        <time>2019-11-06T14:00:52Z</time>
      </trkpt>
      <trkpt lat="44.17742" lon="2.15435">
        <ele>251</ele>
        <time>2019-11-06T14:00:55Z</time>
      </trkpt>
      <trkpt lat="44.1774" lon="2.15444">
        <ele>252</ele>
        <time>2019-11-06T14:01:00Z</time>
      </trkpt>
      <trkpt lat="44.17745" lon="2.15466">
        <ele>250</ele>
        <time>2019-11-06T14:01:13Z</time>
      </trkpt>
      <trkpt lat="44.17764" lon="2.15496">
        <ele>249</ele>
        <time>2019-11-06T14:01:36Z</time>
      </trkpt>
      <trkpt lat="44.17786" lon="2.15506">
        <ele>251</ele>
        <time>2019-11-06T14:01:55Z</time>
      </trkpt>
      <trkpt lat="44.17791" lon="2.15511">
        <ele>252</ele>
        <time>2019-11-06T14:02:00Z</time>
      </trkpt>
      <trkpt lat="44.17796" lon="2.15521">
        <ele>252</ele>
        <time>2019-11-06T14:02:07Z</time>
      </trkpt>
      <trkpt lat="44.17804" lon="2.15552">
        <ele>252</ele>
        <time>2019-11-06T14:02:26Z</time>
      </trkpt>
      <trkpt lat="44.17854" lon="2.15654">
        <ele>243</ele>
        <time>2019-11-06T14:03:36Z</time>
      </trkpt>
      <trkpt lat="44.1787" lon="2.15699">
        <ele>241</ele>
        <time>2019-11-06T14:04:05Z</time>
      </trkpt>
      <trkpt lat="44.1788" lon="2.15791">
        <ele>242</ele>
        <time>2019-11-06T14:04:59Z</time>
      </trkpt>
      <trkpt lat="44.17881" lon="2.15825">
        <ele>241</ele>
        <time>2019-11-06T14:05:18Z</time>
      </trkpt>
      <trkpt lat="44.17807" lon="2.1621">
        <ele>251</ele>
        <time>2019-11-06T14:09:07Z</time>
      </trkpt>
      <trkpt lat="44.17794" lon="2.16403">
        <ele>257</ele>
        <time>2019-11-06T14:10:58Z</time>
      </trkpt>
      <trkpt lat="44.17794" lon="2.16435">
        <ele>258</ele>
        <time>2019-11-06T14:11:17Z</time>
      </trkpt>
      <trkpt lat="44.17798" lon="2.16481">
        <ele>257</ele>
        <time>2019-11-06T14:11:43Z</time>
      </trkpt>
      <trkpt lat="44.17804" lon="2.16508">
        <ele>255</ele>
        <time>2019-11-06T14:12:00Z</time>
      </trkpt>
      <trkpt lat="44.17974" lon="2.16931">
        <ele>246</ele>
        <time>2019-11-06T14:16:38Z</time>
      </trkpt>
      <trkpt lat="44.17999" lon="2.16999">
        <ele>243</ele>
        <time>2019-11-06T14:17:22Z</time>
      </trkpt>
      <trkpt lat="44.1801" lon="2.17037">
        <ele>250</ele>
        <time>2019-11-06T14:17:46Z</time>
      </trkpt>
      <trkpt lat="44.18044" lon="2.17294">
        <ele>260</ele>
        <time>2019-11-06T14:20:16Z</time>
      </trkpt>
      <trkpt lat="44.18068" lon="2.17434">
        <ele>250</ele>
        <time>2019-11-06T14:21:38Z</time>
      </trkpt>
      <trkpt lat="44.18069" lon="2.17487">
        <ele>249</ele>
        <time>2019-11-06T14:22:09Z</time>
      </trkpt>
      <trkpt lat="44.18058" lon="2.17524">
        <ele>251</ele>
        <time>2019-11-06T14:22:32Z</time>
      </trkpt>
      <trkpt lat="44.18044" lon="2.17553">
        <ele>252</ele>
        <time>2019-11-06T14:22:52Z</time>
      </trkpt>
      <trkpt lat="44.18028" lon="2.17577">
        <ele>252</ele>
        <time>2019-11-06T14:23:11Z</time>
      </trkpt>
      <trkpt lat="44.18" lon="2.17601">
        <ele>253</ele>
        <time>2019-11-06T14:23:37Z</time>
      </trkpt>
      <trkpt lat="44.17974" lon="2.17631">
        <ele>257</ele>
        <time>2019-11-06T14:24:04Z</time>
      </trkpt>
      <trkpt lat="44.17919" lon="2.17732">
        <ele>256</ele>
        <time>2019-11-06T14:25:17Z</time>
      </trkpt>
      <trkpt lat="44.179" lon="2.17779">
        <ele>255</ele>
        <time>2019-11-06T14:25:48Z</time>
      </trkpt>
      <trkpt lat="44.1788" lon="2.17892">
        <ele>251</ele>
        <time>2019-11-06T14:26:55Z</time>
      </trkpt>
      <trkpt lat="44.17861" lon="2.18027">
        <ele>251</ele>
        <time>2019-11-06T14:28:14Z</time>
      </trkpt>
      <trkpt lat="44.17845" lon="2.18064">
        <ele>250</ele>
        <time>2019-11-06T14:28:38Z</time>
      </trkpt>
      <trkpt lat="44.17815" lon="2.18105">
        <ele>252</ele>
        <time>2019-11-06T14:29:12Z</time>
      </trkpt>
      <trkpt lat="44.17806" lon="2.18114">
        <ele>253</ele>
        <time>2019-11-06T14:29:21Z</time>
      </trkpt>
      <trkpt lat="44.17794" lon="2.18117">
        <ele>256</ele>
        <time>2019-11-06T14:29:31Z</time>
      </trkpt>
      <trkpt lat="44.17788" lon="2.18111">
        <ele>258</ele>
        <time>2019-11-06T14:29:37Z</time>
      </trkpt>
      <trkpt lat="44.17784" lon="2.18087">
        <ele>262</ele>
        <time>2019-11-06T14:29:51Z</time>
      </trkpt>
      <trkpt lat="44.17789" lon="2.18061">
        <ele>265</ele>
        <time>2019-11-06T14:30:06Z</time>
      </trkpt>
      <trkpt lat="44.17805" lon="2.18029">
        <ele>265</ele>
        <time>2019-11-06T14:30:29Z</time>
      </trkpt>
      <trkpt lat="44.17802" lon="2.18017">
        <ele>268</ele>
        <time>2019-11-06T14:30:36Z</time>
      </trkpt>
      <trkpt lat="44.17798" lon="2.18015">
        <ele>269</ele>
        <time>2019-11-06T14:30:39Z</time>
      </trkpt>
      <trkpt lat="44.17791" lon="2.18016">
        <ele>271</ele>
        <time>2019-11-06T14:30:45Z</time>
      </trkpt>
      <trkpt lat="44.17743" lon="2.18055">
        <ele>278</ele>
        <time>2019-11-06T14:31:29Z</time>
      </trkpt>
      <trkpt lat="44.17737" lon="2.18056">
        <ele>279</ele>
        <time>2019-11-06T14:31:34Z</time>
      </trkpt>
      <trkpt lat="44.17732" lon="2.18053">
        <ele>280</ele>
        <time>2019-11-06T14:31:39Z</time>
      </trkpt>
      <trkpt lat="44.17727" lon="2.18044">
        <ele>282</ele>
        <time>2019-11-06T14:31:45Z</time>
      </trkpt>
      <trkpt lat="44.17727" lon="2.18036">
        <ele>283</ele>
        <time>2019-11-06T14:31:50Z</time>
      </trkpt>
      <trkpt lat="44.17742" lon="2.18013">
        <ele>284</ele>
        <time>2019-11-06T14:32:08Z</time>
      </trkpt>
      <trkpt lat="44.17756" lon="2.17998">
        <ele>283</ele>
        <time>2019-11-06T14:32:22Z</time>
      </trkpt>
      <trkpt lat="44.17759" lon="2.17989">
        <ele>283</ele>
        <time>2019-11-06T14:32:27Z</time>
      </trkpt>
      <trkpt lat="44.17759" lon="2.17957">
        <ele>285</ele>
        <time>2019-11-06T14:32:46Z</time>
      </trkpt>
      <trkpt lat="44.17755" lon="2.17948">
        <ele>286</ele>
        <time>2019-11-06T14:32:52Z</time>
      </trkpt>
      <trkpt lat="44.1772" lon="2.17907">
        <ele>298</ele>
        <time>2019-11-06T14:33:28Z</time>
      </trkpt>
      <trkpt lat="44.17705" lon="2.17896">
        <ele>303</ele>
        <time>2019-11-06T14:33:42Z</time>
      </trkpt>
      <trkpt lat="44.17687" lon="2.17934">
        <ele>304</ele>
        <time>2019-11-06T14:34:08Z</time>
      </trkpt>
      <trkpt lat="44.17665" lon="2.17967">
        <ele>304</ele>
        <time>2019-11-06T14:34:34Z</time>
      </trkpt>
      <trkpt lat="44.17636" lon="2.18">
        <ele>307</ele>
        <time>2019-11-06T14:35:04Z</time>
      </trkpt>
      <trkpt lat="44.17611" lon="2.1801">
        <ele>311</ele>
        <time>2019-11-06T14:35:25Z</time>
      </trkpt>
      <trkpt lat="44.17567" lon="2.1801">
        <ele>316</ele>
        <time>2019-11-06T14:36:00Z</time>
      </trkpt>
      <trkpt lat="44.17546" lon="2.17999">
        <ele>316</ele>
        <time>2019-11-06T14:36:18Z</time>
      </trkpt>
      <trkpt lat="44.17534" lon="2.17987">
        <ele>317</ele>
        <time>2019-11-06T14:36:30Z</time>
      </trkpt>
      <trkpt lat="44.17483" lon="2.17987">
        <ele>312</ele>
        <time>2019-11-06T14:37:11Z</time>
      </trkpt>
      <trkpt lat="44.17442" lon="2.17984">
        <ele>307</ele>
        <time>2019-11-06T14:37:44Z</time>
      </trkpt>
      <trkpt lat="44.17421" lon="2.17979">
        <ele>305</ele>
        <time>2019-11-06T14:38:01Z</time>
      </trkpt>
      <trkpt lat="44.17402" lon="2.17968">
        <ele>304</ele>
        <time>2019-11-06T14:38:17Z</time>
      </trkpt>
      <trkpt lat="44.17365" lon="2.1793">
        <ele>306</ele>
        <time>2019-11-06T14:38:54Z</time>
      </trkpt>
      <trkpt lat="44.17338" lon="2.17894">
        <ele>310</ele>
        <time>2019-11-06T14:39:24Z</time>
      </trkpt>
      <trkpt lat="44.17299" lon="2.17857">
        <ele>315</ele>
        <time>2019-11-06T14:40:02Z</time>
      </trkpt>
      <trkpt lat="44.17272" lon="2.17843">
        <ele>316</ele>
        <time>2019-11-06T14:40:25Z</time>
      </trkpt>
      <trkpt lat="44.17243" lon="2.1784">
        <ele>314</ele>
        <time>2019-11-06T14:40:48Z</time>
      </trkpt>
      <trkpt lat="44.17224" lon="2.17842">
        <ele>312</ele>
        <time>2019-11-06T14:41:03Z</time>
      </trkpt>
      <trkpt lat="44.17199" lon="2.17855">
        <ele>307</ele>
        <time>2019-11-06T14:41:25Z</time>
      </trkpt>
      <trkpt lat="44.17143" lon="2.17865">
        <ele>306</ele>
        <time>2019-11-06T14:42:10Z</time>
      </trkpt>
      <trkpt lat="44.17097" lon="2.17922">
        <ele>294</ele>
        <time>2019-11-06T14:42:59Z</time>
      </trkpt>
      <trkpt lat="44.17067" lon="2.17936">
        <ele>295</ele>
        <time>2019-11-06T14:43:24Z</time>
      </trkpt>
      <trkpt lat="44.17035" lon="2.17947">
        <ele>299</ele>
        <time>2019-11-06T14:43:51Z</time>
      </trkpt>
      <trkpt lat="44.16999" lon="2.17976">
        <ele>299</ele>
        <time>2019-11-06T14:44:24Z</time>
      </trkpt>
      <trkpt lat="44.1694" lon="2.18034">
        <ele>286</ele>
        <time>2019-11-06T14:45:22Z</time>
      </trkpt>
      <trkpt lat="44.16892" lon="2.18088">
        <ele>292</ele>
        <time>2019-11-06T14:46:11Z</time>
      </trkpt>
      <trkpt lat="44.16862" lon="2.18118">
        <ele>303</ele>
        <time>2019-11-06T14:46:41Z</time>
      </trkpt>
      <trkpt lat="44.16846" lon="2.18162">
        <ele>304</ele>
        <time>2019-11-06T14:47:09Z</time>
      </trkpt>
      <trkpt lat="44.16837" lon="2.18209">
        <ele>304</ele>
        <time>2019-11-06T14:47:37Z</time>
      </trkpt>
      <trkpt lat="44.16829" lon="2.18236">
        <ele>305</ele>
        <time>2019-11-06T14:47:54Z</time>
      </trkpt>
      <trkpt lat="44.16823" lon="2.18248">
        <ele>307</ele>
        <time>2019-11-06T14:48:02Z</time>
      </trkpt>
      <trkpt lat="44.16818" lon="2.18251">
        <ele>309</ele>
        <time>2019-11-06T14:48:07Z</time>
      </trkpt>
      <trkpt lat="44.16811" lon="2.18251">
        <ele>312</ele>
        <time>2019-11-06T14:48:12Z</time>
      </trkpt>
      <trkpt lat="44.16809" lon="2.18246">
        <ele>313</ele>
        <time>2019-11-06T14:48:15Z</time>
      </trkpt>
      <trkpt lat="44.16805" lon="2.18223">
        <ele>317</ele>
        <time>2019-11-06T14:48:29Z</time>
      </trkpt>
      <trkpt lat="44.16806" lon="2.18156">
        <ele>323</ele>
        <time>2019-11-06T14:49:08Z</time>
      </trkpt>
      <trkpt lat="44.16803" lon="2.18148">
        <ele>325</ele>
        <time>2019-11-06T14:49:13Z</time>
      </trkpt>
      <trkpt lat="44.16796" lon="2.18149">
        <ele>328</ele>
        <time>2019-11-06T14:49:18Z</time>
      </trkpt>
      <trkpt lat="44.16791" lon="2.18155">
        <ele>329</ele>
        <time>2019-11-06T14:49:24Z</time>
      </trkpt>
      <trkpt lat="44.16776" lon="2.18187">
        <ele>333</ele>
        <time>2019-11-06T14:49:46Z</time>
      </trkpt>
      <trkpt lat="44.16737" lon="2.18322">
        <ele>339</ele>
        <time>2019-11-06T14:51:09Z</time>
      </trkpt>
      <trkpt lat="44.16722" lon="2.18341">
        <ele>341</ele>
        <time>2019-11-06T14:51:25Z</time>
      </trkpt>
      <trkpt lat="44.16682" lon="2.18383">
        <ele>341</ele>
        <time>2019-11-06T14:52:05Z</time>
      </trkpt>
      <trkpt lat="44.16649" lon="2.18398">
        <ele>343</ele>
        <time>2019-11-06T14:52:33Z</time>
      </trkpt>
      <trkpt lat="44.16626" lon="2.18401">
        <ele>347</ele>
        <time>2019-11-06T14:52:52Z</time>
      </trkpt>
      <trkpt lat="44.16604" lon="2.18407">
        <ele>349</ele>
        <time>2019-11-06T14:53:10Z</time>
      </trkpt>
      <trkpt lat="44.16556" lon="2.18438">
        <ele>345</ele>
        <time>2019-11-06T14:53:52Z</time>
      </trkpt>
      <trkpt lat="44.16536" lon="2.18448">
        <ele>344</ele>
        <time>2019-11-06T14:54:09Z</time>
      </trkpt>
      <trkpt lat="44.16534" lon="2.18455">
        <ele>343</ele>
        <time>2019-11-06T14:54:13Z</time>
      </trkpt>
      <trkpt lat="44.16543" lon="2.18472">
        <ele>337</ele>
        <time>2019-11-06T14:54:26Z</time>
      </trkpt>
      <trkpt lat="44.16557" lon="2.18491">
        <ele>329</ele>
        <time>2019-11-06T14:54:41Z</time>
      </trkpt>
      <trkpt lat="44.1656" lon="2.18504">
        <ele>324</ele>
        <time>2019-11-06T14:54:49Z</time>
      </trkpt>
      <trkpt lat="44.16557" lon="2.18517">
        <ele>321</ele>
        <time>2019-11-06T14:54:57Z</time>
      </trkpt>
      <trkpt lat="44.16551" lon="2.18531">
        <ele>319</ele>
        <time>2019-11-06T14:55:06Z</time>
      </trkpt>
      <trkpt lat="44.16541" lon="2.18543">
        <ele>317</ele>
        <time>2019-11-06T14:55:17Z</time>
      </trkpt>
      <trkpt lat="44.16524" lon="2.18557">
        <ele>316</ele>
        <time>2019-11-06T14:55:33Z</time>
      </trkpt>
      <trkpt lat="44.16448" lon="2.18652">
        <ele>298</ele>
        <time>2019-11-06T14:56:54Z</time>
      </trkpt>
      <trkpt lat="44.16423" lon="2.18695">
        <ele>295</ele>
        <time>2019-11-06T14:57:26Z</time>
      </trkpt>
      <trkpt lat="44.1641" lon="2.18735">
        <ele>292</ele>
        <time>2019-11-06T14:57:51Z</time>
      </trkpt>
      <trkpt lat="44.16389" lon="2.18821">
        <ele>281</ele>
        <time>2019-11-06T14:58:44Z</time>
      </trkpt>
      <trkpt lat="44.16437" lon="2.18758">
        <ele>278</ele>
        <time>2019-11-06T14:59:36Z</time>
      </trkpt>
      <trkpt lat="44.16447" lon="2.18751">
        <ele>276</ele>
        <time>2019-11-06T14:59:45Z</time>
      </trkpt>
      <trkpt lat="44.16456" lon="2.1875">
        <ele>272</ele>
        <time>2019-11-06T14:59:53Z</time>
      </trkpt>
      <trkpt lat="44.16465" lon="2.18759">
        <ele>268</ele>
        <time>2019-11-06T15:00:01Z</time>
      </trkpt>
      <trkpt lat="44.16466" lon="2.18768">
        <ele>266</ele>
        <time>2019-11-06T15:00:07Z</time>
      </trkpt>
      <trkpt lat="44.16461" lon="2.18781">
        <ele>266</ele>
        <time>2019-11-06T15:00:15Z</time>
      </trkpt>
      <trkpt lat="44.16426" lon="2.18804">
        <ele>273</ele>
        <time>2019-11-06T15:00:46Z</time>
      </trkpt>
      <trkpt lat="44.16414" lon="2.18825">
        <ele>273</ele>
        <time>2019-11-06T15:01:02Z</time>
      </trkpt>
      <trkpt lat="44.16389" lon="2.18884">
        <ele>266</ele>
        <time>2019-11-06T15:01:41Z</time>
      </trkpt>
      <trkpt lat="44.16375" lon="2.18901">
        <ele>266</ele>
        <time>2019-11-06T15:01:56Z</time>
      </trkpt>
      <trkpt lat="44.16353" lon="2.18921">
        <ele>267</ele>
        <time>2019-11-06T15:02:17Z</time>
      </trkpt>
      <trkpt lat="44.16245" lon="2.19004">
        <ele>275</ele>
        <time>2019-11-06T15:03:56Z</time>
      </trkpt>
      <trkpt lat="44.16212" lon="2.19041">
        <ele>275</ele>
        <time>2019-11-06T15:04:29Z</time>
      </trkpt>
      <trkpt lat="44.16181" lon="2.19084">
        <ele>273</ele>
        <time>2019-11-06T15:05:04Z</time>
      </trkpt>
      <trkpt lat="44.1617" lon="2.19109">
        <ele>272</ele>
        <time>2019-11-06T15:05:21Z</time>
      </trkpt>
      <trkpt lat="44.16159" lon="2.19148">
        <ele>268</ele>
        <time>2019-11-06T15:05:45Z</time>
      </trkpt>
      <trkpt lat="44.16153" lon="2.19195">
        <ele>263</ele>
        <time>2019-11-06T15:06:13Z</time>
      </trkpt>
      <trkpt lat="44.16151" lon="2.1922">
        <ele>261</ele>
        <time>2019-11-06T15:06:27Z</time>
      </trkpt>
      <trkpt lat="44.16154" lon="2.19279">
        <ele>258</ele>
        <time>2019-11-06T15:07:01Z</time>
      </trkpt>
      <trkpt lat="44.1617" lon="2.19337">
        <ele>254</ele>
        <time>2019-11-06T15:07:37Z</time>
      </trkpt>
      <trkpt lat="44.16192" lon="2.19402">
        <ele>250</ele>
        <time>2019-11-06T15:08:18Z</time>
      </trkpt>
      <trkpt lat="44.16203" lon="2.1947">
        <ele>249</ele>
        <time>2019-11-06T15:08:58Z</time>
      </trkpt>
      <trkpt lat="44.16203" lon="2.19518">
        <ele>249</ele>
        <time>2019-11-06T15:09:26Z</time>
      </trkpt>
      <trkpt lat="44.16195" lon="2.19603">
        <ele>245</ele>
        <time>2019-11-06T15:10:15Z</time>
      </trkpt>
      <trkpt lat="44.16198" lon="2.19622">
        <ele>243</ele>
        <time>2019-11-06T15:10:26Z</time>
      </trkpt>
      <trkpt lat="44.16202" lon="2.1963">
        <ele>243</ele>
        <time>2019-11-06T15:10:32Z</time>
      </trkpt>
      <trkpt lat="44.16216" lon="2.19641">
        <ele>241</ele>
        <time>2019-11-06T15:10:45Z</time>
      </trkpt>
      <trkpt lat="44.16254" lon="2.19651">
        <ele>239</ele>
        <time>2019-11-06T15:11:16Z</time>
      </trkpt>
      <trkpt lat="44.16267" lon="2.19661">
        <ele>240</ele>
        <time>2019-11-06T15:11:28Z</time>
      </trkpt>
      <trkpt lat="44.16288" lon="2.19665">
        <ele>242</ele>
        <time>2019-11-06T15:11:44Z</time>
      </trkpt>
      <trkpt lat="44.16305" lon="2.19663">
        <ele>244</ele>
        <time>2019-11-06T15:11:58Z</time>
      </trkpt>
      <trkpt lat="44.16337" lon="2.19638">
        <ele>252</ele>
        <time>2019-11-06T15:12:28Z</time>
      </trkpt>
      <trkpt lat="44.16357" lon="2.19634">
        <ele>260</ele>
        <time>2019-11-06T15:12:44Z</time>
      </trkpt>
      <trkpt lat="44.16376" lon="2.19636">
        <ele>265</ele>
        <time>2019-11-06T15:12:59Z</time>
      </trkpt>
      <trkpt lat="44.16394" lon="2.19647">
        <ele>268</ele>
        <time>2019-11-06T15:13:15Z</time>
      </trkpt>
      <trkpt lat="44.16411" lon="2.19665">
        <ele>267</ele>
        <time>2019-11-06T15:13:32Z</time>
      </trkpt>
      <trkpt lat="44.16442" lon="2.19726">
        <ele>262</ele>
        <time>2019-11-06T15:14:15Z</time>
      </trkpt>
      <trkpt lat="44.16438" lon="2.19737">
        <ele>258</ele>
        <time>2019-11-06T15:14:22Z</time>
      </trkpt>
      <trkpt lat="44.16431" lon="2.19746">
        <ele>254</ele>
        <time>2019-11-06T15:14:29Z</time>
      </trkpt>
      <trkpt lat="44.16408" lon="2.19766">
        <ele>249</ele>
        <time>2019-11-06T15:14:51Z</time>
      </trkpt>
      <trkpt lat="44.16378" lon="2.19755">
        <ele>246</ele>
        <time>2019-11-06T15:15:16Z</time>
      </trkpt>
      <trkpt lat="44.1637" lon="2.19756">
        <ele>246</ele>
        <time>2019-11-06T15:15:22Z</time>
      </trkpt>
      <trkpt lat="44.16368" lon="2.19729">
        <ele>247</ele>
        <time>2019-11-06T15:15:38Z</time>
      </trkpt>
      <trkpt lat="44.16364" lon="2.19724">
        <ele>248</ele>
        <time>2019-11-06T15:15:42Z</time>
      </trkpt>
      <trkpt lat="44.16349" lon="2.19717">
        <ele>246</ele>
        <time>2019-11-06T15:15:55Z</time>
      </trkpt>
      <trkpt lat="44.16327" lon="2.19717">
        <ele>243</ele>
        <time>2019-11-06T15:16:13Z</time>
      </trkpt>
      <trkpt lat="44.16307" lon="2.19734">
        <ele>241</ele>
        <time>2019-11-06T15:16:31Z</time>
      </trkpt>
      <trkpt lat="44.16271" lon="2.19778">
        <ele>242</ele>
        <time>2019-11-06T15:17:10Z</time>
      </trkpt>
      <trkpt lat="44.16245" lon="2.19804">
        <ele>242</ele>
        <time>2019-11-06T15:17:35Z</time>
      </trkpt>
      <trkpt lat="44.16238" lon="2.19805">
        <ele>242</ele>
        <time>2019-11-06T15:17:41Z</time>
      </trkpt>
      <trkpt lat="44.16227" lon="2.19798">
        <ele>242</ele>
        <time>2019-11-06T15:17:51Z</time>
      </trkpt>
      <trkpt lat="44.16207" lon="2.19809">
        <ele>243</ele>
        <time>2019-11-06T15:18:08Z</time>
      </trkpt>
      <trkpt lat="44.16175" lon="2.19812">
        <ele>244</ele>
        <time>2019-11-06T15:18:33Z</time>
      </trkpt>
      <trkpt lat="44.16151" lon="2.19807">
        <ele>245</ele>
        <time>2019-11-06T15:18:53Z</time>
      </trkpt>
      <trkpt lat="44.16072" lon="2.19769">
        <ele>247</ele>
        <time>2019-11-06T15:20:00Z</time>
      </trkpt>
      <trkpt lat="44.16045" lon="2.19761">
        <ele>252</ele>
        <time>2019-11-06T15:20:22Z</time>
      </trkpt>
      <trkpt lat="44.16018" lon="2.19734">
        <ele>253</ele>
        <time>2019-11-06T15:20:49Z</time>
      </trkpt>
      <trkpt lat="44.1599" lon="2.19688">
        <ele>251</ele>
        <time>2019-11-06T15:21:23Z</time>
      </trkpt>
      <trkpt lat="44.15953" lon="2.19636">
        <ele>257</ele>
        <time>2019-11-06T15:22:05Z</time>
      </trkpt>
      <trkpt lat="44.15937" lon="2.19598">
        <ele>258</ele>
        <time>2019-11-06T15:22:31Z</time>
      </trkpt>
      <trkpt lat="44.15919" lon="2.19532">
        <ele>257</ele>
        <time>2019-11-06T15:23:11Z</time>
      </trkpt>
      <trkpt lat="44.15914" lon="2.19488">
        <ele>255</ele>
        <time>2019-11-06T15:23:37Z</time>
      </trkpt>
      <trkpt lat="44.15905" lon="2.19305">
        <ele>254</ele>
        <time>2019-11-06T15:25:22Z</time>
      </trkpt>
      <trkpt lat="44.15895" lon="2.19158">
        <ele>248</ele>
        <time>2019-11-06T15:26:47Z</time>
      </trkpt>
      <trkpt lat="44.15889" lon="2.19143">
        <ele>248</ele>
        <time>2019-11-06T15:26:57Z</time>
      </trkpt>
      <trkpt lat="44.15865" lon="2.19114">
        <ele>248</ele>
        <time>2019-11-06T15:27:22Z</time>
      </trkpt>
      <trkpt lat="44.15851" lon="2.19104">
        <ele>247</ele>
        <time>2019-11-06T15:27:35Z</time>
      </trkpt>
      <trkpt lat="44.15841" lon="2.19092">
        <ele>244</ele>
        <time>2019-11-06T15:27:45Z</time>
      </trkpt>
      <trkpt lat="44.15834" lon="2.19077">
        <ele>243</ele>
        <time>2019-11-06T15:27:56Z</time>
      </trkpt>
      <trkpt lat="44.15826" lon="2.19069">
        <ele>244</ele>
        <time>2019-11-06T15:28:04Z</time>
      </trkpt>
      <trkpt lat="44.15772" lon="2.19061">
        <ele>246</ele>
        <time>2019-11-06T15:28:47Z</time>
      </trkpt>
      <trkpt lat="44.15737" lon="2.19048">
        <ele>245</ele>
        <time>2019-11-06T15:29:16Z</time>
      </trkpt>
      <trkpt lat="44.15689" lon="2.19052">
        <ele>244</ele>
        <time>2019-11-06T15:29:55Z</time>
      </trkpt>
      <trkpt lat="44.15652" lon="2.1906">
        <ele>243</ele>
        <time>2019-11-06T15:30:24Z</time>
      </trkpt>
      <trkpt lat="44.15628" lon="2.19072">
        <ele>243</ele>
        <time>2019-11-06T15:30:45Z</time>
      </trkpt>
      <trkpt lat="44.15597" lon="2.19096">
        <ele>241</ele>
        <time>2019-11-06T15:31:13Z</time>
      </trkpt>
      <trkpt lat="44.15581" lon="2.19115">
        <ele>241</ele>
        <time>2019-11-06T15:31:30Z</time>
      </trkpt>
      <trkpt lat="44.15557" lon="2.19161">
        <ele>242</ele>
        <time>2019-11-06T15:32:03Z</time>
      </trkpt>
      <trkpt lat="44.15481" lon="2.1938">
        <ele>242</ele>
        <time>2019-11-06T15:34:23Z</time>
      </trkpt>
      <trkpt lat="44.15475" lon="2.19446">
        <ele>242</ele>
        <time>2019-11-06T15:35:01Z</time>
      </trkpt>
      <trkpt lat="44.15477" lon="2.19553">
        <ele>241</ele>
        <time>2019-11-06T15:36:02Z</time>
      </trkpt>
      <trkpt lat="44.15463" lon="2.19611">
        <ele>243</ele>
        <time>2019-11-06T15:36:37Z</time>
      </trkpt>
      <trkpt lat="44.15465" lon="2.19693">
        <ele>243</ele>
        <time>2019-11-06T15:37:25Z</time>
      </trkpt>
      <trkpt lat="44.15457" lon="2.19854">
        <ele>251</ele>
        <time>2019-11-06T15:38:57Z</time>
      </trkpt>
      <trkpt lat="44.15451" lon="2.19929">
        <ele>254</ele>
        <time>2019-11-06T15:39:41Z</time>
      </trkpt>
      <trkpt lat="44.1541" lon="2.20173">
        <ele>249</ele>
        <time>2019-11-06T15:42:05Z</time>
      </trkpt>
      <trkpt lat="44.15402" lon="2.20299">
        <ele>251</ele>
        <time>2019-11-06T15:43:17Z</time>
      </trkpt>
      <trkpt lat="44.15394" lon="2.20374">
        <ele>252</ele>
        <time>2019-11-06T15:44:01Z</time>
      </trkpt>
      <trkpt lat="44.15332" lon="2.20349">
        <ele>249</ele>
        <time>2019-11-06T15:44:52Z</time>
      </trkpt>
      <trkpt lat="44.15327" lon="2.20355">
        <ele>253</ele>
        <time>2019-11-06T15:44:58Z</time>
      </trkpt>
      <trkpt lat="44.15313" lon="2.20386">
        <ele>263</ele>
        <time>2019-11-06T15:45:19Z</time>
      </trkpt>
      <trkpt lat="44.15301" lon="2.20418">
        <ele>270</ele>
        <time>2019-11-06T15:45:40Z</time>
      </trkpt>
      <trkpt lat="44.15295" lon="2.20492">
        <ele>275</ele>
        <time>2019-11-06T15:46:22Z</time>
      </trkpt>
      <trkpt lat="44.15301" lon="2.20592">
        <ele>275</ele>
        <time>2019-11-06T15:47:20Z</time>
      </trkpt>
      <trkpt lat="44.15308" lon="2.20617">
        <ele>272</ele>
        <time>2019-11-06T15:47:35Z</time>
      </trkpt>
      <trkpt lat="44.15332" lon="2.20671">
        <ele>264</ele>
        <time>2019-11-06T15:48:12Z</time>
      </trkpt>
      <trkpt lat="44.15337" lon="2.2069">
        <ele>262</ele>
        <time>2019-11-06T15:48:23Z</time>
      </trkpt>
      <trkpt lat="44.15352" lon="2.20764">
        <ele>257</ele>
        <time>2019-11-06T15:49:08Z</time>
      </trkpt>
      <trkpt lat="44.15348" lon="2.20771">
        <ele>256</ele>
        <time>2019-11-06T15:49:13Z</time>
      </trkpt>
      <trkpt lat="44.15342" lon="2.2077">
        <ele>257</ele>
        <time>2019-11-06T15:49:18Z</time>
      </trkpt>
      <trkpt lat="44.15341" lon="2.20767">
        <ele>258</ele>
        <time>2019-11-06T15:49:20Z</time>
      </trkpt>
      <trkpt lat="44.15337" lon="2.20736">
        <ele>261</ele>
        <time>2019-11-06T15:49:38Z</time>
      </trkpt>
      <trkpt lat="44.15332" lon="2.20721">
        <ele>262</ele>
        <time>2019-11-06T15:49:47Z</time>
      </trkpt>
      <trkpt lat="44.15317" lon="2.20711">
        <ele>267</ele>
        <time>2019-11-06T15:50:00Z</time>
      </trkpt>
      <trkpt lat="44.15308" lon="2.207">
        <ele>270</ele>
        <time>2019-11-06T15:50:10Z</time>
      </trkpt>
      <trkpt lat="44.15301" lon="2.20683">
        <ele>275</ele>
        <time>2019-11-06T15:50:21Z</time>
      </trkpt>
      <trkpt lat="44.15291" lon="2.20637">
        <ele>282</ele>
        <time>2019-11-06T15:50:49Z</time>
      </trkpt>
      <trkpt lat="44.15285" lon="2.2066">
        <ele>285</ele>
        <time>2019-11-06T15:51:03Z</time>
      </trkpt>
      <trkpt lat="44.15284" lon="2.20675">
        <ele>283</ele>
        <time>2019-11-06T15:51:12Z</time>
      </trkpt>
      <trkpt lat="44.15281" lon="2.20683">
        <ele>283</ele>
        <time>2019-11-06T15:51:17Z</time>
      </trkpt>
      <trkpt lat="44.15276" lon="2.20684">
        <ele>284</ele>
        <time>2019-11-06T15:51:21Z</time>
      </trkpt>
      <trkpt lat="44.15228" lon="2.20616">
        <ele>311</ele>
        <time>2019-11-06T15:52:16Z</time>
      </trkpt>
      <trkpt lat="44.15218" lon="2.20586">
        <ele>318</ele>
        <time>2019-11-06T15:52:35Z</time>
      </trkpt>
      <trkpt lat="44.15207" lon="2.20522">
        <ele>324</ele>
        <time>2019-11-06T15:53:12Z</time>
      </trkpt>
      <trkpt lat="44.15184" lon="2.20444">
        <ele>337</ele>
        <time>2019-11-06T15:54:01Z</time>
      </trkpt>
      <trkpt lat="44.15168" lon="2.20366">
        <ele>347</ele>
        <time>2019-11-06T15:54:48Z</time>
      </trkpt>
      <trkpt lat="44.15157" lon="2.20342">
        <ele>351</ele>
        <time>2019-11-06T15:55:04Z</time>
      </trkpt>
      <trkpt lat="44.15148" lon="2.20305">
        <ele>355</ele>
        <time>2019-11-06T15:55:26Z</time>
      </trkpt>
      <trkpt lat="44.15143" lon="2.20247">
        <ele>360</ele>
        <time>2019-11-06T15:56:00Z</time>
      </trkpt>
      <trkpt lat="44.15143" lon="2.20173">
        <ele>363</ele>
        <time>2019-11-06T15:56:42Z</time>
      </trkpt>
      <trkpt lat="44.15139" lon="2.20151">
        <ele>363</ele>
        <time>2019-11-06T15:56:55Z</time>
      </trkpt>
      <trkpt lat="44.15153" lon="2.20115">
        <ele>362</ele>
        <time>2019-11-06T15:57:19Z</time>
      </trkpt>
      <trkpt lat="44.15162" lon="2.20081">
        <ele>362</ele>
        <time>2019-11-06T15:57:40Z</time>
      </trkpt>
      <trkpt lat="44.1517" lon="2.20019">
        <ele>360</ele>
        <time>2019-11-06T15:58:16Z</time>
      </trkpt>
      <trkpt lat="44.15171" lon="2.19987">
        <ele>358</ele>
        <time>2019-11-06T15:58:34Z</time>
      </trkpt>
      <trkpt lat="44.15143" lon="2.19784">
        <ele>356</ele>
        <time>2019-11-06T16:00:33Z</time>
      </trkpt>
      <trkpt lat="44.15143" lon="2.19737">
        <ele>358</ele>
        <time>2019-11-06T16:01:00Z</time>
      </trkpt>
      <trkpt lat="44.15153" lon="2.19616">
        <ele>363</ele>
        <time>2019-11-06T16:02:10Z</time>
      </trkpt>
      <trkpt lat="44.1516" lon="2.19586">
        <ele>365</ele>
        <time>2019-11-06T16:02:28Z</time>
      </trkpt>
      <trkpt lat="44.1517" lon="2.19579">
        <ele>365</ele>
        <time>2019-11-06T16:02:37Z</time>
      </trkpt>
      <trkpt lat="44.1516" lon="2.19556">
        <ele>365</ele>
        <time>2019-11-06T16:02:53Z</time>
      </trkpt>
      <trkpt lat="44.1516" lon="2.1955">
        <ele>365</ele>
        <time>2019-11-06T16:02:56Z</time>
      </trkpt>
      <trkpt lat="44.15139" lon="2.19552">
        <ele>362</ele>
        <time>2019-11-06T16:03:13Z</time>
      </trkpt>
      <trkpt lat="44.15097" lon="2.19548">
        <ele>356</ele>
        <time>2019-11-06T16:03:47Z</time>
      </trkpt>
      <trkpt lat="44.15075" lon="2.19477">
        <ele>347</ele>
        <time>2019-11-06T16:04:31Z</time>
      </trkpt>
      <trkpt lat="44.15046" lon="2.19405">
        <ele>327</ele>
        <time>2019-11-06T16:05:18Z</time>
      </trkpt>
      <trkpt lat="44.15032" lon="2.19341">
        <ele>316</ele>
        <time>2019-11-06T16:05:57Z</time>
      </trkpt>
      <trkpt lat="44.15022" lon="2.19277">
        <ele>308</ele>
        <time>2019-11-06T16:06:35Z</time>
      </trkpt>
      <trkpt lat="44.14995" lon="2.19187">
        <ele>297</ele>
        <time>2019-11-06T16:07:31Z</time>
      </trkpt>
      <trkpt lat="44.14976" lon="2.19142">
        <ele>292</ele>
        <time>2019-11-06T16:08:01Z</time>
      </trkpt>
      <trkpt lat="44.14949" lon="2.19098">
        <ele>285</ele>
        <time>2019-11-06T16:08:34Z</time>
      </trkpt>
      <trkpt lat="44.14857" lon="2.18964">
        <ele>278</ele>
        <time>2019-11-06T16:10:20Z</time>
      </trkpt>
      <trkpt lat="44.14841" lon="2.18947">
        <ele>276</ele>
        <time>2019-11-06T16:10:37Z</time>
      </trkpt>
      <trkpt lat="44.14829" lon="2.18944">
        <ele>274</ele>
        <time>2019-11-06T16:10:46Z</time>
      </trkpt>
      <trkpt lat="44.14789" lon="2.18942">
        <ele>269</ele>
        <time>2019-11-06T16:11:18Z</time>
      </trkpt>
      <trkpt lat="44.14747" lon="2.18934">
        <ele>266</ele>
        <time>2019-11-06T16:11:52Z</time>
      </trkpt>
      <trkpt lat="44.14591" lon="2.18891">
        <ele>252</ele>
        <time>2019-11-06T16:14:00Z</time>
      </trkpt>
      <trkpt lat="44.14524" lon="2.1887">
        <ele>252</ele>
        <time>2019-11-06T16:14:55Z</time>
      </trkpt>
      <trkpt lat="44.14496" lon="2.18857">
        <ele>251</ele>
        <time>2019-11-06T16:15:18Z</time>
      </trkpt>
      <trkpt lat="44.14454" lon="2.18816">
        <ele>251</ele>
        <time>2019-11-06T16:15:59Z</time>
      </trkpt>
      <trkpt lat="44.1445" lon="2.18817">
        <ele>251</ele>
        <time>2019-11-06T16:16:03Z</time>
      </trkpt>
      <trkpt lat="44.14443" lon="2.18826">
        <ele>249</ele>
        <time>2019-11-06T16:16:10Z</time>
      </trkpt>
      <trkpt lat="44.14428" lon="2.18838">
        <ele>247</ele>
        <time>2019-11-06T16:16:24Z</time>
      </trkpt>
      <trkpt lat="44.14422" lon="2.18836">
        <ele>247</ele>
        <time>2019-11-06T16:16:29Z</time>
      </trkpt>
      <trkpt lat="44.14417" lon="2.1883">
        <ele>246</ele>
        <time>2019-11-06T16:16:34Z</time>
      </trkpt>
      <trkpt lat="44.14329" lon="2.18636">
        <ele>254</ele>
        <time>2019-11-06T16:18:46Z</time>
      </trkpt>
      <trkpt lat="44.14283" lon="2.18556">
        <ele>263</ele>
        <time>2019-11-06T16:19:45Z</time>
      </trkpt>
      <trkpt lat="44.14257" lon="2.18503">
        <ele>260</ele>
        <time>2019-11-06T16:20:22Z</time>
      </trkpt>
      <trkpt lat="44.14252" lon="2.18488">
        <ele>259</ele>
        <time>2019-11-06T16:20:31Z</time>
      </trkpt>
      <trkpt lat="44.14247" lon="2.1846">
        <ele>261</ele>
        <time>2019-11-06T16:20:48Z</time>
      </trkpt>
      <trkpt lat="44.1425" lon="2.18262">
        <ele>270</ele>
        <time>2019-11-06T16:22:42Z</time>
      </trkpt>
      <trkpt lat="44.14248" lon="2.18206">
        <ele>272</ele>
        <time>2019-11-06T16:23:14Z</time>
      </trkpt>
      <trkpt lat="44.14239" lon="2.18145">
        <ele>278</ele>
        <time>2019-11-06T16:23:50Z</time>
      </trkpt>
      <trkpt lat="44.1423" lon="2.18122">
        <ele>281</ele>
        <time>2019-11-06T16:24:05Z</time>
      </trkpt>
      <trkpt lat="44.14215" lon="2.18101">
        <ele>282</ele>
        <time>2019-11-06T16:24:22Z</time>
      </trkpt>
      <trkpt lat="44.14202" lon="2.1809">
        <ele>280</ele>
        <time>2019-11-06T16:24:34Z</time>
      </trkpt>
      <trkpt lat="44.14182" lon="2.18082">
        <ele>276</ele>
        <time>2019-11-06T16:24:51Z</time>
      </trkpt>
      <trkpt lat="44.14156" lon="2.18077">
        <ele>272</ele>
        <time>2019-11-06T16:25:12Z</time>
      </trkpt>
      <trkpt lat="44.14052" lon="2.1806">
        <ele>273</ele>
        <time>2019-11-06T16:26:36Z</time>
      </trkpt>
      <trkpt lat="44.13986" lon="2.18057">
        <ele>276</ele>
        <time>2019-11-06T16:27:28Z</time>
      </trkpt>
      <trkpt lat="44.13904" lon="2.18085">
        <ele>271</ele>
        <time>2019-11-06T16:28:36Z</time>
      </trkpt>
      <trkpt lat="44.1385" lon="2.18111">
        <ele>271</ele>
        <time>2019-11-06T16:29:22Z</time>
      </trkpt>
      <trkpt lat="44.13831" lon="2.18131">
        <ele>268</ele>
        <time>2019-11-06T16:29:41Z</time>
      </trkpt>
      <trkpt lat="44.13823" lon="2.18146">
        <ele>267</ele>
        <time>2019-11-06T16:29:52Z</time>
      </trkpt>
      <trkpt lat="44.13814" lon="2.18168">
        <ele>264</ele>
        <time>2019-11-06T16:30:06Z</time>
      </trkpt>
      <trkpt lat="44.13799" lon="2.18234">
        <ele>260</ele>
        <time>2019-11-06T16:30:46Z</time>
      </trkpt>
      <trkpt lat="44.13787" lon="2.1826">
        <ele>260</ele>
        <time>2019-11-06T16:31:04Z</time>
      </trkpt>
      <trkpt lat="44.13763" lon="2.18298">
        <ele>263</ele>
        <time>2019-11-06T16:31:33Z</time>
      </trkpt>
      <trkpt lat="44.13743" lon="2.18359">
        <ele>267</ele>
        <time>2019-11-06T16:32:11Z</time>
      </trkpt>
      <trkpt lat="44.13745" lon="2.18375">
        <ele>266</ele>
        <time>2019-11-06T16:32:21Z</time>
      </trkpt>
      <trkpt lat="44.1374" lon="2.18422">
        <ele>267</ele>
        <time>2019-11-06T16:32:48Z</time>
      </trkpt>
      <trkpt lat="44.13743" lon="2.18463">
        <ele>263</ele>
        <time>2019-11-06T16:33:12Z</time>
      </trkpt>
      <trkpt lat="44.1374" lon="2.18491">
        <ele>263</ele>
        <time>2019-11-06T16:33:28Z</time>
      </trkpt>
      <trkpt lat="44.13717" lon="2.18621">
        <ele>271</ele>
        <time>2019-11-06T16:34:45Z</time>
      </trkpt>
      <trkpt lat="44.13711" lon="2.18684">
        <ele>271</ele>
        <time>2019-11-06T16:35:21Z</time>
      </trkpt>
      <trkpt lat="44.13717" lon="2.18864">
        <ele>261</ele>
        <time>2019-11-06T16:37:05Z</time>
      </trkpt>
      <trkpt lat="44.13723" lon="2.18897">
        <ele>261</ele>
        <time>2019-11-06T16:37:24Z</time>
      </trkpt>
      <trkpt lat="44.13725" lon="2.18958">
        <ele>265</ele>
        <time>2019-11-06T16:37:59Z</time>
      </trkpt>
      <trkpt lat="44.13721" lon="2.18978">
        <ele>268</ele>
        <time>2019-11-06T16:38:11Z</time>
      </trkpt>
      <trkpt lat="44.13726" lon="2.19058">
        <ele>279</ele>
        <time>2019-11-06T16:38:58Z</time>
      </trkpt>
      <trkpt lat="44.13725" lon="2.19123">
        <ele>291</ele>
        <time>2019-11-06T16:39:35Z</time>
      </trkpt>
      <trkpt lat="44.13727" lon="2.19176">
        <ele>299</ele>
        <time>2019-11-06T16:40:05Z</time>
      </trkpt>
      <trkpt lat="44.13723" lon="2.1926">
        <ele>313</ele>
        <time>2019-11-06T16:40:54Z</time>
      </trkpt>
      <trkpt lat="44.13715" lon="2.19275">
        <ele>315</ele>
        <time>2019-11-06T16:41:05Z</time>
      </trkpt>
      <trkpt lat="44.13685" lon="2.19286">
        <ele>320</ele>
        <time>2019-11-06T16:41:29Z</time>
      </trkpt>
      <trkpt lat="44.13656" lon="2.19288">
        <ele>323</ele>
        <time>2019-11-06T16:41:53Z</time>
      </trkpt>
      <trkpt lat="44.13621" lon="2.19304">
        <ele>328</ele>
        <time>2019-11-06T16:42:22Z</time>
      </trkpt>
      <trkpt lat="44.13576" lon="2.19338">
        <ele>335</ele>
        <time>2019-11-06T16:43:03Z</time>
      </trkpt>
      <trkpt lat="44.1354" lon="2.19408">
        <ele>344</ele>
        <time>2019-11-06T16:43:53Z</time>
      </trkpt>
      <trkpt lat="44.13504" lon="2.19459">
        <ele>351</ele>
        <time>2019-11-06T16:44:34Z</time>
      </trkpt>
      <trkpt lat="44.13447" lon="2.19532">
        <ele>360</ele>
        <time>2019-11-06T16:45:36Z</time>
      </trkpt>
      <trkpt lat="44.13375" lon="2.19579">
        <ele>367</ele>
        <time>2019-11-06T16:46:39Z</time>
      </trkpt>
      <trkpt lat="44.1335" lon="2.19592">
        <ele>368</ele>
        <time>2019-11-06T16:47:01Z</time>
      </trkpt>
      <trkpt lat="44.1329" lon="2.19635">
        <ele>368</ele>
        <time>2019-11-06T16:47:55Z</time>
      </trkpt>
      <trkpt lat="44.13121" lon="2.19793">
        <ele>367</ele>
        <time>2019-11-06T16:50:38Z</time>
      </trkpt>
      <trkpt lat="44.13091" lon="2.19825">
        <ele>367</ele>
        <time>2019-11-06T16:51:08Z</time>
      </trkpt>
      <trkpt lat="44.13067" lon="2.19855">
        <ele>366</ele>
        <time>2019-11-06T16:51:34Z</time>
      </trkpt>
      <trkpt lat="44.13018" lon="2.19923">
        <ele>367</ele>
        <time>2019-11-06T16:52:29Z</time>
      </trkpt>
      <trkpt lat="44.1295" lon="2.20009">
        <ele>368</ele>
        <time>2019-11-06T16:53:43Z</time>
      </trkpt>
      <trkpt lat="44.12916" lon="2.20069">
        <ele>371</ele>
        <time>2019-11-06T16:54:27Z</time>
      </trkpt>
      <trkpt lat="44.12903" lon="2.20099">
        <ele>372</ele>
        <time>2019-11-06T16:54:47Z</time>
      </trkpt>
      <trkpt lat="44.12832" lon="2.20299">
        <ele>378</ele>
        <time>2019-11-06T16:56:55Z</time>
      </trkpt>
      <trkpt lat="44.12797" lon="2.20374">
        <ele>383</ele>
        <time>2019-11-06T16:57:46Z</time>
      </trkpt>
      <trkpt lat="44.12772" lon="2.20447">
        <ele>387</ele>
        <time>2019-11-06T16:58:33Z</time>
      </trkpt>
      <trkpt lat="44.12765" lon="2.20474">
        <ele>388</ele>
        <time>2019-11-06T16:58:49Z</time>
      </trkpt>
      <trkpt lat="44.1275" lon="2.20442">
        <ele>388</ele>
        <time>2019-11-06T16:59:11Z</time>
      </trkpt>
      <trkpt lat="44.12737" lon="2.20426">
        <ele>387</ele>
        <time>2019-11-06T16:59:25Z</time>
      </trkpt>
      <trkpt lat="44.12696" lon="2.2039">
        <ele>385</ele>
        <time>2019-11-06T17:00:04Z</time>
      </trkpt>
      <trkpt lat="44.12653" lon="2.20365">
        <ele>384</ele>
        <time>2019-11-06T17:00:41Z</time>
      </trkpt>
      <trkpt lat="44.12627" lon="2.20354">
        <ele>383</ele>
        <time>2019-11-06T17:01:03Z</time>
      </trkpt>
      <trkpt lat="44.12561" lon="2.20319">
        <ele>377</ele>
        <time>2019-11-06T17:02:00Z</time>
      </trkpt>
      <trkpt lat="44.12544" lon="2.20307">
        <ele>374</ele>
        <time>2019-11-06T17:02:15Z</time>
      </trkpt>
      <trkpt lat="44.12475" lon="2.2027">
        <ele>360</ele>
        <time>2019-11-06T17:03:14Z</time>
      </trkpt>
      <trkpt lat="44.12472" lon="2.20268">
        <ele>359</ele>
        <time>2019-11-06T17:03:17Z</time>
      </trkpt>
      <trkpt lat="44.12476" lon="2.20248">
        <ele>357</ele>
        <time>2019-11-06T17:03:29Z</time>
      </trkpt>
      <trkpt lat="44.12474" lon="2.20243">
        <ele>356</ele>
        <time>2019-11-06T17:03:32Z</time>
      </trkpt>
      <trkpt lat="44.12403" lon="2.20321">
        <ele>355</ele>
        <time>2019-11-06T17:04:44Z</time>
      </trkpt>
      <trkpt lat="44.12388" lon="2.20352">
        <ele>354</ele>
        <time>2019-11-06T17:05:06Z</time>
      </trkpt>
      <trkpt lat="44.12389" lon="2.20329">
        <ele>353</ele>
        <time>2019-11-06T17:05:19Z</time>
      </trkpt>
      <trkpt lat="44.12383" lon="2.20331">
        <ele>352</ele>
        <time>2019-11-06T17:05:24Z</time>
      </trkpt>
      <trkpt lat="44.12381" lon="2.20338">
        <ele>352</ele>
        <time>2019-11-06T17:05:28Z</time>
      </trkpt>
      <trkpt lat="44.12382" lon="2.20378">
        <ele>354</ele>
        <time>2019-11-06T17:05:51Z</time>
      </trkpt>
      <trkpt lat="44.12386" lon="2.20392">
        <ele>355</ele>
        <time>2019-11-06T17:06:00Z</time>
      </trkpt>
      <trkpt lat="44.12388" lon="2.20425">
        <ele>357</ele>
        <time>2019-11-06T17:06:19Z</time>
      </trkpt>
      <trkpt lat="44.12361" lon="2.205">
        <ele>353</ele>
        <time>2019-11-06T17:07:07Z</time>
      </trkpt>
      <trkpt lat="44.12357" lon="2.20535">
        <ele>354</ele>
        <time>2019-11-06T17:07:28Z</time>
      </trkpt>
      <trkpt lat="44.1235" lon="2.20545">
        <ele>352</ele>
        <time>2019-11-06T17:07:36Z</time>
      </trkpt>
      <trkpt lat="44.12341" lon="2.20506">
        <ele>348</ele>
        <time>2019-11-06T17:07:59Z</time>
      </trkpt>
      <trkpt lat="44.1234" lon="2.20476">
        <ele>347</ele>
        <time>2019-11-06T17:08:17Z</time>
      </trkpt>
      <trkpt lat="44.12328" lon="2.2045">
        <ele>346</ele>
        <time>2019-11-06T17:08:34Z</time>
      </trkpt>
      <trkpt lat="44.12312" lon="2.20446">
        <ele>350</ele>
        <time>2019-11-06T17:08:47Z</time>
      </trkpt>
      <trkpt lat="44.12282" lon="2.20426">
        <ele>358</ele>
        <time>2019-11-06T17:09:14Z</time>
      </trkpt>
      <trkpt lat="44.12272" lon="2.2039">
        <ele>359</ele>
        <time>2019-11-06T17:09:36Z</time>
      </trkpt>
      <trkpt lat="44.12265" lon="2.2039">
        <ele>361</ele>
        <time>2019-11-06T17:09:42Z</time>
      </trkpt>
      <trkpt lat="44.12245" lon="2.20411">
        <ele>366</ele>
        <time>2019-11-06T17:10:02Z</time>
      </trkpt>
      <trkpt lat="44.12196" lon="2.20454">
        <ele>373</ele>
        <time>2019-11-06T17:10:48Z</time>
      </trkpt>
      <trkpt lat="44.12128" lon="2.20478">
        <ele>379</ele>
        <time>2019-11-06T17:11:44Z</time>
      </trkpt>
      <trkpt lat="44.12094" lon="2.20508">
        <ele>381</ele>
        <time>2019-11-06T17:12:17Z</time>
      </trkpt>
      <trkpt lat="44.1209" lon="2.2051">
        <ele>381</ele>
        <time>2019-11-06T17:12:20Z</time>
      </trkpt>
      <trkpt lat="44.12069" lon="2.20503">
        <ele>381</ele>
        <time>2019-11-06T17:12:37Z</time>
      </trkpt>
      <trkpt lat="44.12066" lon="2.20496">
        <ele>380</ele>
        <time>2019-11-06T17:12:42Z</time>
      </trkpt>
      <trkpt lat="44.12057" lon="2.20497">
        <ele>380</ele>
        <time>2019-11-06T17:12:49Z</time>
      </trkpt>
      <trkpt lat="44.12054" lon="2.20533">
        <ele>382</ele>
        <time>2019-11-06T17:13:10Z</time>
      </trkpt>
      <trkpt lat="44.12014" lon="2.20545">
        <ele>381</ele>
        <time>2019-11-06T17:13:43Z</time>
      </trkpt>
      <trkpt lat="44.12004" lon="2.20558">
        <ele>382</ele>
        <time>2019-11-06T17:13:54Z</time>
      </trkpt>
      <trkpt lat="44.12001" lon="2.20642">
        <ele>385</ele>
        <time>2019-11-06T17:14:42Z</time>
      </trkpt>
      <trkpt lat="44.12005" lon="2.20868">
        <ele>390</ele>
        <time>2019-11-06T17:16:52Z</time>
      </trkpt>
      <trkpt lat="44.12004" lon="2.20911">
        <ele>391</ele>
        <time>2019-11-06T17:17:17Z</time>
      </trkpt>
      <trkpt lat="44.12" lon="2.20945">
        <ele>391</ele>
        <time>2019-11-06T17:17:36Z</time>
      </trkpt>
      <trkpt lat="44.11988" lon="2.20987">
        <ele>391</ele>
        <time>2019-11-06T17:18:02Z</time>
      </trkpt>
      <trkpt lat="44.1197" lon="2.21026">
        <ele>390</ele>
        <time>2019-11-06T17:18:29Z</time>
      </trkpt>
      <trkpt lat="44.11931" lon="2.21096">
        <ele>392</ele>
        <time>2019-11-06T17:19:20Z</time>
      </trkpt>
      <trkpt lat="44.11926" lon="2.21097">
        <ele>393</ele>
        <time>2019-11-06T17:19:24Z</time>
      </trkpt>
      <trkpt lat="44.1187" lon="2.21176">
        <ele>390</ele>
        <time>2019-11-06T17:20:28Z</time>
      </trkpt>
      <trkpt lat="44.11846" lon="2.21224">
        <ele>390</ele>
        <time>2019-11-06T17:21:02Z</time>
      </trkpt>
      <trkpt lat="44.11822" lon="2.21303">
        <ele>388</ele>
        <time>2019-11-06T17:21:51Z</time>
      </trkpt>
      <trkpt lat="44.11816" lon="2.21364">
        <ele>387</ele>
        <time>2019-11-06T17:22:26Z</time>
      </trkpt>
      <trkpt lat="44.11801" lon="2.21447">
        <ele>388</ele>
        <time>2019-11-06T17:23:15Z</time>
      </trkpt>
      <trkpt lat="44.11797" lon="2.21481">
        <ele>388</ele>
        <time>2019-11-06T17:23:35Z</time>
      </trkpt>
      <trkpt lat="44.11799" lon="2.21486">
        <ele>388</ele>
        <time>2019-11-06T17:23:39Z</time>
      </trkpt>
      <trkpt lat="44.11877" lon="2.21527">
        <ele>390</ele>
        <time>2019-11-06T17:24:45Z</time>
      </trkpt>
      <trkpt lat="44.11901" lon="2.21664">
        <ele>393</ele>
        <time>2019-11-06T17:26:06Z</time>
      </trkpt>
      <trkpt lat="44.11907" lon="2.2171">
        <ele>395</ele>
        <time>2019-11-06T17:26:33Z</time>
      </trkpt>
      <trkpt lat="44.11879" lon="2.21718">
        <ele>394</ele>
        <time>2019-11-06T17:26:56Z</time>
      </trkpt>
      <trkpt lat="44.11896" lon="2.21831">
        <ele>393</ele>
        <time>2019-11-06T17:28:02Z</time>
      </trkpt>
      <trkpt lat="44.11908" lon="2.21887">
        <ele>391</ele>
        <time>2019-11-06T17:28:36Z</time>
      </trkpt>
      <trkpt lat="44.11975" lon="2.22015">
        <ele>382</ele>
        <time>2019-11-06T17:30:07Z</time>
      </trkpt>
      <trkpt lat="44.11988" lon="2.22031">
        <ele>381</ele>
        <time>2019-11-06T17:30:21Z</time>
      </trkpt>
      <trkpt lat="44.11978" lon="2.22062">
        <ele>381</ele>
        <time>2019-11-06T17:30:41Z</time>
      </trkpt>
      <trkpt lat="44.11954" lon="2.22092">
        <ele>381</ele>
        <time>2019-11-06T17:31:06Z</time>
      </trkpt>
      <trkpt lat="44.11909" lon="2.22122">
        <ele>381</ele>
        <time>2019-11-06T17:31:46Z</time>
      </trkpt>
      <trkpt lat="44.11894" lon="2.22141">
        <ele>381</ele>
        <time>2019-11-06T17:32:03Z</time>
      </trkpt>
      <trkpt lat="44.11842" lon="2.22195">
        <ele>382</ele>
        <time>2019-11-06T17:32:54Z</time>
      </trkpt>
      <trkpt lat="44.11839" lon="2.22224">
        <ele>383</ele>
        <time>2019-11-06T17:33:11Z</time>
      </trkpt>
      <trkpt lat="44.11844" lon="2.2225">
        <ele>383</ele>
        <time>2019-11-06T17:33:27Z</time>
      </trkpt>
      <trkpt lat="44.11834" lon="2.22249">
        <ele>383</ele>
        <time>2019-11-06T17:33:35Z</time>
      </trkpt>
      <trkpt lat="44.11837" lon="2.22274">
        <ele>384</ele>
        <time>2019-11-06T17:33:49Z</time>
      </trkpt>
      <trkpt lat="44.11835" lon="2.22324">
        <ele>385</ele>
        <time>2019-11-06T17:34:18Z</time>
      </trkpt>
      <trkpt lat="44.11845" lon="2.22346">
        <ele>386</ele>
        <time>2019-11-06T17:34:33Z</time>
      </trkpt>
      <trkpt lat="44.11852" lon="2.22405">
        <ele>389</ele>
        <time>2019-11-06T17:35:08Z</time>
      </trkpt>
      <trkpt lat="44.11853" lon="2.22441">
        <ele>391</ele>
        <time>2019-11-06T17:35:28Z</time>
      </trkpt>
      <trkpt lat="44.11849" lon="2.225">
        <ele>392</ele>
        <time>2019-11-06T17:36:02Z</time>
      </trkpt>
      <trkpt lat="44.11851" lon="2.22563">
        <ele>396</ele>
        <time>2019-11-06T17:36:39Z</time>
      </trkpt>
      <trkpt lat="44.1184" lon="2.22649">
        <ele>402</ele>
        <time>2019-11-06T17:37:29Z</time>
      </trkpt>
      <trkpt lat="44.11828" lon="2.22724">
        <ele>406</ele>
        <time>2019-11-06T17:38:13Z</time>
      </trkpt>
      <trkpt lat="44.11823" lon="2.22738">
        <ele>407</ele>
        <time>2019-11-06T17:38:22Z</time>
      </trkpt>
      <trkpt lat="44.11849" lon="2.22883">
        <ele>409</ele>
        <time>2019-11-06T17:39:48Z</time>
      </trkpt>
      <trkpt lat="44.11849" lon="2.22895">
        <ele>409</ele>
        <time>2019-11-06T17:39:55Z</time>
      </trkpt>
      <trkpt lat="44.11744" lon="2.22906">
        <ele>407</ele>
        <time>2019-11-06T17:41:19Z</time>
      </trkpt>
      <trkpt lat="44.11693" lon="2.22922">
        <ele>406</ele>
        <time>2019-11-06T17:42:01Z</time>
      </trkpt>
      <trkpt lat="44.11649" lon="2.22927">
        <ele>405</ele>
        <time>2019-11-06T17:42:36Z</time>
      </trkpt>
      <trkpt lat="44.11503" lon="2.22978">
        <ele>403</ele>
        <time>2019-11-06T17:44:37Z</time>
      </trkpt>
      <trkpt lat="44.11497" lon="2.22984">
        <ele>403</ele>
        <time>2019-11-06T17:44:43Z</time>
      </trkpt>
      <trkpt lat="44.11491" lon="2.22977">
        <ele>402</ele>
        <time>2019-11-06T17:44:49Z</time>
      </trkpt>
      <trkpt lat="44.11437" lon="2.2298">
        <ele>403</ele>
        <time>2019-11-06T17:45:32Z</time>
      </trkpt>
      <trkpt lat="44.114" lon="2.22991">
        <ele>402</ele>
        <time>2019-11-06T17:46:02Z</time>
      </trkpt>
      <trkpt lat="44.11361" lon="2.23006">
        <ele>401</ele>
        <time>2019-11-06T17:46:35Z</time>
      </trkpt>
      <trkpt lat="44.11354" lon="2.23006">
        <ele>401</ele>
        <time>2019-11-06T17:46:40Z</time>
      </trkpt>
      <trkpt lat="44.11344" lon="2.23119">
        <ele>402</ele>
        <time>2019-11-06T17:47:46Z</time>
      </trkpt>
      <trkpt lat="44.11338" lon="2.23235">
        <ele>401</ele>
        <time>2019-11-06T17:48:53Z</time>
      </trkpt>
      <trkpt lat="44.11345" lon="2.23295">
        <ele>400</ele>
        <time>2019-11-06T17:49:28Z</time>
      </trkpt>
      <trkpt lat="44.11346" lon="2.23334">
        <ele>399</ele>
        <time>2019-11-06T17:49:50Z</time>
      </trkpt>
      <trkpt lat="44.11339" lon="2.2336">
        <ele>398</ele>
        <time>2019-11-06T17:50:06Z</time>
      </trkpt>
      <trkpt lat="44.11322" lon="2.23391">
        <ele>395</ele>
        <time>2019-11-06T17:50:29Z</time>
      </trkpt>
      <trkpt lat="44.11312" lon="2.23428">
        <ele>393</ele>
        <time>2019-11-06T17:50:51Z</time>
      </trkpt>
      <trkpt lat="44.11294" lon="2.23573">
        <ele>386</ele>
        <time>2019-11-06T17:52:16Z</time>
      </trkpt>
      <trkpt lat="44.11295" lon="2.23604">
        <ele>385</ele>
        <time>2019-11-06T17:52:34Z</time>
      </trkpt>
      <trkpt lat="44.113" lon="2.23621">
        <ele>384</ele>
        <time>2019-11-06T17:52:44Z</time>
      </trkpt>
      <trkpt lat="44.11299" lon="2.23645">
        <ele>383</ele>
        <time>2019-11-06T17:52:58Z</time>
      </trkpt>
      <trkpt lat="44.1128" lon="2.23706">
        <ele>384</ele>
        <time>2019-11-06T17:53:36Z</time>
      </trkpt>
      <trkpt lat="44.11273" lon="2.23738">
        <ele>385</ele>
        <time>2019-11-06T17:53:56Z</time>
      </trkpt>
      <trkpt lat="44.11251" lon="2.23724">
        <ele>384</ele>
        <time>2019-11-06T17:54:15Z</time>
      </trkpt>
      <trkpt lat="44.11229" lon="2.23715">
        <ele>383</ele>
        <time>2019-11-06T17:54:33Z</time>
      </trkpt>
      <trkpt lat="44.11173" lon="2.23701">
        <ele>382</ele>
        <time>2019-11-06T17:55:19Z</time>
      </trkpt>
      <trkpt lat="44.11168" lon="2.23698">
        <ele>382</ele>
        <time>2019-11-06T17:55:23Z</time>
      </trkpt>
      <trkpt lat="44.11156" lon="2.23686">
        <ele>382</ele>
        <time>2019-11-06T17:55:35Z</time>
      </trkpt>
      <trkpt lat="44.11136" lon="2.23656">
        <ele>381</ele>
        <time>2019-11-06T17:55:59Z</time>
      </trkpt>
      <trkpt lat="44.11111" lon="2.23638">
        <ele>380</ele>
        <time>2019-11-06T17:56:21Z</time>
      </trkpt>
      <trkpt lat="44.11064" lon="2.23611">
        <ele>379</ele>
        <time>2019-11-06T17:57:02Z</time>
      </trkpt>
      <trkpt lat="44.10975" lon="2.23548">
        <ele>378</ele>
        <time>2019-11-06T17:58:22Z</time>
      </trkpt>
      <trkpt lat="44.10956" lon="2.23538">
        <ele>376</ele>
        <time>2019-11-06T17:58:38Z</time>
      </trkpt>
      <trkpt lat="44.10928" lon="2.23526">
        <ele>375</ele>
        <time>2019-11-06T17:59:01Z</time>
      </trkpt>
      <trkpt lat="44.10899" lon="2.23517">
        <ele>373</ele>
        <time>2019-11-06T17:59:25Z</time>
      </trkpt>
      <trkpt lat="44.10887" lon="2.23516">
        <ele>373</ele>
        <time>2019-11-06T17:59:35Z</time>
      </trkpt>
      <trkpt lat="44.1082" lon="2.23522">
        <ele>373</ele>
        <time>2019-11-06T18:00:29Z</time>
      </trkpt>
      <trkpt lat="44.10811" lon="2.23519">
        <ele>374</ele>
        <time>2019-11-06T18:00:36Z</time>
      </trkpt>
      <trkpt lat="44.10743" lon="2.23467">
        <ele>373</ele>
        <time>2019-11-06T18:01:38Z</time>
      </trkpt>
      <trkpt lat="44.10696" lon="2.23425">
        <ele>370</ele>
        <time>2019-11-06T18:02:23Z</time>
      </trkpt>
      <trkpt lat="44.10678" lon="2.23414">
        <ele>370</ele>
        <time>2019-11-06T18:02:39Z</time>
      </trkpt>
      <trkpt lat="44.10621" lon="2.23388">
        <ele>371</ele>
        <time>2019-11-06T18:03:27Z</time>
      </trkpt>
      <trkpt lat="44.10574" lon="2.23361">
        <ele>371</ele>
        <time>2019-11-06T18:04:07Z</time>
      </trkpt>
      <trkpt lat="44.10539" lon="2.23348">
        <ele>369</ele>
        <time>2019-11-06T18:04:36Z</time>
      </trkpt>
      <trkpt lat="44.10529" lon="2.2335">
        <ele>369</ele>
        <time>2019-11-06T18:04:44Z</time>
      </trkpt>
      <trkpt lat="44.10511" lon="2.2336">
        <ele>370</ele>
        <time>2019-11-06T18:05:00Z</time>
      </trkpt>
      <trkpt lat="44.10502" lon="2.23375">
        <ele>371</ele>
        <time>2019-11-06T18:05:11Z</time>
      </trkpt>
      <trkpt lat="44.10495" lon="2.2338">
        <ele>371</ele>
        <time>2019-11-06T18:05:17Z</time>
      </trkpt>
      <trkpt lat="44.10489" lon="2.23373">
        <ele>371</ele>
        <time>2019-11-06T18:05:24Z</time>
      </trkpt>
      <trkpt lat="44.10478" lon="2.23341">
        <ele>369</ele>
        <time>2019-11-06T18:05:44Z</time>
      </trkpt>
      <trkpt lat="44.10461" lon="2.2325">
        <ele>363</ele>
        <time>2019-11-06T18:06:38Z</time>
      </trkpt>
      <trkpt lat="44.1045" lon="2.23214">
        <ele>362</ele>
        <time>2019-11-06T18:07:01Z</time>
      </trkpt>
      <trkpt lat="44.10437" lon="2.23186">
        <ele>361</ele>
        <time>2019-11-06T18:07:20Z</time>
      </trkpt>
      <trkpt lat="44.1042" lon="2.23162">
        <ele>361</ele>
        <time>2019-11-06T18:07:39Z</time>
      </trkpt>
      <trkpt lat="44.10408" lon="2.23151">
        <ele>361</ele>
        <time>2019-11-06T18:07:51Z</time>
      </trkpt>
      <trkpt lat="44.10379" lon="2.23138">
        <ele>363</ele>
        <time>2019-11-06T18:08:15Z</time>
      </trkpt>
      <trkpt lat="44.10362" lon="2.23135">
        <ele>364</ele>
        <time>2019-11-06T18:08:29Z</time>
      </trkpt>
      <trkpt lat="44.10287" lon="2.23113">
        <ele>367</ele>
        <time>2019-11-06T18:09:30Z</time>
      </trkpt>
      <trkpt lat="44.10271" lon="2.23112">
        <ele>368</ele>
        <time>2019-11-06T18:09:43Z</time>
      </trkpt>
      <trkpt lat="44.1026" lon="2.23115">
        <ele>369</ele>
        <time>2019-11-06T18:09:52Z</time>
      </trkpt>
      <trkpt lat="44.1024" lon="2.23121">
        <ele>371</ele>
        <time>2019-11-06T18:10:08Z</time>
      </trkpt>
      <trkpt lat="44.10223" lon="2.2313">
        <ele>372</ele>
        <time>2019-11-06T18:10:23Z</time>
      </trkpt>
      <trkpt lat="44.10187" lon="2.23154">
        <ele>374</ele>
        <time>2019-11-06T18:10:55Z</time>
      </trkpt>
      <trkpt lat="44.10138" lon="2.23194">
        <ele>375</ele>
        <time>2019-11-06T18:11:40Z</time>
      </trkpt>
      <trkpt lat="44.10122" lon="2.23211">
        <ele>376</ele>
        <time>2019-11-06T18:11:57Z</time>
      </trkpt>
      <trkpt lat="44.101" lon="2.23221">
        <ele>376</ele>
        <time>2019-11-06T18:12:15Z</time>
      </trkpt>
      <trkpt lat="44.09968" lon="2.23178">
        <ele>384</ele>
        <time>2019-11-06T18:14:04Z</time>
      </trkpt>
      <trkpt lat="44.09942" lon="2.23166">
        <ele>385</ele>
        <time>2019-11-06T18:14:26Z</time>
      </trkpt>
      <trkpt lat="44.09908" lon="2.23159">
        <ele>385</ele>
        <time>2019-11-06T18:14:53Z</time>
      </trkpt>
      <trkpt lat="44.09895" lon="2.2316">
        <ele>385</ele>
        <time>2019-11-06T18:15:03Z</time>
      </trkpt>
      <trkpt lat="44.09885" lon="2.23166">
        <ele>385</ele>
        <time>2019-11-06T18:15:12Z</time>
      </trkpt>
      <trkpt lat="44.09837" lon="2.2321">
        <ele>386</ele>
        <time>2019-11-06T18:15:58Z</time>
      </trkpt>
      <trkpt lat="44.09826" lon="2.23212">
        <ele>387</ele>
        <time>2019-11-06T18:16:07Z</time>
      </trkpt>
      <trkpt lat="44.09813" lon="2.23201">
        <ele>387</ele>
        <time>2019-11-06T18:16:19Z</time>
      </trkpt>
      <trkpt lat="44.09785" lon="2.23135">
        <ele>389</ele>
        <time>2019-11-06T18:17:03Z</time>
      </trkpt>
      <trkpt lat="44.09768" lon="2.2312">
        <ele>390</ele>
        <time>2019-11-06T18:17:19Z</time>
      </trkpt>
      <trkpt lat="44.09739" lon="2.23104">
        <ele>392</ele>
        <time>2019-11-06T18:17:44Z</time>
      </trkpt>
      <trkpt lat="44.0968" lon="2.23092">
        <ele>392</ele>
        <time>2019-11-06T18:18:32Z</time>
      </trkpt>
      <trkpt lat="44.09652" lon="2.23092">
        <ele>393</ele>
        <time>2019-11-06T18:18:55Z</time>
      </trkpt>
      <trkpt lat="44.09635" lon="2.23097">
        <ele>394</ele>
        <time>2019-11-06T18:19:09Z</time>
      </trkpt>
      <trkpt lat="44.09619" lon="2.23072">
        <ele>393</ele>
        <time>2019-11-06T18:19:28Z</time>
      </trkpt>
      <trkpt lat="44.09597" lon="2.23047">
        <ele>394</ele>
        <time>2019-11-06T18:19:50Z</time>
      </trkpt>
      <trkpt lat="44.09569" lon="2.23024">
        <ele>395</ele>
        <time>2019-11-06T18:20:17Z</time>
      </trkpt>
      <trkpt lat="44.09526" lon="2.23003">
        <ele>397</ele>
        <time>2019-11-06T18:20:53Z</time>
      </trkpt>
      <trkpt lat="44.09462" lon="2.22989">
        <ele>397</ele>
        <time>2019-11-06T18:21:45Z</time>
      </trkpt>
      <trkpt lat="44.09278" lon="2.23012">
        <ele>390</ele>
        <time>2019-11-06T18:24:13Z</time>
      </trkpt>
      <trkpt lat="44.09226" lon="2.22925">
        <ele>389</ele>
        <time>2019-11-06T18:25:18Z</time>
      </trkpt>
      <trkpt lat="44.09211" lon="2.22893">
        <ele>389</ele>
        <time>2019-11-06T18:25:40Z</time>
      </trkpt>
      <trkpt lat="44.09163" lon="2.22824">
        <ele>387</ele>
        <time>2019-11-06T18:26:35Z</time>
      </trkpt>
      <trkpt lat="44.0915" lon="2.22813">
        <ele>386</ele>
        <time>2019-11-06T18:26:47Z</time>
      </trkpt>
      <trkpt lat="44.09111" lon="2.22771">
        <ele>381</ele>
        <time>2019-11-06T18:27:27Z</time>
      </trkpt>
      <trkpt lat="44.09019" lon="2.22644">
        <ele>376</ele>
        <time>2019-11-06T18:29:10Z</time>
      </trkpt>
      <trkpt lat="44.09012" lon="2.22636">
        <ele>375</ele>
        <time>2019-11-06T18:29:18Z</time>
      </trkpt>
      <trkpt lat="44.09005" lon="2.22632">
        <ele>375</ele>
        <time>2019-11-06T18:29:24Z</time>
      </trkpt>
      <trkpt lat="44.08987" lon="2.22627">
        <ele>373</ele>
        <time>2019-11-06T18:29:38Z</time>
      </trkpt>
      <trkpt lat="44.08946" lon="2.22628">
        <ele>368</ele>
        <time>2019-11-06T18:30:11Z</time>
      </trkpt>
      <trkpt lat="44.08933" lon="2.22626">
        <ele>367</ele>
        <time>2019-11-06T18:30:22Z</time>
      </trkpt>
      <trkpt lat="44.08901" lon="2.22614">
        <ele>365</ele>
        <time>2019-11-06T18:30:48Z</time>
      </trkpt>
      <trkpt lat="44.08871" lon="2.22597">
        <ele>364</ele>
        <time>2019-11-06T18:31:14Z</time>
      </trkpt>
      <trkpt lat="44.08859" lon="2.22593">
        <ele>364</ele>
        <time>2019-11-06T18:31:24Z</time>
      </trkpt>
      <trkpt lat="44.0884" lon="2.22596">
        <ele>362</ele>
        <time>2019-11-06T18:31:39Z</time>
      </trkpt>
      <trkpt lat="44.08776" lon="2.22593">
        <ele>357</ele>
        <time>2019-11-06T18:32:31Z</time>
      </trkpt>
      <trkpt lat="44.08712" lon="2.22595">
        <ele>349</ele>
        <time>2019-11-06T18:33:22Z</time>
      </trkpt>
      <trkpt lat="44.08618" lon="2.22593">
        <ele>338</ele>
        <time>2019-11-06T18:34:37Z</time>
      </trkpt>
      <trkpt lat="44.08592" lon="2.22601">
        <ele>333</ele>
        <time>2019-11-06T18:34:59Z</time>
      </trkpt>
      <trkpt lat="44.08618" lon="2.22593">
        <ele>338</ele>
        <time>2019-11-06T18:35:20Z</time>
      </trkpt>
      <trkpt lat="44.08592" lon="2.22601">
        <ele>333</ele>
        <time>2019-11-06T18:35:41Z</time>
      </trkpt>
      <trkpt lat="44.08618" lon="2.22593">
        <ele>338</ele>
        <time>2019-11-06T18:36:03Z</time>
      </trkpt>
      <trkpt lat="44.08723" lon="2.22644">
        <ele>338</ele>
        <time>2019-11-06T18:37:32Z</time>
      </trkpt>
      <trkpt lat="44.08762" lon="2.22657">
        <ele>337</ele>
        <time>2019-11-06T18:38:04Z</time>
      </trkpt>
      <trkpt lat="44.08776" lon="2.22665">
        <ele>337</ele>
        <time>2019-11-06T18:38:16Z</time>
      </trkpt>
      <trkpt lat="44.08798" lon="2.22686">
        <ele>336</ele>
        <time>2019-11-06T18:38:37Z</time>
      </trkpt>
      <trkpt lat="44.08857" lon="2.22728">
        <ele>334</ele>
        <time>2019-11-06T18:39:30Z</time>
      </trkpt>
      <trkpt lat="44.08871" lon="2.22742">
        <ele>332</ele>
        <time>2019-11-06T18:39:44Z</time>
      </trkpt>
      <trkpt lat="44.08882" lon="2.22758">
        <ele>331</ele>
        <time>2019-11-06T18:39:57Z</time>
      </trkpt>
      <trkpt lat="44.08882" lon="2.22762">
        <ele>331</ele>
        <time>2019-11-06T18:39:59Z</time>
      </trkpt>
      <trkpt lat="44.08876" lon="2.22767">
        <ele>330</ele>
        <time>2019-11-06T18:40:05Z</time>
      </trkpt>
      <trkpt lat="44.08882" lon="2.22779">
        <ele>330</ele>
        <time>2019-11-06T18:40:13Z</time>
      </trkpt>
      <trkpt lat="44.08889" lon="2.22808">
        <ele>329</ele>
        <time>2019-11-06T18:40:31Z</time>
      </trkpt>
      <trkpt lat="44.08892" lon="2.22838">
        <ele>327</ele>
        <time>2019-11-06T18:40:48Z</time>
      </trkpt>
      <trkpt lat="44.0889" lon="2.22865">
        <ele>330</ele>
        <time>2019-11-06T18:41:04Z</time>
      </trkpt>
      <trkpt lat="44.08881" lon="2.22882">
        <ele>332</ele>
        <time>2019-11-06T18:41:16Z</time>
      </trkpt>
      <trkpt lat="44.08861" lon="2.22899">
        <ele>334</ele>
        <time>2019-11-06T18:41:35Z</time>
      </trkpt>
      <trkpt lat="44.08842" lon="2.2291">
        <ele>335</ele>
        <time>2019-11-06T18:41:51Z</time>
      </trkpt>
      <trkpt lat="44.0883" lon="2.22914">
        <ele>336</ele>
        <time>2019-11-06T18:42:01Z</time>
      </trkpt>
      <trkpt lat="44.08812" lon="2.22911">
        <ele>339</ele>
        <time>2019-11-06T18:42:15Z</time>
      </trkpt>
      <trkpt lat="44.08788" lon="2.22912">
        <ele>344</ele>
        <time>2019-11-06T18:42:35Z</time>
      </trkpt>
      <trkpt lat="44.08779" lon="2.22915">
        <ele>346</ele>
        <time>2019-11-06T18:42:42Z</time>
      </trkpt>
      <trkpt lat="44.08756" lon="2.22933">
        <ele>348</ele>
        <time>2019-11-06T18:43:03Z</time>
      </trkpt>
      <trkpt lat="44.08742" lon="2.22921">
        <ele>351</ele>
        <time>2019-11-06T18:43:16Z</time>
      </trkpt>
      <trkpt lat="44.08735" lon="2.22906">
        <ele>352</ele>
        <time>2019-11-06T18:43:27Z</time>
      </trkpt>
      <trkpt lat="44.08662" lon="2.22972">
        <ele>362</ele>
        <time>2019-11-06T18:44:36Z</time>
      </trkpt>
      <trkpt lat="44.08644" lon="2.2299">
        <ele>365</ele>
        <time>2019-11-06T18:44:54Z</time>
      </trkpt>
      <trkpt lat="44.08616" lon="2.23024">
        <ele>370</ele>
        <time>2019-11-06T18:45:24Z</time>
      </trkpt>
      <trkpt lat="44.08584" lon="2.23015">
        <ele>377</ele>
        <time>2019-11-06T18:45:50Z</time>
      </trkpt>
      <trkpt lat="44.08574" lon="2.2301">
        <ele>377</ele>
        <time>2019-11-06T18:45:59Z</time>
      </trkpt>
      <trkpt lat="44.08569" lon="2.23017">
        <ele>377</ele>
        <time>2019-11-06T18:46:04Z</time>
      </trkpt>
      <trkpt lat="44.08551" lon="2.23127">
        <ele>383</ele>
        <time>2019-11-06T18:47:09Z</time>
      </trkpt>
      <trkpt lat="44.08545" lon="2.2315">
        <ele>384</ele>
        <time>2019-11-06T18:47:23Z</time>
      </trkpt>
      <trkpt lat="44.08526" lon="2.23184">
        <ele>386</ele>
        <time>2019-11-06T18:47:48Z</time>
      </trkpt>
      <trkpt lat="44.08518" lon="2.2321">
        <ele>386</ele>
        <time>2019-11-06T18:48:04Z</time>
      </trkpt>
      <trkpt lat="44.08497" lon="2.23297">
        <ele>389</ele>
        <time>2019-11-06T18:48:57Z</time>
      </trkpt>
      <trkpt lat="44.08486" lon="2.23354">
        <ele>390</ele>
        <time>2019-11-06T18:49:31Z</time>
      </trkpt>
      <trkpt lat="44.08467" lon="2.23386">
        <ele>390</ele>
        <time>2019-11-06T18:49:55Z</time>
      </trkpt>
      <trkpt lat="44.08455" lon="2.23418">
        <ele>391</ele>
        <time>2019-11-06T18:50:16Z</time>
      </trkpt>
      <trkpt lat="44.08454" lon="2.23423">
        <ele>391</ele>
        <time>2019-11-06T18:50:19Z</time>
      </trkpt>
      <trkpt lat="44.08467" lon="2.2344">
        <ele>390</ele>
        <time>2019-11-06T18:50:33Z</time>
      </trkpt>
      <trkpt lat="44.08469" lon="2.23447">
        <ele>390</ele>
        <time>2019-11-06T18:50:37Z</time>
      </trkpt>
      <trkpt lat="44.08468" lon="2.23497">
        <ele>390</ele>
        <time>2019-11-06T18:51:06Z</time>
      </trkpt>
      <trkpt lat="44.08464" lon="2.23522">
        <ele>391</ele>
        <time>2019-11-06T18:51:21Z</time>
      </trkpt>
      <trkpt lat="44.08427" lon="2.23638">
        <ele>397</ele>
        <time>2019-11-06T18:52:34Z</time>
      </trkpt>
      <trkpt lat="44.08397" lon="2.23705">
        <ele>398</ele>
        <time>2019-11-06T18:53:19Z</time>
      </trkpt>
      <trkpt lat="44.08358" lon="2.23765">
        <ele>399</ele>
        <time>2019-11-06T18:54:06Z</time>
      </trkpt>
      <trkpt lat="44.08313" lon="2.23853">
        <ele>402</ele>
        <time>2019-11-06T18:55:08Z</time>
      </trkpt>
      <trkpt lat="44.0824" lon="2.24052">
        <ele>402</ele>
        <time>2019-11-06T18:57:16Z</time>
      </trkpt>
      <trkpt lat="44.08151" lon="2.24252">
        <ele>404</ele>
        <time>2019-11-06T18:59:32Z</time>
      </trkpt>
      <trkpt lat="44.0814" lon="2.24297">
        <ele>405</ele>
        <time>2019-11-06T18:59:59Z</time>
      </trkpt>
      <trkpt lat="44.08138" lon="2.24406">
        <ele>406</ele>
        <time>2019-11-06T19:01:02Z</time>
      </trkpt>
      <trkpt lat="44.08134" lon="2.24424">
        <ele>406</ele>
        <time>2019-11-06T19:01:12Z</time>
      </trkpt>
      <trkpt lat="44.08125" lon="2.24438">
        <ele>406</ele>
        <time>2019-11-06T19:01:23Z</time>
      </trkpt>
      <trkpt lat="44.08198" lon="2.24613">
        <ele>411</ele>
        <time>2019-11-06T19:03:20Z</time>
      </trkpt>
      <trkpt lat="44.08225" lon="2.24693">
        <ele>414</ele>
        <time>2019-11-06T19:04:11Z</time>
      </trkpt>
      <trkpt lat="44.08246" lon="2.24777">
        <ele>416</ele>
        <time>2019-11-06T19:05:02Z</time>
      </trkpt>
      <trkpt lat="44.0826" lon="2.2487">
        <ele>417</ele>
        <time>2019-11-06T19:05:56Z</time>
      </trkpt>
      <trkpt lat="44.0825" lon="2.24874">
        <ele>416</ele>
        <time>2019-11-06T19:06:05Z</time>
      </trkpt>
      <trkpt lat="44.08226" lon="2.24895">
        <ele>416</ele>
        <time>2019-11-06T19:06:27Z</time>
      </trkpt>
      <trkpt lat="44.08162" lon="2.24933">
        <ele>416</ele>
        <time>2019-11-06T19:07:23Z</time>
      </trkpt>
      <trkpt lat="44.08098" lon="2.24967">
        <ele>414</ele>
        <time>2019-11-06T19:08:18Z</time>
      </trkpt>
      <trkpt lat="44.08077" lon="2.24986">
        <ele>414</ele>
        <time>2019-11-06T19:08:38Z</time>
      </trkpt>
      <trkpt lat="44.08019" lon="2.25054">
        <ele>413</ele>
        <time>2019-11-06T19:09:39Z</time>
      </trkpt>
      <trkpt lat="44.08" lon="2.25071">
        <ele>412</ele>
        <time>2019-11-06T19:09:57Z</time>
      </trkpt>
      <trkpt lat="44.07943" lon="2.25114">
        <ele>411</ele>
        <time>2019-11-06T19:10:49Z</time>
      </trkpt>
      <trkpt lat="44.07928" lon="2.25121">
        <ele>410</ele>
        <time>2019-11-06T19:11:01Z</time>
      </trkpt>
      <trkpt lat="44.07882" lon="2.25112">
        <ele>407</ele>
        <time>2019-11-06T19:11:39Z</time>
      </trkpt>
      <trkpt lat="44.07872" lon="2.25112">
        <ele>407</ele>
        <time>2019-11-06T19:11:47Z</time>
      </trkpt>
      <trkpt lat="44.07865" lon="2.25116">
        <ele>406</ele>
        <time>2019-11-06T19:11:53Z</time>
      </trkpt>
      <trkpt lat="44.07857" lon="2.25126">
        <ele>406</ele>
        <time>2019-11-06T19:12:01Z</time>
      </trkpt>
      <trkpt lat="44.07835" lon="2.25161">
        <ele>404</ele>
        <time>2019-11-06T19:12:28Z</time>
      </trkpt>
      <trkpt lat="44.07823" lon="2.2517">
        <ele>404</ele>
        <time>2019-11-06T19:12:39Z</time>
      </trkpt>
      <trkpt lat="44.07812" lon="2.25168">
        <ele>404</ele>
        <time>2019-11-06T19:12:48Z</time>
      </trkpt>
      <trkpt lat="44.07801" lon="2.25162">
        <ele>404</ele>
        <time>2019-11-06T19:12:57Z</time>
      </trkpt>
      <trkpt lat="44.07779" lon="2.25155">
        <ele>403</ele>
        <time>2019-11-06T19:13:15Z</time>
      </trkpt>
      <trkpt lat="44.07753" lon="2.25153">
        <ele>403</ele>
        <time>2019-11-06T19:13:36Z</time>
      </trkpt>
      <trkpt lat="44.07744" lon="2.25159">
        <ele>403</ele>
        <time>2019-11-06T19:13:44Z</time>
      </trkpt>
      <trkpt lat="44.07649" lon="2.25272">
        <ele>401</ele>
        <time>2019-11-06T19:15:24Z</time>
      </trkpt>
      <trkpt lat="44.07631" lon="2.25283">
        <ele>400</ele>
        <time>2019-11-06T19:15:40Z</time>
      </trkpt>
      <trkpt lat="44.07608" lon="2.25277">
        <ele>399</ele>
        <time>2019-11-06T19:15:59Z</time>
      </trkpt>
      <trkpt lat="44.07543" lon="2.25269">
        <ele>398</ele>
        <time>2019-11-06T19:16:51Z</time>
      </trkpt>
      <trkpt lat="44.07528" lon="2.25271">
        <ele>397</ele>
        <time>2019-11-06T19:17:03Z</time>
      </trkpt>
      <trkpt lat="44.07496" lon="2.2527">
        <ele>397</ele>
        <time>2019-11-06T19:17:29Z</time>
      </trkpt>
      <trkpt lat="44.07455" lon="2.2528">
        <ele>396</ele>
        <time>2019-11-06T19:18:02Z</time>
      </trkpt>
      <trkpt lat="44.07436" lon="2.25305">
        <ele>396</ele>
        <time>2019-11-06T19:18:23Z</time>
      </trkpt>
      <trkpt lat="44.07421" lon="2.25332">
        <ele>396</ele>
        <time>2019-11-06T19:18:42Z</time>
      </trkpt>
      <trkpt lat="44.07411" lon="2.25345">
        <ele>395</ele>
        <time>2019-11-06T19:18:53Z</time>
      </trkpt>
      <trkpt lat="44.07397" lon="2.25352">
        <ele>394</ele>
        <time>2019-11-06T19:19:05Z</time>
      </trkpt>
      <trkpt lat="44.07359" lon="2.25348">
        <ele>393</ele>
        <time>2019-11-06T19:19:36Z</time>
      </trkpt>
      <trkpt lat="44.07347" lon="2.25343">
        <ele>392</ele>
        <time>2019-11-06T19:19:46Z</time>
      </trkpt>
      <trkpt lat="44.07321" lon="2.25325">
        <ele>391</ele>
        <time>2019-11-06T19:20:09Z</time>
      </trkpt>
      <trkpt lat="44.07275" lon="2.25257">
        <ele>388</ele>
        <time>2019-11-06T19:21:03Z</time>
      </trkpt>
      <trkpt lat="44.07245" lon="2.25195">
        <ele>383</ele>
        <time>2019-11-06T19:21:46Z</time>
      </trkpt>
      <trkpt lat="44.07214" lon="2.25151">
        <ele>379</ele>
        <time>2019-11-06T19:22:21Z</time>
      </trkpt>
      <trkpt lat="44.07208" lon="2.25149">
        <ele>379</ele>
        <time>2019-11-06T19:22:26Z</time>
      </trkpt>
      <trkpt lat="44.07199" lon="2.25152">
        <ele>378</ele>
        <time>2019-11-06T19:22:34Z</time>
      </trkpt>
      <trkpt lat="44.07182" lon="2.25163">
        <ele>378</ele>
        <time>2019-11-06T19:22:49Z</time>
      </trkpt>
      <trkpt lat="44.07152" lon="2.25191">
        <ele>377</ele>
        <time>2019-11-06T19:23:18Z</time>
      </trkpt>
      <trkpt lat="44.0711" lon="2.25224">
        <ele>375</ele>
        <time>2019-11-06T19:23:56Z</time>
      </trkpt>
      <trkpt lat="44.07103" lon="2.25227">
        <ele>375</ele>
        <time>2019-11-06T19:24:02Z</time>
      </trkpt>
      <trkpt lat="44.07002" lon="2.25247">
        <ele>370</ele>
        <time>2019-11-06T19:25:24Z</time>
      </trkpt>
      <trkpt lat="44.06943" lon="2.25246">
        <ele>360</ele>
        <time>2019-11-06T19:26:11Z</time>
      </trkpt>
      <trkpt lat="44.06938" lon="2.25249">
        <ele>359</ele>
        <time>2019-11-06T19:26:15Z</time>
      </trkpt>
      <trkpt lat="44.06933" lon="2.2528">
        <ele>356</ele>
        <time>2019-11-06T19:26:34Z</time>
      </trkpt>
      <trkpt lat="44.0692" lon="2.25305">
        <ele>352</ele>
        <time>2019-11-06T19:26:51Z</time>
      </trkpt>
      <trkpt lat="44.06922" lon="2.25352">
        <ele>350</ele>
        <time>2019-11-06T19:27:18Z</time>
      </trkpt>
      <trkpt lat="44.06926" lon="2.2536">
        <ele>351</ele>
        <time>2019-11-06T19:27:24Z</time>
      </trkpt>
      <trkpt lat="44.06938" lon="2.25365">
        <ele>353</ele>
        <time>2019-11-06T19:27:34Z</time>
      </trkpt>
      <trkpt lat="44.06947" lon="2.2538">
        <ele>355</ele>
        <time>2019-11-06T19:27:45Z</time>
      </trkpt>
      <trkpt lat="44.06939" lon="2.25448">
        <ele>351</ele>
        <time>2019-11-06T19:28:25Z</time>
      </trkpt>
      <trkpt lat="44.06942" lon="2.25537">
        <ele>352</ele>
        <time>2019-11-06T19:29:16Z</time>
      </trkpt>
      <trkpt lat="44.06938" lon="2.25543">
        <ele>351</ele>
        <time>2019-11-06T19:29:21Z</time>
      </trkpt>
      <trkpt lat="44.06933" lon="2.25543">
        <ele>349</ele>
        <time>2019-11-06T19:29:25Z</time>
      </trkpt>
      <trkpt lat="44.0692" lon="2.25521">
        <ele>346</ele>
        <time>2019-11-06T19:29:41Z</time>
      </trkpt>
      <trkpt lat="44.06908" lon="2.25524">
        <ele>345</ele>
        <time>2019-11-06T19:29:51Z</time>
      </trkpt>
      <trkpt lat="44.069" lon="2.25531">
        <ele>346</ele>
        <time>2019-11-06T19:29:59Z</time>
      </trkpt>
      <trkpt lat="44.06888" lon="2.25484">
        <ele>346</ele>
        <time>2019-11-06T19:30:27Z</time>
      </trkpt>
      <trkpt lat="44.06867" lon="2.25472">
        <ele>347</ele>
        <time>2019-11-06T19:30:46Z</time>
      </trkpt>
      <trkpt lat="44.06855" lon="2.25461">
        <ele>348</ele>
        <time>2019-11-06T19:30:57Z</time>
      </trkpt>
      <trkpt lat="44.06848" lon="2.25449">
        <ele>348</ele>
        <time>2019-11-06T19:31:06Z</time>
      </trkpt>
      <trkpt lat="44.06848" lon="2.25437">
        <ele>348</ele>
        <time>2019-11-06T19:31:13Z</time>
      </trkpt>
      <trkpt lat="44.06858" lon="2.25415">
        <ele>348</ele>
        <time>2019-11-06T19:31:28Z</time>
      </trkpt>
      <trkpt lat="44.0686" lon="2.25405">
        <ele>348</ele>
        <time>2019-11-06T19:31:34Z</time>
      </trkpt>
      <trkpt lat="44.06859" lon="2.25382">
        <ele>348</ele>
        <time>2019-11-06T19:31:47Z</time>
      </trkpt>
      <trkpt lat="44.06843" lon="2.2534">
        <ele>347</ele>
        <time>2019-11-06T19:32:14Z</time>
      </trkpt>
      <trkpt lat="44.06841" lon="2.25276">
        <ele>347</ele>
        <time>2019-11-06T19:32:51Z</time>
      </trkpt>
      <trkpt lat="44.06821" lon="2.2523">
        <ele>347</ele>
        <time>2019-11-06T19:33:22Z</time>
      </trkpt>
      <trkpt lat="44.06816" lon="2.2521">
        <ele>347</ele>
        <time>2019-11-06T19:33:34Z</time>
      </trkpt>
      <trkpt lat="44.06809" lon="2.25169">
        <ele>347</ele>
        <time>2019-11-06T19:33:59Z</time>
      </trkpt>
      <trkpt lat="44.06788" lon="2.25079">
        <ele>349</ele>
        <time>2019-11-06T19:34:53Z</time>
      </trkpt>
      <trkpt lat="44.0678" lon="2.25025">
        <ele>349</ele>
        <time>2019-11-06T19:35:25Z</time>
      </trkpt>
      <trkpt lat="44.06776" lon="2.25017">
        <ele>350</ele>
        <time>2019-11-06T19:35:30Z</time>
      </trkpt>
      <trkpt lat="44.06766" lon="2.25009">
        <ele>350</ele>
        <time>2019-11-06T19:35:40Z</time>
      </trkpt>
      <trkpt lat="44.06748" lon="2.24997">
        <ele>351</ele>
        <time>2019-11-06T19:35:56Z</time>
      </trkpt>
      <trkpt lat="44.06736" lon="2.24992">
        <ele>352</ele>
        <time>2019-11-06T19:36:06Z</time>
      </trkpt>
      <trkpt lat="44.06737" lon="2.24985">
        <ele>352</ele>
        <time>2019-11-06T19:36:10Z</time>
      </trkpt>
      <trkpt lat="44.06748" lon="2.24977">
        <ele>351</ele>
        <time>2019-11-06T19:36:20Z</time>
      </trkpt>
      <trkpt lat="44.06757" lon="2.24962">
        <ele>350</ele>
        <time>2019-11-06T19:36:31Z</time>
      </trkpt>
      <trkpt lat="44.06761" lon="2.2494">
        <ele>350</ele>
        <time>2019-11-06T19:36:44Z</time>
      </trkpt>
      <trkpt lat="44.06779" lon="2.24934">
        <ele>349</ele>
        <time>2019-11-06T19:36:59Z</time>
      </trkpt>
      <trkpt lat="44.06782" lon="2.24911">
        <ele>348</ele>
        <time>2019-11-06T19:37:12Z</time>
      </trkpt>
      <trkpt lat="44.0677" lon="2.24869">
        <ele>349</ele>
        <time>2019-11-06T19:37:38Z</time>
      </trkpt>
      <trkpt lat="44.0677" lon="2.24799">
        <ele>349</ele>
        <time>2019-11-06T19:38:19Z</time>
      </trkpt>
      <trkpt lat="44.06774" lon="2.24772">
        <ele>349</ele>
        <time>2019-11-06T19:38:34Z</time>
      </trkpt>
      <trkpt lat="44.06782" lon="2.24758">
        <ele>348</ele>
        <time>2019-11-06T19:38:45Z</time>
      </trkpt>
      <trkpt lat="44.06779" lon="2.24752">
        <ele>348</ele>
        <time>2019-11-06T19:38:49Z</time>
      </trkpt>
      <trkpt lat="44.06773" lon="2.24755">
        <ele>349</ele>
        <time>2019-11-06T19:38:54Z</time>
      </trkpt>
      <trkpt lat="44.06754" lon="2.24756">
        <ele>351</ele>
        <time>2019-11-06T19:39:09Z</time>
      </trkpt>
      <trkpt lat="44.06736" lon="2.2476">
        <ele>352</ele>
        <time>2019-11-06T19:39:24Z</time>
      </trkpt>
      <trkpt lat="44.06606" lon="2.24768">
        <ele>364</ele>
        <time>2019-11-06T19:41:08Z</time>
      </trkpt>
      <trkpt lat="44.06575" lon="2.24779">
        <ele>366</ele>
        <time>2019-11-06T19:41:34Z</time>
      </trkpt>
      <trkpt lat="44.06566" lon="2.24779">
        <ele>367</ele>
        <time>2019-11-06T19:41:41Z</time>
      </trkpt>
      <trkpt lat="44.06542" lon="2.24774">
        <ele>368</ele>
        <time>2019-11-06T19:42:00Z</time>
      </trkpt>
      <trkpt lat="44.06531" lon="2.24769">
        <ele>368</ele>
        <time>2019-11-06T19:42:09Z</time>
      </trkpt>
      <trkpt lat="44.06489" lon="2.24761">
        <ele>370</ele>
        <time>2019-11-06T19:42:43Z</time>
      </trkpt>
      <trkpt lat="44.06423" lon="2.24761">
        <ele>372</ele>
        <time>2019-11-06T19:43:36Z</time>
      </trkpt>
      <trkpt lat="44.06406" lon="2.24763">
        <ele>373</ele>
        <time>2019-11-06T19:43:50Z</time>
      </trkpt>
      <trkpt lat="44.06298" lon="2.24742">
        <ele>374</ele>
        <time>2019-11-06T19:45:17Z</time>
      </trkpt>
      <trkpt lat="44.06272" lon="2.24741">
        <ele>374</ele>
        <time>2019-11-06T19:45:38Z</time>
      </trkpt>
      <trkpt lat="44.06252" lon="2.24736">
        <ele>373</ele>
        <time>2019-11-06T19:45:54Z</time>
      </trkpt>
      <trkpt lat="44.06245" lon="2.24733">
        <ele>374</ele>
        <time>2019-11-06T19:46:00Z</time>
      </trkpt>
      <trkpt lat="44.06243" lon="2.24721">
        <ele>373</ele>
        <time>2019-11-06T19:46:07Z</time>
      </trkpt>
      <trkpt lat="44.06204" lon="2.24722">
        <ele>375</ele>
        <time>2019-11-06T19:46:39Z</time>
      </trkpt>
      <trkpt lat="44.06161" lon="2.24712">
        <ele>376</ele>
        <time>2019-11-06T19:47:13Z</time>
      </trkpt>
      <trkpt lat="44.06129" lon="2.24711">
        <ele>377</ele>
        <time>2019-11-06T19:47:39Z</time>
      </trkpt>
      <trkpt lat="44.06108" lon="2.24701">
        <ele>378</ele>
        <time>2019-11-06T19:47:57Z</time>
      </trkpt>
      <trkpt lat="44.06094" lon="2.24705">
        <ele>378</ele>
        <time>2019-11-06T19:48:08Z</time>
      </trkpt>
      <trkpt lat="44.06084" lon="2.24703">
        <ele>378</ele>
        <time>2019-11-06T19:48:16Z</time>
      </trkpt>
      <trkpt lat="44.06075" lon="2.24697">
        <ele>379</ele>
        <time>2019-11-06T19:48:24Z</time>
      </trkpt>
      <trkpt lat="44.06065" lon="2.24694">
        <ele>379</ele>
        <time>2019-11-06T19:48:33Z</time>
      </trkpt>
      <trkpt lat="44.06053" lon="2.24681">
        <ele>379</ele>
        <time>2019-11-06T19:48:45Z</time>
      </trkpt>
      <trkpt lat="44.06041" lon="2.24673">
        <ele>379</ele>
        <time>2019-11-06T19:48:55Z</time>
      </trkpt>
      <trkpt lat="44.06001" lon="2.24626">
        <ele>381</ele>
        <time>2019-11-06T19:49:37Z</time>
      </trkpt>
      <trkpt lat="44.05981" lon="2.24606">
        <ele>381</ele>
        <time>2019-11-06T19:49:57Z</time>
      </trkpt>
      <trkpt lat="44.05952" lon="2.24585">
        <ele>380</ele>
        <time>2019-11-06T19:50:23Z</time>
      </trkpt>
      <trkpt lat="44.05951" lon="2.24576">
        <ele>380</ele>
        <time>2019-11-06T19:50:28Z</time>
      </trkpt>
      <trkpt lat="44.05933" lon="2.24572">
        <ele>380</ele>
        <time>2019-11-06T19:50:43Z</time>
      </trkpt>
      <trkpt lat="44.05855" lon="2.24531">
        <ele>375</ele>
        <time>2019-11-06T19:51:50Z</time>
      </trkpt>
      <trkpt lat="44.05795" lon="2.24504">
        <ele>371</ele>
        <time>2019-11-06T19:52:40Z</time>
      </trkpt>
      <trkpt lat="44.0575" lon="2.24494">
        <ele>369</ele>
        <time>2019-11-06T19:53:17Z</time>
      </trkpt>
      <trkpt lat="44.05741" lon="2.24494">
        <ele>368</ele>
        <time>2019-11-06T19:53:24Z</time>
      </trkpt>
      <trkpt lat="44.05734" lon="2.24483">
        <ele>368</ele>
        <time>2019-11-06T19:53:32Z</time>
      </trkpt>
      <trkpt lat="44.05613" lon="2.24375">
        <ele>365</ele>
        <time>2019-11-06T19:55:28Z</time>
      </trkpt>
      <trkpt lat="44.05561" lon="2.2436">
        <ele>365</ele>
        <time>2019-11-06T19:56:10Z</time>
      </trkpt>
      <trkpt lat="44.05472" lon="2.24303">
        <ele>366</ele>
        <time>2019-11-06T19:57:28Z</time>
      </trkpt>
      <trkpt lat="44.05427" lon="2.24277">
        <ele>365</ele>
        <time>2019-11-06T19:58:08Z</time>
      </trkpt>
      <trkpt lat="44.05355" lon="2.24249">
        <ele>363</ele>
        <time>2019-11-06T19:59:07Z</time>
      </trkpt>
      <trkpt lat="44.05342" lon="2.2424">
        <ele>363</ele>
        <time>2019-11-06T19:59:19Z</time>
      </trkpt>
      <trkpt lat="44.05262" lon="2.24208">
        <ele>362</ele>
        <time>2019-11-06T20:00:26Z</time>
      </trkpt>
      <trkpt lat="44.0523" lon="2.24197">
        <ele>360</ele>
        <time>2019-11-06T20:00:52Z</time>
      </trkpt>
      <trkpt lat="44.05127" lon="2.24172">
        <ele>353</ele>
        <time>2019-11-06T20:02:16Z</time>
      </trkpt>
      <trkpt lat="44.05018" lon="2.24138">
        <ele>346</ele>
        <time>2019-11-06T20:03:45Z</time>
      </trkpt>
      <trkpt lat="44.05002" lon="2.24132">
        <ele>345</ele>
        <time>2019-11-06T20:03:58Z</time>
      </trkpt>
      <trkpt lat="44.04979" lon="2.24117">
        <ele>344</ele>
        <time>2019-11-06T20:04:19Z</time>
      </trkpt>
      <trkpt lat="44.04929" lon="2.24107">
        <ele>341</ele>
        <time>2019-11-06T20:04:59Z</time>
      </trkpt>
      <trkpt lat="44.04893" lon="2.24082">
        <ele>342</ele>
        <time>2019-11-06T20:05:31Z</time>
      </trkpt>
      <trkpt lat="44.04866" lon="2.24082">
        <ele>340</ele>
        <time>2019-11-06T20:05:53Z</time>
      </trkpt>
      <trkpt lat="44.04838" lon="2.24078">
        <ele>339</ele>
        <time>2019-11-06T20:06:16Z</time>
      </trkpt>
      <trkpt lat="44.04827" lon="2.24079">
        <ele>338</ele>
        <time>2019-11-06T20:06:24Z</time>
      </trkpt>
      <trkpt lat="44.04812" lon="2.24086">
        <ele>336</ele>
        <time>2019-11-06T20:06:37Z</time>
      </trkpt>
      <trkpt lat="44.04799" lon="2.24089">
        <ele>334</ele>
        <time>2019-11-06T20:06:48Z</time>
      </trkpt>
      <trkpt lat="44.04757" lon="2.24085">
        <ele>332</ele>
        <time>2019-11-06T20:07:21Z</time>
      </trkpt>
      <trkpt lat="44.0473" lon="2.2409">
        <ele>329</ele>
        <time>2019-11-06T20:07:43Z</time>
      </trkpt>
      <trkpt lat="44.0471" lon="2.24097">
        <ele>327</ele>
        <time>2019-11-06T20:08:00Z</time>
      </trkpt>
      <trkpt lat="44.04689" lon="2.24098">
        <ele>325</ele>
        <time>2019-11-06T20:08:17Z</time>
      </trkpt>
      <trkpt lat="44.0459" lon="2.24073">
        <ele>312</ele>
        <time>2019-11-06T20:09:37Z</time>
      </trkpt>
      <trkpt lat="44.04578" lon="2.24078">
        <ele>310</ele>
        <time>2019-11-06T20:09:47Z</time>
      </trkpt>
      <trkpt lat="44.04566" lon="2.24079">
        <ele>307</ele>
        <time>2019-11-06T20:09:57Z</time>
      </trkpt>
      <trkpt lat="44.04551" lon="2.24076">
        <ele>304</ele>
        <time>2019-11-06T20:10:09Z</time>
      </trkpt>
      <trkpt lat="44.0453" lon="2.24078">
        <ele>300</ele>
        <time>2019-11-06T20:10:26Z</time>
      </trkpt>
      <trkpt lat="44.04501" lon="2.24077">
        <ele>294</ele>
        <time>2019-11-06T20:10:49Z</time>
      </trkpt>
      <trkpt lat="44.0442" lon="2.24114">
        <ele>288</ele>
        <time>2019-11-06T20:11:57Z</time>
      </trkpt>
      <trkpt lat="44.04371" lon="2.24114">
        <ele>287</ele>
        <time>2019-11-06T20:12:36Z</time>
      </trkpt>
      <trkpt lat="44.04348" lon="2.24117">
        <ele>287</ele>
        <time>2019-11-06T20:12:55Z</time>
      </trkpt>
      <trkpt lat="44.04327" lon="2.24124">
        <ele>285</ele>
        <time>2019-11-06T20:13:12Z</time>
      </trkpt>
      <trkpt lat="44.04288" lon="2.24148">
        <ele>282</ele>
        <time>2019-11-06T20:13:46Z</time>
      </trkpt>
      <trkpt lat="44.04289" lon="2.24184">
        <ele>279</ele>
        <time>2019-11-06T20:14:07Z</time>
      </trkpt>
      <trkpt lat="44.04294" lon="2.24197">
        <ele>280</ele>
        <time>2019-11-06T20:14:16Z</time>
      </trkpt>
      <trkpt lat="44.04301" lon="2.24209">
        <ele>280</ele>
        <time>2019-11-06T20:14:24Z</time>
      </trkpt>
      <trkpt lat="44.04327" lon="2.24238">
        <ele>279</ele>
        <time>2019-11-06T20:14:51Z</time>
      </trkpt>
      <trkpt lat="44.04344" lon="2.24262">
        <ele>280</ele>
        <time>2019-11-06T20:15:11Z</time>
      </trkpt>
      <trkpt lat="44.04353" lon="2.24289">
        <ele>282</ele>
        <time>2019-11-06T20:15:28Z</time>
      </trkpt>
      <trkpt lat="44.04354" lon="2.2431">
        <ele>283</ele>
        <time>2019-11-06T20:15:40Z</time>
      </trkpt>
      <trkpt lat="44.04352" lon="2.24338">
        <ele>284</ele>
        <time>2019-11-06T20:15:56Z</time>
      </trkpt>
      <trkpt lat="44.04344" lon="2.24384">
        <ele>286</ele>
        <time>2019-11-06T20:16:23Z</time>
      </trkpt>
      <trkpt lat="44.04327" lon="2.24449">
        <ele>289</ele>
        <time>2019-11-06T20:17:03Z</time>
      </trkpt>
      <trkpt lat="44.0431" lon="2.24557">
        <ele>288</ele>
        <time>2019-11-06T20:18:07Z</time>
      </trkpt>
      <trkpt lat="44.04302" lon="2.24595">
        <ele>287</ele>
        <time>2019-11-06T20:18:29Z</time>
      </trkpt>
      <trkpt lat="44.04298" lon="2.246">
        <ele>287</ele>
        <time>2019-11-06T20:18:34Z</time>
      </trkpt>
      <trkpt lat="44.04295" lon="2.24627">
        <ele>286</ele>
        <time>2019-11-06T20:18:49Z</time>
      </trkpt>
      <trkpt lat="44.0428" lon="2.24673">
        <ele>285</ele>
        <time>2019-11-06T20:19:19Z</time>
      </trkpt>
      <trkpt lat="44.04268" lon="2.24691">
        <ele>285</ele>
        <time>2019-11-06T20:19:33Z</time>
      </trkpt>
      <trkpt lat="44.04262" lon="2.24695">
        <ele>285</ele>
        <time>2019-11-06T20:19:38Z</time>
      </trkpt>
      <trkpt lat="44.04242" lon="2.24695">
        <ele>285</ele>
        <time>2019-11-06T20:19:54Z</time>
      </trkpt>
      <trkpt lat="44.04233" lon="2.24692">
        <ele>285</ele>
        <time>2019-11-06T20:20:01Z</time>
      </trkpt>
      <trkpt lat="44.04187" lon="2.24661">
        <ele>286</ele>
        <time>2019-11-06T20:20:42Z</time>
      </trkpt>
      <trkpt lat="44.04174" lon="2.24655">
        <ele>287</ele>
        <time>2019-11-06T20:20:53Z</time>
      </trkpt>
      <trkpt lat="44.04166" lon="2.24655">
        <ele>287</ele>
        <time>2019-11-06T20:21:00Z</time>
      </trkpt>
      <trkpt lat="44.04143" lon="2.24627">
        <ele>289</ele>
        <time>2019-11-06T20:21:24Z</time>
      </trkpt>
      <trkpt lat="44.04114" lon="2.2461">
        <ele>289</ele>
        <time>2019-11-06T20:21:49Z</time>
      </trkpt>
      <trkpt lat="44.04102" lon="2.24599">
        <ele>289</ele>
        <time>2019-11-06T20:22:01Z</time>
      </trkpt>
      <trkpt lat="44.04082" lon="2.24586">
        <ele>289</ele>
        <time>2019-11-06T20:22:19Z</time>
      </trkpt>
      <trkpt lat="44.04022" lon="2.24555">
        <ele>289</ele>
        <time>2019-11-06T20:23:10Z</time>
      </trkpt>
      <trkpt lat="44.03986" lon="2.24526">
        <ele>293</ele>
        <time>2019-11-06T20:23:43Z</time>
      </trkpt>
      <trkpt lat="44.03948" lon="2.24503">
        <ele>296</ele>
        <time>2019-11-06T20:24:16Z</time>
      </trkpt>
      <trkpt lat="44.0392" lon="2.24505">
        <ele>293</ele>
        <time>2019-11-06T20:24:39Z</time>
      </trkpt>
      <trkpt lat="44.03792" lon="2.24524">
        <ele>301</ele>
        <time>2019-11-06T20:26:22Z</time>
      </trkpt>
      <trkpt lat="44.03773" lon="2.24532">
        <ele>302</ele>
        <time>2019-11-06T20:26:38Z</time>
      </trkpt>
      <trkpt lat="44.03738" lon="2.24556">
        <ele>301</ele>
        <time>2019-11-06T20:27:09Z</time>
      </trkpt>
      <trkpt lat="44.03728" lon="2.24568">
        <ele>299</ele>
        <time>2019-11-06T20:27:20Z</time>
      </trkpt>
      <trkpt lat="44.03716" lon="2.24593">
        <ele>297</ele>
        <time>2019-11-06T20:27:37Z</time>
      </trkpt>
      <trkpt lat="44.03706" lon="2.24667">
        <ele>293</ele>
        <time>2019-11-06T20:28:20Z</time>
      </trkpt>
      <trkpt lat="44.03705" lon="2.247">
        <ele>296</ele>
        <time>2019-11-06T20:28:39Z</time>
      </trkpt>
      <trkpt lat="44.0371" lon="2.24727">
        <ele>296</ele>
        <time>2019-11-06T20:28:55Z</time>
      </trkpt>
      <trkpt lat="44.03713" lon="2.24771">
        <ele>298</ele>
        <time>2019-11-06T20:29:21Z</time>
      </trkpt>
      <trkpt lat="44.03732" lon="2.24821">
        <ele>295</ele>
        <time>2019-11-06T20:29:53Z</time>
      </trkpt>
      <trkpt lat="44.03751" lon="2.24855">
        <ele>292</ele>
        <time>2019-11-06T20:30:18Z</time>
      </trkpt>
      <trkpt lat="44.03764" lon="2.24889">
        <ele>295</ele>
        <time>2019-11-06T20:30:40Z</time>
      </trkpt>
      <trkpt lat="44.03784" lon="2.24928">
        <ele>296</ele>
        <time>2019-11-06T20:31:08Z</time>
      </trkpt>
      <trkpt lat="44.03792" lon="2.24953">
        <ele>297</ele>
        <time>2019-11-06T20:31:24Z</time>
      </trkpt>
      <trkpt lat="44.03798" lon="2.24983">
        <ele>298</ele>
        <time>2019-11-06T20:31:41Z</time>
      </trkpt>
      <trkpt lat="44.03813" lon="2.25006">
        <ele>296</ele>
        <time>2019-11-06T20:31:59Z</time>
      </trkpt>
      <trkpt lat="44.03835" lon="2.25019">
        <ele>293</ele>
        <time>2019-11-06T20:32:18Z</time>
      </trkpt>
      <trkpt lat="44.0385" lon="2.25017">
        <ele>291</ele>
        <time>2019-11-06T20:32:31Z</time>
      </trkpt>
      <trkpt lat="44.0387" lon="2.25036">
        <ele>292</ele>
        <time>2019-11-06T20:32:50Z</time>
      </trkpt>
      <trkpt lat="44.03913" lon="2.25044">
        <ele>288</ele>
        <time>2019-11-06T20:33:25Z</time>
      </trkpt>
      <trkpt lat="44.03939" lon="2.25066">
        <ele>289</ele>
        <time>2019-11-06T20:33:49Z</time>
      </trkpt>
      <trkpt lat="44.03965" lon="2.2508">
        <ele>289</ele>
        <time>2019-11-06T20:34:11Z</time>
      </trkpt>
      <trkpt lat="44.0398" lon="2.25094">
        <ele>290</ele>
        <time>2019-11-06T20:34:26Z</time>
      </trkpt>
      <trkpt lat="44.03991" lon="2.25097">
        <ele>290</ele>
        <time>2019-11-06T20:34:35Z</time>
      </trkpt>
      <trkpt lat="44.04006" lon="2.25097">
        <ele>290</ele>
        <time>2019-11-06T20:34:47Z</time>
      </trkpt>
      <trkpt lat="44.04017" lon="2.25094">
        <ele>291</ele>
        <time>2019-11-06T20:34:56Z</time>
      </trkpt>
      <trkpt lat="44.04026" lon="2.25084">
        <ele>291</ele>
        <time>2019-11-06T20:35:05Z</time>
      </trkpt>
      <trkpt lat="44.04049" lon="2.251">
        <ele>293</ele>
        <time>2019-11-06T20:35:26Z</time>
      </trkpt>
      <trkpt lat="44.04051" lon="2.25119">
        <ele>293</ele>
        <time>2019-11-06T20:35:37Z</time>
      </trkpt>
      <trkpt lat="44.0405" lon="2.25265">
        <ele>291</ele>
        <time>2019-11-06T20:37:01Z</time>
      </trkpt>
      <trkpt lat="44.04046" lon="2.25283">
        <ele>290</ele>
        <time>2019-11-06T20:37:12Z</time>
      </trkpt>
      <trkpt lat="44.04043" lon="2.25317">
        <ele>289</ele>
        <time>2019-11-06T20:37:31Z</time>
      </trkpt>
      <trkpt lat="44.04031" lon="2.25349">
        <ele>290</ele>
        <time>2019-11-06T20:37:52Z</time>
      </trkpt>
      <trkpt lat="44.04024" lon="2.25344">
        <ele>289</ele>
        <time>2019-11-06T20:37:58Z</time>
      </trkpt>
      <trkpt lat="44.04033" lon="2.25316">
        <ele>290</ele>
        <time>2019-11-06T20:38:16Z</time>
      </trkpt>
      <trkpt lat="44.04037" lon="2.25283">
        <ele>291</ele>
        <time>2019-11-06T20:38:35Z</time>
      </trkpt>
      <trkpt lat="44.04036" lon="2.2517">
        <ele>294</ele>
        <time>2019-11-06T20:39:40Z</time>
      </trkpt>
      <trkpt lat="44.0403" lon="2.25117">
        <ele>293</ele>
        <time>2019-11-06T20:40:11Z</time>
      </trkpt>
      <trkpt lat="44.04026" lon="2.25107">
        <ele>292</ele>
        <time>2019-11-06T20:40:18Z</time>
      </trkpt>
      <trkpt lat="44.04022" lon="2.25104">
        <ele>292</ele>
        <time>2019-11-06T20:40:21Z</time>
      </trkpt>
      <trkpt lat="44.04014" lon="2.25108">
        <ele>292</ele>
        <time>2019-11-06T20:40:28Z</time>
      </trkpt>
      <trkpt lat="44.04007" lon="2.2513">
        <ele>294</ele>
        <time>2019-11-06T20:40:42Z</time>
      </trkpt>
      <trkpt lat="44.04005" lon="2.25149">
        <ele>296</ele>
        <time>2019-11-06T20:40:53Z</time>
      </trkpt>
      <trkpt lat="44.04009" lon="2.25209">
        <ele>297</ele>
        <time>2019-11-06T20:41:28Z</time>
      </trkpt>
      <trkpt lat="44.04007" lon="2.2523">
        <ele>298</ele>
        <time>2019-11-06T20:41:40Z</time>
      </trkpt>
      <trkpt lat="44.03999" lon="2.2525">
        <ele>299</ele>
        <time>2019-11-06T20:41:53Z</time>
      </trkpt>
      <trkpt lat="44.03991" lon="2.25255">
        <ele>299</ele>
        <time>2019-11-06T20:42:00Z</time>
      </trkpt>
      <trkpt lat="44.03977" lon="2.25253">
        <ele>300</ele>
        <time>2019-11-06T20:42:11Z</time>
      </trkpt>
      <trkpt lat="44.03972" lon="2.25247">
        <ele>301</ele>
        <time>2019-11-06T20:42:17Z</time>
      </trkpt>
      <trkpt lat="44.03969" lon="2.25237">
        <ele>301</ele>
        <time>2019-11-06T20:42:23Z</time>
      </trkpt>
      <trkpt lat="44.03956" lon="2.25225">
        <ele>302</ele>
        <time>2019-11-06T20:42:35Z</time>
      </trkpt>
      <trkpt lat="44.03913" lon="2.25205">
        <ele>306</ele>
        <time>2019-11-06T20:43:12Z</time>
      </trkpt>
      <trkpt lat="44.03866" lon="2.2519">
        <ele>313</ele>
        <time>2019-11-06T20:43:50Z</time>
      </trkpt>
      <trkpt lat="44.03846" lon="2.25175">
        <ele>316</ele>
        <time>2019-11-06T20:44:09Z</time>
      </trkpt>
      <trkpt lat="44.03828" lon="2.25168">
        <ele>320</ele>
        <time>2019-11-06T20:44:24Z</time>
      </trkpt>
      <trkpt lat="44.03807" lon="2.25174">
        <ele>322</ele>
        <time>2019-11-06T20:44:41Z</time>
      </trkpt>
      <trkpt lat="44.03781" lon="2.25169">
        <ele>326</ele>
        <time>2019-11-06T20:45:02Z</time>
      </trkpt>
      <trkpt lat="44.03747" lon="2.25176">
        <ele>330</ele>
        <time>2019-11-06T20:45:29Z</time>
      </trkpt>
      <trkpt lat="44.03708" lon="2.25156">
        <ele>333</ele>
        <time>2019-11-06T20:46:02Z</time>
      </trkpt>
      <trkpt lat="44.0364" lon="2.25144">
        <ele>340</ele>
        <time>2019-11-06T20:46:57Z</time>
      </trkpt>
      <trkpt lat="44.0359" lon="2.25145">
        <ele>347</ele>
        <time>2019-11-06T20:47:37Z</time>
      </trkpt>
      <trkpt lat="44.03591" lon="2.25215">
        <ele>346</ele>
        <time>2019-11-06T20:48:18Z</time>
      </trkpt>
      <trkpt lat="44.03585" lon="2.25224">
        <ele>347</ele>
        <time>2019-11-06T20:48:25Z</time>
      </trkpt>
      <trkpt lat="44.03574" lon="2.25231">
        <ele>348</ele>
        <time>2019-11-06T20:48:34Z</time>
      </trkpt>
      <trkpt lat="44.03555" lon="2.25237">
        <ele>351</ele>
        <time>2019-11-06T20:48:50Z</time>
      </trkpt>
      <trkpt lat="44.03538" lon="2.25239">
        <ele>353</ele>
        <time>2019-11-06T20:49:04Z</time>
      </trkpt>
      <trkpt lat="44.035" lon="2.25237">
        <ele>358</ele>
        <time>2019-11-06T20:49:34Z</time>
      </trkpt>
      <trkpt lat="44.03457" lon="2.25229">
        <ele>363</ele>
        <time>2019-11-06T20:50:09Z</time>
      </trkpt>
      <trkpt lat="44.03404" lon="2.25214">
        <ele>369</ele>
        <time>2019-11-06T20:50:52Z</time>
      </trkpt>
      <trkpt lat="44.03328" lon="2.25187">
        <ele>376</ele>
        <time>2019-11-06T20:51:55Z</time>
      </trkpt>
      <trkpt lat="44.03237" lon="2.25149">
        <ele>380</ele>
        <time>2019-11-06T20:53:11Z</time>
      </trkpt>
      <trkpt lat="44.03208" lon="2.2515">
        <ele>381</ele>
        <time>2019-11-06T20:53:34Z</time>
      </trkpt>
      <trkpt lat="44.03171" lon="2.25207">
        <ele>381</ele>
        <time>2019-11-06T20:54:19Z</time>
      </trkpt>
      <trkpt lat="44.03094" lon="2.25312">
        <ele>382</ele>
        <time>2019-11-06T20:55:45Z</time>
      </trkpt>
      <trkpt lat="44.03061" lon="2.25367">
        <ele>383</ele>
        <time>2019-11-06T20:56:26Z</time>
      </trkpt>
      <trkpt lat="44.03036" lon="2.25402">
        <ele>384</ele>
        <time>2019-11-06T20:56:55Z</time>
      </trkpt>
      <trkpt lat="44.02974" lon="2.2548">
        <ele>387</ele>
        <time>2019-11-06T20:58:01Z</time>
      </trkpt>
      <trkpt lat="44.02921" lon="2.25541">
        <ele>388</ele>
        <time>2019-11-06T20:58:57Z</time>
      </trkpt>
      <trkpt lat="44.02877" lon="2.25585">
        <ele>389</ele>
        <time>2019-11-06T20:59:40Z</time>
      </trkpt>
      <trkpt lat="44.02864" lon="2.25603">
        <ele>389</ele>
        <time>2019-11-06T20:59:55Z</time>
      </trkpt>
      <trkpt lat="44.0281" lon="2.25657">
        <ele>391</ele>
        <time>2019-11-06T21:00:48Z</time>
      </trkpt>
      <trkpt lat="44.0278" lon="2.25694">
        <ele>391</ele>
        <time>2019-11-06T21:01:20Z</time>
      </trkpt>
      <trkpt lat="44.02759" lon="2.25725">
        <ele>391</ele>
        <time>2019-11-06T21:01:44Z</time>
      </trkpt>
      <trkpt lat="44.02741" lon="2.25761">
        <ele>391</ele>
        <time>2019-11-06T21:02:10Z</time>
      </trkpt>
      <trkpt lat="44.02657" lon="2.25957">
        <ele>399</ele>
        <time>2019-11-06T21:04:21Z</time>
      </trkpt>
      <trkpt lat="44.02643" lon="2.25946">
        <ele>398</ele>
        <time>2019-11-06T21:04:34Z</time>
      </trkpt>
      <trkpt lat="44.02618" lon="2.25933">
        <ele>397</ele>
        <time>2019-11-06T21:04:55Z</time>
      </trkpt>
      <trkpt lat="44.02611" lon="2.25923">
        <ele>397</ele>
        <time>2019-11-06T21:05:03Z</time>
      </trkpt>
      <trkpt lat="44.02601" lon="2.25862">
        <ele>394</ele>
        <time>2019-11-06T21:05:39Z</time>
      </trkpt>
      <trkpt lat="44.02579" lon="2.258">
        <ele>391</ele>
        <time>2019-11-06T21:06:19Z</time>
      </trkpt>
      <trkpt lat="44.02569" lon="2.25753">
        <ele>388</ele>
        <time>2019-11-06T21:06:47Z</time>
      </trkpt>
      <trkpt lat="44.02511" lon="2.25614">
        <ele>377</ele>
        <time>2019-11-06T21:08:20Z</time>
      </trkpt>
      <trkpt lat="44.02455" lon="2.25532">
        <ele>367</ele>
        <time>2019-11-06T21:09:25Z</time>
      </trkpt>
      <trkpt lat="44.02392" lon="2.25448">
        <ele>356</ele>
        <time>2019-11-06T21:10:35Z</time>
      </trkpt>
      <trkpt lat="44.02364" lon="2.25386">
        <ele>352</ele>
        <time>2019-11-06T21:11:17Z</time>
      </trkpt>
      <trkpt lat="44.02356" lon="2.25344">
        <ele>350</ele>
        <time>2019-11-06T21:11:42Z</time>
      </trkpt>
      <trkpt lat="44.02371" lon="2.2528">
        <ele>351</ele>
        <time>2019-11-06T21:12:21Z</time>
      </trkpt>
      <trkpt lat="44.0237" lon="2.25265">
        <ele>352</ele>
        <time>2019-11-06T21:12:30Z</time>
      </trkpt>
      <trkpt lat="44.0235" lon="2.25189">
        <ele>358</ele>
        <time>2019-11-06T21:13:16Z</time>
      </trkpt>
      <trkpt lat="44.02279" lon="2.2505">
        <ele>365</ele>
        <time>2019-11-06T21:14:54Z</time>
      </trkpt>
      <trkpt lat="44.02254" lon="2.24973">
        <ele>365</ele>
        <time>2019-11-06T21:15:43Z</time>
      </trkpt>
      <trkpt lat="44.02231" lon="2.2492">
        <ele>364</ele>
        <time>2019-11-06T21:16:19Z</time>
      </trkpt>
      <trkpt lat="44.02216" lon="2.24895">
        <ele>363</ele>
        <time>2019-11-06T21:16:37Z</time>
      </trkpt>
      <trkpt lat="44.02153" lon="2.24806">
        <ele>361</ele>
        <time>2019-11-06T21:17:49Z</time>
      </trkpt>
      <trkpt lat="44.02146" lon="2.2479">
        <ele>361</ele>
        <time>2019-11-06T21:18:00Z</time>
      </trkpt>
      <trkpt lat="44.02149" lon="2.24738">
        <ele>361</ele>
        <time>2019-11-06T21:18:30Z</time>
      </trkpt>
      <trkpt lat="44.02147" lon="2.24731">
        <ele>362</ele>
        <time>2019-11-06T21:18:34Z</time>
      </trkpt>
      <trkpt lat="44.02109" lon="2.24699">
        <ele>362</ele>
        <time>2019-11-06T21:19:10Z</time>
      </trkpt>
      <trkpt lat="44.02069" lon="2.24659">
        <ele>363</ele>
        <time>2019-11-06T21:19:49Z</time>
      </trkpt>
      <trkpt lat="44.02092" lon="2.2462">
        <ele>362</ele>
        <time>2019-11-06T21:20:18Z</time>
      </trkpt>
      <trkpt lat="44.02105" lon="2.24521">
        <ele>360</ele>
        <time>2019-11-06T21:21:16Z</time>
      </trkpt>
      <trkpt lat="44.02109" lon="2.24473">
        <ele>359</ele>
        <time>2019-11-06T21:21:44Z</time>
      </trkpt>
      <trkpt lat="44.02101" lon="2.24227">
        <ele>356</ele>
        <time>2019-11-06T21:24:06Z</time>
      </trkpt>
      <trkpt lat="44.02087" lon="2.24206">
        <ele>355</ele>
        <time>2019-11-06T21:24:22Z</time>
      </trkpt>
      <trkpt lat="44.02062" lon="2.24177">
        <ele>355</ele>
        <time>2019-11-06T21:24:49Z</time>
      </trkpt>
      <trkpt lat="44.02039" lon="2.24155">
        <ele>355</ele>
        <time>2019-11-06T21:25:11Z</time>
      </trkpt>
      <trkpt lat="44.02034" lon="2.24147">
        <ele>355</ele>
        <time>2019-11-06T21:25:17Z</time>
      </trkpt>
      <trkpt lat="44.02023" lon="2.24148">
        <ele>354</ele>
        <time>2019-11-06T21:25:26Z</time>
      </trkpt>
      <trkpt lat="44.02013" lon="2.24143">
        <ele>354</ele>
        <time>2019-11-06T21:25:34Z</time>
      </trkpt>
      <trkpt lat="44.01999" lon="2.2413">
        <ele>354</ele>
        <time>2019-11-06T21:25:48Z</time>
      </trkpt>
      <trkpt lat="44.01993" lon="2.24115">
        <ele>354</ele>
        <time>2019-11-06T21:25:58Z</time>
      </trkpt>
      <trkpt lat="44.01988" lon="2.24083">
        <ele>354</ele>
        <time>2019-11-06T21:26:17Z</time>
      </trkpt>
      <trkpt lat="44.01989" lon="2.24064">
        <ele>353</ele>
        <time>2019-11-06T21:26:27Z</time>
      </trkpt>
      <trkpt lat="44.02004" lon="2.24012">
        <ele>351</ele>
        <time>2019-11-06T21:27:00Z</time>
      </trkpt>
      <trkpt lat="44.02029" lon="2.23901">
        <ele>345</ele>
        <time>2019-11-06T21:28:07Z</time>
      </trkpt>
      <trkpt lat="44.02036" lon="2.23801">
        <ele>343</ele>
        <time>2019-11-06T21:29:05Z</time>
      </trkpt>
      <trkpt lat="44.02019" lon="2.23781">
        <ele>342</ele>
        <time>2019-11-06T21:29:22Z</time>
      </trkpt>
      <trkpt lat="44.02019" lon="2.23756">
        <ele>342</ele>
        <time>2019-11-06T21:29:37Z</time>
      </trkpt>
      <trkpt lat="44.02009" lon="2.23708">
        <ele>340</ele>
        <time>2019-11-06T21:30:06Z</time>
      </trkpt>
      <trkpt lat="44.02" lon="2.23668">
        <ele>338</ele>
        <time>2019-11-06T21:30:30Z</time>
      </trkpt>
      <trkpt lat="44.01989" lon="2.23638">
        <ele>337</ele>
        <time>2019-11-06T21:30:49Z</time>
      </trkpt>
      <trkpt lat="44.01991" lon="2.2363">
        <ele>337</ele>
        <time>2019-11-06T21:30:54Z</time>
      </trkpt>
      <trkpt lat="44.01982" lon="2.23604">
        <ele>336</ele>
        <time>2019-11-06T21:31:11Z</time>
      </trkpt>
      <trkpt lat="44.01918" lon="2.23482">
        <ele>331</ele>
        <time>2019-11-06T21:32:38Z</time>
      </trkpt>
      <trkpt lat="44.01909" lon="2.23471">
        <ele>330</ele>
        <time>2019-11-06T21:32:47Z</time>
      </trkpt>
      <trkpt lat="44.01898" lon="2.23447">
        <ele>327</ele>
        <time>2019-11-06T21:33:04Z</time>
      </trkpt>
      <trkpt lat="44.01855" lon="2.23376">
        <ele>321</ele>
        <time>2019-11-06T21:33:57Z</time>
      </trkpt>
      <trkpt lat="44.01838" lon="2.23324">
        <ele>319</ele>
        <time>2019-11-06T21:34:30Z</time>
      </trkpt>
      <trkpt lat="44.0183" lon="2.23258">
        <ele>318</ele>
        <time>2019-11-06T21:35:08Z</time>
      </trkpt>
      <trkpt lat="44.01831" lon="2.23219">
        <ele>316</ele>
        <time>2019-11-06T21:35:31Z</time>
      </trkpt>
      <trkpt lat="44.01822" lon="2.23211">
        <ele>316</ele>
        <time>2019-11-06T21:35:39Z</time>
      </trkpt>
      <trkpt lat="44.018" lon="2.23209">
        <ele>315</ele>
        <time>2019-11-06T21:35:57Z</time>
      </trkpt>
      <trkpt lat="44.01784" lon="2.23201">
        <ele>315</ele>
        <time>2019-11-06T21:36:11Z</time>
      </trkpt>
      <trkpt lat="44.01788" lon="2.23187">
        <ele>314</ele>
        <time>2019-11-06T21:36:19Z</time>
      </trkpt>
      <trkpt lat="44.01779" lon="2.23182">
        <ele>314</ele>
        <time>2019-11-06T21:36:27Z</time>
      </trkpt>
      <trkpt lat="44.01761" lon="2.23181">
        <ele>314</ele>
        <time>2019-11-06T21:36:42Z</time>
      </trkpt>
      <trkpt lat="44.01734" lon="2.23165">
        <ele>315</ele>
        <time>2019-11-06T21:37:05Z</time>
      </trkpt>
      <trkpt lat="44.01718" lon="2.23149">
        <ele>317</ele>
        <time>2019-11-06T21:37:21Z</time>
      </trkpt>
      <trkpt lat="44.01696" lon="2.23111">
        <ele>322</ele>
        <time>2019-11-06T21:37:49Z</time>
      </trkpt>
      <trkpt lat="44.01665" lon="2.23074">
        <ele>327</ele>
        <time>2019-11-06T21:38:22Z</time>
      </trkpt>
      <trkpt lat="44.01649" lon="2.23066">
        <ele>328</ele>
        <time>2019-11-06T21:38:35Z</time>
      </trkpt>
      <trkpt lat="44.01623" lon="2.23045">
        <ele>329</ele>
        <time>2019-11-06T21:38:59Z</time>
      </trkpt>
      <trkpt lat="44.0159" lon="2.23008">
        <ele>331</ele>
        <time>2019-11-06T21:39:33Z</time>
      </trkpt>
      <trkpt lat="44.0158" lon="2.23003">
        <ele>331</ele>
        <time>2019-11-06T21:39:42Z</time>
      </trkpt>
      <trkpt lat="44.01529" lon="2.23012">
        <ele>333</ele>
        <time>2019-11-06T21:40:23Z</time>
      </trkpt>
      <trkpt lat="44.01456" lon="2.22961">
        <ele>335</ele>
        <time>2019-11-06T21:41:28Z</time>
      </trkpt>
      <trkpt lat="44.01424" lon="2.22942">
        <ele>335</ele>
        <time>2019-11-06T21:41:56Z</time>
      </trkpt>
      <trkpt lat="44.01415" lon="2.22971">
        <ele>336</ele>
        <time>2019-11-06T21:42:14Z</time>
      </trkpt>
      <trkpt lat="44.01397" lon="2.22996">
        <ele>336</ele>
        <time>2019-11-06T21:42:35Z</time>
      </trkpt>
      <trkpt lat="44.01265" lon="2.23148">
        <ele>341</ele>
        <time>2019-11-06T21:44:52Z</time>
      </trkpt>
      <trkpt lat="44.01236" lon="2.23185">
        <ele>342</ele>
        <time>2019-11-06T21:45:23Z</time>
      </trkpt>
      <trkpt lat="44.01223" lon="2.23175">
        <ele>342</ele>
        <time>2019-11-06T21:45:35Z</time>
      </trkpt>
      <trkpt lat="44.0121" lon="2.23174">
        <ele>342</ele>
        <time>2019-11-06T21:45:46Z</time>
      </trkpt>
      <trkpt lat="44.01203" lon="2.23168">
        <ele>343</ele>
        <time>2019-11-06T21:45:52Z</time>
      </trkpt>
      <trkpt lat="44.01176" lon="2.23115">
        <ele>342</ele>
        <time>2019-11-06T21:46:30Z</time>
      </trkpt>
      <trkpt lat="44.01165" lon="2.23101">
        <ele>341</ele>
        <time>2019-11-06T21:46:42Z</time>
      </trkpt>
      <trkpt lat="44.01154" lon="2.23096">
        <ele>341</ele>
        <time>2019-11-06T21:46:51Z</time>
      </trkpt>
      <trkpt lat="44.0114" lon="2.23106">
        <ele>341</ele>
        <time>2019-11-06T21:47:04Z</time>
      </trkpt>
      <trkpt lat="44.01115" lon="2.23132">
        <ele>341</ele>
        <time>2019-11-06T21:47:29Z</time>
      </trkpt>
      <trkpt lat="44.01112" lon="2.23146">
        <ele>341</ele>
        <time>2019-11-06T21:47:37Z</time>
      </trkpt>
      <trkpt lat="44.01106" lon="2.23147">
        <ele>341</ele>
        <time>2019-11-06T21:47:42Z</time>
      </trkpt>
      <trkpt lat="44.01087" lon="2.2318">
        <ele>341</ele>
        <time>2019-11-06T21:48:06Z</time>
      </trkpt>
      <trkpt lat="44.0107" lon="2.23202">
        <ele>341</ele>
        <time>2019-11-06T21:48:25Z</time>
      </trkpt>
      <trkpt lat="44.00968" lon="2.23311">
        <ele>337</ele>
        <time>2019-11-06T21:50:08Z</time>
      </trkpt>
      <trkpt lat="44.00913" lon="2.23383">
        <ele>334</ele>
        <time>2019-11-06T21:51:08Z</time>
      </trkpt>
      <trkpt lat="44.00881" lon="2.234">
        <ele>332</ele>
        <time>2019-11-06T21:51:36Z</time>
      </trkpt>
      <trkpt lat="44.00829" lon="2.23445">
        <ele>330</ele>
        <time>2019-11-06T21:52:25Z</time>
      </trkpt>
      <trkpt lat="44.00762" lon="2.23488">
        <ele>323</ele>
        <time>2019-11-06T21:53:24Z</time>
      </trkpt>
      <trkpt lat="44.00727" lon="2.23504">
        <ele>320</ele>
        <time>2019-11-06T21:53:53Z</time>
      </trkpt>
      <trkpt lat="44.00642" lon="2.2355">
        <ele>315</ele>
        <time>2019-11-06T21:55:06Z</time>
      </trkpt>
      <trkpt lat="44.00612" lon="2.23562">
        <ele>313</ele>
        <time>2019-11-06T21:55:31Z</time>
      </trkpt>
      <trkpt lat="44.00574" lon="2.23571">
        <ele>311</ele>
        <time>2019-11-06T21:56:02Z</time>
      </trkpt>
      <trkpt lat="44.00546" lon="2.23574">
        <ele>310</ele>
        <time>2019-11-06T21:56:25Z</time>
      </trkpt>
      <trkpt lat="44.00532" lon="2.23567">
        <ele>309</ele>
        <time>2019-11-06T21:56:37Z</time>
      </trkpt>
      <trkpt lat="44.00527" lon="2.23545">
        <ele>309</ele>
        <time>2019-11-06T21:56:50Z</time>
      </trkpt>
      <trkpt lat="44.00522" lon="2.23537">
        <ele>308</ele>
        <time>2019-11-06T21:56:56Z</time>
      </trkpt>
      <trkpt lat="44.00512" lon="2.23536">
        <ele>308</ele>
        <time>2019-11-06T21:57:04Z</time>
      </trkpt>
      <trkpt lat="44.00488" lon="2.23548">
        <ele>308</ele>
        <time>2019-11-06T21:57:24Z</time>
      </trkpt>
      <trkpt lat="44.00478" lon="2.23568">
        <ele>308</ele>
        <time>2019-11-06T21:57:38Z</time>
      </trkpt>
      <trkpt lat="44.00478" lon="2.236">
        <ele>308</ele>
        <time>2019-11-06T21:57:57Z</time>
      </trkpt>
      <trkpt lat="44.00485" lon="2.23613">
        <ele>308</ele>
        <time>2019-11-06T21:58:06Z</time>
      </trkpt>
      <trkpt lat="44.00483" lon="2.23627">
        <ele>308</ele>
        <time>2019-11-06T21:58:14Z</time>
      </trkpt>
      <trkpt lat="44.00477" lon="2.23634">
        <ele>308</ele>
        <time>2019-11-06T21:58:21Z</time>
      </trkpt>
      <trkpt lat="44.0046" lon="2.23646">
        <ele>308</ele>
        <time>2019-11-06T21:58:36Z</time>
      </trkpt>
      <trkpt lat="44.00452" lon="2.23658">
        <ele>308</ele>
        <time>2019-11-06T21:58:45Z</time>
      </trkpt>
      <trkpt lat="44.00442" lon="2.23691">
        <ele>307</ele>
        <time>2019-11-06T21:59:06Z</time>
      </trkpt>
      <trkpt lat="44.00439" lon="2.2373">
        <ele>307</ele>
        <time>2019-11-06T21:59:29Z</time>
      </trkpt>
      <trkpt lat="44.00441" lon="2.23793">
        <ele>309</ele>
        <time>2019-11-06T22:00:05Z</time>
      </trkpt>
      <trkpt lat="44.00459" lon="2.23821">
        <ele>312</ele>
        <time>2019-11-06T22:00:27Z</time>
      </trkpt>
      <trkpt lat="44.00535" lon="2.23907">
        <ele>321</ele>
        <time>2019-11-06T22:01:45Z</time>
      </trkpt>
      <trkpt lat="44.00549" lon="2.23925">
        <ele>322</ele>
        <time>2019-11-06T22:02:00Z</time>
      </trkpt>
      <trkpt lat="44.00559" lon="2.23943">
        <ele>324</ele>
        <time>2019-11-06T22:02:13Z</time>
      </trkpt>
      <trkpt lat="44.00597" lon="2.2399">
        <ele>328</ele>
        <time>2019-11-06T22:02:54Z</time>
      </trkpt>
      <trkpt lat="44.0065" lon="2.24046">
        <ele>332</ele>
        <time>2019-11-06T22:03:47Z</time>
      </trkpt>
      <trkpt lat="44.00659" lon="2.24066">
        <ele>333</ele>
        <time>2019-11-06T22:04:01Z</time>
      </trkpt>
      <trkpt lat="44.00657" lon="2.24089">
        <ele>334</ele>
        <time>2019-11-06T22:04:14Z</time>
      </trkpt>
      <trkpt lat="44.0065" lon="2.24108">
        <ele>334</ele>
        <time>2019-11-06T22:04:27Z</time>
      </trkpt>
      <trkpt lat="44.00652" lon="2.24154">
        <ele>334</ele>
        <time>2019-11-06T22:04:53Z</time>
      </trkpt>
      <trkpt lat="44.00667" lon="2.24183">
        <ele>336</ele>
        <time>2019-11-06T22:05:14Z</time>
      </trkpt>
      <trkpt lat="44.00679" lon="2.242">
        <ele>336</ele>
        <time>2019-11-06T22:05:27Z</time>
      </trkpt>
      <trkpt lat="44.00685" lon="2.24204">
        <ele>335</ele>
        <time>2019-11-06T22:05:33Z</time>
      </trkpt>
      <trkpt lat="44.00687" lon="2.24215">
        <ele>336</ele>
        <time>2019-11-06T22:05:39Z</time>
      </trkpt>
      <trkpt lat="44.00686" lon="2.24249">
        <ele>336</ele>
        <time>2019-11-06T22:05:59Z</time>
      </trkpt>
      <trkpt lat="44.00669" lon="2.2432">
        <ele>339</ele>
        <time>2019-11-06T22:06:42Z</time>
      </trkpt>
      <trkpt lat="44.00644" lon="2.24397">
        <ele>340</ele>
        <time>2019-11-06T22:07:31Z</time>
      </trkpt>
      <trkpt lat="44.00632" lon="2.24449">
        <ele>341</ele>
        <time>2019-11-06T22:08:02Z</time>
      </trkpt>
      <trkpt lat="44.00623" lon="2.24506">
        <ele>342</ele>
        <time>2019-11-06T22:08:36Z</time>
      </trkpt>
      <trkpt lat="44.0062" lon="2.24528">
        <ele>342</ele>
        <time>2019-11-06T22:08:49Z</time>
      </trkpt>
      <trkpt lat="44.0062" lon="2.24676">
        <ele>347</ele>
        <time>2019-11-06T22:10:14Z</time>
      </trkpt>
      <trkpt lat="44.006" lon="2.24696">
        <ele>347</ele>
        <time>2019-11-06T22:10:34Z</time>
      </trkpt>
      <trkpt lat="44.00569" lon="2.24716">
        <ele>347</ele>
        <time>2019-11-06T22:11:01Z</time>
      </trkpt>
      <trkpt lat="44.0049" lon="2.24741">
        <ele>346</ele>
        <time>2019-11-06T22:12:06Z</time>
      </trkpt>
      <trkpt lat="44.00414" lon="2.24827">
        <ele>344</ele>
        <time>2019-11-06T22:13:24Z</time>
      </trkpt>
      <trkpt lat="44.00312" lon="2.24896">
        <ele>337</ele>
        <time>2019-11-06T22:14:55Z</time>
      </trkpt>
      <trkpt lat="44.00281" lon="2.2493">
        <ele>334</ele>
        <time>2019-11-06T22:15:27Z</time>
      </trkpt>
      <trkpt lat="44.00265" lon="2.24942">
        <ele>332</ele>
        <time>2019-11-06T22:15:41Z</time>
      </trkpt>
      <trkpt lat="44.00149" lon="2.25009">
        <ele>320</ele>
        <time>2019-11-06T22:17:22Z</time>
      </trkpt>
      <trkpt lat="44.00121" lon="2.25011">
        <ele>317</ele>
        <time>2019-11-06T22:17:44Z</time>
      </trkpt>
      <trkpt lat="44.00114" lon="2.25016">
        <ele>315</ele>
        <time>2019-11-06T22:17:51Z</time>
      </trkpt>
      <trkpt lat="44.00112" lon="2.25021">
        <ele>315</ele>
        <time>2019-11-06T22:17:54Z</time>
      </trkpt>
      <trkpt lat="44.00114" lon="2.25029">
        <ele>314</ele>
        <time>2019-11-06T22:17:59Z</time>
      </trkpt>
      <trkpt lat="44.00127" lon="2.25037">
        <ele>314</ele>
        <time>2019-11-06T22:18:10Z</time>
      </trkpt>
      <trkpt lat="44.00155" lon="2.25048">
        <ele>316</ele>
        <time>2019-11-06T22:18:33Z</time>
      </trkpt>
      <trkpt lat="44.00167" lon="2.25056">
        <ele>316</ele>
        <time>2019-11-06T22:18:44Z</time>
      </trkpt>
      <trkpt lat="44.0018" lon="2.25068">
        <ele>315</ele>
        <time>2019-11-06T22:18:57Z</time>
      </trkpt>
      <trkpt lat="44.00192" lon="2.25091">
        <ele>314</ele>
        <time>2019-11-06T22:19:13Z</time>
      </trkpt>
      <trkpt lat="44.00204" lon="2.25125">
        <ele>310</ele>
        <time>2019-11-06T22:19:35Z</time>
      </trkpt>
      <trkpt lat="44.00208" lon="2.25148">
        <ele>307</ele>
        <time>2019-11-06T22:19:48Z</time>
      </trkpt>
      <trkpt lat="44.00207" lon="2.2523">
        <ele>300</ele>
        <time>2019-11-06T22:20:36Z</time>
      </trkpt>
      <trkpt lat="44.00204" lon="2.25237">
        <ele>300</ele>
        <time>2019-11-06T22:20:40Z</time>
      </trkpt>
      <trkpt lat="44.00199" lon="2.25238">
        <ele>299</ele>
        <time>2019-11-06T22:20:44Z</time>
      </trkpt>
      <trkpt lat="44.00192" lon="2.25237">
        <ele>299</ele>
        <time>2019-11-06T22:20:50Z</time>
      </trkpt>
      <trkpt lat="44.00178" lon="2.25229">
        <ele>298</ele>
        <time>2019-11-06T22:21:02Z</time>
      </trkpt>
      <trkpt lat="44.00147" lon="2.25222">
        <ele>299</ele>
        <time>2019-11-06T22:21:27Z</time>
      </trkpt>
      <trkpt lat="44.00124" lon="2.2522">
        <ele>300</ele>
        <time>2019-11-06T22:21:46Z</time>
      </trkpt>
      <trkpt lat="44.00096" lon="2.25225">
        <ele>302</ele>
        <time>2019-11-06T22:22:08Z</time>
      </trkpt>
      <trkpt lat="44.00084" lon="2.25238">
        <ele>305</ele>
        <time>2019-11-06T22:22:21Z</time>
      </trkpt>
      <trkpt lat="44.00081" lon="2.25248">
        <ele>306</ele>
        <time>2019-11-06T22:22:27Z</time>
      </trkpt>
      <trkpt lat="44.00081" lon="2.2526">
        <ele>307</ele>
        <time>2019-11-06T22:22:34Z</time>
      </trkpt>
      <trkpt lat="44.00094" lon="2.25308">
        <ele>311</ele>
        <time>2019-11-06T22:23:03Z</time>
      </trkpt>
      <trkpt lat="44.0011" lon="2.25407">
        <ele>320</ele>
        <time>2019-11-06T22:24:02Z</time>
      </trkpt>
      <trkpt lat="44.00111" lon="2.25507">
        <ele>327</ele>
        <time>2019-11-06T22:24:59Z</time>
      </trkpt>
      <trkpt lat="44.00106" lon="2.25529">
        <ele>328</ele>
        <time>2019-11-06T22:25:13Z</time>
      </trkpt>
      <trkpt lat="44.00081" lon="2.25599">
        <ele>334</ele>
        <time>2019-11-06T22:25:58Z</time>
      </trkpt>
      <trkpt lat="44.00072" lon="2.25616">
        <ele>336</ele>
        <time>2019-11-06T22:26:10Z</time>
      </trkpt>
      <trkpt lat="44.00044" lon="2.2565">
        <ele>340</ele>
        <time>2019-11-06T22:26:39Z</time>
      </trkpt>
      <trkpt lat="44.00017" lon="2.25677">
        <ele>344</ele>
        <time>2019-11-06T22:27:06Z</time>
      </trkpt>
      <trkpt lat="43.99968" lon="2.25711">
        <ele>346</ele>
        <time>2019-11-06T22:27:50Z</time>
      </trkpt>
      <trkpt lat="43.99957" lon="2.25715">
        <ele>346</ele>
        <time>2019-11-06T22:27:59Z</time>
      </trkpt>
      <trkpt lat="43.99948" lon="2.25728">
        <ele>346</ele>
        <time>2019-11-06T22:28:09Z</time>
      </trkpt>
      <trkpt lat="43.99841" lon="2.25822">
        <ele>344</ele>
        <time>2019-11-06T22:29:51Z</time>
      </trkpt>
      <trkpt lat="43.99815" lon="2.2585">
        <ele>343</ele>
        <time>2019-11-06T22:30:17Z</time>
      </trkpt>
      <trkpt lat="43.99765" lon="2.25912">
        <ele>343</ele>
        <time>2019-11-06T22:31:11Z</time>
      </trkpt>
      <trkpt lat="43.99683" lon="2.26002">
        <ele>346</ele>
        <time>2019-11-06T22:32:34Z</time>
      </trkpt>
      <trkpt lat="43.99595" lon="2.26079">
        <ele>347</ele>
        <time>2019-11-06T22:33:58Z</time>
      </trkpt>
      <trkpt lat="43.99584" lon="2.26086">
        <ele>348</ele>
        <time>2019-11-06T22:34:07Z</time>
      </trkpt>
      <trkpt lat="43.99544" lon="2.26099">
        <ele>351</ele>
        <time>2019-11-06T22:34:40Z</time>
      </trkpt>
      <trkpt lat="43.99465" lon="2.26088">
        <ele>356</ele>
        <time>2019-11-06T22:35:44Z</time>
      </trkpt>
      <trkpt lat="43.99451" lon="2.26089">
        <ele>357</ele>
        <time>2019-11-06T22:35:55Z</time>
      </trkpt>
      <trkpt lat="43.99441" lon="2.26093">
        <ele>357</ele>
        <time>2019-11-06T22:36:03Z</time>
      </trkpt>
      <trkpt lat="43.9943" lon="2.26106">
        <ele>357</ele>
        <time>2019-11-06T22:36:15Z</time>
      </trkpt>
      <trkpt lat="43.99414" lon="2.26149">
        <ele>358</ele>
        <time>2019-11-06T22:36:43Z</time>
      </trkpt>
      <trkpt lat="43.9939" lon="2.26264">
        <ele>358</ele>
        <time>2019-11-06T22:37:52Z</time>
      </trkpt>
      <trkpt lat="43.9938" lon="2.26295">
        <ele>358</ele>
        <time>2019-11-06T22:38:11Z</time>
      </trkpt>
      <trkpt lat="43.99373" lon="2.26332">
        <ele>357</ele>
        <time>2019-11-06T22:38:33Z</time>
      </trkpt>
      <trkpt lat="43.99347" lon="2.26529">
        <ele>363</ele>
        <time>2019-11-06T22:40:29Z</time>
      </trkpt>
      <trkpt lat="43.99347" lon="2.26546">
        <ele>364</ele>
        <time>2019-11-06T22:40:39Z</time>
      </trkpt>
      <trkpt lat="43.99351" lon="2.26568">
        <ele>365</ele>
        <time>2019-11-06T22:40:52Z</time>
      </trkpt>
      <trkpt lat="43.99354" lon="2.26673">
        <ele>368</ele>
        <time>2019-11-06T22:41:52Z</time>
      </trkpt>
      <trkpt lat="43.99375" lon="2.26774">
        <ele>370</ele>
        <time>2019-11-06T22:42:53Z</time>
      </trkpt>
      <trkpt lat="43.99376" lon="2.26808">
        <ele>370</ele>
        <time>2019-11-06T22:43:12Z</time>
      </trkpt>
      <trkpt lat="43.99364" lon="2.26914">
        <ele>373</ele>
        <time>2019-11-06T22:44:14Z</time>
      </trkpt>
      <trkpt lat="43.99346" lon="2.26915">
        <ele>373</ele>
        <time>2019-11-06T22:44:29Z</time>
      </trkpt>
      <trkpt lat="43.99324" lon="2.26925">
        <ele>373</ele>
        <time>2019-11-06T22:44:47Z</time>
      </trkpt>
      <trkpt lat="43.99312" lon="2.26935">
        <ele>372</ele>
        <time>2019-11-06T22:44:58Z</time>
      </trkpt>
      <trkpt lat="43.9932" lon="2.26938">
        <ele>373</ele>
        <time>2019-11-06T22:45:05Z</time>
      </trkpt>
      <trkpt lat="43.99307" lon="2.26956">
        <ele>373</ele>
        <time>2019-11-06T22:45:20Z</time>
      </trkpt>
      <trkpt lat="43.99285" lon="2.26978">
        <ele>373</ele>
        <time>2019-11-06T22:45:41Z</time>
      </trkpt>
      <trkpt lat="43.9923" lon="2.27023">
        <ele>371</ele>
        <time>2019-11-06T22:46:32Z</time>
      </trkpt>
      <trkpt lat="43.99216" lon="2.27029">
        <ele>370</ele>
        <time>2019-11-06T22:46:44Z</time>
      </trkpt>
      <trkpt lat="43.99195" lon="2.27028">
        <ele>369</ele>
        <time>2019-11-06T22:47:01Z</time>
      </trkpt>
      <trkpt lat="43.99212" lon="2.27049">
        <ele>371</ele>
        <time>2019-11-06T22:47:19Z</time>
      </trkpt>
      <trkpt lat="43.99225" lon="2.27072">
        <ele>373</ele>
        <time>2019-11-06T22:47:36Z</time>
      </trkpt>
      <trkpt lat="43.99228" lon="2.27088">
        <ele>374</ele>
        <time>2019-11-06T22:47:46Z</time>
      </trkpt>
      <trkpt lat="43.99227" lon="2.27106">
        <ele>374</ele>
        <time>2019-11-06T22:47:56Z</time>
      </trkpt>
      <trkpt lat="43.99203" lon="2.2719">
        <ele>375</ele>
        <time>2019-11-06T22:48:48Z</time>
      </trkpt>
      <trkpt lat="43.99186" lon="2.2721">
        <ele>375</ele>
        <time>2019-11-06T22:49:06Z</time>
      </trkpt>
      <trkpt lat="43.99134" lon="2.27254">
        <ele>377</ele>
        <time>2019-11-06T22:49:55Z</time>
      </trkpt>
      <trkpt lat="43.99069" lon="2.2732">
        <ele>378</ele>
        <time>2019-11-06T22:50:59Z</time>
      </trkpt>
      <trkpt lat="43.99051" lon="2.27344">
        <ele>377</ele>
        <time>2019-11-06T22:51:19Z</time>
      </trkpt>
      <trkpt lat="43.99036" lon="2.27369">
        <ele>376</ele>
        <time>2019-11-06T22:51:38Z</time>
      </trkpt>
      <trkpt lat="43.99021" lon="2.27406">
        <ele>375</ele>
        <time>2019-11-06T22:52:02Z</time>
      </trkpt>
      <trkpt lat="43.9901" lon="2.27446">
        <ele>375</ele>
        <time>2019-11-06T22:52:27Z</time>
      </trkpt>
      <trkpt lat="43.99" lon="2.27489">
        <ele>377</ele>
        <time>2019-11-06T22:52:53Z</time>
      </trkpt>
      <trkpt lat="43.98993" lon="2.27537">
        <ele>376</ele>
        <time>2019-11-06T22:53:21Z</time>
      </trkpt>
      <trkpt lat="43.98952" lon="2.27663">
        <ele>378</ele>
        <time>2019-11-06T22:54:41Z</time>
      </trkpt>
      <trkpt lat="43.98931" lon="2.27757">
        <ele>380</ele>
        <time>2019-11-06T22:55:38Z</time>
      </trkpt>
      <trkpt lat="43.9889" lon="2.27784">
        <ele>381</ele>
        <time>2019-11-06T22:56:14Z</time>
      </trkpt>
      <trkpt lat="43.98664" lon="2.27982">
        <ele>388</ele>
        <time>2019-11-06T22:59:48Z</time>
      </trkpt>
      <trkpt lat="43.98638" lon="2.27999">
        <ele>389</ele>
        <time>2019-11-06T23:00:11Z</time>
      </trkpt>
      <trkpt lat="43.98642" lon="2.28018">
        <ele>388</ele>
        <time>2019-11-06T23:00:22Z</time>
      </trkpt>
      <trkpt lat="43.98648" lon="2.28022">
        <ele>388</ele>
        <time>2019-11-06T23:00:28Z</time>
      </trkpt>
      <trkpt lat="43.98649" lon="2.28029">
        <ele>388</ele>
        <time>2019-11-06T23:00:32Z</time>
      </trkpt>
      <trkpt lat="43.98672" lon="2.28047">
        <ele>385</ele>
        <time>2019-11-06T23:00:53Z</time>
      </trkpt>
      <trkpt lat="43.98684" lon="2.28051">
        <ele>384</ele>
        <time>2019-11-06T23:01:03Z</time>
      </trkpt>
      <trkpt lat="43.98695" lon="2.2805">
        <ele>383</ele>
        <time>2019-11-06T23:01:11Z</time>
      </trkpt>
      <trkpt lat="43.98707" lon="2.28045">
        <ele>382</ele>
        <time>2019-11-06T23:01:22Z</time>
      </trkpt>
      <trkpt lat="43.98719" lon="2.28044">
        <ele>380</ele>
        <time>2019-11-06T23:01:31Z</time>
      </trkpt>
      <trkpt lat="43.98729" lon="2.28046">
        <ele>379</ele>
        <time>2019-11-06T23:01:39Z</time>
      </trkpt>
      <trkpt lat="43.9876" lon="2.28055">
        <ele>376</ele>
        <time>2019-11-06T23:02:05Z</time>
      </trkpt>
      <trkpt lat="43.98762" lon="2.28067">
        <ele>375</ele>
        <time>2019-11-06T23:02:12Z</time>
      </trkpt>
      <trkpt lat="43.98749" lon="2.2816">
        <ele>370</ele>
        <time>2019-11-06T23:03:06Z</time>
      </trkpt>
      <trkpt lat="43.98741" lon="2.28196">
        <ele>367</ele>
        <time>2019-11-06T23:03:28Z</time>
      </trkpt>
      <trkpt lat="43.98731" lon="2.28222">
        <ele>365</ele>
        <time>2019-11-06T23:03:45Z</time>
      </trkpt>
      <trkpt lat="43.98723" lon="2.28232">
        <ele>365</ele>
        <time>2019-11-06T23:03:54Z</time>
      </trkpt>
      <trkpt lat="43.98716" lon="2.28236">
        <ele>366</ele>
        <time>2019-11-06T23:04:00Z</time>
      </trkpt>
      <trkpt lat="43.98689" lon="2.28309">
        <ele>353</ele>
        <time>2019-11-06T23:04:47Z</time>
      </trkpt>
      <trkpt lat="43.98679" lon="2.28324">
        <ele>350</ele>
        <time>2019-11-06T23:04:59Z</time>
      </trkpt>
      <trkpt lat="43.98673" lon="2.28343">
        <ele>345</ele>
        <time>2019-11-06T23:05:11Z</time>
      </trkpt>
      <trkpt lat="43.98661" lon="2.28341">
        <ele>346</ele>
        <time>2019-11-06T23:05:20Z</time>
      </trkpt>
      <trkpt lat="43.98631" lon="2.28352">
        <ele>345</ele>
        <time>2019-11-06T23:05:45Z</time>
      </trkpt>
      <trkpt lat="43.98584" lon="2.28401">
        <ele>333</ele>
        <time>2019-11-06T23:06:32Z</time>
      </trkpt>
      <trkpt lat="43.98563" lon="2.28417">
        <ele>327</ele>
        <time>2019-11-06T23:06:51Z</time>
      </trkpt>
      <trkpt lat="43.98552" lon="2.28413">
        <ele>327</ele>
        <time>2019-11-06T23:07:00Z</time>
      </trkpt>
      <trkpt lat="43.98541" lon="2.28405">
        <ele>328</ele>
        <time>2019-11-06T23:07:10Z</time>
      </trkpt>
      <trkpt lat="43.98514" lon="2.28351">
        <ele>334</ele>
        <time>2019-11-06T23:07:48Z</time>
      </trkpt>
      <trkpt lat="43.98507" lon="2.28343">
        <ele>334</ele>
        <time>2019-11-06T23:07:56Z</time>
      </trkpt>
      <trkpt lat="43.98496" lon="2.28336">
        <ele>333</ele>
        <time>2019-11-06T23:08:05Z</time>
      </trkpt>
      <trkpt lat="43.98485" lon="2.28335">
        <ele>332</ele>
        <time>2019-11-06T23:08:14Z</time>
      </trkpt>
      <trkpt lat="43.98465" lon="2.28328">
        <ele>330</ele>
        <time>2019-11-06T23:08:31Z</time>
      </trkpt>
      <trkpt lat="43.98454" lon="2.28318">
        <ele>332</ele>
        <time>2019-11-06T23:08:41Z</time>
      </trkpt>
      <trkpt lat="43.98424" lon="2.283">
        <ele>333</ele>
        <time>2019-11-06T23:09:07Z</time>
      </trkpt>
      <trkpt lat="43.98415" lon="2.28302">
        <ele>331</ele>
        <time>2019-11-06T23:09:15Z</time>
      </trkpt>
      <trkpt lat="43.98405" lon="2.28309">
        <ele>328</ele>
        <time>2019-11-06T23:09:24Z</time>
      </trkpt>
      <trkpt lat="43.98401" lon="2.28317">
        <ele>325</ele>
        <time>2019-11-06T23:09:29Z</time>
      </trkpt>
      <trkpt lat="43.98398" lon="2.28363">
        <ele>323</ele>
        <time>2019-11-06T23:09:56Z</time>
      </trkpt>
      <trkpt lat="43.98433" lon="2.28372">
        <ele>325</ele>
        <time>2019-11-06T23:10:24Z</time>
      </trkpt>
      <trkpt lat="43.98479" lon="2.28409">
        <ele>325</ele>
        <time>2019-11-06T23:11:07Z</time>
      </trkpt>
      <trkpt lat="43.98511" lon="2.28498">
        <ele>333</ele>
        <time>2019-11-06T23:12:04Z</time>
      </trkpt>
      <trkpt lat="43.98515" lon="2.28504">
        <ele>334</ele>
        <time>2019-11-06T23:12:09Z</time>
      </trkpt>
      <trkpt lat="43.98536" lon="2.28519">
        <ele>335</ele>
        <time>2019-11-06T23:12:28Z</time>
      </trkpt>
      <trkpt lat="43.98552" lon="2.28539">
        <ele>337</ele>
        <time>2019-11-06T23:12:45Z</time>
      </trkpt>
      <trkpt lat="43.98564" lon="2.28544">
        <ele>337</ele>
        <time>2019-11-06T23:12:55Z</time>
      </trkpt>
      <trkpt lat="43.98589" lon="2.28536">
        <ele>332</ele>
        <time>2019-11-06T23:13:16Z</time>
      </trkpt>
      <trkpt lat="43.9861" lon="2.28535">
        <ele>331</ele>
        <time>2019-11-06T23:13:32Z</time>
      </trkpt>
      <trkpt lat="43.98616" lon="2.28541">
        <ele>332</ele>
        <time>2019-11-06T23:13:38Z</time>
      </trkpt>
      <trkpt lat="43.98619" lon="2.28549">
        <ele>333</ele>
        <time>2019-11-06T23:13:43Z</time>
      </trkpt>
      <trkpt lat="43.98622" lon="2.2854">
        <ele>331</ele>
        <time>2019-11-06T23:13:49Z</time>
      </trkpt>
      <trkpt lat="43.9862" lon="2.28525">
        <ele>329</ele>
        <time>2019-11-06T23:13:58Z</time>
      </trkpt>
      <trkpt lat="43.98608" lon="2.28501">
        <ele>325</ele>
        <time>2019-11-06T23:14:15Z</time>
      </trkpt>
      <trkpt lat="43.98599" lon="2.28494">
        <ele>325</ele>
        <time>2019-11-06T23:14:23Z</time>
      </trkpt>
      <trkpt lat="43.98593" lon="2.28478">
        <ele>326</ele>
        <time>2019-11-06T23:14:33Z</time>
      </trkpt>
      <trkpt lat="43.98625" lon="2.28449">
        <ele>325</ele>
        <time>2019-11-06T23:15:04Z</time>
      </trkpt>
      <trkpt lat="43.9865" lon="2.28447">
        <ele>324</ele>
        <time>2019-11-06T23:15:24Z</time>
      </trkpt>
      <trkpt lat="43.98674" lon="2.28459">
        <ele>324</ele>
        <time>2019-11-06T23:15:45Z</time>
      </trkpt>
      <trkpt lat="43.98682" lon="2.28468">
        <ele>325</ele>
        <time>2019-11-06T23:15:53Z</time>
      </trkpt>
      <trkpt lat="43.98704" lon="2.28503">
        <ele>326</ele>
        <time>2019-11-06T23:16:20Z</time>
      </trkpt>
      <trkpt lat="43.98719" lon="2.2854">
        <ele>332</ele>
        <time>2019-11-06T23:16:44Z</time>
      </trkpt>
      <trkpt lat="43.98734" lon="2.28605">
        <ele>343</ele>
        <time>2019-11-06T23:17:23Z</time>
      </trkpt>
      <trkpt lat="43.98745" lon="2.28693">
        <ele>351</ele>
        <time>2019-11-06T23:18:15Z</time>
      </trkpt>
      <trkpt lat="43.98746" lon="2.28728">
        <ele>352</ele>
        <time>2019-11-06T23:18:35Z</time>
      </trkpt>
      <trkpt lat="43.98752" lon="2.28785">
        <ele>355</ele>
        <time>2019-11-06T23:19:08Z</time>
      </trkpt>
      <trkpt lat="43.98751" lon="2.28792">
        <ele>355</ele>
        <time>2019-11-06T23:19:12Z</time>
      </trkpt>
      <trkpt lat="43.98732" lon="2.28828">
        <ele>351</ele>
        <time>2019-11-06T23:19:38Z</time>
      </trkpt>
      <trkpt lat="43.98727" lon="2.28842">
        <ele>349</ele>
        <time>2019-11-06T23:19:47Z</time>
      </trkpt>
      <trkpt lat="43.98726" lon="2.28854">
        <ele>349</ele>
        <time>2019-11-06T23:19:54Z</time>
      </trkpt>
      <trkpt lat="43.98726" lon="2.28866">
        <ele>349</ele>
        <time>2019-11-06T23:20:01Z</time>
      </trkpt>
      <trkpt lat="43.98738" lon="2.28924">
        <ele>350</ele>
        <time>2019-11-06T23:20:36Z</time>
      </trkpt>
      <trkpt lat="43.98736" lon="2.28957">
        <ele>348</ele>
        <time>2019-11-06T23:20:55Z</time>
      </trkpt>
      <trkpt lat="43.98728" lon="2.28974">
        <ele>348</ele>
        <time>2019-11-06T23:21:06Z</time>
      </trkpt>
      <trkpt lat="43.98728" lon="2.28996">
        <ele>347</ele>
        <time>2019-11-06T23:21:19Z</time>
      </trkpt>
      <trkpt lat="43.98731" lon="2.29018">
        <ele>347</ele>
        <time>2019-11-06T23:21:32Z</time>
      </trkpt>
      <trkpt lat="43.98737" lon="2.29029">
        <ele>347</ele>
        <time>2019-11-06T23:21:40Z</time>
      </trkpt>
      <trkpt lat="43.98745" lon="2.29065">
        <ele>347</ele>
        <time>2019-11-06T23:22:02Z</time>
      </trkpt>
      <trkpt lat="43.98746" lon="2.2908">
        <ele>347</ele>
        <time>2019-11-06T23:22:10Z</time>
      </trkpt>
      <trkpt lat="43.98745" lon="2.29093">
        <ele>349</ele>
        <time>2019-11-06T23:22:18Z</time>
      </trkpt>
      <trkpt lat="43.98734" lon="2.29107">
        <ele>351</ele>
        <time>2019-11-06T23:22:30Z</time>
      </trkpt>
      <trkpt lat="43.98743" lon="2.29123">
        <ele>351</ele>
        <time>2019-11-06T23:22:41Z</time>
      </trkpt>
      <trkpt lat="43.98754" lon="2.29131">
        <ele>353</ele>
        <time>2019-11-06T23:22:51Z</time>
      </trkpt>
      <trkpt lat="43.98767" lon="2.29171">
        <ele>359</ele>
        <time>2019-11-06T23:23:17Z</time>
      </trkpt>
      <trkpt lat="43.98765" lon="2.29186">
        <ele>360</ele>
        <time>2019-11-06T23:23:26Z</time>
      </trkpt>
      <trkpt lat="43.98766" lon="2.29208">
        <ele>363</ele>
        <time>2019-11-06T23:23:38Z</time>
      </trkpt>
      <trkpt lat="43.98779" lon="2.2925">
        <ele>368</ele>
        <time>2019-11-06T23:24:05Z</time>
      </trkpt>
      <trkpt lat="43.98779" lon="2.29262">
        <ele>369</ele>
        <time>2019-11-06T23:24:11Z</time>
      </trkpt>
      <trkpt lat="43.98776" lon="2.29271">
        <ele>370</ele>
        <time>2019-11-06T23:24:17Z</time>
      </trkpt>
      <trkpt lat="43.98775" lon="2.29303">
        <ele>373</ele>
        <time>2019-11-06T23:24:36Z</time>
      </trkpt>
      <trkpt lat="43.98777" lon="2.29313">
        <ele>374</ele>
        <time>2019-11-06T23:24:42Z</time>
      </trkpt>
      <trkpt lat="43.98789" lon="2.29336">
        <ele>374</ele>
        <time>2019-11-06T23:24:58Z</time>
      </trkpt>
      <trkpt lat="43.98802" lon="2.29351">
        <ele>374</ele>
        <time>2019-11-06T23:25:12Z</time>
      </trkpt>
      <trkpt lat="43.98803" lon="2.29357">
        <ele>375</ele>
        <time>2019-11-06T23:25:15Z</time>
      </trkpt>
      <trkpt lat="43.98818" lon="2.29369">
        <ele>374</ele>
        <time>2019-11-06T23:25:29Z</time>
      </trkpt>
      <trkpt lat="43.98822" lon="2.29384">
        <ele>375</ele>
        <time>2019-11-06T23:25:38Z</time>
      </trkpt>
      <trkpt lat="43.98833" lon="2.29408">
        <ele>376</ele>
        <time>2019-11-06T23:25:55Z</time>
      </trkpt>
      <trkpt lat="43.9883" lon="2.29425">
        <ele>378</ele>
        <time>2019-11-06T23:26:05Z</time>
      </trkpt>
      <trkpt lat="43.98814" lon="2.29424">
        <ele>379</ele>
        <time>2019-11-06T23:26:17Z</time>
      </trkpt>
      <trkpt lat="43.98789" lon="2.29415">
        <ele>381</ele>
        <time>2019-11-06T23:26:38Z</time>
      </trkpt>
      <trkpt lat="43.98779" lon="2.29414">
        <ele>381</ele>
        <time>2019-11-06T23:26:46Z</time>
      </trkpt>
      <trkpt lat="43.98775" lon="2.29417">
        <ele>382</ele>
        <time>2019-11-06T23:26:50Z</time>
      </trkpt>
      <trkpt lat="43.98737" lon="2.29526">
        <ele>386</ele>
        <time>2019-11-06T23:28:00Z</time>
      </trkpt>
      <trkpt lat="43.98707" lon="2.29599">
        <ele>387</ele>
        <time>2019-11-06T23:28:48Z</time>
      </trkpt>
      <trkpt lat="43.98682" lon="2.29674">
        <ele>390</ele>
        <time>2019-11-06T23:29:36Z</time>
      </trkpt>
      <trkpt lat="43.98663" lon="2.29758">
        <ele>392</ele>
        <time>2019-11-06T23:30:26Z</time>
      </trkpt>
      <trkpt lat="43.98645" lon="2.29803">
        <ele>393</ele>
        <time>2019-11-06T23:30:56Z</time>
      </trkpt>
      <trkpt lat="43.98651" lon="2.29836">
        <ele>393</ele>
        <time>2019-11-06T23:31:16Z</time>
      </trkpt>
      <trkpt lat="43.98645" lon="2.29854">
        <ele>394</ele>
        <time>2019-11-06T23:31:27Z</time>
      </trkpt>
      <trkpt lat="43.98625" lon="2.2989">
        <ele>396</ele>
        <time>2019-11-06T23:31:53Z</time>
      </trkpt>
      <trkpt lat="43.98861" lon="2.29994">
        <ele>400</ele>
        <time>2019-11-06T23:35:11Z</time>
      </trkpt>
      <trkpt lat="43.98893" lon="2.30005">
        <ele>400</ele>
        <time>2019-11-06T23:35:38Z</time>
      </trkpt>
      <trkpt lat="43.98939" lon="2.30025">
        <ele>400</ele>
        <time>2019-11-06T23:36:16Z</time>
      </trkpt>
      <trkpt lat="43.98953" lon="2.30029">
        <ele>400</ele>
        <time>2019-11-06T23:36:28Z</time>
      </trkpt>
      <trkpt lat="43.98982" lon="2.30032">
        <ele>400</ele>
        <time>2019-11-06T23:36:51Z</time>
      </trkpt>
      <trkpt lat="43.98972" lon="2.30056">
        <ele>400</ele>
        <time>2019-11-06T23:37:07Z</time>
      </trkpt>
      <trkpt lat="43.98949" lon="2.30088">
        <ele>400</ele>
        <time>2019-11-06T23:37:33Z</time>
      </trkpt>
      <trkpt lat="43.98904" lon="2.30174">
        <ele>399</ele>
        <time>2019-11-06T23:38:34Z</time>
      </trkpt>
      <trkpt lat="43.98863" lon="2.30238">
        <ele>396</ele>
        <time>2019-11-06T23:39:24Z</time>
      </trkpt>
      <trkpt lat="43.98803" lon="2.30311">
        <ele>393</ele>
        <time>2019-11-06T23:40:28Z</time>
      </trkpt>
      <trkpt lat="43.9878" lon="2.30343">
        <ele>392</ele>
        <time>2019-11-06T23:40:54Z</time>
      </trkpt>
      <trkpt lat="43.98713" lon="2.3048">
        <ele>389</ele>
        <time>2019-11-06T23:42:29Z</time>
      </trkpt>
      <trkpt lat="43.98695" lon="2.30503">
        <ele>388</ele>
        <time>2019-11-06T23:42:49Z</time>
      </trkpt>
      <trkpt lat="43.98664" lon="2.30564">
        <ele>386</ele>
        <time>2019-11-06T23:43:32Z</time>
      </trkpt>
      <trkpt lat="43.98631" lon="2.30669">
        <ele>378</ele>
        <time>2019-11-06T23:44:38Z</time>
      </trkpt>
      <trkpt lat="43.98629" lon="2.30722">
        <ele>376</ele>
        <time>2019-11-06T23:45:08Z</time>
      </trkpt>
      <trkpt lat="43.9863" lon="2.30782">
        <ele>373</ele>
        <time>2019-11-06T23:45:43Z</time>
      </trkpt>
      <trkpt lat="43.98627" lon="2.30801">
        <ele>371</ele>
        <time>2019-11-06T23:45:54Z</time>
      </trkpt>
      <trkpt lat="43.98624" lon="2.30805">
        <ele>371</ele>
        <time>2019-11-06T23:45:57Z</time>
      </trkpt>
      <trkpt lat="43.98618" lon="2.30805">
        <ele>371</ele>
        <time>2019-11-06T23:46:02Z</time>
      </trkpt>
      <trkpt lat="43.98599" lon="2.30789">
        <ele>372</ele>
        <time>2019-11-06T23:46:20Z</time>
      </trkpt>
      <trkpt lat="43.98595" lon="2.30791">
        <ele>371</ele>
        <time>2019-11-06T23:46:23Z</time>
      </trkpt>
      <trkpt lat="43.98591" lon="2.30796">
        <ele>371</ele>
        <time>2019-11-06T23:46:28Z</time>
      </trkpt>
      <trkpt lat="43.98589" lon="2.3083">
        <ele>368</ele>
        <time>2019-11-06T23:46:47Z</time>
      </trkpt>
      <trkpt lat="43.98597" lon="2.30872">
        <ele>363</ele>
        <time>2019-11-06T23:47:12Z</time>
      </trkpt>
      <trkpt lat="43.98612" lon="2.309">
        <ele>360</ele>
        <time>2019-11-06T23:47:33Z</time>
      </trkpt>
      <trkpt lat="43.98642" lon="2.3094">
        <ele>356</ele>
        <time>2019-11-06T23:48:06Z</time>
      </trkpt>
      <trkpt lat="43.98645" lon="2.3095">
        <ele>355</ele>
        <time>2019-11-06T23:48:12Z</time>
      </trkpt>
      <trkpt lat="43.98656" lon="2.30957">
        <ele>355</ele>
        <time>2019-11-06T23:48:22Z</time>
      </trkpt>
      <trkpt lat="43.98652" lon="2.31016">
        <ele>345</ele>
        <time>2019-11-06T23:48:56Z</time>
      </trkpt>
      <trkpt lat="43.98652" lon="2.31063">
        <ele>340</ele>
        <time>2019-11-06T23:49:23Z</time>
      </trkpt>
      <trkpt lat="43.9866" lon="2.31081">
        <ele>338</ele>
        <time>2019-11-06T23:49:35Z</time>
      </trkpt>
      <trkpt lat="43.98661" lon="2.31114">
        <ele>335</ele>
        <time>2019-11-06T23:49:54Z</time>
      </trkpt>
      <trkpt lat="43.98639" lon="2.31131">
        <ele>331</ele>
        <time>2019-11-06T23:50:14Z</time>
      </trkpt>
      <trkpt lat="43.98633" lon="2.31139">
        <ele>330</ele>
        <time>2019-11-06T23:50:21Z</time>
      </trkpt>
      <trkpt lat="43.98628" lon="2.31139">
        <ele>330</ele>
        <time>2019-11-06T23:50:25Z</time>
      </trkpt>
      <trkpt lat="43.98632" lon="2.31168">
        <ele>328</ele>
        <time>2019-11-06T23:50:42Z</time>
      </trkpt>
      <trkpt lat="43.98636" lon="2.31179">
        <ele>328</ele>
        <time>2019-11-06T23:50:49Z</time>
      </trkpt>
      <trkpt lat="43.98633" lon="2.31267">
        <ele>330</ele>
        <time>2019-11-06T23:51:40Z</time>
      </trkpt>
      <trkpt lat="43.98672" lon="2.31272">
        <ele>329</ele>
        <time>2019-11-06T23:52:11Z</time>
      </trkpt>
      <trkpt lat="43.98666" lon="2.31285">
        <ele>330</ele>
        <time>2019-11-06T23:52:20Z</time>
      </trkpt>
      <trkpt lat="43.98648" lon="2.31288">
        <ele>332</ele>
        <time>2019-11-06T23:52:35Z</time>
      </trkpt>
      <trkpt lat="43.98645" lon="2.31305">
        <ele>334</ele>
        <time>2019-11-06T23:52:45Z</time>
      </trkpt>
      <trkpt lat="43.98664" lon="2.31312">
        <ele>333</ele>
        <time>2019-11-06T23:53:00Z</time>
      </trkpt>
      <trkpt lat="43.98679" lon="2.3133">
        <ele>334</ele>
        <time>2019-11-06T23:53:16Z</time>
      </trkpt>
      <trkpt lat="43.98687" lon="2.31344">
        <ele>336</ele>
        <time>2019-11-06T23:53:27Z</time>
      </trkpt>
      <trkpt lat="43.98675" lon="2.31345">
        <ele>337</ele>
        <time>2019-11-06T23:53:36Z</time>
      </trkpt>
      <trkpt lat="43.98665" lon="2.31355">
        <ele>340</ele>
        <time>2019-11-06T23:53:46Z</time>
      </trkpt>
      <trkpt lat="43.98654" lon="2.3138">
        <ele>346</ele>
        <time>2019-11-06T23:54:03Z</time>
      </trkpt>
      <trkpt lat="43.9865" lon="2.31395">
        <ele>350</ele>
        <time>2019-11-06T23:54:12Z</time>
      </trkpt>
      <trkpt lat="43.98635" lon="2.31423">
        <ele>357</ele>
        <time>2019-11-06T23:54:32Z</time>
      </trkpt>
      <trkpt lat="43.98627" lon="2.3143">
        <ele>359</ele>
        <time>2019-11-06T23:54:40Z</time>
      </trkpt>
      <trkpt lat="43.98618" lon="2.31433">
        <ele>360</ele>
        <time>2019-11-06T23:54:47Z</time>
      </trkpt>
      <trkpt lat="43.98588" lon="2.31472">
        <ele>370</ele>
        <time>2019-11-06T23:55:20Z</time>
      </trkpt>
      <trkpt lat="43.98581" lon="2.31494">
        <ele>374</ele>
        <time>2019-11-06T23:55:34Z</time>
      </trkpt>
      <trkpt lat="43.98556" lon="2.31514">
        <ele>377</ele>
        <time>2019-11-06T23:55:57Z</time>
      </trkpt>
      <trkpt lat="43.98424" lon="2.3168">
        <ele>386</ele>
        <time>2019-11-06T23:58:20Z</time>
      </trkpt>
      <trkpt lat="43.98382" lon="2.31713">
        <ele>388</ele>
        <time>2019-11-06T23:58:58Z</time>
      </trkpt>
      <trkpt lat="43.98367" lon="2.31742">
        <ele>388</ele>
        <time>2019-11-06T23:59:19Z</time>
      </trkpt>
      <trkpt lat="43.9835" lon="2.31811">
        <ele>388</ele>
        <time>2019-11-07T00:00:01Z</time>
      </trkpt>
      <trkpt lat="43.98313" lon="2.31928">
        <ele>389</ele>
        <time>2019-11-07T00:01:15Z</time>
      </trkpt>
      <trkpt lat="43.98294" lon="2.32017">
        <ele>389</ele>
        <time>2019-11-07T00:02:08Z</time>
      </trkpt>
      <trkpt lat="43.98285" lon="2.32091">
        <ele>387</ele>
        <time>2019-11-07T00:02:51Z</time>
      </trkpt>
      <trkpt lat="43.98276" lon="2.32126">
        <ele>388</ele>
        <time>2019-11-07T00:03:13Z</time>
      </trkpt>
      <trkpt lat="43.98229" lon="2.323">
        <ele>389</ele>
        <time>2019-11-07T00:05:00Z</time>
      </trkpt>
      <trkpt lat="43.98196" lon="2.32386">
        <ele>390</ele>
        <time>2019-11-07T00:05:56Z</time>
      </trkpt>
      <trkpt lat="43.98171" lon="2.32474">
        <ele>392</ele>
        <time>2019-11-07T00:06:50Z</time>
      </trkpt>
      <trkpt lat="43.98109" lon="2.32731">
        <ele>395</ele>
        <time>2019-11-07T00:09:27Z</time>
      </trkpt>
      <trkpt lat="43.98104" lon="2.32736">
        <ele>395</ele>
        <time>2019-11-07T00:09:32Z</time>
      </trkpt>
      <trkpt lat="43.98096" lon="2.32735">
        <ele>396</ele>
        <time>2019-11-07T00:09:38Z</time>
      </trkpt>
      <trkpt lat="43.9808" lon="2.32739">
        <ele>398</ele>
        <time>2019-11-07T00:09:51Z</time>
      </trkpt>
      <trkpt lat="43.98037" lon="2.32754">
        <ele>399</ele>
        <time>2019-11-07T00:10:26Z</time>
      </trkpt>
      <trkpt lat="43.98008" lon="2.32753">
        <ele>400</ele>
        <time>2019-11-07T00:10:50Z</time>
      </trkpt>
      <trkpt lat="43.9796" lon="2.32742">
        <ele>397</ele>
        <time>2019-11-07T00:11:29Z</time>
      </trkpt>
      <trkpt lat="43.97972" lon="2.32693">
        <ele>398</ele>
        <time>2019-11-07T00:11:58Z</time>
      </trkpt>
      <trkpt lat="43.9796" lon="2.32695">
        <ele>397</ele>
        <time>2019-11-07T00:12:08Z</time>
      </trkpt>
      <trkpt lat="43.97949" lon="2.32701">
        <ele>396</ele>
        <time>2019-11-07T00:12:18Z</time>
      </trkpt>
      <trkpt lat="43.97938" lon="2.32711">
        <ele>395</ele>
        <time>2019-11-07T00:12:28Z</time>
      </trkpt>
      <trkpt lat="43.97918" lon="2.3274">
        <ele>395</ele>
        <time>2019-11-07T00:12:51Z</time>
      </trkpt>
      <trkpt lat="43.97879" lon="2.32766">
        <ele>396</ele>
        <time>2019-11-07T00:13:26Z</time>
      </trkpt>
      <trkpt lat="43.97846" lon="2.32807">
        <ele>397</ele>
        <time>2019-11-07T00:14:01Z</time>
      </trkpt>
      <trkpt lat="43.97783" lon="2.32873">
        <ele>395</ele>
        <time>2019-11-07T00:15:05Z</time>
      </trkpt>
      <trkpt lat="43.97695" lon="2.32931">
        <ele>394</ele>
        <time>2019-11-07T00:16:22Z</time>
      </trkpt>
      <trkpt lat="43.97681" lon="2.32939">
        <ele>394</ele>
        <time>2019-11-07T00:16:35Z</time>
      </trkpt>
      <trkpt lat="43.97651" lon="2.32946">
        <ele>393</ele>
        <time>2019-11-07T00:16:59Z</time>
      </trkpt>
      <trkpt lat="43.9763" lon="2.32957">
        <ele>394</ele>
        <time>2019-11-07T00:17:17Z</time>
      </trkpt>
      <trkpt lat="43.97408" lon="2.33051">
        <ele>389</ele>
        <time>2019-11-07T00:20:23Z</time>
      </trkpt>
      <trkpt lat="43.97224" lon="2.3314">
        <ele>389</ele>
        <time>2019-11-07T00:22:59Z</time>
      </trkpt>
      <trkpt lat="43.97206" lon="2.33145">
        <ele>388</ele>
        <time>2019-11-07T00:23:13Z</time>
      </trkpt>
      <trkpt lat="43.97103" lon="2.33193">
        <ele>385</ele>
        <time>2019-11-07T00:24:40Z</time>
      </trkpt>
      <trkpt lat="43.97055" lon="2.33224">
        <ele>384</ele>
        <time>2019-11-07T00:25:23Z</time>
      </trkpt>
      <trkpt lat="43.97028" lon="2.3325">
        <ele>385</ele>
        <time>2019-11-07T00:25:49Z</time>
      </trkpt>
      <trkpt lat="43.97006" lon="2.33266">
        <ele>385</ele>
        <time>2019-11-07T00:26:09Z</time>
      </trkpt>
      <trkpt lat="43.96936" lon="2.333">
        <ele>386</ele>
        <time>2019-11-07T00:27:08Z</time>
      </trkpt>
      <trkpt lat="43.96899" lon="2.33321">
        <ele>386</ele>
        <time>2019-11-07T00:27:40Z</time>
      </trkpt>
      <trkpt lat="43.96872" lon="2.33331">
        <ele>387</ele>
        <time>2019-11-07T00:28:03Z</time>
      </trkpt>
      <trkpt lat="43.96815" lon="2.33513">
        <ele>393</ele>
        <time>2019-11-07T00:29:57Z</time>
      </trkpt>
      <trkpt lat="43.96802" lon="2.33552">
        <ele>392</ele>
        <time>2019-11-07T00:30:22Z</time>
      </trkpt>
      <trkpt lat="43.96794" lon="2.33565">
        <ele>392</ele>
        <time>2019-11-07T00:30:32Z</time>
      </trkpt>
      <trkpt lat="43.96728" lon="2.33558">
        <ele>392</ele>
        <time>2019-11-07T00:31:25Z</time>
      </trkpt>
      <trkpt lat="43.96695" lon="2.33548">
        <ele>392</ele>
        <time>2019-11-07T00:31:52Z</time>
      </trkpt>
      <trkpt lat="43.96691" lon="2.33578">
        <ele>393</ele>
        <time>2019-11-07T00:32:09Z</time>
      </trkpt>
      <trkpt lat="43.96687" lon="2.33589">
        <ele>393</ele>
        <time>2019-11-07T00:32:16Z</time>
      </trkpt>
      <trkpt lat="43.96689" lon="2.33612">
        <ele>393</ele>
        <time>2019-11-07T00:32:30Z</time>
      </trkpt>
      <trkpt lat="43.96683" lon="2.33628">
        <ele>393</ele>
        <time>2019-11-07T00:32:40Z</time>
      </trkpt>
      <trkpt lat="43.96673" lon="2.33643">
        <ele>394</ele>
        <time>2019-11-07T00:32:52Z</time>
      </trkpt>
      <trkpt lat="43.96644" lon="2.33676">
        <ele>394</ele>
        <time>2019-11-07T00:33:22Z</time>
      </trkpt>
      <trkpt lat="43.96639" lon="2.33685">
        <ele>394</ele>
        <time>2019-11-07T00:33:29Z</time>
      </trkpt>
      <trkpt lat="43.96628" lon="2.33693">
        <ele>394</ele>
        <time>2019-11-07T00:33:39Z</time>
      </trkpt>
      <trkpt lat="43.96616" lon="2.33693">
        <ele>395</ele>
        <time>2019-11-07T00:33:48Z</time>
      </trkpt>
      <trkpt lat="43.96613" lon="2.3369">
        <ele>395</ele>
        <time>2019-11-07T00:33:51Z</time>
      </trkpt>
      <trkpt lat="43.96607" lon="2.3369">
        <ele>395</ele>
        <time>2019-11-07T00:33:56Z</time>
      </trkpt>
      <trkpt lat="43.96596" lon="2.33684">
        <ele>395</ele>
        <time>2019-11-07T00:34:05Z</time>
      </trkpt>
      <trkpt lat="43.96595" lon="2.33694">
        <ele>395</ele>
        <time>2019-11-07T00:34:11Z</time>
      </trkpt>
      <trkpt lat="43.96586" lon="2.33705">
        <ele>395</ele>
        <time>2019-11-07T00:34:21Z</time>
      </trkpt>
      <trkpt lat="43.96581" lon="2.33722">
        <ele>396</ele>
        <time>2019-11-07T00:34:31Z</time>
      </trkpt>
      <trkpt lat="43.9657" lon="2.33841">
        <ele>397</ele>
        <time>2019-11-07T00:35:40Z</time>
      </trkpt>
      <trkpt lat="43.96573" lon="2.33884">
        <ele>397</ele>
        <time>2019-11-07T00:36:05Z</time>
      </trkpt>
      <trkpt lat="43.96585" lon="2.33936">
        <ele>396</ele>
        <time>2019-11-07T00:36:37Z</time>
      </trkpt>
      <trkpt lat="43.96587" lon="2.33954">
        <ele>396</ele>
        <time>2019-11-07T00:36:47Z</time>
      </trkpt>
      <trkpt lat="43.9658" lon="2.33999">
        <ele>395</ele>
        <time>2019-11-07T00:37:14Z</time>
      </trkpt>
      <trkpt lat="43.96576" lon="2.34056">
        <ele>393</ele>
        <time>2019-11-07T00:37:47Z</time>
      </trkpt>
      <trkpt lat="43.96573" lon="2.34066">
        <ele>392</ele>
        <time>2019-11-07T00:37:53Z</time>
      </trkpt>
      <trkpt lat="43.96505" lon="2.34225">
        <ele>391</ele>
        <time>2019-11-07T00:39:40Z</time>
      </trkpt>
      <trkpt lat="43.96419" lon="2.34381">
        <ele>395</ele>
        <time>2019-11-07T00:41:33Z</time>
      </trkpt>
      <trkpt lat="43.96365" lon="2.34468">
        <ele>394</ele>
        <time>2019-11-07T00:42:39Z</time>
      </trkpt>
      <trkpt lat="43.96304" lon="2.34553">
        <ele>391</ele>
        <time>2019-11-07T00:43:48Z</time>
      </trkpt>
      <trkpt lat="43.96271" lon="2.34609">
        <ele>388</ele>
        <time>2019-11-07T00:44:30Z</time>
      </trkpt>
      <trkpt lat="43.96246" lon="2.34635">
        <ele>386</ele>
        <time>2019-11-07T00:44:55Z</time>
      </trkpt>
      <trkpt lat="43.96227" lon="2.34637">
        <ele>382</ele>
        <time>2019-11-07T00:45:10Z</time>
      </trkpt>
      <trkpt lat="43.96219" lon="2.34637">
        <ele>381</ele>
        <time>2019-11-07T00:45:17Z</time>
      </trkpt>
      <trkpt lat="43.9621" lon="2.34633">
        <ele>380</ele>
        <time>2019-11-07T00:45:24Z</time>
      </trkpt>
      <trkpt lat="43.96201" lon="2.34624">
        <ele>378</ele>
        <time>2019-11-07T00:45:33Z</time>
      </trkpt>
      <trkpt lat="43.96195" lon="2.34612">
        <ele>378</ele>
        <time>2019-11-07T00:45:42Z</time>
      </trkpt>
      <trkpt lat="43.96185" lon="2.34582">
        <ele>376</ele>
        <time>2019-11-07T00:46:01Z</time>
      </trkpt>
      <trkpt lat="43.96183" lon="2.34544">
        <ele>371</ele>
        <time>2019-11-07T00:46:23Z</time>
      </trkpt>
      <trkpt lat="43.96208" lon="2.34444">
        <ele>370</ele>
        <time>2019-11-07T00:47:24Z</time>
      </trkpt>
      <trkpt lat="43.96208" lon="2.34437">
        <ele>370</ele>
        <time>2019-11-07T00:47:28Z</time>
      </trkpt>
      <trkpt lat="43.96205" lon="2.34431">
        <ele>369</ele>
        <time>2019-11-07T00:47:32Z</time>
      </trkpt>
      <trkpt lat="43.96195" lon="2.34433">
        <ele>367</ele>
        <time>2019-11-07T00:47:40Z</time>
      </trkpt>
      <trkpt lat="43.96184" lon="2.34445">
        <ele>365</ele>
        <time>2019-11-07T00:47:51Z</time>
      </trkpt>
      <trkpt lat="43.96168" lon="2.34471">
        <ele>362</ele>
        <time>2019-11-07T00:48:11Z</time>
      </trkpt>
      <trkpt lat="43.96162" lon="2.34492">
        <ele>361</ele>
        <time>2019-11-07T00:48:24Z</time>
      </trkpt>
      <trkpt lat="43.96145" lon="2.3453">
        <ele>359</ele>
        <time>2019-11-07T00:48:50Z</time>
      </trkpt>
      <trkpt lat="43.96135" lon="2.34537">
        <ele>356</ele>
        <time>2019-11-07T00:48:59Z</time>
      </trkpt>
      <trkpt lat="43.96131" lon="2.34535">
        <ele>355</ele>
        <time>2019-11-07T00:49:02Z</time>
      </trkpt>
      <trkpt lat="43.96139" lon="2.34502">
        <ele>355</ele>
        <time>2019-11-07T00:49:22Z</time>
      </trkpt>
      <trkpt lat="43.96136" lon="2.34497">
        <ele>355</ele>
        <time>2019-11-07T00:49:26Z</time>
      </trkpt>
      <trkpt lat="43.9613" lon="2.34498">
        <ele>353</ele>
        <time>2019-11-07T00:49:31Z</time>
      </trkpt>
      <trkpt lat="43.96113" lon="2.34519">
        <ele>349</ele>
        <time>2019-11-07T00:49:49Z</time>
      </trkpt>
      <trkpt lat="43.96078" lon="2.34586">
        <ele>335</ele>
        <time>2019-11-07T00:50:37Z</time>
      </trkpt>
      <trkpt lat="43.96063" lon="2.3462">
        <ele>331</ele>
        <time>2019-11-07T00:51:00Z</time>
      </trkpt>
      <trkpt lat="43.96045" lon="2.34676">
        <ele>322</ele>
        <time>2019-11-07T00:51:35Z</time>
      </trkpt>
      <trkpt lat="43.96041" lon="2.34695">
        <ele>317</ele>
        <time>2019-11-07T00:51:46Z</time>
      </trkpt>
      <trkpt lat="43.96035" lon="2.34709">
        <ele>313</ele>
        <time>2019-11-07T00:51:56Z</time>
      </trkpt>
      <trkpt lat="43.96025" lon="2.34712">
        <ele>308</ele>
        <time>2019-11-07T00:52:04Z</time>
      </trkpt>
      <trkpt lat="43.96021" lon="2.34708">
        <ele>307</ele>
        <time>2019-11-07T00:52:08Z</time>
      </trkpt>
      <trkpt lat="43.96025" lon="2.34665">
        <ele>314</ele>
        <time>2019-11-07T00:52:33Z</time>
      </trkpt>
      <trkpt lat="43.96018" lon="2.34663">
        <ele>311</ele>
        <time>2019-11-07T00:52:39Z</time>
      </trkpt>
      <trkpt lat="43.96002" lon="2.34683">
        <ele>301</ele>
        <time>2019-11-07T00:52:56Z</time>
      </trkpt>
      <trkpt lat="43.9599" lon="2.34692">
        <ele>298</ele>
        <time>2019-11-07T00:53:07Z</time>
      </trkpt>
      <trkpt lat="43.95978" lon="2.34693">
        <ele>295</ele>
        <time>2019-11-07T00:53:16Z</time>
      </trkpt>
      <trkpt lat="43.95955" lon="2.34689">
        <ele>290</ele>
        <time>2019-11-07T00:53:35Z</time>
      </trkpt>
      <trkpt lat="43.95939" lon="2.3469">
        <ele>287</ele>
        <time>2019-11-07T00:53:48Z</time>
      </trkpt>
      <trkpt lat="43.95901" lon="2.34706">
        <ele>279</ele>
        <time>2019-11-07T00:54:20Z</time>
      </trkpt>
      <trkpt lat="43.9589" lon="2.34717">
        <ele>277</ele>
        <time>2019-11-07T00:54:30Z</time>
      </trkpt>
      <trkpt lat="43.95871" lon="2.34744">
        <ele>274</ele>
        <time>2019-11-07T00:54:52Z</time>
      </trkpt>
      <trkpt lat="43.95868" lon="2.34775">
        <ele>274</ele>
        <time>2019-11-07T00:55:10Z</time>
      </trkpt>
      <trkpt lat="43.95875" lon="2.34793">
        <ele>275</ele>
        <time>2019-11-07T00:55:22Z</time>
      </trkpt>
      <trkpt lat="43.95883" lon="2.34802">
        <ele>275</ele>
        <time>2019-11-07T00:55:30Z</time>
      </trkpt>
      <trkpt lat="43.95891" lon="2.34807">
        <ele>274</ele>
        <time>2019-11-07T00:55:37Z</time>
      </trkpt>
      <trkpt lat="43.95916" lon="2.34809">
        <ele>274</ele>
        <time>2019-11-07T00:55:57Z</time>
      </trkpt>
      <trkpt lat="43.95941" lon="2.34817">
        <ele>274</ele>
        <time>2019-11-07T00:56:18Z</time>
      </trkpt>
      <trkpt lat="43.95951" lon="2.34825">
        <ele>274</ele>
        <time>2019-11-07T00:56:27Z</time>
      </trkpt>
      <trkpt lat="43.95954" lon="2.34859">
        <ele>273</ele>
        <time>2019-11-07T00:56:47Z</time>
      </trkpt>
      <trkpt lat="43.9594" lon="2.34886">
        <ele>274</ele>
        <time>2019-11-07T00:57:06Z</time>
      </trkpt>
      <trkpt lat="43.95916" lon="2.34911">
        <ele>278</ele>
        <time>2019-11-07T00:57:30Z</time>
      </trkpt>
      <trkpt lat="43.95907" lon="2.34917">
        <ele>280</ele>
        <time>2019-11-07T00:57:38Z</time>
      </trkpt>
      <trkpt lat="43.95883" lon="2.3492">
        <ele>285</ele>
        <time>2019-11-07T00:57:57Z</time>
      </trkpt>
      <trkpt lat="43.95872" lon="2.34928">
        <ele>289</ele>
        <time>2019-11-07T00:58:07Z</time>
      </trkpt>
      <trkpt lat="43.95872" lon="2.34934">
        <ele>291</ele>
        <time>2019-11-07T00:58:11Z</time>
      </trkpt>
      <trkpt lat="43.95885" lon="2.34943">
        <ele>289</ele>
        <time>2019-11-07T00:58:22Z</time>
      </trkpt>
      <trkpt lat="43.95886" lon="2.34946">
        <ele>290</ele>
        <time>2019-11-07T00:58:24Z</time>
      </trkpt>
      <trkpt lat="43.95883" lon="2.34952">
        <ele>291</ele>
        <time>2019-11-07T00:58:28Z</time>
      </trkpt>
      <trkpt lat="43.95874" lon="2.34952">
        <ele>294</ele>
        <time>2019-11-07T00:58:36Z</time>
      </trkpt>
      <trkpt lat="43.95863" lon="2.34956">
        <ele>297</ele>
        <time>2019-11-07T00:58:45Z</time>
      </trkpt>
      <trkpt lat="43.95853" lon="2.34967">
        <ele>302</ele>
        <time>2019-11-07T00:58:55Z</time>
      </trkpt>
      <trkpt lat="43.95879" lon="2.35102">
        <ele>319</ele>
        <time>2019-11-07T01:00:16Z</time>
      </trkpt>
      <trkpt lat="43.95877" lon="2.3514">
        <ele>325</ele>
        <time>2019-11-07T01:00:37Z</time>
      </trkpt>
      <trkpt lat="43.95869" lon="2.35158">
        <ele>331</ele>
        <time>2019-11-07T01:00:50Z</time>
      </trkpt>
      <trkpt lat="43.95863" lon="2.35189">
        <ele>338</ele>
        <time>2019-11-07T01:01:08Z</time>
      </trkpt>
      <trkpt lat="43.95864" lon="2.35199">
        <ele>339</ele>
        <time>2019-11-07T01:01:14Z</time>
      </trkpt>
      <trkpt lat="43.95877" lon="2.35232">
        <ele>339</ele>
        <time>2019-11-07T01:01:36Z</time>
      </trkpt>
      <trkpt lat="43.95878" lon="2.35254">
        <ele>342</ele>
        <time>2019-11-07T01:01:48Z</time>
      </trkpt>
      <trkpt lat="43.95876" lon="2.35266">
        <ele>344</ele>
        <time>2019-11-07T01:01:55Z</time>
      </trkpt>
      <trkpt lat="43.95871" lon="2.35275">
        <ele>347</ele>
        <time>2019-11-07T01:02:02Z</time>
      </trkpt>
      <trkpt lat="43.95832" lon="2.35324">
        <ele>365</ele>
        <time>2019-11-07T01:02:44Z</time>
      </trkpt>
      <trkpt lat="43.95821" lon="2.35349">
        <ele>370</ele>
        <time>2019-11-07T01:03:01Z</time>
      </trkpt>
      <trkpt lat="43.95819" lon="2.35363">
        <ele>372</ele>
        <time>2019-11-07T01:03:09Z</time>
      </trkpt>
      <trkpt lat="43.95824" lon="2.35374">
        <ele>372</ele>
        <time>2019-11-07T01:03:17Z</time>
      </trkpt>
      <trkpt lat="43.9586" lon="2.35411">
        <ele>368</ele>
        <time>2019-11-07T01:03:53Z</time>
      </trkpt>
      <trkpt lat="43.95867" lon="2.35433">
        <ele>367</ele>
        <time>2019-11-07T01:04:06Z</time>
      </trkpt>
      <trkpt lat="43.95862" lon="2.35457">
        <ele>368</ele>
        <time>2019-11-07T01:04:21Z</time>
      </trkpt>
      <trkpt lat="43.95849" lon="2.35477">
        <ele>372</ele>
        <time>2019-11-07T01:04:36Z</time>
      </trkpt>
      <trkpt lat="43.95833" lon="2.3549">
        <ele>377</ele>
        <time>2019-11-07T01:04:51Z</time>
      </trkpt>
      <trkpt lat="43.95808" lon="2.35498">
        <ele>380</ele>
        <time>2019-11-07T01:05:12Z</time>
      </trkpt>
      <trkpt lat="43.95796" lon="2.35492">
        <ele>381</ele>
        <time>2019-11-07T01:05:22Z</time>
      </trkpt>
      <trkpt lat="43.95718" lon="2.35424">
        <ele>396</ele>
        <time>2019-11-07T01:06:36Z</time>
      </trkpt>
      <trkpt lat="43.95711" lon="2.35421">
        <ele>397</ele>
        <time>2019-11-07T01:06:42Z</time>
      </trkpt>
      <trkpt lat="43.95703" lon="2.35425">
        <ele>399</ele>
        <time>2019-11-07T01:06:48Z</time>
      </trkpt>
      <trkpt lat="43.95657" lon="2.35469">
        <ele>405</ele>
        <time>2019-11-07T01:07:33Z</time>
      </trkpt>
      <trkpt lat="43.95608" lon="2.355">
        <ele>406</ele>
        <time>2019-11-07T01:08:16Z</time>
      </trkpt>
      <trkpt lat="43.95595" lon="2.3555">
        <ele>407</ele>
        <time>2019-11-07T01:08:47Z</time>
      </trkpt>
      <trkpt lat="43.95555" lon="2.35607">
        <ele>409</ele>
        <time>2019-11-07T01:09:33Z</time>
      </trkpt>
      <trkpt lat="43.9554" lon="2.35632">
        <ele>410</ele>
        <time>2019-11-07T01:09:52Z</time>
      </trkpt>
      <trkpt lat="43.95524" lon="2.35668">
        <ele>412</ele>
        <time>2019-11-07T01:10:16Z</time>
      </trkpt>
      <trkpt lat="43.95504" lon="2.35744">
        <ele>416</ele>
        <time>2019-11-07T01:11:03Z</time>
      </trkpt>
      <trkpt lat="43.95504" lon="2.35772">
        <ele>416</ele>
        <time>2019-11-07T01:11:19Z</time>
      </trkpt>
      <trkpt lat="43.955" lon="2.35786">
        <ele>417</ele>
        <time>2019-11-07T01:11:27Z</time>
      </trkpt>
      <trkpt lat="43.95447" lon="2.35932">
        <ele>412</ele>
        <time>2019-11-07T01:13:02Z</time>
      </trkpt>
      <trkpt lat="43.95427" lon="2.35949">
        <ele>409</ele>
        <time>2019-11-07T01:13:20Z</time>
      </trkpt>
      <trkpt lat="43.95419" lon="2.35952">
        <ele>408</ele>
        <time>2019-11-07T01:13:27Z</time>
      </trkpt>
      <trkpt lat="43.95403" lon="2.35973">
        <ele>405</ele>
        <time>2019-11-07T01:13:45Z</time>
      </trkpt>
      <trkpt lat="43.95379" lon="2.36021">
        <ele>401</ele>
        <time>2019-11-07T01:14:18Z</time>
      </trkpt>
      <trkpt lat="43.95345" lon="2.36146">
        <ele>392</ele>
        <time>2019-11-07T01:15:35Z</time>
      </trkpt>
      <trkpt lat="43.95326" lon="2.36251">
        <ele>382</ele>
        <time>2019-11-07T01:16:38Z</time>
      </trkpt>
      <trkpt lat="43.95319" lon="2.36271">
        <ele>379</ele>
        <time>2019-11-07T01:16:51Z</time>
      </trkpt>
      <trkpt lat="43.95318" lon="2.36303">
        <ele>373</ele>
        <time>2019-11-07T01:17:09Z</time>
      </trkpt>
      <trkpt lat="43.95309" lon="2.36324">
        <ele>368</ele>
        <time>2019-11-07T01:17:23Z</time>
      </trkpt>
      <trkpt lat="43.95286" lon="2.36351">
        <ele>363</ele>
        <time>2019-11-07T01:17:47Z</time>
      </trkpt>
      <trkpt lat="43.95281" lon="2.36346">
        <ele>362</ele>
        <time>2019-11-07T01:17:52Z</time>
      </trkpt>
      <trkpt lat="43.95268" lon="2.36341">
        <ele>360</ele>
        <time>2019-11-07T01:18:03Z</time>
      </trkpt>
      <trkpt lat="43.95252" lon="2.36331">
        <ele>357</ele>
        <time>2019-11-07T01:18:17Z</time>
      </trkpt>
      <trkpt lat="43.9518" lon="2.36336">
        <ele>349</ele>
        <time>2019-11-07T01:19:15Z</time>
      </trkpt>
      <trkpt lat="43.95134" lon="2.36346">
        <ele>346</ele>
        <time>2019-11-07T01:19:52Z</time>
      </trkpt>
      <trkpt lat="43.95074" lon="2.36378">
        <ele>340</ele>
        <time>2019-11-07T01:20:43Z</time>
      </trkpt>
      <trkpt lat="43.95062" lon="2.36378">
        <ele>341</ele>
        <time>2019-11-07T01:20:53Z</time>
      </trkpt>
      <trkpt lat="43.95047" lon="2.36391">
        <ele>340</ele>
        <time>2019-11-07T01:21:07Z</time>
      </trkpt>
      <trkpt lat="43.95037" lon="2.36413">
        <ele>336</ele>
        <time>2019-11-07T01:21:22Z</time>
      </trkpt>
      <trkpt lat="43.95041" lon="2.36418">
        <ele>335</ele>
        <time>2019-11-07T01:21:27Z</time>
      </trkpt>
      <trkpt lat="43.95052" lon="2.36423">
        <ele>334</ele>
        <time>2019-11-07T01:21:36Z</time>
      </trkpt>
      <trkpt lat="43.95065" lon="2.36423">
        <ele>333</ele>
        <time>2019-11-07T01:21:46Z</time>
      </trkpt>
      <trkpt lat="43.95092" lon="2.36412">
        <ele>334</ele>
        <time>2019-11-07T01:22:09Z</time>
      </trkpt>
      <trkpt lat="43.95101" lon="2.36412">
        <ele>335</ele>
        <time>2019-11-07T01:22:16Z</time>
      </trkpt>
      <trkpt lat="43.95129" lon="2.36401">
        <ele>342</ele>
        <time>2019-11-07T01:22:39Z</time>
      </trkpt>
      <trkpt lat="43.95145" lon="2.36402">
        <ele>344</ele>
        <time>2019-11-07T01:22:52Z</time>
      </trkpt>
      <trkpt lat="43.95147" lon="2.36411">
        <ele>344</ele>
        <time>2019-11-07T01:22:58Z</time>
      </trkpt>
      <trkpt lat="43.95137" lon="2.3642">
        <ele>343</ele>
        <time>2019-11-07T01:23:07Z</time>
      </trkpt>
      <trkpt lat="43.95123" lon="2.36425">
        <ele>340</ele>
        <time>2019-11-07T01:23:19Z</time>
      </trkpt>
      <trkpt lat="43.95109" lon="2.36439">
        <ele>339</ele>
        <time>2019-11-07T01:23:32Z</time>
      </trkpt>
      <trkpt lat="43.95075" lon="2.36446">
        <ele>332</ele>
        <time>2019-11-07T01:24:00Z</time>
      </trkpt>
      <trkpt lat="43.95066" lon="2.36451">
        <ele>332</ele>
        <time>2019-11-07T01:24:08Z</time>
      </trkpt>
      <trkpt lat="43.9506" lon="2.36458">
        <ele>331</ele>
        <time>2019-11-07T01:24:14Z</time>
      </trkpt>
      <trkpt lat="43.95056" lon="2.36468">
        <ele>330</ele>
        <time>2019-11-07T01:24:21Z</time>
      </trkpt>
      <trkpt lat="43.95045" lon="2.36535">
        <ele>330</ele>
        <time>2019-11-07T01:25:00Z</time>
      </trkpt>
      <trkpt lat="43.95032" lon="2.36555">
        <ele>327</ele>
        <time>2019-11-07T01:25:16Z</time>
      </trkpt>
      <trkpt lat="43.95012" lon="2.36571">
        <ele>321</ele>
        <time>2019-11-07T01:25:34Z</time>
      </trkpt>
      <trkpt lat="43.94996" lon="2.36577">
        <ele>316</ele>
        <time>2019-11-07T01:25:47Z</time>
      </trkpt>
      <trkpt lat="43.94952" lon="2.36623">
        <ele>311</ele>
        <time>2019-11-07T01:26:32Z</time>
      </trkpt>
      <trkpt lat="43.94927" lon="2.36669">
        <ele>300</ele>
        <time>2019-11-07T01:27:05Z</time>
      </trkpt>
      <trkpt lat="43.94919" lon="2.367">
        <ele>297</ele>
        <time>2019-11-07T01:27:24Z</time>
      </trkpt>
      <trkpt lat="43.94906" lon="2.36721">
        <ele>295</ele>
        <time>2019-11-07T01:27:40Z</time>
      </trkpt>
      <trkpt lat="43.94902" lon="2.36693">
        <ele>296</ele>
        <time>2019-11-07T01:27:56Z</time>
      </trkpt>
      <trkpt lat="43.94902" lon="2.36672">
        <ele>296</ele>
        <time>2019-11-07T01:28:08Z</time>
      </trkpt>
      <trkpt lat="43.94909" lon="2.36626">
        <ele>300</ele>
        <time>2019-11-07T01:28:35Z</time>
      </trkpt>
      <trkpt lat="43.94903" lon="2.36614">
        <ele>303</ele>
        <time>2019-11-07T01:28:44Z</time>
      </trkpt>
      <trkpt lat="43.94892" lon="2.36613">
        <ele>305</ele>
        <time>2019-11-07T01:28:53Z</time>
      </trkpt>
      <trkpt lat="43.94883" lon="2.36623">
        <ele>306</ele>
        <time>2019-11-07T01:29:02Z</time>
      </trkpt>
      <trkpt lat="43.94877" lon="2.36697">
        <ele>296</ele>
        <time>2019-11-07T01:29:45Z</time>
      </trkpt>
      <trkpt lat="43.94868" lon="2.36752">
        <ele>288</ele>
        <time>2019-11-07T01:30:17Z</time>
      </trkpt>
      <trkpt lat="43.94871" lon="2.36757">
        <ele>288</ele>
        <time>2019-11-07T01:30:21Z</time>
      </trkpt>
      <trkpt lat="43.94873" lon="2.36772">
        <ele>289</ele>
        <time>2019-11-07T01:30:30Z</time>
      </trkpt>
      <trkpt lat="43.94864" lon="2.36804">
        <ele>286</ele>
        <time>2019-11-07T01:30:50Z</time>
      </trkpt>
      <trkpt lat="43.94851" lon="2.36825">
        <ele>282</ele>
        <time>2019-11-07T01:31:06Z</time>
      </trkpt>
      <trkpt lat="43.94824" lon="2.36854">
        <ele>279</ele>
        <time>2019-11-07T01:31:33Z</time>
      </trkpt>
      <trkpt lat="43.94813" lon="2.36872">
        <ele>280</ele>
        <time>2019-11-07T01:31:47Z</time>
      </trkpt>
      <trkpt lat="43.94801" lon="2.36905">
        <ele>281</ele>
        <time>2019-11-07T01:32:08Z</time>
      </trkpt>
      <trkpt lat="43.94778" lon="2.36953">
        <ele>281</ele>
        <time>2019-11-07T01:32:41Z</time>
      </trkpt>
      <trkpt lat="43.94762" lon="2.37008">
        <ele>284</ele>
        <time>2019-11-07T01:33:15Z</time>
      </trkpt>
      <trkpt lat="43.94749" lon="2.3704">
        <ele>287</ele>
        <time>2019-11-07T01:33:37Z</time>
      </trkpt>
      <trkpt lat="43.94707" lon="2.37099">
        <ele>290</ele>
        <time>2019-11-07T01:34:24Z</time>
      </trkpt>
      <trkpt lat="43.94667" lon="2.3713">
        <ele>283</ele>
        <time>2019-11-07T01:35:01Z</time>
      </trkpt>
      <trkpt lat="43.94656" lon="2.37142">
        <ele>281</ele>
        <time>2019-11-07T01:35:12Z</time>
      </trkpt>
      <trkpt lat="43.94652" lon="2.37152">
        <ele>281</ele>
        <time>2019-11-07T01:35:19Z</time>
      </trkpt>
      <trkpt lat="43.9465" lon="2.37167">
        <ele>283</ele>
        <time>2019-11-07T01:35:28Z</time>
      </trkpt>
      <trkpt lat="43.94652" lon="2.37193">
        <ele>283</ele>
        <time>2019-11-07T01:35:43Z</time>
      </trkpt>
      <trkpt lat="43.94647" lon="2.37196">
        <ele>281</ele>
        <time>2019-11-07T01:35:47Z</time>
      </trkpt>
      <trkpt lat="43.94652" lon="2.3721">
        <ele>283</ele>
        <time>2019-11-07T01:35:56Z</time>
      </trkpt>
      <trkpt lat="43.94652" lon="2.37302">
        <ele>277</ele>
        <time>2019-11-07T01:36:49Z</time>
      </trkpt>
      <trkpt lat="43.94684" lon="2.37345">
        <ele>283</ele>
        <time>2019-11-07T01:37:25Z</time>
      </trkpt>
      <trkpt lat="43.94685" lon="2.37412">
        <ele>271</ele>
        <time>2019-11-07T01:38:03Z</time>
      </trkpt>
      <trkpt lat="43.94682" lon="2.37432">
        <ele>267</ele>
        <time>2019-11-07T01:38:15Z</time>
      </trkpt>
      <trkpt lat="43.94688" lon="2.37448">
        <ele>265</ele>
        <time>2019-11-07T01:38:26Z</time>
      </trkpt>
      <trkpt lat="43.94717" lon="2.375">
        <ele>261</ele>
        <time>2019-11-07T01:39:03Z</time>
      </trkpt>
      <trkpt lat="43.94726" lon="2.37522">
        <ele>258</ele>
        <time>2019-11-07T01:39:18Z</time>
      </trkpt>
      <trkpt lat="43.94708" lon="2.3755">
        <ele>248</ele>
        <time>2019-11-07T01:39:40Z</time>
      </trkpt>
      <trkpt lat="43.94695" lon="2.37557">
        <ele>243</ele>
        <time>2019-11-07T01:39:51Z</time>
      </trkpt>
      <trkpt lat="43.94683" lon="2.3756">
        <ele>239</ele>
        <time>2019-11-07T01:40:01Z</time>
      </trkpt>
      <trkpt lat="43.94656" lon="2.37558">
        <ele>232</ele>
        <time>2019-11-07T01:40:22Z</time>
      </trkpt>
      <trkpt lat="43.94643" lon="2.37553">
        <ele>230</ele>
        <time>2019-11-07T01:40:33Z</time>
      </trkpt>
      <trkpt lat="43.9462" lon="2.3753">
        <ele>229</ele>
        <time>2019-11-07T01:40:56Z</time>
      </trkpt>
      <trkpt lat="43.94626" lon="2.37542">
        <ele>228</ele>
        <time>2019-11-07T01:41:04Z</time>
      </trkpt>
      <trkpt lat="43.94628" lon="2.37552">
        <ele>226</ele>
        <time>2019-11-07T01:41:10Z</time>
      </trkpt>
      <trkpt lat="43.94622" lon="2.37571">
        <ele>220</ele>
        <time>2019-11-07T01:41:22Z</time>
      </trkpt>
      <trkpt lat="43.94623" lon="2.37579">
        <ele>219</ele>
        <time>2019-11-07T01:41:27Z</time>
      </trkpt>
      <trkpt lat="43.94637" lon="2.37599">
        <ele>218</ele>
        <time>2019-11-07T01:41:43Z</time>
      </trkpt>
      <trkpt lat="43.94644" lon="2.37604">
        <ele>219</ele>
        <time>2019-11-07T01:41:49Z</time>
      </trkpt>
      <trkpt lat="43.94641" lon="2.37609">
        <ele>217</ele>
        <time>2019-11-07T01:41:53Z</time>
      </trkpt>
      <trkpt lat="43.94628" lon="2.37603">
        <ele>216</ele>
        <time>2019-11-07T01:42:04Z</time>
      </trkpt>
      <trkpt lat="43.94622" lon="2.37603">
        <ele>214</ele>
        <time>2019-11-07T01:42:09Z</time>
      </trkpt>
      <trkpt lat="43.94609" lon="2.37582">
        <ele>215</ele>
        <time>2019-11-07T01:42:25Z</time>
      </trkpt>
      <trkpt lat="43.94598" lon="2.37575">
        <ele>213</ele>
        <time>2019-11-07T01:42:34Z</time>
      </trkpt>
      <trkpt lat="43.94596" lon="2.37586">
        <ele>211</ele>
        <time>2019-11-07T01:42:41Z</time>
      </trkpt>
      <trkpt lat="43.94587" lon="2.37606">
        <ele>206</ele>
        <time>2019-11-07T01:42:55Z</time>
      </trkpt>
      <trkpt lat="43.94453" lon="2.37805">
        <ele>208</ele>
        <time>2019-11-07T01:45:32Z</time>
      </trkpt>
      <trkpt lat="43.94433" lon="2.37812">
        <ele>210</ele>
        <time>2019-11-07T01:45:48Z</time>
      </trkpt>
      <trkpt lat="43.94418" lon="2.37808">
        <ele>212</ele>
        <time>2019-11-07T01:46:00Z</time>
      </trkpt>
      <trkpt lat="43.94383" lon="2.3779">
        <ele>222</ele>
        <time>2019-11-07T01:46:30Z</time>
      </trkpt>
      <trkpt lat="43.94361" lon="2.37794">
        <ele>226</ele>
        <time>2019-11-07T01:46:48Z</time>
      </trkpt>
      <trkpt lat="43.94339" lon="2.3782">
        <ele>219</ele>
        <time>2019-11-07T01:47:11Z</time>
      </trkpt>
      <trkpt lat="43.94314" lon="2.3784">
        <ele>221</ele>
        <time>2019-11-07T01:47:34Z</time>
      </trkpt>
      <trkpt lat="43.9427" lon="2.37885">
        <ele>225</ele>
        <time>2019-11-07T01:48:18Z</time>
      </trkpt>
      <trkpt lat="43.94263" lon="2.37887">
        <ele>227</ele>
        <time>2019-11-07T01:48:24Z</time>
      </trkpt>
      <trkpt lat="43.94248" lon="2.37901">
        <ele>226</ele>
        <time>2019-11-07T01:48:38Z</time>
      </trkpt>
      <trkpt lat="43.94212" lon="2.37973">
        <ele>224</ele>
        <time>2019-11-07T01:49:29Z</time>
      </trkpt>
      <trkpt lat="43.94197" lon="2.38008">
        <ele>222</ele>
        <time>2019-11-07T01:49:52Z</time>
      </trkpt>
      <trkpt lat="43.9416" lon="2.38125">
        <ele>215</ele>
        <time>2019-11-07T01:51:06Z</time>
      </trkpt>
      <trkpt lat="43.94128" lon="2.38235">
        <ele>213</ele>
        <time>2019-11-07T01:52:14Z</time>
      </trkpt>
      <trkpt lat="43.94113" lon="2.38357">
        <ele>208</ele>
        <time>2019-11-07T01:53:26Z</time>
      </trkpt>
      <trkpt lat="43.94111" lon="2.38307">
        <ele>211</ele>
        <time>2019-11-07T01:53:54Z</time>
      </trkpt>
      <trkpt lat="43.94115" lon="2.38242">
        <ele>216</ele>
        <time>2019-11-07T01:54:32Z</time>
      </trkpt>
      <trkpt lat="43.94121" lon="2.38211">
        <ele>218</ele>
        <time>2019-11-07T01:54:51Z</time>
      </trkpt>
      <trkpt lat="43.94102" lon="2.38229">
        <ele>221</ele>
        <time>2019-11-07T01:55:09Z</time>
      </trkpt>
      <trkpt lat="43.94093" lon="2.38246">
        <ele>220</ele>
        <time>2019-11-07T01:55:21Z</time>
      </trkpt>
      <trkpt lat="43.94073" lon="2.38334">
        <ele>217</ele>
        <time>2019-11-07T01:56:14Z</time>
      </trkpt>
      <trkpt lat="43.9401" lon="2.38484">
        <ele>211</ele>
        <time>2019-11-07T01:57:54Z</time>
      </trkpt>
      <trkpt lat="43.94008" lon="2.38493">
        <ele>209</ele>
        <time>2019-11-07T01:58:00Z</time>
      </trkpt>
      <trkpt lat="43.94009" lon="2.38505">
        <ele>209</ele>
        <time>2019-11-07T01:58:07Z</time>
      </trkpt>
      <trkpt lat="43.94021" lon="2.38536">
        <ele>214</ele>
        <time>2019-11-07T01:58:27Z</time>
      </trkpt>
      <trkpt lat="43.94024" lon="2.38538">
        <ele>214</ele>
        <time>2019-11-07T01:58:30Z</time>
      </trkpt>
      <trkpt lat="43.94013" lon="2.38561">
        <ele>218</ele>
        <time>2019-11-07T01:58:46Z</time>
      </trkpt>
      <trkpt lat="43.93994" lon="2.38586">
        <ele>224</ele>
        <time>2019-11-07T01:59:07Z</time>
      </trkpt>
      <trkpt lat="43.93976" lon="2.38597">
        <ele>229</ele>
        <time>2019-11-07T01:59:22Z</time>
      </trkpt>
      <trkpt lat="43.93965" lon="2.38597">
        <ele>230</ele>
        <time>2019-11-07T01:59:31Z</time>
      </trkpt>
      <trkpt lat="43.93917" lon="2.38585">
        <ele>231</ele>
        <time>2019-11-07T02:00:10Z</time>
      </trkpt>
      <trkpt lat="43.93863" lon="2.38561">
        <ele>235</ele>
        <time>2019-11-07T02:00:56Z</time>
      </trkpt>
      <trkpt lat="43.9375" lon="2.3849">
        <ele>245</ele>
        <time>2019-11-07T02:02:35Z</time>
      </trkpt>
      <trkpt lat="43.93694" lon="2.38468">
        <ele>257</ele>
        <time>2019-11-07T02:03:22Z</time>
      </trkpt>
      <trkpt lat="43.93659" lon="2.38466">
        <ele>268</ele>
        <time>2019-11-07T02:03:50Z</time>
      </trkpt>
      <trkpt lat="43.93625" lon="2.38454">
        <ele>276</ele>
        <time>2019-11-07T02:04:18Z</time>
      </trkpt>
      <trkpt lat="43.93601" lon="2.3844">
        <ele>281</ele>
        <time>2019-11-07T02:04:39Z</time>
      </trkpt>
      <trkpt lat="43.93583" lon="2.38421">
        <ele>283</ele>
        <time>2019-11-07T02:04:57Z</time>
      </trkpt>
      <trkpt lat="43.93521" lon="2.38345">
        <ele>293</ele>
        <time>2019-11-07T02:06:03Z</time>
      </trkpt>
      <trkpt lat="43.93495" lon="2.38304">
        <ele>299</ele>
        <time>2019-11-07T02:06:34Z</time>
      </trkpt>
      <trkpt lat="43.9349" lon="2.38304">
        <ele>300</ele>
        <time>2019-11-07T02:06:38Z</time>
      </trkpt>
      <trkpt lat="43.93483" lon="2.38327">
        <ele>303</ele>
        <time>2019-11-07T02:06:53Z</time>
      </trkpt>
      <trkpt lat="43.93481" lon="2.38354">
        <ele>304</ele>
        <time>2019-11-07T02:07:08Z</time>
      </trkpt>
      <trkpt lat="43.93427" lon="2.38358">
        <ele>305</ele>
        <time>2019-11-07T02:07:52Z</time>
      </trkpt>
      <trkpt lat="43.9336" lon="2.38351">
        <ele>295</ele>
        <time>2019-11-07T02:08:46Z</time>
      </trkpt>
      <trkpt lat="43.93319" lon="2.38364">
        <ele>289</ele>
        <time>2019-11-07T02:09:19Z</time>
      </trkpt>
      <trkpt lat="43.93317" lon="2.38375">
        <ele>289</ele>
        <time>2019-11-07T02:09:26Z</time>
      </trkpt>
      <trkpt lat="43.93307" lon="2.38376">
        <ele>289</ele>
        <time>2019-11-07T02:09:34Z</time>
      </trkpt>
      <trkpt lat="43.93294" lon="2.38387">
        <ele>289</ele>
        <time>2019-11-07T02:09:46Z</time>
      </trkpt>
      <trkpt lat="43.93219" lon="2.38474">
        <ele>295</ele>
        <time>2019-11-07T02:11:04Z</time>
      </trkpt>
      <trkpt lat="43.93218" lon="2.38525">
        <ele>299</ele>
        <time>2019-11-07T02:11:34Z</time>
      </trkpt>
      <trkpt lat="43.93177" lon="2.38753">
        <ele>336</ele>
        <time>2019-11-07T02:13:49Z</time>
      </trkpt>
      <trkpt lat="43.93177" lon="2.38776">
        <ele>338</ele>
        <time>2019-11-07T02:14:02Z</time>
      </trkpt>
      <trkpt lat="43.9317" lon="2.38827">
        <ele>344</ele>
        <time>2019-11-07T02:14:32Z</time>
      </trkpt>
      <trkpt lat="43.93156" lon="2.38899">
        <ele>347</ele>
        <time>2019-11-07T02:15:15Z</time>
      </trkpt>
      <trkpt lat="43.93139" lon="2.3885">
        <ele>355</ele>
        <time>2019-11-07T02:15:47Z</time>
      </trkpt>
      <trkpt lat="43.93111" lon="2.38802">
        <ele>362</ele>
        <time>2019-11-07T02:16:22Z</time>
      </trkpt>
      <trkpt lat="43.93069" lon="2.38764">
        <ele>369</ele>
        <time>2019-11-07T02:17:02Z</time>
      </trkpt>
      <trkpt lat="43.93036" lon="2.3875">
        <ele>373</ele>
        <time>2019-11-07T02:17:30Z</time>
      </trkpt>
      <trkpt lat="43.93021" lon="2.38747">
        <ele>375</ele>
        <time>2019-11-07T02:17:42Z</time>
      </trkpt>
      <trkpt lat="43.92923" lon="2.3878">
        <ele>397</ele>
        <time>2019-11-07T02:19:03Z</time>
      </trkpt>
      <trkpt lat="43.92902" lon="2.3878">
        <ele>400</ele>
        <time>2019-11-07T02:19:20Z</time>
      </trkpt>
      <trkpt lat="43.9287" lon="2.38771">
        <ele>403</ele>
        <time>2019-11-07T02:19:46Z</time>
      </trkpt>
      <trkpt lat="43.92853" lon="2.3877">
        <ele>405</ele>
        <time>2019-11-07T02:20:00Z</time>
      </trkpt>
      <trkpt lat="43.92841" lon="2.38772">
        <ele>407</ele>
        <time>2019-11-07T02:20:09Z</time>
      </trkpt>
      <trkpt lat="43.92803" lon="2.38789">
        <ele>417</ele>
        <time>2019-11-07T02:20:41Z</time>
      </trkpt>
      <trkpt lat="43.92779" lon="2.38792">
        <ele>421</ele>
        <time>2019-11-07T02:21:01Z</time>
      </trkpt>
      <trkpt lat="43.92687" lon="2.38798">
        <ele>438</ele>
        <time>2019-11-07T02:22:14Z</time>
      </trkpt>
      <trkpt lat="43.92578" lon="2.38792">
        <ele>449</ele>
        <time>2019-11-07T02:23:42Z</time>
      </trkpt>
      <trkpt lat="43.92563" lon="2.38793">
        <ele>450</ele>
        <time>2019-11-07T02:23:54Z</time>
      </trkpt>
      <trkpt lat="43.9252" lon="2.38802">
        <ele>452</ele>
        <time>2019-11-07T02:24:28Z</time>
      </trkpt>
      <trkpt lat="43.92477" lon="2.38817">
        <ele>455</ele>
        <time>2019-11-07T02:25:04Z</time>
      </trkpt>
      <trkpt lat="43.92453" lon="2.38851">
        <ele>456</ele>
        <time>2019-11-07T02:25:31Z</time>
      </trkpt>
      <trkpt lat="43.92407" lon="2.38906">
        <ele>460</ele>
        <time>2019-11-07T02:26:20Z</time>
      </trkpt>
      <trkpt lat="43.92396" lon="2.38929">
        <ele>461</ele>
        <time>2019-11-07T02:26:36Z</time>
      </trkpt>
      <trkpt lat="43.92382" lon="2.38991">
        <ele>462</ele>
        <time>2019-11-07T02:27:13Z</time>
      </trkpt>
      <trkpt lat="43.92374" lon="2.39058">
        <ele>464</ele>
        <time>2019-11-07T02:27:53Z</time>
      </trkpt>
      <trkpt lat="43.92385" lon="2.39118">
        <ele>464</ele>
        <time>2019-11-07T02:28:28Z</time>
      </trkpt>
      <trkpt lat="43.92401" lon="2.39251">
        <ele>465</ele>
        <time>2019-11-07T02:29:46Z</time>
      </trkpt>
      <trkpt lat="43.924" lon="2.39299">
        <ele>463</ele>
        <time>2019-11-07T02:30:14Z</time>
      </trkpt>
      <trkpt lat="43.92403" lon="2.39309">
        <ele>462</ele>
        <time>2019-11-07T02:30:20Z</time>
      </trkpt>
      <trkpt lat="43.92417" lon="2.39322">
        <ele>461</ele>
        <time>2019-11-07T02:30:33Z</time>
      </trkpt>
      <trkpt lat="43.92396" lon="2.39377">
        <ele>458</ele>
        <time>2019-11-07T02:31:09Z</time>
      </trkpt>
      <trkpt lat="43.92392" lon="2.39396">
        <ele>457</ele>
        <time>2019-11-07T02:31:21Z</time>
      </trkpt>
      <trkpt lat="43.92392" lon="2.39455">
        <ele>455</ele>
        <time>2019-11-07T02:31:55Z</time>
      </trkpt>
      <trkpt lat="43.924" lon="2.39527">
        <ele>454</ele>
        <time>2019-11-07T02:32:37Z</time>
      </trkpt>
      <trkpt lat="43.92406" lon="2.3954">
        <ele>454</ele>
        <time>2019-11-07T02:32:46Z</time>
      </trkpt>
      <trkpt lat="43.92468" lon="2.39637">
        <ele>450</ele>
        <time>2019-11-07T02:34:00Z</time>
      </trkpt>
      <trkpt lat="43.92505" lon="2.39712">
        <ele>449</ele>
        <time>2019-11-07T02:34:53Z</time>
      </trkpt>
      <trkpt lat="43.92526" lon="2.39748">
        <ele>448</ele>
        <time>2019-11-07T02:35:20Z</time>
      </trkpt>
      <trkpt lat="43.92564" lon="2.39782">
        <ele>443</ele>
        <time>2019-11-07T02:35:56Z</time>
      </trkpt>
      <trkpt lat="43.92586" lon="2.39797">
        <ele>442</ele>
        <time>2019-11-07T02:36:15Z</time>
      </trkpt>
      <trkpt lat="43.92607" lon="2.39806">
        <ele>440</ele>
        <time>2019-11-07T02:36:33Z</time>
      </trkpt>
      <trkpt lat="43.92639" lon="2.39811">
        <ele>439</ele>
        <time>2019-11-07T02:36:59Z</time>
      </trkpt>
      <trkpt lat="43.92664" lon="2.3981">
        <ele>437</ele>
        <time>2019-11-07T02:37:19Z</time>
      </trkpt>
      <trkpt lat="43.92705" lon="2.39803">
        <ele>437</ele>
        <time>2019-11-07T02:37:52Z</time>
      </trkpt>
      <trkpt lat="43.92732" lon="2.3979">
        <ele>437</ele>
        <time>2019-11-07T02:38:15Z</time>
      </trkpt>
      <trkpt lat="43.92747" lon="2.39786">
        <ele>437</ele>
        <time>2019-11-07T02:38:27Z</time>
      </trkpt>
      <trkpt lat="43.92761" lon="2.39786">
        <ele>434</ele>
        <time>2019-11-07T02:38:38Z</time>
      </trkpt>
      <trkpt lat="43.92769" lon="2.3979">
        <ele>433</ele>
        <time>2019-11-07T02:38:45Z</time>
      </trkpt>
      <trkpt lat="43.92777" lon="2.39815">
        <ele>431</ele>
        <time>2019-11-07T02:39:01Z</time>
      </trkpt>
      <trkpt lat="43.92783" lon="2.39864">
        <ele>427</ele>
        <time>2019-11-07T02:39:29Z</time>
      </trkpt>
      <trkpt lat="43.92783" lon="2.39888">
        <ele>426</ele>
        <time>2019-11-07T02:39:43Z</time>
      </trkpt>
      <trkpt lat="43.92775" lon="2.39925">
        <ele>425</ele>
        <time>2019-11-07T02:40:06Z</time>
      </trkpt>
      <trkpt lat="43.92763" lon="2.3995">
        <ele>423</ele>
        <time>2019-11-07T02:40:23Z</time>
      </trkpt>
      <trkpt lat="43.92746" lon="2.3996">
        <ele>422</ele>
        <time>2019-11-07T02:40:38Z</time>
      </trkpt>
      <trkpt lat="43.92733" lon="2.39961">
        <ele>421</ele>
        <time>2019-11-07T02:40:48Z</time>
      </trkpt>
      <trkpt lat="43.92722" lon="2.39957">
        <ele>421</ele>
        <time>2019-11-07T02:40:57Z</time>
      </trkpt>
      <trkpt lat="43.92702" lon="2.39941">
        <ele>423</ele>
        <time>2019-11-07T02:41:16Z</time>
      </trkpt>
      <trkpt lat="43.92684" lon="2.39918">
        <ele>427</ele>
        <time>2019-11-07T02:41:35Z</time>
      </trkpt>
      <trkpt lat="43.9268" lon="2.39915">
        <ele>427</ele>
        <time>2019-11-07T02:41:39Z</time>
      </trkpt>
      <trkpt lat="43.92667" lon="2.39915">
        <ele>426</ele>
        <time>2019-11-07T02:41:49Z</time>
      </trkpt>
      <trkpt lat="43.92621" lon="2.39955">
        <ele>418</ele>
        <time>2019-11-07T02:42:33Z</time>
      </trkpt>
      <trkpt lat="43.92587" lon="2.39981">
        <ele>414</ele>
        <time>2019-11-07T02:43:04Z</time>
      </trkpt>
      <trkpt lat="43.9257" lon="2.39998">
        <ele>411</ele>
        <time>2019-11-07T02:43:21Z</time>
      </trkpt>
      <trkpt lat="43.92564" lon="2.40001">
        <ele>410</ele>
        <time>2019-11-07T02:43:26Z</time>
      </trkpt>
      <trkpt lat="43.92545" lon="2.40001">
        <ele>409</ele>
        <time>2019-11-07T02:43:41Z</time>
      </trkpt>
      <trkpt lat="43.92532" lon="2.39997">
        <ele>409</ele>
        <time>2019-11-07T02:43:52Z</time>
      </trkpt>
      <trkpt lat="43.92537" lon="2.40006">
        <ele>408</ele>
        <time>2019-11-07T02:43:58Z</time>
      </trkpt>
      <trkpt lat="43.92559" lon="2.40019">
        <ele>407</ele>
        <time>2019-11-07T02:44:17Z</time>
      </trkpt>
      <trkpt lat="43.92576" lon="2.40023">
        <ele>407</ele>
        <time>2019-11-07T02:44:31Z</time>
      </trkpt>
      <trkpt lat="43.92613" lon="2.40025">
        <ele>405</ele>
        <time>2019-11-07T02:45:01Z</time>
      </trkpt>
      <trkpt lat="43.92619" lon="2.40023">
        <ele>405</ele>
        <time>2019-11-07T02:45:06Z</time>
      </trkpt>
      <trkpt lat="43.92633" lon="2.40012">
        <ele>406</ele>
        <time>2019-11-07T02:45:19Z</time>
      </trkpt>
      <trkpt lat="43.92652" lon="2.39992">
        <ele>409</ele>
        <time>2019-11-07T02:45:38Z</time>
      </trkpt>
      <trkpt lat="43.92663" lon="2.39987">
        <ele>410</ele>
        <time>2019-11-07T02:45:47Z</time>
      </trkpt>
      <trkpt lat="43.9267" lon="2.39989">
        <ele>410</ele>
        <time>2019-11-07T02:45:53Z</time>
      </trkpt>
      <trkpt lat="43.92678" lon="2.39996">
        <ele>409</ele>
        <time>2019-11-07T02:46:00Z</time>
      </trkpt>
      <trkpt lat="43.92752" lon="2.40114">
        <ele>391</ele>
        <time>2019-11-07T02:47:31Z</time>
      </trkpt>
      <trkpt lat="43.92764" lon="2.40126">
        <ele>389</ele>
        <time>2019-11-07T02:47:42Z</time>
      </trkpt>
      <trkpt lat="43.92785" lon="2.40141">
        <ele>386</ele>
        <time>2019-11-07T02:48:01Z</time>
      </trkpt>
      <trkpt lat="43.92813" lon="2.40155">
        <ele>384</ele>
        <time>2019-11-07T02:48:25Z</time>
      </trkpt>
      <trkpt lat="43.92846" lon="2.40161">
        <ele>380</ele>
        <time>2019-11-07T02:48:52Z</time>
      </trkpt>
      <trkpt lat="43.92879" lon="2.4016">
        <ele>374</ele>
        <time>2019-11-07T02:49:18Z</time>
      </trkpt>
      <trkpt lat="43.92893" lon="2.40151">
        <ele>372</ele>
        <time>2019-11-07T02:49:31Z</time>
      </trkpt>
      <trkpt lat="43.92961" lon="2.40076">
        <ele>365</ele>
        <time>2019-11-07T02:50:40Z</time>
      </trkpt>
      <trkpt lat="43.92993" lon="2.40059">
        <ele>361</ele>
        <time>2019-11-07T02:51:07Z</time>
      </trkpt>
      <trkpt lat="43.93004" lon="2.4006">
        <ele>358</ele>
        <time>2019-11-07T02:51:16Z</time>
      </trkpt>
      <trkpt lat="43.93026" lon="2.40074">
        <ele>351</ele>
        <time>2019-11-07T02:51:36Z</time>
      </trkpt>
      <trkpt lat="43.93031" lon="2.40074">
        <ele>350</ele>
        <time>2019-11-07T02:51:40Z</time>
      </trkpt>
      <trkpt lat="43.93044" lon="2.40065">
        <ele>348</ele>
        <time>2019-11-07T02:51:51Z</time>
      </trkpt>
      <trkpt lat="43.93049" lon="2.40067">
        <ele>346</ele>
        <time>2019-11-07T02:51:55Z</time>
      </trkpt>
      <trkpt lat="43.93054" lon="2.40079">
        <ele>345</ele>
        <time>2019-11-07T02:52:03Z</time>
      </trkpt>
      <trkpt lat="43.9306" lon="2.40114">
        <ele>340</ele>
        <time>2019-11-07T02:52:24Z</time>
      </trkpt>
      <trkpt lat="43.93064" lon="2.40123">
        <ele>339</ele>
        <time>2019-11-07T02:52:30Z</time>
      </trkpt>
      <trkpt lat="43.9307" lon="2.40132">
        <ele>337</ele>
        <time>2019-11-07T02:52:37Z</time>
      </trkpt>
      <trkpt lat="43.93092" lon="2.40148">
        <ele>331</ele>
        <time>2019-11-07T02:52:57Z</time>
      </trkpt>
      <trkpt lat="43.93113" lon="2.40172">
        <ele>325</ele>
        <time>2019-11-07T02:53:19Z</time>
      </trkpt>
      <trkpt lat="43.93115" lon="2.40183">
        <ele>323</ele>
        <time>2019-11-07T02:53:26Z</time>
      </trkpt>
      <trkpt lat="43.93101" lon="2.40191">
        <ele>325</ele>
        <time>2019-11-07T02:53:38Z</time>
      </trkpt>
      <trkpt lat="43.93099" lon="2.40199">
        <ele>324</ele>
        <time>2019-11-07T02:53:43Z</time>
      </trkpt>
      <trkpt lat="43.93101" lon="2.40203">
        <ele>323</ele>
        <time>2019-11-07T02:53:45Z</time>
      </trkpt>
      <trkpt lat="43.93106" lon="2.40206">
        <ele>322</ele>
        <time>2019-11-07T02:53:50Z</time>
      </trkpt>
      <trkpt lat="43.93121" lon="2.40205">
        <ele>319</ele>
        <time>2019-11-07T02:54:02Z</time>
      </trkpt>
      <trkpt lat="43.93158" lon="2.40208">
        <ele>312</ele>
        <time>2019-11-07T02:54:31Z</time>
      </trkpt>
      <trkpt lat="43.93169" lon="2.40211">
        <ele>309</ele>
        <time>2019-11-07T02:54:40Z</time>
      </trkpt>
      <trkpt lat="43.93174" lon="2.40215">
        <ele>308</ele>
        <time>2019-11-07T02:54:45Z</time>
      </trkpt>
      <trkpt lat="43.93175" lon="2.4022">
        <ele>307</ele>
        <time>2019-11-07T02:54:48Z</time>
      </trkpt>
      <trkpt lat="43.93175" lon="2.40225">
        <ele>307</ele>
        <time>2019-11-07T02:54:51Z</time>
      </trkpt>
      <trkpt lat="43.93169" lon="2.40232">
        <ele>309</ele>
        <time>2019-11-07T02:54:57Z</time>
      </trkpt>
      <trkpt lat="43.93138" lon="2.4025">
        <ele>312</ele>
        <time>2019-11-07T02:55:24Z</time>
      </trkpt>
      <trkpt lat="43.93122" lon="2.40256">
        <ele>312</ele>
        <time>2019-11-07T02:55:37Z</time>
      </trkpt>
      <trkpt lat="43.93098" lon="2.40257">
        <ele>315</ele>
        <time>2019-11-07T02:55:57Z</time>
      </trkpt>
      <trkpt lat="43.93069" lon="2.4025">
        <ele>321</ele>
        <time>2019-11-07T02:56:20Z</time>
      </trkpt>
      <trkpt lat="43.93066" lon="2.40253">
        <ele>321</ele>
        <time>2019-11-07T02:56:23Z</time>
      </trkpt>
      <trkpt lat="43.93066" lon="2.40258">
        <ele>319</ele>
        <time>2019-11-07T02:56:26Z</time>
      </trkpt>
      <trkpt lat="43.93071" lon="2.40272">
        <ele>314</ele>
        <time>2019-11-07T02:56:35Z</time>
      </trkpt>
      <trkpt lat="43.93088" lon="2.40298">
        <ele>302</ele>
        <time>2019-11-07T02:56:55Z</time>
      </trkpt>
      <trkpt lat="43.931" lon="2.40307">
        <ele>298</ele>
        <time>2019-11-07T02:57:06Z</time>
      </trkpt>
      <trkpt lat="43.93115" lon="2.40314">
        <ele>294</ele>
        <time>2019-11-07T02:57:19Z</time>
      </trkpt>
      <trkpt lat="43.93128" lon="2.40316">
        <ele>292</ele>
        <time>2019-11-07T02:57:29Z</time>
      </trkpt>
      <trkpt lat="43.93175" lon="2.40312">
        <ele>288</ele>
        <time>2019-11-07T02:58:07Z</time>
      </trkpt>
      <trkpt lat="43.93219" lon="2.40327">
        <ele>276</ele>
        <time>2019-11-07T02:58:43Z</time>
      </trkpt>
      <trkpt lat="43.93247" lon="2.40333">
        <ele>270</ele>
        <time>2019-11-07T02:59:06Z</time>
      </trkpt>
      <trkpt lat="43.9326" lon="2.40334">
        <ele>266</ele>
        <time>2019-11-07T02:59:16Z</time>
      </trkpt>
      <trkpt lat="43.93275" lon="2.40329">
        <ele>263</ele>
        <time>2019-11-07T02:59:29Z</time>
      </trkpt>
      <trkpt lat="43.93306" lon="2.40325">
        <ele>255</ele>
        <time>2019-11-07T02:59:54Z</time>
      </trkpt>
      <trkpt lat="43.93312" lon="2.40327">
        <ele>253</ele>
        <time>2019-11-07T02:59:59Z</time>
      </trkpt>
      <trkpt lat="43.93318" lon="2.40341">
        <ele>249</ele>
        <time>2019-11-07T03:00:08Z</time>
      </trkpt>
      <trkpt lat="43.93318" lon="2.40351">
        <ele>247</ele>
        <time>2019-11-07T03:00:14Z</time>
      </trkpt>
      <trkpt lat="43.93311" lon="2.40365">
        <ele>246</ele>
        <time>2019-11-07T03:00:24Z</time>
      </trkpt>
      <trkpt lat="43.93299" lon="2.40378">
        <ele>246</ele>
        <time>2019-11-07T03:00:36Z</time>
      </trkpt>
      <trkpt lat="43.93292" lon="2.40382">
        <ele>246</ele>
        <time>2019-11-07T03:00:42Z</time>
      </trkpt>
      <trkpt lat="43.9326" lon="2.40384">
        <ele>251</ele>
        <time>2019-11-07T03:01:08Z</time>
      </trkpt>
      <trkpt lat="43.93236" lon="2.40381">
        <ele>256</ele>
        <time>2019-11-07T03:01:27Z</time>
      </trkpt>
      <trkpt lat="43.93205" lon="2.40381">
        <ele>260</ele>
        <time>2019-11-07T03:01:52Z</time>
      </trkpt>
      <trkpt lat="43.9319" lon="2.40385">
        <ele>261</ele>
        <time>2019-11-07T03:02:04Z</time>
      </trkpt>
      <trkpt lat="43.93174" lon="2.40393">
        <ele>261</ele>
        <time>2019-11-07T03:02:18Z</time>
      </trkpt>
      <trkpt lat="43.93143" lon="2.40414">
        <ele>258</ele>
        <time>2019-11-07T03:02:45Z</time>
      </trkpt>
      <trkpt lat="43.9313" lon="2.40432">
        <ele>257</ele>
        <time>2019-11-07T03:03:00Z</time>
      </trkpt>
      <trkpt lat="43.93129" lon="2.40445">
        <ele>256</ele>
        <time>2019-11-07T03:03:07Z</time>
      </trkpt>
      <trkpt lat="43.93135" lon="2.40454">
        <ele>254</ele>
        <time>2019-11-07T03:03:14Z</time>
      </trkpt>
      <trkpt lat="43.93141" lon="2.40457">
        <ele>253</ele>
        <time>2019-11-07T03:03:20Z</time>
      </trkpt>
      <trkpt lat="43.93153" lon="2.40458">
        <ele>253</ele>
        <time>2019-11-07T03:03:29Z</time>
      </trkpt>
      <trkpt lat="43.93176" lon="2.40457">
        <ele>251</ele>
        <time>2019-11-07T03:03:48Z</time>
      </trkpt>
      <trkpt lat="43.93202" lon="2.40501">
        <ele>249</ele>
        <time>2019-11-07T03:04:20Z</time>
      </trkpt>
      <trkpt lat="43.93224" lon="2.40519">
        <ele>254</ele>
        <time>2019-11-07T03:04:41Z</time>
      </trkpt>
      <trkpt lat="43.93249" lon="2.40531">
        <ele>258</ele>
        <time>2019-11-07T03:05:02Z</time>
      </trkpt>
      <trkpt lat="43.93269" lon="2.40535">
        <ele>260</ele>
        <time>2019-11-07T03:05:18Z</time>
      </trkpt>
      <trkpt lat="43.933" lon="2.40537">
        <ele>261</ele>
        <time>2019-11-07T03:05:43Z</time>
      </trkpt>
      <trkpt lat="43.93322" lon="2.40535">
        <ele>260</ele>
        <time>2019-11-07T03:06:01Z</time>
      </trkpt>
      <trkpt lat="43.9336" lon="2.40524">
        <ele>261</ele>
        <time>2019-11-07T03:06:32Z</time>
      </trkpt>
      <trkpt lat="43.93429" lon="2.40495">
        <ele>263</ele>
        <time>2019-11-07T03:07:30Z</time>
      </trkpt>
      <trkpt lat="43.93447" lon="2.40485">
        <ele>261</ele>
        <time>2019-11-07T03:07:45Z</time>
      </trkpt>
      <trkpt lat="43.93456" lon="2.40485">
        <ele>261</ele>
        <time>2019-11-07T03:07:52Z</time>
      </trkpt>
      <trkpt lat="43.93462" lon="2.40488">
        <ele>261</ele>
        <time>2019-11-07T03:07:57Z</time>
      </trkpt>
      <trkpt lat="43.93464" lon="2.40495">
        <ele>263</ele>
        <time>2019-11-07T03:08:02Z</time>
      </trkpt>
      <trkpt lat="43.93464" lon="2.40502">
        <ele>264</ele>
        <time>2019-11-07T03:08:06Z</time>
      </trkpt>
      <trkpt lat="43.93442" lon="2.40556">
        <ele>273</ele>
        <time>2019-11-07T03:08:42Z</time>
      </trkpt>
      <trkpt lat="43.93435" lon="2.40601">
        <ele>278</ele>
        <time>2019-11-07T03:09:08Z</time>
      </trkpt>
      <trkpt lat="43.93424" lon="2.4064">
        <ele>278</ele>
        <time>2019-11-07T03:09:32Z</time>
      </trkpt>
      <trkpt lat="43.93383" lon="2.40722">
        <ele>281</ele>
        <time>2019-11-07T03:10:30Z</time>
      </trkpt>
      <trkpt lat="43.93376" lon="2.40742">
        <ele>282</ele>
        <time>2019-11-07T03:10:43Z</time>
      </trkpt>
      <trkpt lat="43.93372" lon="2.40762">
        <ele>280</ele>
        <time>2019-11-07T03:10:55Z</time>
      </trkpt>
      <trkpt lat="43.93368" lon="2.40831">
        <ele>269</ele>
        <time>2019-11-07T03:11:34Z</time>
      </trkpt>
      <trkpt lat="43.93343" lon="2.40933">
        <ele>259</ele>
        <time>2019-11-07T03:12:37Z</time>
      </trkpt>
      <trkpt lat="43.93332" lon="2.40965">
        <ele>256</ele>
        <time>2019-11-07T03:12:57Z</time>
      </trkpt>
      <trkpt lat="43.93299" lon="2.41023">
        <ele>252</ele>
        <time>2019-11-07T03:13:40Z</time>
      </trkpt>
      <trkpt lat="43.93265" lon="2.41061">
        <ele>253</ele>
        <time>2019-11-07T03:14:15Z</time>
      </trkpt>
      <trkpt lat="43.93255" lon="2.41093">
        <ele>249</ele>
        <time>2019-11-07T03:14:35Z</time>
      </trkpt>
      <trkpt lat="43.93255" lon="2.41103">
        <ele>247</ele>
        <time>2019-11-07T03:14:40Z</time>
      </trkpt>
      <trkpt lat="43.93245" lon="2.41152">
        <ele>241</ele>
        <time>2019-11-07T03:15:10Z</time>
      </trkpt>
      <trkpt lat="43.93245" lon="2.41165">
        <ele>239</ele>
        <time>2019-11-07T03:15:17Z</time>
      </trkpt>
      <trkpt lat="43.93284" lon="2.41264">
        <ele>231</ele>
        <time>2019-11-07T03:16:22Z</time>
      </trkpt>
      <trkpt lat="43.933" lon="2.41254">
        <ele>229</ele>
        <time>2019-11-07T03:16:36Z</time>
      </trkpt>
      <trkpt lat="43.93312" lon="2.41237">
        <ele>228</ele>
        <time>2019-11-07T03:16:50Z</time>
      </trkpt>
      <trkpt lat="43.93326" lon="2.41238">
        <ele>228</ele>
        <time>2019-11-07T03:17:01Z</time>
      </trkpt>
      <trkpt lat="43.93333" lon="2.41232">
        <ele>228</ele>
        <time>2019-11-07T03:17:08Z</time>
      </trkpt>
      <trkpt lat="43.93344" lon="2.41231">
        <ele>228</ele>
        <time>2019-11-07T03:17:17Z</time>
      </trkpt>
      <trkpt lat="43.93343" lon="2.4128">
        <ele>236</ele>
        <time>2019-11-07T03:17:45Z</time>
      </trkpt>
      <trkpt lat="43.93352" lon="2.41302">
        <ele>240</ele>
        <time>2019-11-07T03:18:00Z</time>
      </trkpt>
      <trkpt lat="43.93368" lon="2.41428">
        <ele>263</ele>
        <time>2019-11-07T03:19:13Z</time>
      </trkpt>
      <trkpt lat="43.93387" lon="2.41501">
        <ele>269</ele>
        <time>2019-11-07T03:19:58Z</time>
      </trkpt>
      <trkpt lat="43.93473" lon="2.41622">
        <ele>279</ele>
        <time>2019-11-07T03:21:36Z</time>
      </trkpt>
      <trkpt lat="43.935" lon="2.41696">
        <ele>295</ele>
        <time>2019-11-07T03:22:24Z</time>
      </trkpt>
      <trkpt lat="43.9353" lon="2.41821">
        <ele>320</ele>
        <time>2019-11-07T03:23:40Z</time>
      </trkpt>
      <trkpt lat="43.93543" lon="2.41894">
        <ele>331</ele>
        <time>2019-11-07T03:24:23Z</time>
      </trkpt>
      <trkpt lat="43.93547" lon="2.41938">
        <ele>336</ele>
        <time>2019-11-07T03:24:49Z</time>
      </trkpt>
      <trkpt lat="43.93537" lon="2.41981">
        <ele>343</ele>
        <time>2019-11-07T03:25:15Z</time>
      </trkpt>
      <trkpt lat="43.93504" lon="2.42053">
        <ele>357</ele>
        <time>2019-11-07T03:26:04Z</time>
      </trkpt>
      <trkpt lat="43.93494" lon="2.42087">
        <ele>360</ele>
        <time>2019-11-07T03:26:25Z</time>
      </trkpt>
      <trkpt lat="43.93485" lon="2.42153">
        <ele>364</ele>
        <time>2019-11-07T03:27:04Z</time>
      </trkpt>
      <trkpt lat="43.93482" lon="2.42234">
        <ele>368</ele>
        <time>2019-11-07T03:27:51Z</time>
      </trkpt>
      <trkpt lat="43.93488" lon="2.42275">
        <ele>369</ele>
        <time>2019-11-07T03:28:15Z</time>
      </trkpt>
      <trkpt lat="43.93499" lon="2.42321">
        <ele>371</ele>
        <time>2019-11-07T03:28:43Z</time>
      </trkpt>
      <trkpt lat="43.93547" lon="2.42473">
        <ele>366</ele>
        <time>2019-11-07T03:30:19Z</time>
      </trkpt>
      <trkpt lat="43.93554" lon="2.4254">
        <ele>369</ele>
        <time>2019-11-07T03:30:58Z</time>
      </trkpt>
      <trkpt lat="43.93553" lon="2.42559">
        <ele>370</ele>
        <time>2019-11-07T03:31:09Z</time>
      </trkpt>
      <trkpt lat="43.93542" lon="2.42589">
        <ele>376</ele>
        <time>2019-11-07T03:31:28Z</time>
      </trkpt>
      <trkpt lat="43.93464" lon="2.42743">
        <ele>406</ele>
        <time>2019-11-07T03:33:17Z</time>
      </trkpt>
      <trkpt lat="43.93453" lon="2.42776">
        <ele>409</ele>
        <time>2019-11-07T03:33:38Z</time>
      </trkpt>
      <trkpt lat="43.93448" lon="2.42834">
        <ele>409</ele>
        <time>2019-11-07T03:34:11Z</time>
      </trkpt>
      <trkpt lat="43.93442" lon="2.42863">
        <ele>413</ele>
        <time>2019-11-07T03:34:29Z</time>
      </trkpt>
      <trkpt lat="43.93426" lon="2.42904">
        <ele>420</ele>
        <time>2019-11-07T03:34:56Z</time>
      </trkpt>
      <trkpt lat="43.93412" lon="2.4292">
        <ele>427</ele>
        <time>2019-11-07T03:35:10Z</time>
      </trkpt>
      <trkpt lat="43.93413" lon="2.42945">
        <ele>427</ele>
        <time>2019-11-07T03:35:25Z</time>
      </trkpt>
      <trkpt lat="43.93427" lon="2.43008">
        <ele>422</ele>
        <time>2019-11-07T03:36:03Z</time>
      </trkpt>
      <trkpt lat="43.93428" lon="2.43076">
        <ele>423</ele>
        <time>2019-11-07T03:36:42Z</time>
      </trkpt>
      <trkpt lat="43.93418" lon="2.43132">
        <ele>423</ele>
        <time>2019-11-07T03:37:15Z</time>
      </trkpt>
      <trkpt lat="43.93407" lon="2.43164">
        <ele>424</ele>
        <time>2019-11-07T03:37:35Z</time>
      </trkpt>
      <trkpt lat="43.93398" lon="2.43177">
        <ele>424</ele>
        <time>2019-11-07T03:37:46Z</time>
      </trkpt>
      <trkpt lat="43.93381" lon="2.43192">
        <ele>427</ele>
        <time>2019-11-07T03:38:02Z</time>
      </trkpt>
      <trkpt lat="43.93333" lon="2.43222">
        <ele>438</ele>
        <time>2019-11-07T03:38:44Z</time>
      </trkpt>
      <trkpt lat="43.93313" lon="2.43212">
        <ele>443</ele>
        <time>2019-11-07T03:39:01Z</time>
      </trkpt>
      <trkpt lat="43.93305" lon="2.43189">
        <ele>446</ele>
        <time>2019-11-07T03:39:16Z</time>
      </trkpt>
      <trkpt lat="43.93297" lon="2.43209">
        <ele>447</ele>
        <time>2019-11-07T03:39:29Z</time>
      </trkpt>
      <trkpt lat="43.93273" lon="2.43243">
        <ele>451</ele>
        <time>2019-11-07T03:39:57Z</time>
      </trkpt>
      <trkpt lat="43.93263" lon="2.43277">
        <ele>452</ele>
        <time>2019-11-07T03:40:18Z</time>
      </trkpt>
      <trkpt lat="43.93257" lon="2.43362">
        <ele>450</ele>
        <time>2019-11-07T03:41:07Z</time>
      </trkpt>
      <trkpt lat="43.93257" lon="2.43415">
        <ele>449</ele>
        <time>2019-11-07T03:41:38Z</time>
      </trkpt>
      <trkpt lat="43.9326" lon="2.4345">
        <ele>451</ele>
        <time>2019-11-07T03:41:58Z</time>
      </trkpt>
      <trkpt lat="43.93273" lon="2.43467">
        <ele>450</ele>
        <time>2019-11-07T03:42:12Z</time>
      </trkpt>
      <trkpt lat="43.93303" lon="2.4347">
        <ele>445</ele>
        <time>2019-11-07T03:42:36Z</time>
      </trkpt>
      <trkpt lat="43.93324" lon="2.43479">
        <ele>442</ele>
        <time>2019-11-07T03:42:54Z</time>
      </trkpt>
      <trkpt lat="43.93344" lon="2.43502">
        <ele>442</ele>
        <time>2019-11-07T03:43:15Z</time>
      </trkpt>
      <trkpt lat="43.93351" lon="2.43513">
        <ele>441</ele>
        <time>2019-11-07T03:43:23Z</time>
      </trkpt>
      <trkpt lat="43.93353" lon="2.43524">
        <ele>441</ele>
        <time>2019-11-07T03:43:30Z</time>
      </trkpt>
      <trkpt lat="43.93338" lon="2.43503">
        <ele>443</ele>
        <time>2019-11-07T03:43:47Z</time>
      </trkpt>
      <trkpt lat="43.9333" lon="2.43498">
        <ele>444</ele>
        <time>2019-11-07T03:43:54Z</time>
      </trkpt>
      <trkpt lat="43.9332" lon="2.43505">
        <ele>446</ele>
        <time>2019-11-07T03:44:03Z</time>
      </trkpt>
      <trkpt lat="43.93288" lon="2.43512">
        <ele>452</ele>
        <time>2019-11-07T03:44:29Z</time>
      </trkpt>
      <trkpt lat="43.93257" lon="2.43525">
        <ele>458</ele>
        <time>2019-11-07T03:44:55Z</time>
      </trkpt>
      <trkpt lat="43.93235" lon="2.43526">
        <ele>460</ele>
        <time>2019-11-07T03:45:12Z</time>
      </trkpt>
      <trkpt lat="43.93225" lon="2.43523">
        <ele>461</ele>
        <time>2019-11-07T03:45:20Z</time>
      </trkpt>
      <trkpt lat="43.93218" lon="2.43517">
        <ele>461</ele>
        <time>2019-11-07T03:45:27Z</time>
      </trkpt>
      <trkpt lat="43.93196" lon="2.43479">
        <ele>460</ele>
        <time>2019-11-07T03:45:55Z</time>
      </trkpt>
      <trkpt lat="43.93178" lon="2.43459">
        <ele>461</ele>
        <time>2019-11-07T03:46:14Z</time>
      </trkpt>
      <trkpt lat="43.93171" lon="2.43459">
        <ele>462</ele>
        <time>2019-11-07T03:46:19Z</time>
      </trkpt>
      <trkpt lat="43.93165" lon="2.43462">
        <ele>462</ele>
        <time>2019-11-07T03:46:24Z</time>
      </trkpt>
      <trkpt lat="43.9316" lon="2.43484">
        <ele>462</ele>
        <time>2019-11-07T03:46:38Z</time>
      </trkpt>
      <trkpt lat="43.93161" lon="2.43527">
        <ele>465</ele>
        <time>2019-11-07T03:47:02Z</time>
      </trkpt>
      <trkpt lat="43.93157" lon="2.43566">
        <ele>465</ele>
        <time>2019-11-07T03:47:25Z</time>
      </trkpt>
      <trkpt lat="43.9316" lon="2.43603">
        <ele>469</ele>
        <time>2019-11-07T03:47:47Z</time>
      </trkpt>
      <trkpt lat="43.93172" lon="2.43632">
        <ele>472</ele>
        <time>2019-11-07T03:48:06Z</time>
      </trkpt>
      <trkpt lat="43.93177" lon="2.43667">
        <ele>475</ele>
        <time>2019-11-07T03:48:26Z</time>
      </trkpt>
      <trkpt lat="43.93199" lon="2.43717">
        <ele>474</ele>
        <time>2019-11-07T03:49:00Z</time>
      </trkpt>
      <trkpt lat="43.9321" lon="2.43735">
        <ele>475</ele>
        <time>2019-11-07T03:49:14Z</time>
      </trkpt>
      <trkpt lat="43.93222" lon="2.43765">
        <ele>476</ele>
        <time>2019-11-07T03:49:34Z</time>
      </trkpt>
      <trkpt lat="43.93224" lon="2.43773">
        <ele>476</ele>
        <time>2019-11-07T03:49:38Z</time>
      </trkpt>
      <trkpt lat="43.93221" lon="2.43778">
        <ele>476</ele>
        <time>2019-11-07T03:49:42Z</time>
      </trkpt>
      <trkpt lat="43.93233" lon="2.43837">
        <ele>478</ele>
        <time>2019-11-07T03:50:18Z</time>
      </trkpt>
      <trkpt lat="43.93236" lon="2.43847">
        <ele>479</ele>
        <time>2019-11-07T03:50:24Z</time>
      </trkpt>
      <trkpt lat="43.93243" lon="2.43854">
        <ele>481</ele>
        <time>2019-11-07T03:50:31Z</time>
      </trkpt>
      <trkpt lat="43.93251" lon="2.43877">
        <ele>483</ele>
        <time>2019-11-07T03:50:45Z</time>
      </trkpt>
      <trkpt lat="43.93254" lon="2.43912">
        <ele>485</ele>
        <time>2019-11-07T03:51:06Z</time>
      </trkpt>
      <trkpt lat="43.93247" lon="2.43937">
        <ele>485</ele>
        <time>2019-11-07T03:51:21Z</time>
      </trkpt>
      <trkpt lat="43.93203" lon="2.4405">
        <ele>482</ele>
        <time>2019-11-07T03:52:35Z</time>
      </trkpt>
      <trkpt lat="43.93148" lon="2.44154">
        <ele>485</ele>
        <time>2019-11-07T03:53:50Z</time>
      </trkpt>
      <trkpt lat="43.93098" lon="2.44308">
        <ele>485</ele>
        <time>2019-11-07T03:55:27Z</time>
      </trkpt>
      <trkpt lat="43.93092" lon="2.44333">
        <ele>484</ele>
        <time>2019-11-07T03:55:42Z</time>
      </trkpt>
      <trkpt lat="43.93091" lon="2.4435">
        <ele>483</ele>
        <time>2019-11-07T03:55:52Z</time>
      </trkpt>
      <trkpt lat="43.93096" lon="2.44425">
        <ele>479</ele>
        <time>2019-11-07T03:56:36Z</time>
      </trkpt>
      <trkpt lat="43.93094" lon="2.4444">
        <ele>479</ele>
        <time>2019-11-07T03:56:44Z</time>
      </trkpt>
      <trkpt lat="43.93102" lon="2.44441">
        <ele>478</ele>
        <time>2019-11-07T03:56:51Z</time>
      </trkpt>
      <trkpt lat="43.93116" lon="2.44455">
        <ele>477</ele>
        <time>2019-11-07T03:57:05Z</time>
      </trkpt>
      <trkpt lat="43.9319" lon="2.44595">
        <ele>471</ele>
        <time>2019-11-07T03:58:45Z</time>
      </trkpt>
      <trkpt lat="43.93202" lon="2.44677">
        <ele>474</ele>
        <time>2019-11-07T03:59:33Z</time>
      </trkpt>
      <trkpt lat="43.93211" lon="2.4469">
        <ele>472</ele>
        <time>2019-11-07T03:59:43Z</time>
      </trkpt>
      <trkpt lat="43.93239" lon="2.447">
        <ele>468</ele>
        <time>2019-11-07T04:00:07Z</time>
      </trkpt>
      <trkpt lat="43.93275" lon="2.44717">
        <ele>465</ele>
        <time>2019-11-07T04:00:37Z</time>
      </trkpt>
      <trkpt lat="43.93289" lon="2.44728">
        <ele>464</ele>
        <time>2019-11-07T04:00:50Z</time>
      </trkpt>
      <trkpt lat="43.93297" lon="2.4475">
        <ele>464</ele>
        <time>2019-11-07T04:01:04Z</time>
      </trkpt>
      <trkpt lat="43.93299" lon="2.44769">
        <ele>462</ele>
        <time>2019-11-07T04:01:15Z</time>
      </trkpt>
      <trkpt lat="43.93293" lon="2.44776">
        <ele>462</ele>
        <time>2019-11-07T04:01:21Z</time>
      </trkpt>
      <trkpt lat="43.93242" lon="2.44798">
        <ele>462</ele>
        <time>2019-11-07T04:02:04Z</time>
      </trkpt>
      <trkpt lat="43.93233" lon="2.44805">
        <ele>463</ele>
        <time>2019-11-07T04:02:12Z</time>
      </trkpt>
      <trkpt lat="43.9323" lon="2.44814">
        <ele>463</ele>
        <time>2019-11-07T04:02:18Z</time>
      </trkpt>
      <trkpt lat="43.9323" lon="2.44827">
        <ele>461</ele>
        <time>2019-11-07T04:02:26Z</time>
      </trkpt>
      <trkpt lat="43.93242" lon="2.44861">
        <ele>459</ele>
        <time>2019-11-07T04:02:48Z</time>
      </trkpt>
      <trkpt lat="43.93268" lon="2.44901">
        <ele>454</ele>
        <time>2019-11-07T04:03:19Z</time>
      </trkpt>
      <trkpt lat="43.93289" lon="2.4494">
        <ele>450</ele>
        <time>2019-11-07T04:03:47Z</time>
      </trkpt>
      <trkpt lat="43.93293" lon="2.44955">
        <ele>449</ele>
        <time>2019-11-07T04:03:56Z</time>
      </trkpt>
      <trkpt lat="43.93296" lon="2.45014">
        <ele>448</ele>
        <time>2019-11-07T04:04:30Z</time>
      </trkpt>
      <trkpt lat="43.93287" lon="2.45101">
        <ele>443</ele>
        <time>2019-11-07T04:05:21Z</time>
      </trkpt>
      <trkpt lat="43.93261" lon="2.45187">
        <ele>439</ele>
        <time>2019-11-07T04:06:14Z</time>
      </trkpt>
      <trkpt lat="43.93248" lon="2.45218">
        <ele>437</ele>
        <time>2019-11-07T04:06:35Z</time>
      </trkpt>
      <trkpt lat="43.93209" lon="2.45244">
        <ele>438</ele>
        <time>2019-11-07T04:07:10Z</time>
      </trkpt>
      <trkpt lat="43.93196" lon="2.45265">
        <ele>436</ele>
        <time>2019-11-07T04:07:26Z</time>
      </trkpt>
      <trkpt lat="43.93169" lon="2.45344">
        <ele>426</ele>
        <time>2019-11-07T04:08:16Z</time>
      </trkpt>
      <trkpt lat="43.93148" lon="2.45378">
        <ele>424</ele>
        <time>2019-11-07T04:08:42Z</time>
      </trkpt>
      <trkpt lat="43.93134" lon="2.45396">
        <ele>423</ele>
        <time>2019-11-07T04:08:57Z</time>
      </trkpt>
      <trkpt lat="43.93122" lon="2.45402">
        <ele>423</ele>
        <time>2019-11-07T04:09:07Z</time>
      </trkpt>
      <trkpt lat="43.9309" lon="2.45408">
        <ele>425</ele>
        <time>2019-11-07T04:09:33Z</time>
      </trkpt>
      <trkpt lat="43.93035" lon="2.45412">
        <ele>428</ele>
        <time>2019-11-07T04:10:17Z</time>
      </trkpt>
      <trkpt lat="43.93035" lon="2.45425">
        <ele>428</ele>
        <time>2019-11-07T04:10:25Z</time>
      </trkpt>
      <trkpt lat="43.93039" lon="2.45444">
        <ele>428</ele>
        <time>2019-11-07T04:10:36Z</time>
      </trkpt>
      <trkpt lat="43.93051" lon="2.45468">
        <ele>427</ele>
        <time>2019-11-07T04:10:53Z</time>
      </trkpt>
      <trkpt lat="43.9312" lon="2.45552">
        <ele>419</ele>
        <time>2019-11-07T04:12:07Z</time>
      </trkpt>
      <trkpt lat="43.93125" lon="2.45565">
        <ele>418</ele>
        <time>2019-11-07T04:12:15Z</time>
      </trkpt>
      <trkpt lat="43.93142" lon="2.45644">
        <ele>419</ele>
        <time>2019-11-07T04:13:03Z</time>
      </trkpt>
      <trkpt lat="43.93149" lon="2.45659">
        <ele>419</ele>
        <time>2019-11-07T04:13:13Z</time>
      </trkpt>
      <trkpt lat="43.93198" lon="2.4574">
        <ele>421</ele>
        <time>2019-11-07T04:14:14Z</time>
      </trkpt>
      <trkpt lat="43.93236" lon="2.45776">
        <ele>422</ele>
        <time>2019-11-07T04:14:51Z</time>
      </trkpt>
      <trkpt lat="43.93286" lon="2.45878">
        <ele>425</ele>
        <time>2019-11-07T04:16:02Z</time>
      </trkpt>
      <trkpt lat="43.93311" lon="2.45917">
        <ele>426</ele>
        <time>2019-11-07T04:16:32Z</time>
      </trkpt>
      <trkpt lat="43.93327" lon="2.45966">
        <ele>425</ele>
        <time>2019-11-07T04:17:03Z</time>
      </trkpt>
      <trkpt lat="43.93326" lon="2.46002">
        <ele>422</ele>
        <time>2019-11-07T04:17:24Z</time>
      </trkpt>
      <trkpt lat="43.93314" lon="2.46049">
        <ele>419</ele>
        <time>2019-11-07T04:17:53Z</time>
      </trkpt>
      <trkpt lat="43.93321" lon="2.46049">
        <ele>420</ele>
        <time>2019-11-07T04:17:58Z</time>
      </trkpt>
      <trkpt lat="43.93341" lon="2.46029">
        <ele>420</ele>
        <time>2019-11-07T04:18:18Z</time>
      </trkpt>
      <trkpt lat="43.93383" lon="2.45944">
        <ele>416</ele>
        <time>2019-11-07T04:19:17Z</time>
      </trkpt>
      <trkpt lat="43.93414" lon="2.45888">
        <ele>416</ele>
        <time>2019-11-07T04:19:58Z</time>
      </trkpt>
      <trkpt lat="43.93433" lon="2.45861">
        <ele>417</ele>
        <time>2019-11-07T04:20:20Z</time>
      </trkpt>
      <trkpt lat="43.93463" lon="2.45849">
        <ele>414</ele>
        <time>2019-11-07T04:20:45Z</time>
      </trkpt>
      <trkpt lat="43.93493" lon="2.4585">
        <ele>409</ele>
        <time>2019-11-07T04:21:09Z</time>
      </trkpt>
      <trkpt lat="43.93513" lon="2.45861">
        <ele>403</ele>
        <time>2019-11-07T04:21:26Z</time>
      </trkpt>
      <trkpt lat="43.93537" lon="2.4587">
        <ele>400</ele>
        <time>2019-11-07T04:21:46Z</time>
      </trkpt>
      <trkpt lat="43.93566" lon="2.45894">
        <ele>392</ele>
        <time>2019-11-07T04:22:13Z</time>
      </trkpt>
      <trkpt lat="43.93618" lon="2.45857">
        <ele>395</ele>
        <time>2019-11-07T04:23:00Z</time>
      </trkpt>
      <trkpt lat="43.93651" lon="2.45861">
        <ele>390</ele>
        <time>2019-11-07T04:23:26Z</time>
      </trkpt>
      <trkpt lat="43.93639" lon="2.4586">
        <ele>392</ele>
        <time>2019-11-07T04:23:36Z</time>
      </trkpt>
      <trkpt lat="43.93696" lon="2.45892">
        <ele>379</ele>
        <time>2019-11-07T04:24:25Z</time>
      </trkpt>
      <trkpt lat="43.93711" lon="2.45891">
        <ele>377</ele>
        <time>2019-11-07T04:24:37Z</time>
      </trkpt>
      <trkpt lat="43.93726" lon="2.4588">
        <ele>377</ele>
        <time>2019-11-07T04:24:51Z</time>
      </trkpt>
      <trkpt lat="43.93734" lon="2.45897">
        <ele>374</ele>
        <time>2019-11-07T04:25:03Z</time>
      </trkpt>
      <trkpt lat="43.9377" lon="2.46054">
        <ele>354</ele>
        <time>2019-11-07T04:26:38Z</time>
      </trkpt>
      <trkpt lat="43.93804" lon="2.4612">
        <ele>343</ele>
        <time>2019-11-07T04:27:24Z</time>
      </trkpt>
      <trkpt lat="43.93825" lon="2.46151">
        <ele>341</ele>
        <time>2019-11-07T04:27:49Z</time>
      </trkpt>
      <trkpt lat="43.93843" lon="2.46157">
        <ele>340</ele>
        <time>2019-11-07T04:28:04Z</time>
      </trkpt>
      <trkpt lat="43.93864" lon="2.46158">
        <ele>337</ele>
        <time>2019-11-07T04:28:21Z</time>
      </trkpt>
      <trkpt lat="43.93914" lon="2.46168">
        <ele>330</ele>
        <time>2019-11-07T04:29:01Z</time>
      </trkpt>
      <trkpt lat="43.9393" lon="2.4618">
        <ele>325</ele>
        <time>2019-11-07T04:29:16Z</time>
      </trkpt>
      <trkpt lat="43.93931" lon="2.46202">
        <ele>322</ele>
        <time>2019-11-07T04:29:28Z</time>
      </trkpt>
      <trkpt lat="43.93924" lon="2.46219">
        <ele>322</ele>
        <time>2019-11-07T04:29:40Z</time>
      </trkpt>
      <trkpt lat="43.93926" lon="2.46224">
        <ele>321</ele>
        <time>2019-11-07T04:29:43Z</time>
      </trkpt>
      <trkpt lat="43.93938" lon="2.46223">
        <ele>318</ele>
        <time>2019-11-07T04:29:52Z</time>
      </trkpt>
      <trkpt lat="43.9395" lon="2.46217">
        <ele>316</ele>
        <time>2019-11-07T04:30:03Z</time>
      </trkpt>
      <trkpt lat="43.93963" lon="2.46201">
        <ele>315</ele>
        <time>2019-11-07T04:30:17Z</time>
      </trkpt>
      <trkpt lat="43.93989" lon="2.46176">
        <ele>311</ele>
        <time>2019-11-07T04:30:42Z</time>
      </trkpt>
      <trkpt lat="43.94001" lon="2.46211">
        <ele>306</ele>
        <time>2019-11-07T04:31:04Z</time>
      </trkpt>
      <trkpt lat="43.94002" lon="2.46284">
        <ele>299</ele>
        <time>2019-11-07T04:31:46Z</time>
      </trkpt>
      <trkpt lat="43.9399" lon="2.46313">
        <ele>297</ele>
        <time>2019-11-07T04:32:06Z</time>
      </trkpt>
      <trkpt lat="43.93981" lon="2.46326">
        <ele>296</ele>
        <time>2019-11-07T04:32:16Z</time>
      </trkpt>
      <trkpt lat="43.93976" lon="2.46362">
        <ele>288</ele>
        <time>2019-11-07T04:32:37Z</time>
      </trkpt>
      <trkpt lat="43.93991" lon="2.46368">
        <ele>285</ele>
        <time>2019-11-07T04:32:50Z</time>
      </trkpt>
      <trkpt lat="43.94097" lon="2.46359">
        <ele>268</ele>
        <time>2019-11-07T04:34:15Z</time>
      </trkpt>
      <trkpt lat="43.94127" lon="2.4636">
        <ele>263</ele>
        <time>2019-11-07T04:34:39Z</time>
      </trkpt>
      <trkpt lat="43.94146" lon="2.46356">
        <ele>260</ele>
        <time>2019-11-07T04:34:54Z</time>
      </trkpt>
      <trkpt lat="43.94158" lon="2.46359">
        <ele>258</ele>
        <time>2019-11-07T04:35:04Z</time>
      </trkpt>
      <trkpt lat="43.94156" lon="2.46374">
        <ele>257</ele>
        <time>2019-11-07T04:35:13Z</time>
      </trkpt>
      <trkpt lat="43.94148" lon="2.4639">
        <ele>256</ele>
        <time>2019-11-07T04:35:24Z</time>
      </trkpt>
      <trkpt lat="43.94113" lon="2.46426">
        <ele>254</ele>
        <time>2019-11-07T04:35:59Z</time>
      </trkpt>
      <trkpt lat="43.94069" lon="2.46455">
        <ele>250</ele>
        <time>2019-11-07T04:36:38Z</time>
      </trkpt>
      <trkpt lat="43.94041" lon="2.46467">
        <ele>251</ele>
        <time>2019-11-07T04:37:01Z</time>
      </trkpt>
      <trkpt lat="43.94004" lon="2.46487">
        <ele>250</ele>
        <time>2019-11-07T04:37:33Z</time>
      </trkpt>
      <trkpt lat="43.93993" lon="2.4649">
        <ele>251</ele>
        <time>2019-11-07T04:37:42Z</time>
      </trkpt>
      <trkpt lat="43.93984" lon="2.46507">
        <ele>247</ele>
        <time>2019-11-07T04:37:54Z</time>
      </trkpt>
      <trkpt lat="43.9399" lon="2.4651">
        <ele>245</ele>
        <time>2019-11-07T04:37:59Z</time>
      </trkpt>
      <trkpt lat="43.94008" lon="2.46502">
        <ele>245</ele>
        <time>2019-11-07T04:38:14Z</time>
      </trkpt>
      <trkpt lat="43.9406" lon="2.46497">
        <ele>240</ele>
        <time>2019-11-07T04:38:56Z</time>
      </trkpt>
      <trkpt lat="43.94069" lon="2.46493">
        <ele>240</ele>
        <time>2019-11-07T04:39:04Z</time>
      </trkpt>
      <trkpt lat="43.94112" lon="2.46488">
        <ele>237</ele>
        <time>2019-11-07T04:39:38Z</time>
      </trkpt>
      <trkpt lat="43.9413" lon="2.46483">
        <ele>237</ele>
        <time>2019-11-07T04:39:53Z</time>
      </trkpt>
      <trkpt lat="43.94147" lon="2.46474">
        <ele>238</ele>
        <time>2019-11-07T04:40:08Z</time>
      </trkpt>
      <trkpt lat="43.9418" lon="2.46462">
        <ele>238</ele>
        <time>2019-11-07T04:40:35Z</time>
      </trkpt>
      <trkpt lat="43.94192" lon="2.46468">
        <ele>235</ele>
        <time>2019-11-07T04:40:45Z</time>
      </trkpt>
      <trkpt lat="43.94187" lon="2.4649">
        <ele>231</ele>
        <time>2019-11-07T04:40:58Z</time>
      </trkpt>
      <trkpt lat="43.94191" lon="2.46628">
        <ele>227</ele>
        <time>2019-11-07T04:42:18Z</time>
      </trkpt>
      <trkpt lat="43.94204" lon="2.46631">
        <ele>227</ele>
        <time>2019-11-07T04:42:29Z</time>
      </trkpt>
      <trkpt lat="43.94232" lon="2.46631">
        <ele>227</ele>
        <time>2019-11-07T04:42:51Z</time>
      </trkpt>
      <trkpt lat="43.94282" lon="2.46625">
        <ele>225</ele>
        <time>2019-11-07T04:43:31Z</time>
      </trkpt>
      <trkpt lat="43.94314" lon="2.46631">
        <ele>224</ele>
        <time>2019-11-07T04:43:57Z</time>
      </trkpt>
      <trkpt lat="43.94332" lon="2.46641">
        <ele>224</ele>
        <time>2019-11-07T04:44:13Z</time>
      </trkpt>
      <trkpt lat="43.94353" lon="2.46675">
        <ele>225</ele>
        <time>2019-11-07T04:44:38Z</time>
      </trkpt>
      <trkpt lat="43.94355" lon="2.46686">
        <ele>225</ele>
        <time>2019-11-07T04:44:45Z</time>
      </trkpt>
      <trkpt lat="43.94354" lon="2.46718">
        <ele>227</ele>
        <time>2019-11-07T04:45:03Z</time>
      </trkpt>
      <trkpt lat="43.94334" lon="2.46734">
        <ele>230</ele>
        <time>2019-11-07T04:45:22Z</time>
      </trkpt>
      <trkpt lat="43.94331" lon="2.46731">
        <ele>230</ele>
        <time>2019-11-07T04:45:25Z</time>
      </trkpt>
      <trkpt lat="43.9432" lon="2.46734">
        <ele>232</ele>
        <time>2019-11-07T04:45:34Z</time>
      </trkpt>
      <trkpt lat="43.94313" lon="2.46721">
        <ele>232</ele>
        <time>2019-11-07T04:45:43Z</time>
      </trkpt>
      <trkpt lat="43.94299" lon="2.46712">
        <ele>233</ele>
        <time>2019-11-07T04:45:55Z</time>
      </trkpt>
      <trkpt lat="43.94289" lon="2.46718">
        <ele>235</ele>
        <time>2019-11-07T04:46:04Z</time>
      </trkpt>
      <trkpt lat="43.9427" lon="2.4675">
        <ele>241</ele>
        <time>2019-11-07T04:46:28Z</time>
      </trkpt>
      <trkpt lat="43.94262" lon="2.46751">
        <ele>242</ele>
        <time>2019-11-07T04:46:35Z</time>
      </trkpt>
      <trkpt lat="43.94256" lon="2.46797">
        <ele>248</ele>
        <time>2019-11-07T04:47:01Z</time>
      </trkpt>
      <trkpt lat="43.94213" lon="2.46819">
        <ele>257</ele>
        <time>2019-11-07T04:47:38Z</time>
      </trkpt>
      <trkpt lat="43.94199" lon="2.46837">
        <ele>261</ele>
        <time>2019-11-07T04:47:53Z</time>
      </trkpt>
      <trkpt lat="43.9419" lon="2.46856">
        <ele>263</ele>
        <time>2019-11-07T04:48:07Z</time>
      </trkpt>
      <trkpt lat="43.94183" lon="2.46881">
        <ele>265</ele>
        <time>2019-11-07T04:48:22Z</time>
      </trkpt>
      <trkpt lat="43.94173" lon="2.46946">
        <ele>270</ele>
        <time>2019-11-07T04:49:00Z</time>
      </trkpt>
      <trkpt lat="43.94162" lon="2.46966">
        <ele>272</ele>
        <time>2019-11-07T04:49:15Z</time>
      </trkpt>
      <trkpt lat="43.94119" lon="2.47029">
        <ele>281</ele>
        <time>2019-11-07T04:50:05Z</time>
      </trkpt>
      <trkpt lat="43.94093" lon="2.46988">
        <ele>282</ele>
        <time>2019-11-07T04:50:36Z</time>
      </trkpt>
      <trkpt lat="43.94043" lon="2.46971">
        <ele>287</ele>
        <time>2019-11-07T04:51:18Z</time>
      </trkpt>
      <trkpt lat="43.94033" lon="2.46966">
        <ele>288</ele>
        <time>2019-11-07T04:51:26Z</time>
      </trkpt>
      <trkpt lat="43.94008" lon="2.46947">
        <ele>289</ele>
        <time>2019-11-07T04:51:49Z</time>
      </trkpt>
      <trkpt lat="43.93978" lon="2.46937">
        <ele>289</ele>
        <time>2019-11-07T04:52:14Z</time>
      </trkpt>
      <trkpt lat="43.93949" lon="2.46941">
        <ele>289</ele>
        <time>2019-11-07T04:52:37Z</time>
      </trkpt>
      <trkpt lat="43.93926" lon="2.46947">
        <ele>291</ele>
        <time>2019-11-07T04:52:56Z</time>
      </trkpt>
      <trkpt lat="43.93906" lon="2.46967">
        <ele>293</ele>
        <time>2019-11-07T04:53:15Z</time>
      </trkpt>
      <trkpt lat="43.93882" lon="2.47019">
        <ele>300</ele>
        <time>2019-11-07T04:53:51Z</time>
      </trkpt>
      <trkpt lat="43.93858" lon="2.47047">
        <ele>304</ele>
        <time>2019-11-07T04:54:16Z</time>
      </trkpt>
      <trkpt lat="43.93832" lon="2.47054">
        <ele>303</ele>
        <time>2019-11-07T04:54:37Z</time>
      </trkpt>
      <trkpt lat="43.9382" lon="2.47059">
        <ele>304</ele>
        <time>2019-11-07T04:54:47Z</time>
      </trkpt>
      <trkpt lat="43.9381" lon="2.47067">
        <ele>305</ele>
        <time>2019-11-07T04:54:57Z</time>
      </trkpt>
      <trkpt lat="43.93795" lon="2.47087">
        <ele>309</ele>
        <time>2019-11-07T04:55:13Z</time>
      </trkpt>
      <trkpt lat="43.93781" lon="2.47121">
        <ele>314</ele>
        <time>2019-11-07T04:55:36Z</time>
      </trkpt>
      <trkpt lat="43.93757" lon="2.47148">
        <ele>317</ele>
        <time>2019-11-07T04:56:01Z</time>
      </trkpt>
      <trkpt lat="43.93686" lon="2.47163">
        <ele>317</ele>
        <time>2019-11-07T04:56:58Z</time>
      </trkpt>
      <trkpt lat="43.93675" lon="2.47171">
        <ele>318</ele>
        <time>2019-11-07T04:57:08Z</time>
      </trkpt>
      <trkpt lat="43.93662" lon="2.47186">
        <ele>319</ele>
        <time>2019-11-07T04:57:22Z</time>
      </trkpt>
      <trkpt lat="43.93647" lon="2.47207">
        <ele>319</ele>
        <time>2019-11-07T04:57:39Z</time>
      </trkpt>
      <trkpt lat="43.93589" lon="2.47302">
        <ele>326</ele>
        <time>2019-11-07T04:58:50Z</time>
      </trkpt>
      <trkpt lat="43.93563" lon="2.47376">
        <ele>338</ele>
        <time>2019-11-07T04:59:38Z</time>
      </trkpt>
      <trkpt lat="43.93542" lon="2.47406">
        <ele>343</ele>
        <time>2019-11-07T05:00:02Z</time>
      </trkpt>
      <trkpt lat="43.93481" lon="2.47368">
        <ele>345</ele>
        <time>2019-11-07T05:00:56Z</time>
      </trkpt>
      <trkpt lat="43.93477" lon="2.47363">
        <ele>345</ele>
        <time>2019-11-07T05:01:00Z</time>
      </trkpt>
      <trkpt lat="43.93472" lon="2.47337">
        <ele>344</ele>
        <time>2019-11-07T05:01:15Z</time>
      </trkpt>
      <trkpt lat="43.93475" lon="2.47285">
        <ele>341</ele>
        <time>2019-11-07T05:01:45Z</time>
      </trkpt>
      <trkpt lat="43.93461" lon="2.47239">
        <ele>342</ele>
        <time>2019-11-07T05:02:14Z</time>
      </trkpt>
      <trkpt lat="43.93436" lon="2.47196">
        <ele>344</ele>
        <time>2019-11-07T05:02:46Z</time>
      </trkpt>
      <trkpt lat="43.93428" lon="2.47188">
        <ele>345</ele>
        <time>2019-11-07T05:02:54Z</time>
      </trkpt>
      <trkpt lat="43.93422" lon="2.47184">
        <ele>346</ele>
        <time>2019-11-07T05:02:59Z</time>
      </trkpt>
      <trkpt lat="43.93413" lon="2.47183">
        <ele>347</ele>
        <time>2019-11-07T05:03:07Z</time>
      </trkpt>
      <trkpt lat="43.93405" lon="2.47187">
        <ele>346</ele>
        <time>2019-11-07T05:03:13Z</time>
      </trkpt>
      <trkpt lat="43.93386" lon="2.47209">
        <ele>347</ele>
        <time>2019-11-07T05:03:33Z</time>
      </trkpt>
      <trkpt lat="43.93362" lon="2.4726">
        <ele>352</ele>
        <time>2019-11-07T05:04:08Z</time>
      </trkpt>
      <trkpt lat="43.93345" lon="2.47285">
        <ele>353</ele>
        <time>2019-11-07T05:04:28Z</time>
      </trkpt>
      <trkpt lat="43.9334" lon="2.47335">
        <ele>358</ele>
        <time>2019-11-07T05:04:57Z</time>
      </trkpt>
      <trkpt lat="43.93342" lon="2.47361">
        <ele>360</ele>
        <time>2019-11-07T05:05:12Z</time>
      </trkpt>
      <trkpt lat="43.93338" lon="2.47421">
        <ele>364</ele>
        <time>2019-11-07T05:05:47Z</time>
      </trkpt>
      <trkpt lat="43.9334" lon="2.47465">
        <ele>369</ele>
        <time>2019-11-07T05:06:13Z</time>
      </trkpt>
      <trkpt lat="43.93337" lon="2.47485">
        <ele>371</ele>
        <time>2019-11-07T05:06:24Z</time>
      </trkpt>
      <trkpt lat="43.93313" lon="2.47566">
        <ele>381</ele>
        <time>2019-11-07T05:07:15Z</time>
      </trkpt>
      <trkpt lat="43.93255" lon="2.47673">
        <ele>390</ele>
        <time>2019-11-07T05:08:32Z</time>
      </trkpt>
      <trkpt lat="43.93229" lon="2.47713">
        <ele>392</ele>
        <time>2019-11-07T05:09:03Z</time>
      </trkpt>
      <trkpt lat="43.93203" lon="2.47742">
        <ele>394</ele>
        <time>2019-11-07T05:09:30Z</time>
      </trkpt>
      <trkpt lat="43.93189" lon="2.47751">
        <ele>394</ele>
        <time>2019-11-07T05:09:42Z</time>
      </trkpt>
      <trkpt lat="43.93179" lon="2.47753">
        <ele>393</ele>
        <time>2019-11-07T05:09:50Z</time>
      </trkpt>
      <trkpt lat="43.93143" lon="2.47752">
        <ele>391</ele>
        <time>2019-11-07T05:10:19Z</time>
      </trkpt>
      <trkpt lat="43.93114" lon="2.47761">
        <ele>391</ele>
        <time>2019-11-07T05:10:43Z</time>
      </trkpt>
      <trkpt lat="43.9308" lon="2.47791">
        <ele>395</ele>
        <time>2019-11-07T05:11:15Z</time>
      </trkpt>
      <trkpt lat="43.9301" lon="2.47896">
        <ele>394</ele>
        <time>2019-11-07T05:12:38Z</time>
      </trkpt>
      <trkpt lat="43.92973" lon="2.47938">
        <ele>393</ele>
        <time>2019-11-07T05:13:16Z</time>
      </trkpt>
      <trkpt lat="43.9296" lon="2.47947">
        <ele>392</ele>
        <time>2019-11-07T05:13:28Z</time>
      </trkpt>
      <trkpt lat="43.9295" lon="2.47948">
        <ele>390</ele>
        <time>2019-11-07T05:13:36Z</time>
      </trkpt>
      <trkpt lat="43.92937" lon="2.4796">
        <ele>390</ele>
        <time>2019-11-07T05:13:48Z</time>
      </trkpt>
      <trkpt lat="43.92913" lon="2.47992">
        <ele>395</ele>
        <time>2019-11-07T05:14:15Z</time>
      </trkpt>
      <trkpt lat="43.92903" lon="2.47999">
        <ele>396</ele>
        <time>2019-11-07T05:14:24Z</time>
      </trkpt>
      <trkpt lat="43.92879" lon="2.48009">
        <ele>395</ele>
        <time>2019-11-07T05:14:44Z</time>
      </trkpt>
      <trkpt lat="43.9278" lon="2.48038">
        <ele>383</ele>
        <time>2019-11-07T05:16:05Z</time>
      </trkpt>
      <trkpt lat="43.92759" lon="2.48056">
        <ele>383</ele>
        <time>2019-11-07T05:16:24Z</time>
      </trkpt>
      <trkpt lat="43.92734" lon="2.4809">
        <ele>387</ele>
        <time>2019-11-07T05:16:52Z</time>
      </trkpt>
      <trkpt lat="43.92717" lon="2.48099">
        <ele>386</ele>
        <time>2019-11-07T05:17:07Z</time>
      </trkpt>
      <trkpt lat="43.927" lon="2.481">
        <ele>382</ele>
        <time>2019-11-07T05:17:21Z</time>
      </trkpt>
      <trkpt lat="43.92689" lon="2.48098">
        <ele>379</ele>
        <time>2019-11-07T05:17:30Z</time>
      </trkpt>
      <trkpt lat="43.92687" lon="2.48091">
        <ele>377</ele>
        <time>2019-11-07T05:17:34Z</time>
      </trkpt>
      <trkpt lat="43.92688" lon="2.48082">
        <ele>375</ele>
        <time>2019-11-07T05:17:39Z</time>
      </trkpt>
      <trkpt lat="43.92729" lon="2.48041">
        <ele>372</ele>
        <time>2019-11-07T05:18:20Z</time>
      </trkpt>
      <trkpt lat="43.92762" lon="2.47996">
        <ele>367</ele>
        <time>2019-11-07T05:18:57Z</time>
      </trkpt>
      <trkpt lat="43.92782" lon="2.47919">
        <ele>358</ele>
        <time>2019-11-07T05:19:44Z</time>
      </trkpt>
      <trkpt lat="43.92775" lon="2.47892">
        <ele>353</ele>
        <time>2019-11-07T05:20:00Z</time>
      </trkpt>
      <trkpt lat="43.92789" lon="2.47838">
        <ele>346</ele>
        <time>2019-11-07T05:20:33Z</time>
      </trkpt>
      <trkpt lat="43.92789" lon="2.47828">
        <ele>345</ele>
        <time>2019-11-07T05:20:39Z</time>
      </trkpt>
      <trkpt lat="43.92785" lon="2.47826">
        <ele>344</ele>
        <time>2019-11-07T05:20:43Z</time>
      </trkpt>
      <trkpt lat="43.92765" lon="2.47846">
        <ele>347</ele>
        <time>2019-11-07T05:21:02Z</time>
      </trkpt>
      <trkpt lat="43.92741" lon="2.47927">
        <ele>353</ele>
        <time>2019-11-07T05:21:53Z</time>
      </trkpt>
      <trkpt lat="43.92717" lon="2.47963">
        <ele>353</ele>
        <time>2019-11-07T05:22:21Z</time>
      </trkpt>
      <trkpt lat="43.92702" lon="2.47964">
        <ele>350</ele>
        <time>2019-11-07T05:22:33Z</time>
      </trkpt>
      <trkpt lat="43.92677" lon="2.47953">
        <ele>343</ele>
        <time>2019-11-07T05:22:54Z</time>
      </trkpt>
      <trkpt lat="43.92668" lon="2.47952">
        <ele>341</ele>
        <time>2019-11-07T05:23:01Z</time>
      </trkpt>
      <trkpt lat="43.92652" lon="2.47955">
        <ele>340</ele>
        <time>2019-11-07T05:23:14Z</time>
      </trkpt>
      <trkpt lat="43.92643" lon="2.47966">
        <ele>342</ele>
        <time>2019-11-07T05:23:24Z</time>
      </trkpt>
      <trkpt lat="43.92626" lon="2.47979">
        <ele>343</ele>
        <time>2019-11-07T05:23:40Z</time>
      </trkpt>
      <trkpt lat="43.92612" lon="2.47977">
        <ele>342</ele>
        <time>2019-11-07T05:23:51Z</time>
      </trkpt>
      <trkpt lat="43.92578" lon="2.47966">
        <ele>336</ele>
        <time>2019-11-07T05:24:19Z</time>
      </trkpt>
      <trkpt lat="43.92566" lon="2.47968">
        <ele>334</ele>
        <time>2019-11-07T05:24:28Z</time>
      </trkpt>
      <trkpt lat="43.92546" lon="2.47976">
        <ele>331</ele>
        <time>2019-11-07T05:24:45Z</time>
      </trkpt>
      <trkpt lat="43.9253" lon="2.47986">
        <ele>330</ele>
        <time>2019-11-07T05:24:59Z</time>
      </trkpt>
      <trkpt lat="43.92526" lon="2.47986">
        <ele>329</ele>
        <time>2019-11-07T05:25:02Z</time>
      </trkpt>
      <trkpt lat="43.92525" lon="2.47983">
        <ele>328</ele>
        <time>2019-11-07T05:25:04Z</time>
      </trkpt>
      <trkpt lat="43.9253" lon="2.47975">
        <ele>328</ele>
        <time>2019-11-07T05:25:10Z</time>
      </trkpt>
      <trkpt lat="43.92551" lon="2.47956">
        <ele>328</ele>
        <time>2019-11-07T05:25:30Z</time>
      </trkpt>
      <trkpt lat="43.9257" lon="2.47928">
        <ele>327</ele>
        <time>2019-11-07T05:25:53Z</time>
      </trkpt>
      <trkpt lat="43.92547" lon="2.47929">
        <ele>322</ele>
        <time>2019-11-07T05:26:11Z</time>
      </trkpt>
      <trkpt lat="43.92499" lon="2.47951">
        <ele>316</ele>
        <time>2019-11-07T05:26:51Z</time>
      </trkpt>
      <trkpt lat="43.925" lon="2.4794">
        <ele>314</ele>
        <time>2019-11-07T05:26:58Z</time>
      </trkpt>
      <trkpt lat="43.92519" lon="2.47915">
        <ele>313</ele>
        <time>2019-11-07T05:27:19Z</time>
      </trkpt>
      <trkpt lat="43.92554" lon="2.47889">
        <ele>313</ele>
        <time>2019-11-07T05:27:51Z</time>
      </trkpt>
      <trkpt lat="43.92477" lon="2.47896">
        <ele>298</ele>
        <time>2019-11-07T05:28:52Z</time>
      </trkpt>
      <trkpt lat="43.92442" lon="2.47913">
        <ele>293</ele>
        <time>2019-11-07T05:29:22Z</time>
      </trkpt>
      <trkpt lat="43.92441" lon="2.47908">
        <ele>292</ele>
        <time>2019-11-07T05:29:25Z</time>
      </trkpt>
      <trkpt lat="43.92445" lon="2.47889">
        <ele>288</ele>
        <time>2019-11-07T05:29:37Z</time>
      </trkpt>
      <trkpt lat="43.92492" lon="2.47827">
        <ele>283</ele>
        <time>2019-11-07T05:30:28Z</time>
      </trkpt>
      <trkpt lat="43.9244" lon="2.47851">
        <ele>277</ele>
        <time>2019-11-07T05:31:12Z</time>
      </trkpt>
      <trkpt lat="43.92438" lon="2.47837">
        <ele>273</ele>
        <time>2019-11-07T05:31:21Z</time>
      </trkpt>
      <trkpt lat="43.92456" lon="2.47798">
        <ele>270</ele>
        <time>2019-11-07T05:31:47Z</time>
      </trkpt>
      <trkpt lat="43.92389" lon="2.47887">
        <ele>276</ele>
        <time>2019-11-07T05:33:01Z</time>
      </trkpt>
      <trkpt lat="43.9236" lon="2.47934">
        <ele>278</ele>
        <time>2019-11-07T05:33:37Z</time>
      </trkpt>
      <trkpt lat="43.92317" lon="2.47963">
        <ele>277</ele>
        <time>2019-11-07T05:34:15Z</time>
      </trkpt>
      <trkpt lat="43.92245" lon="2.48019">
        <ele>273</ele>
        <time>2019-11-07T05:35:22Z</time>
      </trkpt>
      <trkpt lat="43.92222" lon="2.4803">
        <ele>274</ele>
        <time>2019-11-07T05:35:41Z</time>
      </trkpt>
      <trkpt lat="43.92211" lon="2.48032">
        <ele>274</ele>
        <time>2019-11-07T05:35:50Z</time>
      </trkpt>
      <trkpt lat="43.92151" lon="2.48028">
        <ele>275</ele>
        <time>2019-11-07T05:36:38Z</time>
      </trkpt>
      <trkpt lat="43.92111" lon="2.48">
        <ele>274</ele>
        <time>2019-11-07T05:37:14Z</time>
      </trkpt>
      <trkpt lat="43.92029" lon="2.4796">
        <ele>280</ele>
        <time>2019-11-07T05:38:23Z</time>
      </trkpt>
      <trkpt lat="43.92004" lon="2.4795">
        <ele>280</ele>
        <time>2019-11-07T05:38:44Z</time>
      </trkpt>
      <trkpt lat="43.9197" lon="2.47925">
        <ele>279</ele>
        <time>2019-11-07T05:39:15Z</time>
      </trkpt>
      <trkpt lat="43.91951" lon="2.4792">
        <ele>280</ele>
        <time>2019-11-07T05:39:31Z</time>
      </trkpt>
      <trkpt lat="43.91892" lon="2.4789">
        <ele>283</ele>
        <time>2019-11-07T05:40:21Z</time>
      </trkpt>
      <trkpt lat="43.91858" lon="2.47876">
        <ele>284</ele>
        <time>2019-11-07T05:40:49Z</time>
      </trkpt>
      <trkpt lat="43.91798" lon="2.4784">
        <ele>283</ele>
        <time>2019-11-07T05:41:42Z</time>
      </trkpt>
      <trkpt lat="43.91788" lon="2.47838">
        <ele>283</ele>
        <time>2019-11-07T05:41:50Z</time>
      </trkpt>
      <trkpt lat="43.91774" lon="2.47839">
        <ele>283</ele>
        <time>2019-11-07T05:42:01Z</time>
      </trkpt>
      <trkpt lat="43.91769" lon="2.47842">
        <ele>283</ele>
        <time>2019-11-07T05:42:05Z</time>
      </trkpt>
      <trkpt lat="43.91755" lon="2.4786">
        <ele>283</ele>
        <time>2019-11-07T05:42:21Z</time>
      </trkpt>
      <trkpt lat="43.91721" lon="2.47887">
        <ele>289</ele>
        <time>2019-11-07T05:42:52Z</time>
      </trkpt>
      <trkpt lat="43.91672" lon="2.4791">
        <ele>297</ele>
        <time>2019-11-07T05:43:33Z</time>
      </trkpt>
      <trkpt lat="43.91638" lon="2.47939">
        <ele>299</ele>
        <time>2019-11-07T05:44:05Z</time>
      </trkpt>
      <trkpt lat="43.91615" lon="2.47949">
        <ele>301</ele>
        <time>2019-11-07T05:44:25Z</time>
      </trkpt>
      <trkpt lat="43.9159" lon="2.47946">
        <ele>306</ele>
        <time>2019-11-07T05:44:45Z</time>
      </trkpt>
      <trkpt lat="43.91565" lon="2.47951">
        <ele>310</ele>
        <time>2019-11-07T05:45:05Z</time>
      </trkpt>
      <trkpt lat="43.91481" lon="2.48011">
        <ele>309</ele>
        <time>2019-11-07T05:46:21Z</time>
      </trkpt>
      <trkpt lat="43.91436" lon="2.4803">
        <ele>315</ele>
        <time>2019-11-07T05:46:58Z</time>
      </trkpt>
      <trkpt lat="43.91395" lon="2.48067">
        <ele>318</ele>
        <time>2019-11-07T05:47:37Z</time>
      </trkpt>
      <trkpt lat="43.91377" lon="2.48097">
        <ele>319</ele>
        <time>2019-11-07T05:48:00Z</time>
      </trkpt>
      <trkpt lat="43.91348" lon="2.4824">
        <ele>326</ele>
        <time>2019-11-07T05:49:26Z</time>
      </trkpt>
      <trkpt lat="43.91344" lon="2.48278">
        <ele>325</ele>
        <time>2019-11-07T05:49:48Z</time>
      </trkpt>
      <trkpt lat="43.91326" lon="2.48305">
        <ele>326</ele>
        <time>2019-11-07T05:50:09Z</time>
      </trkpt>
      <trkpt lat="43.91264" lon="2.48364">
        <ele>338</ele>
        <time>2019-11-07T05:51:09Z</time>
      </trkpt>
      <trkpt lat="43.91255" lon="2.48391">
        <ele>337</ele>
        <time>2019-11-07T05:51:26Z</time>
      </trkpt>
      <trkpt lat="43.91248" lon="2.48428">
        <ele>334</ele>
        <time>2019-11-07T05:51:48Z</time>
      </trkpt>
      <trkpt lat="43.91237" lon="2.48451">
        <ele>335</ele>
        <time>2019-11-07T05:52:04Z</time>
      </trkpt>
      <trkpt lat="43.91197" lon="2.4852">
        <ele>343</ele>
        <time>2019-11-07T05:52:55Z</time>
      </trkpt>
      <trkpt lat="43.91186" lon="2.48557">
        <ele>345</ele>
        <time>2019-11-07T05:53:18Z</time>
      </trkpt>
      <trkpt lat="43.91181" lon="2.48681">
        <ele>343</ele>
        <time>2019-11-07T05:54:30Z</time>
      </trkpt>
      <trkpt lat="43.91174" lon="2.4874">
        <ele>341</ele>
        <time>2019-11-07T05:55:05Z</time>
      </trkpt>
      <trkpt lat="43.91109" lon="2.48787">
        <ele>349</ele>
        <time>2019-11-07T05:56:03Z</time>
      </trkpt>
      <trkpt lat="43.9109" lon="2.48789">
        <ele>352</ele>
        <time>2019-11-07T05:56:19Z</time>
      </trkpt>
      <trkpt lat="43.91057" lon="2.48774">
        <ele>363</ele>
        <time>2019-11-07T05:56:46Z</time>
      </trkpt>
      <trkpt lat="43.9104" lon="2.48777">
        <ele>368</ele>
        <time>2019-11-07T05:57:00Z</time>
      </trkpt>
      <trkpt lat="43.9104" lon="2.48758">
        <ele>370</ele>
        <time>2019-11-07T05:57:11Z</time>
      </trkpt>
      <trkpt lat="43.91053" lon="2.48752">
        <ele>367</ele>
        <time>2019-11-07T05:57:22Z</time>
      </trkpt>
      <trkpt lat="43.91087" lon="2.48754">
        <ele>358</ele>
        <time>2019-11-07T05:57:49Z</time>
      </trkpt>
      <trkpt lat="43.91099" lon="2.48748">
        <ele>357</ele>
        <time>2019-11-07T05:57:59Z</time>
      </trkpt>
      <trkpt lat="43.91101" lon="2.48731">
        <ele>358</ele>
        <time>2019-11-07T05:58:09Z</time>
      </trkpt>
      <trkpt lat="43.9109" lon="2.48705">
        <ele>365</ele>
        <time>2019-11-07T05:58:27Z</time>
      </trkpt>
      <trkpt lat="43.91085" lon="2.48666">
        <ele>371</ele>
        <time>2019-11-07T05:58:50Z</time>
      </trkpt>
      <trkpt lat="43.91096" lon="2.48607">
        <ele>370</ele>
        <time>2019-11-07T05:59:25Z</time>
      </trkpt>
      <trkpt lat="43.91094" lon="2.48581">
        <ele>372</ele>
        <time>2019-11-07T05:59:40Z</time>
      </trkpt>
      <trkpt lat="43.91074" lon="2.48508">
        <ele>385</ele>
        <time>2019-11-07T06:00:25Z</time>
      </trkpt>
      <trkpt lat="43.91073" lon="2.48488">
        <ele>386</ele>
        <time>2019-11-07T06:00:36Z</time>
      </trkpt>
      <trkpt lat="43.91076" lon="2.48466">
        <ele>387</ele>
        <time>2019-11-07T06:00:49Z</time>
      </trkpt>
      <trkpt lat="43.91094" lon="2.48401">
        <ele>386</ele>
        <time>2019-11-07T06:01:30Z</time>
      </trkpt>
      <trkpt lat="43.91073" lon="2.48355">
        <ele>395</ele>
        <time>2019-11-07T06:02:01Z</time>
      </trkpt>
      <trkpt lat="43.91068" lon="2.48335">
        <ele>398</ele>
        <time>2019-11-07T06:02:13Z</time>
      </trkpt>
      <trkpt lat="43.91069" lon="2.48325">
        <ele>399</ele>
        <time>2019-11-07T06:02:19Z</time>
      </trkpt>
      <trkpt lat="43.9108" lon="2.48296">
        <ele>399</ele>
        <time>2019-11-07T06:02:38Z</time>
      </trkpt>
      <trkpt lat="43.91083" lon="2.4828">
        <ele>400</ele>
        <time>2019-11-07T06:02:47Z</time>
      </trkpt>
      <trkpt lat="43.91082" lon="2.48272">
        <ele>401</ele>
        <time>2019-11-07T06:02:52Z</time>
      </trkpt>
      <trkpt lat="43.91079" lon="2.48266">
        <ele>402</ele>
        <time>2019-11-07T06:02:56Z</time>
      </trkpt>
      <trkpt lat="43.91061" lon="2.48268">
        <ele>406</ele>
        <time>2019-11-07T06:03:11Z</time>
      </trkpt>
      <trkpt lat="43.91085" lon="2.48176">
        <ele>406</ele>
        <time>2019-11-07T06:04:07Z</time>
      </trkpt>
      <trkpt lat="43.91086" lon="2.4813">
        <ele>408</ele>
        <time>2019-11-07T06:04:34Z</time>
      </trkpt>
      <trkpt lat="43.9108" lon="2.4804">
        <ele>415</ele>
        <time>2019-11-07T06:05:26Z</time>
      </trkpt>
      <trkpt lat="43.91074" lon="2.48">
        <ele>419</ele>
        <time>2019-11-07T06:05:49Z</time>
      </trkpt>
      <trkpt lat="43.91061" lon="2.47961">
        <ele>419</ele>
        <time>2019-11-07T06:06:14Z</time>
      </trkpt>
      <trkpt lat="43.91022" lon="2.47995">
        <ele>429</ele>
        <time>2019-11-07T06:06:51Z</time>
      </trkpt>
      <trkpt lat="43.90983" lon="2.47992">
        <ele>435</ele>
        <time>2019-11-07T06:07:22Z</time>
      </trkpt>
      <trkpt lat="43.90973" lon="2.4799">
        <ele>436</ele>
        <time>2019-11-07T06:07:30Z</time>
      </trkpt>
      <trkpt lat="43.90931" lon="2.47965">
        <ele>435</ele>
        <time>2019-11-07T06:08:07Z</time>
      </trkpt>
      <trkpt lat="43.90912" lon="2.47958">
        <ele>436</ele>
        <time>2019-11-07T06:08:23Z</time>
      </trkpt>
      <trkpt lat="43.90867" lon="2.47969">
        <ele>449</ele>
        <time>2019-11-07T06:08:59Z</time>
      </trkpt>
      <trkpt lat="43.90841" lon="2.47965">
        <ele>453</ele>
        <time>2019-11-07T06:09:20Z</time>
      </trkpt>
      <trkpt lat="43.90825" lon="2.47952">
        <ele>453</ele>
        <time>2019-11-07T06:09:35Z</time>
      </trkpt>
      <trkpt lat="43.90819" lon="2.47942">
        <ele>452</ele>
        <time>2019-11-07T06:09:43Z</time>
      </trkpt>
      <trkpt lat="43.90792" lon="2.47911">
        <ele>449</ele>
        <time>2019-11-07T06:10:11Z</time>
      </trkpt>
      <trkpt lat="43.90782" lon="2.47908">
        <ele>450</ele>
        <time>2019-11-07T06:10:19Z</time>
      </trkpt>
      <trkpt lat="43.90766" lon="2.47907">
        <ele>452</ele>
        <time>2019-11-07T06:10:32Z</time>
      </trkpt>
      <trkpt lat="43.90743" lon="2.47911">
        <ele>457</ele>
        <time>2019-11-07T06:10:50Z</time>
      </trkpt>
      <trkpt lat="43.90685" lon="2.4791">
        <ele>460</ele>
        <time>2019-11-07T06:11:37Z</time>
      </trkpt>
      <trkpt lat="43.90671" lon="2.47902">
        <ele>457</ele>
        <time>2019-11-07T06:11:49Z</time>
      </trkpt>
      <trkpt lat="43.90612" lon="2.47909">
        <ele>472</ele>
        <time>2019-11-07T06:12:36Z</time>
      </trkpt>
      <trkpt lat="43.90601" lon="2.47908">
        <ele>474</ele>
        <time>2019-11-07T06:12:45Z</time>
      </trkpt>
      <trkpt lat="43.90593" lon="2.47904">
        <ele>475</ele>
        <time>2019-11-07T06:12:52Z</time>
      </trkpt>
      <trkpt lat="43.90575" lon="2.47871">
        <ele>468</ele>
        <time>2019-11-07T06:13:16Z</time>
      </trkpt>
      <trkpt lat="43.9055" lon="2.47833">
        <ele>464</ele>
        <time>2019-11-07T06:13:46Z</time>
      </trkpt>
      <trkpt lat="43.90539" lon="2.47764">
        <ele>444</ele>
        <time>2019-11-07T06:14:26Z</time>
      </trkpt>
      <trkpt lat="43.90533" lon="2.47757">
        <ele>444</ele>
        <time>2019-11-07T06:14:33Z</time>
      </trkpt>
      <trkpt lat="43.90521" lon="2.47757">
        <ele>447</ele>
        <time>2019-11-07T06:14:42Z</time>
      </trkpt>
      <trkpt lat="43.9051" lon="2.4776">
        <ele>450</ele>
        <time>2019-11-07T06:14:51Z</time>
      </trkpt>
      <trkpt lat="43.90499" lon="2.4777">
        <ele>457</ele>
        <time>2019-11-07T06:15:02Z</time>
      </trkpt>
      <trkpt lat="43.90481" lon="2.47775">
        <ele>461</ele>
        <time>2019-11-07T06:15:16Z</time>
      </trkpt>
      <trkpt lat="43.90471" lon="2.47782">
        <ele>465</ele>
        <time>2019-11-07T06:15:25Z</time>
      </trkpt>
      <trkpt lat="43.90454" lon="2.47804">
        <ele>473</ele>
        <time>2019-11-07T06:15:44Z</time>
      </trkpt>
      <trkpt lat="43.90443" lon="2.47805">
        <ele>474</ele>
        <time>2019-11-07T06:15:53Z</time>
      </trkpt>
      <trkpt lat="43.90414" lon="2.47794">
        <ele>474</ele>
        <time>2019-11-07T06:16:17Z</time>
      </trkpt>
      <trkpt lat="43.90397" lon="2.47776">
        <ele>472</ele>
        <time>2019-11-07T06:16:34Z</time>
      </trkpt>
      <trkpt lat="43.90387" lon="2.47752">
        <ele>468</ele>
        <time>2019-11-07T06:16:50Z</time>
      </trkpt>
      <trkpt lat="43.90383" lon="2.47716">
        <ele>457</ele>
        <time>2019-11-07T06:17:11Z</time>
      </trkpt>
      <trkpt lat="43.90373" lon="2.47702">
        <ele>454</ele>
        <time>2019-11-07T06:17:22Z</time>
      </trkpt>
      <trkpt lat="43.90348" lon="2.47694">
        <ele>457</ele>
        <time>2019-11-07T06:17:43Z</time>
      </trkpt>
      <trkpt lat="43.90323" lon="2.47699">
        <ele>461</ele>
        <time>2019-11-07T06:18:03Z</time>
      </trkpt>
      <trkpt lat="43.90317" lon="2.47683">
        <ele>454</ele>
        <time>2019-11-07T06:18:14Z</time>
      </trkpt>
      <trkpt lat="43.90315" lon="2.47648">
        <ele>441</ele>
        <time>2019-11-07T06:18:34Z</time>
      </trkpt>
      <trkpt lat="43.90318" lon="2.4764">
        <ele>438</ele>
        <time>2019-11-07T06:18:39Z</time>
      </trkpt>
      <trkpt lat="43.90309" lon="2.47628">
        <ele>432</ele>
        <time>2019-11-07T06:18:49Z</time>
      </trkpt>
      <trkpt lat="43.90257" lon="2.47629">
        <ele>428</ele>
        <time>2019-11-07T06:19:31Z</time>
      </trkpt>
      <trkpt lat="43.90236" lon="2.47632">
        <ele>427</ele>
        <time>2019-11-07T06:19:48Z</time>
      </trkpt>
      <trkpt lat="43.90204" lon="2.47639">
        <ele>425</ele>
        <time>2019-11-07T06:20:13Z</time>
      </trkpt>
      <trkpt lat="43.90178" lon="2.47654">
        <ele>427</ele>
        <time>2019-11-07T06:20:36Z</time>
      </trkpt>
      <trkpt lat="43.90158" lon="2.47652">
        <ele>425</ele>
        <time>2019-11-07T06:20:52Z</time>
      </trkpt>
      <trkpt lat="43.90133" lon="2.47637">
        <ele>421</ele>
        <time>2019-11-07T06:21:14Z</time>
      </trkpt>
      <trkpt lat="43.90053" lon="2.47607">
        <ele>416</ele>
        <time>2019-11-07T06:22:20Z</time>
      </trkpt>
      <trkpt lat="43.90043" lon="2.47611">
        <ele>418</ele>
        <time>2019-11-07T06:22:29Z</time>
      </trkpt>
      <trkpt lat="43.90018" lon="2.47608">
        <ele>418</ele>
        <time>2019-11-07T06:22:49Z</time>
      </trkpt>
      <trkpt lat="43.90008" lon="2.47603">
        <ele>417</ele>
        <time>2019-11-07T06:22:57Z</time>
      </trkpt>
      <trkpt lat="43.89998" lon="2.47594">
        <ele>414</ele>
        <time>2019-11-07T06:23:07Z</time>
      </trkpt>
      <trkpt lat="43.89983" lon="2.47589">
        <ele>415</ele>
        <time>2019-11-07T06:23:19Z</time>
      </trkpt>
      <trkpt lat="43.89974" lon="2.47579">
        <ele>415</ele>
        <time>2019-11-07T06:23:28Z</time>
      </trkpt>
      <trkpt lat="43.89925" lon="2.47565">
        <ele>424</ele>
        <time>2019-11-07T06:24:08Z</time>
      </trkpt>
      <trkpt lat="43.89911" lon="2.47558">
        <ele>425</ele>
        <time>2019-11-07T06:24:20Z</time>
      </trkpt>
      <trkpt lat="43.89887" lon="2.47551">
        <ele>426</ele>
        <time>2019-11-07T06:24:40Z</time>
      </trkpt>
      <trkpt lat="43.89876" lon="2.47544">
        <ele>426</ele>
        <time>2019-11-07T06:24:50Z</time>
      </trkpt>
      <trkpt lat="43.89871" lon="2.47534">
        <ele>426</ele>
        <time>2019-11-07T06:24:57Z</time>
      </trkpt>
      <trkpt lat="43.89882" lon="2.47519">
        <ele>423</ele>
        <time>2019-11-07T06:25:09Z</time>
      </trkpt>
      <trkpt lat="43.89892" lon="2.47517">
        <ele>423</ele>
        <time>2019-11-07T06:25:17Z</time>
      </trkpt>
      <trkpt lat="43.89905" lon="2.4751">
        <ele>422</ele>
        <time>2019-11-07T06:25:28Z</time>
      </trkpt>
      <trkpt lat="43.89918" lon="2.4751">
        <ele>421</ele>
        <time>2019-11-07T06:25:39Z</time>
      </trkpt>
      <trkpt lat="43.89924" lon="2.47505">
        <ele>421</ele>
        <time>2019-11-07T06:25:44Z</time>
      </trkpt>
      <trkpt lat="43.89921" lon="2.47492">
        <ele>423</ele>
        <time>2019-11-07T06:25:52Z</time>
      </trkpt>
      <trkpt lat="43.89901" lon="2.47487">
        <ele>424</ele>
        <time>2019-11-07T06:26:08Z</time>
      </trkpt>
      <trkpt lat="43.89898" lon="2.47482">
        <ele>425</ele>
        <time>2019-11-07T06:26:12Z</time>
      </trkpt>
      <trkpt lat="43.89908" lon="2.47473">
        <ele>427</ele>
        <time>2019-11-07T06:26:22Z</time>
      </trkpt>
      <trkpt lat="43.89922" lon="2.4747">
        <ele>428</ele>
        <time>2019-11-07T06:26:33Z</time>
      </trkpt>
      <trkpt lat="43.89933" lon="2.47459">
        <ele>430</ele>
        <time>2019-11-07T06:26:44Z</time>
      </trkpt>
      <trkpt lat="43.89942" lon="2.47455">
        <ele>431</ele>
        <time>2019-11-07T06:26:51Z</time>
      </trkpt>
      <trkpt lat="43.89948" lon="2.47446">
        <ele>434</ele>
        <time>2019-11-07T06:26:58Z</time>
      </trkpt>
      <trkpt lat="43.89897" lon="2.47435">
        <ele>435</ele>
        <time>2019-11-07T06:27:40Z</time>
      </trkpt>
      <trkpt lat="43.89853" lon="2.47417">
        <ele>437</ele>
        <time>2019-11-07T06:28:17Z</time>
      </trkpt>
      <trkpt lat="43.89796" lon="2.47357">
        <ele>450</ele>
        <time>2019-11-07T06:29:14Z</time>
      </trkpt>
      <trkpt lat="43.8979" lon="2.47346">
        <ele>452</ele>
        <time>2019-11-07T06:29:22Z</time>
      </trkpt>
      <trkpt lat="43.89795" lon="2.47338">
        <ele>454</ele>
        <time>2019-11-07T06:29:28Z</time>
      </trkpt>
      <trkpt lat="43.89817" lon="2.47339">
        <ele>455</ele>
        <time>2019-11-07T06:29:46Z</time>
      </trkpt>
      <trkpt lat="43.89836" lon="2.47329">
        <ele>459</ele>
        <time>2019-11-07T06:30:02Z</time>
      </trkpt>
      <trkpt lat="43.89874" lon="2.47285">
        <ele>474</ele>
        <time>2019-11-07T06:30:41Z</time>
      </trkpt>
      <trkpt lat="43.89888" lon="2.47278">
        <ele>476</ele>
        <time>2019-11-07T06:30:53Z</time>
      </trkpt>
      <trkpt lat="43.89902" lon="2.47281">
        <ele>476</ele>
        <time>2019-11-07T06:31:05Z</time>
      </trkpt>
      <trkpt lat="43.8992" lon="2.47297">
        <ele>473</ele>
        <time>2019-11-07T06:31:22Z</time>
      </trkpt>
      <trkpt lat="43.89932" lon="2.47283">
        <ele>478</ele>
        <time>2019-11-07T06:31:34Z</time>
      </trkpt>
      <trkpt lat="43.89935" lon="2.47287">
        <ele>477</ele>
        <time>2019-11-07T06:31:38Z</time>
      </trkpt>
      <trkpt lat="43.89949" lon="2.4729">
        <ele>478</ele>
        <time>2019-11-07T06:31:49Z</time>
      </trkpt>
      <trkpt lat="43.89957" lon="2.47286">
        <ele>481</ele>
        <time>2019-11-07T06:31:56Z</time>
      </trkpt>
      <trkpt lat="43.89962" lon="2.47278">
        <ele>483</ele>
        <time>2019-11-07T06:32:02Z</time>
      </trkpt>
      <trkpt lat="43.89982" lon="2.47266">
        <ele>489</ele>
        <time>2019-11-07T06:32:19Z</time>
      </trkpt>
      <trkpt lat="43.90011" lon="2.47273">
        <ele>489</ele>
        <time>2019-11-07T06:32:43Z</time>
      </trkpt>
      <trkpt lat="43.90016" lon="2.47264">
        <ele>492</ele>
        <time>2019-11-07T06:32:49Z</time>
      </trkpt>
      <trkpt lat="43.8996" lon="2.47217">
        <ele>502</ele>
        <time>2019-11-07T06:33:42Z</time>
      </trkpt>
      <trkpt lat="43.8992" lon="2.47195">
        <ele>506</ele>
        <time>2019-11-07T06:34:16Z</time>
      </trkpt>
      <trkpt lat="43.89884" lon="2.47181">
        <ele>513</ele>
        <time>2019-11-07T06:34:46Z</time>
      </trkpt>
      <trkpt lat="43.89842" lon="2.47176">
        <ele>517</ele>
        <time>2019-11-07T06:35:20Z</time>
      </trkpt>
      <trkpt lat="43.89826" lon="2.47167">
        <ele>522</ele>
        <time>2019-11-07T06:35:34Z</time>
      </trkpt>
      <trkpt lat="43.89827" lon="2.4716">
        <ele>525</ele>
        <time>2019-11-07T06:35:38Z</time>
      </trkpt>
      <trkpt lat="43.8986" lon="2.47132">
        <ele>532</ele>
        <time>2019-11-07T06:36:09Z</time>
      </trkpt>
      <trkpt lat="43.89897" lon="2.47115">
        <ele>535</ele>
        <time>2019-11-07T06:36:40Z</time>
      </trkpt>
      <trkpt lat="43.8992" lon="2.47116">
        <ele>533</ele>
        <time>2019-11-07T06:36:59Z</time>
      </trkpt>
      <trkpt lat="43.89949" lon="2.47122">
        <ele>529</ele>
        <time>2019-11-07T06:37:22Z</time>
      </trkpt>
      <trkpt lat="43.89963" lon="2.4713">
        <ele>526</ele>
        <time>2019-11-07T06:37:34Z</time>
      </trkpt>
      <trkpt lat="43.89971" lon="2.47126">
        <ele>526</ele>
        <time>2019-11-07T06:37:41Z</time>
      </trkpt>
      <trkpt lat="43.89971" lon="2.47118">
        <ele>528</ele>
        <time>2019-11-07T06:37:46Z</time>
      </trkpt>
      <trkpt lat="43.89952" lon="2.47062">
        <ele>536</ele>
        <time>2019-11-07T06:38:21Z</time>
      </trkpt>
      <trkpt lat="43.89929" lon="2.47027">
        <ele>542</ele>
        <time>2019-11-07T06:38:49Z</time>
      </trkpt>
      <trkpt lat="43.89901" lon="2.46999">
        <ele>549</ele>
        <time>2019-11-07T06:39:16Z</time>
      </trkpt>
      <trkpt lat="43.8985" lon="2.46972">
        <ele>557</ele>
        <time>2019-11-07T06:40:00Z</time>
      </trkpt>
      <trkpt lat="43.89815" lon="2.46943">
        <ele>561</ele>
        <time>2019-11-07T06:40:33Z</time>
      </trkpt>
      <trkpt lat="43.89763" lon="2.46877">
        <ele>570</ele>
        <time>2019-11-07T06:41:29Z</time>
      </trkpt>
      <trkpt lat="43.89731" lon="2.46825">
        <ele>576</ele>
        <time>2019-11-07T06:42:08Z</time>
      </trkpt>
      <trkpt lat="43.89717" lon="2.46812">
        <ele>578</ele>
        <time>2019-11-07T06:42:22Z</time>
      </trkpt>
      <trkpt lat="43.89632" lon="2.46767">
        <ele>587</ele>
        <time>2019-11-07T06:43:35Z</time>
      </trkpt>
      <trkpt lat="43.89596" lon="2.46758">
        <ele>591</ele>
        <time>2019-11-07T06:44:04Z</time>
      </trkpt>
      <trkpt lat="43.89526" lon="2.46728">
        <ele>595</ele>
        <time>2019-11-07T06:45:03Z</time>
      </trkpt>
      <trkpt lat="43.89495" lon="2.46721">
        <ele>598</ele>
        <time>2019-11-07T06:45:28Z</time>
      </trkpt>
      <trkpt lat="43.89454" lon="2.46708">
        <ele>600</ele>
        <time>2019-11-07T06:46:02Z</time>
      </trkpt>
      <trkpt lat="43.89443" lon="2.46701">
        <ele>601</ele>
        <time>2019-11-07T06:46:11Z</time>
      </trkpt>
      <trkpt lat="43.89423" lon="2.46681">
        <ele>602</ele>
        <time>2019-11-07T06:46:31Z</time>
      </trkpt>
      <trkpt lat="43.89417" lon="2.46669">
        <ele>603</ele>
        <time>2019-11-07T06:46:39Z</time>
      </trkpt>
      <trkpt lat="43.8939" lon="2.46584">
        <ele>604</ele>
        <time>2019-11-07T06:47:33Z</time>
      </trkpt>
      <trkpt lat="43.89369" lon="2.4653">
        <ele>604</ele>
        <time>2019-11-07T06:48:08Z</time>
      </trkpt>
      <trkpt lat="43.8936" lon="2.46475">
        <ele>604</ele>
        <time>2019-11-07T06:48:41Z</time>
      </trkpt>
      <trkpt lat="43.89357" lon="2.46435">
        <ele>605</ele>
        <time>2019-11-07T06:49:04Z</time>
      </trkpt>
      <trkpt lat="43.89333" lon="2.46374">
        <ele>608</ele>
        <time>2019-11-07T06:49:44Z</time>
      </trkpt>
      <trkpt lat="43.89281" lon="2.46203">
        <ele>611</ele>
        <time>2019-11-07T06:51:31Z</time>
      </trkpt>
      <trkpt lat="43.89259" lon="2.46142">
        <ele>613</ele>
        <time>2019-11-07T06:52:11Z</time>
      </trkpt>
      <trkpt lat="43.89225" lon="2.4614">
        <ele>614</ele>
        <time>2019-11-07T06:52:38Z</time>
      </trkpt>
      <trkpt lat="43.89203" lon="2.46134">
        <ele>615</ele>
        <time>2019-11-07T06:52:56Z</time>
      </trkpt>
      <trkpt lat="43.89177" lon="2.4612">
        <ele>616</ele>
        <time>2019-11-07T06:53:18Z</time>
      </trkpt>
      <trkpt lat="43.89141" lon="2.46095">
        <ele>616</ele>
        <time>2019-11-07T06:53:51Z</time>
      </trkpt>
      <trkpt lat="43.89108" lon="2.46076">
        <ele>615</ele>
        <time>2019-11-07T06:54:19Z</time>
      </trkpt>
      <trkpt lat="43.88981" lon="2.46042">
        <ele>615</ele>
        <time>2019-11-07T06:56:03Z</time>
      </trkpt>
      <trkpt lat="43.88926" lon="2.46032">
        <ele>616</ele>
        <time>2019-11-07T06:56:47Z</time>
      </trkpt>
      <trkpt lat="43.8891" lon="2.46034">
        <ele>616</ele>
        <time>2019-11-07T06:57:00Z</time>
      </trkpt>
      <trkpt lat="43.88903" lon="2.46036">
        <ele>616</ele>
        <time>2019-11-07T06:57:06Z</time>
      </trkpt>
      <trkpt lat="43.88863" lon="2.46064">
        <ele>616</ele>
        <time>2019-11-07T06:57:42Z</time>
      </trkpt>
      <trkpt lat="43.88852" lon="2.4608">
        <ele>616</ele>
        <time>2019-11-07T06:57:54Z</time>
      </trkpt>
      <trkpt lat="43.88841" lon="2.461">
        <ele>616</ele>
        <time>2019-11-07T06:58:09Z</time>
      </trkpt>
      <trkpt lat="43.88829" lon="2.46132">
        <ele>615</ele>
        <time>2019-11-07T06:58:30Z</time>
      </trkpt>
      <trkpt lat="43.88821" lon="2.46183">
        <ele>613</ele>
        <time>2019-11-07T06:59:00Z</time>
      </trkpt>
      <trkpt lat="43.88811" lon="2.46219">
        <ele>612</ele>
        <time>2019-11-07T06:59:22Z</time>
      </trkpt>
      <trkpt lat="43.88776" lon="2.46263">
        <ele>614</ele>
        <time>2019-11-07T07:00:00Z</time>
      </trkpt>
      <trkpt lat="43.88725" lon="2.46236">
        <ele>615</ele>
        <time>2019-11-07T07:00:44Z</time>
      </trkpt>
      <trkpt lat="43.88681" lon="2.462">
        <ele>610</ele>
        <time>2019-11-07T07:01:24Z</time>
      </trkpt>
      <trkpt lat="43.88658" lon="2.46177">
        <ele>607</ele>
        <time>2019-11-07T07:01:47Z</time>
      </trkpt>
      <trkpt lat="43.88606" lon="2.46174">
        <ele>601</ele>
        <time>2019-11-07T07:02:29Z</time>
      </trkpt>
      <trkpt lat="43.88567" lon="2.46176">
        <ele>600</ele>
        <time>2019-11-07T07:03:00Z</time>
      </trkpt>
      <trkpt lat="43.88533" lon="2.46148">
        <ele>598</ele>
        <time>2019-11-07T07:03:32Z</time>
      </trkpt>
      <trkpt lat="43.88488" lon="2.46106">
        <ele>596</ele>
        <time>2019-11-07T07:04:15Z</time>
      </trkpt>
      <trkpt lat="43.88475" lon="2.4609">
        <ele>596</ele>
        <time>2019-11-07T07:04:29Z</time>
      </trkpt>
      <trkpt lat="43.88436" lon="2.46016">
        <ele>597</ele>
        <time>2019-11-07T07:05:22Z</time>
      </trkpt>
      <trkpt lat="43.88406" lon="2.45978">
        <ele>597</ele>
        <time>2019-11-07T07:05:54Z</time>
      </trkpt>
      <trkpt lat="43.88399" lon="2.45973">
        <ele>597</ele>
        <time>2019-11-07T07:06:01Z</time>
      </trkpt>
      <trkpt lat="43.88336" lon="2.45973">
        <ele>599</ele>
        <time>2019-11-07T07:06:51Z</time>
      </trkpt>
      <trkpt lat="43.88316" lon="2.45971">
        <ele>600</ele>
        <time>2019-11-07T07:07:07Z</time>
      </trkpt>
      <trkpt lat="43.88291" lon="2.45968">
        <ele>601</ele>
        <time>2019-11-07T07:07:27Z</time>
      </trkpt>
      <trkpt lat="43.88136" lon="2.45937">
        <ele>610</ele>
        <time>2019-11-07T07:09:33Z</time>
      </trkpt>
      <trkpt lat="43.88126" lon="2.45936">
        <ele>611</ele>
        <time>2019-11-07T07:09:41Z</time>
      </trkpt>
      <trkpt lat="43.88118" lon="2.45942">
        <ele>610</ele>
        <time>2019-11-07T07:09:48Z</time>
      </trkpt>
      <trkpt lat="43.88083" lon="2.45925">
        <ele>613</ele>
        <time>2019-11-07T07:10:18Z</time>
      </trkpt>
      <trkpt lat="43.88014" lon="2.45918">
        <ele>619</ele>
        <time>2019-11-07T07:11:13Z</time>
      </trkpt>
      <trkpt lat="43.87982" lon="2.45908">
        <ele>621</ele>
        <time>2019-11-07T07:11:39Z</time>
      </trkpt>
      <trkpt lat="43.87931" lon="2.45881">
        <ele>622</ele>
        <time>2019-11-07T07:12:23Z</time>
      </trkpt>
      <trkpt lat="43.8791" lon="2.45859">
        <ele>622</ele>
        <time>2019-11-07T07:12:44Z</time>
      </trkpt>
      <trkpt lat="43.87895" lon="2.45835">
        <ele>622</ele>
        <time>2019-11-07T07:13:03Z</time>
      </trkpt>
      <trkpt lat="43.87837" lon="2.45698">
        <ele>613</ele>
        <time>2019-11-07T07:14:34Z</time>
      </trkpt>
      <trkpt lat="43.8782" lon="2.45662">
        <ele>610</ele>
        <time>2019-11-07T07:14:59Z</time>
      </trkpt>
      <trkpt lat="43.87798" lon="2.45626">
        <ele>608</ele>
        <time>2019-11-07T07:15:26Z</time>
      </trkpt>
      <trkpt lat="43.87769" lon="2.45589">
        <ele>607</ele>
        <time>2019-11-07T07:15:58Z</time>
      </trkpt>
      <trkpt lat="43.87755" lon="2.45578">
        <ele>607</ele>
        <time>2019-11-07T07:16:11Z</time>
      </trkpt>
      <trkpt lat="43.87738" lon="2.4557">
        <ele>607</ele>
        <time>2019-11-07T07:16:25Z</time>
      </trkpt>
      <trkpt lat="43.87737" lon="2.45555">
        <ele>606</ele>
        <time>2019-11-07T07:16:34Z</time>
      </trkpt>
      <trkpt lat="43.8771" lon="2.45507">
        <ele>605</ele>
        <time>2019-11-07T07:17:09Z</time>
      </trkpt>
      <trkpt lat="43.87689" lon="2.45458">
        <ele>605</ele>
        <time>2019-11-07T07:17:42Z</time>
      </trkpt>
      <trkpt lat="43.87613" lon="2.45327">
        <ele>612</ele>
        <time>2019-11-07T07:19:19Z</time>
      </trkpt>
      <trkpt lat="43.87523" lon="2.45145">
        <ele>605</ele>
        <time>2019-11-07T07:21:26Z</time>
      </trkpt>
      <trkpt lat="43.87509" lon="2.45108">
        <ele>603</ele>
        <time>2019-11-07T07:21:50Z</time>
      </trkpt>
      <trkpt lat="43.87438" lon="2.44999">
        <ele>588</ele>
        <time>2019-11-07T07:23:15Z</time>
      </trkpt>
      <trkpt lat="43.87422" lon="2.44977">
        <ele>586</ele>
        <time>2019-11-07T07:23:33Z</time>
      </trkpt>
      <trkpt lat="43.87407" lon="2.44967">
        <ele>585</ele>
        <time>2019-11-07T07:23:47Z</time>
      </trkpt>
      <trkpt lat="43.87398" lon="2.44964">
        <ele>583</ele>
        <time>2019-11-07T07:23:54Z</time>
      </trkpt>
      <trkpt lat="43.87379" lon="2.44963">
        <ele>581</ele>
        <time>2019-11-07T07:24:09Z</time>
      </trkpt>
      <trkpt lat="43.87349" lon="2.44975">
        <ele>580</ele>
        <time>2019-11-07T07:24:34Z</time>
      </trkpt>
      <trkpt lat="43.87309" lon="2.4498">
        <ele>574</ele>
        <time>2019-11-07T07:25:06Z</time>
      </trkpt>
      <trkpt lat="43.8728" lon="2.44983">
        <ele>569</ele>
        <time>2019-11-07T07:25:30Z</time>
      </trkpt>
      <trkpt lat="43.87199" lon="2.44985">
        <ele>557</ele>
        <time>2019-11-07T07:26:34Z</time>
      </trkpt>
      <trkpt lat="43.87139" lon="2.44997">
        <ele>550</ele>
        <time>2019-11-07T07:27:23Z</time>
      </trkpt>
      <trkpt lat="43.87122" lon="2.45004">
        <ele>548</ele>
        <time>2019-11-07T07:27:37Z</time>
      </trkpt>
      <trkpt lat="43.87102" lon="2.45021">
        <ele>546</ele>
        <time>2019-11-07T07:27:56Z</time>
      </trkpt>
      <trkpt lat="43.87077" lon="2.45061">
        <ele>543</ele>
        <time>2019-11-07T07:28:27Z</time>
      </trkpt>
      <trkpt lat="43.87063" lon="2.45089">
        <ele>540</ele>
        <time>2019-11-07T07:28:46Z</time>
      </trkpt>
      <trkpt lat="43.87058" lon="2.45117">
        <ele>539</ele>
        <time>2019-11-07T07:29:03Z</time>
      </trkpt>
      <trkpt lat="43.87056" lon="2.45153">
        <ele>539</ele>
        <time>2019-11-07T07:29:24Z</time>
      </trkpt>
      <trkpt lat="43.87053" lon="2.45161">
        <ele>539</ele>
        <time>2019-11-07T07:29:29Z</time>
      </trkpt>
      <trkpt lat="43.8705" lon="2.45155">
        <ele>537</ele>
        <time>2019-11-07T07:29:33Z</time>
      </trkpt>
      <trkpt lat="43.87047" lon="2.45155">
        <ele>536</ele>
        <time>2019-11-07T07:29:36Z</time>
      </trkpt>
      <trkpt lat="43.87015" lon="2.45049">
        <ele>524</ele>
        <time>2019-11-07T07:30:42Z</time>
      </trkpt>
      <trkpt lat="43.87003" lon="2.45025">
        <ele>521</ele>
        <time>2019-11-07T07:30:59Z</time>
      </trkpt>
      <trkpt lat="43.86992" lon="2.44986">
        <ele>518</ele>
        <time>2019-11-07T07:31:23Z</time>
      </trkpt>
      <trkpt lat="43.86988" lon="2.44906">
        <ele>513</ele>
        <time>2019-11-07T07:32:09Z</time>
      </trkpt>
      <trkpt lat="43.86994" lon="2.44829">
        <ele>508</ele>
        <time>2019-11-07T07:32:54Z</time>
      </trkpt>
      <trkpt lat="43.87" lon="2.4482">
        <ele>507</ele>
        <time>2019-11-07T07:33:01Z</time>
      </trkpt>
      <trkpt lat="43.87004" lon="2.44819">
        <ele>507</ele>
        <time>2019-11-07T07:33:04Z</time>
      </trkpt>
      <trkpt lat="43.87032" lon="2.44818">
        <ele>510</ele>
        <time>2019-11-07T07:33:27Z</time>
      </trkpt>
      <trkpt lat="43.87132" lon="2.44804">
        <ele>512</ele>
        <time>2019-11-07T07:34:47Z</time>
      </trkpt>
      <trkpt lat="43.87162" lon="2.44795">
        <ele>511</ele>
        <time>2019-11-07T07:35:12Z</time>
      </trkpt>
      <trkpt lat="43.87186" lon="2.44779">
        <ele>514</ele>
        <time>2019-11-07T07:35:33Z</time>
      </trkpt>
      <trkpt lat="43.87201" lon="2.44746">
        <ele>514</ele>
        <time>2019-11-07T07:35:56Z</time>
      </trkpt>
      <trkpt lat="43.87209" lon="2.44719">
        <ele>515</ele>
        <time>2019-11-07T07:36:12Z</time>
      </trkpt>
      <trkpt lat="43.87209" lon="2.44693">
        <ele>514</ele>
        <time>2019-11-07T07:36:27Z</time>
      </trkpt>
      <trkpt lat="43.87199" lon="2.44668">
        <ele>510</ele>
        <time>2019-11-07T07:36:44Z</time>
      </trkpt>
      <trkpt lat="43.8717" lon="2.44616">
        <ele>501</ele>
        <time>2019-11-07T07:37:22Z</time>
      </trkpt>
      <trkpt lat="43.87168" lon="2.44543">
        <ele>503</ele>
        <time>2019-11-07T07:38:04Z</time>
      </trkpt>
      <trkpt lat="43.8714" lon="2.44519">
        <ele>501</ele>
        <time>2019-11-07T07:38:30Z</time>
      </trkpt>
      <trkpt lat="43.87128" lon="2.44503">
        <ele>500</ele>
        <time>2019-11-07T07:38:44Z</time>
      </trkpt>
      <trkpt lat="43.87112" lon="2.44466">
        <ele>500</ele>
        <time>2019-11-07T07:39:09Z</time>
      </trkpt>
      <trkpt lat="43.87107" lon="2.44448">
        <ele>500</ele>
        <time>2019-11-07T07:39:20Z</time>
      </trkpt>
      <trkpt lat="43.87107" lon="2.44432">
        <ele>501</ele>
        <time>2019-11-07T07:39:29Z</time>
      </trkpt>
      <trkpt lat="43.87127" lon="2.44451">
        <ele>505</ele>
        <time>2019-11-07T07:39:48Z</time>
      </trkpt>
      <trkpt lat="43.87147" lon="2.44464">
        <ele>507</ele>
        <time>2019-11-07T07:40:06Z</time>
      </trkpt>
      <trkpt lat="43.87159" lon="2.44461">
        <ele>510</ele>
        <time>2019-11-07T07:40:16Z</time>
      </trkpt>
      <trkpt lat="43.8716" lon="2.44427">
        <ele>515</ele>
        <time>2019-11-07T07:40:35Z</time>
      </trkpt>
      <trkpt lat="43.87186" lon="2.44386">
        <ele>523</ele>
        <time>2019-11-07T07:41:07Z</time>
      </trkpt>
      <trkpt lat="43.87196" lon="2.44377">
        <ele>526</ele>
        <time>2019-11-07T07:41:17Z</time>
      </trkpt>
      <trkpt lat="43.87201" lon="2.44425">
        <ele>528</ele>
        <time>2019-11-07T07:41:45Z</time>
      </trkpt>
      <trkpt lat="43.87231" lon="2.44371">
        <ele>539</ele>
        <time>2019-11-07T07:42:24Z</time>
      </trkpt>
      <trkpt lat="43.87255" lon="2.44348">
        <ele>548</ele>
        <time>2019-11-07T07:42:47Z</time>
      </trkpt>
      <trkpt lat="43.87266" lon="2.44343">
        <ele>552</ele>
        <time>2019-11-07T07:42:57Z</time>
      </trkpt>
      <trkpt lat="43.87271" lon="2.44345">
        <ele>554</ele>
        <time>2019-11-07T07:43:01Z</time>
      </trkpt>
      <trkpt lat="43.87283" lon="2.44378">
        <ele>556</ele>
        <time>2019-11-07T07:43:22Z</time>
      </trkpt>
      <trkpt lat="43.87294" lon="2.44382">
        <ele>560</ele>
        <time>2019-11-07T07:43:31Z</time>
      </trkpt>
      <trkpt lat="43.87298" lon="2.44379">
        <ele>561</ele>
        <time>2019-11-07T07:43:35Z</time>
      </trkpt>
      <trkpt lat="43.873" lon="2.44358">
        <ele>563</ele>
        <time>2019-11-07T07:43:47Z</time>
      </trkpt>
      <trkpt lat="43.87304" lon="2.44346">
        <ele>565</ele>
        <time>2019-11-07T07:43:55Z</time>
      </trkpt>
      <trkpt lat="43.87333" lon="2.44309">
        <ele>574</ele>
        <time>2019-11-07T07:44:26Z</time>
      </trkpt>
      <trkpt lat="43.87354" lon="2.44268">
        <ele>579</ele>
        <time>2019-11-07T07:44:55Z</time>
      </trkpt>
      <trkpt lat="43.87373" lon="2.4414">
        <ele>589</ele>
        <time>2019-11-07T07:46:11Z</time>
      </trkpt>
      <trkpt lat="43.87399" lon="2.44082">
        <ele>600</ele>
        <time>2019-11-07T07:46:50Z</time>
      </trkpt>
      <trkpt lat="43.87397" lon="2.4407">
        <ele>600</ele>
        <time>2019-11-07T07:46:57Z</time>
      </trkpt>
      <trkpt lat="43.87413" lon="2.44026">
        <ele>605</ele>
        <time>2019-11-07T07:47:26Z</time>
      </trkpt>
      <trkpt lat="43.87416" lon="2.44011">
        <ele>606</ele>
        <time>2019-11-07T07:47:35Z</time>
      </trkpt>
      <trkpt lat="43.87432" lon="2.43972">
        <ele>610</ele>
        <time>2019-11-07T07:48:00Z</time>
      </trkpt>
      <trkpt lat="43.87449" lon="2.43917">
        <ele>615</ele>
        <time>2019-11-07T07:48:35Z</time>
      </trkpt>
      <trkpt lat="43.87482" lon="2.4379">
        <ele>623</ele>
        <time>2019-11-07T07:49:53Z</time>
      </trkpt>
      <trkpt lat="43.87496" lon="2.43683">
        <ele>627</ele>
        <time>2019-11-07T07:50:56Z</time>
      </trkpt>
      <trkpt lat="43.87483" lon="2.43685">
        <ele>627</ele>
        <time>2019-11-07T07:51:06Z</time>
      </trkpt>
      <trkpt lat="43.8747" lon="2.43698">
        <ele>628</ele>
        <time>2019-11-07T07:51:19Z</time>
      </trkpt>
      <trkpt lat="43.87424" lon="2.43809">
        <ele>623</ele>
        <time>2019-11-07T07:52:33Z</time>
      </trkpt>
      <trkpt lat="43.87404" lon="2.43838">
        <ele>621</ele>
        <time>2019-11-07T07:52:56Z</time>
      </trkpt>
      <trkpt lat="43.87387" lon="2.43854">
        <ele>620</ele>
        <time>2019-11-07T07:53:13Z</time>
      </trkpt>
      <trkpt lat="43.8737" lon="2.43865">
        <ele>620</ele>
        <time>2019-11-07T07:53:28Z</time>
      </trkpt>
      <trkpt lat="43.87353" lon="2.43869">
        <ele>621</ele>
        <time>2019-11-07T07:53:41Z</time>
      </trkpt>
      <trkpt lat="43.87337" lon="2.43867">
        <ele>622</ele>
        <time>2019-11-07T07:53:54Z</time>
      </trkpt>
      <trkpt lat="43.87244" lon="2.43817">
        <ele>616</ele>
        <time>2019-11-07T07:55:14Z</time>
      </trkpt>
      <trkpt lat="43.87208" lon="2.43795">
        <ele>613</ele>
        <time>2019-11-07T07:55:46Z</time>
      </trkpt>
      <trkpt lat="43.87181" lon="2.43763">
        <ele>613</ele>
        <time>2019-11-07T07:56:14Z</time>
      </trkpt>
      <trkpt lat="43.87146" lon="2.43699">
        <ele>612</ele>
        <time>2019-11-07T07:57:00Z</time>
      </trkpt>
      <trkpt lat="43.87139" lon="2.4369">
        <ele>611</ele>
        <time>2019-11-07T07:57:08Z</time>
      </trkpt>
      <trkpt lat="43.87126" lon="2.43677">
        <ele>610</ele>
        <time>2019-11-07T07:57:21Z</time>
      </trkpt>
      <trkpt lat="43.8708" lon="2.43648">
        <ele>606</ele>
        <time>2019-11-07T07:58:01Z</time>
      </trkpt>
      <trkpt lat="43.87001" lon="2.43561">
        <ele>601</ele>
        <time>2019-11-07T07:59:22Z</time>
      </trkpt>
      <trkpt lat="43.86978" lon="2.43548">
        <ele>601</ele>
        <time>2019-11-07T07:59:42Z</time>
      </trkpt>
      <trkpt lat="43.8697" lon="2.43549">
        <ele>601</ele>
        <time>2019-11-07T07:59:48Z</time>
      </trkpt>
      <trkpt lat="43.86956" lon="2.43534">
        <ele>602</ele>
        <time>2019-11-07T08:00:03Z</time>
      </trkpt>
      <trkpt lat="43.86945" lon="2.43531">
        <ele>602</ele>
        <time>2019-11-07T08:00:12Z</time>
      </trkpt>
      <trkpt lat="43.86892" lon="2.43528">
        <ele>601</ele>
        <time>2019-11-07T08:00:54Z</time>
      </trkpt>
      <trkpt lat="43.86879" lon="2.43524">
        <ele>601</ele>
        <time>2019-11-07T08:01:05Z</time>
      </trkpt>
      <trkpt lat="43.86866" lon="2.43512">
        <ele>601</ele>
        <time>2019-11-07T08:01:17Z</time>
      </trkpt>
      <trkpt lat="43.86908" lon="2.43482">
        <ele>604</ele>
        <time>2019-11-07T08:01:55Z</time>
      </trkpt>
      <trkpt lat="43.86949" lon="2.43457">
        <ele>607</ele>
        <time>2019-11-07T08:02:31Z</time>
      </trkpt>
      <trkpt lat="43.86974" lon="2.43442">
        <ele>609</ele>
        <time>2019-11-07T08:02:53Z</time>
      </trkpt>
      <trkpt lat="43.86991" lon="2.43437">
        <ele>610</ele>
        <time>2019-11-07T08:03:07Z</time>
      </trkpt>
      <trkpt lat="43.87016" lon="2.43436">
        <ele>611</ele>
        <time>2019-11-07T08:03:27Z</time>
      </trkpt>
      <trkpt lat="43.87062" lon="2.43444">
        <ele>614</ele>
        <time>2019-11-07T08:04:04Z</time>
      </trkpt>
      <trkpt lat="43.87092" lon="2.43443">
        <ele>615</ele>
        <time>2019-11-07T08:04:28Z</time>
      </trkpt>
      <trkpt lat="43.87142" lon="2.43456">
        <ele>617</ele>
        <time>2019-11-07T08:05:08Z</time>
      </trkpt>
      <trkpt lat="43.8715" lon="2.43455">
        <ele>617</ele>
        <time>2019-11-07T08:05:15Z</time>
      </trkpt>
      <trkpt lat="43.87022" lon="2.43238">
        <ele>612</ele>
        <time>2019-11-07T08:07:57Z</time>
      </trkpt>
      <trkpt lat="43.87013" lon="2.43219">
        <ele>612</ele>
        <time>2019-11-07T08:08:10Z</time>
      </trkpt>
      <trkpt lat="43.86984" lon="2.43102">
        <ele>617</ele>
        <time>2019-11-07T08:09:21Z</time>
      </trkpt>
      <trkpt lat="43.86972" lon="2.43065">
        <ele>619</ele>
        <time>2019-11-07T08:09:45Z</time>
      </trkpt>
      <trkpt lat="43.86924" lon="2.4297">
        <ele>623</ele>
        <time>2019-11-07T08:10:52Z</time>
      </trkpt>
      <trkpt lat="43.869" lon="2.42929">
        <ele>623</ele>
        <time>2019-11-07T08:11:22Z</time>
      </trkpt>
      <trkpt lat="43.86874" lon="2.42899">
        <ele>623</ele>
        <time>2019-11-07T08:11:49Z</time>
      </trkpt>
      <trkpt lat="43.86819" lon="2.42857">
        <ele>621</ele>
        <time>2019-11-07T08:12:39Z</time>
      </trkpt>
      <trkpt lat="43.86763" lon="2.4283">
        <ele>618</ele>
        <time>2019-11-07T08:13:27Z</time>
      </trkpt>
      <trkpt lat="43.86725" lon="2.42825">
        <ele>616</ele>
        <time>2019-11-07T08:13:58Z</time>
      </trkpt>
      <trkpt lat="43.86703" lon="2.42818">
        <ele>615</ele>
        <time>2019-11-07T08:14:16Z</time>
      </trkpt>
      <trkpt lat="43.8667" lon="2.42793">
        <ele>613</ele>
        <time>2019-11-07T08:14:46Z</time>
      </trkpt>
      <trkpt lat="43.86662" lon="2.42782">
        <ele>612</ele>
        <time>2019-11-07T08:14:55Z</time>
      </trkpt>
      <trkpt lat="43.86652" lon="2.42761">
        <ele>611</ele>
        <time>2019-11-07T08:15:09Z</time>
      </trkpt>
      <trkpt lat="43.86633" lon="2.42712">
        <ele>610</ele>
        <time>2019-11-07T08:15:41Z</time>
      </trkpt>
      <trkpt lat="43.86619" lon="2.42683">
        <ele>610</ele>
        <time>2019-11-07T08:16:02Z</time>
      </trkpt>
      <trkpt lat="43.86536" lon="2.42528">
        <ele>599</ele>
        <time>2019-11-07T08:17:53Z</time>
      </trkpt>
      <trkpt lat="43.86461" lon="2.42437">
        <ele>596</ele>
        <time>2019-11-07T08:19:13Z</time>
      </trkpt>
      <trkpt lat="43.86448" lon="2.42431">
        <ele>595</ele>
        <time>2019-11-07T08:19:24Z</time>
      </trkpt>
      <trkpt lat="43.86398" lon="2.42435">
        <ele>593</ele>
        <time>2019-11-07T08:20:04Z</time>
      </trkpt>
      <trkpt lat="43.86369" lon="2.42432">
        <ele>593</ele>
        <time>2019-11-07T08:20:27Z</time>
      </trkpt>
      <trkpt lat="43.86359" lon="2.42402">
        <ele>592</ele>
        <time>2019-11-07T08:20:46Z</time>
      </trkpt>
      <trkpt lat="43.86363" lon="2.42365">
        <ele>590</ele>
        <time>2019-11-07T08:21:08Z</time>
      </trkpt>
      <trkpt lat="43.86361" lon="2.42346">
        <ele>589</ele>
        <time>2019-11-07T08:21:19Z</time>
      </trkpt>
      <trkpt lat="43.86356" lon="2.42342">
        <ele>589</ele>
        <time>2019-11-07T08:21:23Z</time>
      </trkpt>
      <trkpt lat="43.86357" lon="2.42326">
        <ele>588</ele>
        <time>2019-11-07T08:21:33Z</time>
      </trkpt>
      <trkpt lat="43.8635" lon="2.42295">
        <ele>585</ele>
        <time>2019-11-07T08:21:52Z</time>
      </trkpt>
      <trkpt lat="43.86333" lon="2.42263">
        <ele>582</ele>
        <time>2019-11-07T08:22:14Z</time>
      </trkpt>
      <trkpt lat="43.86279" lon="2.42186">
        <ele>573</ele>
        <time>2019-11-07T08:23:16Z</time>
      </trkpt>
      <trkpt lat="43.86271" lon="2.42162">
        <ele>572</ele>
        <time>2019-11-07T08:23:32Z</time>
      </trkpt>
      <trkpt lat="43.86201" lon="2.42">
        <ele>556</ele>
        <time>2019-11-07T08:25:21Z</time>
      </trkpt>
      <trkpt lat="43.86178" lon="2.41965">
        <ele>552</ele>
        <time>2019-11-07T08:25:48Z</time>
      </trkpt>
      <trkpt lat="43.86165" lon="2.4194">
        <ele>549</ele>
        <time>2019-11-07T08:26:06Z</time>
      </trkpt>
      <trkpt lat="43.86146" lon="2.4189">
        <ele>541</ele>
        <time>2019-11-07T08:26:39Z</time>
      </trkpt>
      <trkpt lat="43.86143" lon="2.41876">
        <ele>540</ele>
        <time>2019-11-07T08:26:47Z</time>
      </trkpt>
      <trkpt lat="43.86146" lon="2.41807">
        <ele>538</ele>
        <time>2019-11-07T08:27:27Z</time>
      </trkpt>
      <trkpt lat="43.8616" lon="2.41741">
        <ele>536</ele>
        <time>2019-11-07T08:28:07Z</time>
      </trkpt>
      <trkpt lat="43.86166" lon="2.41728">
        <ele>535</ele>
        <time>2019-11-07T08:28:15Z</time>
      </trkpt>
      <trkpt lat="43.86168" lon="2.41715">
        <ele>534</ele>
        <time>2019-11-07T08:28:23Z</time>
      </trkpt>
      <trkpt lat="43.86166" lon="2.41704">
        <ele>533</ele>
        <time>2019-11-07T08:28:30Z</time>
      </trkpt>
      <trkpt lat="43.86157" lon="2.41696">
        <ele>532</ele>
        <time>2019-11-07T08:28:38Z</time>
      </trkpt>
      <trkpt lat="43.86108" lon="2.4167">
        <ele>529</ele>
        <time>2019-11-07T08:29:20Z</time>
      </trkpt>
      <trkpt lat="43.86072" lon="2.41644">
        <ele>524</ele>
        <time>2019-11-07T08:29:53Z</time>
      </trkpt>
      <trkpt lat="43.86042" lon="2.41628">
        <ele>518</ele>
        <time>2019-11-07T08:30:19Z</time>
      </trkpt>
      <trkpt lat="43.85851" lon="2.41573">
        <ele>499</ele>
        <time>2019-11-07T08:32:55Z</time>
      </trkpt>
      <trkpt lat="43.85789" lon="2.4155">
        <ele>496</ele>
        <time>2019-11-07T08:33:46Z</time>
      </trkpt>
      <trkpt lat="43.85778" lon="2.41548">
        <ele>495</ele>
        <time>2019-11-07T08:33:55Z</time>
      </trkpt>
      <trkpt lat="43.85778" lon="2.41555">
        <ele>495</ele>
        <time>2019-11-07T08:33:59Z</time>
      </trkpt>
      <trkpt lat="43.85783" lon="2.41562">
        <ele>495</ele>
        <time>2019-11-07T08:34:05Z</time>
      </trkpt>
      <trkpt lat="43.85806" lon="2.41572">
        <ele>496</ele>
        <time>2019-11-07T08:34:24Z</time>
      </trkpt>
      <trkpt lat="43.85857" lon="2.41602">
        <ele>496</ele>
        <time>2019-11-07T08:35:08Z</time>
      </trkpt>
      <trkpt lat="43.85873" lon="2.41616">
        <ele>495</ele>
        <time>2019-11-07T08:35:24Z</time>
      </trkpt>
      <trkpt lat="43.85921" lon="2.41673">
        <ele>495</ele>
        <time>2019-11-07T08:36:14Z</time>
      </trkpt>
      <trkpt lat="43.85948" lon="2.41709">
        <ele>494</ele>
        <time>2019-11-07T08:36:44Z</time>
      </trkpt>
      <trkpt lat="43.85961" lon="2.41734">
        <ele>494</ele>
        <time>2019-11-07T08:37:02Z</time>
      </trkpt>
      <trkpt lat="43.8596" lon="2.41748">
        <ele>490</ele>
        <time>2019-11-07T08:37:10Z</time>
      </trkpt>
      <trkpt lat="43.85932" lon="2.41712">
        <ele>489</ele>
        <time>2019-11-07T08:37:41Z</time>
      </trkpt>
      <trkpt lat="43.85936" lon="2.41724">
        <ele>487</ele>
        <time>2019-11-07T08:37:48Z</time>
      </trkpt>
      <trkpt lat="43.85957" lon="2.41762">
        <ele>488</ele>
        <time>2019-11-07T08:38:16Z</time>
      </trkpt>
      <trkpt lat="43.85962" lon="2.41785">
        <ele>487</ele>
        <time>2019-11-07T08:38:30Z</time>
      </trkpt>
      <trkpt lat="43.85965" lon="2.41825">
        <ele>484</ele>
        <time>2019-11-07T08:38:53Z</time>
      </trkpt>
      <trkpt lat="43.8597" lon="2.4185">
        <ele>483</ele>
        <time>2019-11-07T08:39:08Z</time>
      </trkpt>
      <trkpt lat="43.85987" lon="2.41896">
        <ele>484</ele>
        <time>2019-11-07T08:39:38Z</time>
      </trkpt>
      <trkpt lat="43.85984" lon="2.41906">
        <ele>483</ele>
        <time>2019-11-07T08:39:44Z</time>
      </trkpt>
      <trkpt lat="43.85971" lon="2.41915">
        <ele>480</ele>
        <time>2019-11-07T08:39:56Z</time>
      </trkpt>
      <trkpt lat="43.85916" lon="2.41936">
        <ele>471</ele>
        <time>2019-11-07T08:40:41Z</time>
      </trkpt>
      <trkpt lat="43.85904" lon="2.41928">
        <ele>472</ele>
        <time>2019-11-07T08:40:52Z</time>
      </trkpt>
      <trkpt lat="43.85879" lon="2.41892">
        <ele>474</ele>
        <time>2019-11-07T08:41:21Z</time>
      </trkpt>
      <trkpt lat="43.85854" lon="2.41877">
        <ele>475</ele>
        <time>2019-11-07T08:41:43Z</time>
      </trkpt>
      <trkpt lat="43.85791" lon="2.4185">
        <ele>481</ele>
        <time>2019-11-07T08:42:35Z</time>
      </trkpt>
      <trkpt lat="43.85717" lon="2.41842">
        <ele>490</ele>
        <time>2019-11-07T08:43:35Z</time>
      </trkpt>
      <trkpt lat="43.85675" lon="2.41846">
        <ele>494</ele>
        <time>2019-11-07T08:44:09Z</time>
      </trkpt>
      <trkpt lat="43.85649" lon="2.41854">
        <ele>496</ele>
        <time>2019-11-07T08:44:30Z</time>
      </trkpt>
      <trkpt lat="43.85634" lon="2.41863">
        <ele>498</ele>
        <time>2019-11-07T08:44:43Z</time>
      </trkpt>
      <trkpt lat="43.85589" lon="2.41911">
        <ele>504</ele>
        <time>2019-11-07T08:45:28Z</time>
      </trkpt>
      <trkpt lat="43.85569" lon="2.41942">
        <ele>510</ele>
        <time>2019-11-07T08:45:52Z</time>
      </trkpt>
      <trkpt lat="43.85541" lon="2.41976">
        <ele>514</ele>
        <time>2019-11-07T08:46:22Z</time>
      </trkpt>
      <trkpt lat="43.85455" lon="2.42061">
        <ele>530</ele>
        <time>2019-11-07T08:47:47Z</time>
      </trkpt>
      <trkpt lat="43.85377" lon="2.42166">
        <ele>552</ele>
        <time>2019-11-07T08:49:14Z</time>
      </trkpt>
      <trkpt lat="43.85376" lon="2.42172">
        <ele>552</ele>
        <time>2019-11-07T08:49:17Z</time>
      </trkpt>
      <trkpt lat="43.85378" lon="2.42175">
        <ele>552</ele>
        <time>2019-11-07T08:49:20Z</time>
      </trkpt>
      <trkpt lat="43.85423" lon="2.42147">
        <ele>541</ele>
        <time>2019-11-07T08:49:59Z</time>
      </trkpt>
      <trkpt lat="43.85504" lon="2.42107">
        <ele>539</ele>
        <time>2019-11-07T08:51:08Z</time>
      </trkpt>
      <trkpt lat="43.85515" lon="2.42109">
        <ele>539</ele>
        <time>2019-11-07T08:51:17Z</time>
      </trkpt>
      <trkpt lat="43.85544" lon="2.42123">
        <ele>540</ele>
        <time>2019-11-07T08:51:42Z</time>
      </trkpt>
      <trkpt lat="43.85555" lon="2.42157">
        <ele>544</ele>
        <time>2019-11-07T08:52:03Z</time>
      </trkpt>
      <trkpt lat="43.85554" lon="2.4217">
        <ele>545</ele>
        <time>2019-11-07T08:52:11Z</time>
      </trkpt>
      <trkpt lat="43.85539" lon="2.42206">
        <ele>548</ele>
        <time>2019-11-07T08:52:35Z</time>
      </trkpt>
      <trkpt lat="43.85529" lon="2.42219">
        <ele>550</ele>
        <time>2019-11-07T08:52:46Z</time>
      </trkpt>
      <trkpt lat="43.8552" lon="2.42224">
        <ele>552</ele>
        <time>2019-11-07T08:52:53Z</time>
      </trkpt>
      <trkpt lat="43.85478" lon="2.42229">
        <ele>556</ele>
        <time>2019-11-07T08:53:27Z</time>
      </trkpt>
      <trkpt lat="43.85457" lon="2.42236">
        <ele>556</ele>
        <time>2019-11-07T08:53:44Z</time>
      </trkpt>
      <trkpt lat="43.85437" lon="2.42252">
        <ele>558</ele>
        <time>2019-11-07T08:54:03Z</time>
      </trkpt>
      <trkpt lat="43.85415" lon="2.4229">
        <ele>563</ele>
        <time>2019-11-07T08:54:31Z</time>
      </trkpt>
      <trkpt lat="43.85395" lon="2.42333">
        <ele>568</ele>
        <time>2019-11-07T08:55:01Z</time>
      </trkpt>
      <trkpt lat="43.85371" lon="2.42401">
        <ele>576</ele>
        <time>2019-11-07T08:55:44Z</time>
      </trkpt>
      <trkpt lat="43.85355" lon="2.42448">
        <ele>581</ele>
        <time>2019-11-07T08:56:14Z</time>
      </trkpt>
      <trkpt lat="43.85352" lon="2.42472">
        <ele>584</ele>
        <time>2019-11-07T08:56:28Z</time>
      </trkpt>
      <trkpt lat="43.85358" lon="2.42474">
        <ele>584</ele>
        <time>2019-11-07T08:56:33Z</time>
      </trkpt>
      <trkpt lat="43.85383" lon="2.42457">
        <ele>581</ele>
        <time>2019-11-07T08:56:56Z</time>
      </trkpt>
      <trkpt lat="43.85398" lon="2.42456">
        <ele>581</ele>
        <time>2019-11-07T08:57:08Z</time>
      </trkpt>
      <trkpt lat="43.85391" lon="2.42483">
        <ele>583</ele>
        <time>2019-11-07T08:57:24Z</time>
      </trkpt>
      <trkpt lat="43.85372" lon="2.42534">
        <ele>588</ele>
        <time>2019-11-07T08:57:57Z</time>
      </trkpt>
      <trkpt lat="43.85353" lon="2.42595">
        <ele>593</ele>
        <time>2019-11-07T08:58:36Z</time>
      </trkpt>
      <trkpt lat="43.85349" lon="2.42628">
        <ele>596</ele>
        <time>2019-11-07T08:58:55Z</time>
      </trkpt>
      <trkpt lat="43.85347" lon="2.42732">
        <ele>604</ele>
        <time>2019-11-07T08:59:55Z</time>
      </trkpt>
      <trkpt lat="43.85343" lon="2.4276">
        <ele>607</ele>
        <time>2019-11-07T09:00:12Z</time>
      </trkpt>
      <trkpt lat="43.85328" lon="2.42828">
        <ele>612</ele>
        <time>2019-11-07T09:00:53Z</time>
      </trkpt>
      <trkpt lat="43.85318" lon="2.42863">
        <ele>614</ele>
        <time>2019-11-07T09:01:14Z</time>
      </trkpt>
      <trkpt lat="43.85273" lon="2.42976">
        <ele>622</ele>
        <time>2019-11-07T09:02:29Z</time>
      </trkpt>
      <trkpt lat="43.85204" lon="2.43082">
        <ele>632</ele>
        <time>2019-11-07T09:03:51Z</time>
      </trkpt>
      <trkpt lat="43.85189" lon="2.43099">
        <ele>634</ele>
        <time>2019-11-07T09:04:07Z</time>
      </trkpt>
      <trkpt lat="43.85093" lon="2.43191">
        <ele>643</ele>
        <time>2019-11-07T09:05:40Z</time>
      </trkpt>
      <trkpt lat="43.85067" lon="2.43203">
        <ele>645</ele>
        <time>2019-11-07T09:06:02Z</time>
      </trkpt>
      <trkpt lat="43.85028" lon="2.43211">
        <ele>646</ele>
        <time>2019-11-07T09:06:34Z</time>
      </trkpt>
      <trkpt lat="43.85" lon="2.43212">
        <ele>646</ele>
        <time>2019-11-07T09:06:56Z</time>
      </trkpt>
      <trkpt lat="43.84915" lon="2.43196">
        <ele>650</ele>
        <time>2019-11-07T09:08:05Z</time>
      </trkpt>
      <trkpt lat="43.84894" lon="2.43195">
        <ele>650</ele>
        <time>2019-11-07T09:08:22Z</time>
      </trkpt>
      <trkpt lat="43.84878" lon="2.43186">
        <ele>651</ele>
        <time>2019-11-07T09:08:36Z</time>
      </trkpt>
      <trkpt lat="43.84869" lon="2.43178">
        <ele>651</ele>
        <time>2019-11-07T09:08:44Z</time>
      </trkpt>
      <trkpt lat="43.84908" lon="2.43079">
        <ele>652</ele>
        <time>2019-11-07T09:09:49Z</time>
      </trkpt>
      <trkpt lat="43.84916" lon="2.43033">
        <ele>654</ele>
        <time>2019-11-07T09:10:17Z</time>
      </trkpt>
      <trkpt lat="43.84918" lon="2.43003">
        <ele>654</ele>
        <time>2019-11-07T09:10:34Z</time>
      </trkpt>
      <trkpt lat="43.84913" lon="2.4296">
        <ele>654</ele>
        <time>2019-11-07T09:10:59Z</time>
      </trkpt>
      <trkpt lat="43.84903" lon="2.42934">
        <ele>653</ele>
        <time>2019-11-07T09:11:16Z</time>
      </trkpt>
      <trkpt lat="43.84869" lon="2.42894">
        <ele>650</ele>
        <time>2019-11-07T09:11:52Z</time>
      </trkpt>
      <trkpt lat="43.84816" lon="2.42902">
        <ele>647</ele>
        <time>2019-11-07T09:12:35Z</time>
      </trkpt>
      <trkpt lat="43.84799" lon="2.42897">
        <ele>647</ele>
        <time>2019-11-07T09:12:48Z</time>
      </trkpt>
      <trkpt lat="43.84793" lon="2.42887">
        <ele>647</ele>
        <time>2019-11-07T09:12:56Z</time>
      </trkpt>
      <trkpt lat="43.84785" lon="2.42831">
        <ele>646</ele>
        <time>2019-11-07T09:13:29Z</time>
      </trkpt>
      <trkpt lat="43.84764" lon="2.42765">
        <ele>642</ele>
        <time>2019-11-07T09:14:11Z</time>
      </trkpt>
      <trkpt lat="43.84742" lon="2.42671">
        <ele>636</ele>
        <time>2019-11-07T09:15:08Z</time>
      </trkpt>
      <trkpt lat="43.84733" lon="2.42644">
        <ele>634</ele>
        <time>2019-11-07T09:15:25Z</time>
      </trkpt>
      <trkpt lat="43.8473" lon="2.42641">
        <ele>634</ele>
        <time>2019-11-07T09:15:28Z</time>
      </trkpt>
      <trkpt lat="43.84698" lon="2.42621">
        <ele>631</ele>
        <time>2019-11-07T09:15:56Z</time>
      </trkpt>
      <trkpt lat="43.84568" lon="2.42599">
        <ele>619</ele>
        <time>2019-11-07T09:17:41Z</time>
      </trkpt>
      <trkpt lat="43.84535" lon="2.42598">
        <ele>616</ele>
        <time>2019-11-07T09:18:07Z</time>
      </trkpt>
      <trkpt lat="43.8443" lon="2.42603">
        <ele>600</ele>
        <time>2019-11-07T09:19:31Z</time>
      </trkpt>
      <trkpt lat="43.84372" lon="2.42595">
        <ele>591</ele>
        <time>2019-11-07T09:20:18Z</time>
      </trkpt>
      <trkpt lat="43.84329" lon="2.42583">
        <ele>584</ele>
        <time>2019-11-07T09:20:53Z</time>
      </trkpt>
      <trkpt lat="43.84269" lon="2.42561">
        <ele>580</ele>
        <time>2019-11-07T09:21:43Z</time>
      </trkpt>
      <trkpt lat="43.84251" lon="2.4255">
        <ele>579</ele>
        <time>2019-11-07T09:21:59Z</time>
      </trkpt>
      <trkpt lat="43.84249" lon="2.42536">
        <ele>579</ele>
        <time>2019-11-07T09:22:07Z</time>
      </trkpt>
      <trkpt lat="43.84261" lon="2.42465">
        <ele>577</ele>
        <time>2019-11-07T09:22:49Z</time>
      </trkpt>
      <trkpt lat="43.84265" lon="2.42398">
        <ele>574</ele>
        <time>2019-11-07T09:23:28Z</time>
      </trkpt>
      <trkpt lat="43.84247" lon="2.42311">
        <ele>575</ele>
        <time>2019-11-07T09:24:20Z</time>
      </trkpt>
      <trkpt lat="43.84245" lon="2.42277">
        <ele>576</ele>
        <time>2019-11-07T09:24:40Z</time>
      </trkpt>
      <trkpt lat="43.84231" lon="2.42312">
        <ele>574</ele>
        <time>2019-11-07T09:25:03Z</time>
      </trkpt>
      <trkpt lat="43.84214" lon="2.42384">
        <ele>574</ele>
        <time>2019-11-07T09:25:47Z</time>
      </trkpt>
      <trkpt lat="43.84183" lon="2.42665">
        <ele>596</ele>
        <time>2019-11-07T09:28:31Z</time>
      </trkpt>
      <trkpt lat="43.84181" lon="2.42779">
        <ele>605</ele>
        <time>2019-11-07T09:29:37Z</time>
      </trkpt>
      <trkpt lat="43.84178" lon="2.4282">
        <ele>606</ele>
        <time>2019-11-07T09:30:00Z</time>
      </trkpt>
      <trkpt lat="43.84172" lon="2.42855">
        <ele>608</ele>
        <time>2019-11-07T09:30:21Z</time>
      </trkpt>
      <trkpt lat="43.84164" lon="2.42883">
        <ele>610</ele>
        <time>2019-11-07T09:30:39Z</time>
      </trkpt>
      <trkpt lat="43.84152" lon="2.42904">
        <ele>612</ele>
        <time>2019-11-07T09:30:54Z</time>
      </trkpt>
      <trkpt lat="43.84142" lon="2.42914">
        <ele>614</ele>
        <time>2019-11-07T09:31:04Z</time>
      </trkpt>
      <trkpt lat="43.84108" lon="2.42926">
        <ele>618</ele>
        <time>2019-11-07T09:31:32Z</time>
      </trkpt>
      <trkpt lat="43.84096" lon="2.42933">
        <ele>619</ele>
        <time>2019-11-07T09:31:42Z</time>
      </trkpt>
      <trkpt lat="43.84084" lon="2.42944">
        <ele>620</ele>
        <time>2019-11-07T09:31:54Z</time>
      </trkpt>
      <trkpt lat="43.84034" lon="2.43015">
        <ele>620</ele>
        <time>2019-11-07T09:32:51Z</time>
      </trkpt>
      <trkpt lat="43.83994" lon="2.43052">
        <ele>622</ele>
        <time>2019-11-07T09:33:30Z</time>
      </trkpt>
      <trkpt lat="43.83967" lon="2.43069">
        <ele>620</ele>
        <time>2019-11-07T09:33:53Z</time>
      </trkpt>
      <trkpt lat="43.83939" lon="2.43096">
        <ele>620</ele>
        <time>2019-11-07T09:34:21Z</time>
      </trkpt>
      <trkpt lat="43.83907" lon="2.43137">
        <ele>621</ele>
        <time>2019-11-07T09:34:56Z</time>
      </trkpt>
      <trkpt lat="43.83878" lon="2.43181">
        <ele>626</ele>
        <time>2019-11-07T09:35:30Z</time>
      </trkpt>
      <trkpt lat="43.83821" lon="2.43093">
        <ele>615</ele>
        <time>2019-11-07T09:36:38Z</time>
      </trkpt>
      <trkpt lat="43.83808" lon="2.43068">
        <ele>611</ele>
        <time>2019-11-07T09:36:56Z</time>
      </trkpt>
      <trkpt lat="43.83798" lon="2.43058">
        <ele>608</ele>
        <time>2019-11-07T09:37:06Z</time>
      </trkpt>
      <trkpt lat="43.83763" lon="2.43038">
        <ele>602</ele>
        <time>2019-11-07T09:37:36Z</time>
      </trkpt>
      <trkpt lat="43.83746" lon="2.43035">
        <ele>599</ele>
        <time>2019-11-07T09:37:50Z</time>
      </trkpt>
      <trkpt lat="43.83716" lon="2.4304">
        <ele>594</ele>
        <time>2019-11-07T09:38:14Z</time>
      </trkpt>
      <trkpt lat="43.837" lon="2.43055">
        <ele>593</ele>
        <time>2019-11-07T09:38:30Z</time>
      </trkpt>
      <trkpt lat="43.83687" lon="2.43084">
        <ele>593</ele>
        <time>2019-11-07T09:38:49Z</time>
      </trkpt>
      <trkpt lat="43.83683" lon="2.43087">
        <ele>592</ele>
        <time>2019-11-07T09:38:53Z</time>
      </trkpt>
      <trkpt lat="43.83677" lon="2.43087">
        <ele>591</ele>
        <time>2019-11-07T09:38:58Z</time>
      </trkpt>
      <trkpt lat="43.83673" lon="2.43084">
        <ele>589</ele>
        <time>2019-11-07T09:39:02Z</time>
      </trkpt>
      <trkpt lat="43.83668" lon="2.43072">
        <ele>587</ele>
        <time>2019-11-07T09:39:10Z</time>
      </trkpt>
      <trkpt lat="43.83664" lon="2.43047">
        <ele>584</ele>
        <time>2019-11-07T09:39:24Z</time>
      </trkpt>
      <trkpt lat="43.83668" lon="2.4298">
        <ele>580</ele>
        <time>2019-11-07T09:40:03Z</time>
      </trkpt>
      <trkpt lat="43.83673" lon="2.4296">
        <ele>578</ele>
        <time>2019-11-07T09:40:15Z</time>
      </trkpt>
      <trkpt lat="43.8367" lon="2.42951">
        <ele>576</ele>
        <time>2019-11-07T09:40:21Z</time>
      </trkpt>
      <trkpt lat="43.83659" lon="2.42955">
        <ele>574</ele>
        <time>2019-11-07T09:40:30Z</time>
      </trkpt>
      <trkpt lat="43.83631" lon="2.4301">
        <ele>570</ele>
        <time>2019-11-07T09:41:09Z</time>
      </trkpt>
      <trkpt lat="43.83613" lon="2.43052">
        <ele>566</ele>
        <time>2019-11-07T09:41:37Z</time>
      </trkpt>
      <trkpt lat="43.83616" lon="2.43106">
        <ele>571</ele>
        <time>2019-11-07T09:42:09Z</time>
      </trkpt>
      <trkpt lat="43.8362" lon="2.43126">
        <ele>574</ele>
        <time>2019-11-07T09:42:21Z</time>
      </trkpt>
      <trkpt lat="43.8362" lon="2.4314">
        <ele>575</ele>
        <time>2019-11-07T09:42:29Z</time>
      </trkpt>
      <trkpt lat="43.83615" lon="2.43153">
        <ele>574</ele>
        <time>2019-11-07T09:42:37Z</time>
      </trkpt>
      <trkpt lat="43.83606" lon="2.43156">
        <ele>571</ele>
        <time>2019-11-07T09:42:45Z</time>
      </trkpt>
      <trkpt lat="43.83584" lon="2.43158">
        <ele>563</ele>
        <time>2019-11-07T09:43:02Z</time>
      </trkpt>
      <trkpt lat="43.83567" lon="2.43167">
        <ele>558</ele>
        <time>2019-11-07T09:43:17Z</time>
      </trkpt>
      <trkpt lat="43.83502" lon="2.43244">
        <ele>553</ele>
        <time>2019-11-07T09:44:25Z</time>
      </trkpt>
      <trkpt lat="43.83474" lon="2.43257">
        <ele>548</ele>
        <time>2019-11-07T09:44:49Z</time>
      </trkpt>
      <trkpt lat="43.83461" lon="2.43255">
        <ele>544</ele>
        <time>2019-11-07T09:44:59Z</time>
      </trkpt>
      <trkpt lat="43.83447" lon="2.43247">
        <ele>539</ele>
        <time>2019-11-07T09:45:12Z</time>
      </trkpt>
      <trkpt lat="43.83438" lon="2.4325">
        <ele>538</ele>
        <time>2019-11-07T09:45:19Z</time>
      </trkpt>
      <trkpt lat="43.83381" lon="2.43278">
        <ele>526</ele>
        <time>2019-11-07T09:46:07Z</time>
      </trkpt>
      <trkpt lat="43.8337" lon="2.43286">
        <ele>525</ele>
        <time>2019-11-07T09:46:17Z</time>
      </trkpt>
      <trkpt lat="43.83339" lon="2.43319">
        <ele>519</ele>
        <time>2019-11-07T09:46:49Z</time>
      </trkpt>
      <trkpt lat="43.83332" lon="2.43334">
        <ele>518</ele>
        <time>2019-11-07T09:46:59Z</time>
      </trkpt>
      <trkpt lat="43.83328" lon="2.43356">
        <ele>515</ele>
        <time>2019-11-07T09:47:12Z</time>
      </trkpt>
      <trkpt lat="43.83329" lon="2.43367">
        <ele>514</ele>
        <time>2019-11-07T09:47:18Z</time>
      </trkpt>
      <trkpt lat="43.83341" lon="2.43401">
        <ele>515</ele>
        <time>2019-11-07T09:47:40Z</time>
      </trkpt>
      <trkpt lat="43.83348" lon="2.4341">
        <ele>517</ele>
        <time>2019-11-07T09:47:48Z</time>
      </trkpt>
      <trkpt lat="43.83357" lon="2.43434">
        <ele>519</ele>
        <time>2019-11-07T09:48:04Z</time>
      </trkpt>
      <trkpt lat="43.83367" lon="2.43509">
        <ele>519</ele>
        <time>2019-11-07T09:48:48Z</time>
      </trkpt>
      <trkpt lat="43.83364" lon="2.43529">
        <ele>520</ele>
        <time>2019-11-07T09:48:59Z</time>
      </trkpt>
      <trkpt lat="43.83355" lon="2.43541">
        <ele>519</ele>
        <time>2019-11-07T09:49:09Z</time>
      </trkpt>
      <trkpt lat="43.83345" lon="2.43545">
        <ele>517</ele>
        <time>2019-11-07T09:49:18Z</time>
      </trkpt>
      <trkpt lat="43.83296" lon="2.43542">
        <ele>509</ele>
        <time>2019-11-07T09:49:57Z</time>
      </trkpt>
      <trkpt lat="43.83268" lon="2.43536">
        <ele>504</ele>
        <time>2019-11-07T09:50:20Z</time>
      </trkpt>
      <trkpt lat="43.83259" lon="2.43524">
        <ele>499</ele>
        <time>2019-11-07T09:50:30Z</time>
      </trkpt>
      <trkpt lat="43.8324" lon="2.4352">
        <ele>496</ele>
        <time>2019-11-07T09:50:45Z</time>
      </trkpt>
      <trkpt lat="43.83224" lon="2.43506">
        <ele>490</ele>
        <time>2019-11-07T09:51:00Z</time>
      </trkpt>
      <trkpt lat="43.83201" lon="2.43492">
        <ele>485</ele>
        <time>2019-11-07T09:51:20Z</time>
      </trkpt>
      <trkpt lat="43.83195" lon="2.43493">
        <ele>485</ele>
        <time>2019-11-07T09:51:25Z</time>
      </trkpt>
      <trkpt lat="43.83174" lon="2.43507">
        <ele>484</ele>
        <time>2019-11-07T09:51:44Z</time>
      </trkpt>
      <trkpt lat="43.83091" lon="2.43593">
        <ele>479</ele>
        <time>2019-11-07T09:53:07Z</time>
      </trkpt>
      <trkpt lat="43.8307" lon="2.4361">
        <ele>477</ele>
        <time>2019-11-07T09:53:26Z</time>
      </trkpt>
      <trkpt lat="43.8307" lon="2.43613">
        <ele>478</ele>
        <time>2019-11-07T09:53:28Z</time>
      </trkpt>
      <trkpt lat="43.83044" lon="2.43653">
        <ele>478</ele>
        <time>2019-11-07T09:53:59Z</time>
      </trkpt>
      <trkpt lat="43.83037" lon="2.43652">
        <ele>477</ele>
        <time>2019-11-07T09:54:05Z</time>
      </trkpt>
      <trkpt lat="43.83021" lon="2.43643">
        <ele>474</ele>
        <time>2019-11-07T09:54:19Z</time>
      </trkpt>
      <trkpt lat="43.83001" lon="2.43687">
        <ele>473</ele>
        <time>2019-11-07T09:54:49Z</time>
      </trkpt>
      <trkpt lat="43.82972" lon="2.43778">
        <ele>472</ele>
        <time>2019-11-07T09:55:46Z</time>
      </trkpt>
      <trkpt lat="43.82964" lon="2.43776">
        <ele>472</ele>
        <time>2019-11-07T09:55:53Z</time>
      </trkpt>
      <trkpt lat="43.82945" lon="2.43751">
        <ele>471</ele>
        <time>2019-11-07T09:56:14Z</time>
      </trkpt>
      <trkpt lat="43.8293" lon="2.4374">
        <ele>471</ele>
        <time>2019-11-07T09:56:27Z</time>
      </trkpt>
      <trkpt lat="43.82924" lon="2.4374">
        <ele>471</ele>
        <time>2019-11-07T09:56:32Z</time>
      </trkpt>
      <trkpt lat="43.82904" lon="2.43748">
        <ele>471</ele>
        <time>2019-11-07T09:56:49Z</time>
      </trkpt>
      <trkpt lat="43.82892" lon="2.43757">
        <ele>472</ele>
        <time>2019-11-07T09:57:00Z</time>
      </trkpt>
      <trkpt lat="43.82867" lon="2.43785">
        <ele>472</ele>
        <time>2019-11-07T09:57:25Z</time>
      </trkpt>
      <trkpt lat="43.82865" lon="2.4376">
        <ele>472</ele>
        <time>2019-11-07T09:57:40Z</time>
      </trkpt>
      <trkpt lat="43.82864" lon="2.43766">
        <ele>472</ele>
        <time>2019-11-07T09:57:43Z</time>
      </trkpt>
      <trkpt lat="43.82865" lon="2.4375">
        <ele>472</ele>
        <time>2019-11-07T09:57:53Z</time>
      </trkpt>
      <trkpt lat="43.82862" lon="2.43704">
        <ele>474</ele>
        <time>2019-11-07T09:58:19Z</time>
      </trkpt>
      <trkpt lat="43.82858" lon="2.43679">
        <ele>475</ele>
        <time>2019-11-07T09:58:34Z</time>
      </trkpt>
      <trkpt lat="43.82846" lon="2.43638">
        <ele>478</ele>
        <time>2019-11-07T09:59:00Z</time>
      </trkpt>
      <trkpt lat="43.82867" lon="2.4358">
        <ele>477</ele>
        <time>2019-11-07T09:59:37Z</time>
      </trkpt>
      <trkpt lat="43.82886" lon="2.43544">
        <ele>475</ele>
        <time>2019-11-07T10:00:03Z</time>
      </trkpt>
      <trkpt lat="43.82929" lon="2.43476">
        <ele>468</ele>
        <time>2019-11-07T10:00:55Z</time>
      </trkpt>
      <trkpt lat="43.8293" lon="2.43466">
        <ele>469</ele>
        <time>2019-11-07T10:01:01Z</time>
      </trkpt>
      <trkpt lat="43.82952" lon="2.43432">
        <ele>468</ele>
        <time>2019-11-07T10:01:27Z</time>
      </trkpt>
      <trkpt lat="43.82973" lon="2.43386">
        <ele>467</ele>
        <time>2019-11-07T10:01:59Z</time>
      </trkpt>
      <trkpt lat="43.8298" lon="2.43352">
        <ele>466</ele>
        <time>2019-11-07T10:02:19Z</time>
      </trkpt>
      <trkpt lat="43.82999" lon="2.43205">
        <ele>458</ele>
        <time>2019-11-07T10:03:45Z</time>
      </trkpt>
      <trkpt lat="43.83007" lon="2.43176">
        <ele>457</ele>
        <time>2019-11-07T10:04:03Z</time>
      </trkpt>
      <trkpt lat="43.83036" lon="2.43132">
        <ele>455</ele>
        <time>2019-11-07T10:04:38Z</time>
      </trkpt>
      <trkpt lat="43.83064" lon="2.431">
        <ele>452</ele>
        <time>2019-11-07T10:05:07Z</time>
      </trkpt>
      <trkpt lat="43.83086" lon="2.43077">
        <ele>449</ele>
        <time>2019-11-07T10:05:29Z</time>
      </trkpt>
      <trkpt lat="43.83118" lon="2.43058">
        <ele>448</ele>
        <time>2019-11-07T10:05:57Z</time>
      </trkpt>
      <trkpt lat="43.8314" lon="2.4304">
        <ele>446</ele>
        <time>2019-11-07T10:06:17Z</time>
      </trkpt>
      <trkpt lat="43.83155" lon="2.4302">
        <ele>444</ele>
        <time>2019-11-07T10:06:34Z</time>
      </trkpt>
      <trkpt lat="43.83213" lon="2.42899">
        <ele>440</ele>
        <time>2019-11-07T10:07:58Z</time>
      </trkpt>
      <trkpt lat="43.83236" lon="2.42833">
        <ele>434</ele>
        <time>2019-11-07T10:08:40Z</time>
      </trkpt>
      <trkpt lat="43.8327" lon="2.42758">
        <ele>428</ele>
        <time>2019-11-07T10:09:31Z</time>
      </trkpt>
      <trkpt lat="43.83285" lon="2.42697">
        <ele>423</ele>
        <time>2019-11-07T10:10:09Z</time>
      </trkpt>
      <trkpt lat="43.8329" lon="2.42689">
        <ele>422</ele>
        <time>2019-11-07T10:10:15Z</time>
      </trkpt>
      <trkpt lat="43.83297" lon="2.42686">
        <ele>421</ele>
        <time>2019-11-07T10:10:21Z</time>
      </trkpt>
      <trkpt lat="43.83304" lon="2.42674">
        <ele>420</ele>
        <time>2019-11-07T10:10:29Z</time>
      </trkpt>
      <trkpt lat="43.83335" lon="2.42592">
        <ele>410</ele>
        <time>2019-11-07T10:11:23Z</time>
      </trkpt>
      <trkpt lat="43.83336" lon="2.4257">
        <ele>409</ele>
        <time>2019-11-07T10:11:36Z</time>
      </trkpt>
      <trkpt lat="43.83333" lon="2.42557">
        <ele>407</ele>
        <time>2019-11-07T10:11:44Z</time>
      </trkpt>
      <trkpt lat="43.83282" lon="2.42485">
        <ele>404</ele>
        <time>2019-11-07T10:12:42Z</time>
      </trkpt>
      <trkpt lat="43.83269" lon="2.42464">
        <ele>404</ele>
        <time>2019-11-07T10:12:58Z</time>
      </trkpt>
      <trkpt lat="43.83264" lon="2.42451">
        <ele>405</ele>
        <time>2019-11-07T10:13:06Z</time>
      </trkpt>
      <trkpt lat="43.8326" lon="2.42422">
        <ele>406</ele>
        <time>2019-11-07T10:13:23Z</time>
      </trkpt>
      <trkpt lat="43.83248" lon="2.42387">
        <ele>407</ele>
        <time>2019-11-07T10:13:46Z</time>
      </trkpt>
      <trkpt lat="43.83243" lon="2.42357">
        <ele>407</ele>
        <time>2019-11-07T10:14:04Z</time>
      </trkpt>
      <trkpt lat="43.83256" lon="2.42288">
        <ele>408</ele>
        <time>2019-11-07T10:14:45Z</time>
      </trkpt>
      <trkpt lat="43.8325" lon="2.42201">
        <ele>413</ele>
        <time>2019-11-07T10:15:35Z</time>
      </trkpt>
      <trkpt lat="43.83242" lon="2.42152">
        <ele>417</ele>
        <time>2019-11-07T10:16:04Z</time>
      </trkpt>
      <trkpt lat="43.83217" lon="2.42077">
        <ele>422</ele>
        <time>2019-11-07T10:16:52Z</time>
      </trkpt>
      <trkpt lat="43.83206" lon="2.42054">
        <ele>425</ele>
        <time>2019-11-07T10:17:08Z</time>
      </trkpt>
      <trkpt lat="43.83176" lon="2.42003">
        <ele>434</ele>
        <time>2019-11-07T10:17:46Z</time>
      </trkpt>
      <trkpt lat="43.83167" lon="2.41974">
        <ele>441</ele>
        <time>2019-11-07T10:18:04Z</time>
      </trkpt>
      <trkpt lat="43.83165" lon="2.41958">
        <ele>444</ele>
        <time>2019-11-07T10:18:14Z</time>
      </trkpt>
      <trkpt lat="43.83168" lon="2.4193">
        <ele>450</ele>
        <time>2019-11-07T10:18:30Z</time>
      </trkpt>
      <trkpt lat="43.83178" lon="2.419">
        <ele>453</ele>
        <time>2019-11-07T10:18:49Z</time>
      </trkpt>
      <trkpt lat="43.83181" lon="2.41883">
        <ele>455</ele>
        <time>2019-11-07T10:18:59Z</time>
      </trkpt>
      <trkpt lat="43.83194" lon="2.41769">
        <ele>466</ele>
        <time>2019-11-07T10:20:06Z</time>
      </trkpt>
      <trkpt lat="43.832" lon="2.41746">
        <ele>468</ele>
        <time>2019-11-07T10:20:20Z</time>
      </trkpt>
      <trkpt lat="43.83219" lon="2.41711">
        <ele>473</ele>
        <time>2019-11-07T10:20:45Z</time>
      </trkpt>
      <trkpt lat="43.83229" lon="2.41683">
        <ele>478</ele>
        <time>2019-11-07T10:21:03Z</time>
      </trkpt>
      <trkpt lat="43.8325" lon="2.41584">
        <ele>491</ele>
        <time>2019-11-07T10:22:03Z</time>
      </trkpt>
      <trkpt lat="43.83266" lon="2.41528">
        <ele>493</ele>
        <time>2019-11-07T10:22:38Z</time>
      </trkpt>
      <trkpt lat="43.8327" lon="2.41502">
        <ele>494</ele>
        <time>2019-11-07T10:22:53Z</time>
      </trkpt>
      <trkpt lat="43.83271" lon="2.41478">
        <ele>495</ele>
        <time>2019-11-07T10:23:07Z</time>
      </trkpt>
      <trkpt lat="43.83263" lon="2.41424">
        <ele>499</ele>
        <time>2019-11-07T10:23:39Z</time>
      </trkpt>
      <trkpt lat="43.83253" lon="2.41398">
        <ele>504</ele>
        <time>2019-11-07T10:23:56Z</time>
      </trkpt>
      <trkpt lat="43.83206" lon="2.41324">
        <ele>524</ele>
        <time>2019-11-07T10:24:53Z</time>
      </trkpt>
      <trkpt lat="43.83201" lon="2.4131">
        <ele>527</ele>
        <time>2019-11-07T10:25:02Z</time>
      </trkpt>
      <trkpt lat="43.83198" lon="2.41279">
        <ele>530</ele>
        <time>2019-11-07T10:25:20Z</time>
      </trkpt>
      <trkpt lat="43.83206" lon="2.41254">
        <ele>530</ele>
        <time>2019-11-07T10:25:36Z</time>
      </trkpt>
      <trkpt lat="43.83229" lon="2.4121">
        <ele>531</ele>
        <time>2019-11-07T10:26:07Z</time>
      </trkpt>
      <trkpt lat="43.83256" lon="2.41145">
        <ele>536</ele>
        <time>2019-11-07T10:26:50Z</time>
      </trkpt>
      <trkpt lat="43.83278" lon="2.41116">
        <ele>537</ele>
        <time>2019-11-07T10:27:15Z</time>
      </trkpt>
      <trkpt lat="43.83286" lon="2.411">
        <ele>539</ele>
        <time>2019-11-07T10:27:26Z</time>
      </trkpt>
      <trkpt lat="43.833" lon="2.41055">
        <ele>546</ele>
        <time>2019-11-07T10:27:54Z</time>
      </trkpt>
      <trkpt lat="43.83289" lon="2.4105">
        <ele>548</ele>
        <time>2019-11-07T10:28:03Z</time>
      </trkpt>
      <trkpt lat="43.83284" lon="2.41051">
        <ele>548</ele>
        <time>2019-11-07T10:28:07Z</time>
      </trkpt>
      <trkpt lat="43.83275" lon="2.41053">
        <ele>549</ele>
        <time>2019-11-07T10:28:15Z</time>
      </trkpt>
      <trkpt lat="43.8326" lon="2.41063">
        <ele>549</ele>
        <time>2019-11-07T10:28:28Z</time>
      </trkpt>
      <trkpt lat="43.83193" lon="2.41115">
        <ele>555</ele>
        <time>2019-11-07T10:29:30Z</time>
      </trkpt>
      <trkpt lat="43.83139" lon="2.41177">
        <ele>559</ele>
        <time>2019-11-07T10:30:26Z</time>
      </trkpt>
      <trkpt lat="43.83118" lon="2.41209">
        <ele>563</ele>
        <time>2019-11-07T10:30:51Z</time>
      </trkpt>
      <trkpt lat="43.83063" lon="2.41341">
        <ele>572</ele>
        <time>2019-11-07T10:32:19Z</time>
      </trkpt>
      <trkpt lat="43.83057" lon="2.41349">
        <ele>572</ele>
        <time>2019-11-07T10:32:25Z</time>
      </trkpt>
      <trkpt lat="43.8303" lon="2.41364">
        <ele>576</ele>
        <time>2019-11-07T10:32:49Z</time>
      </trkpt>
      <trkpt lat="43.82975" lon="2.41387">
        <ele>584</ele>
        <time>2019-11-07T10:33:35Z</time>
      </trkpt>
      <trkpt lat="43.82933" lon="2.41419">
        <ele>590</ele>
        <time>2019-11-07T10:34:13Z</time>
      </trkpt>
      <trkpt lat="43.82901" lon="2.4143">
        <ele>592</ele>
        <time>2019-11-07T10:34:39Z</time>
      </trkpt>
      <trkpt lat="43.8288" lon="2.4143">
        <ele>593</ele>
        <time>2019-11-07T10:34:56Z</time>
      </trkpt>
      <trkpt lat="43.8278" lon="2.41412">
        <ele>598</ele>
        <time>2019-11-07T10:36:17Z</time>
      </trkpt>
      <trkpt lat="43.82752" lon="2.41404">
        <ele>599</ele>
        <time>2019-11-07T10:36:40Z</time>
      </trkpt>
      <trkpt lat="43.8269" lon="2.41401">
        <ele>601</ele>
        <time>2019-11-07T10:37:30Z</time>
      </trkpt>
      <trkpt lat="43.82676" lon="2.41394">
        <ele>602</ele>
        <time>2019-11-07T10:37:41Z</time>
      </trkpt>
      <trkpt lat="43.82654" lon="2.41374">
        <ele>602</ele>
        <time>2019-11-07T10:38:03Z</time>
      </trkpt>
      <trkpt lat="43.82626" lon="2.41375">
        <ele>603</ele>
        <time>2019-11-07T10:38:25Z</time>
      </trkpt>
      <trkpt lat="43.82586" lon="2.41363">
        <ele>605</ele>
        <time>2019-11-07T10:38:58Z</time>
      </trkpt>
      <trkpt lat="43.82563" lon="2.41354">
        <ele>605</ele>
        <time>2019-11-07T10:39:17Z</time>
      </trkpt>
      <trkpt lat="43.82555" lon="2.41348">
        <ele>605</ele>
        <time>2019-11-07T10:39:24Z</time>
      </trkpt>
      <trkpt lat="43.8255" lon="2.41339">
        <ele>605</ele>
        <time>2019-11-07T10:39:31Z</time>
      </trkpt>
      <trkpt lat="43.82385" lon="2.4133">
        <ele>612</ele>
        <time>2019-11-07T10:41:43Z</time>
      </trkpt>
      <trkpt lat="43.82369" lon="2.41333">
        <ele>614</ele>
        <time>2019-11-07T10:41:56Z</time>
      </trkpt>
      <trkpt lat="43.82354" lon="2.4134">
        <ele>614</ele>
        <time>2019-11-07T10:42:08Z</time>
      </trkpt>
      <trkpt lat="43.82339" lon="2.41351">
        <ele>613</ele>
        <time>2019-11-07T10:42:22Z</time>
      </trkpt>
      <trkpt lat="43.82264" lon="2.41431">
        <ele>617</ele>
        <time>2019-11-07T10:43:38Z</time>
      </trkpt>
      <trkpt lat="43.82207" lon="2.4151">
        <ele>605</ele>
        <time>2019-11-07T10:44:42Z</time>
      </trkpt>
      <trkpt lat="43.82187" lon="2.41529">
        <ele>603</ele>
        <time>2019-11-07T10:45:02Z</time>
      </trkpt>
      <trkpt lat="43.82173" lon="2.41535">
        <ele>603</ele>
        <time>2019-11-07T10:45:14Z</time>
      </trkpt>
      <trkpt lat="43.82166" lon="2.41534">
        <ele>604</ele>
        <time>2019-11-07T10:45:19Z</time>
      </trkpt>
      <trkpt lat="43.8216" lon="2.4153">
        <ele>603</ele>
        <time>2019-11-07T10:45:25Z</time>
      </trkpt>
      <trkpt lat="43.82146" lon="2.41508">
        <ele>603</ele>
        <time>2019-11-07T10:45:41Z</time>
      </trkpt>
      <trkpt lat="43.82102" lon="2.41367">
        <ele>605</ele>
        <time>2019-11-07T10:47:10Z</time>
      </trkpt>
      <trkpt lat="43.82096" lon="2.41354">
        <ele>604</ele>
        <time>2019-11-07T10:47:19Z</time>
      </trkpt>
      <trkpt lat="43.82081" lon="2.41332">
        <ele>603</ele>
        <time>2019-11-07T10:47:37Z</time>
      </trkpt>
      <trkpt lat="43.8206" lon="2.41308">
        <ele>604</ele>
        <time>2019-11-07T10:47:58Z</time>
      </trkpt>
      <trkpt lat="43.82036" lon="2.41289">
        <ele>605</ele>
        <time>2019-11-07T10:48:21Z</time>
      </trkpt>
      <trkpt lat="43.82017" lon="2.41283">
        <ele>605</ele>
        <time>2019-11-07T10:48:36Z</time>
      </trkpt>
      <trkpt lat="43.82009" lon="2.41284">
        <ele>604</ele>
        <time>2019-11-07T10:48:43Z</time>
      </trkpt>
      <trkpt lat="43.81972" lon="2.41312">
        <ele>601</ele>
        <time>2019-11-07T10:49:16Z</time>
      </trkpt>
      <trkpt lat="43.81954" lon="2.41319">
        <ele>601</ele>
        <time>2019-11-07T10:49:31Z</time>
      </trkpt>
      <trkpt lat="43.81938" lon="2.41317">
        <ele>602</ele>
        <time>2019-11-07T10:49:44Z</time>
      </trkpt>
      <trkpt lat="43.81914" lon="2.41309">
        <ele>604</ele>
        <time>2019-11-07T10:50:04Z</time>
      </trkpt>
      <trkpt lat="43.81905" lon="2.41308">
        <ele>604</ele>
        <time>2019-11-07T10:50:11Z</time>
      </trkpt>
      <trkpt lat="43.81892" lon="2.41311">
        <ele>604</ele>
        <time>2019-11-07T10:50:22Z</time>
      </trkpt>
      <trkpt lat="43.81882" lon="2.4132">
        <ele>603</ele>
        <time>2019-11-07T10:50:31Z</time>
      </trkpt>
      <trkpt lat="43.81861" lon="2.41352">
        <ele>602</ele>
        <time>2019-11-07T10:50:56Z</time>
      </trkpt>
      <trkpt lat="43.8183" lon="2.41412">
        <ele>601</ele>
        <time>2019-11-07T10:51:39Z</time>
      </trkpt>
      <trkpt lat="43.81797" lon="2.41491">
        <ele>597</ele>
        <time>2019-11-07T10:52:32Z</time>
      </trkpt>
      <trkpt lat="43.81784" lon="2.41552">
        <ele>597</ele>
        <time>2019-11-07T10:53:08Z</time>
      </trkpt>
      <trkpt lat="43.81749" lon="2.4164">
        <ele>602</ele>
        <time>2019-11-07T10:54:06Z</time>
      </trkpt>
      <trkpt lat="43.81704" lon="2.41591">
        <ele>598</ele>
        <time>2019-11-07T10:54:52Z</time>
      </trkpt>
      <trkpt lat="43.8167" lon="2.41625">
        <ele>600</ele>
        <time>2019-11-07T10:55:26Z</time>
      </trkpt>
      <trkpt lat="43.81641" lon="2.41642">
        <ele>598</ele>
        <time>2019-11-07T10:55:51Z</time>
      </trkpt>
      <trkpt lat="43.81518" lon="2.41684">
        <ele>585</ele>
        <time>2019-11-07T10:57:32Z</time>
      </trkpt>
      <trkpt lat="43.8149" lon="2.41691">
        <ele>581</ele>
        <time>2019-11-07T10:57:55Z</time>
      </trkpt>
      <trkpt lat="43.81482" lon="2.41689">
        <ele>579</ele>
        <time>2019-11-07T10:58:02Z</time>
      </trkpt>
      <trkpt lat="43.81461" lon="2.41674">
        <ele>574</ele>
        <time>2019-11-07T10:58:21Z</time>
      </trkpt>
      <trkpt lat="43.81435" lon="2.41663">
        <ele>568</ele>
        <time>2019-11-07T10:58:42Z</time>
      </trkpt>
      <trkpt lat="43.81385" lon="2.41728">
        <ele>563</ele>
        <time>2019-11-07T10:59:37Z</time>
      </trkpt>
      <trkpt lat="43.81349" lon="2.41784">
        <ele>557</ele>
        <time>2019-11-07T11:00:21Z</time>
      </trkpt>
      <trkpt lat="43.81331" lon="2.41828">
        <ele>554</ele>
        <time>2019-11-07T11:00:50Z</time>
      </trkpt>
      <trkpt lat="43.81326" lon="2.41858">
        <ele>555</ele>
        <time>2019-11-07T11:01:08Z</time>
      </trkpt>
      <trkpt lat="43.81301" lon="2.41896">
        <ele>557</ele>
        <time>2019-11-07T11:01:37Z</time>
      </trkpt>
      <trkpt lat="43.8129" lon="2.41904">
        <ele>558</ele>
        <time>2019-11-07T11:01:47Z</time>
      </trkpt>
      <trkpt lat="43.81274" lon="2.41892">
        <ele>559</ele>
        <time>2019-11-07T11:02:02Z</time>
      </trkpt>
      <trkpt lat="43.81267" lon="2.41866">
        <ele>559</ele>
        <time>2019-11-07T11:02:18Z</time>
      </trkpt>
      <trkpt lat="43.81259" lon="2.41858">
        <ele>559</ele>
        <time>2019-11-07T11:02:26Z</time>
      </trkpt>
      <trkpt lat="43.81184" lon="2.41908">
        <ele>556</ele>
        <time>2019-11-07T11:03:32Z</time>
      </trkpt>
      <trkpt lat="43.81155" lon="2.41962">
        <ele>558</ele>
        <time>2019-11-07T11:04:11Z</time>
      </trkpt>
      <trkpt lat="43.81135" lon="2.41966">
        <ele>559</ele>
        <time>2019-11-07T11:04:28Z</time>
      </trkpt>
      <trkpt lat="43.81109" lon="2.41975">
        <ele>560</ele>
        <time>2019-11-07T11:04:49Z</time>
      </trkpt>
      <trkpt lat="43.81095" lon="2.42008">
        <ele>561</ele>
        <time>2019-11-07T11:05:11Z</time>
      </trkpt>
      <trkpt lat="43.81083" lon="2.42025">
        <ele>562</ele>
        <time>2019-11-07T11:05:25Z</time>
      </trkpt>
      <trkpt lat="43.81064" lon="2.41986">
        <ele>563</ele>
        <time>2019-11-07T11:05:52Z</time>
      </trkpt>
      <trkpt lat="43.81067" lon="2.41938">
        <ele>563</ele>
        <time>2019-11-07T11:06:20Z</time>
      </trkpt>
      <trkpt lat="43.81066" lon="2.41904">
        <ele>563</ele>
        <time>2019-11-07T11:06:40Z</time>
      </trkpt>
      <trkpt lat="43.81049" lon="2.41866">
        <ele>567</ele>
        <time>2019-11-07T11:07:05Z</time>
      </trkpt>
      <trkpt lat="43.81011" lon="2.41759">
        <ele>576</ele>
        <time>2019-11-07T11:08:14Z</time>
      </trkpt>
      <trkpt lat="43.80991" lon="2.41721">
        <ele>578</ele>
        <time>2019-11-07T11:08:41Z</time>
      </trkpt>
      <trkpt lat="43.80938" lon="2.41655">
        <ele>583</ele>
        <time>2019-11-07T11:09:38Z</time>
      </trkpt>
      <trkpt lat="43.8091" lon="2.41648">
        <ele>586</ele>
        <time>2019-11-07T11:10:01Z</time>
      </trkpt>
      <trkpt lat="43.80871" lon="2.41655">
        <ele>592</ele>
        <time>2019-11-07T11:10:33Z</time>
      </trkpt>
      <trkpt lat="43.80772" lon="2.41664">
        <ele>594</ele>
        <time>2019-11-07T11:11:52Z</time>
      </trkpt>
      <trkpt lat="43.80756" lon="2.41677">
        <ele>594</ele>
        <time>2019-11-07T11:12:07Z</time>
      </trkpt>
      <trkpt lat="43.80703" lon="2.41754">
        <ele>589</ele>
        <time>2019-11-07T11:13:09Z</time>
      </trkpt>
      <trkpt lat="43.80602" lon="2.41864">
        <ele>571</ele>
        <time>2019-11-07T11:14:51Z</time>
      </trkpt>
      <trkpt lat="43.80579" lon="2.41877">
        <ele>568</ele>
        <time>2019-11-07T11:15:11Z</time>
      </trkpt>
      <trkpt lat="43.80571" lon="2.41877">
        <ele>567</ele>
        <time>2019-11-07T11:15:18Z</time>
      </trkpt>
      <trkpt lat="43.80562" lon="2.41872">
        <ele>565</ele>
        <time>2019-11-07T11:15:25Z</time>
      </trkpt>
      <trkpt lat="43.80548" lon="2.4183">
        <ele>563</ele>
        <time>2019-11-07T11:15:52Z</time>
      </trkpt>
      <trkpt lat="43.80531" lon="2.4179">
        <ele>560</ele>
        <time>2019-11-07T11:16:19Z</time>
      </trkpt>
      <trkpt lat="43.80489" lon="2.41642">
        <ele>561</ele>
        <time>2019-11-07T11:17:51Z</time>
      </trkpt>
      <trkpt lat="43.80474" lon="2.41626">
        <ele>565</ele>
        <time>2019-11-07T11:18:06Z</time>
      </trkpt>
      <trkpt lat="43.80465" lon="2.41605">
        <ele>567</ele>
        <time>2019-11-07T11:18:20Z</time>
      </trkpt>
      <trkpt lat="43.80398" lon="2.4141">
        <ele>583</ele>
        <time>2019-11-07T11:20:25Z</time>
      </trkpt>
      <trkpt lat="43.80364" lon="2.4136">
        <ele>588</ele>
        <time>2019-11-07T11:21:05Z</time>
      </trkpt>
      <trkpt lat="43.80314" lon="2.41305">
        <ele>595</ele>
        <time>2019-11-07T11:21:56Z</time>
      </trkpt>
      <trkpt lat="43.80293" lon="2.41286">
        <ele>595</ele>
        <time>2019-11-07T11:22:16Z</time>
      </trkpt>
      <trkpt lat="43.80268" lon="2.41269">
        <ele>596</ele>
        <time>2019-11-07T11:22:38Z</time>
      </trkpt>
      <trkpt lat="43.80194" lon="2.41208">
        <ele>600</ele>
        <time>2019-11-07T11:23:47Z</time>
      </trkpt>
      <trkpt lat="43.80179" lon="2.41192">
        <ele>601</ele>
        <time>2019-11-07T11:24:02Z</time>
      </trkpt>
      <trkpt lat="43.80145" lon="2.41147">
        <ele>604</ele>
        <time>2019-11-07T11:24:40Z</time>
      </trkpt>
      <trkpt lat="43.80125" lon="2.41137">
        <ele>606</ele>
        <time>2019-11-07T11:24:57Z</time>
      </trkpt>
      <trkpt lat="43.80091" lon="2.41153">
        <ele>607</ele>
        <time>2019-11-07T11:25:26Z</time>
      </trkpt>
      <trkpt lat="43.80097" lon="2.41106">
        <ele>607</ele>
        <time>2019-11-07T11:25:53Z</time>
      </trkpt>
      <trkpt lat="43.80102" lon="2.41002">
        <ele>610</ele>
        <time>2019-11-07T11:26:53Z</time>
      </trkpt>
      <trkpt lat="43.80098" lon="2.40948">
        <ele>611</ele>
        <time>2019-11-07T11:27:25Z</time>
      </trkpt>
      <trkpt lat="43.80114" lon="2.40817">
        <ele>617</ele>
        <time>2019-11-07T11:28:42Z</time>
      </trkpt>
      <trkpt lat="43.80133" lon="2.4071">
        <ele>618</ele>
        <time>2019-11-07T11:29:45Z</time>
      </trkpt>
      <trkpt lat="43.80148" lon="2.40642">
        <ele>617</ele>
        <time>2019-11-07T11:30:26Z</time>
      </trkpt>
      <trkpt lat="43.80196" lon="2.40487">
        <ele>612</ele>
        <time>2019-11-07T11:32:04Z</time>
      </trkpt>
      <trkpt lat="43.80209" lon="2.4046">
        <ele>613</ele>
        <time>2019-11-07T11:32:23Z</time>
      </trkpt>
      <trkpt lat="43.80242" lon="2.40373">
        <ele>616</ele>
        <time>2019-11-07T11:33:19Z</time>
      </trkpt>
      <trkpt lat="43.80256" lon="2.4023">
        <ele>623</ele>
        <time>2019-11-07T11:34:43Z</time>
      </trkpt>
      <trkpt lat="43.80251" lon="2.40207">
        <ele>624</ele>
        <time>2019-11-07T11:34:57Z</time>
      </trkpt>
      <trkpt lat="43.80242" lon="2.40186">
        <ele>624</ele>
        <time>2019-11-07T11:35:11Z</time>
      </trkpt>
      <trkpt lat="43.80207" lon="2.40141">
        <ele>624</ele>
        <time>2019-11-07T11:35:49Z</time>
      </trkpt>
      <trkpt lat="43.802" lon="2.40127">
        <ele>624</ele>
        <time>2019-11-07T11:35:59Z</time>
      </trkpt>
      <trkpt lat="43.8019" lon="2.40068">
        <ele>625</ele>
        <time>2019-11-07T11:36:34Z</time>
      </trkpt>
      <trkpt lat="43.8019" lon="2.40029">
        <ele>624</ele>
        <time>2019-11-07T11:36:56Z</time>
      </trkpt>
      <trkpt lat="43.80211" lon="2.3987">
        <ele>619</ele>
        <time>2019-11-07T11:38:30Z</time>
      </trkpt>
      <trkpt lat="43.80231" lon="2.39757">
        <ele>620</ele>
        <time>2019-11-07T11:39:37Z</time>
      </trkpt>
      <trkpt lat="43.80239" lon="2.39694">
        <ele>618</ele>
        <time>2019-11-07T11:40:14Z</time>
      </trkpt>
      <trkpt lat="43.80277" lon="2.39517">
        <ele>605</ele>
        <time>2019-11-07T11:42:01Z</time>
      </trkpt>
      <trkpt lat="43.80298" lon="2.39395">
        <ele>597</ele>
        <time>2019-11-07T11:43:13Z</time>
      </trkpt>
      <trkpt lat="43.80301" lon="2.3936">
        <ele>595</ele>
        <time>2019-11-07T11:43:34Z</time>
      </trkpt>
      <trkpt lat="43.803" lon="2.39275">
        <ele>591</ele>
        <time>2019-11-07T11:44:23Z</time>
      </trkpt>
      <trkpt lat="43.80302" lon="2.39245">
        <ele>589</ele>
        <time>2019-11-07T11:44:40Z</time>
      </trkpt>
      <trkpt lat="43.8031" lon="2.39202">
        <ele>588</ele>
        <time>2019-11-07T11:45:06Z</time>
      </trkpt>
      <trkpt lat="43.80311" lon="2.39183">
        <ele>587</ele>
        <time>2019-11-07T11:45:17Z</time>
      </trkpt>
      <trkpt lat="43.80322" lon="2.3915">
        <ele>587</ele>
        <time>2019-11-07T11:45:38Z</time>
      </trkpt>
      <trkpt lat="43.80319" lon="2.39088">
        <ele>586</ele>
        <time>2019-11-07T11:46:14Z</time>
      </trkpt>
      <trkpt lat="43.80304" lon="2.38974">
        <ele>579</ele>
        <time>2019-11-07T11:47:21Z</time>
      </trkpt>
      <trkpt lat="43.80299" lon="2.38913">
        <ele>578</ele>
        <time>2019-11-07T11:47:56Z</time>
      </trkpt>
      <trkpt lat="43.80301" lon="2.38902">
        <ele>578</ele>
        <time>2019-11-07T11:48:03Z</time>
      </trkpt>
      <trkpt lat="43.80296" lon="2.38891">
        <ele>578</ele>
        <time>2019-11-07T11:48:10Z</time>
      </trkpt>
      <trkpt lat="43.80295" lon="2.38867">
        <ele>578</ele>
        <time>2019-11-07T11:48:24Z</time>
      </trkpt>
      <trkpt lat="43.80318" lon="2.3823">
        <ele>560</ele>
        <time>2019-11-07T11:54:33Z</time>
      </trkpt>
      <trkpt lat="43.80321" lon="2.38169">
        <ele>559</ele>
        <time>2019-11-07T11:55:08Z</time>
      </trkpt>
      <trkpt lat="43.80333" lon="2.38074">
        <ele>557</ele>
        <time>2019-11-07T11:56:04Z</time>
      </trkpt>
      <trkpt lat="43.8029" lon="2.38122">
        <ele>559</ele>
        <time>2019-11-07T11:56:48Z</time>
      </trkpt>
      <trkpt lat="43.80189" lon="2.3822">
        <ele>560</ele>
        <time>2019-11-07T11:58:27Z</time>
      </trkpt>
      <trkpt lat="43.80143" lon="2.38253">
        <ele>560</ele>
        <time>2019-11-07T11:59:08Z</time>
      </trkpt>
      <trkpt lat="43.80148" lon="2.38127">
        <ele>561</ele>
        <time>2019-11-07T12:00:21Z</time>
      </trkpt>
      <trkpt lat="43.80146" lon="2.38049">
        <ele>564</ele>
        <time>2019-11-07T12:01:06Z</time>
      </trkpt>
      <trkpt lat="43.80132" lon="2.37974">
        <ele>569</ele>
        <time>2019-11-07T12:01:51Z</time>
      </trkpt>
      <trkpt lat="43.80115" lon="2.37921">
        <ele>573</ele>
        <time>2019-11-07T12:02:24Z</time>
      </trkpt>
      <trkpt lat="43.801" lon="2.37861">
        <ele>577</ele>
        <time>2019-11-07T12:03:01Z</time>
      </trkpt>
      <trkpt lat="43.80097" lon="2.37811">
        <ele>580</ele>
        <time>2019-11-07T12:03:30Z</time>
      </trkpt>
      <trkpt lat="43.80099" lon="2.3766">
        <ele>584</ele>
        <time>2019-11-07T12:04:57Z</time>
      </trkpt>
      <trkpt lat="43.8009" lon="2.37543">
        <ele>583</ele>
        <time>2019-11-07T12:06:05Z</time>
      </trkpt>
      <trkpt lat="43.80089" lon="2.37487">
        <ele>581</ele>
        <time>2019-11-07T12:06:38Z</time>
      </trkpt>
      <trkpt lat="43.80091" lon="2.3744">
        <ele>580</ele>
        <time>2019-11-07T12:07:05Z</time>
      </trkpt>
      <trkpt lat="43.80114" lon="2.37358">
        <ele>579</ele>
        <time>2019-11-07T12:07:56Z</time>
      </trkpt>
      <trkpt lat="43.80155" lon="2.37299">
        <ele>576</ele>
        <time>2019-11-07T12:08:43Z</time>
      </trkpt>
      <trkpt lat="43.80166" lon="2.3728">
        <ele>575</ele>
        <time>2019-11-07T12:08:57Z</time>
      </trkpt>
      <trkpt lat="43.80175" lon="2.37257">
        <ele>574</ele>
        <time>2019-11-07T12:09:12Z</time>
      </trkpt>
      <trkpt lat="43.80185" lon="2.37134">
        <ele>566</ele>
        <time>2019-11-07T12:10:24Z</time>
      </trkpt>
      <trkpt lat="43.802" lon="2.37002">
        <ele>560</ele>
        <time>2019-11-07T12:11:41Z</time>
      </trkpt>
      <trkpt lat="43.80202" lon="2.36957">
        <ele>559</ele>
        <time>2019-11-07T12:12:07Z</time>
      </trkpt>
      <trkpt lat="43.80208" lon="2.36927">
        <ele>558</ele>
        <time>2019-11-07T12:12:25Z</time>
      </trkpt>
      <trkpt lat="43.80217" lon="2.3695">
        <ele>558</ele>
        <time>2019-11-07T12:12:40Z</time>
      </trkpt>
      <trkpt lat="43.80249" lon="2.37004">
        <ele>560</ele>
        <time>2019-11-07T12:13:21Z</time>
      </trkpt>
      <trkpt lat="43.80265" lon="2.37038">
        <ele>558</ele>
        <time>2019-11-07T12:13:44Z</time>
      </trkpt>
      <trkpt lat="43.803" lon="2.37152">
        <ele>554</ele>
        <time>2019-11-07T12:14:56Z</time>
      </trkpt>
      <trkpt lat="43.8031" lon="2.37178">
        <ele>553</ele>
        <time>2019-11-07T12:15:13Z</time>
      </trkpt>
      <trkpt lat="43.80314" lon="2.37173">
        <ele>552</ele>
        <time>2019-11-07T12:15:17Z</time>
      </trkpt>
      <trkpt lat="43.80323" lon="2.37142">
        <ele>550</ele>
        <time>2019-11-07T12:15:36Z</time>
      </trkpt>
      <trkpt lat="43.80327" lon="2.37136">
        <ele>550</ele>
        <time>2019-11-07T12:15:41Z</time>
      </trkpt>
      <trkpt lat="43.80386" lon="2.36969">
        <ele>546</ele>
        <time>2019-11-07T12:17:29Z</time>
      </trkpt>
      <trkpt lat="43.80403" lon="2.36905">
        <ele>543</ele>
        <time>2019-11-07T12:18:08Z</time>
      </trkpt>
      <trkpt lat="43.8041" lon="2.3689">
        <ele>542</ele>
        <time>2019-11-07T12:18:18Z</time>
      </trkpt>
      <trkpt lat="43.80421" lon="2.36845">
        <ele>540</ele>
        <time>2019-11-07T12:18:46Z</time>
      </trkpt>
      <trkpt lat="43.80412" lon="2.36829">
        <ele>539</ele>
        <time>2019-11-07T12:18:57Z</time>
      </trkpt>
      <trkpt lat="43.80406" lon="2.3679">
        <ele>539</ele>
        <time>2019-11-07T12:19:20Z</time>
      </trkpt>
      <trkpt lat="43.80429" lon="2.36756">
        <ele>538</ele>
        <time>2019-11-07T12:19:47Z</time>
      </trkpt>
      <trkpt lat="43.80434" lon="2.36736">
        <ele>537</ele>
        <time>2019-11-07T12:20:00Z</time>
      </trkpt>
      <trkpt lat="43.80427" lon="2.3662">
        <ele>528</ele>
        <time>2019-11-07T12:21:07Z</time>
      </trkpt>
      <trkpt lat="43.80428" lon="2.36508">
        <ele>521</ele>
        <time>2019-11-07T12:22:12Z</time>
      </trkpt>
      <trkpt lat="43.8043" lon="2.36495">
        <ele>520</ele>
        <time>2019-11-07T12:22:19Z</time>
      </trkpt>
      <trkpt lat="43.80434" lon="2.36484">
        <ele>520</ele>
        <time>2019-11-07T12:22:26Z</time>
      </trkpt>
      <trkpt lat="43.80444" lon="2.36471">
        <ele>520</ele>
        <time>2019-11-07T12:22:37Z</time>
      </trkpt>
      <trkpt lat="43.80471" lon="2.36443">
        <ele>516</ele>
        <time>2019-11-07T12:23:04Z</time>
      </trkpt>
      <trkpt lat="43.80488" lon="2.36432">
        <ele>514</ele>
        <time>2019-11-07T12:23:19Z</time>
      </trkpt>
      <trkpt lat="43.80505" lon="2.36416">
        <ele>511</ele>
        <time>2019-11-07T12:23:36Z</time>
      </trkpt>
      <trkpt lat="43.80575" lon="2.36383">
        <ele>498</ele>
        <time>2019-11-07T12:24:35Z</time>
      </trkpt>
      <trkpt lat="43.80607" lon="2.36355">
        <ele>490</ele>
        <time>2019-11-07T12:25:05Z</time>
      </trkpt>
      <trkpt lat="43.80633" lon="2.36279">
        <ele>479</ele>
        <time>2019-11-07T12:25:54Z</time>
      </trkpt>
      <trkpt lat="43.80634" lon="2.36249">
        <ele>477</ele>
        <time>2019-11-07T12:26:11Z</time>
      </trkpt>
      <trkpt lat="43.80618" lon="2.36218">
        <ele>478</ele>
        <time>2019-11-07T12:26:33Z</time>
      </trkpt>
      <trkpt lat="43.80598" lon="2.36131">
        <ele>473</ele>
        <time>2019-11-07T12:27:26Z</time>
      </trkpt>
      <trkpt lat="43.80541" lon="2.36013">
        <ele>465</ele>
        <time>2019-11-07T12:28:48Z</time>
      </trkpt>
      <trkpt lat="43.80508" lon="2.35962">
        <ele>461</ele>
        <time>2019-11-07T12:29:28Z</time>
      </trkpt>
      <trkpt lat="43.80458" lon="2.35868">
        <ele>452</ele>
        <time>2019-11-07T12:30:35Z</time>
      </trkpt>
      <trkpt lat="43.80461" lon="2.35829">
        <ele>447</ele>
        <time>2019-11-07T12:30:58Z</time>
      </trkpt>
      <trkpt lat="43.80483" lon="2.35825">
        <ele>447</ele>
        <time>2019-11-07T12:31:16Z</time>
      </trkpt>
      <trkpt lat="43.80486" lon="2.35823">
        <ele>447</ele>
        <time>2019-11-07T12:31:18Z</time>
      </trkpt>
      <trkpt lat="43.80487" lon="2.35813">
        <ele>446</ele>
        <time>2019-11-07T12:31:24Z</time>
      </trkpt>
      <trkpt lat="43.8048" lon="2.35757">
        <ele>439</ele>
        <time>2019-11-07T12:31:57Z</time>
      </trkpt>
      <trkpt lat="43.8047" lon="2.35714">
        <ele>434</ele>
        <time>2019-11-07T12:32:23Z</time>
      </trkpt>
      <trkpt lat="43.80462" lon="2.35645">
        <ele>429</ele>
        <time>2019-11-07T12:33:03Z</time>
      </trkpt>
      <trkpt lat="43.80456" lon="2.35565">
        <ele>427</ele>
        <time>2019-11-07T12:33:50Z</time>
      </trkpt>
      <trkpt lat="43.80452" lon="2.3554">
        <ele>426</ele>
        <time>2019-11-07T12:34:05Z</time>
      </trkpt>
      <trkpt lat="43.80442" lon="2.35504">
        <ele>425</ele>
        <time>2019-11-07T12:34:27Z</time>
      </trkpt>
      <trkpt lat="43.80432" lon="2.35476">
        <ele>423</ele>
        <time>2019-11-07T12:34:45Z</time>
      </trkpt>
      <trkpt lat="43.80397" lon="2.354">
        <ele>418</ele>
        <time>2019-11-07T12:35:37Z</time>
      </trkpt>
      <trkpt lat="43.80392" lon="2.35386">
        <ele>417</ele>
        <time>2019-11-07T12:35:46Z</time>
      </trkpt>
      <trkpt lat="43.80386" lon="2.35353">
        <ele>415</ele>
        <time>2019-11-07T12:36:06Z</time>
      </trkpt>
      <trkpt lat="43.80392" lon="2.35344">
        <ele>415</ele>
        <time>2019-11-07T12:36:13Z</time>
      </trkpt>
      <trkpt lat="43.8041" lon="2.35331">
        <ele>416</ele>
        <time>2019-11-07T12:36:29Z</time>
      </trkpt>
      <trkpt lat="43.80495" lon="2.35283">
        <ele>414</ele>
        <time>2019-11-07T12:37:43Z</time>
      </trkpt>
      <trkpt lat="43.80528" lon="2.35277">
        <ele>413</ele>
        <time>2019-11-07T12:38:09Z</time>
      </trkpt>
      <trkpt lat="43.80585" lon="2.35278">
        <ele>413</ele>
        <time>2019-11-07T12:38:55Z</time>
      </trkpt>
      <trkpt lat="43.80625" lon="2.35274">
        <ele>408</ele>
        <time>2019-11-07T12:39:27Z</time>
      </trkpt>
      <trkpt lat="43.80669" lon="2.35284">
        <ele>405</ele>
        <time>2019-11-07T12:40:03Z</time>
      </trkpt>
      <trkpt lat="43.80744" lon="2.35341">
        <ele>403</ele>
        <time>2019-11-07T12:41:11Z</time>
      </trkpt>
      <trkpt lat="43.80759" lon="2.35355">
        <ele>402</ele>
        <time>2019-11-07T12:41:26Z</time>
      </trkpt>
      <trkpt lat="43.80763" lon="2.35334">
        <ele>403</ele>
        <time>2019-11-07T12:41:38Z</time>
      </trkpt>
      <trkpt lat="43.80813" lon="2.35256">
        <ele>393</ele>
        <time>2019-11-07T12:42:39Z</time>
      </trkpt>
      <trkpt lat="43.80859" lon="2.35197">
        <ele>393</ele>
        <time>2019-11-07T12:43:29Z</time>
      </trkpt>
      <trkpt lat="43.80872" lon="2.35092">
        <ele>390</ele>
        <time>2019-11-07T12:44:30Z</time>
      </trkpt>
      <trkpt lat="43.80843" lon="2.34993">
        <ele>383</ele>
        <time>2019-11-07T12:45:32Z</time>
      </trkpt>
      <trkpt lat="43.80839" lon="2.3496">
        <ele>381</ele>
        <time>2019-11-07T12:45:51Z</time>
      </trkpt>
      <trkpt lat="43.80838" lon="2.34933">
        <ele>381</ele>
        <time>2019-11-07T12:46:07Z</time>
      </trkpt>
      <trkpt lat="43.8084" lon="2.34895">
        <ele>381</ele>
        <time>2019-11-07T12:46:29Z</time>
      </trkpt>
      <trkpt lat="43.80845" lon="2.34861">
        <ele>381</ele>
        <time>2019-11-07T12:46:49Z</time>
      </trkpt>
      <trkpt lat="43.80844" lon="2.34847">
        <ele>381</ele>
        <time>2019-11-07T12:46:57Z</time>
      </trkpt>
      <trkpt lat="43.80833" lon="2.34841">
        <ele>378</ele>
        <time>2019-11-07T12:47:07Z</time>
      </trkpt>
      <trkpt lat="43.80816" lon="2.34863">
        <ele>376</ele>
        <time>2019-11-07T12:47:25Z</time>
      </trkpt>
      <trkpt lat="43.8081" lon="2.34905">
        <ele>377</ele>
        <time>2019-11-07T12:47:50Z</time>
      </trkpt>
      <trkpt lat="43.80776" lon="2.35045">
        <ele>370</ele>
        <time>2019-11-07T12:49:15Z</time>
      </trkpt>
      <trkpt lat="43.80764" lon="2.35072">
        <ele>368</ele>
        <time>2019-11-07T12:49:34Z</time>
      </trkpt>
      <trkpt lat="43.80751" lon="2.3509">
        <ele>367</ele>
        <time>2019-11-07T12:49:48Z</time>
      </trkpt>
      <trkpt lat="43.80734" lon="2.35097">
        <ele>367</ele>
        <time>2019-11-07T12:50:03Z</time>
      </trkpt>
      <trkpt lat="43.80696" lon="2.35087">
        <ele>365</ele>
        <time>2019-11-07T12:50:34Z</time>
      </trkpt>
      <trkpt lat="43.80677" lon="2.35086">
        <ele>365</ele>
        <time>2019-11-07T12:50:49Z</time>
      </trkpt>
      <trkpt lat="43.80648" lon="2.35107">
        <ele>367</ele>
        <time>2019-11-07T12:51:15Z</time>
      </trkpt>
      <trkpt lat="43.80559" lon="2.35148">
        <ele>378</ele>
        <time>2019-11-07T12:52:30Z</time>
      </trkpt>
      <trkpt lat="43.80488" lon="2.35166">
        <ele>392</ele>
        <time>2019-11-07T12:53:28Z</time>
      </trkpt>
      <trkpt lat="43.80464" lon="2.35139">
        <ele>387</ele>
        <time>2019-11-07T12:53:53Z</time>
      </trkpt>
      <trkpt lat="43.80407" lon="2.35051">
        <ele>376</ele>
        <time>2019-11-07T12:55:01Z</time>
      </trkpt>
      <trkpt lat="43.80381" lon="2.35019">
        <ele>372</ele>
        <time>2019-11-07T12:55:29Z</time>
      </trkpt>
      <trkpt lat="43.80355" lon="2.35005">
        <ele>374</ele>
        <time>2019-11-07T12:55:51Z</time>
      </trkpt>
      <trkpt lat="43.80322" lon="2.35002">
        <ele>379</ele>
        <time>2019-11-07T12:56:18Z</time>
      </trkpt>
      <trkpt lat="43.80292" lon="2.34982">
        <ele>374</ele>
        <time>2019-11-07T12:56:44Z</time>
      </trkpt>
      <trkpt lat="43.80262" lon="2.34958">
        <ele>371</ele>
        <time>2019-11-07T12:57:12Z</time>
      </trkpt>
      <trkpt lat="43.80241" lon="2.34929">
        <ele>366</ele>
        <time>2019-11-07T12:57:36Z</time>
      </trkpt>
      <trkpt lat="43.80229" lon="2.34884">
        <ele>360</ele>
        <time>2019-11-07T12:58:04Z</time>
      </trkpt>
      <trkpt lat="43.80223" lon="2.34634">
        <ele>337</ele>
        <time>2019-11-07T13:00:28Z</time>
      </trkpt>
      <trkpt lat="43.80201" lon="2.34581">
        <ele>334</ele>
        <time>2019-11-07T13:01:03Z</time>
      </trkpt>
      <trkpt lat="43.80156" lon="2.34539">
        <ele>339</ele>
        <time>2019-11-07T13:01:47Z</time>
      </trkpt>
      <trkpt lat="43.80139" lon="2.34543">
        <ele>341</ele>
        <time>2019-11-07T13:02:01Z</time>
      </trkpt>
      <trkpt lat="43.80113" lon="2.3458">
        <ele>338</ele>
        <time>2019-11-07T13:02:31Z</time>
      </trkpt>
      <trkpt lat="43.80024" lon="2.34727">
        <ele>339</ele>
        <time>2019-11-07T13:04:21Z</time>
      </trkpt>
      <trkpt lat="43.80019" lon="2.34787">
        <ele>337</ele>
        <time>2019-11-07T13:04:56Z</time>
      </trkpt>
      <trkpt lat="43.80009" lon="2.34821">
        <ele>335</ele>
        <time>2019-11-07T13:05:18Z</time>
      </trkpt>
      <trkpt lat="43.79983" lon="2.34878">
        <ele>335</ele>
        <time>2019-11-07T13:05:57Z</time>
      </trkpt>
      <trkpt lat="43.79979" lon="2.34892">
        <ele>334</ele>
        <time>2019-11-07T13:06:05Z</time>
      </trkpt>
      <trkpt lat="43.79974" lon="2.3492">
        <ele>333</ele>
        <time>2019-11-07T13:06:22Z</time>
      </trkpt>
      <trkpt lat="43.79972" lon="2.34982">
        <ele>333</ele>
        <time>2019-11-07T13:06:58Z</time>
      </trkpt>
      <trkpt lat="43.79964" lon="2.35018">
        <ele>334</ele>
        <time>2019-11-07T13:07:20Z</time>
      </trkpt>
      <trkpt lat="43.79943" lon="2.35064">
        <ele>337</ele>
        <time>2019-11-07T13:07:51Z</time>
      </trkpt>
      <trkpt lat="43.79924" lon="2.35088">
        <ele>337</ele>
        <time>2019-11-07T13:08:12Z</time>
      </trkpt>
      <trkpt lat="43.79894" lon="2.35108">
        <ele>336</ele>
        <time>2019-11-07T13:08:38Z</time>
      </trkpt>
      <trkpt lat="43.79847" lon="2.35121">
        <ele>332</ele>
        <time>2019-11-07T13:09:17Z</time>
      </trkpt>
      <trkpt lat="43.79816" lon="2.35112">
        <ele>330</ele>
        <time>2019-11-07T13:09:42Z</time>
      </trkpt>
      <trkpt lat="43.79795" lon="2.35101">
        <ele>328</ele>
        <time>2019-11-07T13:10:00Z</time>
      </trkpt>
      <trkpt lat="43.7979" lon="2.35113">
        <ele>330</ele>
        <time>2019-11-07T13:10:08Z</time>
      </trkpt>
      <trkpt lat="43.79783" lon="2.35154">
        <ele>337</ele>
        <time>2019-11-07T13:10:32Z</time>
      </trkpt>
      <trkpt lat="43.79773" lon="2.35159">
        <ele>338</ele>
        <time>2019-11-07T13:10:41Z</time>
      </trkpt>
      <trkpt lat="43.79766" lon="2.35156">
        <ele>338</ele>
        <time>2019-11-07T13:10:47Z</time>
      </trkpt>
      <trkpt lat="43.79762" lon="2.35137">
        <ele>335</ele>
        <time>2019-11-07T13:10:58Z</time>
      </trkpt>
      <trkpt lat="43.79754" lon="2.35129">
        <ele>334</ele>
        <time>2019-11-07T13:11:06Z</time>
      </trkpt>
      <trkpt lat="43.79727" lon="2.35126">
        <ele>339</ele>
        <time>2019-11-07T13:11:28Z</time>
      </trkpt>
      <trkpt lat="43.797" lon="2.35118">
        <ele>342</ele>
        <time>2019-11-07T13:11:50Z</time>
      </trkpt>
      <trkpt lat="43.79667" lon="2.35101">
        <ele>345</ele>
        <time>2019-11-07T13:12:18Z</time>
      </trkpt>
      <trkpt lat="43.79631" lon="2.35064">
        <ele>345</ele>
        <time>2019-11-07T13:12:54Z</time>
      </trkpt>
      <trkpt lat="43.79613" lon="2.35039">
        <ele>344</ele>
        <time>2019-11-07T13:13:14Z</time>
      </trkpt>
      <trkpt lat="43.79605" lon="2.35023">
        <ele>342</ele>
        <time>2019-11-07T13:13:26Z</time>
      </trkpt>
      <trkpt lat="43.79585" lon="2.3501">
        <ele>343</ele>
        <time>2019-11-07T13:13:43Z</time>
      </trkpt>
      <trkpt lat="43.79566" lon="2.34993">
        <ele>345</ele>
        <time>2019-11-07T13:14:01Z</time>
      </trkpt>
      <trkpt lat="43.79543" lon="2.34954">
        <ele>344</ele>
        <time>2019-11-07T13:14:30Z</time>
      </trkpt>
      <trkpt lat="43.79524" lon="2.34912">
        <ele>342</ele>
        <time>2019-11-07T13:14:59Z</time>
      </trkpt>
      <trkpt lat="43.79504" lon="2.34859">
        <ele>342</ele>
        <time>2019-11-07T13:15:34Z</time>
      </trkpt>
      <trkpt lat="43.79492" lon="2.34814">
        <ele>341</ele>
        <time>2019-11-07T13:16:01Z</time>
      </trkpt>
      <trkpt lat="43.79488" lon="2.3475">
        <ele>337</ele>
        <time>2019-11-07T13:16:38Z</time>
      </trkpt>
      <trkpt lat="43.79476" lon="2.34649">
        <ele>335</ele>
        <time>2019-11-07T13:17:38Z</time>
      </trkpt>
      <trkpt lat="43.79468" lon="2.34608">
        <ele>336</ele>
        <time>2019-11-07T13:18:02Z</time>
      </trkpt>
      <trkpt lat="43.79444" lon="2.34535">
        <ele>341</ele>
        <time>2019-11-07T13:18:49Z</time>
      </trkpt>
      <trkpt lat="43.79442" lon="2.34503">
        <ele>341</ele>
        <time>2019-11-07T13:19:07Z</time>
      </trkpt>
      <trkpt lat="43.79447" lon="2.34462">
        <ele>338</ele>
        <time>2019-11-07T13:19:31Z</time>
      </trkpt>
      <trkpt lat="43.79471" lon="2.34339">
        <ele>327</ele>
        <time>2019-11-07T13:20:45Z</time>
      </trkpt>
      <trkpt lat="43.79479" lon="2.34256">
        <ele>320</ele>
        <time>2019-11-07T13:21:33Z</time>
      </trkpt>
      <trkpt lat="43.79477" lon="2.34233">
        <ele>320</ele>
        <time>2019-11-07T13:21:47Z</time>
      </trkpt>
      <trkpt lat="43.79456" lon="2.34213">
        <ele>320</ele>
        <time>2019-11-07T13:22:07Z</time>
      </trkpt>
      <trkpt lat="43.79423" lon="2.3419">
        <ele>317</ele>
        <time>2019-11-07T13:22:37Z</time>
      </trkpt>
      <trkpt lat="43.79407" lon="2.34158">
        <ele>315</ele>
        <time>2019-11-07T13:22:59Z</time>
      </trkpt>
      <trkpt lat="43.79408" lon="2.34147">
        <ele>314</ele>
        <time>2019-11-07T13:23:05Z</time>
      </trkpt>
      <trkpt lat="43.79406" lon="2.34139">
        <ele>314</ele>
        <time>2019-11-07T13:23:10Z</time>
      </trkpt>
      <trkpt lat="43.79403" lon="2.34139">
        <ele>315</ele>
        <time>2019-11-07T13:23:13Z</time>
      </trkpt>
      <trkpt lat="43.79388" lon="2.34153">
        <ele>320</ele>
        <time>2019-11-07T13:23:27Z</time>
      </trkpt>
      <trkpt lat="43.79365" lon="2.34152">
        <ele>327</ele>
        <time>2019-11-07T13:23:46Z</time>
      </trkpt>
      <trkpt lat="43.79335" lon="2.34144">
        <ele>333</ele>
        <time>2019-11-07T13:24:10Z</time>
      </trkpt>
      <trkpt lat="43.79298" lon="2.34122">
        <ele>341</ele>
        <time>2019-11-07T13:24:42Z</time>
      </trkpt>
      <trkpt lat="43.79285" lon="2.34111">
        <ele>343</ele>
        <time>2019-11-07T13:24:55Z</time>
      </trkpt>
      <trkpt lat="43.79247" lon="2.34067">
        <ele>347</ele>
        <time>2019-11-07T13:25:34Z</time>
      </trkpt>
      <trkpt lat="43.79234" lon="2.34063">
        <ele>348</ele>
        <time>2019-11-07T13:25:45Z</time>
      </trkpt>
      <trkpt lat="43.79222" lon="2.34067">
        <ele>349</ele>
        <time>2019-11-07T13:25:55Z</time>
      </trkpt>
      <trkpt lat="43.79218" lon="2.34083">
        <ele>353</ele>
        <time>2019-11-07T13:26:05Z</time>
      </trkpt>
      <trkpt lat="43.79214" lon="2.34083">
        <ele>353</ele>
        <time>2019-11-07T13:26:08Z</time>
      </trkpt>
      <trkpt lat="43.79208" lon="2.34074">
        <ele>352</ele>
        <time>2019-11-07T13:26:15Z</time>
      </trkpt>
      <trkpt lat="43.79202" lon="2.34073">
        <ele>352</ele>
        <time>2019-11-07T13:26:20Z</time>
      </trkpt>
      <trkpt lat="43.79181" lon="2.34114">
        <ele>364</ele>
        <time>2019-11-07T13:26:49Z</time>
      </trkpt>
      <trkpt lat="43.79178" lon="2.34129">
        <ele>368</ele>
        <time>2019-11-07T13:26:58Z</time>
      </trkpt>
      <trkpt lat="43.79173" lon="2.34136">
        <ele>370</ele>
        <time>2019-11-07T13:27:03Z</time>
      </trkpt>
      <trkpt lat="43.79148" lon="2.34144">
        <ele>372</ele>
        <time>2019-11-07T13:27:24Z</time>
      </trkpt>
      <trkpt lat="43.791" lon="2.34149">
        <ele>371</ele>
        <time>2019-11-07T13:28:02Z</time>
      </trkpt>
      <trkpt lat="43.79072" lon="2.34142">
        <ele>370</ele>
        <time>2019-11-07T13:28:25Z</time>
      </trkpt>
      <trkpt lat="43.79062" lon="2.34147">
        <ele>371</ele>
        <time>2019-11-07T13:28:34Z</time>
      </trkpt>
      <trkpt lat="43.79031" lon="2.34177">
        <ele>379</ele>
        <time>2019-11-07T13:29:04Z</time>
      </trkpt>
      <trkpt lat="43.78993" lon="2.34208">
        <ele>387</ele>
        <time>2019-11-07T13:29:39Z</time>
      </trkpt>
      <trkpt lat="43.78982" lon="2.34198">
        <ele>387</ele>
        <time>2019-11-07T13:29:50Z</time>
      </trkpt>
      <trkpt lat="43.78952" lon="2.34153">
        <ele>390</ele>
        <time>2019-11-07T13:30:25Z</time>
      </trkpt>
      <trkpt lat="43.78955" lon="2.33939">
        <ele>393</ele>
        <time>2019-11-07T13:32:29Z</time>
      </trkpt>
      <trkpt lat="43.78947" lon="2.33881">
        <ele>395</ele>
        <time>2019-11-07T13:33:03Z</time>
      </trkpt>
      <trkpt lat="43.78934" lon="2.33844">
        <ele>399</ele>
        <time>2019-11-07T13:33:27Z</time>
      </trkpt>
      <trkpt lat="43.78923" lon="2.33818">
        <ele>401</ele>
        <time>2019-11-07T13:33:44Z</time>
      </trkpt>
      <trkpt lat="43.78906" lon="2.33799">
        <ele>403</ele>
        <time>2019-11-07T13:34:02Z</time>
      </trkpt>
      <trkpt lat="43.78837" lon="2.33746">
        <ele>407</ele>
        <time>2019-11-07T13:35:05Z</time>
      </trkpt>
      <trkpt lat="43.78822" lon="2.33729">
        <ele>408</ele>
        <time>2019-11-07T13:35:21Z</time>
      </trkpt>
      <trkpt lat="43.78793" lon="2.33685">
        <ele>408</ele>
        <time>2019-11-07T13:35:55Z</time>
      </trkpt>
      <trkpt lat="43.78779" lon="2.33673">
        <ele>409</ele>
        <time>2019-11-07T13:36:08Z</time>
      </trkpt>
      <trkpt lat="43.78769" lon="2.3367">
        <ele>410</ele>
        <time>2019-11-07T13:36:16Z</time>
      </trkpt>
      <trkpt lat="43.78714" lon="2.33669">
        <ele>411</ele>
        <time>2019-11-07T13:37:00Z</time>
      </trkpt>
      <trkpt lat="43.78702" lon="2.33673">
        <ele>410</ele>
        <time>2019-11-07T13:37:10Z</time>
      </trkpt>
      <trkpt lat="43.78681" lon="2.33686">
        <ele>411</ele>
        <time>2019-11-07T13:37:29Z</time>
      </trkpt>
      <trkpt lat="43.78658" lon="2.33704">
        <ele>413</ele>
        <time>2019-11-07T13:37:50Z</time>
      </trkpt>
      <trkpt lat="43.78623" lon="2.33747">
        <ele>416</ele>
        <time>2019-11-07T13:38:27Z</time>
      </trkpt>
      <trkpt lat="43.78559" lon="2.33854">
        <ele>429</ele>
        <time>2019-11-07T13:39:48Z</time>
      </trkpt>
      <trkpt lat="43.78519" lon="2.33906">
        <ele>435</ele>
        <time>2019-11-07T13:40:32Z</time>
      </trkpt>
      <trkpt lat="43.78476" lon="2.33976">
        <ele>444</ele>
        <time>2019-11-07T13:41:25Z</time>
      </trkpt>
      <trkpt lat="43.78478" lon="2.33995">
        <ele>447</ele>
        <time>2019-11-07T13:41:36Z</time>
      </trkpt>
      <trkpt lat="43.78485" lon="2.34004">
        <ele>448</ele>
        <time>2019-11-07T13:41:43Z</time>
      </trkpt>
      <trkpt lat="43.78498" lon="2.34004">
        <ele>448</ele>
        <time>2019-11-07T13:41:54Z</time>
      </trkpt>
      <trkpt lat="43.78522" lon="2.33997">
        <ele>450</ele>
        <time>2019-11-07T13:42:13Z</time>
      </trkpt>
      <trkpt lat="43.78581" lon="2.3397">
        <ele>454</ele>
        <time>2019-11-07T13:43:03Z</time>
      </trkpt>
      <trkpt lat="43.78611" lon="2.33969">
        <ele>455</ele>
        <time>2019-11-07T13:43:27Z</time>
      </trkpt>
      <trkpt lat="43.78625" lon="2.33978">
        <ele>457</ele>
        <time>2019-11-07T13:43:40Z</time>
      </trkpt>
      <trkpt lat="43.78636" lon="2.34004">
        <ele>461</ele>
        <time>2019-11-07T13:43:57Z</time>
      </trkpt>
      <trkpt lat="43.78642" lon="2.34049">
        <ele>467</ele>
        <time>2019-11-07T13:44:23Z</time>
      </trkpt>
      <trkpt lat="43.7864" lon="2.34077">
        <ele>470</ele>
        <time>2019-11-07T13:44:40Z</time>
      </trkpt>
      <trkpt lat="43.7863" lon="2.34105">
        <ele>472</ele>
        <time>2019-11-07T13:44:58Z</time>
      </trkpt>
      <trkpt lat="43.786" lon="2.34167">
        <ele>478</ele>
        <time>2019-11-07T13:45:41Z</time>
      </trkpt>
      <trkpt lat="43.78564" lon="2.34287">
        <ele>489</ele>
        <time>2019-11-07T13:46:56Z</time>
      </trkpt>
      <trkpt lat="43.78491" lon="2.34412">
        <ele>507</ele>
        <time>2019-11-07T13:48:29Z</time>
      </trkpt>
      <trkpt lat="43.78479" lon="2.34429">
        <ele>508</ele>
        <time>2019-11-07T13:48:43Z</time>
      </trkpt>
      <trkpt lat="43.78466" lon="2.34439">
        <ele>507</ele>
        <time>2019-11-07T13:48:55Z</time>
      </trkpt>
      <trkpt lat="43.78436" lon="2.34452">
        <ele>506</ele>
        <time>2019-11-07T13:49:20Z</time>
      </trkpt>
      <trkpt lat="43.78411" lon="2.34468">
        <ele>506</ele>
        <time>2019-11-07T13:49:42Z</time>
      </trkpt>
      <trkpt lat="43.78373" lon="2.34514">
        <ele>510</ele>
        <time>2019-11-07T13:50:22Z</time>
      </trkpt>
      <trkpt lat="43.78357" lon="2.34518">
        <ele>510</ele>
        <time>2019-11-07T13:50:35Z</time>
      </trkpt>
      <trkpt lat="43.78263" lon="2.34493">
        <ele>511</ele>
        <time>2019-11-07T13:51:52Z</time>
      </trkpt>
      <trkpt lat="43.78245" lon="2.3449">
        <ele>512</ele>
        <time>2019-11-07T13:52:06Z</time>
      </trkpt>
      <trkpt lat="43.78237" lon="2.34491">
        <ele>511</ele>
        <time>2019-11-07T13:52:13Z</time>
      </trkpt>
      <trkpt lat="43.7822" lon="2.34508">
        <ele>511</ele>
        <time>2019-11-07T13:52:30Z</time>
      </trkpt>
      <trkpt lat="43.78207" lon="2.34537">
        <ele>510</ele>
        <time>2019-11-07T13:52:49Z</time>
      </trkpt>
      <trkpt lat="43.78194" lon="2.34462">
        <ele>510</ele>
        <time>2019-11-07T13:53:34Z</time>
      </trkpt>
      <trkpt lat="43.78195" lon="2.34441">
        <ele>511</ele>
        <time>2019-11-07T13:53:46Z</time>
      </trkpt>
      <trkpt lat="43.78172" lon="2.34317">
        <ele>511</ele>
        <time>2019-11-07T13:55:00Z</time>
      </trkpt>
      <trkpt lat="43.78168" lon="2.34287">
        <ele>511</ele>
        <time>2019-11-07T13:55:18Z</time>
      </trkpt>
      <trkpt lat="43.78169" lon="2.34259">
        <ele>511</ele>
        <time>2019-11-07T13:55:34Z</time>
      </trkpt>
      <trkpt lat="43.78172" lon="2.3423">
        <ele>512</ele>
        <time>2019-11-07T13:55:51Z</time>
      </trkpt>
      <trkpt lat="43.78185" lon="2.34167">
        <ele>511</ele>
        <time>2019-11-07T13:56:29Z</time>
      </trkpt>
      <trkpt lat="43.78205" lon="2.34101">
        <ele>511</ele>
        <time>2019-11-07T13:57:10Z</time>
      </trkpt>
      <trkpt lat="43.78227" lon="2.34051">
        <ele>508</ele>
        <time>2019-11-07T13:57:44Z</time>
      </trkpt>
      <trkpt lat="43.78243" lon="2.33985">
        <ele>505</ele>
        <time>2019-11-07T13:58:24Z</time>
      </trkpt>
      <trkpt lat="43.78248" lon="2.33915">
        <ele>503</ele>
        <time>2019-11-07T13:59:05Z</time>
      </trkpt>
      <trkpt lat="43.78247" lon="2.33856">
        <ele>502</ele>
        <time>2019-11-07T13:59:39Z</time>
      </trkpt>
      <trkpt lat="43.78219" lon="2.33778">
        <ele>501</ele>
        <time>2019-11-07T14:00:29Z</time>
      </trkpt>
      <trkpt lat="43.78211" lon="2.33763">
        <ele>500</ele>
        <time>2019-11-07T14:00:40Z</time>
      </trkpt>
      <trkpt lat="43.78167" lon="2.33699">
        <ele>501</ele>
        <time>2019-11-07T14:01:31Z</time>
      </trkpt>
      <trkpt lat="43.78131" lon="2.33638">
        <ele>494</ele>
        <time>2019-11-07T14:02:17Z</time>
      </trkpt>
      <trkpt lat="43.78101" lon="2.33604">
        <ele>493</ele>
        <time>2019-11-07T14:02:48Z</time>
      </trkpt>
      <trkpt lat="43.78085" lon="2.33582">
        <ele>493</ele>
        <time>2019-11-07T14:03:06Z</time>
      </trkpt>
      <trkpt lat="43.78071" lon="2.3356">
        <ele>493</ele>
        <time>2019-11-07T14:03:23Z</time>
      </trkpt>
      <trkpt lat="43.7806" lon="2.33532">
        <ele>493</ele>
        <time>2019-11-07T14:03:41Z</time>
      </trkpt>
      <trkpt lat="43.78052" lon="2.33506">
        <ele>492</ele>
        <time>2019-11-07T14:03:58Z</time>
      </trkpt>
      <trkpt lat="43.78043" lon="2.33446">
        <ele>491</ele>
        <time>2019-11-07T14:04:33Z</time>
      </trkpt>
      <trkpt lat="43.78028" lon="2.33315">
        <ele>481</ele>
        <time>2019-11-07T14:05:50Z</time>
      </trkpt>
      <trkpt lat="43.78024" lon="2.33266">
        <ele>477</ele>
        <time>2019-11-07T14:06:18Z</time>
      </trkpt>
      <trkpt lat="43.78023" lon="2.33212">
        <ele>473</ele>
        <time>2019-11-07T14:06:49Z</time>
      </trkpt>
      <trkpt lat="43.7802" lon="2.3319">
        <ele>472</ele>
        <time>2019-11-07T14:07:02Z</time>
      </trkpt>
      <trkpt lat="43.77996" lon="2.33113">
        <ele>467</ele>
        <time>2019-11-07T14:07:51Z</time>
      </trkpt>
      <trkpt lat="43.77956" lon="2.33031">
        <ele>459</ele>
        <time>2019-11-07T14:08:48Z</time>
      </trkpt>
      <trkpt lat="43.7789" lon="2.3306">
        <ele>456</ele>
        <time>2019-11-07T14:09:44Z</time>
      </trkpt>
      <trkpt lat="43.77868" lon="2.33063">
        <ele>453</ele>
        <time>2019-11-07T14:10:01Z</time>
      </trkpt>
      <trkpt lat="43.77837" lon="2.33063">
        <ele>449</ele>
        <time>2019-11-07T14:10:26Z</time>
      </trkpt>
      <trkpt lat="43.77807" lon="2.33057">
        <ele>446</ele>
        <time>2019-11-07T14:10:50Z</time>
      </trkpt>
      <trkpt lat="43.77755" lon="2.33055">
        <ele>442</ele>
        <time>2019-11-07T14:11:32Z</time>
      </trkpt>
      <trkpt lat="43.77716" lon="2.33059">
        <ele>439</ele>
        <time>2019-11-07T14:12:03Z</time>
      </trkpt>
      <trkpt lat="43.77707" lon="2.33064">
        <ele>438</ele>
        <time>2019-11-07T14:12:11Z</time>
      </trkpt>
      <trkpt lat="43.77692" lon="2.33081">
        <ele>438</ele>
        <time>2019-11-07T14:12:27Z</time>
      </trkpt>
      <trkpt lat="43.77688" lon="2.3309">
        <ele>438</ele>
        <time>2019-11-07T14:12:33Z</time>
      </trkpt>
      <trkpt lat="43.77674" lon="2.3315">
        <ele>440</ele>
        <time>2019-11-07T14:13:09Z</time>
      </trkpt>
      <trkpt lat="43.77671" lon="2.33155">
        <ele>440</ele>
        <time>2019-11-07T14:13:13Z</time>
      </trkpt>
      <trkpt lat="43.77675" lon="2.33104">
        <ele>437</ele>
        <time>2019-11-07T14:13:43Z</time>
      </trkpt>
      <trkpt lat="43.7767" lon="2.33086">
        <ele>436</ele>
        <time>2019-11-07T14:13:54Z</time>
      </trkpt>
      <trkpt lat="43.7765" lon="2.33053">
        <ele>432</ele>
        <time>2019-11-07T14:14:19Z</time>
      </trkpt>
      <trkpt lat="43.7763" lon="2.33032">
        <ele>428</ele>
        <time>2019-11-07T14:14:39Z</time>
      </trkpt>
      <trkpt lat="43.77587" lon="2.32998">
        <ele>419</ele>
        <time>2019-11-07T14:15:18Z</time>
      </trkpt>
      <trkpt lat="43.77576" lon="2.32991">
        <ele>417</ele>
        <time>2019-11-07T14:15:28Z</time>
      </trkpt>
      <trkpt lat="43.77555" lon="2.32989">
        <ele>413</ele>
        <time>2019-11-07T14:15:45Z</time>
      </trkpt>
      <trkpt lat="43.77533" lon="2.32992">
        <ele>410</ele>
        <time>2019-11-07T14:16:03Z</time>
      </trkpt>
      <trkpt lat="43.77516" lon="2.32999">
        <ele>407</ele>
        <time>2019-11-07T14:16:17Z</time>
      </trkpt>
      <trkpt lat="43.77428" lon="2.33066">
        <ele>410</ele>
        <time>2019-11-07T14:17:37Z</time>
      </trkpt>
      <trkpt lat="43.77385" lon="2.33092">
        <ele>411</ele>
        <time>2019-11-07T14:18:15Z</time>
      </trkpt>
      <trkpt lat="43.77345" lon="2.33121">
        <ele>412</ele>
        <time>2019-11-07T14:18:51Z</time>
      </trkpt>
      <trkpt lat="43.7732" lon="2.33123">
        <ele>412</ele>
        <time>2019-11-07T14:19:11Z</time>
      </trkpt>
      <trkpt lat="43.773" lon="2.331">
        <ele>412</ele>
        <time>2019-11-07T14:19:32Z</time>
      </trkpt>
      <trkpt lat="43.77273" lon="2.33097">
        <ele>414</ele>
        <time>2019-11-07T14:19:53Z</time>
      </trkpt>
      <trkpt lat="43.77224" lon="2.33105">
        <ele>416</ele>
        <time>2019-11-07T14:20:33Z</time>
      </trkpt>
      <trkpt lat="43.77199" lon="2.33098">
        <ele>419</ele>
        <time>2019-11-07T14:20:53Z</time>
      </trkpt>
      <trkpt lat="43.77178" lon="2.33095">
        <ele>421</ele>
        <time>2019-11-07T14:21:10Z</time>
      </trkpt>
      <trkpt lat="43.77146" lon="2.33105">
        <ele>422</ele>
        <time>2019-11-07T14:21:37Z</time>
      </trkpt>
      <trkpt lat="43.77129" lon="2.33105">
        <ele>425</ele>
        <time>2019-11-07T14:21:50Z</time>
      </trkpt>
      <trkpt lat="43.77124" lon="2.33091">
        <ele>428</ele>
        <time>2019-11-07T14:21:59Z</time>
      </trkpt>
      <trkpt lat="43.77156" lon="2.33056">
        <ele>430</ele>
        <time>2019-11-07T14:22:32Z</time>
      </trkpt>
      <trkpt lat="43.77178" lon="2.33027">
        <ele>433</ele>
        <time>2019-11-07T14:22:56Z</time>
      </trkpt>
      <trkpt lat="43.77203" lon="2.33013">
        <ele>433</ele>
        <time>2019-11-07T14:23:18Z</time>
      </trkpt>
      <trkpt lat="43.77224" lon="2.33007">
        <ele>433</ele>
        <time>2019-11-07T14:23:35Z</time>
      </trkpt>
      <trkpt lat="43.77233" lon="2.32998">
        <ele>433</ele>
        <time>2019-11-07T14:23:44Z</time>
      </trkpt>
      <trkpt lat="43.77243" lon="2.32994">
        <ele>433</ele>
        <time>2019-11-07T14:23:52Z</time>
      </trkpt>
      <trkpt lat="43.77247" lon="2.32989">
        <ele>433</ele>
        <time>2019-11-07T14:23:56Z</time>
      </trkpt>
      <trkpt lat="43.77206" lon="2.32984">
        <ele>436</ele>
        <time>2019-11-07T14:24:29Z</time>
      </trkpt>
      <trkpt lat="43.77195" lon="2.32986">
        <ele>436</ele>
        <time>2019-11-07T14:24:38Z</time>
      </trkpt>
      <trkpt lat="43.77181" lon="2.32978">
        <ele>437</ele>
        <time>2019-11-07T14:24:50Z</time>
      </trkpt>
      <trkpt lat="43.77073" lon="2.33014">
        <ele>445</ele>
        <time>2019-11-07T14:26:19Z</time>
      </trkpt>
      <trkpt lat="43.77014" lon="2.33045">
        <ele>451</ele>
        <time>2019-11-07T14:27:10Z</time>
      </trkpt>
      <trkpt lat="43.76964" lon="2.33066">
        <ele>458</ele>
        <time>2019-11-07T14:27:52Z</time>
      </trkpt>
      <trkpt lat="43.76934" lon="2.33069">
        <ele>464</ele>
        <time>2019-11-07T14:28:16Z</time>
      </trkpt>
      <trkpt lat="43.76926" lon="2.33072">
        <ele>465</ele>
        <time>2019-11-07T14:28:22Z</time>
      </trkpt>
      <trkpt lat="43.76893" lon="2.33094">
        <ele>471</ele>
        <time>2019-11-07T14:28:52Z</time>
      </trkpt>
      <trkpt lat="43.76889" lon="2.33094">
        <ele>472</ele>
        <time>2019-11-07T14:28:55Z</time>
      </trkpt>
      <trkpt lat="43.76886" lon="2.33091">
        <ele>473</ele>
        <time>2019-11-07T14:28:58Z</time>
      </trkpt>
      <trkpt lat="43.76866" lon="2.33095">
        <ele>477</ele>
        <time>2019-11-07T14:29:14Z</time>
      </trkpt>
      <trkpt lat="43.76862" lon="2.33098">
        <ele>478</ele>
        <time>2019-11-07T14:29:18Z</time>
      </trkpt>
      <trkpt lat="43.76831" lon="2.33141">
        <ele>480</ele>
        <time>2019-11-07T14:29:53Z</time>
      </trkpt>
      <trkpt lat="43.76806" lon="2.33183">
        <ele>483</ele>
        <time>2019-11-07T14:30:24Z</time>
      </trkpt>
      <trkpt lat="43.76776" lon="2.33246">
        <ele>488</ele>
        <time>2019-11-07T14:31:08Z</time>
      </trkpt>
      <trkpt lat="43.76745" lon="2.33324">
        <ele>494</ele>
        <time>2019-11-07T14:32:00Z</time>
      </trkpt>
      <trkpt lat="43.76728" lon="2.33352">
        <ele>496</ele>
        <time>2019-11-07T14:32:21Z</time>
      </trkpt>
      <trkpt lat="43.76681" lon="2.33407">
        <ele>501</ele>
        <time>2019-11-07T14:33:10Z</time>
      </trkpt>
      <trkpt lat="43.76651" lon="2.33432">
        <ele>505</ele>
        <time>2019-11-07T14:33:38Z</time>
      </trkpt>
      <trkpt lat="43.76545" lon="2.33544">
        <ele>512</ele>
        <time>2019-11-07T14:35:25Z</time>
      </trkpt>
      <trkpt lat="43.76457" lon="2.33608">
        <ele>513</ele>
        <time>2019-11-07T14:36:44Z</time>
      </trkpt>
      <trkpt lat="43.76417" lon="2.33619">
        <ele>514</ele>
        <time>2019-11-07T14:37:17Z</time>
      </trkpt>
      <trkpt lat="43.7638" lon="2.33625">
        <ele>514</ele>
        <time>2019-11-07T14:37:47Z</time>
      </trkpt>
      <trkpt lat="43.76352" lon="2.33643">
        <ele>512</ele>
        <time>2019-11-07T14:38:12Z</time>
      </trkpt>
      <trkpt lat="43.76318" lon="2.33653">
        <ele>512</ele>
        <time>2019-11-07T14:38:39Z</time>
      </trkpt>
      <trkpt lat="43.76271" lon="2.33671">
        <ele>515</ele>
        <time>2019-11-07T14:39:18Z</time>
      </trkpt>
      <trkpt lat="43.76253" lon="2.33673">
        <ele>517</ele>
        <time>2019-11-07T14:39:33Z</time>
      </trkpt>
      <trkpt lat="43.76233" lon="2.33672">
        <ele>516</ele>
        <time>2019-11-07T14:39:49Z</time>
      </trkpt>
      <trkpt lat="43.76199" lon="2.33661">
        <ele>516</ele>
        <time>2019-11-07T14:40:17Z</time>
      </trkpt>
      <trkpt lat="43.76176" lon="2.33648">
        <ele>516</ele>
        <time>2019-11-07T14:40:37Z</time>
      </trkpt>
      <trkpt lat="43.76164" lon="2.33644">
        <ele>516</ele>
        <time>2019-11-07T14:40:47Z</time>
      </trkpt>
      <trkpt lat="43.76144" lon="2.33647">
        <ele>516</ele>
        <time>2019-11-07T14:41:03Z</time>
      </trkpt>
      <trkpt lat="43.76133" lon="2.33653">
        <ele>516</ele>
        <time>2019-11-07T14:41:12Z</time>
      </trkpt>
      <trkpt lat="43.76127" lon="2.33662">
        <ele>515</ele>
        <time>2019-11-07T14:41:19Z</time>
      </trkpt>
      <trkpt lat="43.76121" lon="2.33681">
        <ele>514</ele>
        <time>2019-11-07T14:41:31Z</time>
      </trkpt>
      <trkpt lat="43.76118" lon="2.33743">
        <ele>512</ele>
        <time>2019-11-07T14:42:07Z</time>
      </trkpt>
      <trkpt lat="43.76112" lon="2.33767">
        <ele>512</ele>
        <time>2019-11-07T14:42:22Z</time>
      </trkpt>
      <trkpt lat="43.76107" lon="2.3378">
        <ele>512</ele>
        <time>2019-11-07T14:42:30Z</time>
      </trkpt>
      <trkpt lat="43.76059" lon="2.33866">
        <ele>511</ele>
        <time>2019-11-07T14:43:33Z</time>
      </trkpt>
      <trkpt lat="43.76051" lon="2.33896">
        <ele>511</ele>
        <time>2019-11-07T14:43:52Z</time>
      </trkpt>
      <trkpt lat="43.76045" lon="2.33956">
        <ele>511</ele>
        <time>2019-11-07T14:44:27Z</time>
      </trkpt>
      <trkpt lat="43.76036" lon="2.3396">
        <ele>510</ele>
        <time>2019-11-07T14:44:34Z</time>
      </trkpt>
      <trkpt lat="43.7605" lon="2.34007">
        <ele>513</ele>
        <time>2019-11-07T14:45:04Z</time>
      </trkpt>
      <trkpt lat="43.76072" lon="2.3406">
        <ele>516</ele>
        <time>2019-11-07T14:45:39Z</time>
      </trkpt>
      <trkpt lat="43.76084" lon="2.34097">
        <ele>519</ele>
        <time>2019-11-07T14:46:03Z</time>
      </trkpt>
      <trkpt lat="43.76087" lon="2.34125">
        <ele>519</ele>
        <time>2019-11-07T14:46:19Z</time>
      </trkpt>
      <trkpt lat="43.76084" lon="2.34186">
        <ele>519</ele>
        <time>2019-11-07T14:46:54Z</time>
      </trkpt>
      <trkpt lat="43.76076" lon="2.34199">
        <ele>518</ele>
        <time>2019-11-07T14:47:04Z</time>
      </trkpt>
      <trkpt lat="43.76042" lon="2.34238">
        <ele>519</ele>
        <time>2019-11-07T14:47:39Z</time>
      </trkpt>
      <trkpt lat="43.76012" lon="2.34308">
        <ele>521</ele>
        <time>2019-11-07T14:48:27Z</time>
      </trkpt>
      <trkpt lat="43.75975" lon="2.34372">
        <ele>521</ele>
        <time>2019-11-07T14:49:14Z</time>
      </trkpt>
      <trkpt lat="43.7596" lon="2.34415">
        <ele>521</ele>
        <time>2019-11-07T14:49:42Z</time>
      </trkpt>
      <trkpt lat="43.75949" lon="2.34494">
        <ele>519</ele>
        <time>2019-11-07T14:50:28Z</time>
      </trkpt>
      <trkpt lat="43.75941" lon="2.34517">
        <ele>520</ele>
        <time>2019-11-07T14:50:43Z</time>
      </trkpt>
      <trkpt lat="43.7584" lon="2.34671">
        <ele>524</ele>
        <time>2019-11-07T14:52:43Z</time>
      </trkpt>
      <trkpt lat="43.75781" lon="2.34789">
        <ele>520</ele>
        <time>2019-11-07T14:54:06Z</time>
      </trkpt>
      <trkpt lat="43.75747" lon="2.34851">
        <ele>520</ele>
        <time>2019-11-07T14:54:51Z</time>
      </trkpt>
      <trkpt lat="43.75725" lon="2.34884">
        <ele>521</ele>
        <time>2019-11-07T14:55:17Z</time>
      </trkpt>
      <trkpt lat="43.7572" lon="2.34898">
        <ele>522</ele>
        <time>2019-11-07T14:55:26Z</time>
      </trkpt>
      <trkpt lat="43.75619" lon="2.34941">
        <ele>525</ele>
        <time>2019-11-07T14:56:51Z</time>
      </trkpt>
      <trkpt lat="43.75533" lon="2.35017">
        <ele>524</ele>
        <time>2019-11-07T14:58:12Z</time>
      </trkpt>
      <trkpt lat="43.75457" lon="2.35059">
        <ele>525</ele>
        <time>2019-11-07T14:59:18Z</time>
      </trkpt>
      <trkpt lat="43.75403" lon="2.35107">
        <ele>525</ele>
        <time>2019-11-07T15:00:09Z</time>
      </trkpt>
      <trkpt lat="43.75348" lon="2.35161">
        <ele>523</ele>
        <time>2019-11-07T15:01:03Z</time>
      </trkpt>
      <trkpt lat="43.75336" lon="2.35165">
        <ele>524</ele>
        <time>2019-11-07T15:01:13Z</time>
      </trkpt>
      <trkpt lat="43.75295" lon="2.35203">
        <ele>520</ele>
        <time>2019-11-07T15:01:53Z</time>
      </trkpt>
      <trkpt lat="43.7528" lon="2.35213">
        <ele>520</ele>
        <time>2019-11-07T15:02:06Z</time>
      </trkpt>
      <trkpt lat="43.75247" lon="2.35245">
        <ele>520</ele>
        <time>2019-11-07T15:02:38Z</time>
      </trkpt>
      <trkpt lat="43.75224" lon="2.35255">
        <ele>519</ele>
        <time>2019-11-07T15:02:58Z</time>
      </trkpt>
      <trkpt lat="43.75196" lon="2.35285">
        <ele>518</ele>
        <time>2019-11-07T15:03:26Z</time>
      </trkpt>
      <trkpt lat="43.75161" lon="2.35297">
        <ele>518</ele>
        <time>2019-11-07T15:03:55Z</time>
      </trkpt>
      <trkpt lat="43.75106" lon="2.35297">
        <ele>516</ele>
        <time>2019-11-07T15:04:39Z</time>
      </trkpt>
      <trkpt lat="43.75051" lon="2.35267">
        <ele>515</ele>
        <time>2019-11-07T15:05:26Z</time>
      </trkpt>
      <trkpt lat="43.7503" lon="2.3525">
        <ele>515</ele>
        <time>2019-11-07T15:05:46Z</time>
      </trkpt>
      <trkpt lat="43.75012" lon="2.35231">
        <ele>518</ele>
        <time>2019-11-07T15:06:04Z</time>
      </trkpt>
      <trkpt lat="43.75007" lon="2.35207">
        <ele>518</ele>
        <time>2019-11-07T15:06:18Z</time>
      </trkpt>
      <trkpt lat="43.75027" lon="2.35171">
        <ele>515</ele>
        <time>2019-11-07T15:06:45Z</time>
      </trkpt>
      <trkpt lat="43.75032" lon="2.35143">
        <ele>513</ele>
        <time>2019-11-07T15:07:01Z</time>
      </trkpt>
      <trkpt lat="43.7503" lon="2.35114">
        <ele>512</ele>
        <time>2019-11-07T15:07:18Z</time>
      </trkpt>
      <trkpt lat="43.75008" lon="2.3506">
        <ele>514</ele>
        <time>2019-11-07T15:07:54Z</time>
      </trkpt>
      <trkpt lat="43.75013" lon="2.34954">
        <ele>505</ele>
        <time>2019-11-07T15:08:55Z</time>
      </trkpt>
      <trkpt lat="43.74968" lon="2.34868">
        <ele>499</ele>
        <time>2019-11-07T15:09:57Z</time>
      </trkpt>
      <trkpt lat="43.74946" lon="2.34846">
        <ele>497</ele>
        <time>2019-11-07T15:10:19Z</time>
      </trkpt>
      <trkpt lat="43.74897" lon="2.34818">
        <ele>491</ele>
        <time>2019-11-07T15:11:01Z</time>
      </trkpt>
      <trkpt lat="43.74838" lon="2.34756">
        <ele>476</ele>
        <time>2019-11-07T15:12:00Z</time>
      </trkpt>
      <trkpt lat="43.74814" lon="2.34741">
        <ele>471</ele>
        <time>2019-11-07T15:12:21Z</time>
      </trkpt>
      <trkpt lat="43.74791" lon="2.34722">
        <ele>465</ele>
        <time>2019-11-07T15:12:43Z</time>
      </trkpt>
      <trkpt lat="43.74774" lon="2.34686">
        <ele>459</ele>
        <time>2019-11-07T15:13:08Z</time>
      </trkpt>
      <trkpt lat="43.74769" lon="2.34657">
        <ele>456</ele>
        <time>2019-11-07T15:13:25Z</time>
      </trkpt>
      <trkpt lat="43.74764" lon="2.34619">
        <ele>450</ele>
        <time>2019-11-07T15:13:47Z</time>
      </trkpt>
      <trkpt lat="43.74761" lon="2.34507">
        <ele>436</ele>
        <time>2019-11-07T15:14:52Z</time>
      </trkpt>
      <trkpt lat="43.74754" lon="2.34472">
        <ele>432</ele>
        <time>2019-11-07T15:15:13Z</time>
      </trkpt>
      <trkpt lat="43.74714" lon="2.34406">
        <ele>419</ele>
        <time>2019-11-07T15:16:03Z</time>
      </trkpt>
      <trkpt lat="43.74677" lon="2.34364">
        <ele>407</ele>
        <time>2019-11-07T15:16:41Z</time>
      </trkpt>
      <trkpt lat="43.74657" lon="2.34336">
        <ele>400</ele>
        <time>2019-11-07T15:17:04Z</time>
      </trkpt>
      <trkpt lat="43.7465" lon="2.34316">
        <ele>396</ele>
        <time>2019-11-07T15:17:17Z</time>
      </trkpt>
      <trkpt lat="43.74645" lon="2.34277">
        <ele>390</ele>
        <time>2019-11-07T15:17:40Z</time>
      </trkpt>
      <trkpt lat="43.74632" lon="2.34294">
        <ele>387</ele>
        <time>2019-11-07T15:17:54Z</time>
      </trkpt>
      <trkpt lat="43.74606" lon="2.34312">
        <ele>380</ele>
        <time>2019-11-07T15:18:17Z</time>
      </trkpt>
      <trkpt lat="43.74565" lon="2.34323">
        <ele>372</ele>
        <time>2019-11-07T15:18:51Z</time>
      </trkpt>
      <trkpt lat="43.74553" lon="2.34338">
        <ele>373</ele>
        <time>2019-11-07T15:19:04Z</time>
      </trkpt>
      <trkpt lat="43.74548" lon="2.3434">
        <ele>373</ele>
        <time>2019-11-07T15:19:08Z</time>
      </trkpt>
      <trkpt lat="43.74536" lon="2.34342">
        <ele>373</ele>
        <time>2019-11-07T15:19:18Z</time>
      </trkpt>
      <trkpt lat="43.74472" lon="2.34338">
        <ele>370</ele>
        <time>2019-11-07T15:20:09Z</time>
      </trkpt>
      <trkpt lat="43.74465" lon="2.34336">
        <ele>370</ele>
        <time>2019-11-07T15:20:15Z</time>
      </trkpt>
      <trkpt lat="43.74455" lon="2.34329">
        <ele>369</ele>
        <time>2019-11-07T15:20:24Z</time>
      </trkpt>
      <trkpt lat="43.74422" lon="2.34268">
        <ele>366</ele>
        <time>2019-11-07T15:21:08Z</time>
      </trkpt>
      <trkpt lat="43.74407" lon="2.34251">
        <ele>366</ele>
        <time>2019-11-07T15:21:23Z</time>
      </trkpt>
      <trkpt lat="43.74382" lon="2.34232">
        <ele>368</ele>
        <time>2019-11-07T15:21:46Z</time>
      </trkpt>
      <trkpt lat="43.74374" lon="2.34167">
        <ele>365</ele>
        <time>2019-11-07T15:22:24Z</time>
      </trkpt>
      <trkpt lat="43.74375" lon="2.34097">
        <ele>370</ele>
        <time>2019-11-07T15:23:05Z</time>
      </trkpt>
      <trkpt lat="43.74394" lon="2.34098">
        <ele>368</ele>
        <time>2019-11-07T15:23:20Z</time>
      </trkpt>
      <trkpt lat="43.74423" lon="2.34076">
        <ele>365</ele>
        <time>2019-11-07T15:23:46Z</time>
      </trkpt>
      <trkpt lat="43.74437" lon="2.34056">
        <ele>366</ele>
        <time>2019-11-07T15:24:02Z</time>
      </trkpt>
      <trkpt lat="43.74444" lon="2.34033">
        <ele>368</ele>
        <time>2019-11-07T15:24:17Z</time>
      </trkpt>
      <trkpt lat="43.74458" lon="2.34006">
        <ele>368</ele>
        <time>2019-11-07T15:24:36Z</time>
      </trkpt>
      <trkpt lat="43.74487" lon="2.33978">
        <ele>366</ele>
        <time>2019-11-07T15:25:04Z</time>
      </trkpt>
      <trkpt lat="43.745" lon="2.3395">
        <ele>364</ele>
        <time>2019-11-07T15:25:24Z</time>
      </trkpt>
      <trkpt lat="43.74511" lon="2.33895">
        <ele>367</ele>
        <time>2019-11-07T15:25:57Z</time>
      </trkpt>
      <trkpt lat="43.74517" lon="2.33845">
        <ele>372</ele>
        <time>2019-11-07T15:26:26Z</time>
      </trkpt>
      <trkpt lat="43.74525" lon="2.3381">
        <ele>374</ele>
        <time>2019-11-07T15:26:47Z</time>
      </trkpt>
      <trkpt lat="43.7454" lon="2.33791">
        <ele>372</ele>
        <time>2019-11-07T15:27:04Z</time>
      </trkpt>
      <trkpt lat="43.74511" lon="2.33767">
        <ele>383</ele>
        <time>2019-11-07T15:27:31Z</time>
      </trkpt>
      <trkpt lat="43.7449" lon="2.33715">
        <ele>391</ele>
        <time>2019-11-07T15:28:05Z</time>
      </trkpt>
      <trkpt lat="43.74466" lon="2.33626">
        <ele>393</ele>
        <time>2019-11-07T15:29:00Z</time>
      </trkpt>
      <trkpt lat="43.74452" lon="2.33599">
        <ele>394</ele>
        <time>2019-11-07T15:29:19Z</time>
      </trkpt>
      <trkpt lat="43.74421" lon="2.33595">
        <ele>402</ele>
        <time>2019-11-07T15:29:44Z</time>
      </trkpt>
      <trkpt lat="43.74398" lon="2.33587">
        <ele>409</ele>
        <time>2019-11-07T15:30:03Z</time>
      </trkpt>
      <trkpt lat="43.74368" lon="2.33567">
        <ele>418</ele>
        <time>2019-11-07T15:30:30Z</time>
      </trkpt>
      <trkpt lat="43.74336" lon="2.33557">
        <ele>427</ele>
        <time>2019-11-07T15:30:56Z</time>
      </trkpt>
      <trkpt lat="43.74311" lon="2.33554">
        <ele>434</ele>
        <time>2019-11-07T15:31:16Z</time>
      </trkpt>
      <trkpt lat="43.74275" lon="2.33532">
        <ele>442</ele>
        <time>2019-11-07T15:31:48Z</time>
      </trkpt>
      <trkpt lat="43.74265" lon="2.33523">
        <ele>444</ele>
        <time>2019-11-07T15:31:57Z</time>
      </trkpt>
      <trkpt lat="43.74223" lon="2.33445">
        <ele>446</ele>
        <time>2019-11-07T15:32:54Z</time>
      </trkpt>
      <trkpt lat="43.74219" lon="2.33416">
        <ele>444</ele>
        <time>2019-11-07T15:33:11Z</time>
      </trkpt>
      <trkpt lat="43.74221" lon="2.33373">
        <ele>440</ele>
        <time>2019-11-07T15:33:36Z</time>
      </trkpt>
      <trkpt lat="43.74237" lon="2.33224">
        <ele>443</ele>
        <time>2019-11-07T15:35:03Z</time>
      </trkpt>
      <trkpt lat="43.74255" lon="2.33192">
        <ele>444</ele>
        <time>2019-11-07T15:35:26Z</time>
      </trkpt>
      <trkpt lat="43.74278" lon="2.33171">
        <ele>442</ele>
        <time>2019-11-07T15:35:48Z</time>
      </trkpt>
      <trkpt lat="43.7428" lon="2.33108">
        <ele>448</ele>
        <time>2019-11-07T15:36:25Z</time>
      </trkpt>
      <trkpt lat="43.74238" lon="2.32978">
        <ele>456</ele>
        <time>2019-11-07T15:37:47Z</time>
      </trkpt>
      <trkpt lat="43.74212" lon="2.32909">
        <ele>455</ele>
        <time>2019-11-07T15:38:32Z</time>
      </trkpt>
      <trkpt lat="43.74153" lon="2.32882">
        <ele>465</ele>
        <time>2019-11-07T15:39:22Z</time>
      </trkpt>
      <trkpt lat="43.74099" lon="2.32854">
        <ele>472</ele>
        <time>2019-11-07T15:40:08Z</time>
      </trkpt>
      <trkpt lat="43.74089" lon="2.32842">
        <ele>472</ele>
        <time>2019-11-07T15:40:19Z</time>
      </trkpt>
      <trkpt lat="43.74059" lon="2.32722">
        <ele>479</ele>
        <time>2019-11-07T15:41:32Z</time>
      </trkpt>
      <trkpt lat="43.74052" lon="2.32685">
        <ele>480</ele>
        <time>2019-11-07T15:41:54Z</time>
      </trkpt>
      <trkpt lat="43.74016" lon="2.32615">
        <ele>495</ele>
        <time>2019-11-07T15:42:44Z</time>
      </trkpt>
      <trkpt lat="43.73999" lon="2.32585">
        <ele>502</ele>
        <time>2019-11-07T15:43:06Z</time>
      </trkpt>
      <trkpt lat="43.73979" lon="2.32556">
        <ele>510</ele>
        <time>2019-11-07T15:43:29Z</time>
      </trkpt>
      <trkpt lat="43.73973" lon="2.32532">
        <ele>513</ele>
        <time>2019-11-07T15:43:44Z</time>
      </trkpt>
      <trkpt lat="43.73971" lon="2.32513">
        <ele>514</ele>
        <time>2019-11-07T15:43:55Z</time>
      </trkpt>
      <trkpt lat="43.73974" lon="2.32486">
        <ele>514</ele>
        <time>2019-11-07T15:44:11Z</time>
      </trkpt>
      <trkpt lat="43.73983" lon="2.32446">
        <ele>514</ele>
        <time>2019-11-07T15:44:35Z</time>
      </trkpt>
      <trkpt lat="43.73986" lon="2.32379">
        <ele>520</ele>
        <time>2019-11-07T15:45:14Z</time>
      </trkpt>
      <trkpt lat="43.73996" lon="2.32328">
        <ele>523</ele>
        <time>2019-11-07T15:45:44Z</time>
      </trkpt>
      <trkpt lat="43.7402" lon="2.32259">
        <ele>529</ele>
        <time>2019-11-07T15:46:29Z</time>
      </trkpt>
      <trkpt lat="43.74026" lon="2.32213">
        <ele>529</ele>
        <time>2019-11-07T15:46:56Z</time>
      </trkpt>
      <trkpt lat="43.74022" lon="2.322">
        <ele>529</ele>
        <time>2019-11-07T15:47:04Z</time>
      </trkpt>
      <trkpt lat="43.73989" lon="2.32225">
        <ele>530</ele>
        <time>2019-11-07T15:47:34Z</time>
      </trkpt>
      <trkpt lat="43.73938" lon="2.32281">
        <ele>536</ele>
        <time>2019-11-07T15:48:26Z</time>
      </trkpt>
      <trkpt lat="43.73896" lon="2.32313">
        <ele>543</ele>
        <time>2019-11-07T15:49:04Z</time>
      </trkpt>
      <trkpt lat="43.73884" lon="2.32325">
        <ele>546</ele>
        <time>2019-11-07T15:49:16Z</time>
      </trkpt>
      <trkpt lat="43.73844" lon="2.32373">
        <ele>555</ele>
        <time>2019-11-07T15:49:59Z</time>
      </trkpt>
      <trkpt lat="43.73833" lon="2.32402">
        <ele>559</ele>
        <time>2019-11-07T15:50:18Z</time>
      </trkpt>
      <trkpt lat="43.73804" lon="2.32576">
        <ele>569</ele>
        <time>2019-11-07T15:52:01Z</time>
      </trkpt>
      <trkpt lat="43.73785" lon="2.3265">
        <ele>575</ele>
        <time>2019-11-07T15:52:46Z</time>
      </trkpt>
      <trkpt lat="43.73776" lon="2.32707">
        <ele>579</ele>
        <time>2019-11-07T15:53:20Z</time>
      </trkpt>
      <trkpt lat="43.73774" lon="2.32781">
        <ele>585</ele>
        <time>2019-11-07T15:54:03Z</time>
      </trkpt>
      <trkpt lat="43.73783" lon="2.32881">
        <ele>591</ele>
        <time>2019-11-07T15:55:01Z</time>
      </trkpt>
      <trkpt lat="43.73782" lon="2.32948">
        <ele>594</ele>
        <time>2019-11-07T15:55:40Z</time>
      </trkpt>
      <trkpt lat="43.73786" lon="2.32976">
        <ele>594</ele>
        <time>2019-11-07T15:55:57Z</time>
      </trkpt>
      <trkpt lat="43.73786" lon="2.33003">
        <ele>595</ele>
        <time>2019-11-07T15:56:12Z</time>
      </trkpt>
      <trkpt lat="43.73771" lon="2.33351">
        <ele>575</ele>
        <time>2019-11-07T15:59:34Z</time>
      </trkpt>
      <trkpt lat="43.73773" lon="2.33405">
        <ele>573</ele>
        <time>2019-11-07T16:00:05Z</time>
      </trkpt>
      <trkpt lat="43.73771" lon="2.33428">
        <ele>572</ele>
        <time>2019-11-07T16:00:19Z</time>
      </trkpt>
      <trkpt lat="43.73752" lon="2.33497">
        <ele>573</ele>
        <time>2019-11-07T16:01:01Z</time>
      </trkpt>
      <trkpt lat="43.73578" lon="2.33728">
        <ele>568</ele>
        <time>2019-11-07T16:04:14Z</time>
      </trkpt>
      <trkpt lat="43.7344" lon="2.33819">
        <ele>557</ele>
        <time>2019-11-07T16:06:17Z</time>
      </trkpt>
      <trkpt lat="43.7337" lon="2.33851">
        <ele>553</ele>
        <time>2019-11-07T16:07:16Z</time>
      </trkpt>
      <trkpt lat="43.73277" lon="2.33904">
        <ele>547</ele>
        <time>2019-11-07T16:08:36Z</time>
      </trkpt>
      <trkpt lat="43.73202" lon="2.33955">
        <ele>545</ele>
        <time>2019-11-07T16:09:43Z</time>
      </trkpt>
      <trkpt lat="43.73181" lon="2.33972">
        <ele>544</ele>
        <time>2019-11-07T16:10:03Z</time>
      </trkpt>
      <trkpt lat="43.73146" lon="2.3401">
        <ele>544</ele>
        <time>2019-11-07T16:10:38Z</time>
      </trkpt>
      <trkpt lat="43.73131" lon="2.3403">
        <ele>544</ele>
        <time>2019-11-07T16:10:55Z</time>
      </trkpt>
      <trkpt lat="43.7311" lon="2.34071">
        <ele>543</ele>
        <time>2019-11-07T16:11:24Z</time>
      </trkpt>
      <trkpt lat="43.73105" lon="2.34092">
        <ele>543</ele>
        <time>2019-11-07T16:11:37Z</time>
      </trkpt>
      <trkpt lat="43.7306" lon="2.3423">
        <ele>540</ele>
        <time>2019-11-07T16:13:04Z</time>
      </trkpt>
      <trkpt lat="43.73046" lon="2.34267">
        <ele>540</ele>
        <time>2019-11-07T16:13:29Z</time>
      </trkpt>
      <trkpt lat="43.73041" lon="2.34275">
        <ele>540</ele>
        <time>2019-11-07T16:13:35Z</time>
      </trkpt>
      <trkpt lat="43.73012" lon="2.34294">
        <ele>541</ele>
        <time>2019-11-07T16:14:00Z</time>
      </trkpt>
      <trkpt lat="43.73007" lon="2.34305">
        <ele>541</ele>
        <time>2019-11-07T16:14:08Z</time>
      </trkpt>
      <trkpt lat="43.72964" lon="2.34615">
        <ele>544</ele>
        <time>2019-11-07T16:17:11Z</time>
      </trkpt>
      <trkpt lat="43.72958" lon="2.34641">
        <ele>545</ele>
        <time>2019-11-07T16:17:26Z</time>
      </trkpt>
      <trkpt lat="43.72887" lon="2.34826">
        <ele>548</ele>
        <time>2019-11-07T16:19:28Z</time>
      </trkpt>
      <trkpt lat="43.72829" lon="2.34948">
        <ele>551</ele>
        <time>2019-11-07T16:20:52Z</time>
      </trkpt>
      <trkpt lat="43.72774" lon="2.35052">
        <ele>551</ele>
        <time>2019-11-07T16:22:07Z</time>
      </trkpt>
      <trkpt lat="43.72711" lon="2.3516">
        <ele>553</ele>
        <time>2019-11-07T16:23:27Z</time>
      </trkpt>
      <trkpt lat="43.72633" lon="2.35284">
        <ele>557</ele>
        <time>2019-11-07T16:25:02Z</time>
      </trkpt>
      <trkpt lat="43.72619" lon="2.35311">
        <ele>558</ele>
        <time>2019-11-07T16:25:21Z</time>
      </trkpt>
      <trkpt lat="43.72563" lon="2.35441">
        <ele>561</ele>
        <time>2019-11-07T16:26:49Z</time>
      </trkpt>
      <trkpt lat="43.72522" lon="2.35521">
        <ele>563</ele>
        <time>2019-11-07T16:27:46Z</time>
      </trkpt>
      <trkpt lat="43.72496" lon="2.3556">
        <ele>565</ele>
        <time>2019-11-07T16:28:16Z</time>
      </trkpt>
      <trkpt lat="43.72471" lon="2.35607">
        <ele>565</ele>
        <time>2019-11-07T16:28:50Z</time>
      </trkpt>
      <trkpt lat="43.72441" lon="2.35646">
        <ele>565</ele>
        <time>2019-11-07T16:29:23Z</time>
      </trkpt>
      <trkpt lat="43.72416" lon="2.35674">
        <ele>567</ele>
        <time>2019-11-07T16:29:49Z</time>
      </trkpt>
      <trkpt lat="43.72373" lon="2.3571">
        <ele>573</ele>
        <time>2019-11-07T16:30:29Z</time>
      </trkpt>
      <trkpt lat="43.72349" lon="2.35745">
        <ele>576</ele>
        <time>2019-11-07T16:30:57Z</time>
      </trkpt>
      <trkpt lat="43.72314" lon="2.35786">
        <ele>578</ele>
        <time>2019-11-07T16:31:34Z</time>
      </trkpt>
      <trkpt lat="43.72282" lon="2.35874">
        <ele>580</ele>
        <time>2019-11-07T16:32:31Z</time>
      </trkpt>
      <trkpt lat="43.72274" lon="2.35886">
        <ele>581</ele>
        <time>2019-11-07T16:32:40Z</time>
      </trkpt>
      <trkpt lat="43.72247" lon="2.35891">
        <ele>584</ele>
        <time>2019-11-07T16:33:02Z</time>
      </trkpt>
      <trkpt lat="43.72236" lon="2.35902">
        <ele>586</ele>
        <time>2019-11-07T16:33:13Z</time>
      </trkpt>
      <trkpt lat="43.7223" lon="2.35912">
        <ele>587</ele>
        <time>2019-11-07T16:33:20Z</time>
      </trkpt>
      <trkpt lat="43.72226" lon="2.35966">
        <ele>588</ele>
        <time>2019-11-07T16:33:52Z</time>
      </trkpt>
      <trkpt lat="43.72212" lon="2.3602">
        <ele>587</ele>
        <time>2019-11-07T16:34:25Z</time>
      </trkpt>
      <trkpt lat="43.72186" lon="2.36076">
        <ele>583</ele>
        <time>2019-11-07T16:35:03Z</time>
      </trkpt>
      <trkpt lat="43.72176" lon="2.36083">
        <ele>583</ele>
        <time>2019-11-07T16:35:12Z</time>
      </trkpt>
      <trkpt lat="43.72161" lon="2.36082">
        <ele>583</ele>
        <time>2019-11-07T16:35:24Z</time>
      </trkpt>
      <trkpt lat="43.72152" lon="2.36077">
        <ele>585</ele>
        <time>2019-11-07T16:35:32Z</time>
      </trkpt>
      <trkpt lat="43.72145" lon="2.36066">
        <ele>586</ele>
        <time>2019-11-07T16:35:41Z</time>
      </trkpt>
      <trkpt lat="43.72139" lon="2.36065">
        <ele>587</ele>
        <time>2019-11-07T16:35:45Z</time>
      </trkpt>
      <trkpt lat="43.7213" lon="2.36072">
        <ele>586</ele>
        <time>2019-11-07T16:35:54Z</time>
      </trkpt>
      <trkpt lat="43.72124" lon="2.36083">
        <ele>585</ele>
        <time>2019-11-07T16:36:02Z</time>
      </trkpt>
      <trkpt lat="43.7211" lon="2.36085">
        <ele>586</ele>
        <time>2019-11-07T16:36:13Z</time>
      </trkpt>
      <trkpt lat="43.72103" lon="2.36102">
        <ele>586</ele>
        <time>2019-11-07T16:36:24Z</time>
      </trkpt>
      <trkpt lat="43.72101" lon="2.36145">
        <ele>585</ele>
        <time>2019-11-07T16:36:49Z</time>
      </trkpt>
      <trkpt lat="43.7208" lon="2.36194">
        <ele>588</ele>
        <time>2019-11-07T16:37:22Z</time>
      </trkpt>
      <trkpt lat="43.72056" lon="2.36219">
        <ele>591</ele>
        <time>2019-11-07T16:37:46Z</time>
      </trkpt>
      <trkpt lat="43.72047" lon="2.36222">
        <ele>591</ele>
        <time>2019-11-07T16:37:54Z</time>
      </trkpt>
      <trkpt lat="43.72011" lon="2.36224">
        <ele>593</ele>
        <time>2019-11-07T16:38:23Z</time>
      </trkpt>
      <trkpt lat="43.72002" lon="2.36227">
        <ele>593</ele>
        <time>2019-11-07T16:38:30Z</time>
      </trkpt>
      <trkpt lat="43.71987" lon="2.36237">
        <ele>594</ele>
        <time>2019-11-07T16:38:43Z</time>
      </trkpt>
      <trkpt lat="43.71943" lon="2.3629">
        <ele>595</ele>
        <time>2019-11-07T16:39:30Z</time>
      </trkpt>
      <trkpt lat="43.7183" lon="2.36444">
        <ele>599</ele>
        <time>2019-11-07T16:41:37Z</time>
      </trkpt>
      <trkpt lat="43.71889" lon="2.36542">
        <ele>597</ele>
        <time>2019-11-07T16:42:51Z</time>
      </trkpt>
      <trkpt lat="43.71916" lon="2.36608">
        <ele>597</ele>
        <time>2019-11-07T16:43:35Z</time>
      </trkpt>
      <trkpt lat="43.71949" lon="2.36706">
        <ele>598</ele>
        <time>2019-11-07T16:44:37Z</time>
      </trkpt>
      <trkpt lat="43.71967" lon="2.36791">
        <ele>602</ele>
        <time>2019-11-07T16:45:28Z</time>
      </trkpt>
      <trkpt lat="43.71973" lon="2.36858">
        <ele>604</ele>
        <time>2019-11-07T16:46:08Z</time>
      </trkpt>
      <trkpt lat="43.7197" lon="2.36894">
        <ele>605</ele>
        <time>2019-11-07T16:46:29Z</time>
      </trkpt>
      <trkpt lat="43.71972" lon="2.37003">
        <ele>611</ele>
        <time>2019-11-07T16:47:32Z</time>
      </trkpt>
      <trkpt lat="43.71946" lon="2.371">
        <ele>615</ele>
        <time>2019-11-07T16:48:31Z</time>
      </trkpt>
      <trkpt lat="43.71942" lon="2.37135">
        <ele>615</ele>
        <time>2019-11-07T16:48:52Z</time>
      </trkpt>
      <trkpt lat="43.71933" lon="2.37176">
        <ele>615</ele>
        <time>2019-11-07T16:49:17Z</time>
      </trkpt>
      <trkpt lat="43.71923" lon="2.37187">
        <ele>615</ele>
        <time>2019-11-07T16:49:27Z</time>
      </trkpt>
      <trkpt lat="43.71905" lon="2.37194">
        <ele>615</ele>
        <time>2019-11-07T16:49:42Z</time>
      </trkpt>
      <trkpt lat="43.71891" lon="2.37195">
        <ele>616</ele>
        <time>2019-11-07T16:49:53Z</time>
      </trkpt>
      <trkpt lat="43.71883" lon="2.37201">
        <ele>616</ele>
        <time>2019-11-07T16:50:00Z</time>
      </trkpt>
      <trkpt lat="43.71808" lon="2.3731">
        <ele>624</ele>
        <time>2019-11-07T16:51:28Z</time>
      </trkpt>
      <trkpt lat="43.71759" lon="2.37359">
        <ele>630</ele>
        <time>2019-11-07T16:52:16Z</time>
      </trkpt>
      <trkpt lat="43.71687" lon="2.37422">
        <ele>637</ele>
        <time>2019-11-07T16:53:24Z</time>
      </trkpt>
      <trkpt lat="43.7167" lon="2.3744">
        <ele>638</ele>
        <time>2019-11-07T16:53:41Z</time>
      </trkpt>
      <trkpt lat="43.71625" lon="2.3747">
        <ele>639</ele>
        <time>2019-11-07T16:54:21Z</time>
      </trkpt>
      <trkpt lat="43.71573" lon="2.37495">
        <ele>641</ele>
        <time>2019-11-07T16:55:05Z</time>
      </trkpt>
      <trkpt lat="43.71522" lon="2.37533">
        <ele>640</ele>
        <time>2019-11-07T16:55:52Z</time>
      </trkpt>
      <trkpt lat="43.71502" lon="2.37543">
        <ele>640</ele>
        <time>2019-11-07T16:56:09Z</time>
      </trkpt>
      <trkpt lat="43.71461" lon="2.37555">
        <ele>638</ele>
        <time>2019-11-07T16:56:42Z</time>
      </trkpt>
      <trkpt lat="43.71417" lon="2.37576">
        <ele>635</ele>
        <time>2019-11-07T16:57:20Z</time>
      </trkpt>
      <trkpt lat="43.71355" lon="2.37619">
        <ele>627</ele>
        <time>2019-11-07T16:58:15Z</time>
      </trkpt>
      <trkpt lat="43.71355" lon="2.37631">
        <ele>626</ele>
        <time>2019-11-07T16:58:22Z</time>
      </trkpt>
      <trkpt lat="43.71349" lon="2.37646">
        <ele>625</ele>
        <time>2019-11-07T16:58:32Z</time>
      </trkpt>
      <trkpt lat="43.71334" lon="2.37652">
        <ele>625</ele>
        <time>2019-11-07T16:58:45Z</time>
      </trkpt>
      <trkpt lat="43.71316" lon="2.37655">
        <ele>625</ele>
        <time>2019-11-07T16:58:59Z</time>
      </trkpt>
      <trkpt lat="43.71297" lon="2.37671">
        <ele>624</ele>
        <time>2019-11-07T16:59:17Z</time>
      </trkpt>
      <trkpt lat="43.71281" lon="2.37679">
        <ele>624</ele>
        <time>2019-11-07T16:59:30Z</time>
      </trkpt>
      <trkpt lat="43.71149" lon="2.37732">
        <ele>623</ele>
        <time>2019-11-07T17:01:21Z</time>
      </trkpt>
      <trkpt lat="43.71096" lon="2.37767">
        <ele>625</ele>
        <time>2019-11-07T17:02:08Z</time>
      </trkpt>
      <trkpt lat="43.71075" lon="2.37787">
        <ele>626</ele>
        <time>2019-11-07T17:02:28Z</time>
      </trkpt>
      <trkpt lat="43.70978" lon="2.379">
        <ele>632</ele>
        <time>2019-11-07T17:04:10Z</time>
      </trkpt>
      <trkpt lat="43.70961" lon="2.37909">
        <ele>633</ele>
        <time>2019-11-07T17:04:24Z</time>
      </trkpt>
      <trkpt lat="43.70928" lon="2.37915">
        <ele>635</ele>
        <time>2019-11-07T17:04:51Z</time>
      </trkpt>
      <trkpt lat="43.70916" lon="2.37923">
        <ele>635</ele>
        <time>2019-11-07T17:05:01Z</time>
      </trkpt>
      <trkpt lat="43.70909" lon="2.3793">
        <ele>633</ele>
        <time>2019-11-07T17:05:08Z</time>
      </trkpt>
      <trkpt lat="43.70898" lon="2.3795">
        <ele>630</ele>
        <time>2019-11-07T17:05:23Z</time>
      </trkpt>
      <trkpt lat="43.70876" lon="2.3798">
        <ele>626</ele>
        <time>2019-11-07T17:05:48Z</time>
      </trkpt>
      <trkpt lat="43.70857" lon="2.37998">
        <ele>625</ele>
        <time>2019-11-07T17:06:06Z</time>
      </trkpt>
      <trkpt lat="43.70832" lon="2.3803">
        <ele>627</ele>
        <time>2019-11-07T17:06:33Z</time>
      </trkpt>
      <trkpt lat="43.70772" lon="2.38066">
        <ele>620</ele>
        <time>2019-11-07T17:07:26Z</time>
      </trkpt>
      <trkpt lat="43.7067" lon="2.38132">
        <ele>610</ele>
        <time>2019-11-07T17:08:56Z</time>
      </trkpt>
      <trkpt lat="43.7062" lon="2.38151">
        <ele>608</ele>
        <time>2019-11-07T17:09:37Z</time>
      </trkpt>
      <trkpt lat="43.706" lon="2.38155">
        <ele>607</ele>
        <time>2019-11-07T17:09:54Z</time>
      </trkpt>
      <trkpt lat="43.70581" lon="2.38156">
        <ele>606</ele>
        <time>2019-11-07T17:10:09Z</time>
      </trkpt>
      <trkpt lat="43.70529" lon="2.38151">
        <ele>602</ele>
        <time>2019-11-07T17:10:50Z</time>
      </trkpt>
      <trkpt lat="43.70477" lon="2.3815">
        <ele>601</ele>
        <time>2019-11-07T17:11:32Z</time>
      </trkpt>
      <trkpt lat="43.70444" lon="2.38145">
        <ele>602</ele>
        <time>2019-11-07T17:11:59Z</time>
      </trkpt>
      <trkpt lat="43.70423" lon="2.38152">
        <ele>603</ele>
        <time>2019-11-07T17:12:16Z</time>
      </trkpt>
      <trkpt lat="43.70388" lon="2.38159">
        <ele>601</ele>
        <time>2019-11-07T17:12:44Z</time>
      </trkpt>
      <trkpt lat="43.70342" lon="2.38161">
        <ele>597</ele>
        <time>2019-11-07T17:13:21Z</time>
      </trkpt>
      <trkpt lat="43.70317" lon="2.38161">
        <ele>595</ele>
        <time>2019-11-07T17:13:41Z</time>
      </trkpt>
      <trkpt lat="43.70296" lon="2.38158">
        <ele>593</ele>
        <time>2019-11-07T17:13:58Z</time>
      </trkpt>
      <trkpt lat="43.70207" lon="2.38132">
        <ele>590</ele>
        <time>2019-11-07T17:15:11Z</time>
      </trkpt>
      <trkpt lat="43.70165" lon="2.38136">
        <ele>590</ele>
        <time>2019-11-07T17:15:45Z</time>
      </trkpt>
      <trkpt lat="43.70127" lon="2.38142">
        <ele>592</ele>
        <time>2019-11-07T17:16:15Z</time>
      </trkpt>
      <trkpt lat="43.7007" lon="2.38158">
        <ele>595</ele>
        <time>2019-11-07T17:17:02Z</time>
      </trkpt>
      <trkpt lat="43.70002" lon="2.38185">
        <ele>597</ele>
        <time>2019-11-07T17:17:58Z</time>
      </trkpt>
      <trkpt lat="43.69987" lon="2.38189">
        <ele>597</ele>
        <time>2019-11-07T17:18:11Z</time>
      </trkpt>
      <trkpt lat="43.69944" lon="2.38194">
        <ele>599</ele>
        <time>2019-11-07T17:18:45Z</time>
      </trkpt>
      <trkpt lat="43.69904" lon="2.38191">
        <ele>600</ele>
        <time>2019-11-07T17:19:17Z</time>
      </trkpt>
      <trkpt lat="43.69842" lon="2.38182">
        <ele>602</ele>
        <time>2019-11-07T17:20:07Z</time>
      </trkpt>
      <trkpt lat="43.69833" lon="2.38189">
        <ele>602</ele>
        <time>2019-11-07T17:20:15Z</time>
      </trkpt>
      <trkpt lat="43.69727" lon="2.38211">
        <ele>606</ele>
        <time>2019-11-07T17:21:41Z</time>
      </trkpt>
      <trkpt lat="43.69705" lon="2.38219">
        <ele>606</ele>
        <time>2019-11-07T17:22:00Z</time>
      </trkpt>
      <trkpt lat="43.69689" lon="2.38228">
        <ele>607</ele>
        <time>2019-11-07T17:22:13Z</time>
      </trkpt>
      <trkpt lat="43.69674" lon="2.38243">
        <ele>608</ele>
        <time>2019-11-07T17:22:28Z</time>
      </trkpt>
      <trkpt lat="43.6967" lon="2.38244">
        <ele>608</ele>
        <time>2019-11-07T17:22:31Z</time>
      </trkpt>
      <trkpt lat="43.6966" lon="2.38266">
        <ele>607</ele>
        <time>2019-11-07T17:22:46Z</time>
      </trkpt>
      <trkpt lat="43.69621" lon="2.38305">
        <ele>603</ele>
        <time>2019-11-07T17:23:25Z</time>
      </trkpt>
      <trkpt lat="43.69577" lon="2.38361">
        <ele>596</ele>
        <time>2019-11-07T17:24:13Z</time>
      </trkpt>
      <trkpt lat="43.6957" lon="2.38374">
        <ele>593</ele>
        <time>2019-11-07T17:24:22Z</time>
      </trkpt>
      <trkpt lat="43.69571" lon="2.38397">
        <ele>592</ele>
        <time>2019-11-07T17:24:36Z</time>
      </trkpt>
      <trkpt lat="43.69576" lon="2.38418">
        <ele>592</ele>
        <time>2019-11-07T17:24:48Z</time>
      </trkpt>
      <trkpt lat="43.69575" lon="2.38442">
        <ele>591</ele>
        <time>2019-11-07T17:25:02Z</time>
      </trkpt>
      <trkpt lat="43.69556" lon="2.38509">
        <ele>583</ele>
        <time>2019-11-07T17:25:44Z</time>
      </trkpt>
      <trkpt lat="43.69541" lon="2.38539">
        <ele>580</ele>
        <time>2019-11-07T17:26:05Z</time>
      </trkpt>
      <trkpt lat="43.695" lon="2.38593">
        <ele>576</ele>
        <time>2019-11-07T17:26:50Z</time>
      </trkpt>
      <trkpt lat="43.69471" lon="2.38652">
        <ele>572</ele>
        <time>2019-11-07T17:27:32Z</time>
      </trkpt>
      <trkpt lat="43.69429" lon="2.38698">
        <ele>565</ele>
        <time>2019-11-07T17:28:15Z</time>
      </trkpt>
      <trkpt lat="43.69355" lon="2.38796">
        <ele>549</ele>
        <time>2019-11-07T17:29:37Z</time>
      </trkpt>
      <trkpt lat="43.69251" lon="2.38898">
        <ele>543</ele>
        <time>2019-11-07T17:31:19Z</time>
      </trkpt>
      <trkpt lat="43.69265" lon="2.38926">
        <ele>542</ele>
        <time>2019-11-07T17:31:38Z</time>
      </trkpt>
      <trkpt lat="43.69262" lon="2.3894">
        <ele>540</ele>
        <time>2019-11-07T17:31:47Z</time>
      </trkpt>
      <trkpt lat="43.69237" lon="2.38948">
        <ele>542</ele>
        <time>2019-11-07T17:32:07Z</time>
      </trkpt>
      <trkpt lat="43.69218" lon="2.38968">
        <ele>543</ele>
        <time>2019-11-07T17:32:27Z</time>
      </trkpt>
      <trkpt lat="43.69211" lon="2.38984">
        <ele>543</ele>
        <time>2019-11-07T17:32:37Z</time>
      </trkpt>
      <trkpt lat="43.69203" lon="2.39009">
        <ele>542</ele>
        <time>2019-11-07T17:32:53Z</time>
      </trkpt>
      <trkpt lat="43.6919" lon="2.39066">
        <ele>539</ele>
        <time>2019-11-07T17:33:28Z</time>
      </trkpt>
      <trkpt lat="43.69188" lon="2.39153">
        <ele>528</ele>
        <time>2019-11-07T17:34:18Z</time>
      </trkpt>
      <trkpt lat="43.69191" lon="2.39176">
        <ele>523</ele>
        <time>2019-11-07T17:34:32Z</time>
      </trkpt>
      <trkpt lat="43.69197" lon="2.39192">
        <ele>519</ele>
        <time>2019-11-07T17:34:42Z</time>
      </trkpt>
      <trkpt lat="43.69215" lon="2.39217">
        <ele>507</ele>
        <time>2019-11-07T17:35:03Z</time>
      </trkpt>
      <trkpt lat="43.69215" lon="2.39308">
        <ele>495</ele>
        <time>2019-11-07T17:35:55Z</time>
      </trkpt>
      <trkpt lat="43.69204" lon="2.39403">
        <ele>481</ele>
        <time>2019-11-07T17:36:51Z</time>
      </trkpt>
      <trkpt lat="43.69193" lon="2.39453">
        <ele>471</ele>
        <time>2019-11-07T17:37:21Z</time>
      </trkpt>
      <trkpt lat="43.6919" lon="2.39484">
        <ele>464</ele>
        <time>2019-11-07T17:37:39Z</time>
      </trkpt>
      <trkpt lat="43.69182" lon="2.39519">
        <ele>458</ele>
        <time>2019-11-07T17:38:01Z</time>
      </trkpt>
      <trkpt lat="43.69167" lon="2.39551">
        <ele>455</ele>
        <time>2019-11-07T17:38:23Z</time>
      </trkpt>
      <trkpt lat="43.69149" lon="2.39577">
        <ele>451</ele>
        <time>2019-11-07T17:38:44Z</time>
      </trkpt>
      <trkpt lat="43.69122" lon="2.39609">
        <ele>444</ele>
        <time>2019-11-07T17:39:12Z</time>
      </trkpt>
      <trkpt lat="43.69112" lon="2.39614">
        <ele>444</ele>
        <time>2019-11-07T17:39:21Z</time>
      </trkpt>
      <trkpt lat="43.69106" lon="2.39609">
        <ele>446</ele>
        <time>2019-11-07T17:39:26Z</time>
      </trkpt>
      <trkpt lat="43.69082" lon="2.39598">
        <ele>453</ele>
        <time>2019-11-07T17:39:46Z</time>
      </trkpt>
      <trkpt lat="43.69078" lon="2.39601">
        <ele>453</ele>
        <time>2019-11-07T17:39:50Z</time>
      </trkpt>
      <trkpt lat="43.69068" lon="2.39623">
        <ele>449</ele>
        <time>2019-11-07T17:40:05Z</time>
      </trkpt>
      <trkpt lat="43.6906" lon="2.39631">
        <ele>448</ele>
        <time>2019-11-07T17:40:13Z</time>
      </trkpt>
      <trkpt lat="43.6905" lon="2.39636">
        <ele>449</ele>
        <time>2019-11-07T17:40:21Z</time>
      </trkpt>
      <trkpt lat="43.69018" lon="2.39678">
        <ele>444</ele>
        <time>2019-11-07T17:40:57Z</time>
      </trkpt>
      <trkpt lat="43.69003" lon="2.39715">
        <ele>437</ele>
        <time>2019-11-07T17:41:21Z</time>
      </trkpt>
      <trkpt lat="43.6899" lon="2.39736">
        <ele>433</ele>
        <time>2019-11-07T17:41:37Z</time>
      </trkpt>
      <trkpt lat="43.68978" lon="2.39748">
        <ele>432</ele>
        <time>2019-11-07T17:41:49Z</time>
      </trkpt>
      <trkpt lat="43.68964" lon="2.39745">
        <ele>435</ele>
        <time>2019-11-07T17:42:01Z</time>
      </trkpt>
      <trkpt lat="43.68957" lon="2.39749">
        <ele>435</ele>
        <time>2019-11-07T17:42:07Z</time>
      </trkpt>
      <trkpt lat="43.68907" lon="2.39764">
        <ele>440</ele>
        <time>2019-11-07T17:42:48Z</time>
      </trkpt>
      <trkpt lat="43.689" lon="2.3977">
        <ele>440</ele>
        <time>2019-11-07T17:42:54Z</time>
      </trkpt>
      <trkpt lat="43.68893" lon="2.3979">
        <ele>437</ele>
        <time>2019-11-07T17:43:07Z</time>
      </trkpt>
      <trkpt lat="43.68892" lon="2.39806">
        <ele>433</ele>
        <time>2019-11-07T17:43:16Z</time>
      </trkpt>
      <trkpt lat="43.68895" lon="2.3982">
        <ele>428</ele>
        <time>2019-11-07T17:43:25Z</time>
      </trkpt>
      <trkpt lat="43.68901" lon="2.39833">
        <ele>423</ele>
        <time>2019-11-07T17:43:34Z</time>
      </trkpt>
      <trkpt lat="43.68908" lon="2.39841">
        <ele>421</ele>
        <time>2019-11-07T17:43:41Z</time>
      </trkpt>
      <trkpt lat="43.68913" lon="2.39856">
        <ele>418</ele>
        <time>2019-11-07T17:43:51Z</time>
      </trkpt>
      <trkpt lat="43.68916" lon="2.39878">
        <ele>415</ele>
        <time>2019-11-07T17:44:04Z</time>
      </trkpt>
      <trkpt lat="43.68916" lon="2.40029">
        <ele>396</ele>
        <time>2019-11-07T17:45:31Z</time>
      </trkpt>
      <trkpt lat="43.68914" lon="2.40051">
        <ele>390</ele>
        <time>2019-11-07T17:45:44Z</time>
      </trkpt>
      <trkpt lat="43.68921" lon="2.40059">
        <ele>387</ele>
        <time>2019-11-07T17:45:51Z</time>
      </trkpt>
      <trkpt lat="43.68923" lon="2.40069">
        <ele>384</ele>
        <time>2019-11-07T17:45:57Z</time>
      </trkpt>
      <trkpt lat="43.68929" lon="2.40076">
        <ele>382</ele>
        <time>2019-11-07T17:46:03Z</time>
      </trkpt>
      <trkpt lat="43.68936" lon="2.40076">
        <ele>380</ele>
        <time>2019-11-07T17:46:09Z</time>
      </trkpt>
      <trkpt lat="43.68943" lon="2.4007">
        <ele>380</ele>
        <time>2019-11-07T17:46:16Z</time>
      </trkpt>
      <trkpt lat="43.68949" lon="2.40074">
        <ele>378</ele>
        <time>2019-11-07T17:46:21Z</time>
      </trkpt>
      <trkpt lat="43.68952" lon="2.40088">
        <ele>375</ele>
        <time>2019-11-07T17:46:29Z</time>
      </trkpt>
      <trkpt lat="43.6895" lon="2.40103">
        <ele>370</ele>
        <time>2019-11-07T17:46:38Z</time>
      </trkpt>
      <trkpt lat="43.68953" lon="2.40115">
        <ele>367</ele>
        <time>2019-11-07T17:46:46Z</time>
      </trkpt>
      <trkpt lat="43.68951" lon="2.40125">
        <ele>364</ele>
        <time>2019-11-07T17:46:52Z</time>
      </trkpt>
      <trkpt lat="43.68953" lon="2.40135">
        <ele>361</ele>
        <time>2019-11-07T17:46:58Z</time>
      </trkpt>
      <trkpt lat="43.68964" lon="2.40135">
        <ele>360</ele>
        <time>2019-11-07T17:47:06Z</time>
      </trkpt>
      <trkpt lat="43.68973" lon="2.40139">
        <ele>359</ele>
        <time>2019-11-07T17:47:14Z</time>
      </trkpt>
      <trkpt lat="43.68982" lon="2.40156">
        <ele>354</ele>
        <time>2019-11-07T17:47:26Z</time>
      </trkpt>
      <trkpt lat="43.68987" lon="2.40155">
        <ele>354</ele>
        <time>2019-11-07T17:47:30Z</time>
      </trkpt>
      <trkpt lat="43.69001" lon="2.40125">
        <ele>360</ele>
        <time>2019-11-07T17:47:51Z</time>
      </trkpt>
      <trkpt lat="43.69027" lon="2.40029">
        <ele>362</ele>
        <time>2019-11-07T17:48:50Z</time>
      </trkpt>
      <trkpt lat="43.69038" lon="2.40005">
        <ele>360</ele>
        <time>2019-11-07T17:49:07Z</time>
      </trkpt>
      <trkpt lat="43.69045" lon="2.39995">
        <ele>359</ele>
        <time>2019-11-07T17:49:15Z</time>
      </trkpt>
      <trkpt lat="43.69052" lon="2.39994">
        <ele>357</ele>
        <time>2019-11-07T17:49:20Z</time>
      </trkpt>
      <trkpt lat="43.69053" lon="2.39997">
        <ele>356</ele>
        <time>2019-11-07T17:49:22Z</time>
      </trkpt>
      <trkpt lat="43.6906" lon="2.4004">
        <ele>349</ele>
        <time>2019-11-07T17:49:48Z</time>
      </trkpt>
      <trkpt lat="43.69049" lon="2.40096">
        <ele>346</ele>
        <time>2019-11-07T17:50:21Z</time>
      </trkpt>
      <trkpt lat="43.69055" lon="2.40104">
        <ele>343</ele>
        <time>2019-11-07T17:50:28Z</time>
      </trkpt>
      <trkpt lat="43.69065" lon="2.40098">
        <ele>340</ele>
        <time>2019-11-07T17:50:37Z</time>
      </trkpt>
      <trkpt lat="43.69084" lon="2.40068">
        <ele>336</ele>
        <time>2019-11-07T17:51:00Z</time>
      </trkpt>
      <trkpt lat="43.6907" lon="2.40156">
        <ele>333</ele>
        <time>2019-11-07T17:51:52Z</time>
      </trkpt>
      <trkpt lat="43.69066" lon="2.40169">
        <ele>333</ele>
        <time>2019-11-07T17:52:00Z</time>
      </trkpt>
      <trkpt lat="43.6906" lon="2.40185">
        <ele>333</ele>
        <time>2019-11-07T17:52:11Z</time>
      </trkpt>
      <trkpt lat="43.69024" lon="2.40244">
        <ele>329</ele>
        <time>2019-11-07T17:52:55Z</time>
      </trkpt>
      <trkpt lat="43.69018" lon="2.40292">
        <ele>322</ele>
        <time>2019-11-07T17:53:24Z</time>
      </trkpt>
      <trkpt lat="43.69018" lon="2.40299">
        <ele>321</ele>
        <time>2019-11-07T17:53:28Z</time>
      </trkpt>
      <trkpt lat="43.69023" lon="2.4031">
        <ele>319</ele>
        <time>2019-11-07T17:53:35Z</time>
      </trkpt>
      <trkpt lat="43.68993" lon="2.40337">
        <ele>318</ele>
        <time>2019-11-07T17:54:04Z</time>
      </trkpt>
      <trkpt lat="43.6898" lon="2.40344">
        <ele>321</ele>
        <time>2019-11-07T17:54:15Z</time>
      </trkpt>
      <trkpt lat="43.68947" lon="2.40348">
        <ele>324</ele>
        <time>2019-11-07T17:54:41Z</time>
      </trkpt>
      <trkpt lat="43.68927" lon="2.40346">
        <ele>325</ele>
        <time>2019-11-07T17:54:58Z</time>
      </trkpt>
      <trkpt lat="43.68917" lon="2.40342">
        <ele>324</ele>
        <time>2019-11-07T17:55:06Z</time>
      </trkpt>
      <trkpt lat="43.68899" lon="2.40326">
        <ele>320</ele>
        <time>2019-11-07T17:55:23Z</time>
      </trkpt>
      <trkpt lat="43.68872" lon="2.40292">
        <ele>318</ele>
        <time>2019-11-07T17:55:52Z</time>
      </trkpt>
      <trkpt lat="43.68857" lon="2.40288">
        <ele>316</ele>
        <time>2019-11-07T17:56:04Z</time>
      </trkpt>
      <trkpt lat="43.6884" lon="2.40291">
        <ele>314</ele>
        <time>2019-11-07T17:56:18Z</time>
      </trkpt>
      <trkpt lat="43.68835" lon="2.40297">
        <ele>314</ele>
        <time>2019-11-07T17:56:23Z</time>
      </trkpt>
      <trkpt lat="43.68829" lon="2.40318">
        <ele>312</ele>
        <time>2019-11-07T17:56:37Z</time>
      </trkpt>
      <trkpt lat="43.68824" lon="2.40398">
        <ele>318</ele>
        <time>2019-11-07T17:57:23Z</time>
      </trkpt>
      <trkpt lat="43.68816" lon="2.40447">
        <ele>324</ele>
        <time>2019-11-07T17:57:52Z</time>
      </trkpt>
      <trkpt lat="43.68797" lon="2.40491">
        <ele>329</ele>
        <time>2019-11-07T17:58:22Z</time>
      </trkpt>
      <trkpt lat="43.68787" lon="2.40495">
        <ele>328</ele>
        <time>2019-11-07T17:58:30Z</time>
      </trkpt>
      <trkpt lat="43.68753" lon="2.40495">
        <ele>323</ele>
        <time>2019-11-07T17:58:57Z</time>
      </trkpt>
      <trkpt lat="43.68724" lon="2.40484">
        <ele>328</ele>
        <time>2019-11-07T17:59:21Z</time>
      </trkpt>
      <trkpt lat="43.68717" lon="2.40477">
        <ele>329</ele>
        <time>2019-11-07T17:59:28Z</time>
      </trkpt>
      <trkpt lat="43.68712" lon="2.40469">
        <ele>329</ele>
        <time>2019-11-07T17:59:34Z</time>
      </trkpt>
      <trkpt lat="43.68707" lon="2.40452">
        <ele>328</ele>
        <time>2019-11-07T17:59:45Z</time>
      </trkpt>
      <trkpt lat="43.68704" lon="2.40432">
        <ele>325</ele>
        <time>2019-11-07T17:59:57Z</time>
      </trkpt>
      <trkpt lat="43.68702" lon="2.40376">
        <ele>319</ele>
        <time>2019-11-07T18:00:29Z</time>
      </trkpt>
      <trkpt lat="43.68697" lon="2.4035">
        <ele>317</ele>
        <time>2019-11-07T18:00:45Z</time>
      </trkpt>
      <trkpt lat="43.68694" lon="2.4034">
        <ele>317</ele>
        <time>2019-11-07T18:00:51Z</time>
      </trkpt>
      <trkpt lat="43.68668" lon="2.40296">
        <ele>315</ele>
        <time>2019-11-07T18:01:24Z</time>
      </trkpt>
      <trkpt lat="43.68664" lon="2.40277">
        <ele>314</ele>
        <time>2019-11-07T18:01:36Z</time>
      </trkpt>
      <trkpt lat="43.68663" lon="2.4024">
        <ele>309</ele>
        <time>2019-11-07T18:01:57Z</time>
      </trkpt>
      <trkpt lat="43.68656" lon="2.40219">
        <ele>309</ele>
        <time>2019-11-07T18:02:10Z</time>
      </trkpt>
      <trkpt lat="43.6865" lon="2.40209">
        <ele>309</ele>
        <time>2019-11-07T18:02:18Z</time>
      </trkpt>
      <trkpt lat="43.68643" lon="2.40204">
        <ele>310</ele>
        <time>2019-11-07T18:02:24Z</time>
      </trkpt>
      <trkpt lat="43.68627" lon="2.40204">
        <ele>314</ele>
        <time>2019-11-07T18:02:37Z</time>
      </trkpt>
      <trkpt lat="43.68619" lon="2.40201">
        <ele>315</ele>
        <time>2019-11-07T18:02:44Z</time>
      </trkpt>
      <trkpt lat="43.6861" lon="2.40197">
        <ele>316</ele>
        <time>2019-11-07T18:02:51Z</time>
      </trkpt>
      <trkpt lat="43.6859" lon="2.40182">
        <ele>317</ele>
        <time>2019-11-07T18:03:09Z</time>
      </trkpt>
      <trkpt lat="43.68574" lon="2.40165">
        <ele>317</ele>
        <time>2019-11-07T18:03:26Z</time>
      </trkpt>
      <trkpt lat="43.68549" lon="2.40129">
        <ele>316</ele>
        <time>2019-11-07T18:03:55Z</time>
      </trkpt>
      <trkpt lat="43.68531" lon="2.40123">
        <ele>318</ele>
        <time>2019-11-07T18:04:09Z</time>
      </trkpt>
      <trkpt lat="43.68514" lon="2.40123">
        <ele>322</ele>
        <time>2019-11-07T18:04:23Z</time>
      </trkpt>
      <trkpt lat="43.68495" lon="2.40119">
        <ele>325</ele>
        <time>2019-11-07T18:04:38Z</time>
      </trkpt>
      <trkpt lat="43.68478" lon="2.40111">
        <ele>329</ele>
        <time>2019-11-07T18:04:53Z</time>
      </trkpt>
      <trkpt lat="43.68461" lon="2.40097">
        <ele>331</ele>
        <time>2019-11-07T18:05:09Z</time>
      </trkpt>
      <trkpt lat="43.68455" lon="2.40088">
        <ele>331</ele>
        <time>2019-11-07T18:05:16Z</time>
      </trkpt>
      <trkpt lat="43.68453" lon="2.40077">
        <ele>329</ele>
        <time>2019-11-07T18:05:22Z</time>
      </trkpt>
      <trkpt lat="43.68451" lon="2.40029">
        <ele>318</ele>
        <time>2019-11-07T18:05:50Z</time>
      </trkpt>
      <trkpt lat="43.68445" lon="2.39997">
        <ele>312</ele>
        <time>2019-11-07T18:06:09Z</time>
      </trkpt>
      <trkpt lat="43.6844" lon="2.39987">
        <ele>312</ele>
        <time>2019-11-07T18:06:16Z</time>
      </trkpt>
      <trkpt lat="43.68433" lon="2.3998">
        <ele>312</ele>
        <time>2019-11-07T18:06:23Z</time>
      </trkpt>
      <trkpt lat="43.68422" lon="2.39975">
        <ele>313</ele>
        <time>2019-11-07T18:06:32Z</time>
      </trkpt>
      <trkpt lat="43.68391" lon="2.39968">
        <ele>315</ele>
        <time>2019-11-07T18:06:58Z</time>
      </trkpt>
      <trkpt lat="43.68308" lon="2.3996">
        <ele>316</ele>
        <time>2019-11-07T18:08:04Z</time>
      </trkpt>
      <trkpt lat="43.68288" lon="2.3995">
        <ele>310</ele>
        <time>2019-11-07T18:08:21Z</time>
      </trkpt>
      <trkpt lat="43.68271" lon="2.39947">
        <ele>308</ele>
        <time>2019-11-07T18:08:35Z</time>
      </trkpt>
      <trkpt lat="43.68252" lon="2.39955">
        <ele>307</ele>
        <time>2019-11-07T18:08:51Z</time>
      </trkpt>
      <trkpt lat="43.68214" lon="2.39989">
        <ele>300</ele>
        <time>2019-11-07T18:09:27Z</time>
      </trkpt>
      <trkpt lat="43.68223" lon="2.40013">
        <ele>305</ele>
        <time>2019-11-07T18:09:43Z</time>
      </trkpt>
      <trkpt lat="43.68238" lon="2.40075">
        <ele>315</ele>
        <time>2019-11-07T18:10:21Z</time>
      </trkpt>
      <trkpt lat="43.6824" lon="2.40151">
        <ele>318</ele>
        <time>2019-11-07T18:11:05Z</time>
      </trkpt>
      <trkpt lat="43.68238" lon="2.40179">
        <ele>320</ele>
        <time>2019-11-07T18:11:21Z</time>
      </trkpt>
      <trkpt lat="43.68217" lon="2.40238">
        <ele>323</ele>
        <time>2019-11-07T18:11:59Z</time>
      </trkpt>
      <trkpt lat="43.68202" lon="2.40267">
        <ele>326</ele>
        <time>2019-11-07T18:12:20Z</time>
      </trkpt>
      <trkpt lat="43.68196" lon="2.40274">
        <ele>326</ele>
        <time>2019-11-07T18:12:26Z</time>
      </trkpt>
      <trkpt lat="43.68178" lon="2.40289">
        <ele>324</ele>
        <time>2019-11-07T18:12:43Z</time>
      </trkpt>
      <trkpt lat="43.68164" lon="2.40296">
        <ele>322</ele>
        <time>2019-11-07T18:12:55Z</time>
      </trkpt>
      <trkpt lat="43.68121" lon="2.40299">
        <ele>316</ele>
        <time>2019-11-07T18:13:29Z</time>
      </trkpt>
      <trkpt lat="43.68093" lon="2.40295">
        <ele>310</ele>
        <time>2019-11-07T18:13:52Z</time>
      </trkpt>
      <trkpt lat="43.68081" lon="2.40296">
        <ele>308</ele>
        <time>2019-11-07T18:14:01Z</time>
      </trkpt>
      <trkpt lat="43.68062" lon="2.40315">
        <ele>308</ele>
        <time>2019-11-07T18:14:20Z</time>
      </trkpt>
      <trkpt lat="43.6806" lon="2.40314">
        <ele>307</ele>
        <time>2019-11-07T18:14:22Z</time>
      </trkpt>
      <trkpt lat="43.68058" lon="2.40307">
        <ele>305</ele>
        <time>2019-11-07T18:14:26Z</time>
      </trkpt>
      <trkpt lat="43.68068" lon="2.40294">
        <ele>304</ele>
        <time>2019-11-07T18:14:37Z</time>
      </trkpt>
      <trkpt lat="43.68076" lon="2.40265">
        <ele>297</ele>
        <time>2019-11-07T18:14:55Z</time>
      </trkpt>
      <trkpt lat="43.68103" lon="2.40125">
        <ele>280</ele>
        <time>2019-11-07T18:16:19Z</time>
      </trkpt>
      <trkpt lat="43.68098" lon="2.40067">
        <ele>281</ele>
        <time>2019-11-07T18:16:53Z</time>
      </trkpt>
      <trkpt lat="43.68088" lon="2.40025">
        <ele>283</ele>
        <time>2019-11-07T18:17:18Z</time>
      </trkpt>
      <trkpt lat="43.68077" lon="2.39997">
        <ele>286</ele>
        <time>2019-11-07T18:17:37Z</time>
      </trkpt>
      <trkpt lat="43.68036" lon="2.39911">
        <ele>296</ele>
        <time>2019-11-07T18:18:37Z</time>
      </trkpt>
      <trkpt lat="43.67969" lon="2.39801">
        <ele>296</ele>
        <time>2019-11-07T18:20:00Z</time>
      </trkpt>
      <trkpt lat="43.67915" lon="2.39738">
        <ele>293</ele>
        <time>2019-11-07T18:20:56Z</time>
      </trkpt>
      <trkpt lat="43.67862" lon="2.39689">
        <ele>299</ele>
        <time>2019-11-07T18:21:47Z</time>
      </trkpt>
      <trkpt lat="43.67843" lon="2.39668">
        <ele>298</ele>
        <time>2019-11-07T18:22:07Z</time>
      </trkpt>
      <trkpt lat="43.6783" lon="2.39643">
        <ele>300</ele>
        <time>2019-11-07T18:22:25Z</time>
      </trkpt>
      <trkpt lat="43.67822" lon="2.39621">
        <ele>301</ele>
        <time>2019-11-07T18:22:39Z</time>
      </trkpt>
      <trkpt lat="43.67814" lon="2.39571">
        <ele>300</ele>
        <time>2019-11-07T18:23:09Z</time>
      </trkpt>
      <trkpt lat="43.67814" lon="2.39519">
        <ele>300</ele>
        <time>2019-11-07T18:23:39Z</time>
      </trkpt>
      <trkpt lat="43.67822" lon="2.39419">
        <ele>296</ele>
        <time>2019-11-07T18:24:37Z</time>
      </trkpt>
      <trkpt lat="43.67825" lon="2.39325">
        <ele>295</ele>
        <time>2019-11-07T18:25:32Z</time>
      </trkpt>
      <trkpt lat="43.67834" lon="2.39275">
        <ele>294</ele>
        <time>2019-11-07T18:26:01Z</time>
      </trkpt>
      <trkpt lat="43.67852" lon="2.3921">
        <ele>290</ele>
        <time>2019-11-07T18:26:42Z</time>
      </trkpt>
      <trkpt lat="43.67855" lon="2.39181">
        <ele>290</ele>
        <time>2019-11-07T18:26:59Z</time>
      </trkpt>
      <trkpt lat="43.67853" lon="2.39098">
        <ele>287</ele>
        <time>2019-11-07T18:27:47Z</time>
      </trkpt>
      <trkpt lat="43.67787" lon="2.38866">
        <ele>287</ele>
        <time>2019-11-07T18:30:11Z</time>
      </trkpt>
      <trkpt lat="43.67764" lon="2.38764">
        <ele>287</ele>
        <time>2019-11-07T18:31:13Z</time>
      </trkpt>
      <trkpt lat="43.67762" lon="2.38739">
        <ele>289</ele>
        <time>2019-11-07T18:31:28Z</time>
      </trkpt>
      <trkpt lat="43.67774" lon="2.38675">
        <ele>292</ele>
        <time>2019-11-07T18:32:06Z</time>
      </trkpt>
      <trkpt lat="43.67785" lon="2.38642">
        <ele>295</ele>
        <time>2019-11-07T18:32:27Z</time>
      </trkpt>
      <trkpt lat="43.67799" lon="2.38614">
        <ele>297</ele>
        <time>2019-11-07T18:32:47Z</time>
      </trkpt>
      <trkpt lat="43.67817" lon="2.3859">
        <ele>294</ele>
        <time>2019-11-07T18:33:07Z</time>
      </trkpt>
      <trkpt lat="43.67867" lon="2.38542">
        <ele>293</ele>
        <time>2019-11-07T18:33:55Z</time>
      </trkpt>
      <trkpt lat="43.67886" lon="2.38529">
        <ele>289</ele>
        <time>2019-11-07T18:34:12Z</time>
      </trkpt>
      <trkpt lat="43.67914" lon="2.38518">
        <ele>280</ele>
        <time>2019-11-07T18:34:36Z</time>
      </trkpt>
      <trkpt lat="43.68114" lon="2.38499">
        <ele>272</ele>
        <time>2019-11-07T18:37:16Z</time>
      </trkpt>
      <trkpt lat="43.68131" lon="2.38491">
        <ele>273</ele>
        <time>2019-11-07T18:37:30Z</time>
      </trkpt>
      <trkpt lat="43.68168" lon="2.38467">
        <ele>277</ele>
        <time>2019-11-07T18:38:03Z</time>
      </trkpt>
      <trkpt lat="43.68191" lon="2.38456">
        <ele>276</ele>
        <time>2019-11-07T18:38:23Z</time>
      </trkpt>
      <trkpt lat="43.68211" lon="2.38437">
        <ele>276</ele>
        <time>2019-11-07T18:38:42Z</time>
      </trkpt>
      <trkpt lat="43.68234" lon="2.38405">
        <ele>275</ele>
        <time>2019-11-07T18:39:08Z</time>
      </trkpt>
      <trkpt lat="43.68272" lon="2.38331">
        <ele>278</ele>
        <time>2019-11-07T18:40:01Z</time>
      </trkpt>
      <trkpt lat="43.68276" lon="2.38304">
        <ele>275</ele>
        <time>2019-11-07T18:40:17Z</time>
      </trkpt>
      <trkpt lat="43.68273" lon="2.38289">
        <ele>275</ele>
        <time>2019-11-07T18:40:26Z</time>
      </trkpt>
      <trkpt lat="43.68265" lon="2.38271">
        <ele>275</ele>
        <time>2019-11-07T18:40:38Z</time>
      </trkpt>
      <trkpt lat="43.68247" lon="2.38246">
        <ele>276</ele>
        <time>2019-11-07T18:40:58Z</time>
      </trkpt>
      <trkpt lat="43.68242" lon="2.38243">
        <ele>277</ele>
        <time>2019-11-07T18:41:03Z</time>
      </trkpt>
      <trkpt lat="43.68203" lon="2.38195">
        <ele>275</ele>
        <time>2019-11-07T18:41:45Z</time>
      </trkpt>
      <trkpt lat="43.68182" lon="2.38182">
        <ele>275</ele>
        <time>2019-11-07T18:42:03Z</time>
      </trkpt>
      <trkpt lat="43.68122" lon="2.38122">
        <ele>276</ele>
        <time>2019-11-07T18:43:02Z</time>
      </trkpt>
      <trkpt lat="43.68071" lon="2.38064">
        <ele>274</ele>
        <time>2019-11-07T18:43:55Z</time>
      </trkpt>
      <trkpt lat="43.6803" lon="2.38008">
        <ele>278</ele>
        <time>2019-11-07T18:44:41Z</time>
      </trkpt>
      <trkpt lat="43.68013" lon="2.37977">
        <ele>277</ele>
        <time>2019-11-07T18:45:04Z</time>
      </trkpt>
      <trkpt lat="43.67991" lon="2.37923">
        <ele>271</ele>
        <time>2019-11-07T18:45:40Z</time>
      </trkpt>
      <trkpt lat="43.67944" lon="2.37828">
        <ele>271</ele>
        <time>2019-11-07T18:46:46Z</time>
      </trkpt>
      <trkpt lat="43.67925" lon="2.37798">
        <ele>269</ele>
        <time>2019-11-07T18:47:09Z</time>
      </trkpt>
      <trkpt lat="43.67907" lon="2.3778">
        <ele>268</ele>
        <time>2019-11-07T18:47:27Z</time>
      </trkpt>
      <trkpt lat="43.67892" lon="2.37771">
        <ele>269</ele>
        <time>2019-11-07T18:47:40Z</time>
      </trkpt>
      <trkpt lat="43.67832" lon="2.37758">
        <ele>277</ele>
        <time>2019-11-07T18:48:29Z</time>
      </trkpt>
      <trkpt lat="43.67744" lon="2.37715">
        <ele>287</ele>
        <time>2019-11-07T18:49:44Z</time>
      </trkpt>
      <trkpt lat="43.67701" lon="2.37682">
        <ele>290</ele>
        <time>2019-11-07T18:50:23Z</time>
      </trkpt>
      <trkpt lat="43.6768" lon="2.37676">
        <ele>294</ele>
        <time>2019-11-07T18:50:40Z</time>
      </trkpt>
      <trkpt lat="43.6767" lon="2.37676">
        <ele>298</ele>
        <time>2019-11-07T18:50:48Z</time>
      </trkpt>
      <trkpt lat="43.67634" lon="2.37686">
        <ele>312</ele>
        <time>2019-11-07T18:51:18Z</time>
      </trkpt>
      <trkpt lat="43.67621" lon="2.37685">
        <ele>316</ele>
        <time>2019-11-07T18:51:28Z</time>
      </trkpt>
      <trkpt lat="43.67612" lon="2.37654">
        <ele>310</ele>
        <time>2019-11-07T18:51:47Z</time>
      </trkpt>
      <trkpt lat="43.67601" lon="2.37627">
        <ele>307</ele>
        <time>2019-11-07T18:52:05Z</time>
      </trkpt>
      <trkpt lat="43.67562" lon="2.3756">
        <ele>312</ele>
        <time>2019-11-07T18:52:55Z</time>
      </trkpt>
      <trkpt lat="43.67548" lon="2.37544">
        <ele>317</ele>
        <time>2019-11-07T18:53:10Z</time>
      </trkpt>
      <trkpt lat="43.67539" lon="2.37526">
        <ele>318</ele>
        <time>2019-11-07T18:53:22Z</time>
      </trkpt>
      <trkpt lat="43.67525" lon="2.37493">
        <ele>319</ele>
        <time>2019-11-07T18:53:45Z</time>
      </trkpt>
      <trkpt lat="43.67496" lon="2.37399">
        <ele>313</ele>
        <time>2019-11-07T18:54:44Z</time>
      </trkpt>
      <trkpt lat="43.67488" lon="2.37384">
        <ele>312</ele>
        <time>2019-11-07T18:54:55Z</time>
      </trkpt>
      <trkpt lat="43.67478" lon="2.37381">
        <ele>313</ele>
        <time>2019-11-07T18:55:03Z</time>
      </trkpt>
      <trkpt lat="43.67461" lon="2.37395">
        <ele>317</ele>
        <time>2019-11-07T18:55:19Z</time>
      </trkpt>
      <trkpt lat="43.67465" lon="2.37415">
        <ele>320</ele>
        <time>2019-11-07T18:55:31Z</time>
      </trkpt>
      <trkpt lat="43.67488" lon="2.37462">
        <ele>329</ele>
        <time>2019-11-07T18:56:03Z</time>
      </trkpt>
      <trkpt lat="43.67499" lon="2.37601">
        <ele>358</ele>
        <time>2019-11-07T18:57:24Z</time>
      </trkpt>
      <trkpt lat="43.67512" lon="2.3765">
        <ele>361</ele>
        <time>2019-11-07T18:57:55Z</time>
      </trkpt>
      <trkpt lat="43.67525" lon="2.3773">
        <ele>372</ele>
        <time>2019-11-07T18:58:42Z</time>
      </trkpt>
      <trkpt lat="43.67543" lon="2.3782">
        <ele>388</ele>
        <time>2019-11-07T18:59:36Z</time>
      </trkpt>
      <trkpt lat="43.67558" lon="2.37862">
        <ele>397</ele>
        <time>2019-11-07T19:00:03Z</time>
      </trkpt>
      <trkpt lat="43.67565" lon="2.37871">
        <ele>398</ele>
        <time>2019-11-07T19:00:11Z</time>
      </trkpt>
      <trkpt lat="43.67584" lon="2.37871">
        <ele>392</ele>
        <time>2019-11-07T19:00:26Z</time>
      </trkpt>
      <trkpt lat="43.67599" lon="2.37868">
        <ele>390</ele>
        <time>2019-11-07T19:00:38Z</time>
      </trkpt>
      <trkpt lat="43.6761" lon="2.37868">
        <ele>389</ele>
        <time>2019-11-07T19:00:47Z</time>
      </trkpt>
      <trkpt lat="43.6762" lon="2.37871">
        <ele>389</ele>
        <time>2019-11-07T19:00:55Z</time>
      </trkpt>
      <trkpt lat="43.67643" lon="2.37888">
        <ele>395</ele>
        <time>2019-11-07T19:01:16Z</time>
      </trkpt>
      <trkpt lat="43.67674" lon="2.37924">
        <ele>405</ele>
        <time>2019-11-07T19:01:49Z</time>
      </trkpt>
      <trkpt lat="43.67696" lon="2.37937">
        <ele>403</ele>
        <time>2019-11-07T19:02:08Z</time>
      </trkpt>
      <trkpt lat="43.67714" lon="2.37954">
        <ele>404</ele>
        <time>2019-11-07T19:02:25Z</time>
      </trkpt>
      <trkpt lat="43.67727" lon="2.37978">
        <ele>409</ele>
        <time>2019-11-07T19:02:43Z</time>
      </trkpt>
      <trkpt lat="43.67738" lon="2.38016">
        <ele>416</ele>
        <time>2019-11-07T19:03:06Z</time>
      </trkpt>
      <trkpt lat="43.67769" lon="2.38075">
        <ele>419</ele>
        <time>2019-11-07T19:03:49Z</time>
      </trkpt>
      <trkpt lat="43.6778" lon="2.38108">
        <ele>420</ele>
        <time>2019-11-07T19:04:10Z</time>
      </trkpt>
      <trkpt lat="43.67792" lon="2.38158">
        <ele>423</ele>
        <time>2019-11-07T19:04:40Z</time>
      </trkpt>
      <trkpt lat="43.67793" lon="2.3818">
        <ele>422</ele>
        <time>2019-11-07T19:04:53Z</time>
      </trkpt>
      <trkpt lat="43.6779" lon="2.38195">
        <ele>422</ele>
        <time>2019-11-07T19:05:02Z</time>
      </trkpt>
      <trkpt lat="43.67784" lon="2.38206">
        <ele>423</ele>
        <time>2019-11-07T19:05:10Z</time>
      </trkpt>
      <trkpt lat="43.67774" lon="2.38214">
        <ele>425</ele>
        <time>2019-11-07T19:05:19Z</time>
      </trkpt>
      <trkpt lat="43.67749" lon="2.38218">
        <ele>432</ele>
        <time>2019-11-07T19:05:39Z</time>
      </trkpt>
      <trkpt lat="43.67669" lon="2.38209">
        <ele>447</ele>
        <time>2019-11-07T19:06:44Z</time>
      </trkpt>
      <trkpt lat="43.67645" lon="2.38212">
        <ele>453</ele>
        <time>2019-11-07T19:07:03Z</time>
      </trkpt>
      <trkpt lat="43.67628" lon="2.38221">
        <ele>458</ele>
        <time>2019-11-07T19:07:17Z</time>
      </trkpt>
      <trkpt lat="43.67625" lon="2.38216">
        <ele>459</ele>
        <time>2019-11-07T19:07:21Z</time>
      </trkpt>
      <trkpt lat="43.67631" lon="2.38211">
        <ele>457</ele>
        <time>2019-11-07T19:07:27Z</time>
      </trkpt>
      <trkpt lat="43.6759" lon="2.38226">
        <ele>469</ele>
        <time>2019-11-07T19:08:01Z</time>
      </trkpt>
      <trkpt lat="43.67542" lon="2.38264">
        <ele>485</ele>
        <time>2019-11-07T19:08:45Z</time>
      </trkpt>
      <trkpt lat="43.67538" lon="2.38262">
        <ele>487</ele>
        <time>2019-11-07T19:08:48Z</time>
      </trkpt>
      <trkpt lat="43.67551" lon="2.38238">
        <ele>483</ele>
        <time>2019-11-07T19:09:06Z</time>
      </trkpt>
      <trkpt lat="43.67565" lon="2.382">
        <ele>477</ele>
        <time>2019-11-07T19:09:30Z</time>
      </trkpt>
      <trkpt lat="43.67538" lon="2.38159">
        <ele>483</ele>
        <time>2019-11-07T19:10:03Z</time>
      </trkpt>
      <trkpt lat="43.67528" lon="2.38159">
        <ele>486</ele>
        <time>2019-11-07T19:10:11Z</time>
      </trkpt>
      <trkpt lat="43.67518" lon="2.38163">
        <ele>489</ele>
        <time>2019-11-07T19:10:19Z</time>
      </trkpt>
      <trkpt lat="43.67516" lon="2.38174">
        <ele>491</ele>
        <time>2019-11-07T19:10:25Z</time>
      </trkpt>
      <trkpt lat="43.67518" lon="2.38183">
        <ele>491</ele>
        <time>2019-11-07T19:10:31Z</time>
      </trkpt>
      <trkpt lat="43.67505" lon="2.38187">
        <ele>495</ele>
        <time>2019-11-07T19:10:42Z</time>
      </trkpt>
      <trkpt lat="43.67495" lon="2.38202">
        <ele>500</ele>
        <time>2019-11-07T19:10:53Z</time>
      </trkpt>
      <trkpt lat="43.67442" lon="2.38305">
        <ele>511</ele>
        <time>2019-11-07T19:12:07Z</time>
      </trkpt>
      <trkpt lat="43.6742" lon="2.38333">
        <ele>516</ele>
        <time>2019-11-07T19:12:31Z</time>
      </trkpt>
      <trkpt lat="43.67411" lon="2.38338">
        <ele>518</ele>
        <time>2019-11-07T19:12:38Z</time>
      </trkpt>
      <trkpt lat="43.67347" lon="2.38356">
        <ele>530</ele>
        <time>2019-11-07T19:13:31Z</time>
      </trkpt>
      <trkpt lat="43.67304" lon="2.38379">
        <ele>532</ele>
        <time>2019-11-07T19:14:08Z</time>
      </trkpt>
      <trkpt lat="43.67258" lon="2.38419">
        <ele>536</ele>
        <time>2019-11-07T19:14:51Z</time>
      </trkpt>
      <trkpt lat="43.67245" lon="2.38437">
        <ele>537</ele>
        <time>2019-11-07T19:15:06Z</time>
      </trkpt>
      <trkpt lat="43.6724" lon="2.38439">
        <ele>537</ele>
        <time>2019-11-07T19:15:10Z</time>
      </trkpt>
      <trkpt lat="43.67232" lon="2.38438">
        <ele>537</ele>
        <time>2019-11-07T19:15:16Z</time>
      </trkpt>
      <trkpt lat="43.67226" lon="2.38461">
        <ele>537</ele>
        <time>2019-11-07T19:15:31Z</time>
      </trkpt>
      <trkpt lat="43.67216" lon="2.38479">
        <ele>538</ele>
        <time>2019-11-07T19:15:44Z</time>
      </trkpt>
      <trkpt lat="43.67206" lon="2.38516">
        <ele>541</ele>
        <time>2019-11-07T19:16:07Z</time>
      </trkpt>
      <trkpt lat="43.67196" lon="2.38528">
        <ele>544</ele>
        <time>2019-11-07T19:16:17Z</time>
      </trkpt>
      <trkpt lat="43.67184" lon="2.38562">
        <ele>550</ele>
        <time>2019-11-07T19:16:39Z</time>
      </trkpt>
      <trkpt lat="43.67175" lon="2.38593">
        <ele>556</ele>
        <time>2019-11-07T19:16:58Z</time>
      </trkpt>
      <trkpt lat="43.6717" lon="2.38622">
        <ele>561</ele>
        <time>2019-11-07T19:17:16Z</time>
      </trkpt>
      <trkpt lat="43.67159" lon="2.3864">
        <ele>567</ele>
        <time>2019-11-07T19:17:29Z</time>
      </trkpt>
      <trkpt lat="43.67151" lon="2.38671">
        <ele>572</ele>
        <time>2019-11-07T19:17:48Z</time>
      </trkpt>
      <trkpt lat="43.67102" lon="2.38755">
        <ele>594</ele>
        <time>2019-11-07T19:18:51Z</time>
      </trkpt>
      <trkpt lat="43.67096" lon="2.3876">
        <ele>597</ele>
        <time>2019-11-07T19:18:56Z</time>
      </trkpt>
      <trkpt lat="43.67084" lon="2.38754">
        <ele>602</ele>
        <time>2019-11-07T19:19:07Z</time>
      </trkpt>
      <trkpt lat="43.67075" lon="2.38736">
        <ele>604</ele>
        <time>2019-11-07T19:19:19Z</time>
      </trkpt>
      <trkpt lat="43.67071" lon="2.38733">
        <ele>605</ele>
        <time>2019-11-07T19:19:23Z</time>
      </trkpt>
      <trkpt lat="43.67038" lon="2.38766">
        <ele>617</ele>
        <time>2019-11-07T19:19:56Z</time>
      </trkpt>
      <trkpt lat="43.67029" lon="2.3882">
        <ele>622</ele>
        <time>2019-11-07T19:20:28Z</time>
      </trkpt>
      <trkpt lat="43.67024" lon="2.3882">
        <ele>624</ele>
        <time>2019-11-07T19:20:32Z</time>
      </trkpt>
      <trkpt lat="43.6702" lon="2.38813">
        <ele>625</ele>
        <time>2019-11-07T19:20:37Z</time>
      </trkpt>
      <trkpt lat="43.67" lon="2.38811">
        <ele>633</ele>
        <time>2019-11-07T19:20:53Z</time>
      </trkpt>
      <trkpt lat="43.66975" lon="2.38818">
        <ele>638</ele>
        <time>2019-11-07T19:21:13Z</time>
      </trkpt>
      <trkpt lat="43.66965" lon="2.38827">
        <ele>641</ele>
        <time>2019-11-07T19:21:23Z</time>
      </trkpt>
      <trkpt lat="43.66919" lon="2.38924">
        <ele>659</ele>
        <time>2019-11-07T19:22:30Z</time>
      </trkpt>
      <trkpt lat="43.669" lon="2.38943">
        <ele>662</ele>
        <time>2019-11-07T19:22:49Z</time>
      </trkpt>
      <trkpt lat="43.66875" lon="2.38934">
        <ele>663</ele>
        <time>2019-11-07T19:23:10Z</time>
      </trkpt>
      <trkpt lat="43.66836" lon="2.38937">
        <ele>665</ele>
        <time>2019-11-07T19:23:41Z</time>
      </trkpt>
      <trkpt lat="43.66834" lon="2.3894">
        <ele>665</ele>
        <time>2019-11-07T19:23:43Z</time>
      </trkpt>
      <trkpt lat="43.66822" lon="2.38975">
        <ele>665</ele>
        <time>2019-11-07T19:24:06Z</time>
      </trkpt>
      <trkpt lat="43.66803" lon="2.39007">
        <ele>665</ele>
        <time>2019-11-07T19:24:30Z</time>
      </trkpt>
      <trkpt lat="43.66794" lon="2.39038">
        <ele>665</ele>
        <time>2019-11-07T19:24:49Z</time>
      </trkpt>
      <trkpt lat="43.66789" lon="2.39066">
        <ele>666</ele>
        <time>2019-11-07T19:25:06Z</time>
      </trkpt>
      <trkpt lat="43.66786" lon="2.39115">
        <ele>666</ele>
        <time>2019-11-07T19:25:34Z</time>
      </trkpt>
      <trkpt lat="43.66752" lon="2.39185">
        <ele>664</ele>
        <time>2019-11-07T19:26:23Z</time>
      </trkpt>
      <trkpt lat="43.66733" lon="2.39242">
        <ele>664</ele>
        <time>2019-11-07T19:26:59Z</time>
      </trkpt>
      <trkpt lat="43.66691" lon="2.39249">
        <ele>661</ele>
        <time>2019-11-07T19:27:33Z</time>
      </trkpt>
      <trkpt lat="43.66682" lon="2.39254">
        <ele>661</ele>
        <time>2019-11-07T19:27:41Z</time>
      </trkpt>
      <trkpt lat="43.66678" lon="2.3926">
        <ele>661</ele>
        <time>2019-11-07T19:27:46Z</time>
      </trkpt>
      <trkpt lat="43.6667" lon="2.39285">
        <ele>660</ele>
        <time>2019-11-07T19:28:02Z</time>
      </trkpt>
      <trkpt lat="43.66655" lon="2.39306">
        <ele>660</ele>
        <time>2019-11-07T19:28:19Z</time>
      </trkpt>
      <trkpt lat="43.66636" lon="2.39343">
        <ele>658</ele>
        <time>2019-11-07T19:28:45Z</time>
      </trkpt>
      <trkpt lat="43.66609" lon="2.39348">
        <ele>656</ele>
        <time>2019-11-07T19:29:07Z</time>
      </trkpt>
      <trkpt lat="43.66603" lon="2.39347">
        <ele>656</ele>
        <time>2019-11-07T19:29:12Z</time>
      </trkpt>
      <trkpt lat="43.66588" lon="2.3934">
        <ele>656</ele>
        <time>2019-11-07T19:29:24Z</time>
      </trkpt>
      <trkpt lat="43.66584" lon="2.39327">
        <ele>656</ele>
        <time>2019-11-07T19:29:32Z</time>
      </trkpt>
      <trkpt lat="43.66575" lon="2.39315">
        <ele>657</ele>
        <time>2019-11-07T19:29:42Z</time>
      </trkpt>
      <trkpt lat="43.66559" lon="2.39301">
        <ele>657</ele>
        <time>2019-11-07T19:29:58Z</time>
      </trkpt>
      <trkpt lat="43.6655" lon="2.393">
        <ele>657</ele>
        <time>2019-11-07T19:30:05Z</time>
      </trkpt>
      <trkpt lat="43.66539" lon="2.39305">
        <ele>657</ele>
        <time>2019-11-07T19:30:14Z</time>
      </trkpt>
      <trkpt lat="43.66513" lon="2.39324">
        <ele>658</ele>
        <time>2019-11-07T19:30:38Z</time>
      </trkpt>
      <trkpt lat="43.66514" lon="2.39338">
        <ele>658</ele>
        <time>2019-11-07T19:30:46Z</time>
      </trkpt>
      <trkpt lat="43.66507" lon="2.39346">
        <ele>658</ele>
        <time>2019-11-07T19:30:53Z</time>
      </trkpt>
      <trkpt lat="43.66486" lon="2.39384">
        <ele>658</ele>
        <time>2019-11-07T19:31:21Z</time>
      </trkpt>
      <trkpt lat="43.66474" lon="2.394">
        <ele>658</ele>
        <time>2019-11-07T19:31:34Z</time>
      </trkpt>
      <trkpt lat="43.6645" lon="2.39416">
        <ele>658</ele>
        <time>2019-11-07T19:31:55Z</time>
      </trkpt>
      <trkpt lat="43.6644" lon="2.39462">
        <ele>660</ele>
        <time>2019-11-07T19:32:23Z</time>
      </trkpt>
      <trkpt lat="43.66442" lon="2.39477">
        <ele>660</ele>
        <time>2019-11-07T19:32:32Z</time>
      </trkpt>
      <trkpt lat="43.66439" lon="2.39494">
        <ele>661</ele>
        <time>2019-11-07T19:32:42Z</time>
      </trkpt>
      <trkpt lat="43.6643" lon="2.39506">
        <ele>663</ele>
        <time>2019-11-07T19:32:52Z</time>
      </trkpt>
      <trkpt lat="43.66421" lon="2.39537">
        <ele>665</ele>
        <time>2019-11-07T19:33:12Z</time>
      </trkpt>
      <trkpt lat="43.66407" lon="2.39562">
        <ele>665</ele>
        <time>2019-11-07T19:33:30Z</time>
      </trkpt>
      <trkpt lat="43.66381" lon="2.39587">
        <ele>663</ele>
        <time>2019-11-07T19:33:55Z</time>
      </trkpt>
      <trkpt lat="43.6636" lon="2.39628">
        <ele>661</ele>
        <time>2019-11-07T19:34:24Z</time>
      </trkpt>
      <trkpt lat="43.66353" lon="2.39658">
        <ele>661</ele>
        <time>2019-11-07T19:34:43Z</time>
      </trkpt>
      <trkpt lat="43.66351" lon="2.39685">
        <ele>662</ele>
        <time>2019-11-07T19:34:58Z</time>
      </trkpt>
      <trkpt lat="43.66359" lon="2.39717">
        <ele>662</ele>
        <time>2019-11-07T19:35:18Z</time>
      </trkpt>
      <trkpt lat="43.66353" lon="2.3975">
        <ele>663</ele>
        <time>2019-11-07T19:35:38Z</time>
      </trkpt>
      <trkpt lat="43.66339" lon="2.39773">
        <ele>666</ele>
        <time>2019-11-07T19:35:55Z</time>
      </trkpt>
      <trkpt lat="43.6633" lon="2.39802">
        <ele>667</ele>
        <time>2019-11-07T19:36:13Z</time>
      </trkpt>
      <trkpt lat="43.66319" lon="2.39874">
        <ele>670</ele>
        <time>2019-11-07T19:36:56Z</time>
      </trkpt>
      <trkpt lat="43.66291" lon="2.39974">
        <ele>672</ele>
        <time>2019-11-07T19:37:58Z</time>
      </trkpt>
      <trkpt lat="43.66252" lon="2.40089">
        <ele>674</ele>
        <time>2019-11-07T19:39:12Z</time>
      </trkpt>
      <trkpt lat="43.66224" lon="2.40152">
        <ele>676</ele>
        <time>2019-11-07T19:39:54Z</time>
      </trkpt>
      <trkpt lat="43.6621" lon="2.40179">
        <ele>676</ele>
        <time>2019-11-07T19:40:14Z</time>
      </trkpt>
      <trkpt lat="43.66169" lon="2.40221">
        <ele>677</ele>
        <time>2019-11-07T19:40:55Z</time>
      </trkpt>
      <trkpt lat="43.66129" lon="2.40253">
        <ele>678</ele>
        <time>2019-11-07T19:41:32Z</time>
      </trkpt>
      <trkpt lat="43.66086" lon="2.40273">
        <ele>680</ele>
        <time>2019-11-07T19:42:08Z</time>
      </trkpt>
      <trkpt lat="43.66057" lon="2.40302">
        <ele>679</ele>
        <time>2019-11-07T19:42:37Z</time>
      </trkpt>
      <trkpt lat="43.66022" lon="2.4033">
        <ele>679</ele>
        <time>2019-11-07T19:43:09Z</time>
      </trkpt>
      <trkpt lat="43.65996" lon="2.40356">
        <ele>680</ele>
        <time>2019-11-07T19:43:35Z</time>
      </trkpt>
      <trkpt lat="43.65961" lon="2.40404">
        <ele>678</ele>
        <time>2019-11-07T19:44:14Z</time>
      </trkpt>
      <trkpt lat="43.65942" lon="2.40435">
        <ele>677</ele>
        <time>2019-11-07T19:44:38Z</time>
      </trkpt>
      <trkpt lat="43.6593" lon="2.40472">
        <ele>676</ele>
        <time>2019-11-07T19:45:01Z</time>
      </trkpt>
      <trkpt lat="43.65921" lon="2.40488">
        <ele>676</ele>
        <time>2019-11-07T19:45:13Z</time>
      </trkpt>
      <trkpt lat="43.65912" lon="2.40496">
        <ele>676</ele>
        <time>2019-11-07T19:45:21Z</time>
      </trkpt>
      <trkpt lat="43.65898" lon="2.40502">
        <ele>675</ele>
        <time>2019-11-07T19:45:33Z</time>
      </trkpt>
      <trkpt lat="43.6588" lon="2.405">
        <ele>674</ele>
        <time>2019-11-07T19:45:48Z</time>
      </trkpt>
      <trkpt lat="43.65834" lon="2.40486">
        <ele>671</ele>
        <time>2019-11-07T19:46:25Z</time>
      </trkpt>
      <trkpt lat="43.65817" lon="2.40476">
        <ele>670</ele>
        <time>2019-11-07T19:46:40Z</time>
      </trkpt>
      <trkpt lat="43.65785" lon="2.40441">
        <ele>669</ele>
        <time>2019-11-07T19:47:13Z</time>
      </trkpt>
      <trkpt lat="43.65753" lon="2.40422">
        <ele>668</ele>
        <time>2019-11-07T19:47:41Z</time>
      </trkpt>
      <trkpt lat="43.65712" lon="2.40354">
        <ele>669</ele>
        <time>2019-11-07T19:48:32Z</time>
      </trkpt>
      <trkpt lat="43.65702" lon="2.40346">
        <ele>669</ele>
        <time>2019-11-07T19:48:41Z</time>
      </trkpt>
      <trkpt lat="43.65661" lon="2.4033">
        <ele>671</ele>
        <time>2019-11-07T19:49:15Z</time>
      </trkpt>
      <trkpt lat="43.65638" lon="2.40317">
        <ele>672</ele>
        <time>2019-11-07T19:49:35Z</time>
      </trkpt>
      <trkpt lat="43.65613" lon="2.40291">
        <ele>673</ele>
        <time>2019-11-07T19:50:00Z</time>
      </trkpt>
      <trkpt lat="43.6559" lon="2.40278">
        <ele>674</ele>
        <time>2019-11-07T19:50:20Z</time>
      </trkpt>
      <trkpt lat="43.65572" lon="2.4026">
        <ele>675</ele>
        <time>2019-11-07T19:50:38Z</time>
      </trkpt>
      <trkpt lat="43.65556" lon="2.40236">
        <ele>676</ele>
        <time>2019-11-07T19:50:57Z</time>
      </trkpt>
      <trkpt lat="43.65527" lon="2.40163">
        <ele>678</ele>
        <time>2019-11-07T19:51:45Z</time>
      </trkpt>
      <trkpt lat="43.65508" lon="2.40138">
        <ele>679</ele>
        <time>2019-11-07T19:52:06Z</time>
      </trkpt>
      <trkpt lat="43.65479" lon="2.40116">
        <ele>676</ele>
        <time>2019-11-07T19:52:33Z</time>
      </trkpt>
      <trkpt lat="43.65461" lon="2.40095">
        <ele>674</ele>
        <time>2019-11-07T19:52:51Z</time>
      </trkpt>
      <trkpt lat="43.65455" lon="2.40073">
        <ele>672</ele>
        <time>2019-11-07T19:53:05Z</time>
      </trkpt>
      <trkpt lat="43.65453" lon="2.40015">
        <ele>672</ele>
        <time>2019-11-07T19:53:39Z</time>
      </trkpt>
      <trkpt lat="43.65455" lon="2.39966">
        <ele>671</ele>
        <time>2019-11-07T19:54:07Z</time>
      </trkpt>
      <trkpt lat="43.65441" lon="2.39918">
        <ele>669</ele>
        <time>2019-11-07T19:54:37Z</time>
      </trkpt>
      <trkpt lat="43.65416" lon="2.39863">
        <ele>667</ele>
        <time>2019-11-07T19:55:15Z</time>
      </trkpt>
      <trkpt lat="43.65395" lon="2.39826">
        <ele>665</ele>
        <time>2019-11-07T19:55:42Z</time>
      </trkpt>
      <trkpt lat="43.65383" lon="2.39799">
        <ele>663</ele>
        <time>2019-11-07T19:56:00Z</time>
      </trkpt>
      <trkpt lat="43.65372" lon="2.39785">
        <ele>662</ele>
        <time>2019-11-07T19:56:12Z</time>
      </trkpt>
      <trkpt lat="43.6533" lon="2.39765">
        <ele>660</ele>
        <time>2019-11-07T19:56:48Z</time>
      </trkpt>
      <trkpt lat="43.65322" lon="2.39759">
        <ele>660</ele>
        <time>2019-11-07T19:56:55Z</time>
      </trkpt>
      <trkpt lat="43.65314" lon="2.39665">
        <ele>657</ele>
        <time>2019-11-07T19:57:50Z</time>
      </trkpt>
      <trkpt lat="43.65292" lon="2.39603">
        <ele>654</ele>
        <time>2019-11-07T19:58:30Z</time>
      </trkpt>
      <trkpt lat="43.6525" lon="2.39563">
        <ele>653</ele>
        <time>2019-11-07T19:59:11Z</time>
      </trkpt>
      <trkpt lat="43.65228" lon="2.39538">
        <ele>653</ele>
        <time>2019-11-07T19:59:34Z</time>
      </trkpt>
      <trkpt lat="43.65199" lon="2.39518">
        <ele>653</ele>
        <time>2019-11-07T20:00:00Z</time>
      </trkpt>
      <trkpt lat="43.65192" lon="2.3951">
        <ele>654</ele>
        <time>2019-11-07T20:00:07Z</time>
      </trkpt>
      <trkpt lat="43.65162" lon="2.39435">
        <ele>657</ele>
        <time>2019-11-07T20:00:57Z</time>
      </trkpt>
      <trkpt lat="43.65155" lon="2.39385">
        <ele>656</ele>
        <time>2019-11-07T20:01:26Z</time>
      </trkpt>
      <trkpt lat="43.65155" lon="2.39367">
        <ele>656</ele>
        <time>2019-11-07T20:01:36Z</time>
      </trkpt>
      <trkpt lat="43.65137" lon="2.39321">
        <ele>654</ele>
        <time>2019-11-07T20:02:07Z</time>
      </trkpt>
      <trkpt lat="43.65133" lon="2.39305">
        <ele>653</ele>
        <time>2019-11-07T20:02:17Z</time>
      </trkpt>
      <trkpt lat="43.65151" lon="2.39134">
        <ele>644</ele>
        <time>2019-11-07T20:03:57Z</time>
      </trkpt>
      <trkpt lat="43.65137" lon="2.39127">
        <ele>641</ele>
        <time>2019-11-07T20:04:09Z</time>
      </trkpt>
      <trkpt lat="43.65098" lon="2.39124">
        <ele>636</ele>
        <time>2019-11-07T20:04:40Z</time>
      </trkpt>
      <trkpt lat="43.65055" lon="2.3916">
        <ele>636</ele>
        <time>2019-11-07T20:05:20Z</time>
      </trkpt>
      <trkpt lat="43.65044" lon="2.39159">
        <ele>635</ele>
        <time>2019-11-07T20:05:29Z</time>
      </trkpt>
      <trkpt lat="43.65035" lon="2.39153">
        <ele>634</ele>
        <time>2019-11-07T20:05:37Z</time>
      </trkpt>
      <trkpt lat="43.65028" lon="2.39138">
        <ele>633</ele>
        <time>2019-11-07T20:05:47Z</time>
      </trkpt>
      <trkpt lat="43.65019" lon="2.39136">
        <ele>632</ele>
        <time>2019-11-07T20:05:55Z</time>
      </trkpt>
      <trkpt lat="43.65007" lon="2.39129">
        <ele>631</ele>
        <time>2019-11-07T20:06:05Z</time>
      </trkpt>
      <trkpt lat="43.64995" lon="2.39113">
        <ele>631</ele>
        <time>2019-11-07T20:06:18Z</time>
      </trkpt>
      <trkpt lat="43.64988" lon="2.39097">
        <ele>631</ele>
        <time>2019-11-07T20:06:29Z</time>
      </trkpt>
      <trkpt lat="43.64981" lon="2.39057">
        <ele>630</ele>
        <time>2019-11-07T20:06:53Z</time>
      </trkpt>
      <trkpt lat="43.64965" lon="2.3903">
        <ele>630</ele>
        <time>2019-11-07T20:07:13Z</time>
      </trkpt>
      <trkpt lat="43.64959" lon="2.39015">
        <ele>629</ele>
        <time>2019-11-07T20:07:23Z</time>
      </trkpt>
      <trkpt lat="43.64951" lon="2.38992">
        <ele>629</ele>
        <time>2019-11-07T20:07:38Z</time>
      </trkpt>
      <trkpt lat="43.64943" lon="2.38951">
        <ele>626</ele>
        <time>2019-11-07T20:08:03Z</time>
      </trkpt>
      <trkpt lat="43.64939" lon="2.3886">
        <ele>618</ele>
        <time>2019-11-07T20:08:55Z</time>
      </trkpt>
      <trkpt lat="43.64943" lon="2.38831">
        <ele>615</ele>
        <time>2019-11-07T20:09:13Z</time>
      </trkpt>
      <trkpt lat="43.64941" lon="2.38809">
        <ele>614</ele>
        <time>2019-11-07T20:09:25Z</time>
      </trkpt>
      <trkpt lat="43.649" lon="2.38741">
        <ele>608</ele>
        <time>2019-11-07T20:10:17Z</time>
      </trkpt>
      <trkpt lat="43.64893" lon="2.3872">
        <ele>607</ele>
        <time>2019-11-07T20:10:30Z</time>
      </trkpt>
      <trkpt lat="43.64887" lon="2.38672">
        <ele>604</ele>
        <time>2019-11-07T20:10:58Z</time>
      </trkpt>
      <trkpt lat="43.64876" lon="2.38627">
        <ele>604</ele>
        <time>2019-11-07T20:11:26Z</time>
      </trkpt>
      <trkpt lat="43.6484" lon="2.38536">
        <ele>607</ele>
        <time>2019-11-07T20:12:26Z</time>
      </trkpt>
      <trkpt lat="43.64805" lon="2.38571">
        <ele>609</ele>
        <time>2019-11-07T20:13:00Z</time>
      </trkpt>
      <trkpt lat="43.64764" lon="2.38598">
        <ele>613</ele>
        <time>2019-11-07T20:13:37Z</time>
      </trkpt>
      <trkpt lat="43.64721" lon="2.38611">
        <ele>616</ele>
        <time>2019-11-07T20:14:12Z</time>
      </trkpt>
      <trkpt lat="43.64672" lon="2.38608">
        <ele>618</ele>
        <time>2019-11-07T20:14:51Z</time>
      </trkpt>
      <trkpt lat="43.6465" lon="2.38611">
        <ele>617</ele>
        <time>2019-11-07T20:15:09Z</time>
      </trkpt>
      <trkpt lat="43.64632" lon="2.3862">
        <ele>616</ele>
        <time>2019-11-07T20:15:24Z</time>
      </trkpt>
      <trkpt lat="43.6461" lon="2.3865">
        <ele>617</ele>
        <time>2019-11-07T20:15:49Z</time>
      </trkpt>
      <trkpt lat="43.64598" lon="2.38676">
        <ele>618</ele>
        <time>2019-11-07T20:16:07Z</time>
      </trkpt>
      <trkpt lat="43.64572" lon="2.38767">
        <ele>619</ele>
        <time>2019-11-07T20:17:04Z</time>
      </trkpt>
      <trkpt lat="43.64568" lon="2.3899">
        <ele>634</ele>
        <time>2019-11-07T20:19:13Z</time>
      </trkpt>
      <trkpt lat="43.64565" lon="2.39009">
        <ele>635</ele>
        <time>2019-11-07T20:19:24Z</time>
      </trkpt>
      <trkpt lat="43.64563" lon="2.39064">
        <ele>638</ele>
        <time>2019-11-07T20:19:56Z</time>
      </trkpt>
      <trkpt lat="43.64556" lon="2.39084">
        <ele>638</ele>
        <time>2019-11-07T20:20:09Z</time>
      </trkpt>
      <trkpt lat="43.64545" lon="2.39098">
        <ele>638</ele>
        <time>2019-11-07T20:20:21Z</time>
      </trkpt>
      <trkpt lat="43.64528" lon="2.39105">
        <ele>638</ele>
        <time>2019-11-07T20:20:35Z</time>
      </trkpt>
      <trkpt lat="43.64497" lon="2.39104">
        <ele>637</ele>
        <time>2019-11-07T20:21:00Z</time>
      </trkpt>
      <trkpt lat="43.64489" lon="2.39106">
        <ele>637</ele>
        <time>2019-11-07T20:21:06Z</time>
      </trkpt>
      <trkpt lat="43.64468" lon="2.39133">
        <ele>639</ele>
        <time>2019-11-07T20:21:29Z</time>
      </trkpt>
      <trkpt lat="43.64455" lon="2.39157">
        <ele>641</ele>
        <time>2019-11-07T20:21:47Z</time>
      </trkpt>
      <trkpt lat="43.64425" lon="2.39195">
        <ele>643</ele>
        <time>2019-11-07T20:22:19Z</time>
      </trkpt>
      <trkpt lat="43.6442" lon="2.39207">
        <ele>644</ele>
        <time>2019-11-07T20:22:27Z</time>
      </trkpt>
      <trkpt lat="43.64415" lon="2.39232">
        <ele>647</ele>
        <time>2019-11-07T20:22:42Z</time>
      </trkpt>
      <trkpt lat="43.64377" lon="2.39327">
        <ele>650</ele>
        <time>2019-11-07T20:23:45Z</time>
      </trkpt>
      <trkpt lat="43.64376" lon="2.39336">
        <ele>651</ele>
        <time>2019-11-07T20:23:51Z</time>
      </trkpt>
      <trkpt lat="43.6434" lon="2.3936">
        <ele>649</ele>
        <time>2019-11-07T20:24:23Z</time>
      </trkpt>
      <trkpt lat="43.64328" lon="2.39372">
        <ele>650</ele>
        <time>2019-11-07T20:24:34Z</time>
      </trkpt>
      <trkpt lat="43.64317" lon="2.39388">
        <ele>652</ele>
        <time>2019-11-07T20:24:47Z</time>
      </trkpt>
      <trkpt lat="43.64297" lon="2.39402">
        <ele>654</ele>
        <time>2019-11-07T20:25:05Z</time>
      </trkpt>
      <trkpt lat="43.64289" lon="2.39411">
        <ele>656</ele>
        <time>2019-11-07T20:25:13Z</time>
      </trkpt>
      <trkpt lat="43.64265" lon="2.3945">
        <ele>660</ele>
        <time>2019-11-07T20:25:43Z</time>
      </trkpt>
      <trkpt lat="43.64241" lon="2.39508">
        <ele>665</ele>
        <time>2019-11-07T20:26:22Z</time>
      </trkpt>
      <trkpt lat="43.64236" lon="2.39549">
        <ele>663</ele>
        <time>2019-11-07T20:26:46Z</time>
      </trkpt>
      <trkpt lat="43.6423" lon="2.39574">
        <ele>661</ele>
        <time>2019-11-07T20:27:01Z</time>
      </trkpt>
      <trkpt lat="43.64214" lon="2.39619">
        <ele>659</ele>
        <time>2019-11-07T20:27:30Z</time>
      </trkpt>
      <trkpt lat="43.64203" lon="2.39634">
        <ele>658</ele>
        <time>2019-11-07T20:27:43Z</time>
      </trkpt>
      <trkpt lat="43.64193" lon="2.39679">
        <ele>657</ele>
        <time>2019-11-07T20:28:10Z</time>
      </trkpt>
      <trkpt lat="43.64171" lon="2.39749">
        <ele>657</ele>
        <time>2019-11-07T20:28:54Z</time>
      </trkpt>
      <trkpt lat="43.64174" lon="2.39857">
        <ele>663</ele>
        <time>2019-11-07T20:29:57Z</time>
      </trkpt>
      <trkpt lat="43.6417" lon="2.39868">
        <ele>664</ele>
        <time>2019-11-07T20:30:04Z</time>
      </trkpt>
      <trkpt lat="43.64165" lon="2.39873">
        <ele>664</ele>
        <time>2019-11-07T20:30:09Z</time>
      </trkpt>
      <trkpt lat="43.64163" lon="2.39882">
        <ele>664</ele>
        <time>2019-11-07T20:30:14Z</time>
      </trkpt>
      <trkpt lat="43.64148" lon="2.399">
        <ele>664</ele>
        <time>2019-11-07T20:30:30Z</time>
      </trkpt>
      <trkpt lat="43.64131" lon="2.39936">
        <ele>665</ele>
        <time>2019-11-07T20:30:55Z</time>
      </trkpt>
      <trkpt lat="43.64119" lon="2.39943">
        <ele>664</ele>
        <time>2019-11-07T20:31:06Z</time>
      </trkpt>
      <trkpt lat="43.64115" lon="2.39948">
        <ele>664</ele>
        <time>2019-11-07T20:31:10Z</time>
      </trkpt>
      <trkpt lat="43.64096" lon="2.39994">
        <ele>664</ele>
        <time>2019-11-07T20:31:41Z</time>
      </trkpt>
      <trkpt lat="43.6409" lon="2.40001">
        <ele>664</ele>
        <time>2019-11-07T20:31:47Z</time>
      </trkpt>
      <trkpt lat="43.6407" lon="2.40014">
        <ele>665</ele>
        <time>2019-11-07T20:32:04Z</time>
      </trkpt>
      <trkpt lat="43.64052" lon="2.40015">
        <ele>665</ele>
        <time>2019-11-07T20:32:19Z</time>
      </trkpt>
      <trkpt lat="43.64026" lon="2.40021">
        <ele>666</ele>
        <time>2019-11-07T20:32:40Z</time>
      </trkpt>
      <trkpt lat="43.64017" lon="2.40028">
        <ele>667</ele>
        <time>2019-11-07T20:32:48Z</time>
      </trkpt>
      <trkpt lat="43.64" lon="2.40034">
        <ele>667</ele>
        <time>2019-11-07T20:33:02Z</time>
      </trkpt>
      <trkpt lat="43.63986" lon="2.40051">
        <ele>666</ele>
        <time>2019-11-07T20:33:17Z</time>
      </trkpt>
      <trkpt lat="43.63944" lon="2.40122">
        <ele>665</ele>
        <time>2019-11-07T20:34:10Z</time>
      </trkpt>
      <trkpt lat="43.6393" lon="2.40138">
        <ele>664</ele>
        <time>2019-11-07T20:34:25Z</time>
      </trkpt>
      <trkpt lat="43.63919" lon="2.40197">
        <ele>668</ele>
        <time>2019-11-07T20:35:00Z</time>
      </trkpt>
      <trkpt lat="43.63913" lon="2.40216">
        <ele>669</ele>
        <time>2019-11-07T20:35:12Z</time>
      </trkpt>
      <trkpt lat="43.63903" lon="2.40236">
        <ele>670</ele>
        <time>2019-11-07T20:35:26Z</time>
      </trkpt>
      <trkpt lat="43.63879" lon="2.40362">
        <ele>674</ele>
        <time>2019-11-07T20:36:42Z</time>
      </trkpt>
      <trkpt lat="43.63884" lon="2.40397">
        <ele>674</ele>
        <time>2019-11-07T20:37:03Z</time>
      </trkpt>
      <trkpt lat="43.63877" lon="2.4042">
        <ele>672</ele>
        <time>2019-11-07T20:37:17Z</time>
      </trkpt>
      <trkpt lat="43.63883" lon="2.40461">
        <ele>668</ele>
        <time>2019-11-07T20:37:41Z</time>
      </trkpt>
      <trkpt lat="43.63901" lon="2.40483">
        <ele>668</ele>
        <time>2019-11-07T20:38:00Z</time>
      </trkpt>
      <trkpt lat="43.6391" lon="2.4049">
        <ele>668</ele>
        <time>2019-11-07T20:38:09Z</time>
      </trkpt>
      <trkpt lat="43.63915" lon="2.40503">
        <ele>667</ele>
        <time>2019-11-07T20:38:17Z</time>
      </trkpt>
      <trkpt lat="43.63897" lon="2.40501">
        <ele>665</ele>
        <time>2019-11-07T20:38:32Z</time>
      </trkpt>
      <trkpt lat="43.6389" lon="2.40504">
        <ele>664</ele>
        <time>2019-11-07T20:38:38Z</time>
      </trkpt>
      <trkpt lat="43.63885" lon="2.40507">
        <ele>663</ele>
        <time>2019-11-07T20:38:42Z</time>
      </trkpt>
      <trkpt lat="43.63863" lon="2.40533">
        <ele>660</ele>
        <time>2019-11-07T20:39:05Z</time>
      </trkpt>
      <trkpt lat="43.63866" lon="2.40563">
        <ele>659</ele>
        <time>2019-11-07T20:39:23Z</time>
      </trkpt>
      <trkpt lat="43.63876" lon="2.40596">
        <ele>659</ele>
        <time>2019-11-07T20:39:43Z</time>
      </trkpt>
      <trkpt lat="43.63876" lon="2.40618">
        <ele>660</ele>
        <time>2019-11-07T20:39:56Z</time>
      </trkpt>
      <trkpt lat="43.63836" lon="2.40676">
        <ele>660</ele>
        <time>2019-11-07T20:40:43Z</time>
      </trkpt>
      <trkpt lat="43.63821" lon="2.40688">
        <ele>660</ele>
        <time>2019-11-07T20:40:56Z</time>
      </trkpt>
      <trkpt lat="43.63823" lon="2.40696">
        <ele>661</ele>
        <time>2019-11-07T20:41:01Z</time>
      </trkpt>
      <trkpt lat="43.63816" lon="2.40724">
        <ele>662</ele>
        <time>2019-11-07T20:41:19Z</time>
      </trkpt>
      <trkpt lat="43.6381" lon="2.40727">
        <ele>662</ele>
        <time>2019-11-07T20:41:24Z</time>
      </trkpt>
      <trkpt lat="43.63798" lon="2.40724">
        <ele>660</ele>
        <time>2019-11-07T20:41:33Z</time>
      </trkpt>
      <trkpt lat="43.63796" lon="2.4074">
        <ele>662</ele>
        <time>2019-11-07T20:41:43Z</time>
      </trkpt>
      <trkpt lat="43.63806" lon="2.40759">
        <ele>664</ele>
        <time>2019-11-07T20:41:56Z</time>
      </trkpt>
      <trkpt lat="43.63814" lon="2.40769">
        <ele>666</ele>
        <time>2019-11-07T20:42:05Z</time>
      </trkpt>
      <trkpt lat="43.63815" lon="2.40781">
        <ele>667</ele>
        <time>2019-11-07T20:42:12Z</time>
      </trkpt>
      <trkpt lat="43.63812" lon="2.40788">
        <ele>667</ele>
        <time>2019-11-07T20:42:17Z</time>
      </trkpt>
      <trkpt lat="43.63814" lon="2.40793">
        <ele>667</ele>
        <time>2019-11-07T20:42:20Z</time>
      </trkpt>
      <trkpt lat="43.6382" lon="2.40792">
        <ele>668</ele>
        <time>2019-11-07T20:42:25Z</time>
      </trkpt>
      <trkpt lat="43.63826" lon="2.40796">
        <ele>669</ele>
        <time>2019-11-07T20:42:30Z</time>
      </trkpt>
      <trkpt lat="43.63832" lon="2.40808">
        <ele>670</ele>
        <time>2019-11-07T20:42:39Z</time>
      </trkpt>
      <trkpt lat="43.63847" lon="2.40827">
        <ele>673</ele>
        <time>2019-11-07T20:42:55Z</time>
      </trkpt>
      <trkpt lat="43.63862" lon="2.4084">
        <ele>676</ele>
        <time>2019-11-07T20:43:09Z</time>
      </trkpt>
      <trkpt lat="43.63864" lon="2.40847">
        <ele>676</ele>
        <time>2019-11-07T20:43:14Z</time>
      </trkpt>
      <trkpt lat="43.63861" lon="2.40883">
        <ele>675</ele>
        <time>2019-11-07T20:43:35Z</time>
      </trkpt>
      <trkpt lat="43.63854" lon="2.40911">
        <ele>674</ele>
        <time>2019-11-07T20:43:52Z</time>
      </trkpt>
      <trkpt lat="43.63861" lon="2.40923">
        <ele>674</ele>
        <time>2019-11-07T20:44:01Z</time>
      </trkpt>
      <trkpt lat="43.6386" lon="2.40939">
        <ele>672</ele>
        <time>2019-11-07T20:44:10Z</time>
      </trkpt>
      <trkpt lat="43.63862" lon="2.40945">
        <ele>672</ele>
        <time>2019-11-07T20:44:14Z</time>
      </trkpt>
      <trkpt lat="43.63874" lon="2.40966">
        <ele>671</ele>
        <time>2019-11-07T20:44:29Z</time>
      </trkpt>
      <trkpt lat="43.6387" lon="2.41003">
        <ele>668</ele>
        <time>2019-11-07T20:44:51Z</time>
      </trkpt>
      <trkpt lat="43.63873" lon="2.41021">
        <ele>668</ele>
        <time>2019-11-07T20:45:02Z</time>
      </trkpt>
      <trkpt lat="43.63873" lon="2.41045">
        <ele>667</ele>
        <time>2019-11-07T20:45:16Z</time>
      </trkpt>
      <trkpt lat="43.63858" lon="2.41104">
        <ele>666</ele>
        <time>2019-11-07T20:45:52Z</time>
      </trkpt>
      <trkpt lat="43.63852" lon="2.41103">
        <ele>666</ele>
        <time>2019-11-07T20:45:57Z</time>
      </trkpt>
      <trkpt lat="43.63842" lon="2.41108">
        <ele>666</ele>
        <time>2019-11-07T20:46:05Z</time>
      </trkpt>
      <trkpt lat="43.63818" lon="2.41134">
        <ele>666</ele>
        <time>2019-11-07T20:46:30Z</time>
      </trkpt>
      <trkpt lat="43.6378" lon="2.41157">
        <ele>667</ele>
        <time>2019-11-07T20:47:03Z</time>
      </trkpt>
      <trkpt lat="43.63706" lon="2.41153">
        <ele>668</ele>
        <time>2019-11-07T20:48:02Z</time>
      </trkpt>
      <trkpt lat="43.63668" lon="2.41161">
        <ele>668</ele>
        <time>2019-11-07T20:48:33Z</time>
      </trkpt>
      <trkpt lat="43.63565" lon="2.41174">
        <ele>671</ele>
        <time>2019-11-07T20:49:56Z</time>
      </trkpt>
      <trkpt lat="43.63553" lon="2.41178">
        <ele>672</ele>
        <time>2019-11-07T20:50:06Z</time>
      </trkpt>
      <trkpt lat="43.63536" lon="2.41187">
        <ele>672</ele>
        <time>2019-11-07T20:50:20Z</time>
      </trkpt>
      <trkpt lat="43.63524" lon="2.41197">
        <ele>673</ele>
        <time>2019-11-07T20:50:31Z</time>
      </trkpt>
      <trkpt lat="43.63504" lon="2.41228">
        <ele>672</ele>
        <time>2019-11-07T20:50:55Z</time>
      </trkpt>
      <trkpt lat="43.63477" lon="2.41258">
        <ele>669</ele>
        <time>2019-11-07T20:51:23Z</time>
      </trkpt>
      <trkpt lat="43.63453" lon="2.41274">
        <ele>667</ele>
        <time>2019-11-07T20:51:44Z</time>
      </trkpt>
      <trkpt lat="43.63433" lon="2.4128">
        <ele>665</ele>
        <time>2019-11-07T20:52:01Z</time>
      </trkpt>
      <trkpt lat="43.63398" lon="2.41277">
        <ele>663</ele>
        <time>2019-11-07T20:52:29Z</time>
      </trkpt>
      <trkpt lat="43.63345" lon="2.41241">
        <ele>660</ele>
        <time>2019-11-07T20:53:16Z</time>
      </trkpt>
      <trkpt lat="43.63293" lon="2.41213">
        <ele>659</ele>
        <time>2019-11-07T20:54:01Z</time>
      </trkpt>
      <trkpt lat="43.6322" lon="2.41223">
        <ele>660</ele>
        <time>2019-11-07T20:55:00Z</time>
      </trkpt>
      <trkpt lat="43.6319" lon="2.41223">
        <ele>661</ele>
        <time>2019-11-07T20:55:24Z</time>
      </trkpt>
      <trkpt lat="43.62993" lon="2.41193">
        <ele>652</ele>
        <time>2019-11-07T20:58:02Z</time>
      </trkpt>
      <trkpt lat="43.62901" lon="2.41154">
        <ele>650</ele>
        <time>2019-11-07T20:59:19Z</time>
      </trkpt>
      <trkpt lat="43.62858" lon="2.41147">
        <ele>651</ele>
        <time>2019-11-07T20:59:54Z</time>
      </trkpt>
      <trkpt lat="43.62856" lon="2.41136">
        <ele>651</ele>
        <time>2019-11-07T21:00:01Z</time>
      </trkpt>
      <trkpt lat="43.62859" lon="2.41084">
        <ele>649</ele>
        <time>2019-11-07T21:00:31Z</time>
      </trkpt>
      <trkpt lat="43.62865" lon="2.41051">
        <ele>651</ele>
        <time>2019-11-07T21:00:51Z</time>
      </trkpt>
      <trkpt lat="43.62848" lon="2.41049">
        <ele>652</ele>
        <time>2019-11-07T21:01:04Z</time>
      </trkpt>
      <trkpt lat="43.62829" lon="2.4105">
        <ele>652</ele>
        <time>2019-11-07T21:01:20Z</time>
      </trkpt>
      <trkpt lat="43.62807" lon="2.41057">
        <ele>652</ele>
        <time>2019-11-07T21:01:38Z</time>
      </trkpt>
      <trkpt lat="43.62776" lon="2.4106">
        <ele>652</ele>
        <time>2019-11-07T21:02:02Z</time>
      </trkpt>
      <trkpt lat="43.62752" lon="2.41052">
        <ele>653</ele>
        <time>2019-11-07T21:02:22Z</time>
      </trkpt>
      <trkpt lat="43.6275" lon="2.41103">
        <ele>650</ele>
        <time>2019-11-07T21:02:52Z</time>
      </trkpt>
      <trkpt lat="43.62753" lon="2.41119">
        <ele>650</ele>
        <time>2019-11-07T21:03:01Z</time>
      </trkpt>
      <trkpt lat="43.62744" lon="2.41152">
        <ele>651</ele>
        <time>2019-11-07T21:03:22Z</time>
      </trkpt>
      <trkpt lat="43.62724" lon="2.41182">
        <ele>651</ele>
        <time>2019-11-07T21:03:45Z</time>
      </trkpt>
      <trkpt lat="43.62719" lon="2.41195">
        <ele>652</ele>
        <time>2019-11-07T21:03:54Z</time>
      </trkpt>
      <trkpt lat="43.62708" lon="2.41198">
        <ele>652</ele>
        <time>2019-11-07T21:04:03Z</time>
      </trkpt>
      <trkpt lat="43.62692" lon="2.41182">
        <ele>650</ele>
        <time>2019-11-07T21:04:19Z</time>
      </trkpt>
      <trkpt lat="43.62686" lon="2.41182">
        <ele>649</ele>
        <time>2019-11-07T21:04:24Z</time>
      </trkpt>
      <trkpt lat="43.62657" lon="2.41192">
        <ele>648</ele>
        <time>2019-11-07T21:04:48Z</time>
      </trkpt>
      <trkpt lat="43.62587" lon="2.41222">
        <ele>646</ele>
        <time>2019-11-07T21:05:46Z</time>
      </trkpt>
      <trkpt lat="43.62573" lon="2.41233">
        <ele>645</ele>
        <time>2019-11-07T21:05:59Z</time>
      </trkpt>
      <trkpt lat="43.62561" lon="2.41253">
        <ele>646</ele>
        <time>2019-11-07T21:06:14Z</time>
      </trkpt>
      <trkpt lat="43.62553" lon="2.41278">
        <ele>646</ele>
        <time>2019-11-07T21:06:30Z</time>
      </trkpt>
      <trkpt lat="43.62543" lon="2.4133">
        <ele>649</ele>
        <time>2019-11-07T21:07:01Z</time>
      </trkpt>
      <trkpt lat="43.62503" lon="2.41444">
        <ele>644</ele>
        <time>2019-11-07T21:08:15Z</time>
      </trkpt>
      <trkpt lat="43.62491" lon="2.41489">
        <ele>641</ele>
        <time>2019-11-07T21:08:42Z</time>
      </trkpt>
      <trkpt lat="43.62483" lon="2.41502">
        <ele>640</ele>
        <time>2019-11-07T21:08:52Z</time>
      </trkpt>
      <trkpt lat="43.62474" lon="2.41511">
        <ele>638</ele>
        <time>2019-11-07T21:09:01Z</time>
      </trkpt>
      <trkpt lat="43.62465" lon="2.4153">
        <ele>636</ele>
        <time>2019-11-07T21:09:14Z</time>
      </trkpt>
      <trkpt lat="43.62396" lon="2.41696">
        <ele>622</ele>
        <time>2019-11-07T21:11:05Z</time>
      </trkpt>
      <trkpt lat="43.6238" lon="2.41767">
        <ele>618</ele>
        <time>2019-11-07T21:11:48Z</time>
      </trkpt>
      <trkpt lat="43.62383" lon="2.41826">
        <ele>621</ele>
        <time>2019-11-07T21:12:23Z</time>
      </trkpt>
      <trkpt lat="43.62381" lon="2.4184">
        <ele>621</ele>
        <time>2019-11-07T21:12:31Z</time>
      </trkpt>
      <trkpt lat="43.62375" lon="2.41854">
        <ele>620</ele>
        <time>2019-11-07T21:12:40Z</time>
      </trkpt>
      <trkpt lat="43.6232" lon="2.41902">
        <ele>607</ele>
        <time>2019-11-07T21:13:32Z</time>
      </trkpt>
      <trkpt lat="43.62292" lon="2.41938">
        <ele>599</ele>
        <time>2019-11-07T21:14:03Z</time>
      </trkpt>
      <trkpt lat="43.62287" lon="2.41952">
        <ele>597</ele>
        <time>2019-11-07T21:14:12Z</time>
      </trkpt>
      <trkpt lat="43.62283" lon="2.41953">
        <ele>596</ele>
        <time>2019-11-07T21:14:15Z</time>
      </trkpt>
      <trkpt lat="43.62281" lon="2.41948">
        <ele>595</ele>
        <time>2019-11-07T21:14:19Z</time>
      </trkpt>
      <trkpt lat="43.62285" lon="2.41876">
        <ele>592</ele>
        <time>2019-11-07T21:15:01Z</time>
      </trkpt>
      <trkpt lat="43.62283" lon="2.41872">
        <ele>591</ele>
        <time>2019-11-07T21:15:03Z</time>
      </trkpt>
      <trkpt lat="43.62259" lon="2.41883">
        <ele>584</ele>
        <time>2019-11-07T21:15:24Z</time>
      </trkpt>
      <trkpt lat="43.62239" lon="2.41906">
        <ele>578</ele>
        <time>2019-11-07T21:15:44Z</time>
      </trkpt>
      <trkpt lat="43.62227" lon="2.41953">
        <ele>574</ele>
        <time>2019-11-07T21:16:13Z</time>
      </trkpt>
      <trkpt lat="43.62232" lon="2.42007">
        <ele>578</ele>
        <time>2019-11-07T21:16:45Z</time>
      </trkpt>
      <trkpt lat="43.62229" lon="2.42016">
        <ele>577</ele>
        <time>2019-11-07T21:16:51Z</time>
      </trkpt>
      <trkpt lat="43.62212" lon="2.42021">
        <ele>570</ele>
        <time>2019-11-07T21:17:05Z</time>
      </trkpt>
      <trkpt lat="43.62198" lon="2.42041">
        <ele>566</ele>
        <time>2019-11-07T21:17:21Z</time>
      </trkpt>
      <trkpt lat="43.62183" lon="2.42073">
        <ele>562</ele>
        <time>2019-11-07T21:17:43Z</time>
      </trkpt>
      <trkpt lat="43.62178" lon="2.42181">
        <ele>558</ele>
        <time>2019-11-07T21:18:46Z</time>
      </trkpt>
      <trkpt lat="43.62156" lon="2.42263">
        <ele>554</ele>
        <time>2019-11-07T21:19:36Z</time>
      </trkpt>
      <trkpt lat="43.62147" lon="2.42284">
        <ele>554</ele>
        <time>2019-11-07T21:19:50Z</time>
      </trkpt>
      <trkpt lat="43.62126" lon="2.42288">
        <ele>554</ele>
        <time>2019-11-07T21:20:07Z</time>
      </trkpt>
      <trkpt lat="43.62117" lon="2.42285">
        <ele>554</ele>
        <time>2019-11-07T21:20:15Z</time>
      </trkpt>
      <trkpt lat="43.62084" lon="2.42217">
        <ele>556</ele>
        <time>2019-11-07T21:21:02Z</time>
      </trkpt>
      <trkpt lat="43.62075" lon="2.42224">
        <ele>558</ele>
        <time>2019-11-07T21:21:10Z</time>
      </trkpt>
      <trkpt lat="43.62061" lon="2.42249">
        <ele>563</ele>
        <time>2019-11-07T21:21:29Z</time>
      </trkpt>
      <trkpt lat="43.62032" lon="2.42266">
        <ele>571</ele>
        <time>2019-11-07T21:21:54Z</time>
      </trkpt>
      <trkpt lat="43.62027" lon="2.42263">
        <ele>573</ele>
        <time>2019-11-07T21:21:58Z</time>
      </trkpt>
      <trkpt lat="43.62028" lon="2.42234">
        <ele>572</ele>
        <time>2019-11-07T21:22:15Z</time>
      </trkpt>
      <trkpt lat="43.62022" lon="2.42218">
        <ele>573</ele>
        <time>2019-11-07T21:22:26Z</time>
      </trkpt>
      <trkpt lat="43.62013" lon="2.42223">
        <ele>576</ele>
        <time>2019-11-07T21:22:33Z</time>
      </trkpt>
      <trkpt lat="43.61998" lon="2.42277">
        <ele>580</ele>
        <time>2019-11-07T21:23:07Z</time>
      </trkpt>
      <trkpt lat="43.61991" lon="2.42292">
        <ele>581</ele>
        <time>2019-11-07T21:23:17Z</time>
      </trkpt>
      <trkpt lat="43.61982" lon="2.423">
        <ele>582</ele>
        <time>2019-11-07T21:23:26Z</time>
      </trkpt>
      <trkpt lat="43.6197" lon="2.42309">
        <ele>583</ele>
        <time>2019-11-07T21:23:37Z</time>
      </trkpt>
      <trkpt lat="43.61959" lon="2.42311">
        <ele>585</ele>
        <time>2019-11-07T21:23:46Z</time>
      </trkpt>
      <trkpt lat="43.61919" lon="2.42334">
        <ele>593</ele>
        <time>2019-11-07T21:24:20Z</time>
      </trkpt>
      <trkpt lat="43.61892" lon="2.42339">
        <ele>591</ele>
        <time>2019-11-07T21:24:42Z</time>
      </trkpt>
      <trkpt lat="43.61865" lon="2.4237">
        <ele>592</ele>
        <time>2019-11-07T21:25:10Z</time>
      </trkpt>
      <trkpt lat="43.61826" lon="2.42422">
        <ele>601</ele>
        <time>2019-11-07T21:25:54Z</time>
      </trkpt>
      <trkpt lat="43.61809" lon="2.42437">
        <ele>600</ele>
        <time>2019-11-07T21:26:10Z</time>
      </trkpt>
      <trkpt lat="43.61772" lon="2.42461">
        <ele>602</ele>
        <time>2019-11-07T21:26:43Z</time>
      </trkpt>
      <trkpt lat="43.61738" lon="2.42473">
        <ele>605</ele>
        <time>2019-11-07T21:27:11Z</time>
      </trkpt>
      <trkpt lat="43.61707" lon="2.42475">
        <ele>606</ele>
        <time>2019-11-07T21:27:36Z</time>
      </trkpt>
      <trkpt lat="43.6159" lon="2.42445">
        <ele>602</ele>
        <time>2019-11-07T21:29:11Z</time>
      </trkpt>
      <trkpt lat="43.61571" lon="2.42444">
        <ele>600</ele>
        <time>2019-11-07T21:29:26Z</time>
      </trkpt>
      <trkpt lat="43.61542" lon="2.42447">
        <ele>597</ele>
        <time>2019-11-07T21:29:49Z</time>
      </trkpt>
      <trkpt lat="43.61528" lon="2.42451">
        <ele>595</ele>
        <time>2019-11-07T21:30:01Z</time>
      </trkpt>
      <trkpt lat="43.61508" lon="2.42408">
        <ele>590</ele>
        <time>2019-11-07T21:30:30Z</time>
      </trkpt>
      <trkpt lat="43.61478" lon="2.42334">
        <ele>582</ele>
        <time>2019-11-07T21:31:20Z</time>
      </trkpt>
      <trkpt lat="43.61478" lon="2.42329">
        <ele>582</ele>
        <time>2019-11-07T21:31:22Z</time>
      </trkpt>
      <trkpt lat="43.6145" lon="2.42309">
        <ele>580</ele>
        <time>2019-11-07T21:31:48Z</time>
      </trkpt>
      <trkpt lat="43.61441" lon="2.42309">
        <ele>580</ele>
        <time>2019-11-07T21:31:55Z</time>
      </trkpt>
      <trkpt lat="43.6141" lon="2.42301">
        <ele>578</ele>
        <time>2019-11-07T21:32:20Z</time>
      </trkpt>
      <trkpt lat="43.6135" lon="2.42278">
        <ele>571</ele>
        <time>2019-11-07T21:33:10Z</time>
      </trkpt>
      <trkpt lat="43.61328" lon="2.42272">
        <ele>568</ele>
        <time>2019-11-07T21:33:28Z</time>
      </trkpt>
      <trkpt lat="43.6132" lon="2.42274">
        <ele>566</ele>
        <time>2019-11-07T21:33:34Z</time>
      </trkpt>
      <trkpt lat="43.61313" lon="2.42289">
        <ele>565</ele>
        <time>2019-11-07T21:33:45Z</time>
      </trkpt>
      <trkpt lat="43.61305" lon="2.42299">
        <ele>563</ele>
        <time>2019-11-07T21:33:53Z</time>
      </trkpt>
      <trkpt lat="43.613" lon="2.42301">
        <ele>562</ele>
        <time>2019-11-07T21:33:58Z</time>
      </trkpt>
      <trkpt lat="43.612" lon="2.42277">
        <ele>543</ele>
        <time>2019-11-07T21:35:19Z</time>
      </trkpt>
      <trkpt lat="43.61164" lon="2.42302">
        <ele>542</ele>
        <time>2019-11-07T21:35:51Z</time>
      </trkpt>
      <trkpt lat="43.6114" lon="2.42311">
        <ele>540</ele>
        <time>2019-11-07T21:36:11Z</time>
      </trkpt>
      <trkpt lat="43.61129" lon="2.42312">
        <ele>538</ele>
        <time>2019-11-07T21:36:20Z</time>
      </trkpt>
      <trkpt lat="43.61101" lon="2.42309">
        <ele>532</ele>
        <time>2019-11-07T21:36:42Z</time>
      </trkpt>
      <trkpt lat="43.61056" lon="2.42295">
        <ele>521</ele>
        <time>2019-11-07T21:37:19Z</time>
      </trkpt>
      <trkpt lat="43.6103" lon="2.42281">
        <ele>515</ele>
        <time>2019-11-07T21:37:42Z</time>
      </trkpt>
      <trkpt lat="43.61014" lon="2.4228">
        <ele>513</ele>
        <time>2019-11-07T21:37:54Z</time>
      </trkpt>
      <trkpt lat="43.61005" lon="2.42283">
        <ele>513</ele>
        <time>2019-11-07T21:38:02Z</time>
      </trkpt>
      <trkpt lat="43.60983" lon="2.42303">
        <ele>510</ele>
        <time>2019-11-07T21:38:23Z</time>
      </trkpt>
      <trkpt lat="43.60972" lon="2.42325">
        <ele>509</ele>
        <time>2019-11-07T21:38:38Z</time>
      </trkpt>
      <trkpt lat="43.60949" lon="2.42344">
        <ele>503</ele>
        <time>2019-11-07T21:39:00Z</time>
      </trkpt>
      <trkpt lat="43.60931" lon="2.42371">
        <ele>498</ele>
        <time>2019-11-07T21:39:21Z</time>
      </trkpt>
      <trkpt lat="43.60919" lon="2.42414">
        <ele>493</ele>
        <time>2019-11-07T21:39:48Z</time>
      </trkpt>
      <trkpt lat="43.60909" lon="2.42505">
        <ele>483</ele>
        <time>2019-11-07T21:40:41Z</time>
      </trkpt>
      <trkpt lat="43.60901" lon="2.42542">
        <ele>481</ele>
        <time>2019-11-07T21:41:04Z</time>
      </trkpt>
      <trkpt lat="43.60885" lon="2.42583">
        <ele>473</ele>
        <time>2019-11-07T21:41:31Z</time>
      </trkpt>
      <trkpt lat="43.60828" lon="2.42698">
        <ele>464</ele>
        <time>2019-11-07T21:42:51Z</time>
      </trkpt>
      <trkpt lat="43.60802" lon="2.42732">
        <ele>462</ele>
        <time>2019-11-07T21:43:20Z</time>
      </trkpt>
      <trkpt lat="43.60782" lon="2.42749">
        <ele>458</ele>
        <time>2019-11-07T21:43:39Z</time>
      </trkpt>
      <trkpt lat="43.60754" lon="2.42767">
        <ele>448</ele>
        <time>2019-11-07T21:44:04Z</time>
      </trkpt>
      <trkpt lat="43.60728" lon="2.42773">
        <ele>440</ele>
        <time>2019-11-07T21:44:25Z</time>
      </trkpt>
      <trkpt lat="43.60713" lon="2.42781">
        <ele>436</ele>
        <time>2019-11-07T21:44:38Z</time>
      </trkpt>
      <trkpt lat="43.60689" lon="2.42771">
        <ele>429</ele>
        <time>2019-11-07T21:44:58Z</time>
      </trkpt>
      <trkpt lat="43.6068" lon="2.42762">
        <ele>427</ele>
        <time>2019-11-07T21:45:07Z</time>
      </trkpt>
      <trkpt lat="43.60672" lon="2.4277">
        <ele>425</ele>
        <time>2019-11-07T21:45:15Z</time>
      </trkpt>
      <trkpt lat="43.60669" lon="2.42786">
        <ele>423</ele>
        <time>2019-11-07T21:45:24Z</time>
      </trkpt>
      <trkpt lat="43.60693" lon="2.42851">
        <ele>430</ele>
        <time>2019-11-07T21:46:06Z</time>
      </trkpt>
      <trkpt lat="43.60653" lon="2.42898">
        <ele>428</ele>
        <time>2019-11-07T21:46:48Z</time>
      </trkpt>
      <trkpt lat="43.60633" lon="2.42944">
        <ele>436</ele>
        <time>2019-11-07T21:47:20Z</time>
      </trkpt>
      <trkpt lat="43.60628" lon="2.42939">
        <ele>437</ele>
        <time>2019-11-07T21:47:25Z</time>
      </trkpt>
      <trkpt lat="43.60619" lon="2.42906">
        <ele>438</ele>
        <time>2019-11-07T21:47:45Z</time>
      </trkpt>
      <trkpt lat="43.60607" lon="2.42879">
        <ele>439</ele>
        <time>2019-11-07T21:48:03Z</time>
      </trkpt>
      <trkpt lat="43.60581" lon="2.42834">
        <ele>444</ele>
        <time>2019-11-07T21:48:37Z</time>
      </trkpt>
      <trkpt lat="43.60571" lon="2.42801">
        <ele>450</ele>
        <time>2019-11-07T21:48:57Z</time>
      </trkpt>
      <trkpt lat="43.60569" lon="2.42784">
        <ele>452</ele>
        <time>2019-11-07T21:49:07Z</time>
      </trkpt>
      <trkpt lat="43.60568" lon="2.42726">
        <ele>455</ele>
        <time>2019-11-07T21:49:41Z</time>
      </trkpt>
      <trkpt lat="43.60571" lon="2.42694">
        <ele>457</ele>
        <time>2019-11-07T21:50:00Z</time>
      </trkpt>
      <trkpt lat="43.60578" lon="2.42656">
        <ele>457</ele>
        <time>2019-11-07T21:50:23Z</time>
      </trkpt>
      <trkpt lat="43.60578" lon="2.42623">
        <ele>464</ele>
        <time>2019-11-07T21:50:42Z</time>
      </trkpt>
      <trkpt lat="43.60603" lon="2.42555">
        <ele>462</ele>
        <time>2019-11-07T21:51:26Z</time>
      </trkpt>
      <trkpt lat="43.60612" lon="2.42515">
        <ele>461</ele>
        <time>2019-11-07T21:51:50Z</time>
      </trkpt>
      <trkpt lat="43.6061" lon="2.42493">
        <ele>463</ele>
        <time>2019-11-07T21:52:03Z</time>
      </trkpt>
      <trkpt lat="43.60589" lon="2.42454">
        <ele>468</ele>
        <time>2019-11-07T21:52:31Z</time>
      </trkpt>
      <trkpt lat="43.60578" lon="2.42426">
        <ele>468</ele>
        <time>2019-11-07T21:52:50Z</time>
      </trkpt>
      <trkpt lat="43.60559" lon="2.42416">
        <ele>473</ele>
        <time>2019-11-07T21:53:06Z</time>
      </trkpt>
      <trkpt lat="43.60523" lon="2.4241">
        <ele>483</ele>
        <time>2019-11-07T21:53:35Z</time>
      </trkpt>
      <trkpt lat="43.60462" lon="2.42415">
        <ele>503</ele>
        <time>2019-11-07T21:54:24Z</time>
      </trkpt>
      <trkpt lat="43.60431" lon="2.42414">
        <ele>510</ele>
        <time>2019-11-07T21:54:49Z</time>
      </trkpt>
      <trkpt lat="43.604" lon="2.42402">
        <ele>516</ele>
        <time>2019-11-07T21:55:14Z</time>
      </trkpt>
      <trkpt lat="43.60376" lon="2.42382">
        <ele>518</ele>
        <time>2019-11-07T21:55:37Z</time>
      </trkpt>
      <trkpt lat="43.60352" lon="2.42347">
        <ele>517</ele>
        <time>2019-11-07T21:56:05Z</time>
      </trkpt>
      <trkpt lat="43.60336" lon="2.42337">
        <ele>521</ele>
        <time>2019-11-07T21:56:19Z</time>
      </trkpt>
      <trkpt lat="43.60307" lon="2.42329">
        <ele>522</ele>
        <time>2019-11-07T21:56:43Z</time>
      </trkpt>
      <trkpt lat="43.60267" lon="2.42334">
        <ele>527</ele>
        <time>2019-11-07T21:57:15Z</time>
      </trkpt>
      <trkpt lat="43.60254" lon="2.42339">
        <ele>529</ele>
        <time>2019-11-07T21:57:26Z</time>
      </trkpt>
      <trkpt lat="43.60238" lon="2.42368">
        <ele>534</ele>
        <time>2019-11-07T21:57:47Z</time>
      </trkpt>
      <trkpt lat="43.60229" lon="2.42376">
        <ele>535</ele>
        <time>2019-11-07T21:57:55Z</time>
      </trkpt>
      <trkpt lat="43.60223" lon="2.42377">
        <ele>536</ele>
        <time>2019-11-07T21:58:00Z</time>
      </trkpt>
      <trkpt lat="43.60211" lon="2.42358">
        <ele>535</ele>
        <time>2019-11-07T21:58:15Z</time>
      </trkpt>
      <trkpt lat="43.60193" lon="2.4231">
        <ele>534</ele>
        <time>2019-11-07T21:58:46Z</time>
      </trkpt>
      <trkpt lat="43.60172" lon="2.42228">
        <ele>538</ele>
        <time>2019-11-07T21:59:37Z</time>
      </trkpt>
      <trkpt lat="43.60158" lon="2.4221">
        <ele>539</ele>
        <time>2019-11-07T21:59:52Z</time>
      </trkpt>
      <trkpt lat="43.60137" lon="2.42196">
        <ele>539</ele>
        <time>2019-11-07T22:00:11Z</time>
      </trkpt>
      <trkpt lat="43.6012" lon="2.42195">
        <ele>538</ele>
        <time>2019-11-07T22:00:24Z</time>
      </trkpt>
      <trkpt lat="43.60051" lon="2.42199">
        <ele>535</ele>
        <time>2019-11-07T22:01:19Z</time>
      </trkpt>
      <trkpt lat="43.59989" lon="2.42216">
        <ele>531</ele>
        <time>2019-11-07T22:02:10Z</time>
      </trkpt>
      <trkpt lat="43.59912" lon="2.42267">
        <ele>526</ele>
        <time>2019-11-07T22:03:18Z</time>
      </trkpt>
      <trkpt lat="43.59886" lon="2.42297">
        <ele>524</ele>
        <time>2019-11-07T22:03:46Z</time>
      </trkpt>
      <trkpt lat="43.59883" lon="2.42315">
        <ele>524</ele>
        <time>2019-11-07T22:03:56Z</time>
      </trkpt>
      <trkpt lat="43.59821" lon="2.4246">
        <ele>526</ele>
        <time>2019-11-07T22:05:34Z</time>
      </trkpt>
      <trkpt lat="43.59809" lon="2.42514">
        <ele>528</ele>
        <time>2019-11-07T22:06:07Z</time>
      </trkpt>
      <trkpt lat="43.59793" lon="2.42561">
        <ele>530</ele>
        <time>2019-11-07T22:06:37Z</time>
      </trkpt>
      <trkpt lat="43.5978" lon="2.42587">
        <ele>529</ele>
        <time>2019-11-07T22:06:55Z</time>
      </trkpt>
      <trkpt lat="43.5974" lon="2.42647">
        <ele>525</ele>
        <time>2019-11-07T22:07:42Z</time>
      </trkpt>
      <trkpt lat="43.59687" lon="2.42739">
        <ele>519</ele>
        <time>2019-11-07T22:08:51Z</time>
      </trkpt>
      <trkpt lat="43.59674" lon="2.42768">
        <ele>517</ele>
        <time>2019-11-07T22:09:10Z</time>
      </trkpt>
      <trkpt lat="43.59665" lon="2.42804">
        <ele>517</ele>
        <time>2019-11-07T22:09:32Z</time>
      </trkpt>
      <trkpt lat="43.59657" lon="2.42823">
        <ele>518</ele>
        <time>2019-11-07T22:09:45Z</time>
      </trkpt>
      <trkpt lat="43.59644" lon="2.42826">
        <ele>517</ele>
        <time>2019-11-07T22:09:56Z</time>
      </trkpt>
      <trkpt lat="43.59628" lon="2.42821">
        <ele>517</ele>
        <time>2019-11-07T22:10:09Z</time>
      </trkpt>
      <trkpt lat="43.59613" lon="2.42812">
        <ele>517</ele>
        <time>2019-11-07T22:10:22Z</time>
      </trkpt>
      <trkpt lat="43.59599" lon="2.42811">
        <ele>516</ele>
        <time>2019-11-07T22:10:33Z</time>
      </trkpt>
      <trkpt lat="43.59594" lon="2.42806">
        <ele>516</ele>
        <time>2019-11-07T22:10:38Z</time>
      </trkpt>
      <trkpt lat="43.59588" lon="2.42811">
        <ele>516</ele>
        <time>2019-11-07T22:10:44Z</time>
      </trkpt>
      <trkpt lat="43.59563" lon="2.42822">
        <ele>515</ele>
        <time>2019-11-07T22:11:05Z</time>
      </trkpt>
      <trkpt lat="43.59554" lon="2.42819">
        <ele>515</ele>
        <time>2019-11-07T22:11:12Z</time>
      </trkpt>
      <trkpt lat="43.59536" lon="2.42807">
        <ele>515</ele>
        <time>2019-11-07T22:11:28Z</time>
      </trkpt>
      <trkpt lat="43.59534" lon="2.42813">
        <ele>514</ele>
        <time>2019-11-07T22:11:32Z</time>
      </trkpt>
      <trkpt lat="43.59516" lon="2.42814">
        <ele>514</ele>
        <time>2019-11-07T22:11:46Z</time>
      </trkpt>
      <trkpt lat="43.59501" lon="2.42809">
        <ele>513</ele>
        <time>2019-11-07T22:11:59Z</time>
      </trkpt>
      <trkpt lat="43.5942" lon="2.42794">
        <ele>516</ele>
        <time>2019-11-07T22:13:04Z</time>
      </trkpt>
      <trkpt lat="43.59386" lon="2.42795">
        <ele>517</ele>
        <time>2019-11-07T22:13:31Z</time>
      </trkpt>
      <trkpt lat="43.59378" lon="2.42792">
        <ele>518</ele>
        <time>2019-11-07T22:13:38Z</time>
      </trkpt>
      <trkpt lat="43.59357" lon="2.42781">
        <ele>521</ele>
        <time>2019-11-07T22:13:56Z</time>
      </trkpt>
      <trkpt lat="43.59342" lon="2.42769">
        <ele>524</ele>
        <time>2019-11-07T22:14:10Z</time>
      </trkpt>
      <trkpt lat="43.59335" lon="2.42768">
        <ele>524</ele>
        <time>2019-11-07T22:14:16Z</time>
      </trkpt>
      <trkpt lat="43.59319" lon="2.4276">
        <ele>523</ele>
        <time>2019-11-07T22:14:29Z</time>
      </trkpt>
      <trkpt lat="43.59298" lon="2.42741">
        <ele>522</ele>
        <time>2019-11-07T22:14:49Z</time>
      </trkpt>
      <trkpt lat="43.59273" lon="2.42705">
        <ele>519</ele>
        <time>2019-11-07T22:15:18Z</time>
      </trkpt>
      <trkpt lat="43.59231" lon="2.42676">
        <ele>513</ele>
        <time>2019-11-07T22:15:56Z</time>
      </trkpt>
      <trkpt lat="43.59129" lon="2.42589">
        <ele>509</ele>
        <time>2019-11-07T22:17:32Z</time>
      </trkpt>
      <trkpt lat="43.59116" lon="2.42581">
        <ele>508</ele>
        <time>2019-11-07T22:17:43Z</time>
      </trkpt>
      <trkpt lat="43.59079" lon="2.4257">
        <ele>500</ele>
        <time>2019-11-07T22:18:13Z</time>
      </trkpt>
      <trkpt lat="43.59058" lon="2.42572">
        <ele>494</ele>
        <time>2019-11-07T22:18:30Z</time>
      </trkpt>
      <trkpt lat="43.59047" lon="2.42577">
        <ele>491</ele>
        <time>2019-11-07T22:18:40Z</time>
      </trkpt>
      <trkpt lat="43.59012" lon="2.42609">
        <ele>480</ele>
        <time>2019-11-07T22:19:13Z</time>
      </trkpt>
      <trkpt lat="43.58955" lon="2.42688">
        <ele>467</ele>
        <time>2019-11-07T22:20:18Z</time>
      </trkpt>
      <trkpt lat="43.58947" lon="2.42695">
        <ele>466</ele>
        <time>2019-11-07T22:20:25Z</time>
      </trkpt>
      <trkpt lat="43.58916" lon="2.42752">
        <ele>463</ele>
        <time>2019-11-07T22:21:07Z</time>
      </trkpt>
      <trkpt lat="43.58896" lon="2.42775">
        <ele>462</ele>
        <time>2019-11-07T22:21:28Z</time>
      </trkpt>
      <trkpt lat="43.58843" lon="2.42824">
        <ele>467</ele>
        <time>2019-11-07T22:22:19Z</time>
      </trkpt>
      <trkpt lat="43.58798" lon="2.42872">
        <ele>465</ele>
        <time>2019-11-07T22:23:04Z</time>
      </trkpt>
      <trkpt lat="43.58738" lon="2.42943">
        <ele>459</ele>
        <time>2019-11-07T22:24:08Z</time>
      </trkpt>
      <trkpt lat="43.58728" lon="2.42958">
        <ele>456</ele>
        <time>2019-11-07T22:24:19Z</time>
      </trkpt>
      <trkpt lat="43.58709" lon="2.42975">
        <ele>452</ele>
        <time>2019-11-07T22:24:37Z</time>
      </trkpt>
      <trkpt lat="43.5868" lon="2.4299">
        <ele>449</ele>
        <time>2019-11-07T22:25:02Z</time>
      </trkpt>
      <trkpt lat="43.58643" lon="2.42996">
        <ele>446</ele>
        <time>2019-11-07T22:25:32Z</time>
      </trkpt>
      <trkpt lat="43.58587" lon="2.42996">
        <ele>441</ele>
        <time>2019-11-07T22:26:17Z</time>
      </trkpt>
      <trkpt lat="43.58556" lon="2.42991">
        <ele>436</ele>
        <time>2019-11-07T22:26:42Z</time>
      </trkpt>
      <trkpt lat="43.58516" lon="2.42975">
        <ele>428</ele>
        <time>2019-11-07T22:27:15Z</time>
      </trkpt>
      <trkpt lat="43.58494" lon="2.42976">
        <ele>423</ele>
        <time>2019-11-07T22:27:33Z</time>
      </trkpt>
      <trkpt lat="43.58481" lon="2.42968">
        <ele>420</ele>
        <time>2019-11-07T22:27:44Z</time>
      </trkpt>
      <trkpt lat="43.58474" lon="2.42956">
        <ele>419</ele>
        <time>2019-11-07T22:27:53Z</time>
      </trkpt>
      <trkpt lat="43.5847" lon="2.42957">
        <ele>417</ele>
        <time>2019-11-07T22:27:56Z</time>
      </trkpt>
      <trkpt lat="43.58461" lon="2.42976">
        <ele>414</ele>
        <time>2019-11-07T22:28:10Z</time>
      </trkpt>
      <trkpt lat="43.58467" lon="2.43054">
        <ele>408</ele>
        <time>2019-11-07T22:28:55Z</time>
      </trkpt>
      <trkpt lat="43.58489" lon="2.431">
        <ele>408</ele>
        <time>2019-11-07T22:29:27Z</time>
      </trkpt>
      <trkpt lat="43.58507" lon="2.43125">
        <ele>409</ele>
        <time>2019-11-07T22:29:48Z</time>
      </trkpt>
      <trkpt lat="43.58513" lon="2.43138">
        <ele>408</ele>
        <time>2019-11-07T22:29:57Z</time>
      </trkpt>
      <trkpt lat="43.58514" lon="2.4316">
        <ele>405</ele>
        <time>2019-11-07T22:30:09Z</time>
      </trkpt>
      <trkpt lat="43.58517" lon="2.43164">
        <ele>405</ele>
        <time>2019-11-07T22:30:13Z</time>
      </trkpt>
      <trkpt lat="43.58515" lon="2.43171">
        <ele>403</ele>
        <time>2019-11-07T22:30:17Z</time>
      </trkpt>
      <trkpt lat="43.58516" lon="2.43182">
        <ele>402</ele>
        <time>2019-11-07T22:30:23Z</time>
      </trkpt>
      <trkpt lat="43.58529" lon="2.4323">
        <ele>399</ele>
        <time>2019-11-07T22:30:53Z</time>
      </trkpt>
      <trkpt lat="43.58537" lon="2.43271">
        <ele>398</ele>
        <time>2019-11-07T22:31:18Z</time>
      </trkpt>
      <trkpt lat="43.58547" lon="2.43304">
        <ele>400</ele>
        <time>2019-11-07T22:31:39Z</time>
      </trkpt>
      <trkpt lat="43.58565" lon="2.43304">
        <ele>402</ele>
        <time>2019-11-07T22:31:53Z</time>
      </trkpt>
      <trkpt lat="43.58571" lon="2.43345">
        <ele>404</ele>
        <time>2019-11-07T22:32:17Z</time>
      </trkpt>
      <trkpt lat="43.58569" lon="2.43372">
        <ele>405</ele>
        <time>2019-11-07T22:32:33Z</time>
      </trkpt>
      <trkpt lat="43.58561" lon="2.43404">
        <ele>406</ele>
        <time>2019-11-07T22:32:53Z</time>
      </trkpt>
      <trkpt lat="43.58561" lon="2.43428">
        <ele>406</ele>
        <time>2019-11-07T22:33:06Z</time>
      </trkpt>
      <trkpt lat="43.58556" lon="2.43436">
        <ele>406</ele>
        <time>2019-11-07T22:33:13Z</time>
      </trkpt>
      <trkpt lat="43.58559" lon="2.43487">
        <ele>407</ele>
        <time>2019-11-07T22:33:42Z</time>
      </trkpt>
      <trkpt lat="43.58539" lon="2.43641">
        <ele>412</ele>
        <time>2019-11-07T22:35:13Z</time>
      </trkpt>
      <trkpt lat="43.58531" lon="2.43731">
        <ele>412</ele>
        <time>2019-11-07T22:36:06Z</time>
      </trkpt>
      <trkpt lat="43.58527" lon="2.43744">
        <ele>411</ele>
        <time>2019-11-07T22:36:14Z</time>
      </trkpt>
      <trkpt lat="43.5853" lon="2.438">
        <ele>410</ele>
        <time>2019-11-07T22:36:46Z</time>
      </trkpt>
      <trkpt lat="43.58522" lon="2.43848">
        <ele>408</ele>
        <time>2019-11-07T22:37:15Z</time>
      </trkpt>
      <trkpt lat="43.58512" lon="2.43869">
        <ele>406</ele>
        <time>2019-11-07T22:37:30Z</time>
      </trkpt>
      <trkpt lat="43.58514" lon="2.43904">
        <ele>406</ele>
        <time>2019-11-07T22:37:50Z</time>
      </trkpt>
      <trkpt lat="43.58522" lon="2.43948">
        <ele>409</ele>
        <time>2019-11-07T22:38:16Z</time>
      </trkpt>
      <trkpt lat="43.58523" lon="2.43981">
        <ele>412</ele>
        <time>2019-11-07T22:38:35Z</time>
      </trkpt>
      <trkpt lat="43.58534" lon="2.44011">
        <ele>414</ele>
        <time>2019-11-07T22:38:55Z</time>
      </trkpt>
      <trkpt lat="43.58528" lon="2.44016">
        <ele>415</ele>
        <time>2019-11-07T22:39:00Z</time>
      </trkpt>
      <trkpt lat="43.58499" lon="2.44063">
        <ele>421</ele>
        <time>2019-11-07T22:39:36Z</time>
      </trkpt>
      <trkpt lat="43.58426" lon="2.44162">
        <ele>428</ele>
        <time>2019-11-07T22:40:58Z</time>
      </trkpt>
      <trkpt lat="43.58406" lon="2.44203">
        <ele>432</ele>
        <time>2019-11-07T22:41:27Z</time>
      </trkpt>
      <trkpt lat="43.58403" lon="2.4424">
        <ele>436</ele>
        <time>2019-11-07T22:41:48Z</time>
      </trkpt>
      <trkpt lat="43.58409" lon="2.44355">
        <ele>441</ele>
        <time>2019-11-07T22:42:55Z</time>
      </trkpt>
      <trkpt lat="43.58408" lon="2.44395">
        <ele>443</ele>
        <time>2019-11-07T22:43:19Z</time>
      </trkpt>
      <trkpt lat="43.58401" lon="2.44425">
        <ele>444</ele>
        <time>2019-11-07T22:43:37Z</time>
      </trkpt>
      <trkpt lat="43.5837" lon="2.44513">
        <ele>450</ele>
        <time>2019-11-07T22:44:34Z</time>
      </trkpt>
      <trkpt lat="43.58364" lon="2.44562">
        <ele>457</ele>
        <time>2019-11-07T22:45:02Z</time>
      </trkpt>
      <trkpt lat="43.58359" lon="2.44582">
        <ele>459</ele>
        <time>2019-11-07T22:45:15Z</time>
      </trkpt>
      <trkpt lat="43.5835" lon="2.44601">
        <ele>459</ele>
        <time>2019-11-07T22:45:28Z</time>
      </trkpt>
      <trkpt lat="43.58338" lon="2.44613">
        <ele>457</ele>
        <time>2019-11-07T22:45:40Z</time>
      </trkpt>
      <trkpt lat="43.58324" lon="2.4462">
        <ele>455</ele>
        <time>2019-11-07T22:45:52Z</time>
      </trkpt>
      <trkpt lat="43.58311" lon="2.44632">
        <ele>455</ele>
        <time>2019-11-07T22:46:04Z</time>
      </trkpt>
      <trkpt lat="43.58288" lon="2.44665">
        <ele>457</ele>
        <time>2019-11-07T22:46:31Z</time>
      </trkpt>
      <trkpt lat="43.5828" lon="2.44684">
        <ele>459</ele>
        <time>2019-11-07T22:46:43Z</time>
      </trkpt>
      <trkpt lat="43.58274" lon="2.44734">
        <ele>467</ele>
        <time>2019-11-07T22:47:13Z</time>
      </trkpt>
      <trkpt lat="43.58268" lon="2.4475">
        <ele>468</ele>
        <time>2019-11-07T22:47:23Z</time>
      </trkpt>
      <trkpt lat="43.58261" lon="2.44755">
        <ele>467</ele>
        <time>2019-11-07T22:47:30Z</time>
      </trkpt>
      <trkpt lat="43.58253" lon="2.44755">
        <ele>465</ele>
        <time>2019-11-07T22:47:36Z</time>
      </trkpt>
      <trkpt lat="43.58232" lon="2.44743">
        <ele>461</ele>
        <time>2019-11-07T22:47:54Z</time>
      </trkpt>
      <trkpt lat="43.58215" lon="2.44751">
        <ele>461</ele>
        <time>2019-11-07T22:48:09Z</time>
      </trkpt>
      <trkpt lat="43.58208" lon="2.44758">
        <ele>462</ele>
        <time>2019-11-07T22:48:16Z</time>
      </trkpt>
      <trkpt lat="43.58186" lon="2.44872">
        <ele>471</ele>
        <time>2019-11-07T22:49:24Z</time>
      </trkpt>
      <trkpt lat="43.58188" lon="2.4489">
        <ele>474</ele>
        <time>2019-11-07T22:49:34Z</time>
      </trkpt>
      <trkpt lat="43.58201" lon="2.44935">
        <ele>482</ele>
        <time>2019-11-07T22:50:03Z</time>
      </trkpt>
      <trkpt lat="43.58219" lon="2.45021">
        <ele>489</ele>
        <time>2019-11-07T22:50:55Z</time>
      </trkpt>
      <trkpt lat="43.5822" lon="2.45051">
        <ele>490</ele>
        <time>2019-11-07T22:51:12Z</time>
      </trkpt>
      <trkpt lat="43.5821" lon="2.45105">
        <ele>490</ele>
        <time>2019-11-07T22:51:44Z</time>
      </trkpt>
      <trkpt lat="43.58208" lon="2.45131">
        <ele>491</ele>
        <time>2019-11-07T22:51:59Z</time>
      </trkpt>
      <trkpt lat="43.58214" lon="2.45271">
        <ele>502</ele>
        <time>2019-11-07T22:53:21Z</time>
      </trkpt>
      <trkpt lat="43.58209" lon="2.45338">
        <ele>502</ele>
        <time>2019-11-07T22:54:00Z</time>
      </trkpt>
      <trkpt lat="43.58199" lon="2.45413">
        <ele>501</ele>
        <time>2019-11-07T22:54:44Z</time>
      </trkpt>
      <trkpt lat="43.58196" lon="2.45481">
        <ele>505</ele>
        <time>2019-11-07T22:55:24Z</time>
      </trkpt>
      <trkpt lat="43.58175" lon="2.45556">
        <ele>504</ele>
        <time>2019-11-07T22:56:10Z</time>
      </trkpt>
      <trkpt lat="43.5817" lon="2.45565">
        <ele>503</ele>
        <time>2019-11-07T22:56:17Z</time>
      </trkpt>
      <trkpt lat="43.58153" lon="2.45578">
        <ele>505</ele>
        <time>2019-11-07T22:56:32Z</time>
      </trkpt>
      <trkpt lat="43.58134" lon="2.4558">
        <ele>508</ele>
        <time>2019-11-07T22:56:48Z</time>
      </trkpt>
      <trkpt lat="43.58108" lon="2.4557">
        <ele>513</ele>
        <time>2019-11-07T22:57:09Z</time>
      </trkpt>
      <trkpt lat="43.58104" lon="2.45563">
        <ele>514</ele>
        <time>2019-11-07T22:57:14Z</time>
      </trkpt>
      <trkpt lat="43.58099" lon="2.4553">
        <ele>518</ele>
        <time>2019-11-07T22:57:34Z</time>
      </trkpt>
      <trkpt lat="43.58113" lon="2.45454">
        <ele>516</ele>
        <time>2019-11-07T22:58:19Z</time>
      </trkpt>
      <trkpt lat="43.58113" lon="2.45394">
        <ele>514</ele>
        <time>2019-11-07T22:58:54Z</time>
      </trkpt>
      <trkpt lat="43.58108" lon="2.45377">
        <ele>514</ele>
        <time>2019-11-07T22:59:05Z</time>
      </trkpt>
      <trkpt lat="43.581" lon="2.45367">
        <ele>515</ele>
        <time>2019-11-07T22:59:14Z</time>
      </trkpt>
      <trkpt lat="43.58087" lon="2.45357">
        <ele>518</ele>
        <time>2019-11-07T22:59:25Z</time>
      </trkpt>
      <trkpt lat="43.58052" lon="2.45348">
        <ele>526</ele>
        <time>2019-11-07T22:59:54Z</time>
      </trkpt>
      <trkpt lat="43.58019" lon="2.45335">
        <ele>531</ele>
        <time>2019-11-07T23:00:21Z</time>
      </trkpt>
      <trkpt lat="43.5801" lon="2.45329">
        <ele>533</ele>
        <time>2019-11-07T23:00:29Z</time>
      </trkpt>
      <trkpt lat="43.58001" lon="2.45318">
        <ele>535</ele>
        <time>2019-11-07T23:00:39Z</time>
      </trkpt>
      <trkpt lat="43.57999" lon="2.4531">
        <ele>536</ele>
        <time>2019-11-07T23:00:44Z</time>
      </trkpt>
      <trkpt lat="43.58" lon="2.45298">
        <ele>537</ele>
        <time>2019-11-07T23:00:51Z</time>
      </trkpt>
      <trkpt lat="43.58004" lon="2.45287">
        <ele>536</ele>
        <time>2019-11-07T23:00:58Z</time>
      </trkpt>
      <trkpt lat="43.58011" lon="2.4528">
        <ele>535</ele>
        <time>2019-11-07T23:01:05Z</time>
      </trkpt>
      <trkpt lat="43.58033" lon="2.45267">
        <ele>529</ele>
        <time>2019-11-07T23:01:24Z</time>
      </trkpt>
      <trkpt lat="43.58045" lon="2.45253">
        <ele>526</ele>
        <time>2019-11-07T23:01:37Z</time>
      </trkpt>
      <trkpt lat="43.58052" lon="2.45244">
        <ele>525</ele>
        <time>2019-11-07T23:01:44Z</time>
      </trkpt>
      <trkpt lat="43.58055" lon="2.45227">
        <ele>525</ele>
        <time>2019-11-07T23:01:55Z</time>
      </trkpt>
      <trkpt lat="43.58054" lon="2.45179">
        <ele>530</ele>
        <time>2019-11-07T23:02:22Z</time>
      </trkpt>
      <trkpt lat="43.58045" lon="2.45128">
        <ele>533</ele>
        <time>2019-11-07T23:02:53Z</time>
      </trkpt>
      <trkpt lat="43.58039" lon="2.45066">
        <ele>529</ele>
        <time>2019-11-07T23:03:29Z</time>
      </trkpt>
      <trkpt lat="43.58035" lon="2.4505">
        <ele>528</ele>
        <time>2019-11-07T23:03:39Z</time>
      </trkpt>
      <trkpt lat="43.58027" lon="2.45035">
        <ele>527</ele>
        <time>2019-11-07T23:03:50Z</time>
      </trkpt>
      <trkpt lat="43.58017" lon="2.45024">
        <ele>527</ele>
        <time>2019-11-07T23:04:00Z</time>
      </trkpt>
      <trkpt lat="43.58006" lon="2.45021">
        <ele>530</ele>
        <time>2019-11-07T23:04:09Z</time>
      </trkpt>
      <trkpt lat="43.57993" lon="2.45022">
        <ele>532</ele>
        <time>2019-11-07T23:04:19Z</time>
      </trkpt>
      <trkpt lat="43.57951" lon="2.45036">
        <ele>542</ele>
        <time>2019-11-07T23:04:54Z</time>
      </trkpt>
      <trkpt lat="43.5786" lon="2.45059">
        <ele>563</ele>
        <time>2019-11-07T23:06:08Z</time>
      </trkpt>
      <trkpt lat="43.57851" lon="2.45059">
        <ele>564</ele>
        <time>2019-11-07T23:06:15Z</time>
      </trkpt>
      <trkpt lat="43.5784" lon="2.45049">
        <ele>566</ele>
        <time>2019-11-07T23:06:26Z</time>
      </trkpt>
      <trkpt lat="43.5784" lon="2.45041">
        <ele>565</ele>
        <time>2019-11-07T23:06:30Z</time>
      </trkpt>
      <trkpt lat="43.57864" lon="2.44955">
        <ele>551</ele>
        <time>2019-11-07T23:07:24Z</time>
      </trkpt>
      <trkpt lat="43.57867" lon="2.44935">
        <ele>548</ele>
        <time>2019-11-07T23:07:36Z</time>
      </trkpt>
      <trkpt lat="43.57865" lon="2.4492">
        <ele>548</ele>
        <time>2019-11-07T23:07:45Z</time>
      </trkpt>
      <trkpt lat="43.57859" lon="2.44902">
        <ele>550</ele>
        <time>2019-11-07T23:07:56Z</time>
      </trkpt>
      <trkpt lat="43.57852" lon="2.44894">
        <ele>553</ele>
        <time>2019-11-07T23:08:03Z</time>
      </trkpt>
      <trkpt lat="43.57823" lon="2.44893">
        <ele>563</ele>
        <time>2019-11-07T23:08:27Z</time>
      </trkpt>
      <trkpt lat="43.57812" lon="2.44882">
        <ele>566</ele>
        <time>2019-11-07T23:08:37Z</time>
      </trkpt>
      <trkpt lat="43.57811" lon="2.4485">
        <ele>564</ele>
        <time>2019-11-07T23:08:56Z</time>
      </trkpt>
      <trkpt lat="43.57816" lon="2.44803">
        <ele>561</ele>
        <time>2019-11-07T23:09:24Z</time>
      </trkpt>
      <trkpt lat="43.57818" lon="2.4471">
        <ele>555</ele>
        <time>2019-11-07T23:10:18Z</time>
      </trkpt>
      <trkpt lat="43.57812" lon="2.44697">
        <ele>554</ele>
        <time>2019-11-07T23:10:27Z</time>
      </trkpt>
      <trkpt lat="43.57805" lon="2.44693">
        <ele>553</ele>
        <time>2019-11-07T23:10:33Z</time>
      </trkpt>
      <trkpt lat="43.57798" lon="2.44694">
        <ele>553</ele>
        <time>2019-11-07T23:10:38Z</time>
      </trkpt>
      <trkpt lat="43.57781" lon="2.44703">
        <ele>554</ele>
        <time>2019-11-07T23:10:53Z</time>
      </trkpt>
      <trkpt lat="43.57739" lon="2.44715">
        <ele>557</ele>
        <time>2019-11-07T23:11:27Z</time>
      </trkpt>
      <trkpt lat="43.57693" lon="2.44721">
        <ele>555</ele>
        <time>2019-11-07T23:12:04Z</time>
      </trkpt>
      <trkpt lat="43.57681" lon="2.44727">
        <ele>556</ele>
        <time>2019-11-07T23:12:14Z</time>
      </trkpt>
      <trkpt lat="43.57671" lon="2.44736">
        <ele>558</ele>
        <time>2019-11-07T23:12:24Z</time>
      </trkpt>
      <trkpt lat="43.57664" lon="2.44749">
        <ele>560</ele>
        <time>2019-11-07T23:12:33Z</time>
      </trkpt>
      <trkpt lat="43.57641" lon="2.44836">
        <ele>572</ele>
        <time>2019-11-07T23:13:27Z</time>
      </trkpt>
      <trkpt lat="43.57619" lon="2.44872">
        <ele>573</ele>
        <time>2019-11-07T23:13:54Z</time>
      </trkpt>
      <trkpt lat="43.57592" lon="2.44896">
        <ele>570</ele>
        <time>2019-11-07T23:14:20Z</time>
      </trkpt>
      <trkpt lat="43.57578" lon="2.44915">
        <ele>569</ele>
        <time>2019-11-07T23:14:36Z</time>
      </trkpt>
      <trkpt lat="43.57572" lon="2.44936">
        <ele>571</ele>
        <time>2019-11-07T23:14:49Z</time>
      </trkpt>
      <trkpt lat="43.57575" lon="2.44957">
        <ele>574</ele>
        <time>2019-11-07T23:15:01Z</time>
      </trkpt>
      <trkpt lat="43.57584" lon="2.44973">
        <ele>579</ele>
        <time>2019-11-07T23:15:13Z</time>
      </trkpt>
      <trkpt lat="43.57592" lon="2.44998">
        <ele>584</ele>
        <time>2019-11-07T23:15:29Z</time>
      </trkpt>
      <trkpt lat="43.57594" lon="2.45034">
        <ele>589</ele>
        <time>2019-11-07T23:15:50Z</time>
      </trkpt>
      <trkpt lat="43.57591" lon="2.4505">
        <ele>590</ele>
        <time>2019-11-07T23:15:59Z</time>
      </trkpt>
      <trkpt lat="43.57576" lon="2.45064">
        <ele>590</ele>
        <time>2019-11-07T23:16:14Z</time>
      </trkpt>
      <trkpt lat="43.57531" lon="2.45058">
        <ele>585</ele>
        <time>2019-11-07T23:16:50Z</time>
      </trkpt>
      <trkpt lat="43.5751" lon="2.45075">
        <ele>589</ele>
        <time>2019-11-07T23:17:10Z</time>
      </trkpt>
      <trkpt lat="43.575" lon="2.45087">
        <ele>592</ele>
        <time>2019-11-07T23:17:20Z</time>
      </trkpt>
      <trkpt lat="43.57492" lon="2.45089">
        <ele>591</ele>
        <time>2019-11-07T23:17:27Z</time>
      </trkpt>
      <trkpt lat="43.57469" lon="2.45079">
        <ele>586</ele>
        <time>2019-11-07T23:17:46Z</time>
      </trkpt>
      <trkpt lat="43.57459" lon="2.45082">
        <ele>585</ele>
        <time>2019-11-07T23:17:54Z</time>
      </trkpt>
      <trkpt lat="43.5745" lon="2.45092">
        <ele>587</ele>
        <time>2019-11-07T23:18:03Z</time>
      </trkpt>
      <trkpt lat="43.57437" lon="2.45117">
        <ele>591</ele>
        <time>2019-11-07T23:18:21Z</time>
      </trkpt>
      <trkpt lat="43.57424" lon="2.45136">
        <ele>594</ele>
        <time>2019-11-07T23:18:37Z</time>
      </trkpt>
      <trkpt lat="43.5734" lon="2.45227">
        <ele>604</ele>
        <time>2019-11-07T23:20:02Z</time>
      </trkpt>
      <trkpt lat="43.57298" lon="2.45263">
        <ele>606</ele>
        <time>2019-11-07T23:20:42Z</time>
      </trkpt>
      <trkpt lat="43.57249" lon="2.45313">
        <ele>605</ele>
        <time>2019-11-07T23:21:30Z</time>
      </trkpt>
      <trkpt lat="43.57235" lon="2.45334">
        <ele>606</ele>
        <time>2019-11-07T23:21:47Z</time>
      </trkpt>
      <trkpt lat="43.57232" lon="2.45345">
        <ele>606</ele>
        <time>2019-11-07T23:21:54Z</time>
      </trkpt>
      <trkpt lat="43.57232" lon="2.45359">
        <ele>606</ele>
        <time>2019-11-07T23:22:02Z</time>
      </trkpt>
      <trkpt lat="43.57238" lon="2.4543">
        <ele>608</ele>
        <time>2019-11-07T23:22:43Z</time>
      </trkpt>
      <trkpt lat="43.57242" lon="2.45445">
        <ele>608</ele>
        <time>2019-11-07T23:22:53Z</time>
      </trkpt>
      <trkpt lat="43.57255" lon="2.45468">
        <ele>609</ele>
        <time>2019-11-07T23:23:10Z</time>
      </trkpt>
      <trkpt lat="43.5726" lon="2.45499">
        <ele>609</ele>
        <time>2019-11-07T23:23:28Z</time>
      </trkpt>
      <trkpt lat="43.57256" lon="2.45536">
        <ele>609</ele>
        <time>2019-11-07T23:23:50Z</time>
      </trkpt>
      <trkpt lat="43.57233" lon="2.45632">
        <ele>614</ele>
        <time>2019-11-07T23:24:48Z</time>
      </trkpt>
      <trkpt lat="43.57232" lon="2.45667">
        <ele>617</ele>
        <time>2019-11-07T23:25:09Z</time>
      </trkpt>
      <trkpt lat="43.57236" lon="2.45677">
        <ele>617</ele>
        <time>2019-11-07T23:25:15Z</time>
      </trkpt>
      <trkpt lat="43.57242" lon="2.45682">
        <ele>616</ele>
        <time>2019-11-07T23:25:21Z</time>
      </trkpt>
      <trkpt lat="43.57298" lon="2.45708">
        <ele>622</ele>
        <time>2019-11-07T23:26:08Z</time>
      </trkpt>
      <trkpt lat="43.57313" lon="2.45718">
        <ele>623</ele>
        <time>2019-11-07T23:26:22Z</time>
      </trkpt>
      <trkpt lat="43.5732" lon="2.45728">
        <ele>622</ele>
        <time>2019-11-07T23:26:30Z</time>
      </trkpt>
      <trkpt lat="43.57328" lon="2.45753">
        <ele>620</ele>
        <time>2019-11-07T23:26:45Z</time>
      </trkpt>
      <trkpt lat="43.5733" lon="2.4579">
        <ele>620</ele>
        <time>2019-11-07T23:27:07Z</time>
      </trkpt>
      <trkpt lat="43.57327" lon="2.45903">
        <ele>625</ele>
        <time>2019-11-07T23:28:13Z</time>
      </trkpt>
      <trkpt lat="43.57324" lon="2.45921">
        <ele>628</ele>
        <time>2019-11-07T23:28:23Z</time>
      </trkpt>
      <trkpt lat="43.57315" lon="2.45933">
        <ele>631</ele>
        <time>2019-11-07T23:28:33Z</time>
      </trkpt>
      <trkpt lat="43.57282" lon="2.45894">
        <ele>629</ele>
        <time>2019-11-07T23:29:08Z</time>
      </trkpt>
      <trkpt lat="43.5727" lon="2.45889">
        <ele>629</ele>
        <time>2019-11-07T23:29:18Z</time>
      </trkpt>
      <trkpt lat="43.57247" lon="2.45895">
        <ele>633</ele>
        <time>2019-11-07T23:29:37Z</time>
      </trkpt>
      <trkpt lat="43.57239" lon="2.4589">
        <ele>635</ele>
        <time>2019-11-07T23:29:44Z</time>
      </trkpt>
      <trkpt lat="43.57229" lon="2.45867">
        <ele>636</ele>
        <time>2019-11-07T23:29:59Z</time>
      </trkpt>
      <trkpt lat="43.57218" lon="2.45822">
        <ele>635</ele>
        <time>2019-11-07T23:30:27Z</time>
      </trkpt>
      <trkpt lat="43.57207" lon="2.45799">
        <ele>635</ele>
        <time>2019-11-07T23:30:43Z</time>
      </trkpt>
      <trkpt lat="43.5718" lon="2.45761">
        <ele>638</ele>
        <time>2019-11-07T23:31:14Z</time>
      </trkpt>
      <trkpt lat="43.57154" lon="2.45745">
        <ele>644</ele>
        <time>2019-11-07T23:31:37Z</time>
      </trkpt>
      <trkpt lat="43.57129" lon="2.45734">
        <ele>652</ele>
        <time>2019-11-07T23:31:58Z</time>
      </trkpt>
      <trkpt lat="43.57121" lon="2.45727">
        <ele>654</ele>
        <time>2019-11-07T23:32:05Z</time>
      </trkpt>
      <trkpt lat="43.57117" lon="2.45695">
        <ele>652</ele>
        <time>2019-11-07T23:32:24Z</time>
      </trkpt>
      <trkpt lat="43.57119" lon="2.4566">
        <ele>647</ele>
        <time>2019-11-07T23:32:44Z</time>
      </trkpt>
      <trkpt lat="43.57114" lon="2.45637">
        <ele>646</ele>
        <time>2019-11-07T23:32:58Z</time>
      </trkpt>
      <trkpt lat="43.57095" lon="2.45593">
        <ele>649</ele>
        <time>2019-11-07T23:33:28Z</time>
      </trkpt>
      <trkpt lat="43.5706" lon="2.45525">
        <ele>656</ele>
        <time>2019-11-07T23:34:16Z</time>
      </trkpt>
      <trkpt lat="43.57049" lon="2.45496">
        <ele>657</ele>
        <time>2019-11-07T23:34:35Z</time>
      </trkpt>
      <trkpt lat="43.57043" lon="2.45459">
        <ele>656</ele>
        <time>2019-11-07T23:34:57Z</time>
      </trkpt>
      <trkpt lat="43.57035" lon="2.45428">
        <ele>656</ele>
        <time>2019-11-07T23:35:17Z</time>
      </trkpt>
      <trkpt lat="43.57019" lon="2.45394">
        <ele>657</ele>
        <time>2019-11-07T23:35:40Z</time>
      </trkpt>
      <trkpt lat="43.56987" lon="2.45366">
        <ele>664</ele>
        <time>2019-11-07T23:36:10Z</time>
      </trkpt>
      <trkpt lat="43.56978" lon="2.45356">
        <ele>666</ele>
        <time>2019-11-07T23:36:20Z</time>
      </trkpt>
      <trkpt lat="43.5697" lon="2.45342">
        <ele>666</ele>
        <time>2019-11-07T23:36:30Z</time>
      </trkpt>
      <trkpt lat="43.56967" lon="2.45331">
        <ele>665</ele>
        <time>2019-11-07T23:36:37Z</time>
      </trkpt>
      <trkpt lat="43.56969" lon="2.45312">
        <ele>666</ele>
        <time>2019-11-07T23:36:48Z</time>
      </trkpt>
      <trkpt lat="43.56975" lon="2.45299">
        <ele>665</ele>
        <time>2019-11-07T23:36:57Z</time>
      </trkpt>
      <trkpt lat="43.56983" lon="2.45291">
        <ele>663</ele>
        <time>2019-11-07T23:37:05Z</time>
      </trkpt>
      <trkpt lat="43.57" lon="2.45252">
        <ele>660</ele>
        <time>2019-11-07T23:37:31Z</time>
      </trkpt>
      <trkpt lat="43.57006" lon="2.45229">
        <ele>660</ele>
        <time>2019-11-07T23:37:45Z</time>
      </trkpt>
      <trkpt lat="43.5701" lon="2.452">
        <ele>661</ele>
        <time>2019-11-07T23:38:03Z</time>
      </trkpt>
      <trkpt lat="43.5701" lon="2.4517">
        <ele>664</ele>
        <time>2019-11-07T23:38:20Z</time>
      </trkpt>
      <trkpt lat="43.56999" lon="2.45099">
        <ele>666</ele>
        <time>2019-11-07T23:39:02Z</time>
      </trkpt>
      <trkpt lat="43.56976" lon="2.45043">
        <ele>668</ele>
        <time>2019-11-07T23:39:39Z</time>
      </trkpt>
      <trkpt lat="43.56958" lon="2.45013">
        <ele>668</ele>
        <time>2019-11-07T23:40:02Z</time>
      </trkpt>
      <trkpt lat="43.56946" lon="2.44999">
        <ele>669</ele>
        <time>2019-11-07T23:40:15Z</time>
      </trkpt>
      <trkpt lat="43.56919" lon="2.44975">
        <ele>670</ele>
        <time>2019-11-07T23:40:40Z</time>
      </trkpt>
      <trkpt lat="43.56906" lon="2.44973">
        <ele>670</ele>
        <time>2019-11-07T23:40:51Z</time>
      </trkpt>
      <trkpt lat="43.56884" lon="2.44978">
        <ele>672</ele>
        <time>2019-11-07T23:41:09Z</time>
      </trkpt>
      <trkpt lat="43.56867" lon="2.44978">
        <ele>673</ele>
        <time>2019-11-07T23:41:22Z</time>
      </trkpt>
      <trkpt lat="43.56817" lon="2.44999">
        <ele>679</ele>
        <time>2019-11-07T23:42:04Z</time>
      </trkpt>
      <trkpt lat="43.56822" lon="2.45007">
        <ele>680</ele>
        <time>2019-11-07T23:42:10Z</time>
      </trkpt>
      <trkpt lat="43.56841" lon="2.45012">
        <ele>681</ele>
        <time>2019-11-07T23:42:26Z</time>
      </trkpt>
      <trkpt lat="43.56857" lon="2.45022">
        <ele>683</ele>
        <time>2019-11-07T23:42:40Z</time>
      </trkpt>
      <trkpt lat="43.56873" lon="2.45037">
        <ele>685</ele>
        <time>2019-11-07T23:42:55Z</time>
      </trkpt>
      <trkpt lat="43.56889" lon="2.45061">
        <ele>689</ele>
        <time>2019-11-07T23:43:14Z</time>
      </trkpt>
      <trkpt lat="43.56896" lon="2.45084">
        <ele>693</ele>
        <time>2019-11-07T23:43:29Z</time>
      </trkpt>
      <trkpt lat="43.56898" lon="2.45117">
        <ele>695</ele>
        <time>2019-11-07T23:43:48Z</time>
      </trkpt>
      <trkpt lat="43.56898" lon="2.45139">
        <ele>696</ele>
        <time>2019-11-07T23:44:01Z</time>
      </trkpt>
      <trkpt lat="43.56892" lon="2.45151">
        <ele>698</ele>
        <time>2019-11-07T23:44:09Z</time>
      </trkpt>
      <trkpt lat="43.56855" lon="2.45162">
        <ele>705</ele>
        <time>2019-11-07T23:44:39Z</time>
      </trkpt>
      <trkpt lat="43.56834" lon="2.45173">
        <ele>709</ele>
        <time>2019-11-07T23:44:57Z</time>
      </trkpt>
      <trkpt lat="43.56812" lon="2.45194">
        <ele>710</ele>
        <time>2019-11-07T23:45:19Z</time>
      </trkpt>
      <trkpt lat="43.56794" lon="2.45207">
        <ele>712</ele>
        <time>2019-11-07T23:45:35Z</time>
      </trkpt>
      <trkpt lat="43.56751" lon="2.45231">
        <ele>717</ele>
        <time>2019-11-07T23:46:12Z</time>
      </trkpt>
      <trkpt lat="43.56716" lon="2.45266">
        <ele>721</ele>
        <time>2019-11-07T23:46:47Z</time>
      </trkpt>
      <trkpt lat="43.56701" lon="2.45277">
        <ele>722</ele>
        <time>2019-11-07T23:47:00Z</time>
      </trkpt>
      <trkpt lat="43.56642" lon="2.45335">
        <ele>729</ele>
        <time>2019-11-07T23:47:58Z</time>
      </trkpt>
      <trkpt lat="43.56596" lon="2.45386">
        <ele>728</ele>
        <time>2019-11-07T23:48:46Z</time>
      </trkpt>
      <trkpt lat="43.56568" lon="2.4544">
        <ele>729</ele>
        <time>2019-11-07T23:49:24Z</time>
      </trkpt>
      <trkpt lat="43.56546" lon="2.45496">
        <ele>728</ele>
        <time>2019-11-07T23:50:01Z</time>
      </trkpt>
      <trkpt lat="43.56539" lon="2.45497">
        <ele>727</ele>
        <time>2019-11-07T23:50:07Z</time>
      </trkpt>
      <trkpt lat="43.56506" lon="2.45527">
        <ele>722</ele>
        <time>2019-11-07T23:50:38Z</time>
      </trkpt>
      <trkpt lat="43.5651" lon="2.45537">
        <ele>722</ele>
        <time>2019-11-07T23:50:45Z</time>
      </trkpt>
      <trkpt lat="43.56531" lon="2.45555">
        <ele>724</ele>
        <time>2019-11-07T23:51:05Z</time>
      </trkpt>
      <trkpt lat="43.56553" lon="2.45583">
        <ele>725</ele>
        <time>2019-11-07T23:51:29Z</time>
      </trkpt>
      <trkpt lat="43.56569" lon="2.45627">
        <ele>724</ele>
        <time>2019-11-07T23:51:57Z</time>
      </trkpt>
      <trkpt lat="43.5659" lon="2.45663">
        <ele>724</ele>
        <time>2019-11-07T23:52:24Z</time>
      </trkpt>
      <trkpt lat="43.56614" lon="2.45682">
        <ele>729</ele>
        <time>2019-11-07T23:52:46Z</time>
      </trkpt>
      <trkpt lat="43.56659" lon="2.45792">
        <ele>740</ele>
        <time>2019-11-07T23:54:00Z</time>
      </trkpt>
      <trkpt lat="43.5667" lon="2.45825">
        <ele>744</ele>
        <time>2019-11-07T23:54:21Z</time>
      </trkpt>
      <trkpt lat="43.5668" lon="2.4588">
        <ele>745</ele>
        <time>2019-11-07T23:54:54Z</time>
      </trkpt>
      <trkpt lat="43.56703" lon="2.45934">
        <ele>748</ele>
        <time>2019-11-07T23:55:30Z</time>
      </trkpt>
      <trkpt lat="43.56712" lon="2.45966">
        <ele>749</ele>
        <time>2019-11-07T23:55:50Z</time>
      </trkpt>
      <trkpt lat="43.56721" lon="2.46011">
        <ele>749</ele>
        <time>2019-11-07T23:56:17Z</time>
      </trkpt>
      <trkpt lat="43.56734" lon="2.46128">
        <ele>746</ele>
        <time>2019-11-07T23:57:26Z</time>
      </trkpt>
      <trkpt lat="43.56764" lon="2.46225">
        <ele>748</ele>
        <time>2019-11-07T23:58:27Z</time>
      </trkpt>
      <trkpt lat="43.56766" lon="2.46252">
        <ele>748</ele>
        <time>2019-11-07T23:58:42Z</time>
      </trkpt>
      <trkpt lat="43.56759" lon="2.46295">
        <ele>750</ele>
        <time>2019-11-07T23:59:08Z</time>
      </trkpt>
      <trkpt lat="43.56753" lon="2.46307">
        <ele>750</ele>
        <time>2019-11-07T23:59:16Z</time>
      </trkpt>
      <trkpt lat="43.56727" lon="2.46338">
        <ele>751</ele>
        <time>2019-11-07T23:59:44Z</time>
      </trkpt>
      <trkpt lat="43.56672" lon="2.46413">
        <ele>757</ele>
        <time>2019-11-08T00:00:46Z</time>
      </trkpt>
      <trkpt lat="43.56659" lon="2.46441">
        <ele>759</ele>
        <time>2019-11-08T00:01:05Z</time>
      </trkpt>
      <trkpt lat="43.56648" lon="2.46472">
        <ele>761</ele>
        <time>2019-11-08T00:01:25Z</time>
      </trkpt>
      <trkpt lat="43.56644" lon="2.46495">
        <ele>763</ele>
        <time>2019-11-08T00:01:39Z</time>
      </trkpt>
      <trkpt lat="43.56644" lon="2.46522">
        <ele>765</ele>
        <time>2019-11-08T00:01:55Z</time>
      </trkpt>
      <trkpt lat="43.5664" lon="2.46553">
        <ele>767</ele>
        <time>2019-11-08T00:02:13Z</time>
      </trkpt>
      <trkpt lat="43.56621" lon="2.4662">
        <ele>770</ele>
        <time>2019-11-08T00:02:55Z</time>
      </trkpt>
      <trkpt lat="43.5661" lon="2.46652">
        <ele>771</ele>
        <time>2019-11-08T00:03:15Z</time>
      </trkpt>
      <trkpt lat="43.56604" lon="2.46663">
        <ele>771</ele>
        <time>2019-11-08T00:03:23Z</time>
      </trkpt>
      <trkpt lat="43.56599" lon="2.46666">
        <ele>771</ele>
        <time>2019-11-08T00:03:28Z</time>
      </trkpt>
      <trkpt lat="43.56584" lon="2.46714">
        <ele>773</ele>
        <time>2019-11-08T00:03:58Z</time>
      </trkpt>
      <trkpt lat="43.56569" lon="2.46747">
        <ele>773</ele>
        <time>2019-11-08T00:04:20Z</time>
      </trkpt>
      <trkpt lat="43.56537" lon="2.46805">
        <ele>771</ele>
        <time>2019-11-08T00:05:03Z</time>
      </trkpt>
      <trkpt lat="43.56528" lon="2.46831">
        <ele>770</ele>
        <time>2019-11-08T00:05:19Z</time>
      </trkpt>
      <trkpt lat="43.56514" lon="2.46892">
        <ele>767</ele>
        <time>2019-11-08T00:05:57Z</time>
      </trkpt>
      <trkpt lat="43.56507" lon="2.46907">
        <ele>766</ele>
        <time>2019-11-08T00:06:07Z</time>
      </trkpt>
      <trkpt lat="43.56504" lon="2.46922">
        <ele>765</ele>
        <time>2019-11-08T00:06:16Z</time>
      </trkpt>
      <trkpt lat="43.56507" lon="2.46933">
        <ele>766</ele>
        <time>2019-11-08T00:06:23Z</time>
      </trkpt>
      <trkpt lat="43.56525" lon="2.46965">
        <ele>767</ele>
        <time>2019-11-08T00:06:46Z</time>
      </trkpt>
      <trkpt lat="43.56533" lon="2.46985">
        <ele>767</ele>
        <time>2019-11-08T00:07:00Z</time>
      </trkpt>
      <trkpt lat="43.56536" lon="2.47001">
        <ele>767</ele>
        <time>2019-11-08T00:07:09Z</time>
      </trkpt>
      <trkpt lat="43.56534" lon="2.47015">
        <ele>767</ele>
        <time>2019-11-08T00:07:17Z</time>
      </trkpt>
      <trkpt lat="43.5652" lon="2.47043">
        <ele>768</ele>
        <time>2019-11-08T00:07:37Z</time>
      </trkpt>
      <trkpt lat="43.56516" lon="2.47063">
        <ele>769</ele>
        <time>2019-11-08T00:07:49Z</time>
      </trkpt>
      <trkpt lat="43.5651" lon="2.47078">
        <ele>769</ele>
        <time>2019-11-08T00:07:59Z</time>
      </trkpt>
      <trkpt lat="43.56453" lon="2.47156">
        <ele>763</ele>
        <time>2019-11-08T00:09:03Z</time>
      </trkpt>
      <trkpt lat="43.56466" lon="2.47227">
        <ele>770</ele>
        <time>2019-11-08T00:09:46Z</time>
      </trkpt>
      <trkpt lat="43.56461" lon="2.47253">
        <ele>771</ele>
        <time>2019-11-08T00:10:01Z</time>
      </trkpt>
      <trkpt lat="43.56441" lon="2.47325">
        <ele>776</ele>
        <time>2019-11-08T00:10:46Z</time>
      </trkpt>
      <trkpt lat="43.56438" lon="2.47353">
        <ele>777</ele>
        <time>2019-11-08T00:11:03Z</time>
      </trkpt>
      <trkpt lat="43.56441" lon="2.47405">
        <ele>777</ele>
        <time>2019-11-08T00:11:33Z</time>
      </trkpt>
      <trkpt lat="43.5645" lon="2.4748">
        <ele>776</ele>
        <time>2019-11-08T00:12:17Z</time>
      </trkpt>
      <trkpt lat="43.56459" lon="2.47604">
        <ele>764</ele>
        <time>2019-11-08T00:13:29Z</time>
      </trkpt>
      <trkpt lat="43.5647" lon="2.47628">
        <ele>764</ele>
        <time>2019-11-08T00:13:46Z</time>
      </trkpt>
      <trkpt lat="43.56484" lon="2.47639">
        <ele>764</ele>
        <time>2019-11-08T00:13:59Z</time>
      </trkpt>
      <trkpt lat="43.56546" lon="2.47677">
        <ele>763</ele>
        <time>2019-11-08T00:14:53Z</time>
      </trkpt>
      <trkpt lat="43.56619" lon="2.47735">
        <ele>762</ele>
        <time>2019-11-08T00:16:00Z</time>
      </trkpt>
      <trkpt lat="43.5668" lon="2.47799">
        <ele>761</ele>
        <time>2019-11-08T00:17:02Z</time>
      </trkpt>
      <trkpt lat="43.56682" lon="2.47794">
        <ele>761</ele>
        <time>2019-11-08T00:17:05Z</time>
      </trkpt>
      <trkpt lat="43.56747" lon="2.4786">
        <ele>770</ele>
        <time>2019-11-08T00:18:10Z</time>
      </trkpt>
      <trkpt lat="43.56787" lon="2.4789">
        <ele>778</ele>
        <time>2019-11-08T00:18:46Z</time>
      </trkpt>
      <trkpt lat="43.56828" lon="2.47897">
        <ele>784</ele>
        <time>2019-11-08T00:19:19Z</time>
      </trkpt>
      <trkpt lat="43.56852" lon="2.47896">
        <ele>785</ele>
        <time>2019-11-08T00:19:38Z</time>
      </trkpt>
      <trkpt lat="43.56885" lon="2.4789">
        <ele>786</ele>
        <time>2019-11-08T00:20:05Z</time>
      </trkpt>
      <trkpt lat="43.56899" lon="2.47892">
        <ele>787</ele>
        <time>2019-11-08T00:20:16Z</time>
      </trkpt>
      <trkpt lat="43.56929" lon="2.47909">
        <ele>789</ele>
        <time>2019-11-08T00:20:42Z</time>
      </trkpt>
      <trkpt lat="43.56963" lon="2.47935">
        <ele>791</ele>
        <time>2019-11-08T00:21:13Z</time>
      </trkpt>
      <trkpt lat="43.56978" lon="2.47943">
        <ele>792</ele>
        <time>2019-11-08T00:21:26Z</time>
      </trkpt>
      <trkpt lat="43.57034" lon="2.47983">
        <ele>791</ele>
        <time>2019-11-08T00:22:17Z</time>
      </trkpt>
      <trkpt lat="43.57047" lon="2.47995">
        <ele>791</ele>
        <time>2019-11-08T00:22:29Z</time>
      </trkpt>
      <trkpt lat="43.5707" lon="2.48031">
        <ele>793</ele>
        <time>2019-11-08T00:22:57Z</time>
      </trkpt>
      <trkpt lat="43.57097" lon="2.48087">
        <ele>797</ele>
        <time>2019-11-08T00:23:36Z</time>
      </trkpt>
      <trkpt lat="43.57134" lon="2.48194">
        <ele>797</ele>
        <time>2019-11-08T00:24:45Z</time>
      </trkpt>
      <trkpt lat="43.57158" lon="2.48298">
        <ele>791</ele>
        <time>2019-11-08T00:25:48Z</time>
      </trkpt>
      <trkpt lat="43.57179" lon="2.48403">
        <ele>790</ele>
        <time>2019-11-08T00:26:52Z</time>
      </trkpt>
      <trkpt lat="43.57194" lon="2.4846">
        <ele>790</ele>
        <time>2019-11-08T00:27:27Z</time>
      </trkpt>
      <trkpt lat="43.57219" lon="2.48583">
        <ele>791</ele>
        <time>2019-11-08T00:28:41Z</time>
      </trkpt>
      <trkpt lat="43.57258" lon="2.48736">
        <ele>797</ele>
        <time>2019-11-08T00:30:15Z</time>
      </trkpt>
      <trkpt lat="43.57262" lon="2.48755">
        <ele>797</ele>
        <time>2019-11-08T00:30:26Z</time>
      </trkpt>
      <trkpt lat="43.57267" lon="2.48808">
        <ele>796</ele>
        <time>2019-11-08T00:30:57Z</time>
      </trkpt>
      <trkpt lat="43.57266" lon="2.48898">
        <ele>792</ele>
        <time>2019-11-08T00:31:50Z</time>
      </trkpt>
      <trkpt lat="43.57269" lon="2.48978">
        <ele>788</ele>
        <time>2019-11-08T00:32:36Z</time>
      </trkpt>
      <trkpt lat="43.57263" lon="2.49196">
        <ele>782</ele>
        <time>2019-11-08T00:34:43Z</time>
      </trkpt>
      <trkpt lat="43.57262" lon="2.49204">
        <ele>782</ele>
        <time>2019-11-08T00:34:47Z</time>
      </trkpt>
      <trkpt lat="43.57258" lon="2.4921">
        <ele>781</ele>
        <time>2019-11-08T00:34:52Z</time>
      </trkpt>
      <trkpt lat="43.57241" lon="2.49209">
        <ele>781</ele>
        <time>2019-11-08T00:35:06Z</time>
      </trkpt>
      <trkpt lat="43.57236" lon="2.49212">
        <ele>780</ele>
        <time>2019-11-08T00:35:10Z</time>
      </trkpt>
      <trkpt lat="43.57245" lon="2.49237">
        <ele>779</ele>
        <time>2019-11-08T00:35:26Z</time>
      </trkpt>
      <trkpt lat="43.57244" lon="2.49355">
        <ele>772</ele>
        <time>2019-11-08T00:36:35Z</time>
      </trkpt>
      <trkpt lat="43.57249" lon="2.49374">
        <ele>771</ele>
        <time>2019-11-08T00:36:46Z</time>
      </trkpt>
      <trkpt lat="43.57257" lon="2.49384">
        <ele>771</ele>
        <time>2019-11-08T00:36:55Z</time>
      </trkpt>
      <trkpt lat="43.57262" lon="2.49385">
        <ele>771</ele>
        <time>2019-11-08T00:36:59Z</time>
      </trkpt>
      <trkpt lat="43.5727" lon="2.49634">
        <ele>763</ele>
        <time>2019-11-08T00:39:24Z</time>
      </trkpt>
      <trkpt lat="43.57268" lon="2.49851">
        <ele>750</ele>
        <time>2019-11-08T00:41:30Z</time>
      </trkpt>
      <trkpt lat="43.57244" lon="2.50091">
        <ele>747</ele>
        <time>2019-11-08T00:43:50Z</time>
      </trkpt>
      <trkpt lat="43.5724" lon="2.50165">
        <ele>747</ele>
        <time>2019-11-08T00:44:33Z</time>
      </trkpt>
      <trkpt lat="43.57219" lon="2.50334">
        <ele>754</ele>
        <time>2019-11-08T00:46:13Z</time>
      </trkpt>
      <trkpt lat="43.57222" lon="2.50385">
        <ele>751</ele>
        <time>2019-11-08T00:46:42Z</time>
      </trkpt>
      <trkpt lat="43.5722" lon="2.50421">
        <ele>750</ele>
        <time>2019-11-08T00:47:03Z</time>
      </trkpt>
      <trkpt lat="43.57221" lon="2.50469">
        <ele>747</ele>
        <time>2019-11-08T00:47:31Z</time>
      </trkpt>
      <trkpt lat="43.57216" lon="2.50495">
        <ele>747</ele>
        <time>2019-11-08T00:47:47Z</time>
      </trkpt>
      <trkpt lat="43.57206" lon="2.50515">
        <ele>749</ele>
        <time>2019-11-08T00:48:01Z</time>
      </trkpt>
      <trkpt lat="43.57194" lon="2.50532">
        <ele>753</ele>
        <time>2019-11-08T00:48:15Z</time>
      </trkpt>
      <trkpt lat="43.57192" lon="2.50563">
        <ele>754</ele>
        <time>2019-11-08T00:48:33Z</time>
      </trkpt>
      <trkpt lat="43.57184" lon="2.50586">
        <ele>758</ele>
        <time>2019-11-08T00:48:47Z</time>
      </trkpt>
      <trkpt lat="43.57185" lon="2.50614">
        <ele>757</ele>
        <time>2019-11-08T00:49:04Z</time>
      </trkpt>
      <trkpt lat="43.57192" lon="2.50648">
        <ele>755</ele>
        <time>2019-11-08T00:49:24Z</time>
      </trkpt>
      <trkpt lat="43.57203" lon="2.50669">
        <ele>752</ele>
        <time>2019-11-08T00:49:39Z</time>
      </trkpt>
      <trkpt lat="43.57224" lon="2.50745">
        <ele>741</ele>
        <time>2019-11-08T00:50:26Z</time>
      </trkpt>
      <trkpt lat="43.5723" lon="2.50803">
        <ele>735</ele>
        <time>2019-11-08T00:51:00Z</time>
      </trkpt>
      <trkpt lat="43.57249" lon="2.50848">
        <ele>731</ele>
        <time>2019-11-08T00:51:31Z</time>
      </trkpt>
      <trkpt lat="43.57249" lon="2.50864">
        <ele>732</ele>
        <time>2019-11-08T00:51:40Z</time>
      </trkpt>
      <trkpt lat="43.57265" lon="2.50895">
        <ele>732</ele>
        <time>2019-11-08T00:52:02Z</time>
      </trkpt>
      <trkpt lat="43.57266" lon="2.50905">
        <ele>732</ele>
        <time>2019-11-08T00:52:08Z</time>
      </trkpt>
      <trkpt lat="43.57256" lon="2.50938">
        <ele>735</ele>
        <time>2019-11-08T00:52:29Z</time>
      </trkpt>
      <trkpt lat="43.57254" lon="2.50975">
        <ele>738</ele>
        <time>2019-11-08T00:52:50Z</time>
      </trkpt>
      <trkpt lat="43.57246" lon="2.51008">
        <ele>741</ele>
        <time>2019-11-08T00:53:10Z</time>
      </trkpt>
      <trkpt lat="43.57244" lon="2.51052">
        <ele>746</ele>
        <time>2019-11-08T00:53:36Z</time>
      </trkpt>
      <trkpt lat="43.57234" lon="2.51093">
        <ele>749</ele>
        <time>2019-11-08T00:54:01Z</time>
      </trkpt>
      <trkpt lat="43.57216" lon="2.51141">
        <ele>752</ele>
        <time>2019-11-08T00:54:32Z</time>
      </trkpt>
      <trkpt lat="43.57195" lon="2.51208">
        <ele>756</ele>
        <time>2019-11-08T00:55:15Z</time>
      </trkpt>
      <trkpt lat="43.57178" lon="2.51233">
        <ele>756</ele>
        <time>2019-11-08T00:55:35Z</time>
      </trkpt>
      <trkpt lat="43.57165" lon="2.51241">
        <ele>754</ele>
        <time>2019-11-08T00:55:46Z</time>
      </trkpt>
      <trkpt lat="43.57129" lon="2.51234">
        <ele>748</ele>
        <time>2019-11-08T00:56:15Z</time>
      </trkpt>
      <trkpt lat="43.57106" lon="2.51237">
        <ele>746</ele>
        <time>2019-11-08T00:56:34Z</time>
      </trkpt>
      <trkpt lat="43.57074" lon="2.51246">
        <ele>743</ele>
        <time>2019-11-08T00:57:00Z</time>
      </trkpt>
      <trkpt lat="43.57059" lon="2.51258">
        <ele>743</ele>
        <time>2019-11-08T00:57:14Z</time>
      </trkpt>
      <trkpt lat="43.57048" lon="2.51281">
        <ele>743</ele>
        <time>2019-11-08T00:57:30Z</time>
      </trkpt>
      <trkpt lat="43.57047" lon="2.51372">
        <ele>749</ele>
        <time>2019-11-08T00:58:22Z</time>
      </trkpt>
      <trkpt lat="43.57024" lon="2.51483">
        <ele>750</ele>
        <time>2019-11-08T00:59:29Z</time>
      </trkpt>
      <trkpt lat="43.57022" lon="2.51506">
        <ele>751</ele>
        <time>2019-11-08T00:59:43Z</time>
      </trkpt>
      <trkpt lat="43.57026" lon="2.51633">
        <ele>748</ele>
        <time>2019-11-08T01:00:57Z</time>
      </trkpt>
      <trkpt lat="43.57029" lon="2.51651">
        <ele>748</ele>
        <time>2019-11-08T01:01:07Z</time>
      </trkpt>
      <trkpt lat="43.57028" lon="2.51682">
        <ele>747</ele>
        <time>2019-11-08T01:01:25Z</time>
      </trkpt>
      <trkpt lat="43.57023" lon="2.51718">
        <ele>746</ele>
        <time>2019-11-08T01:01:47Z</time>
      </trkpt>
      <trkpt lat="43.57023" lon="2.51778">
        <ele>746</ele>
        <time>2019-11-08T01:02:21Z</time>
      </trkpt>
      <trkpt lat="43.57022" lon="2.5179">
        <ele>746</ele>
        <time>2019-11-08T01:02:28Z</time>
      </trkpt>
      <trkpt lat="43.57017" lon="2.518">
        <ele>746</ele>
        <time>2019-11-08T01:02:35Z</time>
      </trkpt>
      <trkpt lat="43.57002" lon="2.51814">
        <ele>746</ele>
        <time>2019-11-08T01:02:50Z</time>
      </trkpt>
      <trkpt lat="43.56961" lon="2.5184">
        <ele>742</ele>
        <time>2019-11-08T01:03:26Z</time>
      </trkpt>
      <trkpt lat="43.56926" lon="2.51897">
        <ele>746</ele>
        <time>2019-11-08T01:04:09Z</time>
      </trkpt>
      <trkpt lat="43.56884" lon="2.51933">
        <ele>749</ele>
        <time>2019-11-08T01:04:49Z</time>
      </trkpt>
      <trkpt lat="43.56836" lon="2.51941">
        <ele>748</ele>
        <time>2019-11-08T01:05:28Z</time>
      </trkpt>
      <trkpt lat="43.56789" lon="2.51945">
        <ele>747</ele>
        <time>2019-11-08T01:06:05Z</time>
      </trkpt>
      <trkpt lat="43.56784" lon="2.51988">
        <ele>754</ele>
        <time>2019-11-08T01:06:31Z</time>
      </trkpt>
      <trkpt lat="43.56782" lon="2.5207">
        <ele>764</ele>
        <time>2019-11-08T01:07:18Z</time>
      </trkpt>
      <trkpt lat="43.56785" lon="2.52146">
        <ele>771</ele>
        <time>2019-11-08T01:08:02Z</time>
      </trkpt>
      <trkpt lat="43.56784" lon="2.52269">
        <ele>782</ele>
        <time>2019-11-08T01:09:14Z</time>
      </trkpt>
      <trkpt lat="43.5676" lon="2.52439">
        <ele>793</ele>
        <time>2019-11-08T01:10:54Z</time>
      </trkpt>
      <trkpt lat="43.5676" lon="2.52453">
        <ele>794</ele>
        <time>2019-11-08T01:11:02Z</time>
      </trkpt>
      <trkpt lat="43.56766" lon="2.52491">
        <ele>795</ele>
        <time>2019-11-08T01:11:25Z</time>
      </trkpt>
      <trkpt lat="43.56775" lon="2.52517">
        <ele>797</ele>
        <time>2019-11-08T01:11:42Z</time>
      </trkpt>
      <trkpt lat="43.56789" lon="2.52542">
        <ele>799</ele>
        <time>2019-11-08T01:12:00Z</time>
      </trkpt>
      <trkpt lat="43.56773" lon="2.52543">
        <ele>798</ele>
        <time>2019-11-08T01:12:13Z</time>
      </trkpt>
      <trkpt lat="43.56768" lon="2.5263">
        <ele>800</ele>
        <time>2019-11-08T01:13:03Z</time>
      </trkpt>
      <trkpt lat="43.56775" lon="2.52681">
        <ele>803</ele>
        <time>2019-11-08T01:13:34Z</time>
      </trkpt>
      <trkpt lat="43.5675" lon="2.52818">
        <ele>798</ele>
        <time>2019-11-08T01:14:55Z</time>
      </trkpt>
      <trkpt lat="43.56762" lon="2.52817">
        <ele>800</ele>
        <time>2019-11-08T01:15:05Z</time>
      </trkpt>
      <trkpt lat="43.5678" lon="2.52823">
        <ele>803</ele>
        <time>2019-11-08T01:15:20Z</time>
      </trkpt>
      <trkpt lat="43.56789" lon="2.52834">
        <ele>805</ele>
        <time>2019-11-08T01:15:30Z</time>
      </trkpt>
      <trkpt lat="43.56787" lon="2.5285">
        <ele>804</ele>
        <time>2019-11-08T01:15:39Z</time>
      </trkpt>
      <trkpt lat="43.56812" lon="2.52897">
        <ele>806</ele>
        <time>2019-11-08T01:16:13Z</time>
      </trkpt>
      <trkpt lat="43.56835" lon="2.52987">
        <ele>810</ele>
        <time>2019-11-08T01:17:08Z</time>
      </trkpt>
      <trkpt lat="43.56853" lon="2.53045">
        <ele>812</ele>
        <time>2019-11-08T01:17:45Z</time>
      </trkpt>
      <trkpt lat="43.56854" lon="2.5306">
        <ele>811</ele>
        <time>2019-11-08T01:17:54Z</time>
      </trkpt>
      <trkpt lat="43.56846" lon="2.53086">
        <ele>808</ele>
        <time>2019-11-08T01:18:10Z</time>
      </trkpt>
      <trkpt lat="43.56833" lon="2.53104">
        <ele>806</ele>
        <time>2019-11-08T01:18:25Z</time>
      </trkpt>
      <trkpt lat="43.56703" lon="2.53121">
        <ele>797</ele>
        <time>2019-11-08T01:20:09Z</time>
      </trkpt>
      <trkpt lat="43.56657" lon="2.53133">
        <ele>794</ele>
        <time>2019-11-08T01:20:47Z</time>
      </trkpt>
      <trkpt lat="43.56617" lon="2.53148">
        <ele>792</ele>
        <time>2019-11-08T01:21:20Z</time>
      </trkpt>
      <trkpt lat="43.56586" lon="2.53164">
        <ele>790</ele>
        <time>2019-11-08T01:21:46Z</time>
      </trkpt>
      <trkpt lat="43.56559" lon="2.53185">
        <ele>790</ele>
        <time>2019-11-08T01:22:11Z</time>
      </trkpt>
      <trkpt lat="43.56536" lon="2.53186">
        <ele>790</ele>
        <time>2019-11-08T01:22:30Z</time>
      </trkpt>
      <trkpt lat="43.56508" lon="2.53191">
        <ele>790</ele>
        <time>2019-11-08T01:22:52Z</time>
      </trkpt>
      <trkpt lat="43.56436" lon="2.53216">
        <ele>783</ele>
        <time>2019-11-08T01:23:52Z</time>
      </trkpt>
      <trkpt lat="43.56375" lon="2.53234">
        <ele>771</ele>
        <time>2019-11-08T01:24:42Z</time>
      </trkpt>
      <trkpt lat="43.56365" lon="2.53251">
        <ele>769</ele>
        <time>2019-11-08T01:24:54Z</time>
      </trkpt>
      <trkpt lat="43.56358" lon="2.53257">
        <ele>768</ele>
        <time>2019-11-08T01:25:01Z</time>
      </trkpt>
      <trkpt lat="43.56358" lon="2.53268">
        <ele>768</ele>
        <time>2019-11-08T01:25:07Z</time>
      </trkpt>
      <trkpt lat="43.56335" lon="2.53264">
        <ele>763</ele>
        <time>2019-11-08T01:25:26Z</time>
      </trkpt>
      <trkpt lat="43.56302" lon="2.53264">
        <ele>760</ele>
        <time>2019-11-08T01:25:52Z</time>
      </trkpt>
      <trkpt lat="43.56289" lon="2.53258">
        <ele>759</ele>
        <time>2019-11-08T01:26:03Z</time>
      </trkpt>
      <trkpt lat="43.56273" lon="2.53258">
        <ele>758</ele>
        <time>2019-11-08T01:26:16Z</time>
      </trkpt>
      <trkpt lat="43.56249" lon="2.53266">
        <ele>757</ele>
        <time>2019-11-08T01:26:36Z</time>
      </trkpt>
      <trkpt lat="43.56225" lon="2.53264">
        <ele>755</ele>
        <time>2019-11-08T01:26:55Z</time>
      </trkpt>
      <trkpt lat="43.56179" lon="2.53289">
        <ele>753</ele>
        <time>2019-11-08T01:27:35Z</time>
      </trkpt>
      <trkpt lat="43.56167" lon="2.53286">
        <ele>752</ele>
        <time>2019-11-08T01:27:44Z</time>
      </trkpt>
      <trkpt lat="43.56121" lon="2.53262">
        <ele>751</ele>
        <time>2019-11-08T01:28:24Z</time>
      </trkpt>
      <trkpt lat="43.56059" lon="2.53236">
        <ele>749</ele>
        <time>2019-11-08T01:29:16Z</time>
      </trkpt>
      <trkpt lat="43.55976" lon="2.53211">
        <ele>749</ele>
        <time>2019-11-08T01:30:24Z</time>
      </trkpt>
      <trkpt lat="43.55939" lon="2.53188">
        <ele>749</ele>
        <time>2019-11-08T01:30:56Z</time>
      </trkpt>
      <trkpt lat="43.55921" lon="2.53167">
        <ele>750</ele>
        <time>2019-11-08T01:31:15Z</time>
      </trkpt>
      <trkpt lat="43.5591" lon="2.53158">
        <ele>749</ele>
        <time>2019-11-08T01:31:25Z</time>
      </trkpt>
      <trkpt lat="43.55889" lon="2.53149">
        <ele>747</ele>
        <time>2019-11-08T01:31:43Z</time>
      </trkpt>
      <trkpt lat="43.55871" lon="2.53152">
        <ele>745</ele>
        <time>2019-11-08T01:31:57Z</time>
      </trkpt>
      <trkpt lat="43.55851" lon="2.53168">
        <ele>744</ele>
        <time>2019-11-08T01:32:16Z</time>
      </trkpt>
      <trkpt lat="43.55832" lon="2.53177">
        <ele>742</ele>
        <time>2019-11-08T01:32:32Z</time>
      </trkpt>
      <trkpt lat="43.55806" lon="2.53177">
        <ele>741</ele>
        <time>2019-11-08T01:32:53Z</time>
      </trkpt>
      <trkpt lat="43.55767" lon="2.53168">
        <ele>740</ele>
        <time>2019-11-08T01:33:25Z</time>
      </trkpt>
      <trkpt lat="43.55719" lon="2.5315">
        <ele>738</ele>
        <time>2019-11-08T01:34:04Z</time>
      </trkpt>
      <trkpt lat="43.55698" lon="2.53139">
        <ele>737</ele>
        <time>2019-11-08T01:34:22Z</time>
      </trkpt>
      <trkpt lat="43.55677" lon="2.53134">
        <ele>736</ele>
        <time>2019-11-08T01:34:39Z</time>
      </trkpt>
      <trkpt lat="43.55634" lon="2.53114">
        <ele>734</ele>
        <time>2019-11-08T01:35:16Z</time>
      </trkpt>
      <trkpt lat="43.55626" lon="2.53118">
        <ele>734</ele>
        <time>2019-11-08T01:35:23Z</time>
      </trkpt>
      <trkpt lat="43.55593" lon="2.53108">
        <ele>733</ele>
        <time>2019-11-08T01:35:50Z</time>
      </trkpt>
      <trkpt lat="43.55571" lon="2.53104">
        <ele>731</ele>
        <time>2019-11-08T01:36:07Z</time>
      </trkpt>
      <trkpt lat="43.55559" lon="2.53116">
        <ele>729</ele>
        <time>2019-11-08T01:36:19Z</time>
      </trkpt>
      <trkpt lat="43.55563" lon="2.53153">
        <ele>726</ele>
        <time>2019-11-08T01:36:41Z</time>
      </trkpt>
      <trkpt lat="43.5557" lon="2.53183">
        <ele>727</ele>
        <time>2019-11-08T01:36:59Z</time>
      </trkpt>
      <trkpt lat="43.55601" lon="2.53252">
        <ele>732</ele>
        <time>2019-11-08T01:37:46Z</time>
      </trkpt>
      <trkpt lat="43.55606" lon="2.53276">
        <ele>732</ele>
        <time>2019-11-08T01:38:01Z</time>
      </trkpt>
      <trkpt lat="43.55601" lon="2.53313">
        <ele>731</ele>
        <time>2019-11-08T01:38:23Z</time>
      </trkpt>
      <trkpt lat="43.55592" lon="2.53355">
        <ele>730</ele>
        <time>2019-11-08T01:38:48Z</time>
      </trkpt>
      <trkpt lat="43.55597" lon="2.53387">
        <ele>729</ele>
        <time>2019-11-08T01:39:07Z</time>
      </trkpt>
      <trkpt lat="43.55604" lon="2.53409">
        <ele>729</ele>
        <time>2019-11-08T01:39:21Z</time>
      </trkpt>
      <trkpt lat="43.55598" lon="2.53429">
        <ele>729</ele>
        <time>2019-11-08T01:39:34Z</time>
      </trkpt>
      <trkpt lat="43.55548" lon="2.53465">
        <ele>729</ele>
        <time>2019-11-08T01:40:19Z</time>
      </trkpt>
      <trkpt lat="43.55507" lon="2.53491">
        <ele>728</ele>
        <time>2019-11-08T01:40:55Z</time>
      </trkpt>
      <trkpt lat="43.55493" lon="2.53504">
        <ele>729</ele>
        <time>2019-11-08T01:41:08Z</time>
      </trkpt>
      <trkpt lat="43.5547" lon="2.53534">
        <ele>732</ele>
        <time>2019-11-08T01:41:34Z</time>
      </trkpt>
      <trkpt lat="43.55429" lon="2.53598">
        <ele>734</ele>
        <time>2019-11-08T01:42:23Z</time>
      </trkpt>
      <trkpt lat="43.55415" lon="2.53624">
        <ele>733</ele>
        <time>2019-11-08T01:42:42Z</time>
      </trkpt>
      <trkpt lat="43.55429" lon="2.53682">
        <ele>734</ele>
        <time>2019-11-08T01:43:18Z</time>
      </trkpt>
      <trkpt lat="43.55441" lon="2.53713">
        <ele>734</ele>
        <time>2019-11-08T01:43:38Z</time>
      </trkpt>
      <trkpt lat="43.55458" lon="2.53735">
        <ele>737</ele>
        <time>2019-11-08T01:43:57Z</time>
      </trkpt>
      <trkpt lat="43.55468" lon="2.53742">
        <ele>739</ele>
        <time>2019-11-08T01:44:06Z</time>
      </trkpt>
      <trkpt lat="43.55478" lon="2.53746">
        <ele>741</ele>
        <time>2019-11-08T01:44:14Z</time>
      </trkpt>
      <trkpt lat="43.55507" lon="2.5375">
        <ele>746</ele>
        <time>2019-11-08T01:44:37Z</time>
      </trkpt>
      <trkpt lat="43.55528" lon="2.53758">
        <ele>747</ele>
        <time>2019-11-08T01:44:55Z</time>
      </trkpt>
      <trkpt lat="43.55603" lon="2.53768">
        <ele>753</ele>
        <time>2019-11-08T01:45:55Z</time>
      </trkpt>
      <trkpt lat="43.55617" lon="2.53765">
        <ele>755</ele>
        <time>2019-11-08T01:46:06Z</time>
      </trkpt>
      <trkpt lat="43.55651" lon="2.53736">
        <ele>758</ele>
        <time>2019-11-08T01:46:38Z</time>
      </trkpt>
      <trkpt lat="43.55672" lon="2.53726">
        <ele>759</ele>
        <time>2019-11-08T01:46:56Z</time>
      </trkpt>
      <trkpt lat="43.55681" lon="2.53727">
        <ele>759</ele>
        <time>2019-11-08T01:47:03Z</time>
      </trkpt>
      <trkpt lat="43.55697" lon="2.53737">
        <ele>759</ele>
        <time>2019-11-08T01:47:17Z</time>
      </trkpt>
      <trkpt lat="43.55708" lon="2.53757">
        <ele>760</ele>
        <time>2019-11-08T01:47:32Z</time>
      </trkpt>
      <trkpt lat="43.55716" lon="2.53765">
        <ele>760</ele>
        <time>2019-11-08T01:47:40Z</time>
      </trkpt>
      <trkpt lat="43.55736" lon="2.53778">
        <ele>761</ele>
        <time>2019-11-08T01:47:58Z</time>
      </trkpt>
      <trkpt lat="43.55745" lon="2.53787">
        <ele>762</ele>
        <time>2019-11-08T01:48:07Z</time>
      </trkpt>
      <trkpt lat="43.55776" lon="2.5384">
        <ele>763</ele>
        <time>2019-11-08T01:48:46Z</time>
      </trkpt>
      <trkpt lat="43.55793" lon="2.53859">
        <ele>763</ele>
        <time>2019-11-08T01:49:04Z</time>
      </trkpt>
      <trkpt lat="43.5582" lon="2.53876">
        <ele>762</ele>
        <time>2019-11-08T01:49:27Z</time>
      </trkpt>
      <trkpt lat="43.55837" lon="2.53882">
        <ele>761</ele>
        <time>2019-11-08T01:49:41Z</time>
      </trkpt>
      <trkpt lat="43.55875" lon="2.53884">
        <ele>758</ele>
        <time>2019-11-08T01:50:12Z</time>
      </trkpt>
      <trkpt lat="43.55884" lon="2.53889">
        <ele>758</ele>
        <time>2019-11-08T01:50:20Z</time>
      </trkpt>
      <trkpt lat="43.55895" lon="2.53905">
        <ele>758</ele>
        <time>2019-11-08T01:50:32Z</time>
      </trkpt>
      <trkpt lat="43.55902" lon="2.5393">
        <ele>758</ele>
        <time>2019-11-08T01:50:48Z</time>
      </trkpt>
      <trkpt lat="43.55911" lon="2.53985">
        <ele>757</ele>
        <time>2019-11-08T01:51:21Z</time>
      </trkpt>
      <trkpt lat="43.55929" lon="2.54022">
        <ele>758</ele>
        <time>2019-11-08T01:51:46Z</time>
      </trkpt>
      <trkpt lat="43.55939" lon="2.54051">
        <ele>760</ele>
        <time>2019-11-08T01:52:05Z</time>
      </trkpt>
      <trkpt lat="43.55961" lon="2.5414">
        <ele>761</ele>
        <time>2019-11-08T01:53:00Z</time>
      </trkpt>
      <trkpt lat="43.55964" lon="2.54144">
        <ele>761</ele>
        <time>2019-11-08T01:53:03Z</time>
      </trkpt>
      <trkpt lat="43.5597" lon="2.5415">
        <ele>762</ele>
        <time>2019-11-08T01:53:09Z</time>
      </trkpt>
      <trkpt lat="43.55978" lon="2.54152">
        <ele>762</ele>
        <time>2019-11-08T01:53:15Z</time>
      </trkpt>
      <trkpt lat="43.55996" lon="2.54151">
        <ele>763</ele>
        <time>2019-11-08T01:53:30Z</time>
      </trkpt>
      <trkpt lat="43.55999" lon="2.54154">
        <ele>763</ele>
        <time>2019-11-08T01:53:33Z</time>
      </trkpt>
      <trkpt lat="43.56008" lon="2.54151">
        <ele>764</ele>
        <time>2019-11-08T01:53:40Z</time>
      </trkpt>
      <trkpt lat="43.56026" lon="2.5416">
        <ele>765</ele>
        <time>2019-11-08T01:53:56Z</time>
      </trkpt>
      <trkpt lat="43.56073" lon="2.54217">
        <ele>765</ele>
        <time>2019-11-08T01:54:46Z</time>
      </trkpt>
      <trkpt lat="43.56088" lon="2.54255">
        <ele>762</ele>
        <time>2019-11-08T01:55:11Z</time>
      </trkpt>
      <trkpt lat="43.56099" lon="2.54263">
        <ele>762</ele>
        <time>2019-11-08T01:55:21Z</time>
      </trkpt>
      <trkpt lat="43.56116" lon="2.54269">
        <ele>763</ele>
        <time>2019-11-08T01:55:35Z</time>
      </trkpt>
      <trkpt lat="43.5615" lon="2.54275">
        <ele>764</ele>
        <time>2019-11-08T01:56:02Z</time>
      </trkpt>
      <trkpt lat="43.56215" lon="2.54299">
        <ele>767</ele>
        <time>2019-11-08T01:56:56Z</time>
      </trkpt>
      <trkpt lat="43.56225" lon="2.54298">
        <ele>768</ele>
        <time>2019-11-08T01:57:04Z</time>
      </trkpt>
      <trkpt lat="43.56215" lon="2.54318">
        <ele>767</ele>
        <time>2019-11-08T01:57:18Z</time>
      </trkpt>
      <trkpt lat="43.56207" lon="2.54344">
        <ele>767</ele>
        <time>2019-11-08T01:57:35Z</time>
      </trkpt>
      <trkpt lat="43.56179" lon="2.54463">
        <ele>770</ele>
        <time>2019-11-08T01:58:47Z</time>
      </trkpt>
      <trkpt lat="43.56173" lon="2.54497">
        <ele>771</ele>
        <time>2019-11-08T01:59:08Z</time>
      </trkpt>
      <trkpt lat="43.56174" lon="2.54578">
        <ele>774</ele>
        <time>2019-11-08T01:59:55Z</time>
      </trkpt>
      <trkpt lat="43.56151" lon="2.54801">
        <ele>759</ele>
        <time>2019-11-08T02:02:05Z</time>
      </trkpt>
      <trkpt lat="43.56138" lon="2.54899">
        <ele>754</ele>
        <time>2019-11-08T02:03:03Z</time>
      </trkpt>
      <trkpt lat="43.5614" lon="2.5495">
        <ele>750</ele>
        <time>2019-11-08T02:03:33Z</time>
      </trkpt>
      <trkpt lat="43.56138" lon="2.54963">
        <ele>748</ele>
        <time>2019-11-08T02:03:40Z</time>
      </trkpt>
      <trkpt lat="43.56132" lon="2.54976">
        <ele>746</ele>
        <time>2019-11-08T02:03:49Z</time>
      </trkpt>
      <trkpt lat="43.56147" lon="2.55002">
        <ele>745</ele>
        <time>2019-11-08T02:04:09Z</time>
      </trkpt>
      <trkpt lat="43.5615" lon="2.55038">
        <ele>740</ele>
        <time>2019-11-08T02:04:30Z</time>
      </trkpt>
      <trkpt lat="43.56212" lon="2.55178">
        <ele>728</ele>
        <time>2019-11-08T02:06:05Z</time>
      </trkpt>
      <trkpt lat="43.56232" lon="2.55268">
        <ele>725</ele>
        <time>2019-11-08T02:06:59Z</time>
      </trkpt>
      <trkpt lat="43.56237" lon="2.55345">
        <ele>725</ele>
        <time>2019-11-08T02:07:44Z</time>
      </trkpt>
      <trkpt lat="43.56233" lon="2.55378">
        <ele>724</ele>
        <time>2019-11-08T02:08:04Z</time>
      </trkpt>
      <trkpt lat="43.56235" lon="2.55389">
        <ele>724</ele>
        <time>2019-11-08T02:08:10Z</time>
      </trkpt>
      <trkpt lat="43.56257" lon="2.55432">
        <ele>726</ele>
        <time>2019-11-08T02:08:41Z</time>
      </trkpt>
      <trkpt lat="43.56285" lon="2.55512">
        <ele>731</ele>
        <time>2019-11-08T02:09:32Z</time>
      </trkpt>
      <trkpt lat="43.56304" lon="2.55544">
        <ele>732</ele>
        <time>2019-11-08T02:09:56Z</time>
      </trkpt>
      <trkpt lat="43.56317" lon="2.55575">
        <ele>731</ele>
        <time>2019-11-08T02:10:17Z</time>
      </trkpt>
      <trkpt lat="43.56319" lon="2.55664">
        <ele>730</ele>
        <time>2019-11-08T02:11:09Z</time>
      </trkpt>
      <trkpt lat="43.56301" lon="2.5576">
        <ele>737</ele>
        <time>2019-11-08T02:12:06Z</time>
      </trkpt>
      <trkpt lat="43.56302" lon="2.55773">
        <ele>738</ele>
        <time>2019-11-08T02:12:14Z</time>
      </trkpt>
      <trkpt lat="43.56325" lon="2.558">
        <ele>741</ele>
        <time>2019-11-08T02:12:38Z</time>
      </trkpt>
      <trkpt lat="43.56335" lon="2.55808">
        <ele>743</ele>
        <time>2019-11-08T02:12:47Z</time>
      </trkpt>
      <trkpt lat="43.56365" lon="2.55813">
        <ele>745</ele>
        <time>2019-11-08T02:13:12Z</time>
      </trkpt>
      <trkpt lat="43.56375" lon="2.55818">
        <ele>747</ele>
        <time>2019-11-08T02:13:20Z</time>
      </trkpt>
      <trkpt lat="43.56352" lon="2.55863">
        <ele>748</ele>
        <time>2019-11-08T02:13:52Z</time>
      </trkpt>
      <trkpt lat="43.56339" lon="2.55902">
        <ele>750</ele>
        <time>2019-11-08T02:14:17Z</time>
      </trkpt>
      <trkpt lat="43.56341" lon="2.55962">
        <ele>753</ele>
        <time>2019-11-08T02:14:52Z</time>
      </trkpt>
      <trkpt lat="43.56347" lon="2.56039">
        <ele>757</ele>
        <time>2019-11-08T02:15:37Z</time>
      </trkpt>
      <trkpt lat="43.56345" lon="2.5606">
        <ele>757</ele>
        <time>2019-11-08T02:15:49Z</time>
      </trkpt>
      <trkpt lat="43.56332" lon="2.56127">
        <ele>758</ele>
        <time>2019-11-08T02:16:29Z</time>
      </trkpt>
      <trkpt lat="43.5633" lon="2.56164">
        <ele>759</ele>
        <time>2019-11-08T02:16:51Z</time>
      </trkpt>
      <trkpt lat="43.56333" lon="2.56197">
        <ele>759</ele>
        <time>2019-11-08T02:17:10Z</time>
      </trkpt>
      <trkpt lat="43.56348" lon="2.56241">
        <ele>761</ele>
        <time>2019-11-08T02:17:38Z</time>
      </trkpt>
      <trkpt lat="43.56333" lon="2.56239">
        <ele>759</ele>
        <time>2019-11-08T02:17:50Z</time>
      </trkpt>
      <trkpt lat="43.56326" lon="2.56234">
        <ele>758</ele>
        <time>2019-11-08T02:17:57Z</time>
      </trkpt>
      <trkpt lat="43.56317" lon="2.56216">
        <ele>757</ele>
        <time>2019-11-08T02:18:09Z</time>
      </trkpt>
      <trkpt lat="43.563" lon="2.56158">
        <ele>757</ele>
        <time>2019-11-08T02:18:46Z</time>
      </trkpt>
      <trkpt lat="43.56288" lon="2.5614">
        <ele>756</ele>
        <time>2019-11-08T02:19:00Z</time>
      </trkpt>
      <trkpt lat="43.56267" lon="2.56154">
        <ele>755</ele>
        <time>2019-11-08T02:19:19Z</time>
      </trkpt>
      <trkpt lat="43.56208" lon="2.56184">
        <ele>754</ele>
        <time>2019-11-08T02:20:09Z</time>
      </trkpt>
      <trkpt lat="43.56181" lon="2.56207">
        <ele>752</ele>
        <time>2019-11-08T02:20:34Z</time>
      </trkpt>
      <trkpt lat="43.5617" lon="2.56232">
        <ele>750</ele>
        <time>2019-11-08T02:20:51Z</time>
      </trkpt>
      <trkpt lat="43.56173" lon="2.56298">
        <ele>747</ele>
        <time>2019-11-08T02:21:30Z</time>
      </trkpt>
      <trkpt lat="43.5617" lon="2.56315">
        <ele>747</ele>
        <time>2019-11-08T02:21:40Z</time>
      </trkpt>
      <trkpt lat="43.5616" lon="2.56343">
        <ele>747</ele>
        <time>2019-11-08T02:21:58Z</time>
      </trkpt>
      <trkpt lat="43.56154" lon="2.5635">
        <ele>748</ele>
        <time>2019-11-08T02:22:04Z</time>
      </trkpt>
      <trkpt lat="43.56104" lon="2.56385">
        <ele>749</ele>
        <time>2019-11-08T02:22:49Z</time>
      </trkpt>
      <trkpt lat="43.56073" lon="2.564">
        <ele>750</ele>
        <time>2019-11-08T02:23:15Z</time>
      </trkpt>
      <trkpt lat="43.55976" lon="2.56424">
        <ele>750</ele>
        <time>2019-11-08T02:24:34Z</time>
      </trkpt>
      <trkpt lat="43.5594" lon="2.56446">
        <ele>751</ele>
        <time>2019-11-08T02:25:06Z</time>
      </trkpt>
      <trkpt lat="43.55815" lon="2.56508">
        <ele>751</ele>
        <time>2019-11-08T02:26:52Z</time>
      </trkpt>
      <trkpt lat="43.55752" lon="2.56568">
        <ele>746</ele>
        <time>2019-11-08T02:27:53Z</time>
      </trkpt>
      <trkpt lat="43.55703" lon="2.56552">
        <ele>741</ele>
        <time>2019-11-08T02:28:34Z</time>
      </trkpt>
      <trkpt lat="43.55668" lon="2.5655">
        <ele>737</ele>
        <time>2019-11-08T02:29:02Z</time>
      </trkpt>
      <trkpt lat="43.55657" lon="2.56554">
        <ele>736</ele>
        <time>2019-11-08T02:29:11Z</time>
      </trkpt>
      <trkpt lat="43.5561" lon="2.56588">
        <ele>729</ele>
        <time>2019-11-08T02:29:53Z</time>
      </trkpt>
      <trkpt lat="43.55606" lon="2.56594">
        <ele>729</ele>
        <time>2019-11-08T02:29:58Z</time>
      </trkpt>
      <trkpt lat="43.55596" lon="2.56626">
        <ele>729</ele>
        <time>2019-11-08T02:30:18Z</time>
      </trkpt>
      <trkpt lat="43.55592" lon="2.5667">
        <ele>730</ele>
        <time>2019-11-08T02:30:44Z</time>
      </trkpt>
      <trkpt lat="43.55593" lon="2.56687">
        <ele>732</ele>
        <time>2019-11-08T02:30:54Z</time>
      </trkpt>
      <trkpt lat="43.55585" lon="2.56732">
        <ele>738</ele>
        <time>2019-11-08T02:31:21Z</time>
      </trkpt>
      <trkpt lat="43.55559" lon="2.56731">
        <ele>741</ele>
        <time>2019-11-08T02:31:42Z</time>
      </trkpt>
      <trkpt lat="43.55539" lon="2.5672">
        <ele>742</ele>
        <time>2019-11-08T02:31:59Z</time>
      </trkpt>
      <trkpt lat="43.55511" lon="2.56709">
        <ele>745</ele>
        <time>2019-11-08T02:32:22Z</time>
      </trkpt>
      <trkpt lat="43.55501" lon="2.56708">
        <ele>746</ele>
        <time>2019-11-08T02:32:30Z</time>
      </trkpt>
      <trkpt lat="43.55478" lon="2.56715">
        <ele>751</ele>
        <time>2019-11-08T02:32:49Z</time>
      </trkpt>
      <trkpt lat="43.55467" lon="2.56721">
        <ele>753</ele>
        <time>2019-11-08T02:32:59Z</time>
      </trkpt>
      <trkpt lat="43.55447" lon="2.56724">
        <ele>757</ele>
        <time>2019-11-08T02:33:15Z</time>
      </trkpt>
      <trkpt lat="43.55429" lon="2.56716">
        <ele>760</ele>
        <time>2019-11-08T02:33:30Z</time>
      </trkpt>
      <trkpt lat="43.55387" lon="2.5669">
        <ele>764</ele>
        <time>2019-11-08T02:34:07Z</time>
      </trkpt>
      <trkpt lat="43.55372" lon="2.56698">
        <ele>766</ele>
        <time>2019-11-08T02:34:20Z</time>
      </trkpt>
      <trkpt lat="43.55273" lon="2.56636">
        <ele>764</ele>
        <time>2019-11-08T02:35:47Z</time>
      </trkpt>
      <trkpt lat="43.55215" lon="2.56625">
        <ele>758</ele>
        <time>2019-11-08T02:36:33Z</time>
      </trkpt>
      <trkpt lat="43.55074" lon="2.56659">
        <ele>752</ele>
        <time>2019-11-08T02:38:28Z</time>
      </trkpt>
      <trkpt lat="43.5494" lon="2.56723">
        <ele>757</ele>
        <time>2019-11-08T02:40:22Z</time>
      </trkpt>
      <trkpt lat="43.54855" lon="2.5677">
        <ele>753</ele>
        <time>2019-11-08T02:41:35Z</time>
      </trkpt>
      <trkpt lat="43.54666" lon="2.56902">
        <ele>723</ele>
        <time>2019-11-08T02:44:25Z</time>
      </trkpt>
      <trkpt lat="43.54616" lon="2.56916">
        <ele>720</ele>
        <time>2019-11-08T02:45:05Z</time>
      </trkpt>
      <trkpt lat="43.54583" lon="2.56934">
        <ele>719</ele>
        <time>2019-11-08T02:45:34Z</time>
      </trkpt>
      <trkpt lat="43.5457" lon="2.56915">
        <ele>719</ele>
        <time>2019-11-08T02:45:49Z</time>
      </trkpt>
      <trkpt lat="43.54557" lon="2.56914">
        <ele>720</ele>
        <time>2019-11-08T02:45:59Z</time>
      </trkpt>
      <trkpt lat="43.54559" lon="2.56933">
        <ele>719</ele>
        <time>2019-11-08T02:46:11Z</time>
      </trkpt>
      <trkpt lat="43.54573" lon="2.5696">
        <ele>719</ele>
        <time>2019-11-08T02:46:30Z</time>
      </trkpt>
      <trkpt lat="43.5457" lon="2.5698">
        <ele>718</ele>
        <time>2019-11-08T02:46:42Z</time>
      </trkpt>
      <trkpt lat="43.54563" lon="2.56984">
        <ele>718</ele>
        <time>2019-11-08T02:46:48Z</time>
      </trkpt>
      <trkpt lat="43.5456" lon="2.56985">
        <ele>719</ele>
        <time>2019-11-08T02:46:50Z</time>
      </trkpt>
      <trkpt lat="43.5452" lon="2.56964">
        <ele>720</ele>
        <time>2019-11-08T02:47:24Z</time>
      </trkpt>
      <trkpt lat="43.54503" lon="2.5696">
        <ele>720</ele>
        <time>2019-11-08T02:47:38Z</time>
      </trkpt>
      <trkpt lat="43.54442" lon="2.56972">
        <ele>721</ele>
        <time>2019-11-08T02:48:28Z</time>
      </trkpt>
      <trkpt lat="43.54418" lon="2.56983">
        <ele>723</ele>
        <time>2019-11-08T02:48:48Z</time>
      </trkpt>
      <trkpt lat="43.54403" lon="2.56982">
        <ele>724</ele>
        <time>2019-11-08T02:49:00Z</time>
      </trkpt>
      <trkpt lat="43.54382" lon="2.56989">
        <ele>727</ele>
        <time>2019-11-08T02:49:17Z</time>
      </trkpt>
      <trkpt lat="43.54354" lon="2.5699">
        <ele>730</ele>
        <time>2019-11-08T02:49:40Z</time>
      </trkpt>
      <trkpt lat="43.54325" lon="2.56986">
        <ele>731</ele>
        <time>2019-11-08T02:50:03Z</time>
      </trkpt>
      <trkpt lat="43.54307" lon="2.57003">
        <ele>733</ele>
        <time>2019-11-08T02:50:20Z</time>
      </trkpt>
      <trkpt lat="43.54257" lon="2.57093">
        <ele>736</ele>
        <time>2019-11-08T02:51:26Z</time>
      </trkpt>
      <trkpt lat="43.54182" lon="2.5718">
        <ele>727</ele>
        <time>2019-11-08T02:52:45Z</time>
      </trkpt>
      <trkpt lat="43.5412" lon="2.57214">
        <ele>717</ele>
        <time>2019-11-08T02:53:38Z</time>
      </trkpt>
      <trkpt lat="43.54091" lon="2.57236">
        <ele>713</ele>
        <time>2019-11-08T02:54:05Z</time>
      </trkpt>
      <trkpt lat="43.54058" lon="2.57243">
        <ele>708</ele>
        <time>2019-11-08T02:54:31Z</time>
      </trkpt>
      <trkpt lat="43.54007" lon="2.57233">
        <ele>700</ele>
        <time>2019-11-08T02:55:13Z</time>
      </trkpt>
      <trkpt lat="43.54007" lon="2.57224">
        <ele>699</ele>
        <time>2019-11-08T02:55:18Z</time>
      </trkpt>
      <trkpt lat="43.54018" lon="2.57193">
        <ele>698</ele>
        <time>2019-11-08T02:55:38Z</time>
      </trkpt>
      <trkpt lat="43.54076" lon="2.57127">
        <ele>702</ele>
        <time>2019-11-08T02:56:38Z</time>
      </trkpt>
      <trkpt lat="43.54111" lon="2.57061">
        <ele>701</ele>
        <time>2019-11-08T02:57:26Z</time>
      </trkpt>
      <trkpt lat="43.54131" lon="2.57011">
        <ele>699</ele>
        <time>2019-11-08T02:57:59Z</time>
      </trkpt>
      <trkpt lat="43.54149" lon="2.56951">
        <ele>699</ele>
        <time>2019-11-08T02:58:36Z</time>
      </trkpt>
      <trkpt lat="43.54156" lon="2.56926">
        <ele>698</ele>
        <time>2019-11-08T02:58:52Z</time>
      </trkpt>
      <trkpt lat="43.54158" lon="2.56902">
        <ele>696</ele>
        <time>2019-11-08T02:59:06Z</time>
      </trkpt>
      <trkpt lat="43.5416" lon="2.56775">
        <ele>687</ele>
        <time>2019-11-08T03:00:20Z</time>
      </trkpt>
      <trkpt lat="43.54155" lon="2.56743">
        <ele>686</ele>
        <time>2019-11-08T03:00:39Z</time>
      </trkpt>
      <trkpt lat="43.54157" lon="2.56696">
        <ele>687</ele>
        <time>2019-11-08T03:01:06Z</time>
      </trkpt>
      <trkpt lat="43.54205" lon="2.56553">
        <ele>694</ele>
        <time>2019-11-08T03:02:37Z</time>
      </trkpt>
      <trkpt lat="43.542" lon="2.56551">
        <ele>692</ele>
        <time>2019-11-08T03:02:42Z</time>
      </trkpt>
      <trkpt lat="43.54202" lon="2.56537">
        <ele>692</ele>
        <time>2019-11-08T03:02:50Z</time>
      </trkpt>
      <trkpt lat="43.54189" lon="2.5654">
        <ele>689</ele>
        <time>2019-11-08T03:03:00Z</time>
      </trkpt>
      <trkpt lat="43.54171" lon="2.56537">
        <ele>685</ele>
        <time>2019-11-08T03:03:15Z</time>
      </trkpt>
      <trkpt lat="43.54134" lon="2.56522">
        <ele>694</ele>
        <time>2019-11-08T03:03:46Z</time>
      </trkpt>
      <trkpt lat="43.54129" lon="2.56502">
        <ele>696</ele>
        <time>2019-11-08T03:03:58Z</time>
      </trkpt>
      <trkpt lat="43.54134" lon="2.56445">
        <ele>696</ele>
        <time>2019-11-08T03:04:31Z</time>
      </trkpt>
      <trkpt lat="43.54139" lon="2.56334">
        <ele>698</ele>
        <time>2019-11-08T03:05:36Z</time>
      </trkpt>
      <trkpt lat="43.54134" lon="2.56165">
        <ele>701</ele>
        <time>2019-11-08T03:07:14Z</time>
      </trkpt>
      <trkpt lat="43.54138" lon="2.5598">
        <ele>705</ele>
        <time>2019-11-08T03:09:02Z</time>
      </trkpt>
      <trkpt lat="43.54131" lon="2.55949">
        <ele>707</ele>
        <time>2019-11-08T03:09:20Z</time>
      </trkpt>
      <trkpt lat="43.54106" lon="2.55893">
        <ele>713</ele>
        <time>2019-11-08T03:09:59Z</time>
      </trkpt>
      <trkpt lat="43.54098" lon="2.55859">
        <ele>714</ele>
        <time>2019-11-08T03:10:19Z</time>
      </trkpt>
      <trkpt lat="43.541" lon="2.55835">
        <ele>713</ele>
        <time>2019-11-08T03:10:33Z</time>
      </trkpt>
      <trkpt lat="43.54121" lon="2.558">
        <ele>713</ele>
        <time>2019-11-08T03:11:00Z</time>
      </trkpt>
      <trkpt lat="43.54097" lon="2.55797">
        <ele>717</ele>
        <time>2019-11-08T03:11:19Z</time>
      </trkpt>
      <trkpt lat="43.54086" lon="2.55806">
        <ele>718</ele>
        <time>2019-11-08T03:11:29Z</time>
      </trkpt>
      <trkpt lat="43.54082" lon="2.55815">
        <ele>718</ele>
        <time>2019-11-08T03:11:35Z</time>
      </trkpt>
      <trkpt lat="43.54079" lon="2.5583">
        <ele>718</ele>
        <time>2019-11-08T03:11:44Z</time>
      </trkpt>
      <trkpt lat="43.54078" lon="2.55857">
        <ele>719</ele>
        <time>2019-11-08T03:12:00Z</time>
      </trkpt>
      <trkpt lat="43.54078" lon="2.55878">
        <ele>720</ele>
        <time>2019-11-08T03:12:12Z</time>
      </trkpt>
      <trkpt lat="43.54089" lon="2.55934">
        <ele>718</ele>
        <time>2019-11-08T03:12:46Z</time>
      </trkpt>
      <trkpt lat="43.54093" lon="2.55967">
        <ele>719</ele>
        <time>2019-11-08T03:13:05Z</time>
      </trkpt>
      <trkpt lat="43.54092" lon="2.55983">
        <ele>720</ele>
        <time>2019-11-08T03:13:15Z</time>
      </trkpt>
      <trkpt lat="43.5409" lon="2.55993">
        <ele>721</ele>
        <time>2019-11-08T03:13:21Z</time>
      </trkpt>
      <trkpt lat="43.54056" lon="2.56077">
        <ele>734</ele>
        <time>2019-11-08T03:14:17Z</time>
      </trkpt>
      <trkpt lat="43.54051" lon="2.56099">
        <ele>735</ele>
        <time>2019-11-08T03:14:30Z</time>
      </trkpt>
      <trkpt lat="43.54039" lon="2.56123">
        <ele>737</ele>
        <time>2019-11-08T03:14:47Z</time>
      </trkpt>
      <trkpt lat="43.54034" lon="2.5613">
        <ele>738</ele>
        <time>2019-11-08T03:14:53Z</time>
      </trkpt>
      <trkpt lat="43.54018" lon="2.56142">
        <ele>743</ele>
        <time>2019-11-08T03:15:07Z</time>
      </trkpt>
      <trkpt lat="43.54003" lon="2.56146">
        <ele>747</ele>
        <time>2019-11-08T03:15:19Z</time>
      </trkpt>
      <trkpt lat="43.53977" lon="2.5619">
        <ele>752</ele>
        <time>2019-11-08T03:15:52Z</time>
      </trkpt>
      <trkpt lat="43.53931" lon="2.5624">
        <ele>759</ele>
        <time>2019-11-08T03:16:39Z</time>
      </trkpt>
      <trkpt lat="43.5388" lon="2.56283">
        <ele>764</ele>
        <time>2019-11-08T03:17:27Z</time>
      </trkpt>
      <trkpt lat="43.53839" lon="2.56331">
        <ele>761</ele>
        <time>2019-11-08T03:18:10Z</time>
      </trkpt>
      <trkpt lat="43.53823" lon="2.56343">
        <ele>762</ele>
        <time>2019-11-08T03:18:25Z</time>
      </trkpt>
      <trkpt lat="43.53758" lon="2.56412">
        <ele>762</ele>
        <time>2019-11-08T03:19:30Z</time>
      </trkpt>
      <trkpt lat="43.53723" lon="2.56433">
        <ele>762</ele>
        <time>2019-11-08T03:20:01Z</time>
      </trkpt>
      <trkpt lat="43.537" lon="2.56429">
        <ele>764</ele>
        <time>2019-11-08T03:20:20Z</time>
      </trkpt>
      <trkpt lat="43.53681" lon="2.56417">
        <ele>767</ele>
        <time>2019-11-08T03:20:36Z</time>
      </trkpt>
      <trkpt lat="43.53629" lon="2.56364">
        <ele>773</ele>
        <time>2019-11-08T03:21:28Z</time>
      </trkpt>
      <trkpt lat="43.53578" lon="2.56325">
        <ele>769</ele>
        <time>2019-11-08T03:22:15Z</time>
      </trkpt>
      <trkpt lat="43.53563" lon="2.56319">
        <ele>771</ele>
        <time>2019-11-08T03:22:27Z</time>
      </trkpt>
      <trkpt lat="43.53559" lon="2.56337">
        <ele>772</ele>
        <time>2019-11-08T03:22:38Z</time>
      </trkpt>
      <trkpt lat="43.53559" lon="2.5636">
        <ele>773</ele>
        <time>2019-11-08T03:22:51Z</time>
      </trkpt>
      <trkpt lat="43.53564" lon="2.56404">
        <ele>774</ele>
        <time>2019-11-08T03:23:17Z</time>
      </trkpt>
      <trkpt lat="43.53563" lon="2.56438">
        <ele>775</ele>
        <time>2019-11-08T03:23:37Z</time>
      </trkpt>
      <trkpt lat="43.53547" lon="2.56472">
        <ele>778</ele>
        <time>2019-11-08T03:24:01Z</time>
      </trkpt>
      <trkpt lat="43.5352" lon="2.56502">
        <ele>783</ele>
        <time>2019-11-08T03:24:28Z</time>
      </trkpt>
      <trkpt lat="43.5345" lon="2.56547">
        <ele>794</ele>
        <time>2019-11-08T03:25:30Z</time>
      </trkpt>
      <trkpt lat="43.53428" lon="2.56556">
        <ele>798</ele>
        <time>2019-11-08T03:25:49Z</time>
      </trkpt>
      <trkpt lat="43.53314" lon="2.56639">
        <ele>812</ele>
        <time>2019-11-08T03:27:32Z</time>
      </trkpt>
      <trkpt lat="43.53244" lon="2.56685">
        <ele>814</ele>
        <time>2019-11-08T03:28:34Z</time>
      </trkpt>
      <trkpt lat="43.53239" lon="2.56691">
        <ele>814</ele>
        <time>2019-11-08T03:28:39Z</time>
      </trkpt>
      <trkpt lat="43.53198" lon="2.56713">
        <ele>814</ele>
        <time>2019-11-08T03:29:14Z</time>
      </trkpt>
      <trkpt lat="43.53151" lon="2.56729">
        <ele>814</ele>
        <time>2019-11-08T03:29:53Z</time>
      </trkpt>
      <trkpt lat="43.5309" lon="2.56721">
        <ele>814</ele>
        <time>2019-11-08T03:30:42Z</time>
      </trkpt>
      <trkpt lat="43.53056" lon="2.56721">
        <ele>814</ele>
        <time>2019-11-08T03:31:09Z</time>
      </trkpt>
      <trkpt lat="43.53032" lon="2.56718">
        <ele>814</ele>
        <time>2019-11-08T03:31:29Z</time>
      </trkpt>
      <trkpt lat="43.52991" lon="2.56719">
        <ele>814</ele>
        <time>2019-11-08T03:32:02Z</time>
      </trkpt>
      <trkpt lat="43.52983" lon="2.56724">
        <ele>814</ele>
        <time>2019-11-08T03:32:09Z</time>
      </trkpt>
      <trkpt lat="43.52979" lon="2.56736">
        <ele>814</ele>
        <time>2019-11-08T03:32:16Z</time>
      </trkpt>
      <trkpt lat="43.52979" lon="2.56754">
        <ele>812</ele>
        <time>2019-11-08T03:32:27Z</time>
      </trkpt>
      <trkpt lat="43.52991" lon="2.56797">
        <ele>811</ele>
        <time>2019-11-08T03:32:53Z</time>
      </trkpt>
      <trkpt lat="43.5299" lon="2.56823">
        <ele>811</ele>
        <time>2019-11-08T03:33:09Z</time>
      </trkpt>
      <trkpt lat="43.52968" lon="2.56878">
        <ele>811</ele>
        <time>2019-11-08T03:33:45Z</time>
      </trkpt>
      <trkpt lat="43.52947" lon="2.56912">
        <ele>811</ele>
        <time>2019-11-08T03:34:11Z</time>
      </trkpt>
      <trkpt lat="43.52899" lon="2.56975">
        <ele>808</ele>
        <time>2019-11-08T03:35:04Z</time>
      </trkpt>
      <trkpt lat="43.52823" lon="2.57063">
        <ele>810</ele>
        <time>2019-11-08T03:36:24Z</time>
      </trkpt>
      <trkpt lat="43.52806" lon="2.57077">
        <ele>812</ele>
        <time>2019-11-08T03:36:39Z</time>
      </trkpt>
      <trkpt lat="43.52787" lon="2.57078">
        <ele>815</ele>
        <time>2019-11-08T03:36:55Z</time>
      </trkpt>
      <trkpt lat="43.52748" lon="2.57073">
        <ele>820</ele>
        <time>2019-11-08T03:37:26Z</time>
      </trkpt>
      <trkpt lat="43.5271" lon="2.57058">
        <ele>823</ele>
        <time>2019-11-08T03:37:58Z</time>
      </trkpt>
      <trkpt lat="43.52654" lon="2.5704">
        <ele>827</ele>
        <time>2019-11-08T03:38:44Z</time>
      </trkpt>
      <trkpt lat="43.526" lon="2.57012">
        <ele>828</ele>
        <time>2019-11-08T03:39:30Z</time>
      </trkpt>
      <trkpt lat="43.52558" lon="2.56995">
        <ele>825</ele>
        <time>2019-11-08T03:40:05Z</time>
      </trkpt>
      <trkpt lat="43.52539" lon="2.57047">
        <ele>826</ele>
        <time>2019-11-08T03:40:39Z</time>
      </trkpt>
      <trkpt lat="43.52517" lon="2.57067">
        <ele>826</ele>
        <time>2019-11-08T03:41:00Z</time>
      </trkpt>
      <trkpt lat="43.525" lon="2.57075">
        <ele>825</ele>
        <time>2019-11-08T03:41:14Z</time>
      </trkpt>
      <trkpt lat="43.52443" lon="2.57089">
        <ele>820</ele>
        <time>2019-11-08T03:42:01Z</time>
      </trkpt>
      <trkpt lat="43.52357" lon="2.57084">
        <ele>815</ele>
        <time>2019-11-08T03:43:09Z</time>
      </trkpt>
      <trkpt lat="43.5234" lon="2.57087">
        <ele>815</ele>
        <time>2019-11-08T03:43:23Z</time>
      </trkpt>
      <trkpt lat="43.52311" lon="2.57096">
        <ele>813</ele>
        <time>2019-11-08T03:43:47Z</time>
      </trkpt>
      <trkpt lat="43.52268" lon="2.5712">
        <ele>811</ele>
        <time>2019-11-08T03:44:24Z</time>
      </trkpt>
      <trkpt lat="43.5224" lon="2.57144">
        <ele>810</ele>
        <time>2019-11-08T03:44:50Z</time>
      </trkpt>
      <trkpt lat="43.52224" lon="2.57163">
        <ele>808</ele>
        <time>2019-11-08T03:45:07Z</time>
      </trkpt>
      <trkpt lat="43.52212" lon="2.57184">
        <ele>807</ele>
        <time>2019-11-08T03:45:23Z</time>
      </trkpt>
      <trkpt lat="43.52179" lon="2.5729">
        <ele>803</ele>
        <time>2019-11-08T03:46:30Z</time>
      </trkpt>
      <trkpt lat="43.52162" lon="2.57318">
        <ele>802</ele>
        <time>2019-11-08T03:46:51Z</time>
      </trkpt>
      <trkpt lat="43.52144" lon="2.57343">
        <ele>803</ele>
        <time>2019-11-08T03:47:12Z</time>
      </trkpt>
      <trkpt lat="43.52116" lon="2.57363">
        <ele>803</ele>
        <time>2019-11-08T03:47:37Z</time>
      </trkpt>
      <trkpt lat="43.52058" lon="2.57322">
        <ele>801</ele>
        <time>2019-11-08T03:48:29Z</time>
      </trkpt>
      <trkpt lat="43.52009" lon="2.57301">
        <ele>798</ele>
        <time>2019-11-08T03:49:10Z</time>
      </trkpt>
      <trkpt lat="43.51993" lon="2.57291">
        <ele>797</ele>
        <time>2019-11-08T03:49:24Z</time>
      </trkpt>
      <trkpt lat="43.51959" lon="2.57239">
        <ele>793</ele>
        <time>2019-11-08T03:50:05Z</time>
      </trkpt>
      <trkpt lat="43.51958" lon="2.57325">
        <ele>800</ele>
        <time>2019-11-08T03:50:55Z</time>
      </trkpt>
      <trkpt lat="43.51948" lon="2.5735">
        <ele>803</ele>
        <time>2019-11-08T03:51:11Z</time>
      </trkpt>
      <trkpt lat="43.51898" lon="2.57433">
        <ele>811</ele>
        <time>2019-11-08T03:52:14Z</time>
      </trkpt>
      <trkpt lat="43.51874" lon="2.57445">
        <ele>810</ele>
        <time>2019-11-08T03:52:34Z</time>
      </trkpt>
      <trkpt lat="43.51866" lon="2.57441">
        <ele>810</ele>
        <time>2019-11-08T03:52:41Z</time>
      </trkpt>
      <trkpt lat="43.51823" lon="2.57391">
        <ele>810</ele>
        <time>2019-11-08T03:53:26Z</time>
      </trkpt>
      <trkpt lat="43.51787" lon="2.57355">
        <ele>808</ele>
        <time>2019-11-08T03:54:02Z</time>
      </trkpt>
      <trkpt lat="43.51729" lon="2.57327">
        <ele>806</ele>
        <time>2019-11-08T03:54:51Z</time>
      </trkpt>
      <trkpt lat="43.51695" lon="2.57304">
        <ele>805</ele>
        <time>2019-11-08T03:55:21Z</time>
      </trkpt>
      <trkpt lat="43.51671" lon="2.57294">
        <ele>804</ele>
        <time>2019-11-08T03:55:41Z</time>
      </trkpt>
      <trkpt lat="43.51635" lon="2.57286">
        <ele>803</ele>
        <time>2019-11-08T03:56:11Z</time>
      </trkpt>
      <trkpt lat="43.51601" lon="2.57296">
        <ele>803</ele>
        <time>2019-11-08T03:56:38Z</time>
      </trkpt>
      <trkpt lat="43.51595" lon="2.57301">
        <ele>804</ele>
        <time>2019-11-08T03:56:44Z</time>
      </trkpt>
      <trkpt lat="43.51585" lon="2.57285">
        <ele>802</ele>
        <time>2019-11-08T03:56:56Z</time>
      </trkpt>
      <trkpt lat="43.5155" lon="2.57248">
        <ele>796</ele>
        <time>2019-11-08T03:57:32Z</time>
      </trkpt>
      <trkpt lat="43.51479" lon="2.57161">
        <ele>796</ele>
        <time>2019-11-08T03:58:48Z</time>
      </trkpt>
      <trkpt lat="43.51468" lon="2.57144">
        <ele>796</ele>
        <time>2019-11-08T03:59:01Z</time>
      </trkpt>
      <trkpt lat="43.51439" lon="2.57122">
        <ele>795</ele>
        <time>2019-11-08T03:59:27Z</time>
      </trkpt>
      <trkpt lat="43.51424" lon="2.57114">
        <ele>795</ele>
        <time>2019-11-08T03:59:40Z</time>
      </trkpt>
      <trkpt lat="43.51392" lon="2.57103">
        <ele>798</ele>
        <time>2019-11-08T04:00:07Z</time>
      </trkpt>
      <trkpt lat="43.51382" lon="2.57103">
        <ele>798</ele>
        <time>2019-11-08T04:00:15Z</time>
      </trkpt>
      <trkpt lat="43.51355" lon="2.57109">
        <ele>800</ele>
        <time>2019-11-08T04:00:37Z</time>
      </trkpt>
      <trkpt lat="43.51345" lon="2.57108">
        <ele>801</ele>
        <time>2019-11-08T04:00:45Z</time>
      </trkpt>
      <trkpt lat="43.51342" lon="2.57102">
        <ele>801</ele>
        <time>2019-11-08T04:00:49Z</time>
      </trkpt>
      <trkpt lat="43.51333" lon="2.57099">
        <ele>802</ele>
        <time>2019-11-08T04:00:56Z</time>
      </trkpt>
      <trkpt lat="43.51311" lon="2.57103">
        <ele>799</ele>
        <time>2019-11-08T04:01:14Z</time>
      </trkpt>
      <trkpt lat="43.51291" lon="2.57103">
        <ele>796</ele>
        <time>2019-11-08T04:01:30Z</time>
      </trkpt>
      <trkpt lat="43.51281" lon="2.57097">
        <ele>795</ele>
        <time>2019-11-08T04:01:39Z</time>
      </trkpt>
      <trkpt lat="43.51191" lon="2.56964">
        <ele>786</ele>
        <time>2019-11-08T04:03:24Z</time>
      </trkpt>
      <trkpt lat="43.51173" lon="2.56943">
        <ele>782</ele>
        <time>2019-11-08T04:03:43Z</time>
      </trkpt>
      <trkpt lat="43.51132" lon="2.56907">
        <ele>777</ele>
        <time>2019-11-08T04:04:22Z</time>
      </trkpt>
      <trkpt lat="43.51111" lon="2.56898">
        <ele>776</ele>
        <time>2019-11-08T04:04:40Z</time>
      </trkpt>
      <trkpt lat="43.51083" lon="2.56854">
        <ele>777</ele>
        <time>2019-11-08T04:05:14Z</time>
      </trkpt>
      <trkpt lat="43.51077" lon="2.56849">
        <ele>778</ele>
        <time>2019-11-08T04:05:19Z</time>
      </trkpt>
      <trkpt lat="43.51033" lon="2.56852">
        <ele>775</ele>
        <time>2019-11-08T04:05:55Z</time>
      </trkpt>
      <trkpt lat="43.51019" lon="2.5685">
        <ele>775</ele>
        <time>2019-11-08T04:06:06Z</time>
      </trkpt>
      <trkpt lat="43.51007" lon="2.56845">
        <ele>776</ele>
        <time>2019-11-08T04:06:16Z</time>
      </trkpt>
      <trkpt lat="43.50997" lon="2.56839">
        <ele>776</ele>
        <time>2019-11-08T04:06:25Z</time>
      </trkpt>
      <trkpt lat="43.50975" lon="2.56818">
        <ele>773</ele>
        <time>2019-11-08T04:06:46Z</time>
      </trkpt>
      <trkpt lat="43.50943" lon="2.56782">
        <ele>769</ele>
        <time>2019-11-08T04:07:19Z</time>
      </trkpt>
      <trkpt lat="43.50938" lon="2.56774">
        <ele>769</ele>
        <time>2019-11-08T04:07:25Z</time>
      </trkpt>
      <trkpt lat="43.50931" lon="2.56742">
        <ele>769</ele>
        <time>2019-11-08T04:07:45Z</time>
      </trkpt>
      <trkpt lat="43.50919" lon="2.56705">
        <ele>767</ele>
        <time>2019-11-08T04:08:08Z</time>
      </trkpt>
      <trkpt lat="43.50913" lon="2.56675">
        <ele>767</ele>
        <time>2019-11-08T04:08:26Z</time>
      </trkpt>
      <trkpt lat="43.50879" lon="2.56572">
        <ele>766</ele>
        <time>2019-11-08T04:09:32Z</time>
      </trkpt>
      <trkpt lat="43.50868" lon="2.56558">
        <ele>768</ele>
        <time>2019-11-08T04:09:44Z</time>
      </trkpt>
      <trkpt lat="43.5084" lon="2.56542">
        <ele>771</ele>
        <time>2019-11-08T04:10:08Z</time>
      </trkpt>
      <trkpt lat="43.5083" lon="2.56532">
        <ele>772</ele>
        <time>2019-11-08T04:10:18Z</time>
      </trkpt>
      <trkpt lat="43.5082" lon="2.56528">
        <ele>773</ele>
        <time>2019-11-08T04:10:27Z</time>
      </trkpt>
      <trkpt lat="43.50812" lon="2.56521">
        <ele>774</ele>
        <time>2019-11-08T04:10:34Z</time>
      </trkpt>
      <trkpt lat="43.508" lon="2.56498">
        <ele>776</ele>
        <time>2019-11-08T04:10:51Z</time>
      </trkpt>
      <trkpt lat="43.50791" lon="2.5647">
        <ele>779</ele>
        <time>2019-11-08T04:11:08Z</time>
      </trkpt>
      <trkpt lat="43.50788" lon="2.56441">
        <ele>781</ele>
        <time>2019-11-08T04:11:25Z</time>
      </trkpt>
      <trkpt lat="43.50786" lon="2.56371">
        <ele>785</ele>
        <time>2019-11-08T04:12:06Z</time>
      </trkpt>
      <trkpt lat="43.50789" lon="2.5632">
        <ele>787</ele>
        <time>2019-11-08T04:12:36Z</time>
      </trkpt>
      <trkpt lat="43.50804" lon="2.56202">
        <ele>785</ele>
        <time>2019-11-08T04:13:45Z</time>
      </trkpt>
      <trkpt lat="43.50803" lon="2.56066">
        <ele>781</ele>
        <time>2019-11-08T04:15:04Z</time>
      </trkpt>
      <trkpt lat="43.50809" lon="2.55999">
        <ele>780</ele>
        <time>2019-11-08T04:15:44Z</time>
      </trkpt>
      <trkpt lat="43.50815" lon="2.55966">
        <ele>778</ele>
        <time>2019-11-08T04:16:03Z</time>
      </trkpt>
      <trkpt lat="43.50829" lon="2.55917">
        <ele>777</ele>
        <time>2019-11-08T04:16:34Z</time>
      </trkpt>
      <trkpt lat="43.50852" lon="2.55856">
        <ele>772</ele>
        <time>2019-11-08T04:17:14Z</time>
      </trkpt>
      <trkpt lat="43.50898" lon="2.55764">
        <ele>770</ele>
        <time>2019-11-08T04:18:19Z</time>
      </trkpt>
      <trkpt lat="43.50935" lon="2.5567">
        <ele>764</ele>
        <time>2019-11-08T04:19:21Z</time>
      </trkpt>
      <trkpt lat="43.50951" lon="2.55619">
        <ele>757</ele>
        <time>2019-11-08T04:19:53Z</time>
      </trkpt>
      <trkpt lat="43.50884" lon="2.55609">
        <ele>756</ele>
        <time>2019-11-08T04:20:47Z</time>
      </trkpt>
      <trkpt lat="43.50756" lon="2.55611">
        <ele>750</ele>
        <time>2019-11-08T04:22:30Z</time>
      </trkpt>
      <trkpt lat="43.50678" lon="2.55616">
        <ele>748</ele>
        <time>2019-11-08T04:23:32Z</time>
      </trkpt>
      <trkpt lat="43.50633" lon="2.55613">
        <ele>746</ele>
        <time>2019-11-08T04:24:08Z</time>
      </trkpt>
      <trkpt lat="43.50559" lon="2.55623">
        <ele>741</ele>
        <time>2019-11-08T04:25:08Z</time>
      </trkpt>
      <trkpt lat="43.50499" lon="2.55637">
        <ele>737</ele>
        <time>2019-11-08T04:25:56Z</time>
      </trkpt>
      <trkpt lat="43.50463" lon="2.55653">
        <ele>735</ele>
        <time>2019-11-08T04:26:27Z</time>
      </trkpt>
      <trkpt lat="43.504" lon="2.55699">
        <ele>733</ele>
        <time>2019-11-08T04:27:24Z</time>
      </trkpt>
      <trkpt lat="43.50379" lon="2.5571">
        <ele>732</ele>
        <time>2019-11-08T04:27:42Z</time>
      </trkpt>
      <trkpt lat="43.50343" lon="2.55724">
        <ele>729</ele>
        <time>2019-11-08T04:28:12Z</time>
      </trkpt>
      <trkpt lat="43.50332" lon="2.55724">
        <ele>728</ele>
        <time>2019-11-08T04:28:21Z</time>
      </trkpt>
      <trkpt lat="43.50307" lon="2.55715">
        <ele>727</ele>
        <time>2019-11-08T04:28:41Z</time>
      </trkpt>
      <trkpt lat="43.5029" lon="2.55704">
        <ele>726</ele>
        <time>2019-11-08T04:28:56Z</time>
      </trkpt>
      <trkpt lat="43.50189" lon="2.55661">
        <ele>718</ele>
        <time>2019-11-08T04:30:21Z</time>
      </trkpt>
      <trkpt lat="43.50163" lon="2.55708">
        <ele>715</ele>
        <time>2019-11-08T04:30:55Z</time>
      </trkpt>
      <trkpt lat="43.50111" lon="2.5579">
        <ele>713</ele>
        <time>2019-11-08T04:31:58Z</time>
      </trkpt>
      <trkpt lat="43.50082" lon="2.55847">
        <ele>715</ele>
        <time>2019-11-08T04:32:39Z</time>
      </trkpt>
      <trkpt lat="43.50068" lon="2.55891">
        <ele>715</ele>
        <time>2019-11-08T04:33:07Z</time>
      </trkpt>
      <trkpt lat="43.50041" lon="2.55942">
        <ele>711</ele>
        <time>2019-11-08T04:33:43Z</time>
      </trkpt>
      <trkpt lat="43.50025" lon="2.5596">
        <ele>709</ele>
        <time>2019-11-08T04:34:00Z</time>
      </trkpt>
      <trkpt lat="43.49981" lon="2.56001">
        <ele>705</ele>
        <time>2019-11-08T04:34:43Z</time>
      </trkpt>
      <trkpt lat="43.49939" lon="2.56049">
        <ele>698</ele>
        <time>2019-11-08T04:35:26Z</time>
      </trkpt>
      <trkpt lat="43.49896" lon="2.56111">
        <ele>689</ele>
        <time>2019-11-08T04:36:16Z</time>
      </trkpt>
      <trkpt lat="43.49819" lon="2.56243">
        <ele>668</ele>
        <time>2019-11-08T04:37:54Z</time>
      </trkpt>
      <trkpt lat="43.49771" lon="2.56314">
        <ele>655</ele>
        <time>2019-11-08T04:38:51Z</time>
      </trkpt>
      <trkpt lat="43.49757" lon="2.5633">
        <ele>653</ele>
        <time>2019-11-08T04:39:05Z</time>
      </trkpt>
      <trkpt lat="43.49748" lon="2.56349">
        <ele>649</ele>
        <time>2019-11-08T04:39:19Z</time>
      </trkpt>
      <trkpt lat="43.49756" lon="2.56357">
        <ele>649</ele>
        <time>2019-11-08T04:39:26Z</time>
      </trkpt>
      <trkpt lat="43.4979" lon="2.56378">
        <ele>650</ele>
        <time>2019-11-08T04:39:56Z</time>
      </trkpt>
      <trkpt lat="43.49805" lon="2.5639">
        <ele>652</ele>
        <time>2019-11-08T04:40:10Z</time>
      </trkpt>
      <trkpt lat="43.498" lon="2.56404">
        <ele>650</ele>
        <time>2019-11-08T04:40:19Z</time>
      </trkpt>
      <trkpt lat="43.49766" lon="2.56464">
        <ele>642</ele>
        <time>2019-11-08T04:41:03Z</time>
      </trkpt>
      <trkpt lat="43.49763" lon="2.56459">
        <ele>641</ele>
        <time>2019-11-08T04:41:07Z</time>
      </trkpt>
      <trkpt lat="43.49757" lon="2.5646">
        <ele>640</ele>
        <time>2019-11-08T04:41:12Z</time>
      </trkpt>
      <trkpt lat="43.49736" lon="2.56479">
        <ele>634</ele>
        <time>2019-11-08T04:41:32Z</time>
      </trkpt>
      <trkpt lat="43.49694" lon="2.56506">
        <ele>624</ele>
        <time>2019-11-08T04:42:09Z</time>
      </trkpt>
      <trkpt lat="43.49667" lon="2.56559">
        <ele>619</ele>
        <time>2019-11-08T04:42:47Z</time>
      </trkpt>
      <trkpt lat="43.49654" lon="2.5657">
        <ele>618</ele>
        <time>2019-11-08T04:42:59Z</time>
      </trkpt>
      <trkpt lat="43.49634" lon="2.56579">
        <ele>615</ele>
        <time>2019-11-08T04:43:16Z</time>
      </trkpt>
      <trkpt lat="43.49552" lon="2.56626">
        <ele>604</ele>
        <time>2019-11-08T04:44:27Z</time>
      </trkpt>
      <trkpt lat="43.49526" lon="2.56643">
        <ele>602</ele>
        <time>2019-11-08T04:44:50Z</time>
      </trkpt>
      <trkpt lat="43.49499" lon="2.56668">
        <ele>599</ele>
        <time>2019-11-08T04:45:16Z</time>
      </trkpt>
      <trkpt lat="43.49421" lon="2.56674">
        <ele>585</ele>
        <time>2019-11-08T04:46:19Z</time>
      </trkpt>
      <trkpt lat="43.49407" lon="2.56671">
        <ele>583</ele>
        <time>2019-11-08T04:46:30Z</time>
      </trkpt>
      <trkpt lat="43.49376" lon="2.56672">
        <ele>578</ele>
        <time>2019-11-08T04:46:55Z</time>
      </trkpt>
      <trkpt lat="43.49356" lon="2.56675">
        <ele>574</ele>
        <time>2019-11-08T04:47:11Z</time>
      </trkpt>
      <trkpt lat="43.49309" lon="2.56688">
        <ele>567</ele>
        <time>2019-11-08T04:47:49Z</time>
      </trkpt>
      <trkpt lat="43.49287" lon="2.56697">
        <ele>565</ele>
        <time>2019-11-08T04:48:08Z</time>
      </trkpt>
      <trkpt lat="43.49276" lon="2.56705">
        <ele>564</ele>
        <time>2019-11-08T04:48:18Z</time>
      </trkpt>
      <trkpt lat="43.49265" lon="2.56719">
        <ele>563</ele>
        <time>2019-11-08T04:48:30Z</time>
      </trkpt>
      <trkpt lat="43.49248" lon="2.56751">
        <ele>563</ele>
        <time>2019-11-08T04:48:53Z</time>
      </trkpt>
      <trkpt lat="43.49232" lon="2.56802">
        <ele>565</ele>
        <time>2019-11-08T04:49:25Z</time>
      </trkpt>
      <trkpt lat="43.49227" lon="2.56808">
        <ele>566</ele>
        <time>2019-11-08T04:49:30Z</time>
      </trkpt>
      <trkpt lat="43.49219" lon="2.56811">
        <ele>567</ele>
        <time>2019-11-08T04:49:37Z</time>
      </trkpt>
      <trkpt lat="43.49201" lon="2.56804">
        <ele>569</ele>
        <time>2019-11-08T04:49:52Z</time>
      </trkpt>
      <trkpt lat="43.49194" lon="2.56798">
        <ele>569</ele>
        <time>2019-11-08T04:49:59Z</time>
      </trkpt>
      <trkpt lat="43.49187" lon="2.56784">
        <ele>570</ele>
        <time>2019-11-08T04:50:08Z</time>
      </trkpt>
      <trkpt lat="43.49168" lon="2.56726">
        <ele>568</ele>
        <time>2019-11-08T04:50:45Z</time>
      </trkpt>
      <trkpt lat="43.49159" lon="2.5671">
        <ele>567</ele>
        <time>2019-11-08T04:50:57Z</time>
      </trkpt>
      <trkpt lat="43.49152" lon="2.56683">
        <ele>566</ele>
        <time>2019-11-08T04:51:14Z</time>
      </trkpt>
      <trkpt lat="43.49139" lon="2.56673">
        <ele>566</ele>
        <time>2019-11-08T04:51:26Z</time>
      </trkpt>
      <trkpt lat="43.49125" lon="2.56667">
        <ele>566</ele>
        <time>2019-11-08T04:51:37Z</time>
      </trkpt>
      <trkpt lat="43.49124" lon="2.56742">
        <ele>569</ele>
        <time>2019-11-08T04:52:21Z</time>
      </trkpt>
      <trkpt lat="43.49128" lon="2.56789">
        <ele>570</ele>
        <time>2019-11-08T04:52:48Z</time>
      </trkpt>
      <trkpt lat="43.49131" lon="2.56795">
        <ele>570</ele>
        <time>2019-11-08T04:52:53Z</time>
      </trkpt>
      <trkpt lat="43.49135" lon="2.56796">
        <ele>570</ele>
        <time>2019-11-08T04:52:56Z</time>
      </trkpt>
      <trkpt lat="43.49159" lon="2.56815">
        <ele>573</ele>
        <time>2019-11-08T04:53:18Z</time>
      </trkpt>
      <trkpt lat="43.4917" lon="2.56847">
        <ele>574</ele>
        <time>2019-11-08T04:53:39Z</time>
      </trkpt>
      <trkpt lat="43.49173" lon="2.56877">
        <ele>574</ele>
        <time>2019-11-08T04:53:56Z</time>
      </trkpt>
      <trkpt lat="43.4917" lon="2.5699">
        <ele>576</ele>
        <time>2019-11-08T04:55:02Z</time>
      </trkpt>
      <trkpt lat="43.49167" lon="2.57008">
        <ele>576</ele>
        <time>2019-11-08T04:55:13Z</time>
      </trkpt>
      <trkpt lat="43.49161" lon="2.57012">
        <ele>576</ele>
        <time>2019-11-08T04:55:18Z</time>
      </trkpt>
      <trkpt lat="43.49182" lon="2.57015">
        <ele>576</ele>
        <time>2019-11-08T04:55:35Z</time>
      </trkpt>
      <trkpt lat="43.49203" lon="2.57032">
        <ele>576</ele>
        <time>2019-11-08T04:55:54Z</time>
      </trkpt>
      <trkpt lat="43.49245" lon="2.57089">
        <ele>579</ele>
        <time>2019-11-08T04:56:42Z</time>
      </trkpt>
      <trkpt lat="43.49265" lon="2.5711">
        <ele>582</ele>
        <time>2019-11-08T04:57:02Z</time>
      </trkpt>
      <trkpt lat="43.4928" lon="2.5712">
        <ele>584</ele>
        <time>2019-11-08T04:57:15Z</time>
      </trkpt>
      <trkpt lat="43.49294" lon="2.57125">
        <ele>585</ele>
        <time>2019-11-08T04:57:27Z</time>
      </trkpt>
      <trkpt lat="43.49294" lon="2.57132">
        <ele>586</ele>
        <time>2019-11-08T04:57:31Z</time>
      </trkpt>
      <trkpt lat="43.49325" lon="2.57178">
        <ele>590</ele>
        <time>2019-11-08T04:58:07Z</time>
      </trkpt>
      <trkpt lat="43.49329" lon="2.57189">
        <ele>591</ele>
        <time>2019-11-08T04:58:14Z</time>
      </trkpt>
      <trkpt lat="43.49363" lon="2.57245">
        <ele>598</ele>
        <time>2019-11-08T04:58:57Z</time>
      </trkpt>
      <trkpt lat="43.49374" lon="2.57258">
        <ele>601</ele>
        <time>2019-11-08T04:59:08Z</time>
      </trkpt>
      <trkpt lat="43.49472" lon="2.57351">
        <ele>619</ele>
        <time>2019-11-08T05:00:44Z</time>
      </trkpt>
      <trkpt lat="43.49495" lon="2.57369">
        <ele>624</ele>
        <time>2019-11-08T05:01:05Z</time>
      </trkpt>
      <trkpt lat="43.49521" lon="2.57382">
        <ele>625</ele>
        <time>2019-11-08T05:01:27Z</time>
      </trkpt>
      <trkpt lat="43.49534" lon="2.57393">
        <ele>624</ele>
        <time>2019-11-08T05:01:39Z</time>
      </trkpt>
      <trkpt lat="43.49526" lon="2.5742">
        <ele>626</ele>
        <time>2019-11-08T05:01:56Z</time>
      </trkpt>
      <trkpt lat="43.4951" lon="2.57447">
        <ele>631</ele>
        <time>2019-11-08T05:02:16Z</time>
      </trkpt>
      <trkpt lat="43.49513" lon="2.57485">
        <ele>635</ele>
        <time>2019-11-08T05:02:39Z</time>
      </trkpt>
      <trkpt lat="43.49528" lon="2.57556">
        <ele>639</ele>
        <time>2019-11-08T05:03:22Z</time>
      </trkpt>
      <trkpt lat="43.49538" lon="2.57579">
        <ele>640</ele>
        <time>2019-11-08T05:03:37Z</time>
      </trkpt>
      <trkpt lat="43.49611" lon="2.57673">
        <ele>643</ele>
        <time>2019-11-08T05:04:57Z</time>
      </trkpt>
      <trkpt lat="43.49636" lon="2.57691">
        <ele>643</ele>
        <time>2019-11-08T05:05:20Z</time>
      </trkpt>
      <trkpt lat="43.49649" lon="2.57704">
        <ele>645</ele>
        <time>2019-11-08T05:05:33Z</time>
      </trkpt>
      <trkpt lat="43.49684" lon="2.57762">
        <ele>656</ele>
        <time>2019-11-08T05:06:16Z</time>
      </trkpt>
      <trkpt lat="43.49704" lon="2.5779">
        <ele>660</ele>
        <time>2019-11-08T05:06:39Z</time>
      </trkpt>
      <trkpt lat="43.49729" lon="2.57808">
        <ele>660</ele>
        <time>2019-11-08T05:07:02Z</time>
      </trkpt>
      <trkpt lat="43.4974" lon="2.5783">
        <ele>665</ele>
        <time>2019-11-08T05:07:17Z</time>
      </trkpt>
      <trkpt lat="43.49781" lon="2.5787">
        <ele>670</ele>
        <time>2019-11-08T05:07:57Z</time>
      </trkpt>
      <trkpt lat="43.49787" lon="2.5787">
        <ele>669</ele>
        <time>2019-11-08T05:08:02Z</time>
      </trkpt>
      <trkpt lat="43.49795" lon="2.57876">
        <ele>669</ele>
        <time>2019-11-08T05:08:10Z</time>
      </trkpt>
      <trkpt lat="43.49841" lon="2.5793">
        <ele>676</ele>
        <time>2019-11-08T05:08:58Z</time>
      </trkpt>
      <trkpt lat="43.49865" lon="2.57966">
        <ele>679</ele>
        <time>2019-11-08T05:09:26Z</time>
      </trkpt>
      <trkpt lat="43.499" lon="2.5803">
        <ele>684</ele>
        <time>2019-11-08T05:10:13Z</time>
      </trkpt>
      <trkpt lat="43.49959" lon="2.58108">
        <ele>680</ele>
        <time>2019-11-08T05:11:18Z</time>
      </trkpt>
      <trkpt lat="43.49966" lon="2.58121">
        <ele>679</ele>
        <time>2019-11-08T05:11:28Z</time>
      </trkpt>
      <trkpt lat="43.49986" lon="2.58183">
        <ele>679</ele>
        <time>2019-11-08T05:12:07Z</time>
      </trkpt>
      <trkpt lat="43.4999" lon="2.58227">
        <ele>683</ele>
        <time>2019-11-08T05:12:33Z</time>
      </trkpt>
      <trkpt lat="43.49983" lon="2.5827">
        <ele>692</ele>
        <time>2019-11-08T05:12:59Z</time>
      </trkpt>
      <trkpt lat="43.49983" lon="2.58295">
        <ele>695</ele>
        <time>2019-11-08T05:13:13Z</time>
      </trkpt>
      <trkpt lat="43.49988" lon="2.58318">
        <ele>697</ele>
        <time>2019-11-08T05:13:27Z</time>
      </trkpt>
      <trkpt lat="43.5" lon="2.58353">
        <ele>699</ele>
        <time>2019-11-08T05:13:49Z</time>
      </trkpt>
      <trkpt lat="43.5001" lon="2.58421">
        <ele>710</ele>
        <time>2019-11-08T05:14:30Z</time>
      </trkpt>
      <trkpt lat="43.50018" lon="2.58438">
        <ele>714</ele>
        <time>2019-11-08T05:14:42Z</time>
      </trkpt>
      <trkpt lat="43.50029" lon="2.58488">
        <ele>724</ele>
        <time>2019-11-08T05:15:12Z</time>
      </trkpt>
      <trkpt lat="43.50027" lon="2.58515">
        <ele>728</ele>
        <time>2019-11-08T05:15:28Z</time>
      </trkpt>
      <trkpt lat="43.5002" lon="2.58524">
        <ele>729</ele>
        <time>2019-11-08T05:15:35Z</time>
      </trkpt>
      <trkpt lat="43.50009" lon="2.58526">
        <ele>729</ele>
        <time>2019-11-08T05:15:44Z</time>
      </trkpt>
      <trkpt lat="43.49988" lon="2.58508">
        <ele>729</ele>
        <time>2019-11-08T05:16:04Z</time>
      </trkpt>
      <trkpt lat="43.49976" lon="2.58488">
        <ele>729</ele>
        <time>2019-11-08T05:16:19Z</time>
      </trkpt>
      <trkpt lat="43.49942" lon="2.58381">
        <ele>721</ele>
        <time>2019-11-08T05:17:27Z</time>
      </trkpt>
      <trkpt lat="43.49929" lon="2.58354">
        <ele>721</ele>
        <time>2019-11-08T05:17:46Z</time>
      </trkpt>
      <trkpt lat="43.49921" lon="2.58329">
        <ele>719</ele>
        <time>2019-11-08T05:18:02Z</time>
      </trkpt>
      <trkpt lat="43.49853" lon="2.5816">
        <ele>720</ele>
        <time>2019-11-08T05:19:54Z</time>
      </trkpt>
      <trkpt lat="43.49847" lon="2.58149">
        <ele>720</ele>
        <time>2019-11-08T05:20:02Z</time>
      </trkpt>
      <trkpt lat="43.49796" lon="2.58087">
        <ele>721</ele>
        <time>2019-11-08T05:20:56Z</time>
      </trkpt>
      <trkpt lat="43.49765" lon="2.58063">
        <ele>722</ele>
        <time>2019-11-08T05:21:25Z</time>
      </trkpt>
      <trkpt lat="43.49712" lon="2.58038">
        <ele>723</ele>
        <time>2019-11-08T05:22:10Z</time>
      </trkpt>
      <trkpt lat="43.49667" lon="2.58031">
        <ele>723</ele>
        <time>2019-11-08T05:22:46Z</time>
      </trkpt>
      <trkpt lat="43.49641" lon="2.5803">
        <ele>722</ele>
        <time>2019-11-08T05:23:07Z</time>
      </trkpt>
      <trkpt lat="43.49634" lon="2.58033">
        <ele>722</ele>
        <time>2019-11-08T05:23:13Z</time>
      </trkpt>
      <trkpt lat="43.49617" lon="2.58052">
        <ele>723</ele>
        <time>2019-11-08T05:23:30Z</time>
      </trkpt>
      <trkpt lat="43.49607" lon="2.58072">
        <ele>724</ele>
        <time>2019-11-08T05:23:44Z</time>
      </trkpt>
      <trkpt lat="43.49625" lon="2.58085">
        <ele>727</ele>
        <time>2019-11-08T05:24:00Z</time>
      </trkpt>
      <trkpt lat="43.49638" lon="2.58099">
        <ele>728</ele>
        <time>2019-11-08T05:24:14Z</time>
      </trkpt>
      <trkpt lat="43.4966" lon="2.58125">
        <ele>731</ele>
        <time>2019-11-08T05:24:37Z</time>
      </trkpt>
      <trkpt lat="43.49688" lon="2.58165">
        <ele>735</ele>
        <time>2019-11-08T05:25:09Z</time>
      </trkpt>
      <trkpt lat="43.49729" lon="2.58247">
        <ele>742</ele>
        <time>2019-11-08T05:26:07Z</time>
      </trkpt>
      <trkpt lat="43.49754" lon="2.58291">
        <ele>746</ele>
        <time>2019-11-08T05:26:39Z</time>
      </trkpt>
      <trkpt lat="43.49768" lon="2.58336">
        <ele>748</ele>
        <time>2019-11-08T05:27:08Z</time>
      </trkpt>
      <trkpt lat="43.49778" lon="2.58386">
        <ele>749</ele>
        <time>2019-11-08T05:27:38Z</time>
      </trkpt>
      <trkpt lat="43.49784" lon="2.58436">
        <ele>751</ele>
        <time>2019-11-08T05:28:07Z</time>
      </trkpt>
      <trkpt lat="43.49793" lon="2.58555">
        <ele>759</ele>
        <time>2019-11-08T05:29:17Z</time>
      </trkpt>
      <trkpt lat="43.49796" lon="2.58568">
        <ele>759</ele>
        <time>2019-11-08T05:29:25Z</time>
      </trkpt>
      <trkpt lat="43.49814" lon="2.58606">
        <ele>763</ele>
        <time>2019-11-08T05:29:51Z</time>
      </trkpt>
      <trkpt lat="43.49818" lon="2.5862">
        <ele>764</ele>
        <time>2019-11-08T05:30:00Z</time>
      </trkpt>
      <trkpt lat="43.49821" lon="2.58691">
        <ele>768</ele>
        <time>2019-11-08T05:30:41Z</time>
      </trkpt>
      <trkpt lat="43.49824" lon="2.58713">
        <ele>769</ele>
        <time>2019-11-08T05:30:54Z</time>
      </trkpt>
      <trkpt lat="43.49843" lon="2.58802">
        <ele>772</ele>
        <time>2019-11-08T05:31:48Z</time>
      </trkpt>
      <trkpt lat="43.49852" lon="2.58861">
        <ele>774</ele>
        <time>2019-11-08T05:32:23Z</time>
      </trkpt>
      <trkpt lat="43.49876" lon="2.58958">
        <ele>779</ele>
        <time>2019-11-08T05:33:23Z</time>
      </trkpt>
      <trkpt lat="43.49894" lon="2.59004">
        <ele>781</ele>
        <time>2019-11-08T05:33:53Z</time>
      </trkpt>
      <trkpt lat="43.499" lon="2.59013">
        <ele>781</ele>
        <time>2019-11-08T05:34:00Z</time>
      </trkpt>
      <trkpt lat="43.49911" lon="2.59022">
        <ele>781</ele>
        <time>2019-11-08T05:34:10Z</time>
      </trkpt>
      <trkpt lat="43.49956" lon="2.59051">
        <ele>784</ele>
        <time>2019-11-08T05:34:50Z</time>
      </trkpt>
      <trkpt lat="43.5001" lon="2.59079">
        <ele>787</ele>
        <time>2019-11-08T05:35:36Z</time>
      </trkpt>
      <trkpt lat="43.50047" lon="2.59092">
        <ele>789</ele>
        <time>2019-11-08T05:36:07Z</time>
      </trkpt>
      <trkpt lat="43.50017" lon="2.5916">
        <ele>793</ele>
        <time>2019-11-08T05:36:53Z</time>
      </trkpt>
      <trkpt lat="43.50001" lon="2.59213">
        <ele>796</ele>
        <time>2019-11-08T05:37:27Z</time>
      </trkpt>
      <trkpt lat="43.49928" lon="2.59386">
        <ele>806</ele>
        <time>2019-11-08T05:39:23Z</time>
      </trkpt>
      <trkpt lat="43.4991" lon="2.59438">
        <ele>809</ele>
        <time>2019-11-08T05:39:56Z</time>
      </trkpt>
      <trkpt lat="43.49908" lon="2.59462">
        <ele>810</ele>
        <time>2019-11-08T05:40:10Z</time>
      </trkpt>
      <trkpt lat="43.49909" lon="2.59488">
        <ele>811</ele>
        <time>2019-11-08T05:40:25Z</time>
      </trkpt>
      <trkpt lat="43.49915" lon="2.59513">
        <ele>813</ele>
        <time>2019-11-08T05:40:41Z</time>
      </trkpt>
      <trkpt lat="43.49924" lon="2.59583">
        <ele>816</ele>
        <time>2019-11-08T05:41:22Z</time>
      </trkpt>
      <trkpt lat="43.49946" lon="2.59636">
        <ele>817</ele>
        <time>2019-11-08T05:41:57Z</time>
      </trkpt>
      <trkpt lat="43.49954" lon="2.5965">
        <ele>818</ele>
        <time>2019-11-08T05:42:08Z</time>
      </trkpt>
      <trkpt lat="43.49962" lon="2.59657">
        <ele>819</ele>
        <time>2019-11-08T05:42:15Z</time>
      </trkpt>
      <trkpt lat="43.49972" lon="2.59671">
        <ele>820</ele>
        <time>2019-11-08T05:42:27Z</time>
      </trkpt>
      <trkpt lat="43.50011" lon="2.59742">
        <ele>821</ele>
        <time>2019-11-08T05:43:19Z</time>
      </trkpt>
      <trkpt lat="43.50022" lon="2.59774">
        <ele>822</ele>
        <time>2019-11-08T05:43:39Z</time>
      </trkpt>
      <trkpt lat="43.50021" lon="2.59787">
        <ele>822</ele>
        <time>2019-11-08T05:43:47Z</time>
      </trkpt>
      <trkpt lat="43.5001" lon="2.59816">
        <ele>822</ele>
        <time>2019-11-08T05:44:06Z</time>
      </trkpt>
      <trkpt lat="43.5001" lon="2.59837">
        <ele>823</ele>
        <time>2019-11-08T05:44:18Z</time>
      </trkpt>
      <trkpt lat="43.49999" lon="2.59903">
        <ele>825</ele>
        <time>2019-11-08T05:44:57Z</time>
      </trkpt>
      <trkpt lat="43.50001" lon="2.59966">
        <ele>828</ele>
        <time>2019-11-08T05:45:34Z</time>
      </trkpt>
      <trkpt lat="43.49997" lon="2.60024">
        <ele>830</ele>
        <time>2019-11-08T05:46:08Z</time>
      </trkpt>
      <trkpt lat="43.49998" lon="2.60068">
        <ele>830</ele>
        <time>2019-11-08T05:46:33Z</time>
      </trkpt>
      <trkpt lat="43.50003" lon="2.60101">
        <ele>829</ele>
        <time>2019-11-08T05:46:53Z</time>
      </trkpt>
      <trkpt lat="43.50007" lon="2.60111">
        <ele>828</ele>
        <time>2019-11-08T05:46:59Z</time>
      </trkpt>
      <trkpt lat="43.50044" lon="2.60141">
        <ele>826</ele>
        <time>2019-11-08T05:47:34Z</time>
      </trkpt>
      <trkpt lat="43.50081" lon="2.60183">
        <ele>820</ele>
        <time>2019-11-08T05:48:12Z</time>
      </trkpt>
      <trkpt lat="43.50111" lon="2.60232">
        <ele>819</ele>
        <time>2019-11-08T05:48:49Z</time>
      </trkpt>
      <trkpt lat="43.50119" lon="2.60251">
        <ele>818</ele>
        <time>2019-11-08T05:49:02Z</time>
      </trkpt>
      <trkpt lat="43.50133" lon="2.60255">
        <ele>821</ele>
        <time>2019-11-08T05:49:14Z</time>
      </trkpt>
      <trkpt lat="43.50141" lon="2.60262">
        <ele>823</ele>
        <time>2019-11-08T05:49:21Z</time>
      </trkpt>
      <trkpt lat="43.50147" lon="2.60284">
        <ele>825</ele>
        <time>2019-11-08T05:49:35Z</time>
      </trkpt>
      <trkpt lat="43.5014" lon="2.60353">
        <ele>824</ele>
        <time>2019-11-08T05:50:15Z</time>
      </trkpt>
      <trkpt lat="43.50142" lon="2.60367">
        <ele>825</ele>
        <time>2019-11-08T05:50:24Z</time>
      </trkpt>
      <trkpt lat="43.50147" lon="2.60379">
        <ele>826</ele>
        <time>2019-11-08T05:50:32Z</time>
      </trkpt>
      <trkpt lat="43.50187" lon="2.6045">
        <ele>833</ele>
        <time>2019-11-08T05:51:24Z</time>
      </trkpt>
      <trkpt lat="43.50196" lon="2.6046">
        <ele>834</ele>
        <time>2019-11-08T05:51:33Z</time>
      </trkpt>
      <trkpt lat="43.50247" lon="2.60482">
        <ele>839</ele>
        <time>2019-11-08T05:52:16Z</time>
      </trkpt>
      <trkpt lat="43.50266" lon="2.60495">
        <ele>840</ele>
        <time>2019-11-08T05:52:33Z</time>
      </trkpt>
      <trkpt lat="43.50275" lon="2.60507">
        <ele>840</ele>
        <time>2019-11-08T05:52:43Z</time>
      </trkpt>
      <trkpt lat="43.50282" lon="2.60521">
        <ele>841</ele>
        <time>2019-11-08T05:52:53Z</time>
      </trkpt>
      <trkpt lat="43.50284" lon="2.60531">
        <ele>841</ele>
        <time>2019-11-08T05:52:59Z</time>
      </trkpt>
      <trkpt lat="43.50282" lon="2.60542">
        <ele>841</ele>
        <time>2019-11-08T05:53:05Z</time>
      </trkpt>
      <trkpt lat="43.50288" lon="2.60587">
        <ele>842</ele>
        <time>2019-11-08T05:53:32Z</time>
      </trkpt>
      <trkpt lat="43.50293" lon="2.60602">
        <ele>842</ele>
        <time>2019-11-08T05:53:42Z</time>
      </trkpt>
      <trkpt lat="43.50313" lon="2.60627">
        <ele>842</ele>
        <time>2019-11-08T05:54:03Z</time>
      </trkpt>
      <trkpt lat="43.50335" lon="2.60634">
        <ele>843</ele>
        <time>2019-11-08T05:54:21Z</time>
      </trkpt>
      <trkpt lat="43.50384" lon="2.60599">
        <ele>848</ele>
        <time>2019-11-08T05:55:05Z</time>
      </trkpt>
      <trkpt lat="43.50406" lon="2.60589">
        <ele>850</ele>
        <time>2019-11-08T05:55:24Z</time>
      </trkpt>
      <trkpt lat="43.50451" lon="2.60552">
        <ele>852</ele>
        <time>2019-11-08T05:56:06Z</time>
      </trkpt>
      <trkpt lat="43.50494" lon="2.60533">
        <ele>856</ele>
        <time>2019-11-08T05:56:42Z</time>
      </trkpt>
      <trkpt lat="43.50504" lon="2.60531">
        <ele>857</ele>
        <time>2019-11-08T05:56:50Z</time>
      </trkpt>
      <trkpt lat="43.50516" lon="2.60533">
        <ele>857</ele>
        <time>2019-11-08T05:57:00Z</time>
      </trkpt>
      <trkpt lat="43.50539" lon="2.60543">
        <ele>858</ele>
        <time>2019-11-08T05:57:19Z</time>
      </trkpt>
      <trkpt lat="43.50568" lon="2.60562">
        <ele>861</ele>
        <time>2019-11-08T05:57:45Z</time>
      </trkpt>
      <trkpt lat="43.50579" lon="2.60566">
        <ele>862</ele>
        <time>2019-11-08T05:57:54Z</time>
      </trkpt>
      <trkpt lat="43.50639" lon="2.60565">
        <ele>863</ele>
        <time>2019-11-08T05:58:42Z</time>
      </trkpt>
      <trkpt lat="43.50661" lon="2.60578">
        <ele>863</ele>
        <time>2019-11-08T05:59:01Z</time>
      </trkpt>
      <trkpt lat="43.50688" lon="2.60585">
        <ele>864</ele>
        <time>2019-11-08T05:59:23Z</time>
      </trkpt>
      <trkpt lat="43.50694" lon="2.60597">
        <ele>863</ele>
        <time>2019-11-08T05:59:32Z</time>
      </trkpt>
      <trkpt lat="43.50696" lon="2.6061">
        <ele>862</ele>
        <time>2019-11-08T05:59:39Z</time>
      </trkpt>
      <trkpt lat="43.50696" lon="2.60619">
        <ele>862</ele>
        <time>2019-11-08T05:59:45Z</time>
      </trkpt>
      <trkpt lat="43.50687" lon="2.60657">
        <ele>859</ele>
        <time>2019-11-08T06:00:08Z</time>
      </trkpt>
      <trkpt lat="43.50689" lon="2.60668">
        <ele>858</ele>
        <time>2019-11-08T06:00:14Z</time>
      </trkpt>
      <trkpt lat="43.507" lon="2.60686">
        <ele>857</ele>
        <time>2019-11-08T06:00:28Z</time>
      </trkpt>
      <trkpt lat="43.5072" lon="2.60741">
        <ele>853</ele>
        <time>2019-11-08T06:01:04Z</time>
      </trkpt>
      <trkpt lat="43.50741" lon="2.60808">
        <ele>855</ele>
        <time>2019-11-08T06:01:46Z</time>
      </trkpt>
      <trkpt lat="43.50755" lon="2.60867">
        <ele>857</ele>
        <time>2019-11-08T06:02:22Z</time>
      </trkpt>
      <trkpt lat="43.50763" lon="2.60953">
        <ele>859</ele>
        <time>2019-11-08T06:03:13Z</time>
      </trkpt>
      <trkpt lat="43.50777" lon="2.61031">
        <ele>855</ele>
        <time>2019-11-08T06:03:59Z</time>
      </trkpt>
      <trkpt lat="43.50736" lon="2.61165">
        <ele>853</ele>
        <time>2019-11-08T06:05:24Z</time>
      </trkpt>
      <trkpt lat="43.50718" lon="2.61202">
        <ele>853</ele>
        <time>2019-11-08T06:05:50Z</time>
      </trkpt>
      <trkpt lat="43.50693" lon="2.61243">
        <ele>853</ele>
        <time>2019-11-08T06:06:21Z</time>
      </trkpt>
      <trkpt lat="43.50633" lon="2.61358">
        <ele>853</ele>
        <time>2019-11-08T06:07:43Z</time>
      </trkpt>
      <trkpt lat="43.50618" lon="2.61382">
        <ele>853</ele>
        <time>2019-11-08T06:08:01Z</time>
      </trkpt>
      <trkpt lat="43.50608" lon="2.61412">
        <ele>852</ele>
        <time>2019-11-08T06:08:21Z</time>
      </trkpt>
      <trkpt lat="43.50607" lon="2.6143">
        <ele>852</ele>
        <time>2019-11-08T06:08:31Z</time>
      </trkpt>
      <trkpt lat="43.5062" lon="2.61476">
        <ele>850</ele>
        <time>2019-11-08T06:09:00Z</time>
      </trkpt>
      <trkpt lat="43.50637" lon="2.61492">
        <ele>851</ele>
        <time>2019-11-08T06:09:16Z</time>
      </trkpt>
      <trkpt lat="43.50655" lon="2.61515">
        <ele>851</ele>
        <time>2019-11-08T06:09:36Z</time>
      </trkpt>
      <trkpt lat="43.50662" lon="2.61528">
        <ele>851</ele>
        <time>2019-11-08T06:09:45Z</time>
      </trkpt>
      <trkpt lat="43.50668" lon="2.6155">
        <ele>850</ele>
        <time>2019-11-08T06:09:59Z</time>
      </trkpt>
      <trkpt lat="43.50675" lon="2.61557">
        <ele>850</ele>
        <time>2019-11-08T06:10:06Z</time>
      </trkpt>
      <trkpt lat="43.50687" lon="2.61583">
        <ele>849</ele>
        <time>2019-11-08T06:10:24Z</time>
      </trkpt>
      <trkpt lat="43.50686" lon="2.61708">
        <ele>849</ele>
        <time>2019-11-08T06:11:36Z</time>
      </trkpt>
      <trkpt lat="43.50674" lon="2.61878">
        <ele>846</ele>
        <time>2019-11-08T06:13:15Z</time>
      </trkpt>
      <trkpt lat="43.50664" lon="2.61982">
        <ele>849</ele>
        <time>2019-11-08T06:14:16Z</time>
      </trkpt>
      <trkpt lat="43.50663" lon="2.62038">
        <ele>851</ele>
        <time>2019-11-08T06:14:49Z</time>
      </trkpt>
      <trkpt lat="43.50666" lon="2.62115">
        <ele>854</ele>
        <time>2019-11-08T06:15:34Z</time>
      </trkpt>
      <trkpt lat="43.50681" lon="2.62251">
        <ele>859</ele>
        <time>2019-11-08T06:16:54Z</time>
      </trkpt>
      <trkpt lat="43.50694" lon="2.62297">
        <ele>860</ele>
        <time>2019-11-08T06:17:22Z</time>
      </trkpt>
      <trkpt lat="43.50708" lon="2.62323">
        <ele>860</ele>
        <time>2019-11-08T06:17:41Z</time>
      </trkpt>
      <trkpt lat="43.50764" lon="2.62396">
        <ele>861</ele>
        <time>2019-11-08T06:18:43Z</time>
      </trkpt>
      <trkpt lat="43.50841" lon="2.62525">
        <ele>866</ele>
        <time>2019-11-08T06:20:20Z</time>
      </trkpt>
      <trkpt lat="43.50895" lon="2.62631">
        <ele>870</ele>
        <time>2019-11-08T06:21:35Z</time>
      </trkpt>
      <trkpt lat="43.50906" lon="2.62669">
        <ele>873</ele>
        <time>2019-11-08T06:21:59Z</time>
      </trkpt>
      <trkpt lat="43.50912" lon="2.6271">
        <ele>874</ele>
        <time>2019-11-08T06:22:23Z</time>
      </trkpt>
      <trkpt lat="43.50912" lon="2.6273">
        <ele>875</ele>
        <time>2019-11-08T06:22:35Z</time>
      </trkpt>
      <trkpt lat="43.50902" lon="2.62908">
        <ele>877</ele>
        <time>2019-11-08T06:24:18Z</time>
      </trkpt>
      <trkpt lat="43.509" lon="2.63003">
        <ele>880</ele>
        <time>2019-11-08T06:25:14Z</time>
      </trkpt>
      <trkpt lat="43.50903" lon="2.63034">
        <ele>881</ele>
        <time>2019-11-08T06:25:32Z</time>
      </trkpt>
      <trkpt lat="43.50896" lon="2.63148">
        <ele>888</ele>
        <time>2019-11-08T06:26:38Z</time>
      </trkpt>
      <trkpt lat="43.50895" lon="2.63216">
        <ele>888</ele>
        <time>2019-11-08T06:27:18Z</time>
      </trkpt>
      <trkpt lat="43.50898" lon="2.63262">
        <ele>887</ele>
        <time>2019-11-08T06:27:44Z</time>
      </trkpt>
      <trkpt lat="43.50917" lon="2.634">
        <ele>885</ele>
        <time>2019-11-08T06:29:06Z</time>
      </trkpt>
      <trkpt lat="43.50927" lon="2.63425">
        <ele>885</ele>
        <time>2019-11-08T06:29:23Z</time>
      </trkpt>
      <trkpt lat="43.50948" lon="2.63465">
        <ele>885</ele>
        <time>2019-11-08T06:29:51Z</time>
      </trkpt>
      <trkpt lat="43.50973" lon="2.63505">
        <ele>885</ele>
        <time>2019-11-08T06:30:22Z</time>
      </trkpt>
      <trkpt lat="43.50985" lon="2.63533">
        <ele>881</ele>
        <time>2019-11-08T06:30:41Z</time>
      </trkpt>
      <trkpt lat="43.50989" lon="2.6355">
        <ele>879</ele>
        <time>2019-11-08T06:30:51Z</time>
      </trkpt>
      <trkpt lat="43.50987" lon="2.63563">
        <ele>876</ele>
        <time>2019-11-08T06:30:59Z</time>
      </trkpt>
      <trkpt lat="43.50988" lon="2.63613">
        <ele>870</ele>
        <time>2019-11-08T06:31:28Z</time>
      </trkpt>
      <trkpt lat="43.50991" lon="2.63627">
        <ele>868</ele>
        <time>2019-11-08T06:31:36Z</time>
      </trkpt>
      <trkpt lat="43.51002" lon="2.63654">
        <ele>866</ele>
        <time>2019-11-08T06:31:54Z</time>
      </trkpt>
      <trkpt lat="43.51027" lon="2.63701">
        <ele>864</ele>
        <time>2019-11-08T06:32:28Z</time>
      </trkpt>
      <trkpt lat="43.5105" lon="2.63733">
        <ele>862</ele>
        <time>2019-11-08T06:32:54Z</time>
      </trkpt>
      <trkpt lat="43.51112" lon="2.63775">
        <ele>865</ele>
        <time>2019-11-08T06:33:50Z</time>
      </trkpt>
      <trkpt lat="43.51133" lon="2.63834">
        <ele>864</ele>
        <time>2019-11-08T06:34:28Z</time>
      </trkpt>
      <trkpt lat="43.51137" lon="2.63865">
        <ele>866</ele>
        <time>2019-11-08T06:34:46Z</time>
      </trkpt>
      <trkpt lat="43.51123" lon="2.6394">
        <ele>869</ele>
        <time>2019-11-08T06:35:31Z</time>
      </trkpt>
      <trkpt lat="43.51117" lon="2.63958">
        <ele>870</ele>
        <time>2019-11-08T06:35:43Z</time>
      </trkpt>
      <trkpt lat="43.51103" lon="2.63984">
        <ele>870</ele>
        <time>2019-11-08T06:36:01Z</time>
      </trkpt>
      <trkpt lat="43.51093" lon="2.63994">
        <ele>870</ele>
        <time>2019-11-08T06:36:11Z</time>
      </trkpt>
      <trkpt lat="43.51075" lon="2.64005">
        <ele>870</ele>
        <time>2019-11-08T06:36:27Z</time>
      </trkpt>
      <trkpt lat="43.51013" lon="2.6402">
        <ele>874</ele>
        <time>2019-11-08T06:37:18Z</time>
      </trkpt>
      <trkpt lat="43.50905" lon="2.64021">
        <ele>877</ele>
        <time>2019-11-08T06:38:44Z</time>
      </trkpt>
      <trkpt lat="43.50871" lon="2.64026">
        <ele>879</ele>
        <time>2019-11-08T06:39:11Z</time>
      </trkpt>
      <trkpt lat="43.50837" lon="2.64037">
        <ele>881</ele>
        <time>2019-11-08T06:39:39Z</time>
      </trkpt>
      <trkpt lat="43.50789" lon="2.64073">
        <ele>882</ele>
        <time>2019-11-08T06:40:23Z</time>
      </trkpt>
      <trkpt lat="43.50732" lon="2.64122">
        <ele>883</ele>
        <time>2019-11-08T06:41:17Z</time>
      </trkpt>
      <trkpt lat="43.50696" lon="2.64141">
        <ele>881</ele>
        <time>2019-11-08T06:41:48Z</time>
      </trkpt>
      <trkpt lat="43.50677" lon="2.64156">
        <ele>880</ele>
        <time>2019-11-08T06:42:05Z</time>
      </trkpt>
      <trkpt lat="43.50637" lon="2.64181">
        <ele>878</ele>
        <time>2019-11-08T06:42:40Z</time>
      </trkpt>
      <trkpt lat="43.50602" lon="2.64212">
        <ele>878</ele>
        <time>2019-11-08T06:43:14Z</time>
      </trkpt>
      <trkpt lat="43.50561" lon="2.64244">
        <ele>877</ele>
        <time>2019-11-08T06:43:51Z</time>
      </trkpt>
      <trkpt lat="43.50527" lon="2.64279">
        <ele>875</ele>
        <time>2019-11-08T06:44:25Z</time>
      </trkpt>
      <trkpt lat="43.50492" lon="2.64335">
        <ele>873</ele>
        <time>2019-11-08T06:45:08Z</time>
      </trkpt>
      <trkpt lat="43.50486" lon="2.64356">
        <ele>872</ele>
        <time>2019-11-08T06:45:21Z</time>
      </trkpt>
      <trkpt lat="43.50475" lon="2.64427">
        <ele>871</ele>
        <time>2019-11-08T06:46:04Z</time>
      </trkpt>
      <trkpt lat="43.50455" lon="2.64471">
        <ele>871</ele>
        <time>2019-11-08T06:46:34Z</time>
      </trkpt>
      <trkpt lat="43.50415" lon="2.64538">
        <ele>871</ele>
        <time>2019-11-08T06:47:24Z</time>
      </trkpt>
      <trkpt lat="43.5044" lon="2.64516">
        <ele>873</ele>
        <time>2019-11-08T06:47:48Z</time>
      </trkpt>
      <trkpt lat="43.50461" lon="2.64502">
        <ele>874</ele>
        <time>2019-11-08T06:48:07Z</time>
      </trkpt>
      <trkpt lat="43.50488" lon="2.64469">
        <ele>875</ele>
        <time>2019-11-08T06:48:36Z</time>
      </trkpt>
      <trkpt lat="43.50494" lon="2.64468">
        <ele>876</ele>
        <time>2019-11-08T06:48:40Z</time>
      </trkpt>
      <trkpt lat="43.50523" lon="2.64474">
        <ele>880</ele>
        <time>2019-11-08T06:49:04Z</time>
      </trkpt>
      <trkpt lat="43.50554" lon="2.64487">
        <ele>885</ele>
        <time>2019-11-08T06:49:30Z</time>
      </trkpt>
      <trkpt lat="43.50536" lon="2.64553">
        <ele>887</ele>
        <time>2019-11-08T06:50:11Z</time>
      </trkpt>
      <trkpt lat="43.50536" lon="2.64561">
        <ele>888</ele>
        <time>2019-11-08T06:50:15Z</time>
      </trkpt>
      <trkpt lat="43.50543" lon="2.64567">
        <ele>889</ele>
        <time>2019-11-08T06:50:22Z</time>
      </trkpt>
      <trkpt lat="43.50584" lon="2.64576">
        <ele>893</ele>
        <time>2019-11-08T06:50:55Z</time>
      </trkpt>
      <trkpt lat="43.50631" lon="2.64592">
        <ele>892</ele>
        <time>2019-11-08T06:51:34Z</time>
      </trkpt>
      <trkpt lat="43.50656" lon="2.64605">
        <ele>892</ele>
        <time>2019-11-08T06:51:55Z</time>
      </trkpt>
      <trkpt lat="43.50695" lon="2.64654">
        <ele>889</ele>
        <time>2019-11-08T06:52:38Z</time>
      </trkpt>
      <trkpt lat="43.50733" lon="2.64692">
        <ele>888</ele>
        <time>2019-11-08T06:53:15Z</time>
      </trkpt>
      <trkpt lat="43.50751" lon="2.64611">
        <ele>887</ele>
        <time>2019-11-08T06:54:04Z</time>
      </trkpt>
      <trkpt lat="43.50791" lon="2.64566">
        <ele>885</ele>
        <time>2019-11-08T06:54:46Z</time>
      </trkpt>
      <trkpt lat="43.508" lon="2.64566">
        <ele>885</ele>
        <time>2019-11-08T06:54:53Z</time>
      </trkpt>
      <trkpt lat="43.5081" lon="2.64583">
        <ele>884</ele>
        <time>2019-11-08T06:55:06Z</time>
      </trkpt>
      <trkpt lat="43.50837" lon="2.64651">
        <ele>887</ele>
        <time>2019-11-08T06:55:51Z</time>
      </trkpt>
      <trkpt lat="43.50842" lon="2.64654">
        <ele>888</ele>
        <time>2019-11-08T06:55:55Z</time>
      </trkpt>
      <trkpt lat="43.50869" lon="2.64657">
        <ele>889</ele>
        <time>2019-11-08T06:56:17Z</time>
      </trkpt>
      <trkpt lat="43.50881" lon="2.64675">
        <ele>891</ele>
        <time>2019-11-08T06:56:31Z</time>
      </trkpt>
      <trkpt lat="43.50904" lon="2.64733">
        <ele>895</ele>
        <time>2019-11-08T06:57:09Z</time>
      </trkpt>
      <trkpt lat="43.50918" lon="2.64759">
        <ele>897</ele>
        <time>2019-11-08T06:57:28Z</time>
      </trkpt>
      <trkpt lat="43.50921" lon="2.64768">
        <ele>897</ele>
        <time>2019-11-08T06:57:34Z</time>
      </trkpt>
      <trkpt lat="43.50921" lon="2.64791">
        <ele>897</ele>
        <time>2019-11-08T06:57:47Z</time>
      </trkpt>
      <trkpt lat="43.50934" lon="2.64809">
        <ele>898</ele>
        <time>2019-11-08T06:58:02Z</time>
      </trkpt>
      <trkpt lat="43.50917" lon="2.64872">
        <ele>896</ele>
        <time>2019-11-08T06:58:41Z</time>
      </trkpt>
      <trkpt lat="43.50901" lon="2.64865">
        <ele>894</ele>
        <time>2019-11-08T06:58:54Z</time>
      </trkpt>
      <trkpt lat="43.50893" lon="2.64866">
        <ele>893</ele>
        <time>2019-11-08T06:59:01Z</time>
      </trkpt>
      <trkpt lat="43.50885" lon="2.64863">
        <ele>893</ele>
        <time>2019-11-08T06:59:08Z</time>
      </trkpt>
      <trkpt lat="43.50878" lon="2.64864">
        <ele>892</ele>
        <time>2019-11-08T06:59:13Z</time>
      </trkpt>
      <trkpt lat="43.50867" lon="2.6486">
        <ele>891</ele>
        <time>2019-11-08T06:59:22Z</time>
      </trkpt>
      <trkpt lat="43.5086" lon="2.6486">
        <ele>890</ele>
        <time>2019-11-08T06:59:28Z</time>
      </trkpt>
      <trkpt lat="43.50844" lon="2.64853">
        <ele>889</ele>
        <time>2019-11-08T06:59:41Z</time>
      </trkpt>
      <trkpt lat="43.5083" lon="2.64851">
        <ele>888</ele>
        <time>2019-11-08T06:59:53Z</time>
      </trkpt>
      <trkpt lat="43.50801" lon="2.64842">
        <ele>887</ele>
        <time>2019-11-08T07:00:16Z</time>
      </trkpt>
      <trkpt lat="43.50731" lon="2.64835">
        <ele>885</ele>
        <time>2019-11-08T07:01:13Z</time>
      </trkpt>
      <trkpt lat="43.5071" lon="2.64835">
        <ele>885</ele>
        <time>2019-11-08T07:01:29Z</time>
      </trkpt>
      <trkpt lat="43.50685" lon="2.64839">
        <ele>886</ele>
        <time>2019-11-08T07:01:50Z</time>
      </trkpt>
      <trkpt lat="43.50684" lon="2.6491">
        <ele>886</ele>
        <time>2019-11-08T07:02:31Z</time>
      </trkpt>
      <trkpt lat="43.50679" lon="2.64957">
        <ele>884</ele>
        <time>2019-11-08T07:02:58Z</time>
      </trkpt>
      <trkpt lat="43.50643" lon="2.65052">
        <ele>875</ele>
        <time>2019-11-08T07:04:01Z</time>
      </trkpt>
      <trkpt lat="43.50621" lon="2.6507">
        <ele>871</ele>
        <time>2019-11-08T07:04:21Z</time>
      </trkpt>
      <trkpt lat="43.50597" lon="2.65098">
        <ele>865</ele>
        <time>2019-11-08T07:04:46Z</time>
      </trkpt>
      <trkpt lat="43.50573" lon="2.6515">
        <ele>856</ele>
        <time>2019-11-08T07:05:22Z</time>
      </trkpt>
      <trkpt lat="43.50555" lon="2.65164">
        <ele>853</ele>
        <time>2019-11-08T07:05:39Z</time>
      </trkpt>
      <trkpt lat="43.5054" lon="2.65164">
        <ele>853</ele>
        <time>2019-11-08T07:05:51Z</time>
      </trkpt>
      <trkpt lat="43.50532" lon="2.65159">
        <ele>853</ele>
        <time>2019-11-08T07:05:58Z</time>
      </trkpt>
      <trkpt lat="43.50521" lon="2.65145">
        <ele>854</ele>
        <time>2019-11-08T07:06:10Z</time>
      </trkpt>
      <trkpt lat="43.505" lon="2.65128">
        <ele>855</ele>
        <time>2019-11-08T07:06:29Z</time>
      </trkpt>
      <trkpt lat="43.50473" lon="2.65124">
        <ele>853</ele>
        <time>2019-11-08T07:06:51Z</time>
      </trkpt>
      <trkpt lat="43.50461" lon="2.65125">
        <ele>851</ele>
        <time>2019-11-08T07:07:01Z</time>
      </trkpt>
      <trkpt lat="43.50472" lon="2.65145">
        <ele>850</ele>
        <time>2019-11-08T07:07:15Z</time>
      </trkpt>
      <trkpt lat="43.50479" lon="2.65179">
        <ele>848</ele>
        <time>2019-11-08T07:07:36Z</time>
      </trkpt>
      <trkpt lat="43.50474" lon="2.65214">
        <ele>846</ele>
        <time>2019-11-08T07:07:56Z</time>
      </trkpt>
      <trkpt lat="43.50465" lon="2.65249">
        <ele>843</ele>
        <time>2019-11-08T07:08:18Z</time>
      </trkpt>
      <trkpt lat="43.50465" lon="2.65258">
        <ele>843</ele>
        <time>2019-11-08T07:08:23Z</time>
      </trkpt>
      <trkpt lat="43.50477" lon="2.65288">
        <ele>843</ele>
        <time>2019-11-08T07:08:43Z</time>
      </trkpt>
      <trkpt lat="43.50498" lon="2.65305">
        <ele>843</ele>
        <time>2019-11-08T07:09:03Z</time>
      </trkpt>
      <trkpt lat="43.50519" lon="2.65334">
        <ele>846</ele>
        <time>2019-11-08T07:09:26Z</time>
      </trkpt>
      <trkpt lat="43.50522" lon="2.65345">
        <ele>847</ele>
        <time>2019-11-08T07:09:33Z</time>
      </trkpt>
      <trkpt lat="43.50522" lon="2.65356">
        <ele>848</ele>
        <time>2019-11-08T07:09:40Z</time>
      </trkpt>
      <trkpt lat="43.50518" lon="2.65372">
        <ele>848</ele>
        <time>2019-11-08T07:09:49Z</time>
      </trkpt>
      <trkpt lat="43.50502" lon="2.65393">
        <ele>847</ele>
        <time>2019-11-08T07:10:07Z</time>
      </trkpt>
      <trkpt lat="43.5049" lon="2.65404">
        <ele>847</ele>
        <time>2019-11-08T07:10:19Z</time>
      </trkpt>
      <trkpt lat="43.50441" lon="2.65431">
        <ele>846</ele>
        <time>2019-11-08T07:11:01Z</time>
      </trkpt>
      <trkpt lat="43.50428" lon="2.65424">
        <ele>845</ele>
        <time>2019-11-08T07:11:12Z</time>
      </trkpt>
      <trkpt lat="43.50372" lon="2.65419">
        <ele>846</ele>
        <time>2019-11-08T07:11:57Z</time>
      </trkpt>
      <trkpt lat="43.50356" lon="2.65371">
        <ele>843</ele>
        <time>2019-11-08T07:12:28Z</time>
      </trkpt>
      <trkpt lat="43.50347" lon="2.65358">
        <ele>842</ele>
        <time>2019-11-08T07:12:38Z</time>
      </trkpt>
      <trkpt lat="43.50329" lon="2.65349">
        <ele>842</ele>
        <time>2019-11-08T07:12:53Z</time>
      </trkpt>
      <trkpt lat="43.50314" lon="2.65334">
        <ele>841</ele>
        <time>2019-11-08T07:13:08Z</time>
      </trkpt>
      <trkpt lat="43.50303" lon="2.65328">
        <ele>841</ele>
        <time>2019-11-08T07:13:18Z</time>
      </trkpt>
      <trkpt lat="43.50278" lon="2.65303">
        <ele>840</ele>
        <time>2019-11-08T07:13:42Z</time>
      </trkpt>
      <trkpt lat="43.50265" lon="2.65295">
        <ele>840</ele>
        <time>2019-11-08T07:13:54Z</time>
      </trkpt>
      <trkpt lat="43.50241" lon="2.65287">
        <ele>839</ele>
        <time>2019-11-08T07:14:14Z</time>
      </trkpt>
      <trkpt lat="43.50233" lon="2.65293">
        <ele>839</ele>
        <time>2019-11-08T07:14:21Z</time>
      </trkpt>
      <trkpt lat="43.50226" lon="2.65286">
        <ele>838</ele>
        <time>2019-11-08T07:14:28Z</time>
      </trkpt>
      <trkpt lat="43.5021" lon="2.65284">
        <ele>837</ele>
        <time>2019-11-08T07:14:41Z</time>
      </trkpt>
      <trkpt lat="43.50173" lon="2.65286">
        <ele>836</ele>
        <time>2019-11-08T07:15:10Z</time>
      </trkpt>
      <trkpt lat="43.50162" lon="2.65291">
        <ele>836</ele>
        <time>2019-11-08T07:15:20Z</time>
      </trkpt>
      <trkpt lat="43.50143" lon="2.65291">
        <ele>835</ele>
        <time>2019-11-08T07:15:35Z</time>
      </trkpt>
      <trkpt lat="43.5012" lon="2.65296">
        <ele>835</ele>
        <time>2019-11-08T07:15:53Z</time>
      </trkpt>
      <trkpt lat="43.50099" lon="2.65297">
        <ele>834</ele>
        <time>2019-11-08T07:16:10Z</time>
      </trkpt>
      <trkpt lat="43.50087" lon="2.65309">
        <ele>835</ele>
        <time>2019-11-08T07:16:22Z</time>
      </trkpt>
      <trkpt lat="43.50073" lon="2.65337">
        <ele>836</ele>
        <time>2019-11-08T07:16:42Z</time>
      </trkpt>
      <trkpt lat="43.50055" lon="2.6534">
        <ele>835</ele>
        <time>2019-11-08T07:16:56Z</time>
      </trkpt>
      <trkpt lat="43.50043" lon="2.65338">
        <ele>834</ele>
        <time>2019-11-08T07:17:06Z</time>
      </trkpt>
      <trkpt lat="43.50026" lon="2.65321">
        <ele>832</ele>
        <time>2019-11-08T07:17:23Z</time>
      </trkpt>
      <trkpt lat="43.50001" lon="2.6532">
        <ele>830</ele>
        <time>2019-11-08T07:17:43Z</time>
      </trkpt>
      <trkpt lat="43.49971" lon="2.65314">
        <ele>828</ele>
        <time>2019-11-08T07:18:07Z</time>
      </trkpt>
      <trkpt lat="43.49952" lon="2.65299">
        <ele>827</ele>
        <time>2019-11-08T07:18:25Z</time>
      </trkpt>
      <trkpt lat="43.49911" lon="2.65245">
        <ele>822</ele>
        <time>2019-11-08T07:19:10Z</time>
      </trkpt>
      <trkpt lat="43.49901" lon="2.65235">
        <ele>822</ele>
        <time>2019-11-08T07:19:20Z</time>
      </trkpt>
      <trkpt lat="43.49884" lon="2.65231">
        <ele>821</ele>
        <time>2019-11-08T07:19:34Z</time>
      </trkpt>
      <trkpt lat="43.49877" lon="2.65226">
        <ele>821</ele>
        <time>2019-11-08T07:19:40Z</time>
      </trkpt>
      <trkpt lat="43.49863" lon="2.65222">
        <ele>821</ele>
        <time>2019-11-08T07:19:52Z</time>
      </trkpt>
      <trkpt lat="43.49852" lon="2.65223">
        <ele>821</ele>
        <time>2019-11-08T07:20:00Z</time>
      </trkpt>
      <trkpt lat="43.49845" lon="2.65227">
        <ele>821</ele>
        <time>2019-11-08T07:20:06Z</time>
      </trkpt>
      <trkpt lat="43.4983" lon="2.65226">
        <ele>821</ele>
        <time>2019-11-08T07:20:19Z</time>
      </trkpt>
      <trkpt lat="43.49819" lon="2.65224">
        <ele>820</ele>
        <time>2019-11-08T07:20:27Z</time>
      </trkpt>
      <trkpt lat="43.49805" lon="2.65216">
        <ele>819</ele>
        <time>2019-11-08T07:20:40Z</time>
      </trkpt>
      <trkpt lat="43.498" lon="2.6521">
        <ele>818</ele>
        <time>2019-11-08T07:20:45Z</time>
      </trkpt>
      <trkpt lat="43.49785" lon="2.65176">
        <ele>817</ele>
        <time>2019-11-08T07:21:08Z</time>
      </trkpt>
      <trkpt lat="43.49775" lon="2.65169">
        <ele>816</ele>
        <time>2019-11-08T07:21:17Z</time>
      </trkpt>
      <trkpt lat="43.49766" lon="2.65158">
        <ele>816</ele>
        <time>2019-11-08T07:21:27Z</time>
      </trkpt>
      <trkpt lat="43.4974" lon="2.65152">
        <ele>815</ele>
        <time>2019-11-08T07:21:48Z</time>
      </trkpt>
      <trkpt lat="43.49831" lon="2.65128">
        <ele>815</ele>
        <time>2019-11-08T07:23:02Z</time>
      </trkpt>
      <trkpt lat="43.49851" lon="2.65118">
        <ele>814</ele>
        <time>2019-11-08T07:23:19Z</time>
      </trkpt>
      <trkpt lat="43.49887" lon="2.65088">
        <ele>813</ele>
        <time>2019-11-08T07:23:53Z</time>
      </trkpt>
      <trkpt lat="43.499" lon="2.65068">
        <ele>812</ele>
        <time>2019-11-08T07:24:08Z</time>
      </trkpt>
      <trkpt lat="43.49911" lon="2.65044">
        <ele>811</ele>
        <time>2019-11-08T07:24:25Z</time>
      </trkpt>
      <trkpt lat="43.49931" lon="2.6496">
        <ele>812</ele>
        <time>2019-11-08T07:25:16Z</time>
      </trkpt>
      <trkpt lat="43.49934" lon="2.64933">
        <ele>812</ele>
        <time>2019-11-08T07:25:32Z</time>
      </trkpt>
      <trkpt lat="43.49934" lon="2.6486">
        <ele>808</ele>
        <time>2019-11-08T07:26:14Z</time>
      </trkpt>
      <trkpt lat="43.49938" lon="2.64788">
        <ele>803</ele>
        <time>2019-11-08T07:26:56Z</time>
      </trkpt>
      <trkpt lat="43.4993" lon="2.64684">
        <ele>796</ele>
        <time>2019-11-08T07:27:57Z</time>
      </trkpt>
      <trkpt lat="43.49953" lon="2.64565">
        <ele>798</ele>
        <time>2019-11-08T07:29:08Z</time>
      </trkpt>
      <trkpt lat="43.49986" lon="2.64506">
        <ele>801</ele>
        <time>2019-11-08T07:29:52Z</time>
      </trkpt>
      <trkpt lat="43.50002" lon="2.64486">
        <ele>802</ele>
        <time>2019-11-08T07:30:09Z</time>
      </trkpt>
      <trkpt lat="43.50064" lon="2.6442">
        <ele>802</ele>
        <time>2019-11-08T07:31:12Z</time>
      </trkpt>
      <trkpt lat="43.50097" lon="2.64395">
        <ele>808</ele>
        <time>2019-11-08T07:31:42Z</time>
      </trkpt>
      <trkpt lat="43.501" lon="2.6439">
        <ele>808</ele>
        <time>2019-11-08T07:31:46Z</time>
      </trkpt>
      <trkpt lat="43.50101" lon="2.64378">
        <ele>808</ele>
        <time>2019-11-08T07:31:53Z</time>
      </trkpt>
      <trkpt lat="43.50099" lon="2.64369">
        <ele>808</ele>
        <time>2019-11-08T07:31:58Z</time>
      </trkpt>
      <trkpt lat="43.50093" lon="2.64361">
        <ele>807</ele>
        <time>2019-11-08T07:32:05Z</time>
      </trkpt>
      <trkpt lat="43.50052" lon="2.64331">
        <ele>802</ele>
        <time>2019-11-08T07:32:42Z</time>
      </trkpt>
      <trkpt lat="43.50037" lon="2.64323">
        <ele>803</ele>
        <time>2019-11-08T07:32:55Z</time>
      </trkpt>
      <trkpt lat="43.49946" lon="2.64314">
        <ele>795</ele>
        <time>2019-11-08T07:34:08Z</time>
      </trkpt>
      <trkpt lat="43.49906" lon="2.64319">
        <ele>788</ele>
        <time>2019-11-08T07:34:40Z</time>
      </trkpt>
      <trkpt lat="43.49815" lon="2.6432">
        <ele>775</ele>
        <time>2019-11-08T07:35:53Z</time>
      </trkpt>
      <trkpt lat="43.49781" lon="2.64315">
        <ele>771</ele>
        <time>2019-11-08T07:36:20Z</time>
      </trkpt>
      <trkpt lat="43.49707" lon="2.64299">
        <ele>766</ele>
        <time>2019-11-08T07:37:20Z</time>
      </trkpt>
      <trkpt lat="43.4965" lon="2.64296">
        <ele>760</ele>
        <time>2019-11-08T07:38:06Z</time>
      </trkpt>
      <trkpt lat="43.49621" lon="2.64283">
        <ele>759</ele>
        <time>2019-11-08T07:38:30Z</time>
      </trkpt>
      <trkpt lat="43.49586" lon="2.64261">
        <ele>758</ele>
        <time>2019-11-08T07:39:01Z</time>
      </trkpt>
      <trkpt lat="43.49554" lon="2.64257">
        <ele>755</ele>
        <time>2019-11-08T07:39:27Z</time>
      </trkpt>
      <trkpt lat="43.49517" lon="2.64258">
        <ele>749</ele>
        <time>2019-11-08T07:39:57Z</time>
      </trkpt>
      <trkpt lat="43.49495" lon="2.64255">
        <ele>747</ele>
        <time>2019-11-08T07:40:14Z</time>
      </trkpt>
      <trkpt lat="43.49478" lon="2.64251">
        <ele>747</ele>
        <time>2019-11-08T07:40:28Z</time>
      </trkpt>
      <trkpt lat="43.49452" lon="2.6424">
        <ele>748</ele>
        <time>2019-11-08T07:40:50Z</time>
      </trkpt>
      <trkpt lat="43.49414" lon="2.64239">
        <ele>745</ele>
        <time>2019-11-08T07:41:20Z</time>
      </trkpt>
      <trkpt lat="43.49388" lon="2.64244">
        <ele>741</ele>
        <time>2019-11-08T07:41:41Z</time>
      </trkpt>
      <trkpt lat="43.49327" lon="2.64244">
        <ele>735</ele>
        <time>2019-11-08T07:42:30Z</time>
      </trkpt>
      <trkpt lat="43.49276" lon="2.64241">
        <ele>731</ele>
        <time>2019-11-08T07:43:11Z</time>
      </trkpt>
      <trkpt lat="43.49181" lon="2.64244">
        <ele>721</ele>
        <time>2019-11-08T07:44:27Z</time>
      </trkpt>
      <trkpt lat="43.49143" lon="2.64237">
        <ele>718</ele>
        <time>2019-11-08T07:44:58Z</time>
      </trkpt>
      <trkpt lat="43.49093" lon="2.64206">
        <ele>718</ele>
        <time>2019-11-08T07:45:42Z</time>
      </trkpt>
      <trkpt lat="43.49058" lon="2.64196">
        <ele>715</ele>
        <time>2019-11-08T07:46:10Z</time>
      </trkpt>
      <trkpt lat="43.49036" lon="2.64177">
        <ele>714</ele>
        <time>2019-11-08T07:46:31Z</time>
      </trkpt>
      <trkpt lat="43.4902" lon="2.64171">
        <ele>712</ele>
        <time>2019-11-08T07:46:44Z</time>
      </trkpt>
      <trkpt lat="43.49009" lon="2.6417">
        <ele>710</ele>
        <time>2019-11-08T07:46:53Z</time>
      </trkpt>
      <trkpt lat="43.49007" lon="2.64176">
        <ele>709</ele>
        <time>2019-11-08T07:46:57Z</time>
      </trkpt>
      <trkpt lat="43.4901" lon="2.64184">
        <ele>709</ele>
        <time>2019-11-08T07:47:02Z</time>
      </trkpt>
      <trkpt lat="43.49035" lon="2.64198">
        <ele>710</ele>
        <time>2019-11-08T07:47:24Z</time>
      </trkpt>
      <trkpt lat="43.49046" lon="2.6421">
        <ele>710</ele>
        <time>2019-11-08T07:47:35Z</time>
      </trkpt>
      <trkpt lat="43.49083" lon="2.64261">
        <ele>703</ele>
        <time>2019-11-08T07:48:17Z</time>
      </trkpt>
      <trkpt lat="43.49114" lon="2.6431">
        <ele>696</ele>
        <time>2019-11-08T07:48:55Z</time>
      </trkpt>
      <trkpt lat="43.49133" lon="2.6433">
        <ele>692</ele>
        <time>2019-11-08T07:49:14Z</time>
      </trkpt>
      <trkpt lat="43.49149" lon="2.64337">
        <ele>692</ele>
        <time>2019-11-08T07:49:27Z</time>
      </trkpt>
      <trkpt lat="43.49191" lon="2.64347">
        <ele>693</ele>
        <time>2019-11-08T07:50:01Z</time>
      </trkpt>
      <trkpt lat="43.49225" lon="2.64363">
        <ele>693</ele>
        <time>2019-11-08T07:50:30Z</time>
      </trkpt>
      <trkpt lat="43.49234" lon="2.64371">
        <ele>693</ele>
        <time>2019-11-08T07:50:39Z</time>
      </trkpt>
      <trkpt lat="43.49231" lon="2.64383">
        <ele>691</ele>
        <time>2019-11-08T07:50:46Z</time>
      </trkpt>
      <trkpt lat="43.49205" lon="2.64394">
        <ele>687</ele>
        <time>2019-11-08T07:51:08Z</time>
      </trkpt>
      <trkpt lat="43.49155" lon="2.64436">
        <ele>682</ele>
        <time>2019-11-08T07:51:55Z</time>
      </trkpt>
      <trkpt lat="43.49147" lon="2.6444">
        <ele>683</ele>
        <time>2019-11-08T07:52:02Z</time>
      </trkpt>
      <trkpt lat="43.49136" lon="2.6444">
        <ele>682</ele>
        <time>2019-11-08T07:52:10Z</time>
      </trkpt>
      <trkpt lat="43.49108" lon="2.64425">
        <ele>679</ele>
        <time>2019-11-08T07:52:35Z</time>
      </trkpt>
      <trkpt lat="43.49086" lon="2.64423">
        <ele>678</ele>
        <time>2019-11-08T07:52:52Z</time>
      </trkpt>
      <trkpt lat="43.49057" lon="2.64425">
        <ele>677</ele>
        <time>2019-11-08T07:53:15Z</time>
      </trkpt>
      <trkpt lat="43.49014" lon="2.64439">
        <ele>678</ele>
        <time>2019-11-08T07:53:51Z</time>
      </trkpt>
      <trkpt lat="43.48997" lon="2.64448">
        <ele>679</ele>
        <time>2019-11-08T07:54:05Z</time>
      </trkpt>
      <trkpt lat="43.48974" lon="2.64469">
        <ele>678</ele>
        <time>2019-11-08T07:54:27Z</time>
      </trkpt>
      <trkpt lat="43.48947" lon="2.64502">
        <ele>676</ele>
        <time>2019-11-08T07:54:56Z</time>
      </trkpt>
      <trkpt lat="43.48912" lon="2.6453">
        <ele>675</ele>
        <time>2019-11-08T07:55:29Z</time>
      </trkpt>
      <trkpt lat="43.48884" lon="2.64548">
        <ele>677</ele>
        <time>2019-11-08T07:55:53Z</time>
      </trkpt>
      <trkpt lat="43.48847" lon="2.64563">
        <ele>676</ele>
        <time>2019-11-08T07:56:24Z</time>
      </trkpt>
      <trkpt lat="43.48821" lon="2.64565">
        <ele>676</ele>
        <time>2019-11-08T07:56:45Z</time>
      </trkpt>
      <trkpt lat="43.48806" lon="2.6456">
        <ele>676</ele>
        <time>2019-11-08T07:56:58Z</time>
      </trkpt>
      <trkpt lat="43.48785" lon="2.64545">
        <ele>675</ele>
        <time>2019-11-08T07:57:17Z</time>
      </trkpt>
      <trkpt lat="43.48766" lon="2.64525">
        <ele>673</ele>
        <time>2019-11-08T07:57:36Z</time>
      </trkpt>
      <trkpt lat="43.48753" lon="2.64517">
        <ele>673</ele>
        <time>2019-11-08T07:57:47Z</time>
      </trkpt>
      <trkpt lat="43.48732" lon="2.64511">
        <ele>670</ele>
        <time>2019-11-08T07:58:04Z</time>
      </trkpt>
      <trkpt lat="43.48718" lon="2.64513">
        <ele>669</ele>
        <time>2019-11-08T07:58:15Z</time>
      </trkpt>
      <trkpt lat="43.48707" lon="2.64523">
        <ele>670</ele>
        <time>2019-11-08T07:58:26Z</time>
      </trkpt>
      <trkpt lat="43.48688" lon="2.64551">
        <ele>671</ele>
        <time>2019-11-08T07:58:48Z</time>
      </trkpt>
      <trkpt lat="43.48659" lon="2.64608">
        <ele>671</ele>
        <time>2019-11-08T07:59:29Z</time>
      </trkpt>
      <trkpt lat="43.48647" lon="2.64642">
        <ele>671</ele>
        <time>2019-11-08T07:59:51Z</time>
      </trkpt>
      <trkpt lat="43.4864" lon="2.6465">
        <ele>670</ele>
        <time>2019-11-08T07:59:58Z</time>
      </trkpt>
      <trkpt lat="43.48641" lon="2.6467">
        <ele>671</ele>
        <time>2019-11-08T08:00:10Z</time>
      </trkpt>
      <trkpt lat="43.48647" lon="2.64696">
        <ele>669</ele>
        <time>2019-11-08T08:00:25Z</time>
      </trkpt>
      <trkpt lat="43.4864" lon="2.64702">
        <ele>668</ele>
        <time>2019-11-08T08:00:32Z</time>
      </trkpt>
      <trkpt lat="43.48625" lon="2.64702">
        <ele>665</ele>
        <time>2019-11-08T08:00:44Z</time>
      </trkpt>
      <trkpt lat="43.48625" lon="2.64722">
        <ele>663</ele>
        <time>2019-11-08T08:00:56Z</time>
      </trkpt>
      <trkpt lat="43.48606" lon="2.64758">
        <ele>655</ele>
        <time>2019-11-08T08:01:22Z</time>
      </trkpt>
      <trkpt lat="43.48585" lon="2.64782">
        <ele>643</ele>
        <time>2019-11-08T08:01:43Z</time>
      </trkpt>
      <trkpt lat="43.48561" lon="2.64771">
        <ele>646</ele>
        <time>2019-11-08T08:02:04Z</time>
      </trkpt>
      <trkpt lat="43.48553" lon="2.6477">
        <ele>646</ele>
        <time>2019-11-08T08:02:10Z</time>
      </trkpt>
      <trkpt lat="43.48538" lon="2.64773">
        <ele>645</ele>
        <time>2019-11-08T08:02:22Z</time>
      </trkpt>
      <trkpt lat="43.48508" lon="2.64804">
        <ele>634</ele>
        <time>2019-11-08T08:02:52Z</time>
      </trkpt>
      <trkpt lat="43.48491" lon="2.64817">
        <ele>629</ele>
        <time>2019-11-08T08:03:08Z</time>
      </trkpt>
      <trkpt lat="43.48465" lon="2.64832">
        <ele>620</ele>
        <time>2019-11-08T08:03:30Z</time>
      </trkpt>
      <trkpt lat="43.48442" lon="2.64837">
        <ele>616</ele>
        <time>2019-11-08T08:03:49Z</time>
      </trkpt>
      <trkpt lat="43.48415" lon="2.64833">
        <ele>613</ele>
        <time>2019-11-08T08:04:11Z</time>
      </trkpt>
      <trkpt lat="43.48369" lon="2.64812">
        <ele>604</ele>
        <time>2019-11-08T08:04:50Z</time>
      </trkpt>
      <trkpt lat="43.48347" lon="2.64793">
        <ele>602</ele>
        <time>2019-11-08T08:05:10Z</time>
      </trkpt>
      <trkpt lat="43.48338" lon="2.64788">
        <ele>601</ele>
        <time>2019-11-08T08:05:18Z</time>
      </trkpt>
      <trkpt lat="43.48313" lon="2.64793">
        <ele>590</ele>
        <time>2019-11-08T08:05:38Z</time>
      </trkpt>
      <trkpt lat="43.4832" lon="2.64816">
        <ele>587</ele>
        <time>2019-11-08T08:05:53Z</time>
      </trkpt>
      <trkpt lat="43.48308" lon="2.64806">
        <ele>585</ele>
        <time>2019-11-08T08:06:04Z</time>
      </trkpt>
      <trkpt lat="43.48305" lon="2.64819">
        <ele>580</ele>
        <time>2019-11-08T08:06:12Z</time>
      </trkpt>
      <trkpt lat="43.4825" lon="2.64755">
        <ele>576</ele>
        <time>2019-11-08T08:07:10Z</time>
      </trkpt>
      <trkpt lat="43.48232" lon="2.64743">
        <ele>573</ele>
        <time>2019-11-08T08:07:26Z</time>
      </trkpt>
      <trkpt lat="43.48215" lon="2.64738">
        <ele>569</ele>
        <time>2019-11-08T08:07:40Z</time>
      </trkpt>
      <trkpt lat="43.48183" lon="2.64706">
        <ele>564</ele>
        <time>2019-11-08T08:08:11Z</time>
      </trkpt>
      <trkpt lat="43.48149" lon="2.6468">
        <ele>557</ele>
        <time>2019-11-08T08:08:42Z</time>
      </trkpt>
      <trkpt lat="43.48131" lon="2.64671">
        <ele>553</ele>
        <time>2019-11-08T08:08:58Z</time>
      </trkpt>
      <trkpt lat="43.48091" lon="2.64658">
        <ele>542</ele>
        <time>2019-11-08T08:09:31Z</time>
      </trkpt>
      <trkpt lat="43.48064" lon="2.64629">
        <ele>537</ele>
        <time>2019-11-08T08:09:58Z</time>
      </trkpt>
      <trkpt lat="43.48053" lon="2.64641">
        <ele>538</ele>
        <time>2019-11-08T08:10:09Z</time>
      </trkpt>
      <trkpt lat="43.48041" lon="2.64648">
        <ele>539</ele>
        <time>2019-11-08T08:10:20Z</time>
      </trkpt>
      <trkpt lat="43.48033" lon="2.64633">
        <ele>537</ele>
        <time>2019-11-08T08:10:30Z</time>
      </trkpt>
      <trkpt lat="43.48017" lon="2.64616">
        <ele>534</ele>
        <time>2019-11-08T08:10:47Z</time>
      </trkpt>
      <trkpt lat="43.48014" lon="2.64597">
        <ele>531</ele>
        <time>2019-11-08T08:10:58Z</time>
      </trkpt>
      <trkpt lat="43.47978" lon="2.64533">
        <ele>519</ele>
        <time>2019-11-08T08:11:45Z</time>
      </trkpt>
      <trkpt lat="43.47884" lon="2.64398">
        <ele>493</ele>
        <time>2019-11-08T08:13:34Z</time>
      </trkpt>
      <trkpt lat="43.47872" lon="2.64378">
        <ele>490</ele>
        <time>2019-11-08T08:13:49Z</time>
      </trkpt>
      <trkpt lat="43.47867" lon="2.64359">
        <ele>485</ele>
        <time>2019-11-08T08:14:01Z</time>
      </trkpt>
      <trkpt lat="43.47795" lon="2.6426">
        <ele>459</ele>
        <time>2019-11-08T08:15:22Z</time>
      </trkpt>
      <trkpt lat="43.4778" lon="2.64247">
        <ele>455</ele>
        <time>2019-11-08T08:15:36Z</time>
      </trkpt>
      <trkpt lat="43.47765" lon="2.64241">
        <ele>453</ele>
        <time>2019-11-08T08:15:49Z</time>
      </trkpt>
      <trkpt lat="43.47752" lon="2.64248">
        <ele>454</ele>
        <time>2019-11-08T08:16:00Z</time>
      </trkpt>
      <trkpt lat="43.47742" lon="2.64256">
        <ele>453</ele>
        <time>2019-11-08T08:16:09Z</time>
      </trkpt>
      <trkpt lat="43.47707" lon="2.64305">
        <ele>449</ele>
        <time>2019-11-08T08:16:49Z</time>
      </trkpt>
      <trkpt lat="43.47704" lon="2.64292">
        <ele>446</ele>
        <time>2019-11-08T08:16:57Z</time>
      </trkpt>
      <trkpt lat="43.47705" lon="2.6427">
        <ele>442</ele>
        <time>2019-11-08T08:17:10Z</time>
      </trkpt>
      <trkpt lat="43.47713" lon="2.64209">
        <ele>433</ele>
        <time>2019-11-08T08:17:46Z</time>
      </trkpt>
      <trkpt lat="43.47737" lon="2.64126">
        <ele>420</ele>
        <time>2019-11-08T08:18:38Z</time>
      </trkpt>
      <trkpt lat="43.47749" lon="2.64102">
        <ele>417</ele>
        <time>2019-11-08T08:18:55Z</time>
      </trkpt>
      <trkpt lat="43.47747" lon="2.64099">
        <ele>416</ele>
        <time>2019-11-08T08:18:57Z</time>
      </trkpt>
      <trkpt lat="43.47741" lon="2.64098">
        <ele>415</ele>
        <time>2019-11-08T08:19:02Z</time>
      </trkpt>
      <trkpt lat="43.47704" lon="2.64117">
        <ele>413</ele>
        <time>2019-11-08T08:19:33Z</time>
      </trkpt>
      <trkpt lat="43.47696" lon="2.64118">
        <ele>412</ele>
        <time>2019-11-08T08:19:40Z</time>
      </trkpt>
      <trkpt lat="43.47683" lon="2.64136">
        <ele>412</ele>
        <time>2019-11-08T08:19:55Z</time>
      </trkpt>
      <trkpt lat="43.47628" lon="2.64198">
        <ele>410</ele>
        <time>2019-11-08T08:20:52Z</time>
      </trkpt>
      <trkpt lat="43.47618" lon="2.64216">
        <ele>410</ele>
        <time>2019-11-08T08:21:05Z</time>
      </trkpt>
      <trkpt lat="43.47604" lon="2.64224">
        <ele>407</ele>
        <time>2019-11-08T08:21:17Z</time>
      </trkpt>
      <trkpt lat="43.47611" lon="2.64198">
        <ele>407</ele>
        <time>2019-11-08T08:21:33Z</time>
      </trkpt>
      <trkpt lat="43.47617" lon="2.64142">
        <ele>403</ele>
        <time>2019-11-08T08:22:06Z</time>
      </trkpt>
      <trkpt lat="43.47632" lon="2.64104">
        <ele>402</ele>
        <time>2019-11-08T08:22:31Z</time>
      </trkpt>
      <trkpt lat="43.4764" lon="2.6407">
        <ele>400</ele>
        <time>2019-11-08T08:22:52Z</time>
      </trkpt>
      <trkpt lat="43.47642" lon="2.64019">
        <ele>398</ele>
        <time>2019-11-08T08:23:21Z</time>
      </trkpt>
      <trkpt lat="43.47632" lon="2.63919">
        <ele>394</ele>
        <time>2019-11-08T08:24:20Z</time>
      </trkpt>
      <trkpt lat="43.47626" lon="2.6392">
        <ele>394</ele>
        <time>2019-11-08T08:24:25Z</time>
      </trkpt>
      <trkpt lat="43.47602" lon="2.63933">
        <ele>394</ele>
        <time>2019-11-08T08:24:46Z</time>
      </trkpt>
      <trkpt lat="43.47583" lon="2.63947">
        <ele>393</ele>
        <time>2019-11-08T08:25:03Z</time>
      </trkpt>
      <trkpt lat="43.47557" lon="2.6396">
        <ele>394</ele>
        <time>2019-11-08T08:25:25Z</time>
      </trkpt>
      <trkpt lat="43.47521" lon="2.64">
        <ele>395</ele>
        <time>2019-11-08T08:26:02Z</time>
      </trkpt>
      <trkpt lat="43.47431" lon="2.63964">
        <ele>405</ele>
        <time>2019-11-08T08:27:17Z</time>
      </trkpt>
      <trkpt lat="43.47416" lon="2.6396">
        <ele>407</ele>
        <time>2019-11-08T08:27:29Z</time>
      </trkpt>
      <trkpt lat="43.47403" lon="2.63949">
        <ele>408</ele>
        <time>2019-11-08T08:27:41Z</time>
      </trkpt>
      <trkpt lat="43.47412" lon="2.63909">
        <ele>409</ele>
        <time>2019-11-08T08:28:06Z</time>
      </trkpt>
      <trkpt lat="43.47405" lon="2.63892">
        <ele>412</ele>
        <time>2019-11-08T08:28:17Z</time>
      </trkpt>
      <trkpt lat="43.47391" lon="2.63877">
        <ele>415</ele>
        <time>2019-11-08T08:28:31Z</time>
      </trkpt>
      <trkpt lat="43.47381" lon="2.6386">
        <ele>417</ele>
        <time>2019-11-08T08:28:44Z</time>
      </trkpt>
      <trkpt lat="43.47363" lon="2.63814">
        <ele>421</ele>
        <time>2019-11-08T08:29:14Z</time>
      </trkpt>
      <trkpt lat="43.47357" lon="2.63808">
        <ele>421</ele>
        <time>2019-11-08T08:29:20Z</time>
      </trkpt>
      <trkpt lat="43.47331" lon="2.63794">
        <ele>423</ele>
        <time>2019-11-08T08:29:43Z</time>
      </trkpt>
      <trkpt lat="43.47297" lon="2.63768">
        <ele>434</ele>
        <time>2019-11-08T08:30:14Z</time>
      </trkpt>
      <trkpt lat="43.47297" lon="2.63762">
        <ele>435</ele>
        <time>2019-11-08T08:30:17Z</time>
      </trkpt>
      <trkpt lat="43.47301" lon="2.63753">
        <ele>435</ele>
        <time>2019-11-08T08:30:23Z</time>
      </trkpt>
      <trkpt lat="43.47298" lon="2.63747">
        <ele>436</ele>
        <time>2019-11-08T08:30:28Z</time>
      </trkpt>
      <trkpt lat="43.47266" lon="2.63712">
        <ele>443</ele>
        <time>2019-11-08T08:31:00Z</time>
      </trkpt>
      <trkpt lat="43.47253" lon="2.63703">
        <ele>446</ele>
        <time>2019-11-08T08:31:12Z</time>
      </trkpt>
      <trkpt lat="43.47241" lon="2.63698">
        <ele>448</ele>
        <time>2019-11-08T08:31:22Z</time>
      </trkpt>
      <trkpt lat="43.47226" lon="2.63706">
        <ele>452</ele>
        <time>2019-11-08T08:31:35Z</time>
      </trkpt>
      <trkpt lat="43.47211" lon="2.63721">
        <ele>456</ele>
        <time>2019-11-08T08:31:50Z</time>
      </trkpt>
      <trkpt lat="43.47175" lon="2.63734">
        <ele>464</ele>
        <time>2019-11-08T08:32:20Z</time>
      </trkpt>
      <trkpt lat="43.47147" lon="2.63733">
        <ele>470</ele>
        <time>2019-11-08T08:32:42Z</time>
      </trkpt>
      <trkpt lat="43.4714" lon="2.6373">
        <ele>471</ele>
        <time>2019-11-08T08:32:48Z</time>
      </trkpt>
      <trkpt lat="43.47115" lon="2.63707">
        <ele>477</ele>
        <time>2019-11-08T08:33:12Z</time>
      </trkpt>
      <trkpt lat="43.47073" lon="2.63692">
        <ele>486</ele>
        <time>2019-11-08T08:33:47Z</time>
      </trkpt>
      <trkpt lat="43.46985" lon="2.63652">
        <ele>504</ele>
        <time>2019-11-08T08:35:01Z</time>
      </trkpt>
      <trkpt lat="43.46985" lon="2.63645">
        <ele>504</ele>
        <time>2019-11-08T08:35:05Z</time>
      </trkpt>
      <trkpt lat="43.46976" lon="2.63614">
        <ele>508</ele>
        <time>2019-11-08T08:35:24Z</time>
      </trkpt>
      <trkpt lat="43.46949" lon="2.63563">
        <ele>516</ele>
        <time>2019-11-08T08:36:01Z</time>
      </trkpt>
      <trkpt lat="43.46932" lon="2.63517">
        <ele>523</ele>
        <time>2019-11-08T08:36:31Z</time>
      </trkpt>
      <trkpt lat="43.46918" lon="2.63486">
        <ele>529</ele>
        <time>2019-11-08T08:36:52Z</time>
      </trkpt>
      <trkpt lat="43.46909" lon="2.63474">
        <ele>529</ele>
        <time>2019-11-08T08:37:02Z</time>
      </trkpt>
      <trkpt lat="43.46895" lon="2.63438">
        <ele>532</ele>
        <time>2019-11-08T08:37:26Z</time>
      </trkpt>
      <trkpt lat="43.46888" lon="2.63406">
        <ele>535</ele>
        <time>2019-11-08T08:37:45Z</time>
      </trkpt>
      <trkpt lat="43.46887" lon="2.63337">
        <ele>541</ele>
        <time>2019-11-08T08:38:26Z</time>
      </trkpt>
      <trkpt lat="43.46881" lon="2.63273">
        <ele>547</ele>
        <time>2019-11-08T08:39:03Z</time>
      </trkpt>
      <trkpt lat="43.46878" lon="2.63265">
        <ele>548</ele>
        <time>2019-11-08T08:39:08Z</time>
      </trkpt>
      <trkpt lat="43.46861" lon="2.6324">
        <ele>552</ele>
        <time>2019-11-08T08:39:28Z</time>
      </trkpt>
      <trkpt lat="43.46844" lon="2.63188">
        <ele>556</ele>
        <time>2019-11-08T08:40:01Z</time>
      </trkpt>
      <trkpt lat="43.4683" lon="2.63169">
        <ele>559</ele>
        <time>2019-11-08T08:40:17Z</time>
      </trkpt>
      <trkpt lat="43.468" lon="2.63149">
        <ele>560</ele>
        <time>2019-11-08T08:40:44Z</time>
      </trkpt>
      <trkpt lat="43.4678" lon="2.63141">
        <ele>562</ele>
        <time>2019-11-08T08:41:00Z</time>
      </trkpt>
      <trkpt lat="43.46756" lon="2.63122">
        <ele>565</ele>
        <time>2019-11-08T08:41:23Z</time>
      </trkpt>
      <trkpt lat="43.46726" lon="2.63055">
        <ele>570</ele>
        <time>2019-11-08T08:42:08Z</time>
      </trkpt>
      <trkpt lat="43.46717" lon="2.63042">
        <ele>572</ele>
        <time>2019-11-08T08:42:19Z</time>
      </trkpt>
      <trkpt lat="43.4671" lon="2.62998">
        <ele>573</ele>
        <time>2019-11-08T08:42:45Z</time>
      </trkpt>
      <trkpt lat="43.46704" lon="2.62984">
        <ele>575</ele>
        <time>2019-11-08T08:42:54Z</time>
      </trkpt>
      <trkpt lat="43.46676" lon="2.62958">
        <ele>583</ele>
        <time>2019-11-08T08:43:21Z</time>
      </trkpt>
      <trkpt lat="43.46657" lon="2.62919">
        <ele>590</ele>
        <time>2019-11-08T08:43:49Z</time>
      </trkpt>
      <trkpt lat="43.46658" lon="2.62913">
        <ele>591</ele>
        <time>2019-11-08T08:43:52Z</time>
      </trkpt>
      <trkpt lat="43.46663" lon="2.62907">
        <ele>591</ele>
        <time>2019-11-08T08:43:58Z</time>
      </trkpt>
      <trkpt lat="43.46685" lon="2.62891">
        <ele>590</ele>
        <time>2019-11-08T08:44:18Z</time>
      </trkpt>
      <trkpt lat="43.46713" lon="2.62859">
        <ele>591</ele>
        <time>2019-11-08T08:44:47Z</time>
      </trkpt>
      <trkpt lat="43.46751" lon="2.62833">
        <ele>587</ele>
        <time>2019-11-08T08:45:21Z</time>
      </trkpt>
      <trkpt lat="43.46772" lon="2.62799">
        <ele>587</ele>
        <time>2019-11-08T08:45:47Z</time>
      </trkpt>
      <trkpt lat="43.46777" lon="2.62771">
        <ele>592</ele>
        <time>2019-11-08T08:46:03Z</time>
      </trkpt>
      <trkpt lat="43.46776" lon="2.62748">
        <ele>597</ele>
        <time>2019-11-08T08:46:17Z</time>
      </trkpt>
      <trkpt lat="43.46797" lon="2.627">
        <ele>597</ele>
        <time>2019-11-08T08:46:49Z</time>
      </trkpt>
      <trkpt lat="43.46804" lon="2.62596">
        <ele>600</ele>
        <time>2019-11-08T08:47:50Z</time>
      </trkpt>
      <trkpt lat="43.46809" lon="2.62567">
        <ele>598</ele>
        <time>2019-11-08T08:48:07Z</time>
      </trkpt>
      <trkpt lat="43.46806" lon="2.62557">
        <ele>599</ele>
        <time>2019-11-08T08:48:14Z</time>
      </trkpt>
      <trkpt lat="43.46804" lon="2.62559">
        <ele>600</ele>
        <time>2019-11-08T08:48:16Z</time>
      </trkpt>
      <trkpt lat="43.46799" lon="2.62589">
        <ele>602</ele>
        <time>2019-11-08T08:48:33Z</time>
      </trkpt>
      <trkpt lat="43.46758" lon="2.62679">
        <ele>615</ele>
        <time>2019-11-08T08:49:35Z</time>
      </trkpt>
      <trkpt lat="43.46751" lon="2.62706">
        <ele>613</ele>
        <time>2019-11-08T08:49:52Z</time>
      </trkpt>
      <trkpt lat="43.4674" lon="2.6271">
        <ele>617</ele>
        <time>2019-11-08T08:50:01Z</time>
      </trkpt>
      <trkpt lat="43.4674" lon="2.62697">
        <ele>619</ele>
        <time>2019-11-08T08:50:09Z</time>
      </trkpt>
      <trkpt lat="43.46751" lon="2.62657">
        <ele>620</ele>
        <time>2019-11-08T08:50:33Z</time>
      </trkpt>
      <trkpt lat="43.46754" lon="2.62603">
        <ele>619</ele>
        <time>2019-11-08T08:51:05Z</time>
      </trkpt>
      <trkpt lat="43.46752" lon="2.6257">
        <ele>619</ele>
        <time>2019-11-08T08:51:24Z</time>
      </trkpt>
      <trkpt lat="43.46745" lon="2.62541">
        <ele>620</ele>
        <time>2019-11-08T08:51:42Z</time>
      </trkpt>
      <trkpt lat="43.46733" lon="2.62511">
        <ele>622</ele>
        <time>2019-11-08T08:52:02Z</time>
      </trkpt>
      <trkpt lat="43.467" lon="2.62462">
        <ele>625</ele>
        <time>2019-11-08T08:52:41Z</time>
      </trkpt>
      <trkpt lat="43.4668" lon="2.62448">
        <ele>628</ele>
        <time>2019-11-08T08:52:59Z</time>
      </trkpt>
      <trkpt lat="43.4667" lon="2.62445">
        <ele>630</ele>
        <time>2019-11-08T08:53:07Z</time>
      </trkpt>
      <trkpt lat="43.46609" lon="2.62414">
        <ele>647</ele>
        <time>2019-11-08T08:53:59Z</time>
      </trkpt>
      <trkpt lat="43.466" lon="2.62406">
        <ele>649</ele>
        <time>2019-11-08T08:54:07Z</time>
      </trkpt>
      <trkpt lat="43.46588" lon="2.62355">
        <ele>649</ele>
        <time>2019-11-08T08:54:39Z</time>
      </trkpt>
      <trkpt lat="43.46587" lon="2.62266">
        <ele>646</ele>
        <time>2019-11-08T08:55:30Z</time>
      </trkpt>
      <trkpt lat="43.46584" lon="2.62266">
        <ele>647</ele>
        <time>2019-11-08T08:55:33Z</time>
      </trkpt>
      <trkpt lat="43.46566" lon="2.62337">
        <ele>656</ele>
        <time>2019-11-08T08:56:16Z</time>
      </trkpt>
      <trkpt lat="43.46561" lon="2.62399">
        <ele>663</ele>
        <time>2019-11-08T08:56:53Z</time>
      </trkpt>
      <trkpt lat="43.46551" lon="2.62441">
        <ele>671</ele>
        <time>2019-11-08T08:57:18Z</time>
      </trkpt>
      <trkpt lat="43.4655" lon="2.62455">
        <ele>672</ele>
        <time>2019-11-08T08:57:27Z</time>
      </trkpt>
      <trkpt lat="43.46553" lon="2.62472">
        <ele>673</ele>
        <time>2019-11-08T08:57:37Z</time>
      </trkpt>
      <trkpt lat="43.46573" lon="2.62485">
        <ele>668</ele>
        <time>2019-11-08T08:57:54Z</time>
      </trkpt>
      <trkpt lat="43.46599" lon="2.62516">
        <ele>663</ele>
        <time>2019-11-08T08:58:22Z</time>
      </trkpt>
      <trkpt lat="43.46611" lon="2.62544">
        <ele>662</ele>
        <time>2019-11-08T08:58:41Z</time>
      </trkpt>
      <trkpt lat="43.46612" lon="2.62571">
        <ele>664</ele>
        <time>2019-11-08T08:58:57Z</time>
      </trkpt>
      <trkpt lat="43.4661" lon="2.62579">
        <ele>665</ele>
        <time>2019-11-08T08:59:01Z</time>
      </trkpt>
      <trkpt lat="43.46603" lon="2.6259">
        <ele>667</ele>
        <time>2019-11-08T08:59:10Z</time>
      </trkpt>
      <trkpt lat="43.46589" lon="2.62603">
        <ele>669</ele>
        <time>2019-11-08T08:59:23Z</time>
      </trkpt>
      <trkpt lat="43.46577" lon="2.62608">
        <ele>671</ele>
        <time>2019-11-08T08:59:34Z</time>
      </trkpt>
      <trkpt lat="43.46564" lon="2.626">
        <ele>674</ele>
        <time>2019-11-08T08:59:45Z</time>
      </trkpt>
      <trkpt lat="43.46539" lon="2.62564">
        <ele>680</ele>
        <time>2019-11-08T09:00:14Z</time>
      </trkpt>
      <trkpt lat="43.46515" lon="2.62522">
        <ele>685</ele>
        <time>2019-11-08T09:00:45Z</time>
      </trkpt>
      <trkpt lat="43.46502" lon="2.62473">
        <ele>689</ele>
        <time>2019-11-08T09:01:15Z</time>
      </trkpt>
      <trkpt lat="43.4649" lon="2.6239">
        <ele>690</ele>
        <time>2019-11-08T09:02:04Z</time>
      </trkpt>
      <trkpt lat="43.46479" lon="2.62332">
        <ele>689</ele>
        <time>2019-11-08T09:02:39Z</time>
      </trkpt>
      <trkpt lat="43.46474" lon="2.62332">
        <ele>691</ele>
        <time>2019-11-08T09:02:43Z</time>
      </trkpt>
      <trkpt lat="43.46472" lon="2.62337">
        <ele>692</ele>
        <time>2019-11-08T09:02:47Z</time>
      </trkpt>
      <trkpt lat="43.46475" lon="2.6237">
        <ele>694</ele>
        <time>2019-11-08T09:03:06Z</time>
      </trkpt>
      <trkpt lat="43.46469" lon="2.62394">
        <ele>698</ele>
        <time>2019-11-08T09:03:21Z</time>
      </trkpt>
      <trkpt lat="43.46452" lon="2.62354">
        <ele>700</ele>
        <time>2019-11-08T09:03:48Z</time>
      </trkpt>
      <trkpt lat="43.46437" lon="2.6234">
        <ele>703</ele>
        <time>2019-11-08T09:04:02Z</time>
      </trkpt>
      <trkpt lat="43.4643" lon="2.62339">
        <ele>705</ele>
        <time>2019-11-08T09:04:08Z</time>
      </trkpt>
      <trkpt lat="43.46427" lon="2.62346">
        <ele>707</ele>
        <time>2019-11-08T09:04:12Z</time>
      </trkpt>
      <trkpt lat="43.46429" lon="2.62377">
        <ele>710</ele>
        <time>2019-11-08T09:04:31Z</time>
      </trkpt>
      <trkpt lat="43.46427" lon="2.6238">
        <ele>711</ele>
        <time>2019-11-08T09:04:33Z</time>
      </trkpt>
      <trkpt lat="43.46413" lon="2.62368">
        <ele>713</ele>
        <time>2019-11-08T09:04:46Z</time>
      </trkpt>
      <trkpt lat="43.46389" lon="2.62361">
        <ele>718</ele>
        <time>2019-11-08T09:05:06Z</time>
      </trkpt>
      <trkpt lat="43.4638" lon="2.62363">
        <ele>720</ele>
        <time>2019-11-08T09:05:13Z</time>
      </trkpt>
      <trkpt lat="43.4636" lon="2.62355">
        <ele>722</ele>
        <time>2019-11-08T09:05:30Z</time>
      </trkpt>
      <trkpt lat="43.46349" lon="2.62362">
        <ele>726</ele>
        <time>2019-11-08T09:05:39Z</time>
      </trkpt>
      <trkpt lat="43.4633" lon="2.62364">
        <ele>730</ele>
        <time>2019-11-08T09:05:55Z</time>
      </trkpt>
      <trkpt lat="43.46323" lon="2.62362">
        <ele>731</ele>
        <time>2019-11-08T09:06:00Z</time>
      </trkpt>
      <trkpt lat="43.46318" lon="2.62357">
        <ele>731</ele>
        <time>2019-11-08T09:06:05Z</time>
      </trkpt>
      <trkpt lat="43.46303" lon="2.62368">
        <ele>735</ele>
        <time>2019-11-08T09:06:19Z</time>
      </trkpt>
      <trkpt lat="43.46281" lon="2.62373">
        <ele>740</ele>
        <time>2019-11-08T09:06:37Z</time>
      </trkpt>
      <trkpt lat="43.46271" lon="2.62394">
        <ele>744</ele>
        <time>2019-11-08T09:06:51Z</time>
      </trkpt>
      <trkpt lat="43.46266" lon="2.62396">
        <ele>745</ele>
        <time>2019-11-08T09:06:56Z</time>
      </trkpt>
      <trkpt lat="43.46248" lon="2.62396">
        <ele>748</ele>
        <time>2019-11-08T09:07:10Z</time>
      </trkpt>
      <trkpt lat="43.46226" lon="2.6241">
        <ele>753</ele>
        <time>2019-11-08T09:07:29Z</time>
      </trkpt>
      <trkpt lat="43.46216" lon="2.62407">
        <ele>754</ele>
        <time>2019-11-08T09:07:38Z</time>
      </trkpt>
      <trkpt lat="43.46158" lon="2.62378">
        <ele>759</ele>
        <time>2019-11-08T09:08:27Z</time>
      </trkpt>
      <trkpt lat="43.46091" lon="2.62353">
        <ele>769</ele>
        <time>2019-11-08T09:09:23Z</time>
      </trkpt>
      <trkpt lat="43.46081" lon="2.62345">
        <ele>771</ele>
        <time>2019-11-08T09:09:32Z</time>
      </trkpt>
      <trkpt lat="43.46076" lon="2.62313">
        <ele>771</ele>
        <time>2019-11-08T09:09:51Z</time>
      </trkpt>
      <trkpt lat="43.46073" lon="2.62253">
        <ele>769</ele>
        <time>2019-11-08T09:10:26Z</time>
      </trkpt>
      <trkpt lat="43.46074" lon="2.62228">
        <ele>769</ele>
        <time>2019-11-08T09:10:40Z</time>
      </trkpt>
      <trkpt lat="43.46051" lon="2.62145">
        <ele>786</ele>
        <time>2019-11-08T09:11:32Z</time>
      </trkpt>
      <trkpt lat="43.46049" lon="2.62123">
        <ele>789</ele>
        <time>2019-11-08T09:11:45Z</time>
      </trkpt>
      <trkpt lat="43.46042" lon="2.62093">
        <ele>795</ele>
        <time>2019-11-08T09:12:03Z</time>
      </trkpt>
      <trkpt lat="43.46049" lon="2.62057">
        <ele>794</ele>
        <time>2019-11-08T09:12:25Z</time>
      </trkpt>
      <trkpt lat="43.46049" lon="2.62044">
        <ele>795</ele>
        <time>2019-11-08T09:12:32Z</time>
      </trkpt>
      <trkpt lat="43.46044" lon="2.61998">
        <ele>800</ele>
        <time>2019-11-08T09:12:59Z</time>
      </trkpt>
      <trkpt lat="43.46034" lon="2.61835">
        <ele>799</ele>
        <time>2019-11-08T09:14:35Z</time>
      </trkpt>
      <trkpt lat="43.46026" lon="2.61765">
        <ele>800</ele>
        <time>2019-11-08T09:15:16Z</time>
      </trkpt>
      <trkpt lat="43.46021" lon="2.61744">
        <ele>802</ele>
        <time>2019-11-08T09:15:29Z</time>
      </trkpt>
      <trkpt lat="43.45992" lon="2.61667">
        <ele>810</ele>
        <time>2019-11-08T09:16:19Z</time>
      </trkpt>
      <trkpt lat="43.45976" lon="2.61606">
        <ele>815</ele>
        <time>2019-11-08T09:16:57Z</time>
      </trkpt>
      <trkpt lat="43.45958" lon="2.61522">
        <ele>817</ele>
        <time>2019-11-08T09:17:48Z</time>
      </trkpt>
      <trkpt lat="43.4592" lon="2.61451">
        <ele>821</ele>
        <time>2019-11-08T09:18:39Z</time>
      </trkpt>
      <trkpt lat="43.45891" lon="2.61423">
        <ele>821</ele>
        <time>2019-11-08T09:19:07Z</time>
      </trkpt>
      <trkpt lat="43.45886" lon="2.61425">
        <ele>822</ele>
        <time>2019-11-08T09:19:11Z</time>
      </trkpt>
      <trkpt lat="43.45881" lon="2.61421">
        <ele>822</ele>
        <time>2019-11-08T09:19:16Z</time>
      </trkpt>
      <trkpt lat="43.45876" lon="2.61421">
        <ele>823</ele>
        <time>2019-11-08T09:19:20Z</time>
      </trkpt>
      <trkpt lat="43.45867" lon="2.61425">
        <ele>825</ele>
        <time>2019-11-08T09:19:28Z</time>
      </trkpt>
      <trkpt lat="43.45852" lon="2.61425">
        <ele>828</ele>
        <time>2019-11-08T09:19:40Z</time>
      </trkpt>
      <trkpt lat="43.45846" lon="2.61418">
        <ele>828</ele>
        <time>2019-11-08T09:19:46Z</time>
      </trkpt>
      <trkpt lat="43.45846" lon="2.61402">
        <ele>826</ele>
        <time>2019-11-08T09:19:55Z</time>
      </trkpt>
      <trkpt lat="43.45822" lon="2.61277">
        <ele>818</ele>
        <time>2019-11-08T09:21:10Z</time>
      </trkpt>
      <trkpt lat="43.45804" lon="2.61207">
        <ele>815</ele>
        <time>2019-11-08T09:21:53Z</time>
      </trkpt>
      <trkpt lat="43.45787" lon="2.61156">
        <ele>813</ele>
        <time>2019-11-08T09:22:26Z</time>
      </trkpt>
      <trkpt lat="43.45758" lon="2.61144">
        <ele>817</ele>
        <time>2019-11-08T09:22:50Z</time>
      </trkpt>
      <trkpt lat="43.45725" lon="2.61142">
        <ele>821</ele>
        <time>2019-11-08T09:23:17Z</time>
      </trkpt>
      <trkpt lat="43.45716" lon="2.61146">
        <ele>822</ele>
        <time>2019-11-08T09:23:24Z</time>
      </trkpt>
      <trkpt lat="43.45691" lon="2.61166">
        <ele>824</ele>
        <time>2019-11-08T09:23:47Z</time>
      </trkpt>
      <trkpt lat="43.45684" lon="2.61167">
        <ele>825</ele>
        <time>2019-11-08T09:23:53Z</time>
      </trkpt>
      <trkpt lat="43.45672" lon="2.61156">
        <ele>825</ele>
        <time>2019-11-08T09:24:05Z</time>
      </trkpt>
      <trkpt lat="43.45667" lon="2.61139">
        <ele>827</ele>
        <time>2019-11-08T09:24:15Z</time>
      </trkpt>
      <trkpt lat="43.45667" lon="2.61119">
        <ele>828</ele>
        <time>2019-11-08T09:24:27Z</time>
      </trkpt>
      <trkpt lat="43.4567" lon="2.61102">
        <ele>828</ele>
        <time>2019-11-08T09:24:37Z</time>
      </trkpt>
      <trkpt lat="43.45678" lon="2.61061">
        <ele>830</ele>
        <time>2019-11-08T09:25:02Z</time>
      </trkpt>
      <trkpt lat="43.45688" lon="2.6103">
        <ele>832</ele>
        <time>2019-11-08T09:25:22Z</time>
      </trkpt>
      <trkpt lat="43.45705" lon="2.6099">
        <ele>831</ele>
        <time>2019-11-08T09:25:48Z</time>
      </trkpt>
      <trkpt lat="43.45748" lon="2.60904">
        <ele>825</ele>
        <time>2019-11-08T09:26:49Z</time>
      </trkpt>
      <trkpt lat="43.45739" lon="2.60857">
        <ele>828</ele>
        <time>2019-11-08T09:27:17Z</time>
      </trkpt>
      <trkpt lat="43.45732" lon="2.60763">
        <ele>823</ele>
        <time>2019-11-08T09:28:12Z</time>
      </trkpt>
      <trkpt lat="43.45699" lon="2.60567">
        <ele>809</ele>
        <time>2019-11-08T09:30:09Z</time>
      </trkpt>
      <trkpt lat="43.45699" lon="2.60542">
        <ele>805</ele>
        <time>2019-11-08T09:30:24Z</time>
      </trkpt>
      <trkpt lat="43.45679" lon="2.60499">
        <ele>805</ele>
        <time>2019-11-08T09:30:53Z</time>
      </trkpt>
      <trkpt lat="43.45675" lon="2.60484">
        <ele>804</ele>
        <time>2019-11-08T09:31:03Z</time>
      </trkpt>
      <trkpt lat="43.45672" lon="2.60418">
        <ele>791</ele>
        <time>2019-11-08T09:31:41Z</time>
      </trkpt>
      <trkpt lat="43.45664" lon="2.60407">
        <ele>790</ele>
        <time>2019-11-08T09:31:50Z</time>
      </trkpt>
      <trkpt lat="43.4565" lon="2.60373">
        <ele>783</ele>
        <time>2019-11-08T09:32:13Z</time>
      </trkpt>
      <trkpt lat="43.45653" lon="2.60336">
        <ele>777</ele>
        <time>2019-11-08T09:32:35Z</time>
      </trkpt>
      <trkpt lat="43.4567" lon="2.60299">
        <ele>773</ele>
        <time>2019-11-08T09:33:00Z</time>
      </trkpt>
      <trkpt lat="43.4568" lon="2.60283">
        <ele>770</ele>
        <time>2019-11-08T09:33:12Z</time>
      </trkpt>
      <trkpt lat="43.45696" lon="2.60243">
        <ele>766</ele>
        <time>2019-11-08T09:33:39Z</time>
      </trkpt>
      <trkpt lat="43.45628" lon="2.60275">
        <ele>768</ele>
        <time>2019-11-08T09:34:36Z</time>
      </trkpt>
      <trkpt lat="43.45586" lon="2.60302">
        <ele>769</ele>
        <time>2019-11-08T09:35:14Z</time>
      </trkpt>
      <trkpt lat="43.45564" lon="2.60329">
        <ele>774</ele>
        <time>2019-11-08T09:35:37Z</time>
      </trkpt>
      <trkpt lat="43.4556" lon="2.60329">
        <ele>774</ele>
        <time>2019-11-08T09:35:40Z</time>
      </trkpt>
      <trkpt lat="43.45552" lon="2.60322">
        <ele>774</ele>
        <time>2019-11-08T09:35:48Z</time>
      </trkpt>
      <trkpt lat="43.45531" lon="2.60293">
        <ele>771</ele>
        <time>2019-11-08T09:36:12Z</time>
      </trkpt>
      <trkpt lat="43.45522" lon="2.6029">
        <ele>771</ele>
        <time>2019-11-08T09:36:19Z</time>
      </trkpt>
      <trkpt lat="43.45495" lon="2.60291">
        <ele>772</ele>
        <time>2019-11-08T09:36:41Z</time>
      </trkpt>
      <trkpt lat="43.45483" lon="2.60297">
        <ele>772</ele>
        <time>2019-11-08T09:36:51Z</time>
      </trkpt>
      <trkpt lat="43.45449" lon="2.60349">
        <ele>776</ele>
        <time>2019-11-08T09:37:32Z</time>
      </trkpt>
      <trkpt lat="43.45444" lon="2.60349">
        <ele>776</ele>
        <time>2019-11-08T09:37:36Z</time>
      </trkpt>
      <trkpt lat="43.45403" lon="2.60367">
        <ele>777</ele>
        <time>2019-11-08T09:38:10Z</time>
      </trkpt>
      <trkpt lat="43.45384" lon="2.60384">
        <ele>779</ele>
        <time>2019-11-08T09:38:28Z</time>
      </trkpt>
      <trkpt lat="43.45351" lon="2.60421">
        <ele>780</ele>
        <time>2019-11-08T09:39:02Z</time>
      </trkpt>
      <trkpt lat="43.45345" lon="2.60451">
        <ele>782</ele>
        <time>2019-11-08T09:39:20Z</time>
      </trkpt>
      <trkpt lat="43.45348" lon="2.6049">
        <ele>785</ele>
        <time>2019-11-08T09:39:43Z</time>
      </trkpt>
      <trkpt lat="43.45346" lon="2.60503">
        <ele>786</ele>
        <time>2019-11-08T09:39:51Z</time>
      </trkpt>
      <trkpt lat="43.45333" lon="2.60512">
        <ele>785</ele>
        <time>2019-11-08T09:40:03Z</time>
      </trkpt>
      <trkpt lat="43.45316" lon="2.60516">
        <ele>788</ele>
        <time>2019-11-08T09:40:16Z</time>
      </trkpt>
      <trkpt lat="43.45288" lon="2.60533">
        <ele>793</ele>
        <time>2019-11-08T09:40:41Z</time>
      </trkpt>
      <trkpt lat="43.45283" lon="2.60533">
        <ele>793</ele>
        <time>2019-11-08T09:40:45Z</time>
      </trkpt>
      <trkpt lat="43.45273" lon="2.60522">
        <ele>794</ele>
        <time>2019-11-08T09:40:55Z</time>
      </trkpt>
      <trkpt lat="43.45274" lon="2.60477">
        <ele>793</ele>
        <time>2019-11-08T09:41:21Z</time>
      </trkpt>
      <trkpt lat="43.45266" lon="2.60444">
        <ele>793</ele>
        <time>2019-11-08T09:41:42Z</time>
      </trkpt>
      <trkpt lat="43.45256" lon="2.6043">
        <ele>795</ele>
        <time>2019-11-08T09:41:53Z</time>
      </trkpt>
      <trkpt lat="43.45229" lon="2.60412">
        <ele>796</ele>
        <time>2019-11-08T09:42:17Z</time>
      </trkpt>
      <trkpt lat="43.45215" lon="2.60411">
        <ele>796</ele>
        <time>2019-11-08T09:42:28Z</time>
      </trkpt>
      <trkpt lat="43.45199" lon="2.60405">
        <ele>796</ele>
        <time>2019-11-08T09:42:41Z</time>
      </trkpt>
      <trkpt lat="43.45191" lon="2.60405">
        <ele>796</ele>
        <time>2019-11-08T09:42:48Z</time>
      </trkpt>
      <trkpt lat="43.4515" lon="2.60419">
        <ele>797</ele>
        <time>2019-11-08T09:43:22Z</time>
      </trkpt>
      <trkpt lat="43.45128" lon="2.60421">
        <ele>797</ele>
        <time>2019-11-08T09:43:39Z</time>
      </trkpt>
      <trkpt lat="43.45105" lon="2.60417">
        <ele>796</ele>
        <time>2019-11-08T09:43:58Z</time>
      </trkpt>
      <trkpt lat="43.45079" lon="2.60406">
        <ele>794</ele>
        <time>2019-11-08T09:44:20Z</time>
      </trkpt>
      <trkpt lat="43.45045" lon="2.60403">
        <ele>792</ele>
        <time>2019-11-08T09:44:47Z</time>
      </trkpt>
      <trkpt lat="43.45016" lon="2.60406">
        <ele>790</ele>
        <time>2019-11-08T09:45:10Z</time>
      </trkpt>
      <trkpt lat="43.44995" lon="2.60416">
        <ele>790</ele>
        <time>2019-11-08T09:45:28Z</time>
      </trkpt>
      <trkpt lat="43.44955" lon="2.6046">
        <ele>785</ele>
        <time>2019-11-08T09:46:09Z</time>
      </trkpt>
      <trkpt lat="43.44936" lon="2.60495">
        <ele>785</ele>
        <time>2019-11-08T09:46:34Z</time>
      </trkpt>
      <trkpt lat="43.44924" lon="2.60523">
        <ele>784</ele>
        <time>2019-11-08T09:46:53Z</time>
      </trkpt>
      <trkpt lat="43.44919" lon="2.60542">
        <ele>785</ele>
        <time>2019-11-08T09:47:05Z</time>
      </trkpt>
      <trkpt lat="43.44918" lon="2.60581">
        <ele>789</ele>
        <time>2019-11-08T09:47:28Z</time>
      </trkpt>
      <trkpt lat="43.44912" lon="2.60592">
        <ele>789</ele>
        <time>2019-11-08T09:47:36Z</time>
      </trkpt>
      <trkpt lat="43.44901" lon="2.60601">
        <ele>788</ele>
        <time>2019-11-08T09:47:46Z</time>
      </trkpt>
      <trkpt lat="43.44873" lon="2.60605">
        <ele>780</ele>
        <time>2019-11-08T09:48:09Z</time>
      </trkpt>
      <trkpt lat="43.44863" lon="2.60618">
        <ele>780</ele>
        <time>2019-11-08T09:48:20Z</time>
      </trkpt>
      <trkpt lat="43.44829" lon="2.60641">
        <ele>776</ele>
        <time>2019-11-08T09:48:50Z</time>
      </trkpt>
      <trkpt lat="43.4482" lon="2.60664">
        <ele>779</ele>
        <time>2019-11-08T09:49:05Z</time>
      </trkpt>
      <trkpt lat="43.44807" lon="2.60684">
        <ele>779</ele>
        <time>2019-11-08T09:49:21Z</time>
      </trkpt>
      <trkpt lat="43.44754" lon="2.6074">
        <ele>777</ele>
        <time>2019-11-08T09:50:14Z</time>
      </trkpt>
      <trkpt lat="43.44703" lon="2.60784">
        <ele>768</ele>
        <time>2019-11-08T09:51:02Z</time>
      </trkpt>
      <trkpt lat="43.44651" lon="2.60857">
        <ele>765</ele>
        <time>2019-11-08T09:52:02Z</time>
      </trkpt>
      <trkpt lat="43.44591" lon="2.60918">
        <ele>751</ele>
        <time>2019-11-08T09:53:01Z</time>
      </trkpt>
      <trkpt lat="43.44589" lon="2.60971">
        <ele>753</ele>
        <time>2019-11-08T09:53:32Z</time>
      </trkpt>
      <trkpt lat="43.44613" lon="2.6107">
        <ele>760</ele>
        <time>2019-11-08T09:54:33Z</time>
      </trkpt>
      <trkpt lat="43.44617" lon="2.61118">
        <ele>763</ele>
        <time>2019-11-08T09:55:01Z</time>
      </trkpt>
      <trkpt lat="43.44615" lon="2.61176">
        <ele>767</ele>
        <time>2019-11-08T09:55:35Z</time>
      </trkpt>
      <trkpt lat="43.44605" lon="2.61238">
        <ele>773</ele>
        <time>2019-11-08T09:56:12Z</time>
      </trkpt>
      <trkpt lat="43.44598" lon="2.61249">
        <ele>772</ele>
        <time>2019-11-08T09:56:20Z</time>
      </trkpt>
      <trkpt lat="43.44592" lon="2.61251">
        <ele>771</ele>
        <time>2019-11-08T09:56:25Z</time>
      </trkpt>
      <trkpt lat="43.44583" lon="2.61235">
        <ele>767</ele>
        <time>2019-11-08T09:56:37Z</time>
      </trkpt>
      <trkpt lat="43.44563" lon="2.61218">
        <ele>768</ele>
        <time>2019-11-08T09:56:56Z</time>
      </trkpt>
      <trkpt lat="43.44519" lon="2.61167">
        <ele>767</ele>
        <time>2019-11-08T09:57:42Z</time>
      </trkpt>
      <trkpt lat="43.4451" lon="2.61161">
        <ele>767</ele>
        <time>2019-11-08T09:57:50Z</time>
      </trkpt>
      <trkpt lat="43.44457" lon="2.61144">
        <ele>768</ele>
        <time>2019-11-08T09:58:33Z</time>
      </trkpt>
      <trkpt lat="43.44416" lon="2.61139">
        <ele>771</ele>
        <time>2019-11-08T09:59:06Z</time>
      </trkpt>
      <trkpt lat="43.44352" lon="2.61157">
        <ele>775</ele>
        <time>2019-11-08T09:59:59Z</time>
      </trkpt>
      <trkpt lat="43.44289" lon="2.61244">
        <ele>787</ele>
        <time>2019-11-08T10:01:10Z</time>
      </trkpt>
      <trkpt lat="43.44296" lon="2.61281">
        <ele>793</ele>
        <time>2019-11-08T10:01:32Z</time>
      </trkpt>
      <trkpt lat="43.44294" lon="2.61291">
        <ele>794</ele>
        <time>2019-11-08T10:01:38Z</time>
      </trkpt>
      <trkpt lat="43.4428" lon="2.61298">
        <ele>794</ele>
        <time>2019-11-08T10:01:50Z</time>
      </trkpt>
      <trkpt lat="43.44226" lon="2.61317">
        <ele>794</ele>
        <time>2019-11-08T10:02:35Z</time>
      </trkpt>
      <trkpt lat="43.44187" lon="2.61324">
        <ele>796</ele>
        <time>2019-11-08T10:03:06Z</time>
      </trkpt>
      <trkpt lat="43.44169" lon="2.61324">
        <ele>796</ele>
        <time>2019-11-08T10:03:21Z</time>
      </trkpt>
      <trkpt lat="43.4413" lon="2.61285">
        <ele>796</ele>
        <time>2019-11-08T10:03:59Z</time>
      </trkpt>
      <trkpt lat="43.44097" lon="2.61281">
        <ele>798</ele>
        <time>2019-11-08T10:04:26Z</time>
      </trkpt>
      <trkpt lat="43.44077" lon="2.6127">
        <ele>798</ele>
        <time>2019-11-08T10:04:43Z</time>
      </trkpt>
      <trkpt lat="43.44074" lon="2.61275">
        <ele>798</ele>
        <time>2019-11-08T10:04:47Z</time>
      </trkpt>
      <trkpt lat="43.4407" lon="2.61263">
        <ele>797</ele>
        <time>2019-11-08T10:04:55Z</time>
      </trkpt>
      <trkpt lat="43.44059" lon="2.61256">
        <ele>796</ele>
        <time>2019-11-08T10:05:04Z</time>
      </trkpt>
      <trkpt lat="43.44038" lon="2.61259">
        <ele>795</ele>
        <time>2019-11-08T10:05:21Z</time>
      </trkpt>
      <trkpt lat="43.43995" lon="2.61275">
        <ele>794</ele>
        <time>2019-11-08T10:05:57Z</time>
      </trkpt>
      <trkpt lat="43.43971" lon="2.61281">
        <ele>791</ele>
        <time>2019-11-08T10:06:16Z</time>
      </trkpt>
      <trkpt lat="43.43944" lon="2.61299">
        <ele>789</ele>
        <time>2019-11-08T10:06:40Z</time>
      </trkpt>
      <trkpt lat="43.43932" lon="2.61312">
        <ele>789</ele>
        <time>2019-11-08T10:06:53Z</time>
      </trkpt>
      <trkpt lat="43.43852" lon="2.61426">
        <ele>786</ele>
        <time>2019-11-08T10:08:25Z</time>
      </trkpt>
      <trkpt lat="43.43842" lon="2.61444">
        <ele>787</ele>
        <time>2019-11-08T10:08:38Z</time>
      </trkpt>
      <trkpt lat="43.43779" lon="2.61522">
        <ele>781</ele>
        <time>2019-11-08T10:09:46Z</time>
      </trkpt>
      <trkpt lat="43.43766" lon="2.61535">
        <ele>778</ele>
        <time>2019-11-08T10:09:59Z</time>
      </trkpt>
      <trkpt lat="43.43763" lon="2.61546">
        <ele>778</ele>
        <time>2019-11-08T10:10:06Z</time>
      </trkpt>
      <trkpt lat="43.43765" lon="2.61572">
        <ele>780</ele>
        <time>2019-11-08T10:10:21Z</time>
      </trkpt>
      <trkpt lat="43.43763" lon="2.61598">
        <ele>779</ele>
        <time>2019-11-08T10:10:36Z</time>
      </trkpt>
      <trkpt lat="43.43739" lon="2.61566">
        <ele>775</ele>
        <time>2019-11-08T10:11:03Z</time>
      </trkpt>
      <trkpt lat="43.43729" lon="2.61536">
        <ele>772</ele>
        <time>2019-11-08T10:11:22Z</time>
      </trkpt>
      <trkpt lat="43.43726" lon="2.6149">
        <ele>771</ele>
        <time>2019-11-08T10:11:49Z</time>
      </trkpt>
      <trkpt lat="43.43747" lon="2.61432">
        <ele>771</ele>
        <time>2019-11-08T10:12:26Z</time>
      </trkpt>
      <trkpt lat="43.43761" lon="2.6142">
        <ele>772</ele>
        <time>2019-11-08T10:12:40Z</time>
      </trkpt>
      <trkpt lat="43.43788" lon="2.61324">
        <ele>773</ele>
        <time>2019-11-08T10:13:39Z</time>
      </trkpt>
      <trkpt lat="43.43795" lon="2.61307">
        <ele>772</ele>
        <time>2019-11-08T10:13:51Z</time>
      </trkpt>
      <trkpt lat="43.43798" lon="2.61289">
        <ele>772</ele>
        <time>2019-11-08T10:14:02Z</time>
      </trkpt>
      <trkpt lat="43.43798" lon="2.6114">
        <ele>775</ele>
        <time>2019-11-08T10:15:28Z</time>
      </trkpt>
      <trkpt lat="43.43793" lon="2.61084">
        <ele>779</ele>
        <time>2019-11-08T10:16:01Z</time>
      </trkpt>
      <trkpt lat="43.43792" lon="2.60991">
        <ele>782</ele>
        <time>2019-11-08T10:16:55Z</time>
      </trkpt>
      <trkpt lat="43.43789" lon="2.60979">
        <ele>784</ele>
        <time>2019-11-08T10:17:02Z</time>
      </trkpt>
      <trkpt lat="43.43785" lon="2.60932">
        <ele>786</ele>
        <time>2019-11-08T10:17:30Z</time>
      </trkpt>
      <trkpt lat="43.43766" lon="2.60888">
        <ele>790</ele>
        <time>2019-11-08T10:18:00Z</time>
      </trkpt>
      <trkpt lat="43.43722" lon="2.60842">
        <ele>789</ele>
        <time>2019-11-08T10:18:44Z</time>
      </trkpt>
      <trkpt lat="43.43701" lon="2.60831">
        <ele>787</ele>
        <time>2019-11-08T10:19:02Z</time>
      </trkpt>
      <trkpt lat="43.43648" lon="2.60827">
        <ele>785</ele>
        <time>2019-11-08T10:19:44Z</time>
      </trkpt>
      <trkpt lat="43.43609" lon="2.60814">
        <ele>784</ele>
        <time>2019-11-08T10:20:17Z</time>
      </trkpt>
      <trkpt lat="43.43668" lon="2.60758">
        <ele>781</ele>
        <time>2019-11-08T10:21:14Z</time>
      </trkpt>
      <trkpt lat="43.43668" lon="2.60744">
        <ele>782</ele>
        <time>2019-11-08T10:21:22Z</time>
      </trkpt>
      <trkpt lat="43.43663" lon="2.60727">
        <ele>783</ele>
        <time>2019-11-08T10:21:33Z</time>
      </trkpt>
      <trkpt lat="43.43631" lon="2.60715">
        <ele>784</ele>
        <time>2019-11-08T10:21:59Z</time>
      </trkpt>
      <trkpt lat="43.43605" lon="2.60697">
        <ele>786</ele>
        <time>2019-11-08T10:22:23Z</time>
      </trkpt>
      <trkpt lat="43.43578" lon="2.60683">
        <ele>788</ele>
        <time>2019-11-08T10:22:46Z</time>
      </trkpt>
      <trkpt lat="43.43555" lon="2.60676">
        <ele>789</ele>
        <time>2019-11-08T10:23:05Z</time>
      </trkpt>
      <trkpt lat="43.43495" lon="2.60679">
        <ele>789</ele>
        <time>2019-11-08T10:23:53Z</time>
      </trkpt>
      <trkpt lat="43.43492" lon="2.60671">
        <ele>790</ele>
        <time>2019-11-08T10:23:58Z</time>
      </trkpt>
      <trkpt lat="43.43515" lon="2.60655">
        <ele>792</ele>
        <time>2019-11-08T10:24:19Z</time>
      </trkpt>
      <trkpt lat="43.43519" lon="2.60638">
        <ele>794</ele>
        <time>2019-11-08T10:24:29Z</time>
      </trkpt>
      <trkpt lat="43.43553" lon="2.60546">
        <ele>807</ele>
        <time>2019-11-08T10:25:29Z</time>
      </trkpt>
      <trkpt lat="43.43567" lon="2.60525">
        <ele>810</ele>
        <time>2019-11-08T10:25:45Z</time>
      </trkpt>
      <trkpt lat="43.4359" lon="2.60383">
        <ele>830</ele>
        <time>2019-11-08T10:27:10Z</time>
      </trkpt>
      <trkpt lat="43.43608" lon="2.60359">
        <ele>831</ele>
        <time>2019-11-08T10:27:30Z</time>
      </trkpt>
      <trkpt lat="43.43629" lon="2.60337">
        <ele>834</ele>
        <time>2019-11-08T10:27:51Z</time>
      </trkpt>
      <trkpt lat="43.43665" lon="2.60272">
        <ele>836</ele>
        <time>2019-11-08T10:28:39Z</time>
      </trkpt>
      <trkpt lat="43.43685" lon="2.60243">
        <ele>836</ele>
        <time>2019-11-08T10:29:02Z</time>
      </trkpt>
      <trkpt lat="43.43693" lon="2.60215">
        <ele>836</ele>
        <time>2019-11-08T10:29:20Z</time>
      </trkpt>
      <trkpt lat="43.43722" lon="2.60167">
        <ele>837</ele>
        <time>2019-11-08T10:29:56Z</time>
      </trkpt>
      <trkpt lat="43.43733" lon="2.60124">
        <ele>839</ele>
        <time>2019-11-08T10:30:22Z</time>
      </trkpt>
      <trkpt lat="43.4374" lon="2.60114">
        <ele>839</ele>
        <time>2019-11-08T10:30:30Z</time>
      </trkpt>
      <trkpt lat="43.43747" lon="2.60112">
        <ele>839</ele>
        <time>2019-11-08T10:30:36Z</time>
      </trkpt>
      <trkpt lat="43.4375" lon="2.60101">
        <ele>840</ele>
        <time>2019-11-08T10:30:43Z</time>
      </trkpt>
      <trkpt lat="43.4376" lon="2.60088">
        <ele>840</ele>
        <time>2019-11-08T10:30:54Z</time>
      </trkpt>
      <trkpt lat="43.43767" lon="2.60069">
        <ele>842</ele>
        <time>2019-11-08T10:31:06Z</time>
      </trkpt>
      <trkpt lat="43.43778" lon="2.6002">
        <ele>849</ele>
        <time>2019-11-08T10:31:36Z</time>
      </trkpt>
      <trkpt lat="43.43796" lon="2.60005">
        <ele>851</ele>
        <time>2019-11-08T10:31:53Z</time>
      </trkpt>
      <trkpt lat="43.43796" lon="2.59989">
        <ele>853</ele>
        <time>2019-11-08T10:32:02Z</time>
      </trkpt>
      <trkpt lat="43.43792" lon="2.59988">
        <ele>853</ele>
        <time>2019-11-08T10:32:06Z</time>
      </trkpt>
      <trkpt lat="43.43782" lon="2.59993">
        <ele>852</ele>
        <time>2019-11-08T10:32:14Z</time>
      </trkpt>
      <trkpt lat="43.43774" lon="2.59991">
        <ele>852</ele>
        <time>2019-11-08T10:32:21Z</time>
      </trkpt>
      <trkpt lat="43.43769" lon="2.59981">
        <ele>853</ele>
        <time>2019-11-08T10:32:28Z</time>
      </trkpt>
      <trkpt lat="43.43765" lon="2.59963">
        <ele>855</ele>
        <time>2019-11-08T10:32:39Z</time>
      </trkpt>
      <trkpt lat="43.4376" lon="2.59873">
        <ele>859</ele>
        <time>2019-11-08T10:33:31Z</time>
      </trkpt>
      <trkpt lat="43.43765" lon="2.59828">
        <ele>858</ele>
        <time>2019-11-08T10:33:58Z</time>
      </trkpt>
      <trkpt lat="43.43776" lon="2.59782">
        <ele>856</ele>
        <time>2019-11-08T10:34:26Z</time>
      </trkpt>
      <trkpt lat="43.43797" lon="2.59731">
        <ele>855</ele>
        <time>2019-11-08T10:35:00Z</time>
      </trkpt>
      <trkpt lat="43.43836" lon="2.59675">
        <ele>855</ele>
        <time>2019-11-08T10:35:45Z</time>
      </trkpt>
      <trkpt lat="43.4386" lon="2.59635">
        <ele>855</ele>
        <time>2019-11-08T10:36:15Z</time>
      </trkpt>
      <trkpt lat="43.43863" lon="2.59614">
        <ele>855</ele>
        <time>2019-11-08T10:36:28Z</time>
      </trkpt>
      <trkpt lat="43.43854" lon="2.59589">
        <ele>853</ele>
        <time>2019-11-08T10:36:44Z</time>
      </trkpt>
      <trkpt lat="43.43853" lon="2.5958">
        <ele>853</ele>
        <time>2019-11-08T10:36:49Z</time>
      </trkpt>
      <trkpt lat="43.43855" lon="2.59522">
        <ele>856</ele>
        <time>2019-11-08T10:37:23Z</time>
      </trkpt>
      <trkpt lat="43.43847" lon="2.59493">
        <ele>857</ele>
        <time>2019-11-08T10:37:41Z</time>
      </trkpt>
      <trkpt lat="43.43852" lon="2.59487">
        <ele>858</ele>
        <time>2019-11-08T10:37:46Z</time>
      </trkpt>
      <trkpt lat="43.43858" lon="2.59488">
        <ele>858</ele>
        <time>2019-11-08T10:37:51Z</time>
      </trkpt>
      <trkpt lat="43.43869" lon="2.59485">
        <ele>859</ele>
        <time>2019-11-08T10:38:00Z</time>
      </trkpt>
      <trkpt lat="43.43888" lon="2.59468">
        <ele>860</ele>
        <time>2019-11-08T10:38:18Z</time>
      </trkpt>
      <trkpt lat="43.43893" lon="2.59452">
        <ele>860</ele>
        <time>2019-11-08T10:38:28Z</time>
      </trkpt>
      <trkpt lat="43.43898" lon="2.59405">
        <ele>861</ele>
        <time>2019-11-08T10:38:56Z</time>
      </trkpt>
      <trkpt lat="43.43901" lon="2.59395">
        <ele>861</ele>
        <time>2019-11-08T10:39:02Z</time>
      </trkpt>
      <trkpt lat="43.43913" lon="2.59363">
        <ele>861</ele>
        <time>2019-11-08T10:39:23Z</time>
      </trkpt>
      <trkpt lat="43.43927" lon="2.5934">
        <ele>859</ele>
        <time>2019-11-08T10:39:41Z</time>
      </trkpt>
      <trkpt lat="43.43941" lon="2.59305">
        <ele>858</ele>
        <time>2019-11-08T10:40:04Z</time>
      </trkpt>
      <trkpt lat="43.43954" lon="2.59199">
        <ele>863</ele>
        <time>2019-11-08T10:41:06Z</time>
      </trkpt>
      <trkpt lat="43.43969" lon="2.59157">
        <ele>865</ele>
        <time>2019-11-08T10:41:33Z</time>
      </trkpt>
      <trkpt lat="43.43974" lon="2.59132">
        <ele>868</ele>
        <time>2019-11-08T10:41:49Z</time>
      </trkpt>
      <trkpt lat="43.43983" lon="2.59126">
        <ele>867</ele>
        <time>2019-11-08T10:41:57Z</time>
      </trkpt>
      <trkpt lat="43.44026" lon="2.59117">
        <ele>860</ele>
        <time>2019-11-08T10:42:31Z</time>
      </trkpt>
      <trkpt lat="43.44044" lon="2.5911">
        <ele>858</ele>
        <time>2019-11-08T10:42:46Z</time>
      </trkpt>
      <trkpt lat="43.44113" lon="2.59071">
        <ele>851</ele>
        <time>2019-11-08T10:43:46Z</time>
      </trkpt>
      <trkpt lat="43.44172" lon="2.59003">
        <ele>850</ele>
        <time>2019-11-08T10:44:48Z</time>
      </trkpt>
      <trkpt lat="43.44182" lon="2.58984">
        <ele>849</ele>
        <time>2019-11-08T10:45:01Z</time>
      </trkpt>
      <trkpt lat="43.44193" lon="2.58954">
        <ele>847</ele>
        <time>2019-11-08T10:45:21Z</time>
      </trkpt>
      <trkpt lat="43.44193" lon="2.58936">
        <ele>848</ele>
        <time>2019-11-08T10:45:31Z</time>
      </trkpt>
      <trkpt lat="43.44189" lon="2.58917">
        <ele>850</ele>
        <time>2019-11-08T10:45:43Z</time>
      </trkpt>
      <trkpt lat="43.4418" lon="2.58898">
        <ele>850</ele>
        <time>2019-11-08T10:45:56Z</time>
      </trkpt>
      <trkpt lat="43.44153" lon="2.58873">
        <ele>854</ele>
        <time>2019-11-08T10:46:22Z</time>
      </trkpt>
      <trkpt lat="43.44103" lon="2.58806">
        <ele>855</ele>
        <time>2019-11-08T10:47:18Z</time>
      </trkpt>
      <trkpt lat="43.44075" lon="2.58783">
        <ele>856</ele>
        <time>2019-11-08T10:47:44Z</time>
      </trkpt>
      <trkpt lat="43.44047" lon="2.58746">
        <ele>852</ele>
        <time>2019-11-08T10:48:15Z</time>
      </trkpt>
      <trkpt lat="43.44025" lon="2.58731">
        <ele>851</ele>
        <time>2019-11-08T10:48:35Z</time>
      </trkpt>
      <trkpt lat="43.43995" lon="2.58715">
        <ele>851</ele>
        <time>2019-11-08T10:49:01Z</time>
      </trkpt>
      <trkpt lat="43.43963" lon="2.58705">
        <ele>851</ele>
        <time>2019-11-08T10:49:27Z</time>
      </trkpt>
      <trkpt lat="43.43938" lon="2.58703">
        <ele>852</ele>
        <time>2019-11-08T10:49:47Z</time>
      </trkpt>
      <trkpt lat="43.43918" lon="2.58697">
        <ele>852</ele>
        <time>2019-11-08T10:50:03Z</time>
      </trkpt>
      <trkpt lat="43.43873" lon="2.58696">
        <ele>859</ele>
        <time>2019-11-08T10:50:39Z</time>
      </trkpt>
      <trkpt lat="43.43859" lon="2.58698">
        <ele>861</ele>
        <time>2019-11-08T10:50:51Z</time>
      </trkpt>
      <trkpt lat="43.43854" lon="2.58695">
        <ele>862</ele>
        <time>2019-11-08T10:50:55Z</time>
      </trkpt>
      <trkpt lat="43.43829" lon="2.58643">
        <ele>862</ele>
        <time>2019-11-08T10:51:31Z</time>
      </trkpt>
      <trkpt lat="43.43819" lon="2.58607">
        <ele>862</ele>
        <time>2019-11-08T10:51:54Z</time>
      </trkpt>
      <trkpt lat="43.4379" lon="2.5854">
        <ele>864</ele>
        <time>2019-11-08T10:52:39Z</time>
      </trkpt>
      <trkpt lat="43.43781" lon="2.58525">
        <ele>865</ele>
        <time>2019-11-08T10:52:50Z</time>
      </trkpt>
      <trkpt lat="43.43762" lon="2.58504">
        <ele>868</ele>
        <time>2019-11-08T10:53:10Z</time>
      </trkpt>
      <trkpt lat="43.4374" lon="2.58489">
        <ele>870</ele>
        <time>2019-11-08T10:53:29Z</time>
      </trkpt>
      <trkpt lat="43.43697" lon="2.58478">
        <ele>874</ele>
        <time>2019-11-08T10:54:04Z</time>
      </trkpt>
      <trkpt lat="43.43685" lon="2.58477">
        <ele>876</ele>
        <time>2019-11-08T10:54:14Z</time>
      </trkpt>
      <trkpt lat="43.4366" lon="2.58484">
        <ele>881</ele>
        <time>2019-11-08T10:54:34Z</time>
      </trkpt>
      <trkpt lat="43.43621" lon="2.5849">
        <ele>884</ele>
        <time>2019-11-08T10:55:06Z</time>
      </trkpt>
      <trkpt lat="43.43595" lon="2.585">
        <ele>887</ele>
        <time>2019-11-08T10:55:27Z</time>
      </trkpt>
      <trkpt lat="43.43576" lon="2.585">
        <ele>889</ele>
        <time>2019-11-08T10:55:43Z</time>
      </trkpt>
      <trkpt lat="43.43555" lon="2.58494">
        <ele>891</ele>
        <time>2019-11-08T10:56:00Z</time>
      </trkpt>
      <trkpt lat="43.43541" lon="2.58488">
        <ele>892</ele>
        <time>2019-11-08T10:56:12Z</time>
      </trkpt>
      <trkpt lat="43.43521" lon="2.58471">
        <ele>893</ele>
        <time>2019-11-08T10:56:30Z</time>
      </trkpt>
      <trkpt lat="43.43458" lon="2.58409">
        <ele>898</ele>
        <time>2019-11-08T10:57:32Z</time>
      </trkpt>
      <trkpt lat="43.43443" lon="2.5839">
        <ele>899</ele>
        <time>2019-11-08T10:57:49Z</time>
      </trkpt>
      <trkpt lat="43.43432" lon="2.5838">
        <ele>900</ele>
        <time>2019-11-08T10:57:59Z</time>
      </trkpt>
      <trkpt lat="43.43427" lon="2.58376">
        <ele>901</ele>
        <time>2019-11-08T10:58:04Z</time>
      </trkpt>
      <trkpt lat="43.43412" lon="2.58372">
        <ele>903</ele>
        <time>2019-11-08T10:58:16Z</time>
      </trkpt>
      <trkpt lat="43.43401" lon="2.58374">
        <ele>904</ele>
        <time>2019-11-08T10:58:25Z</time>
      </trkpt>
      <trkpt lat="43.43389" lon="2.5838">
        <ele>905</ele>
        <time>2019-11-08T10:58:35Z</time>
      </trkpt>
      <trkpt lat="43.43379" lon="2.5839">
        <ele>906</ele>
        <time>2019-11-08T10:58:45Z</time>
      </trkpt>
      <trkpt lat="43.43344" lon="2.58438">
        <ele>908</ele>
        <time>2019-11-08T10:59:25Z</time>
      </trkpt>
      <trkpt lat="43.43334" lon="2.58466">
        <ele>908</ele>
        <time>2019-11-08T10:59:43Z</time>
      </trkpt>
      <trkpt lat="43.43325" lon="2.58456">
        <ele>908</ele>
        <time>2019-11-08T10:59:52Z</time>
      </trkpt>
      <trkpt lat="43.43303" lon="2.5844">
        <ele>908</ele>
        <time>2019-11-08T11:00:12Z</time>
      </trkpt>
      <trkpt lat="43.43285" lon="2.58404">
        <ele>909</ele>
        <time>2019-11-08T11:00:37Z</time>
      </trkpt>
      <trkpt lat="43.4327" lon="2.58361">
        <ele>910</ele>
        <time>2019-11-08T11:01:05Z</time>
      </trkpt>
      <trkpt lat="43.4327" lon="2.58296">
        <ele>910</ele>
        <time>2019-11-08T11:01:43Z</time>
      </trkpt>
      <trkpt lat="43.43266" lon="2.58267">
        <ele>910</ele>
        <time>2019-11-08T11:02:00Z</time>
      </trkpt>
      <trkpt lat="43.43202" lon="2.58128">
        <ele>910</ele>
        <time>2019-11-08T11:03:36Z</time>
      </trkpt>
      <trkpt lat="43.43185" lon="2.58063">
        <ele>912</ele>
        <time>2019-11-08T11:04:16Z</time>
      </trkpt>
      <trkpt lat="43.43179" lon="2.58013">
        <ele>915</ele>
        <time>2019-11-08T11:04:45Z</time>
      </trkpt>
      <trkpt lat="43.4318" lon="2.57988">
        <ele>917</ele>
        <time>2019-11-08T11:05:00Z</time>
      </trkpt>
      <trkpt lat="43.43199" lon="2.57881">
        <ele>924</ele>
        <time>2019-11-08T11:06:04Z</time>
      </trkpt>
      <trkpt lat="43.43191" lon="2.57801">
        <ele>934</ele>
        <time>2019-11-08T11:06:51Z</time>
      </trkpt>
      <trkpt lat="43.43196" lon="2.5775">
        <ele>938</ele>
        <time>2019-11-08T11:07:21Z</time>
      </trkpt>
      <trkpt lat="43.43201" lon="2.57655">
        <ele>942</ele>
        <time>2019-11-08T11:08:16Z</time>
      </trkpt>
      <trkpt lat="43.43206" lon="2.57626">
        <ele>943</ele>
        <time>2019-11-08T11:08:34Z</time>
      </trkpt>
      <trkpt lat="43.43231" lon="2.57531">
        <ele>947</ele>
        <time>2019-11-08T11:09:32Z</time>
      </trkpt>
      <trkpt lat="43.43263" lon="2.57367">
        <ele>953</ele>
        <time>2019-11-08T11:11:11Z</time>
      </trkpt>
      <trkpt lat="43.43266" lon="2.57312">
        <ele>955</ele>
        <time>2019-11-08T11:11:43Z</time>
      </trkpt>
      <trkpt lat="43.43276" lon="2.57267">
        <ele>955</ele>
        <time>2019-11-08T11:12:11Z</time>
      </trkpt>
      <trkpt lat="43.43284" lon="2.57247">
        <ele>955</ele>
        <time>2019-11-08T11:12:24Z</time>
      </trkpt>
      <trkpt lat="43.43288" lon="2.57228">
        <ele>954</ele>
        <time>2019-11-08T11:12:35Z</time>
      </trkpt>
      <trkpt lat="43.4327" lon="2.5724">
        <ele>954</ele>
        <time>2019-11-08T11:12:51Z</time>
      </trkpt>
      <trkpt lat="43.4325" lon="2.57239">
        <ele>952</ele>
        <time>2019-11-08T11:13:07Z</time>
      </trkpt>
      <trkpt lat="43.43238" lon="2.57229">
        <ele>952</ele>
        <time>2019-11-08T11:13:19Z</time>
      </trkpt>
      <trkpt lat="43.432" lon="2.57182">
        <ele>951</ele>
        <time>2019-11-08T11:14:00Z</time>
      </trkpt>
      <trkpt lat="43.43182" lon="2.57165">
        <ele>950</ele>
        <time>2019-11-08T11:14:17Z</time>
      </trkpt>
      <trkpt lat="43.43139" lon="2.57136">
        <ele>950</ele>
        <time>2019-11-08T11:14:55Z</time>
      </trkpt>
      <trkpt lat="43.43119" lon="2.57119">
        <ele>949</ele>
        <time>2019-11-08T11:15:14Z</time>
      </trkpt>
      <trkpt lat="43.43067" lon="2.57065">
        <ele>948</ele>
        <time>2019-11-08T11:16:06Z</time>
      </trkpt>
      <trkpt lat="43.4305" lon="2.57052">
        <ele>946</ele>
        <time>2019-11-08T11:16:22Z</time>
      </trkpt>
      <trkpt lat="43.43026" lon="2.57039">
        <ele>945</ele>
        <time>2019-11-08T11:16:43Z</time>
      </trkpt>
      <trkpt lat="43.42961" lon="2.57009">
        <ele>943</ele>
        <time>2019-11-08T11:17:37Z</time>
      </trkpt>
      <trkpt lat="43.42919" lon="2.56996">
        <ele>943</ele>
        <time>2019-11-08T11:18:12Z</time>
      </trkpt>
      <trkpt lat="43.42856" lon="2.56982">
        <ele>947</ele>
        <time>2019-11-08T11:19:03Z</time>
      </trkpt>
      <trkpt lat="43.42812" lon="2.56984">
        <ele>948</ele>
        <time>2019-11-08T11:19:38Z</time>
      </trkpt>
      <trkpt lat="43.42803" lon="2.5698">
        <ele>950</ele>
        <time>2019-11-08T11:19:46Z</time>
      </trkpt>
      <trkpt lat="43.42778" lon="2.56984">
        <ele>950</ele>
        <time>2019-11-08T11:20:06Z</time>
      </trkpt>
      <trkpt lat="43.42734" lon="2.56986">
        <ele>951</ele>
        <time>2019-11-08T11:20:41Z</time>
      </trkpt>
      <trkpt lat="43.42651" lon="2.5698">
        <ele>951</ele>
        <time>2019-11-08T11:21:48Z</time>
      </trkpt>
      <trkpt lat="43.42631" lon="2.56973">
        <ele>950</ele>
        <time>2019-11-08T11:22:04Z</time>
      </trkpt>
      <trkpt lat="43.42608" lon="2.56952">
        <ele>951</ele>
        <time>2019-11-08T11:22:26Z</time>
      </trkpt>
      <trkpt lat="43.42533" lon="2.56849">
        <ele>951</ele>
        <time>2019-11-08T11:23:51Z</time>
      </trkpt>
      <trkpt lat="43.4249" lon="2.56803">
        <ele>949</ele>
        <time>2019-11-08T11:24:35Z</time>
      </trkpt>
      <trkpt lat="43.42464" lon="2.56792">
        <ele>946</ele>
        <time>2019-11-08T11:24:57Z</time>
      </trkpt>
      <trkpt lat="43.42442" lon="2.56775">
        <ele>943</ele>
        <time>2019-11-08T11:25:17Z</time>
      </trkpt>
      <trkpt lat="43.42405" lon="2.56736">
        <ele>940</ele>
        <time>2019-11-08T11:25:54Z</time>
      </trkpt>
      <trkpt lat="43.42394" lon="2.5673">
        <ele>940</ele>
        <time>2019-11-08T11:26:04Z</time>
      </trkpt>
      <trkpt lat="43.42348" lon="2.56734">
        <ele>934</ele>
        <time>2019-11-08T11:26:40Z</time>
      </trkpt>
      <trkpt lat="43.42274" lon="2.56746">
        <ele>929</ele>
        <time>2019-11-08T11:27:40Z</time>
      </trkpt>
      <trkpt lat="43.42254" lon="2.56752">
        <ele>928</ele>
        <time>2019-11-08T11:27:57Z</time>
      </trkpt>
      <trkpt lat="43.42199" lon="2.56781">
        <ele>926</ele>
        <time>2019-11-08T11:28:44Z</time>
      </trkpt>
      <trkpt lat="43.42198" lon="2.56777">
        <ele>926</ele>
        <time>2019-11-08T11:28:46Z</time>
      </trkpt>
      <trkpt lat="43.42206" lon="2.5676">
        <ele>927</ele>
        <time>2019-11-08T11:28:58Z</time>
      </trkpt>
      <trkpt lat="43.42226" lon="2.5674">
        <ele>927</ele>
        <time>2019-11-08T11:29:18Z</time>
      </trkpt>
      <trkpt lat="43.4224" lon="2.56717">
        <ele>926</ele>
        <time>2019-11-08T11:29:35Z</time>
      </trkpt>
      <trkpt lat="43.42247" lon="2.56685">
        <ele>925</ele>
        <time>2019-11-08T11:29:55Z</time>
      </trkpt>
      <trkpt lat="43.42259" lon="2.56651">
        <ele>926</ele>
        <time>2019-11-08T11:30:17Z</time>
      </trkpt>
      <trkpt lat="43.42268" lon="2.56616">
        <ele>927</ele>
        <time>2019-11-08T11:30:38Z</time>
      </trkpt>
      <trkpt lat="43.42273" lon="2.56583">
        <ele>927</ele>
        <time>2019-11-08T11:30:58Z</time>
      </trkpt>
      <trkpt lat="43.42273" lon="2.56562">
        <ele>926</ele>
        <time>2019-11-08T11:31:10Z</time>
      </trkpt>
      <trkpt lat="43.42264" lon="2.56491">
        <ele>923</ele>
        <time>2019-11-08T11:31:52Z</time>
      </trkpt>
      <trkpt lat="43.4225" lon="2.56451">
        <ele>921</ele>
        <time>2019-11-08T11:32:18Z</time>
      </trkpt>
      <trkpt lat="43.42239" lon="2.56431">
        <ele>920</ele>
        <time>2019-11-08T11:32:32Z</time>
      </trkpt>
      <trkpt lat="43.42139" lon="2.5627">
        <ele>918</ele>
        <time>2019-11-08T11:34:35Z</time>
      </trkpt>
      <trkpt lat="43.42068" lon="2.56146">
        <ele>916</ele>
        <time>2019-11-08T11:36:07Z</time>
      </trkpt>
      <trkpt lat="43.42037" lon="2.56087">
        <ele>913</ele>
        <time>2019-11-08T11:36:50Z</time>
      </trkpt>
      <trkpt lat="43.42035" lon="2.56078">
        <ele>913</ele>
        <time>2019-11-08T11:36:55Z</time>
      </trkpt>
      <trkpt lat="43.42035" lon="2.56055">
        <ele>912</ele>
        <time>2019-11-08T11:37:09Z</time>
      </trkpt>
      <trkpt lat="43.42082" lon="2.55987">
        <ele>916</ele>
        <time>2019-11-08T11:38:03Z</time>
      </trkpt>
      <trkpt lat="43.42142" lon="2.55883">
        <ele>919</ele>
        <time>2019-11-08T11:39:20Z</time>
      </trkpt>
      <trkpt lat="43.42203" lon="2.55794">
        <ele>922</ele>
        <time>2019-11-08T11:40:32Z</time>
      </trkpt>
      <trkpt lat="43.42333" lon="2.55588">
        <ele>933</ele>
        <time>2019-11-08T11:43:10Z</time>
      </trkpt>
      <trkpt lat="43.42407" lon="2.5544">
        <ele>930</ele>
        <time>2019-11-08T11:44:55Z</time>
      </trkpt>
      <trkpt lat="43.42435" lon="2.55348">
        <ele>927</ele>
        <time>2019-11-08T11:45:53Z</time>
      </trkpt>
      <trkpt lat="43.42451" lon="2.55277">
        <ele>925</ele>
        <time>2019-11-08T11:46:36Z</time>
      </trkpt>
      <trkpt lat="43.42486" lon="2.55203">
        <ele>927</ele>
        <time>2019-11-08T11:47:27Z</time>
      </trkpt>
      <trkpt lat="43.42525" lon="2.55153">
        <ele>925</ele>
        <time>2019-11-08T11:48:10Z</time>
      </trkpt>
      <trkpt lat="43.42532" lon="2.55139">
        <ele>925</ele>
        <time>2019-11-08T11:48:20Z</time>
      </trkpt>
      <trkpt lat="43.42539" lon="2.55121">
        <ele>925</ele>
        <time>2019-11-08T11:48:32Z</time>
      </trkpt>
      <trkpt lat="43.4256" lon="2.55045">
        <ele>925</ele>
        <time>2019-11-08T11:49:19Z</time>
      </trkpt>
      <trkpt lat="43.42567" lon="2.5501">
        <ele>925</ele>
        <time>2019-11-08T11:49:40Z</time>
      </trkpt>
      <trkpt lat="43.42569" lon="2.54986">
        <ele>924</ele>
        <time>2019-11-08T11:49:54Z</time>
      </trkpt>
      <trkpt lat="43.42565" lon="2.54906">
        <ele>922</ele>
        <time>2019-11-08T11:50:41Z</time>
      </trkpt>
      <trkpt lat="43.42548" lon="2.54833">
        <ele>920</ele>
        <time>2019-11-08T11:51:25Z</time>
      </trkpt>
      <trkpt lat="43.42541" lon="2.54816">
        <ele>920</ele>
        <time>2019-11-08T11:51:37Z</time>
      </trkpt>
      <trkpt lat="43.42531" lon="2.54802">
        <ele>920</ele>
        <time>2019-11-08T11:51:48Z</time>
      </trkpt>
      <trkpt lat="43.42504" lon="2.54778">
        <ele>922</ele>
        <time>2019-11-08T11:52:14Z</time>
      </trkpt>
      <trkpt lat="43.42488" lon="2.5477">
        <ele>922</ele>
        <time>2019-11-08T11:52:28Z</time>
      </trkpt>
      <trkpt lat="43.42469" lon="2.54751">
        <ele>922</ele>
        <time>2019-11-08T11:52:46Z</time>
      </trkpt>
      <trkpt lat="43.42447" lon="2.54662">
        <ele>922</ele>
        <time>2019-11-08T11:53:41Z</time>
      </trkpt>
      <trkpt lat="43.42441" lon="2.54618">
        <ele>924</ele>
        <time>2019-11-08T11:54:07Z</time>
      </trkpt>
      <trkpt lat="43.42415" lon="2.54538">
        <ele>927</ele>
        <time>2019-11-08T11:54:58Z</time>
      </trkpt>
      <trkpt lat="43.42412" lon="2.54522">
        <ele>928</ele>
        <time>2019-11-08T11:55:08Z</time>
      </trkpt>
      <trkpt lat="43.42411" lon="2.54464">
        <ele>928</ele>
        <time>2019-11-08T11:55:41Z</time>
      </trkpt>
      <trkpt lat="43.42418" lon="2.54386">
        <ele>929</ele>
        <time>2019-11-08T11:56:27Z</time>
      </trkpt>
      <trkpt lat="43.42425" lon="2.54348">
        <ele>931</ele>
        <time>2019-11-08T11:56:50Z</time>
      </trkpt>
      <trkpt lat="43.42452" lon="2.54245">
        <ele>933</ele>
        <time>2019-11-08T11:57:54Z</time>
      </trkpt>
      <trkpt lat="43.42484" lon="2.54176">
        <ele>939</ele>
        <time>2019-11-08T11:58:41Z</time>
      </trkpt>
      <trkpt lat="43.42488" lon="2.54142">
        <ele>941</ele>
        <time>2019-11-08T11:59:01Z</time>
      </trkpt>
      <trkpt lat="43.42487" lon="2.54126">
        <ele>942</ele>
        <time>2019-11-08T11:59:10Z</time>
      </trkpt>
      <trkpt lat="43.42481" lon="2.54107">
        <ele>944</ele>
        <time>2019-11-08T11:59:23Z</time>
      </trkpt>
      <trkpt lat="43.42481" lon="2.54099">
        <ele>944</ele>
        <time>2019-11-08T11:59:27Z</time>
      </trkpt>
      <trkpt lat="43.42458" lon="2.53997">
        <ele>955</ele>
        <time>2019-11-08T12:00:29Z</time>
      </trkpt>
      <trkpt lat="43.42439" lon="2.53897">
        <ele>959</ele>
        <time>2019-11-08T12:01:29Z</time>
      </trkpt>
      <trkpt lat="43.42431" lon="2.53807">
        <ele>961</ele>
        <time>2019-11-08T12:02:22Z</time>
      </trkpt>
      <trkpt lat="43.42439" lon="2.53769">
        <ele>961</ele>
        <time>2019-11-08T12:02:45Z</time>
      </trkpt>
      <trkpt lat="43.42446" lon="2.53711">
        <ele>961</ele>
        <time>2019-11-08T12:03:19Z</time>
      </trkpt>
      <trkpt lat="43.42443" lon="2.53647">
        <ele>961</ele>
        <time>2019-11-08T12:03:57Z</time>
      </trkpt>
      <trkpt lat="43.42433" lon="2.53576">
        <ele>963</ele>
        <time>2019-11-08T12:04:39Z</time>
      </trkpt>
      <trkpt lat="43.42435" lon="2.53546">
        <ele>962</ele>
        <time>2019-11-08T12:04:56Z</time>
      </trkpt>
      <trkpt lat="43.42433" lon="2.53459">
        <ele>961</ele>
        <time>2019-11-08T12:05:47Z</time>
      </trkpt>
      <trkpt lat="43.42428" lon="2.53442">
        <ele>961</ele>
        <time>2019-11-08T12:05:57Z</time>
      </trkpt>
      <trkpt lat="43.42421" lon="2.53349">
        <ele>963</ele>
        <time>2019-11-08T12:06:52Z</time>
      </trkpt>
      <trkpt lat="43.42389" lon="2.5325">
        <ele>968</ele>
        <time>2019-11-08T12:07:55Z</time>
      </trkpt>
      <trkpt lat="43.42384" lon="2.53214">
        <ele>971</ele>
        <time>2019-11-08T12:08:16Z</time>
      </trkpt>
      <trkpt lat="43.42366" lon="2.53138">
        <ele>980</ele>
        <time>2019-11-08T12:09:03Z</time>
      </trkpt>
      <trkpt lat="43.42346" lon="2.53101">
        <ele>986</ele>
        <time>2019-11-08T12:09:29Z</time>
      </trkpt>
      <trkpt lat="43.4234" lon="2.53081">
        <ele>989</ele>
        <time>2019-11-08T12:09:42Z</time>
      </trkpt>
      <trkpt lat="43.42341" lon="2.53065">
        <ele>989</ele>
        <time>2019-11-08T12:09:51Z</time>
      </trkpt>
      <trkpt lat="43.42347" lon="2.53044">
        <ele>990</ele>
        <time>2019-11-08T12:10:05Z</time>
      </trkpt>
      <trkpt lat="43.42352" lon="2.53008">
        <ele>991</ele>
        <time>2019-11-08T12:10:26Z</time>
      </trkpt>
      <trkpt lat="43.42343" lon="2.52848">
        <ele>988</ele>
        <time>2019-11-08T12:11:59Z</time>
      </trkpt>
      <trkpt lat="43.42346" lon="2.52819">
        <ele>987</ele>
        <time>2019-11-08T12:12:16Z</time>
      </trkpt>
      <trkpt lat="43.42344" lon="2.52661">
        <ele>988</ele>
        <time>2019-11-08T12:13:48Z</time>
      </trkpt>
      <trkpt lat="43.42352" lon="2.52613">
        <ele>988</ele>
        <time>2019-11-08T12:14:17Z</time>
      </trkpt>
      <trkpt lat="43.42351" lon="2.52549">
        <ele>989</ele>
        <time>2019-11-08T12:14:54Z</time>
      </trkpt>
      <trkpt lat="43.42356" lon="2.52453">
        <ele>989</ele>
        <time>2019-11-08T12:15:50Z</time>
      </trkpt>
      <trkpt lat="43.42347" lon="2.52377">
        <ele>993</ele>
        <time>2019-11-08T12:16:35Z</time>
      </trkpt>
      <trkpt lat="43.42352" lon="2.52329">
        <ele>996</ele>
        <time>2019-11-08T12:17:03Z</time>
      </trkpt>
      <trkpt lat="43.42373" lon="2.52271">
        <ele>1003</ele>
        <time>2019-11-08T12:17:41Z</time>
      </trkpt>
      <trkpt lat="43.42409" lon="2.52219">
        <ele>1006</ele>
        <time>2019-11-08T12:18:22Z</time>
      </trkpt>
      <trkpt lat="43.42502" lon="2.52119">
        <ele>1007</ele>
        <time>2019-11-08T12:19:57Z</time>
      </trkpt>
      <trkpt lat="43.42579" lon="2.52044">
        <ele>1008</ele>
        <time>2019-11-08T12:21:12Z</time>
      </trkpt>
      <trkpt lat="43.42631" lon="2.51953">
        <ele>1007</ele>
        <time>2019-11-08T12:22:20Z</time>
      </trkpt>
      <trkpt lat="43.42641" lon="2.51932">
        <ele>1007</ele>
        <time>2019-11-08T12:22:34Z</time>
      </trkpt>
      <trkpt lat="43.42657" lon="2.51882">
        <ele>1005</ele>
        <time>2019-11-08T12:23:06Z</time>
      </trkpt>
      <trkpt lat="43.42673" lon="2.51814">
        <ele>1001</ele>
        <time>2019-11-08T12:23:48Z</time>
      </trkpt>
      <trkpt lat="43.42673" lon="2.51745">
        <ele>998</ele>
        <time>2019-11-08T12:24:28Z</time>
      </trkpt>
      <trkpt lat="43.42695" lon="2.51593">
        <ele>989</ele>
        <time>2019-11-08T12:25:58Z</time>
      </trkpt>
      <trkpt lat="43.42704" lon="2.51562">
        <ele>987</ele>
        <time>2019-11-08T12:26:17Z</time>
      </trkpt>
      <trkpt lat="43.42753" lon="2.51442">
        <ele>986</ele>
        <time>2019-11-08T12:27:37Z</time>
      </trkpt>
      <trkpt lat="43.42777" lon="2.5136">
        <ele>986</ele>
        <time>2019-11-08T12:28:29Z</time>
      </trkpt>
      <trkpt lat="43.42783" lon="2.51328">
        <ele>986</ele>
        <time>2019-11-08T12:28:48Z</time>
      </trkpt>
      <trkpt lat="43.42796" lon="2.51282">
        <ele>985</ele>
        <time>2019-11-08T12:29:17Z</time>
      </trkpt>
      <trkpt lat="43.42805" lon="2.51232">
        <ele>985</ele>
        <time>2019-11-08T12:29:47Z</time>
      </trkpt>
      <trkpt lat="43.42805" lon="2.51185">
        <ele>984</ele>
        <time>2019-11-08T12:30:14Z</time>
      </trkpt>
      <trkpt lat="43.42811" lon="2.51156">
        <ele>984</ele>
        <time>2019-11-08T12:30:32Z</time>
      </trkpt>
      <trkpt lat="43.42825" lon="2.51139">
        <ele>987</ele>
        <time>2019-11-08T12:30:46Z</time>
      </trkpt>
      <trkpt lat="43.42827" lon="2.51083">
        <ele>986</ele>
        <time>2019-11-08T12:31:19Z</time>
      </trkpt>
      <trkpt lat="43.4281" lon="2.51039">
        <ele>983</ele>
        <time>2019-11-08T12:31:48Z</time>
      </trkpt>
      <trkpt lat="43.42797" lon="2.5096">
        <ele>980</ele>
        <time>2019-11-08T12:32:35Z</time>
      </trkpt>
      <trkpt lat="43.4279" lon="2.50898">
        <ele>976</ele>
        <time>2019-11-08T12:33:12Z</time>
      </trkpt>
      <trkpt lat="43.4279" lon="2.5087">
        <ele>974</ele>
        <time>2019-11-08T12:33:28Z</time>
      </trkpt>
      <trkpt lat="43.42795" lon="2.50839">
        <ele>972</ele>
        <time>2019-11-08T12:33:46Z</time>
      </trkpt>
      <trkpt lat="43.42813" lon="2.50781">
        <ele>971</ele>
        <time>2019-11-08T12:34:23Z</time>
      </trkpt>
      <trkpt lat="43.42816" lon="2.50764">
        <ele>971</ele>
        <time>2019-11-08T12:34:33Z</time>
      </trkpt>
      <trkpt lat="43.42813" lon="2.50749">
        <ele>969</ele>
        <time>2019-11-08T12:34:42Z</time>
      </trkpt>
      <trkpt lat="43.4281" lon="2.50675">
        <ele>968</ele>
        <time>2019-11-08T12:35:25Z</time>
      </trkpt>
      <trkpt lat="43.42812" lon="2.50617">
        <ele>967</ele>
        <time>2019-11-08T12:35:59Z</time>
      </trkpt>
      <trkpt lat="43.4282" lon="2.50558">
        <ele>967</ele>
        <time>2019-11-08T12:36:34Z</time>
      </trkpt>
      <trkpt lat="43.42823" lon="2.50513">
        <ele>967</ele>
        <time>2019-11-08T12:37:00Z</time>
      </trkpt>
      <trkpt lat="43.42832" lon="2.50468">
        <ele>968</ele>
        <time>2019-11-08T12:37:27Z</time>
      </trkpt>
      <trkpt lat="43.42837" lon="2.50405">
        <ele>967</ele>
        <time>2019-11-08T12:38:04Z</time>
      </trkpt>
      <trkpt lat="43.4285" lon="2.50364">
        <ele>966</ele>
        <time>2019-11-08T12:38:30Z</time>
      </trkpt>
      <trkpt lat="43.42867" lon="2.50326">
        <ele>965</ele>
        <time>2019-11-08T12:38:56Z</time>
      </trkpt>
      <trkpt lat="43.4289" lon="2.50254">
        <ele>962</ele>
        <time>2019-11-08T12:39:42Z</time>
      </trkpt>
      <trkpt lat="43.42898" lon="2.5024">
        <ele>961</ele>
        <time>2019-11-08T12:39:52Z</time>
      </trkpt>
      <trkpt lat="43.42909" lon="2.50233">
        <ele>961</ele>
        <time>2019-11-08T12:40:02Z</time>
      </trkpt>
      <trkpt lat="43.42962" lon="2.50143">
        <ele>960</ele>
        <time>2019-11-08T12:41:09Z</time>
      </trkpt>
      <trkpt lat="43.43007" lon="2.50082">
        <ele>962</ele>
        <time>2019-11-08T12:42:00Z</time>
      </trkpt>
      <trkpt lat="43.43078" lon="2.49954">
        <ele>962</ele>
        <time>2019-11-08T12:43:34Z</time>
      </trkpt>
      <trkpt lat="43.43201" lon="2.49749">
        <ele>970</ele>
        <time>2019-11-08T12:46:08Z</time>
      </trkpt>
      <trkpt lat="43.43221" lon="2.49719">
        <ele>970</ele>
        <time>2019-11-08T12:46:32Z</time>
      </trkpt>
      <trkpt lat="43.43259" lon="2.49674">
        <ele>972</ele>
        <time>2019-11-08T12:47:12Z</time>
      </trkpt>
      <trkpt lat="43.43285" lon="2.49654">
        <ele>975</ele>
        <time>2019-11-08T12:47:36Z</time>
      </trkpt>
      <trkpt lat="43.43294" lon="2.49631">
        <ele>974</ele>
        <time>2019-11-08T12:47:51Z</time>
      </trkpt>
      <trkpt lat="43.43307" lon="2.49613">
        <ele>974</ele>
        <time>2019-11-08T12:48:06Z</time>
      </trkpt>
      <trkpt lat="43.4332" lon="2.49583">
        <ele>973</ele>
        <time>2019-11-08T12:48:26Z</time>
      </trkpt>
      <trkpt lat="43.43346" lon="2.49539">
        <ele>975</ele>
        <time>2019-11-08T12:48:59Z</time>
      </trkpt>
      <trkpt lat="43.43376" lon="2.4951">
        <ele>979</ele>
        <time>2019-11-08T12:49:29Z</time>
      </trkpt>
      <trkpt lat="43.43387" lon="2.49465">
        <ele>979</ele>
        <time>2019-11-08T12:49:56Z</time>
      </trkpt>
      <trkpt lat="43.43389" lon="2.49433">
        <ele>978</ele>
        <time>2019-11-08T12:50:15Z</time>
      </trkpt>
      <trkpt lat="43.434" lon="2.49406">
        <ele>980</ele>
        <time>2019-11-08T12:50:33Z</time>
      </trkpt>
      <trkpt lat="43.43421" lon="2.49383">
        <ele>985</ele>
        <time>2019-11-08T12:50:54Z</time>
      </trkpt>
      <trkpt lat="43.43441" lon="2.49356">
        <ele>987</ele>
        <time>2019-11-08T12:51:17Z</time>
      </trkpt>
      <trkpt lat="43.43486" lon="2.49315">
        <ele>990</ele>
        <time>2019-11-08T12:52:00Z</time>
      </trkpt>
      <trkpt lat="43.4351" lon="2.493">
        <ele>993</ele>
        <time>2019-11-08T12:52:21Z</time>
      </trkpt>
      <trkpt lat="43.43536" lon="2.49279">
        <ele>998</ele>
        <time>2019-11-08T12:52:45Z</time>
      </trkpt>
      <trkpt lat="43.43551" lon="2.49262">
        <ele>1001</ele>
        <time>2019-11-08T12:53:01Z</time>
      </trkpt>
      <trkpt lat="43.43564" lon="2.49232">
        <ele>1004</ele>
        <time>2019-11-08T12:53:21Z</time>
      </trkpt>
      <trkpt lat="43.43568" lon="2.49194">
        <ele>1007</ele>
        <time>2019-11-08T12:53:43Z</time>
      </trkpt>
      <trkpt lat="43.43592" lon="2.49129">
        <ele>1018</ele>
        <time>2019-11-08T12:54:26Z</time>
      </trkpt>
      <trkpt lat="43.43566" lon="2.49093">
        <ele>1014</ele>
        <time>2019-11-08T12:54:55Z</time>
      </trkpt>
      <trkpt lat="43.4356" lon="2.49087">
        <ele>1014</ele>
        <time>2019-11-08T12:55:01Z</time>
      </trkpt>
      <trkpt lat="43.43551" lon="2.49084">
        <ele>1012</ele>
        <time>2019-11-08T12:55:09Z</time>
      </trkpt>
      <trkpt lat="43.43549" lon="2.49075">
        <ele>1012</ele>
        <time>2019-11-08T12:55:14Z</time>
      </trkpt>
      <trkpt lat="43.43547" lon="2.49043">
        <ele>1014</ele>
        <time>2019-11-08T12:55:33Z</time>
      </trkpt>
      <trkpt lat="43.43542" lon="2.49022">
        <ele>1014</ele>
        <time>2019-11-08T12:55:46Z</time>
      </trkpt>
      <trkpt lat="43.43536" lon="2.48924">
        <ele>1015</ele>
        <time>2019-11-08T12:56:43Z</time>
      </trkpt>
      <trkpt lat="43.43543" lon="2.48907">
        <ele>1017</ele>
        <time>2019-11-08T12:56:54Z</time>
      </trkpt>
      <trkpt lat="43.43545" lon="2.48809">
        <ele>1017</ele>
        <time>2019-11-08T12:57:51Z</time>
      </trkpt>
      <trkpt lat="43.43551" lon="2.48779">
        <ele>1017</ele>
        <time>2019-11-08T12:58:09Z</time>
      </trkpt>
      <trkpt lat="43.43567" lon="2.4875">
        <ele>1020</ele>
        <time>2019-11-08T12:58:30Z</time>
      </trkpt>
      <trkpt lat="43.43569" lon="2.48747">
        <ele>1021</ele>
        <time>2019-11-08T12:58:33Z</time>
      </trkpt>
      <trkpt lat="43.4359" lon="2.48738">
        <ele>1025</ele>
        <time>2019-11-08T12:58:50Z</time>
      </trkpt>
      <trkpt lat="43.43605" lon="2.48717">
        <ele>1026</ele>
        <time>2019-11-08T12:59:08Z</time>
      </trkpt>
      <trkpt lat="43.43622" lon="2.48647">
        <ele>1027</ele>
        <time>2019-11-08T12:59:50Z</time>
      </trkpt>
      <trkpt lat="43.43634" lon="2.48547">
        <ele>1032</ele>
        <time>2019-11-08T13:00:49Z</time>
      </trkpt>
      <trkpt lat="43.43634" lon="2.48519">
        <ele>1033</ele>
        <time>2019-11-08T13:01:06Z</time>
      </trkpt>
      <trkpt lat="43.4366" lon="2.48445">
        <ele>1040</ele>
        <time>2019-11-08T13:01:53Z</time>
      </trkpt>
      <trkpt lat="43.43666" lon="2.4844">
        <ele>1041</ele>
        <time>2019-11-08T13:01:59Z</time>
      </trkpt>
      <trkpt lat="43.43681" lon="2.48383">
        <ele>1046</ele>
        <time>2019-11-08T13:02:34Z</time>
      </trkpt>
      <trkpt lat="43.43684" lon="2.48233">
        <ele>1060</ele>
        <time>2019-11-08T13:04:02Z</time>
      </trkpt>
      <trkpt lat="43.43692" lon="2.48109">
        <ele>1063</ele>
        <time>2019-11-08T13:05:14Z</time>
      </trkpt>
      <trkpt lat="43.43681" lon="2.47954">
        <ele>1068</ele>
        <time>2019-11-08T13:06:44Z</time>
      </trkpt>
      <trkpt lat="43.43669" lon="2.47906">
        <ele>1072</ele>
        <time>2019-11-08T13:07:14Z</time>
      </trkpt>
      <trkpt lat="43.43666" lon="2.47855">
        <ele>1076</ele>
        <time>2019-11-08T13:07:44Z</time>
      </trkpt>
      <trkpt lat="43.43658" lon="2.47822">
        <ele>1078</ele>
        <time>2019-11-08T13:08:04Z</time>
      </trkpt>
      <trkpt lat="43.43655" lon="2.47772">
        <ele>1081</ele>
        <time>2019-11-08T13:08:33Z</time>
      </trkpt>
      <trkpt lat="43.43674" lon="2.47601">
        <ele>1095</ele>
        <time>2019-11-08T13:10:14Z</time>
      </trkpt>
      <trkpt lat="43.43672" lon="2.47555">
        <ele>1100</ele>
        <time>2019-11-08T13:10:41Z</time>
      </trkpt>
      <trkpt lat="43.43674" lon="2.47535">
        <ele>1102</ele>
        <time>2019-11-08T13:10:52Z</time>
      </trkpt>
      <trkpt lat="43.4368" lon="2.47522">
        <ele>1103</ele>
        <time>2019-11-08T13:11:01Z</time>
      </trkpt>
      <trkpt lat="43.43709" lon="2.47493">
        <ele>1106</ele>
        <time>2019-11-08T13:11:30Z</time>
      </trkpt>
      <trkpt lat="43.43722" lon="2.47476">
        <ele>1109</ele>
        <time>2019-11-08T13:11:44Z</time>
      </trkpt>
      <trkpt lat="43.43727" lon="2.47465">
        <ele>1111</ele>
        <time>2019-11-08T13:11:52Z</time>
      </trkpt>
      <trkpt lat="43.43728" lon="2.47448">
        <ele>1114</ele>
        <time>2019-11-08T13:12:02Z</time>
      </trkpt>
      <trkpt lat="43.43725" lon="2.4744">
        <ele>1115</ele>
        <time>2019-11-08T13:12:07Z</time>
      </trkpt>
      <trkpt lat="43.43719" lon="2.47435">
        <ele>1116</ele>
        <time>2019-11-08T13:12:13Z</time>
      </trkpt>
      <trkpt lat="43.43655" lon="2.47401">
        <ele>1120</ele>
        <time>2019-11-08T13:13:07Z</time>
      </trkpt>
      <trkpt lat="43.43639" lon="2.47387">
        <ele>1121</ele>
        <time>2019-11-08T13:13:23Z</time>
      </trkpt>
      <trkpt lat="43.43628" lon="2.47372">
        <ele>1122</ele>
        <time>2019-11-08T13:13:35Z</time>
      </trkpt>
      <trkpt lat="43.43616" lon="2.47353">
        <ele>1124</ele>
        <time>2019-11-08T13:13:50Z</time>
      </trkpt>
      <trkpt lat="43.43606" lon="2.47327">
        <ele>1128</ele>
        <time>2019-11-08T13:14:07Z</time>
      </trkpt>
      <trkpt lat="43.43593" lon="2.47257">
        <ele>1134</ele>
        <time>2019-11-08T13:14:49Z</time>
      </trkpt>
      <trkpt lat="43.43568" lon="2.47223">
        <ele>1135</ele>
        <time>2019-11-08T13:15:17Z</time>
      </trkpt>
      <trkpt lat="43.43546" lon="2.47176">
        <ele>1139</ele>
        <time>2019-11-08T13:15:49Z</time>
      </trkpt>
      <trkpt lat="43.43545" lon="2.47154">
        <ele>1141</ele>
        <time>2019-11-08T13:16:02Z</time>
      </trkpt>
      <trkpt lat="43.43547" lon="2.47146">
        <ele>1142</ele>
        <time>2019-11-08T13:16:07Z</time>
      </trkpt>
      <trkpt lat="43.4357" lon="2.4711">
        <ele>1147</ele>
        <time>2019-11-08T13:16:35Z</time>
      </trkpt>
      <trkpt lat="43.4357" lon="2.47088">
        <ele>1150</ele>
        <time>2019-11-08T13:16:48Z</time>
      </trkpt>
      <trkpt lat="43.43568" lon="2.4708">
        <ele>1150</ele>
        <time>2019-11-08T13:16:53Z</time>
      </trkpt>
      <trkpt lat="43.43559" lon="2.47069">
        <ele>1151</ele>
        <time>2019-11-08T13:17:02Z</time>
      </trkpt>
      <trkpt lat="43.43556" lon="2.47053">
        <ele>1153</ele>
        <time>2019-11-08T13:17:12Z</time>
      </trkpt>
      <trkpt lat="43.43548" lon="2.47041">
        <ele>1154</ele>
        <time>2019-11-08T13:17:21Z</time>
      </trkpt>
      <trkpt lat="43.43542" lon="2.46991">
        <ele>1156</ele>
        <time>2019-11-08T13:17:51Z</time>
      </trkpt>
      <trkpt lat="43.43535" lon="2.46968">
        <ele>1156</ele>
        <time>2019-11-08T13:18:05Z</time>
      </trkpt>
      <trkpt lat="43.43532" lon="2.4694">
        <ele>1155</ele>
        <time>2019-11-08T13:18:22Z</time>
      </trkpt>
      <trkpt lat="43.4352" lon="2.46942">
        <ele>1154</ele>
        <time>2019-11-08T13:18:32Z</time>
      </trkpt>
      <trkpt lat="43.4352" lon="2.46908">
        <ele>1153</ele>
        <time>2019-11-08T13:18:51Z</time>
      </trkpt>
      <trkpt lat="43.43526" lon="2.46857">
        <ele>1152</ele>
        <time>2019-11-08T13:19:21Z</time>
      </trkpt>
      <trkpt lat="43.43545" lon="2.46788">
        <ele>1149</ele>
        <time>2019-11-08T13:20:04Z</time>
      </trkpt>
      <trkpt lat="43.43573" lon="2.46763">
        <ele>1148</ele>
        <time>2019-11-08T13:20:31Z</time>
      </trkpt>
      <trkpt lat="43.43587" lon="2.46742">
        <ele>1148</ele>
        <time>2019-11-08T13:20:48Z</time>
      </trkpt>
      <trkpt lat="43.43599" lon="2.46736">
        <ele>1148</ele>
        <time>2019-11-08T13:20:58Z</time>
      </trkpt>
      <trkpt lat="43.43607" lon="2.46729">
        <ele>1148</ele>
        <time>2019-11-08T13:21:05Z</time>
      </trkpt>
      <trkpt lat="43.43632" lon="2.46668">
        <ele>1143</ele>
        <time>2019-11-08T13:21:46Z</time>
      </trkpt>
      <trkpt lat="43.43661" lon="2.46637">
        <ele>1141</ele>
        <time>2019-11-08T13:22:16Z</time>
      </trkpt>
      <trkpt lat="43.43707" lon="2.46568">
        <ele>1136</ele>
        <time>2019-11-08T13:23:10Z</time>
      </trkpt>
      <trkpt lat="43.43752" lon="2.46516">
        <ele>1134</ele>
        <time>2019-11-08T13:23:57Z</time>
      </trkpt>
      <trkpt lat="43.4376" lon="2.465">
        <ele>1133</ele>
        <time>2019-11-08T13:24:08Z</time>
      </trkpt>
      <trkpt lat="43.43773" lon="2.46451">
        <ele>1131</ele>
        <time>2019-11-08T13:24:39Z</time>
      </trkpt>
      <trkpt lat="43.43783" lon="2.46431">
        <ele>1131</ele>
        <time>2019-11-08T13:24:53Z</time>
      </trkpt>
      <trkpt lat="43.43785" lon="2.46421">
        <ele>1130</ele>
        <time>2019-11-08T13:24:59Z</time>
      </trkpt>
      <trkpt lat="43.43781" lon="2.46405">
        <ele>1130</ele>
        <time>2019-11-08T13:25:09Z</time>
      </trkpt>
      <trkpt lat="43.43753" lon="2.4637">
        <ele>1129</ele>
        <time>2019-11-08T13:25:39Z</time>
      </trkpt>
      <trkpt lat="43.43743" lon="2.46353">
        <ele>1128</ele>
        <time>2019-11-08T13:25:52Z</time>
      </trkpt>
      <trkpt lat="43.43734" lon="2.46323">
        <ele>1129</ele>
        <time>2019-11-08T13:26:10Z</time>
      </trkpt>
      <trkpt lat="43.43722" lon="2.46265">
        <ele>1128</ele>
        <time>2019-11-08T13:26:46Z</time>
      </trkpt>
      <trkpt lat="43.43711" lon="2.46193">
        <ele>1125</ele>
        <time>2019-11-08T13:27:28Z</time>
      </trkpt>
      <trkpt lat="43.43705" lon="2.46061">
        <ele>1125</ele>
        <time>2019-11-08T13:28:45Z</time>
      </trkpt>
      <trkpt lat="43.43716" lon="2.46022">
        <ele>1126</ele>
        <time>2019-11-08T13:29:10Z</time>
      </trkpt>
      <trkpt lat="43.43774" lon="2.45894">
        <ele>1129</ele>
        <time>2019-11-08T13:30:37Z</time>
      </trkpt>
      <trkpt lat="43.43788" lon="2.45872">
        <ele>1131</ele>
        <time>2019-11-08T13:30:54Z</time>
      </trkpt>
      <trkpt lat="43.43825" lon="2.45833">
        <ele>1136</ele>
        <time>2019-11-08T13:31:32Z</time>
      </trkpt>
      <trkpt lat="43.4383" lon="2.45825">
        <ele>1137</ele>
        <time>2019-11-08T13:31:38Z</time>
      </trkpt>
      <trkpt lat="43.43833" lon="2.458">
        <ele>1138</ele>
        <time>2019-11-08T13:31:52Z</time>
      </trkpt>
      <trkpt lat="43.43815" lon="2.4576">
        <ele>1137</ele>
        <time>2019-11-08T13:32:20Z</time>
      </trkpt>
      <trkpt lat="43.43813" lon="2.45724">
        <ele>1138</ele>
        <time>2019-11-08T13:32:41Z</time>
      </trkpt>
      <trkpt lat="43.43819" lon="2.45716">
        <ele>1138</ele>
        <time>2019-11-08T13:32:47Z</time>
      </trkpt>
      <trkpt lat="43.43829" lon="2.4571">
        <ele>1139</ele>
        <time>2019-11-08T13:32:56Z</time>
      </trkpt>
      <trkpt lat="43.43842" lon="2.45683">
        <ele>1140</ele>
        <time>2019-11-08T13:33:15Z</time>
      </trkpt>
      <trkpt lat="43.4387" lon="2.45674">
        <ele>1142</ele>
        <time>2019-11-08T13:33:38Z</time>
      </trkpt>
      <trkpt lat="43.43896" lon="2.45649">
        <ele>1141</ele>
        <time>2019-11-08T13:34:03Z</time>
      </trkpt>
      <trkpt lat="43.43906" lon="2.45646">
        <ele>1141</ele>
        <time>2019-11-08T13:34:12Z</time>
      </trkpt>
      <trkpt lat="43.43925" lon="2.45645">
        <ele>1142</ele>
        <time>2019-11-08T13:34:27Z</time>
      </trkpt>
      <trkpt lat="43.43945" lon="2.45636">
        <ele>1141</ele>
        <time>2019-11-08T13:34:44Z</time>
      </trkpt>
      <trkpt lat="43.44013" lon="2.45582">
        <ele>1136</ele>
        <time>2019-11-08T13:35:47Z</time>
      </trkpt>
      <trkpt lat="43.44033" lon="2.45552">
        <ele>1133</ele>
        <time>2019-11-08T13:36:10Z</time>
      </trkpt>
      <trkpt lat="43.44062" lon="2.45529">
        <ele>1131</ele>
        <time>2019-11-08T13:36:37Z</time>
      </trkpt>
      <trkpt lat="43.44083" lon="2.45518">
        <ele>1131</ele>
        <time>2019-11-08T13:36:55Z</time>
      </trkpt>
      <trkpt lat="43.44129" lon="2.45505">
        <ele>1129</ele>
        <time>2019-11-08T13:37:33Z</time>
      </trkpt>
      <trkpt lat="43.44145" lon="2.4549">
        <ele>1126</ele>
        <time>2019-11-08T13:37:48Z</time>
      </trkpt>
      <trkpt lat="43.44153" lon="2.45486">
        <ele>1126</ele>
        <time>2019-11-08T13:37:55Z</time>
      </trkpt>
      <trkpt lat="43.44178" lon="2.45487">
        <ele>1125</ele>
        <time>2019-11-08T13:38:15Z</time>
      </trkpt>
      <trkpt lat="43.442" lon="2.45492">
        <ele>1125</ele>
        <time>2019-11-08T13:38:33Z</time>
      </trkpt>
      <trkpt lat="43.44236" lon="2.45507">
        <ele>1125</ele>
        <time>2019-11-08T13:39:03Z</time>
      </trkpt>
      <trkpt lat="43.44269" lon="2.45513">
        <ele>1123</ele>
        <time>2019-11-08T13:39:30Z</time>
      </trkpt>
      <trkpt lat="43.44311" lon="2.45527">
        <ele>1121</ele>
        <time>2019-11-08T13:40:04Z</time>
      </trkpt>
      <trkpt lat="43.44337" lon="2.4552">
        <ele>1117</ele>
        <time>2019-11-08T13:40:25Z</time>
      </trkpt>
      <trkpt lat="43.44422" lon="2.45504">
        <ele>1111</ele>
        <time>2019-11-08T13:41:34Z</time>
      </trkpt>
      <trkpt lat="43.44475" lon="2.4549">
        <ele>1106</ele>
        <time>2019-11-08T13:42:17Z</time>
      </trkpt>
      <trkpt lat="43.44495" lon="2.45482">
        <ele>1104</ele>
        <time>2019-11-08T13:42:34Z</time>
      </trkpt>
      <trkpt lat="43.44533" lon="2.45479">
        <ele>1101</ele>
        <time>2019-11-08T13:43:04Z</time>
      </trkpt>
      <trkpt lat="43.44576" lon="2.45491">
        <ele>1098</ele>
        <time>2019-11-08T13:43:40Z</time>
      </trkpt>
      <trkpt lat="43.44588" lon="2.45484">
        <ele>1097</ele>
        <time>2019-11-08T13:43:50Z</time>
      </trkpt>
      <trkpt lat="43.44657" lon="2.45481">
        <ele>1093</ele>
        <time>2019-11-08T13:44:45Z</time>
      </trkpt>
      <trkpt lat="43.44673" lon="2.45459">
        <ele>1092</ele>
        <time>2019-11-08T13:45:03Z</time>
      </trkpt>
      <trkpt lat="43.44705" lon="2.45425">
        <ele>1093</ele>
        <time>2019-11-08T13:45:36Z</time>
      </trkpt>
      <trkpt lat="43.44722" lon="2.45399">
        <ele>1092</ele>
        <time>2019-11-08T13:45:56Z</time>
      </trkpt>
      <trkpt lat="43.44743" lon="2.45373">
        <ele>1091</ele>
        <time>2019-11-08T13:46:19Z</time>
      </trkpt>
      <trkpt lat="43.44755" lon="2.45346">
        <ele>1090</ele>
        <time>2019-11-08T13:46:37Z</time>
      </trkpt>
      <trkpt lat="43.44774" lon="2.45284">
        <ele>1088</ele>
        <time>2019-11-08T13:47:16Z</time>
      </trkpt>
      <trkpt lat="43.44785" lon="2.45275">
        <ele>1091</ele>
        <time>2019-11-08T13:47:26Z</time>
      </trkpt>
      <trkpt lat="43.44794" lon="2.45247">
        <ele>1091</ele>
        <time>2019-11-08T13:47:44Z</time>
      </trkpt>
      <trkpt lat="43.44795" lon="2.45222">
        <ele>1090</ele>
        <time>2019-11-08T13:47:59Z</time>
      </trkpt>
      <trkpt lat="43.44793" lon="2.45211">
        <ele>1089</ele>
        <time>2019-11-08T13:48:05Z</time>
      </trkpt>
      <trkpt lat="43.44779" lon="2.45175">
        <ele>1084</ele>
        <time>2019-11-08T13:48:29Z</time>
      </trkpt>
      <trkpt lat="43.44773" lon="2.45147">
        <ele>1081</ele>
        <time>2019-11-08T13:48:46Z</time>
      </trkpt>
      <trkpt lat="43.44773" lon="2.45123">
        <ele>1079</ele>
        <time>2019-11-08T13:49:00Z</time>
      </trkpt>
      <trkpt lat="43.44781" lon="2.45036">
        <ele>1075</ele>
        <time>2019-11-08T13:49:51Z</time>
      </trkpt>
      <trkpt lat="43.44796" lon="2.44963">
        <ele>1072</ele>
        <time>2019-11-08T13:50:35Z</time>
      </trkpt>
      <trkpt lat="43.44805" lon="2.44893">
        <ele>1066</ele>
        <time>2019-11-08T13:51:16Z</time>
      </trkpt>
      <trkpt lat="43.4481" lon="2.4483">
        <ele>1059</ele>
        <time>2019-11-08T13:51:53Z</time>
      </trkpt>
      <trkpt lat="43.44829" lon="2.44768">
        <ele>1051</ele>
        <time>2019-11-08T13:52:32Z</time>
      </trkpt>
      <trkpt lat="43.44848" lon="2.44718">
        <ele>1046</ele>
        <time>2019-11-08T13:53:05Z</time>
      </trkpt>
      <trkpt lat="43.44881" lon="2.44682">
        <ele>1047</ele>
        <time>2019-11-08T13:53:39Z</time>
      </trkpt>
      <trkpt lat="43.44922" lon="2.44615">
        <ele>1046</ele>
        <time>2019-11-08T13:54:30Z</time>
      </trkpt>
      <trkpt lat="43.4493" lon="2.44591">
        <ele>1044</ele>
        <time>2019-11-08T13:54:45Z</time>
      </trkpt>
      <trkpt lat="43.44958" lon="2.44429">
        <ele>1032</ele>
        <time>2019-11-08T13:56:22Z</time>
      </trkpt>
      <trkpt lat="43.44964" lon="2.44404">
        <ele>1031</ele>
        <time>2019-11-08T13:56:37Z</time>
      </trkpt>
      <trkpt lat="43.4497" lon="2.4439">
        <ele>1031</ele>
        <time>2019-11-08T13:56:47Z</time>
      </trkpt>
      <trkpt lat="43.44979" lon="2.44318">
        <ele>1026</ele>
        <time>2019-11-08T13:57:29Z</time>
      </trkpt>
      <trkpt lat="43.44985" lon="2.44289">
        <ele>1024</ele>
        <time>2019-11-08T13:57:47Z</time>
      </trkpt>
      <trkpt lat="43.44985" lon="2.4428">
        <ele>1023</ele>
        <time>2019-11-08T13:57:52Z</time>
      </trkpt>
      <trkpt lat="43.44976" lon="2.44241">
        <ele>1018</ele>
        <time>2019-11-08T13:58:16Z</time>
      </trkpt>
      <trkpt lat="43.44988" lon="2.44205">
        <ele>1015</ele>
        <time>2019-11-08T13:58:39Z</time>
      </trkpt>
      <trkpt lat="43.44993" lon="2.44129">
        <ele>1006</ele>
        <time>2019-11-08T13:59:23Z</time>
      </trkpt>
      <trkpt lat="43.44999" lon="2.44103">
        <ele>1003</ele>
        <time>2019-11-08T13:59:39Z</time>
      </trkpt>
      <trkpt lat="43.4501" lon="2.44071">
        <ele>998</ele>
        <time>2019-11-08T14:00:00Z</time>
      </trkpt>
      <trkpt lat="43.45032" lon="2.44018">
        <ele>991</ele>
        <time>2019-11-08T14:00:35Z</time>
      </trkpt>
      <trkpt lat="43.45044" lon="2.44002">
        <ele>989</ele>
        <time>2019-11-08T14:00:48Z</time>
      </trkpt>
      <trkpt lat="43.45058" lon="2.43991">
        <ele>988</ele>
        <time>2019-11-08T14:01:01Z</time>
      </trkpt>
      <trkpt lat="43.4507" lon="2.43989">
        <ele>988</ele>
        <time>2019-11-08T14:01:11Z</time>
      </trkpt>
      <trkpt lat="43.45101" lon="2.43988">
        <ele>986</ele>
        <time>2019-11-08T14:01:36Z</time>
      </trkpt>
      <trkpt lat="43.45118" lon="2.4399">
        <ele>984</ele>
        <time>2019-11-08T14:01:50Z</time>
      </trkpt>
      <trkpt lat="43.45152" lon="2.44022">
        <ele>984</ele>
        <time>2019-11-08T14:02:23Z</time>
      </trkpt>
      <trkpt lat="43.45169" lon="2.4405">
        <ele>985</ele>
        <time>2019-11-08T14:02:44Z</time>
      </trkpt>
      <trkpt lat="43.45181" lon="2.44077">
        <ele>984</ele>
        <time>2019-11-08T14:03:02Z</time>
      </trkpt>
      <trkpt lat="43.4519" lon="2.44105">
        <ele>985</ele>
        <time>2019-11-08T14:03:20Z</time>
      </trkpt>
      <trkpt lat="43.45201" lon="2.44158">
        <ele>986</ele>
        <time>2019-11-08T14:03:52Z</time>
      </trkpt>
      <trkpt lat="43.45232" lon="2.44258">
        <ele>985</ele>
        <time>2019-11-08T14:04:55Z</time>
      </trkpt>
      <trkpt lat="43.45255" lon="2.44301">
        <ele>984</ele>
        <time>2019-11-08T14:05:26Z</time>
      </trkpt>
      <trkpt lat="43.45268" lon="2.4432">
        <ele>983</ele>
        <time>2019-11-08T14:05:41Z</time>
      </trkpt>
      <trkpt lat="43.45287" lon="2.4434">
        <ele>982</ele>
        <time>2019-11-08T14:06:01Z</time>
      </trkpt>
      <trkpt lat="43.45366" lon="2.44401">
        <ele>975</ele>
        <time>2019-11-08T14:07:13Z</time>
      </trkpt>
      <trkpt lat="43.45401" lon="2.44447">
        <ele>975</ele>
        <time>2019-11-08T14:07:52Z</time>
      </trkpt>
      <trkpt lat="43.45413" lon="2.44459">
        <ele>974</ele>
        <time>2019-11-08T14:08:04Z</time>
      </trkpt>
      <trkpt lat="43.45441" lon="2.44476">
        <ele>971</ele>
        <time>2019-11-08T14:08:28Z</time>
      </trkpt>
      <trkpt lat="43.45487" lon="2.44501">
        <ele>967</ele>
        <time>2019-11-08T14:09:08Z</time>
      </trkpt>
      <trkpt lat="43.4552" lon="2.44509">
        <ele>963</ele>
        <time>2019-11-08T14:09:35Z</time>
      </trkpt>
      <trkpt lat="43.45537" lon="2.44519">
        <ele>962</ele>
        <time>2019-11-08T14:09:49Z</time>
      </trkpt>
      <trkpt lat="43.45547" lon="2.4451">
        <ele>961</ele>
        <time>2019-11-08T14:09:59Z</time>
      </trkpt>
      <trkpt lat="43.45567" lon="2.44508">
        <ele>960</ele>
        <time>2019-11-08T14:10:15Z</time>
      </trkpt>
      <trkpt lat="43.45642" lon="2.44399">
        <ele>959</ele>
        <time>2019-11-08T14:11:42Z</time>
      </trkpt>
      <trkpt lat="43.45659" lon="2.44367">
        <ele>961</ele>
        <time>2019-11-08T14:12:05Z</time>
      </trkpt>
      <trkpt lat="43.45677" lon="2.44321">
        <ele>961</ele>
        <time>2019-11-08T14:12:36Z</time>
      </trkpt>
      <trkpt lat="43.457" lon="2.44274">
        <ele>958</ele>
        <time>2019-11-08T14:13:09Z</time>
      </trkpt>
      <trkpt lat="43.45705" lon="2.44265">
        <ele>958</ele>
        <time>2019-11-08T14:13:15Z</time>
      </trkpt>
      <trkpt lat="43.45715" lon="2.44255">
        <ele>958</ele>
        <time>2019-11-08T14:13:25Z</time>
      </trkpt>
      <trkpt lat="43.45728" lon="2.44201">
        <ele>959</ele>
        <time>2019-11-08T14:13:58Z</time>
      </trkpt>
      <trkpt lat="43.45747" lon="2.44144">
        <ele>961</ele>
        <time>2019-11-08T14:14:35Z</time>
      </trkpt>
      <trkpt lat="43.45788" lon="2.44057">
        <ele>958</ele>
        <time>2019-11-08T14:15:35Z</time>
      </trkpt>
      <trkpt lat="43.45858" lon="2.43948">
        <ele>958</ele>
        <time>2019-11-08T14:17:00Z</time>
      </trkpt>
      <trkpt lat="43.45895" lon="2.439">
        <ele>958</ele>
        <time>2019-11-08T14:17:40Z</time>
      </trkpt>
      <trkpt lat="43.45965" lon="2.43796">
        <ele>957</ele>
        <time>2019-11-08T14:19:03Z</time>
      </trkpt>
      <trkpt lat="43.45981" lon="2.43767">
        <ele>956</ele>
        <time>2019-11-08T14:19:24Z</time>
      </trkpt>
      <trkpt lat="43.46001" lon="2.4372">
        <ele>953</ele>
        <time>2019-11-08T14:19:56Z</time>
      </trkpt>
      <trkpt lat="43.46017" lon="2.4369">
        <ele>950</ele>
        <time>2019-11-08T14:20:17Z</time>
      </trkpt>
      <trkpt lat="43.46032" lon="2.43671">
        <ele>949</ele>
        <time>2019-11-08T14:20:33Z</time>
      </trkpt>
      <trkpt lat="43.46049" lon="2.43633">
        <ele>947</ele>
        <time>2019-11-08T14:20:59Z</time>
      </trkpt>
      <trkpt lat="43.4608" lon="2.436">
        <ele>949</ele>
        <time>2019-11-08T14:21:31Z</time>
      </trkpt>
      <trkpt lat="43.46117" lon="2.4358">
        <ele>948</ele>
        <time>2019-11-08T14:22:03Z</time>
      </trkpt>
      <trkpt lat="43.46173" lon="2.43563">
        <ele>948</ele>
        <time>2019-11-08T14:22:49Z</time>
      </trkpt>
      <trkpt lat="43.46212" lon="2.43558">
        <ele>947</ele>
        <time>2019-11-08T14:23:20Z</time>
      </trkpt>
      <trkpt lat="43.46223" lon="2.43553">
        <ele>947</ele>
        <time>2019-11-08T14:23:29Z</time>
      </trkpt>
      <trkpt lat="43.46247" lon="2.43537">
        <ele>948</ele>
        <time>2019-11-08T14:23:50Z</time>
      </trkpt>
      <trkpt lat="43.46285" lon="2.435">
        <ele>947</ele>
        <time>2019-11-08T14:24:28Z</time>
      </trkpt>
      <trkpt lat="43.46312" lon="2.43483">
        <ele>944</ele>
        <time>2019-11-08T14:24:52Z</time>
      </trkpt>
      <trkpt lat="43.46345" lon="2.43454">
        <ele>940</ele>
        <time>2019-11-08T14:25:23Z</time>
      </trkpt>
      <trkpt lat="43.46371" lon="2.43422">
        <ele>937</ele>
        <time>2019-11-08T14:25:51Z</time>
      </trkpt>
      <trkpt lat="43.46398" lon="2.43381">
        <ele>933</ele>
        <time>2019-11-08T14:26:23Z</time>
      </trkpt>
      <trkpt lat="43.46412" lon="2.43369">
        <ele>932</ele>
        <time>2019-11-08T14:26:36Z</time>
      </trkpt>
      <trkpt lat="43.46448" lon="2.43318">
        <ele>927</ele>
        <time>2019-11-08T14:27:17Z</time>
      </trkpt>
      <trkpt lat="43.46524" lon="2.43228">
        <ele>917</ele>
        <time>2019-11-08T14:28:38Z</time>
      </trkpt>
      <trkpt lat="43.46552" lon="2.43201">
        <ele>913</ele>
        <time>2019-11-08T14:29:05Z</time>
      </trkpt>
      <trkpt lat="43.46561" lon="2.43181">
        <ele>912</ele>
        <time>2019-11-08T14:29:19Z</time>
      </trkpt>
      <trkpt lat="43.46573" lon="2.43168">
        <ele>910</ele>
        <time>2019-11-08T14:29:31Z</time>
      </trkpt>
      <trkpt lat="43.46586" lon="2.43135">
        <ele>907</ele>
        <time>2019-11-08T14:29:53Z</time>
      </trkpt>
      <trkpt lat="43.46609" lon="2.43115">
        <ele>903</ele>
        <time>2019-11-08T14:30:15Z</time>
      </trkpt>
      <trkpt lat="43.46621" lon="2.43095">
        <ele>900</ele>
        <time>2019-11-08T14:30:30Z</time>
      </trkpt>
      <trkpt lat="43.46644" lon="2.43071">
        <ele>896</ele>
        <time>2019-11-08T14:30:53Z</time>
      </trkpt>
      <trkpt lat="43.46685" lon="2.42998">
        <ele>887</ele>
        <time>2019-11-08T14:31:46Z</time>
      </trkpt>
      <trkpt lat="43.46688" lon="2.42966">
        <ele>883</ele>
        <time>2019-11-08T14:32:05Z</time>
      </trkpt>
      <trkpt lat="43.46699" lon="2.42945">
        <ele>880</ele>
        <time>2019-11-08T14:32:20Z</time>
      </trkpt>
      <trkpt lat="43.46714" lon="2.42893">
        <ele>873</ele>
        <time>2019-11-08T14:32:53Z</time>
      </trkpt>
      <trkpt lat="43.46714" lon="2.42862">
        <ele>870</ele>
        <time>2019-11-08T14:33:11Z</time>
      </trkpt>
      <trkpt lat="43.4671" lon="2.4284">
        <ele>868</ele>
        <time>2019-11-08T14:33:24Z</time>
      </trkpt>
      <trkpt lat="43.46701" lon="2.42824">
        <ele>867</ele>
        <time>2019-11-08T14:33:36Z</time>
      </trkpt>
      <trkpt lat="43.46693" lon="2.42769">
        <ele>862</ele>
        <time>2019-11-08T14:34:08Z</time>
      </trkpt>
      <trkpt lat="43.46678" lon="2.42723">
        <ele>861</ele>
        <time>2019-11-08T14:34:38Z</time>
      </trkpt>
      <trkpt lat="43.46681" lon="2.42673">
        <ele>860</ele>
        <time>2019-11-08T14:35:07Z</time>
      </trkpt>
      <trkpt lat="43.46693" lon="2.42646">
        <ele>858</ele>
        <time>2019-11-08T14:35:25Z</time>
      </trkpt>
      <trkpt lat="43.46699" lon="2.42621">
        <ele>857</ele>
        <time>2019-11-08T14:35:40Z</time>
      </trkpt>
      <trkpt lat="43.46703" lon="2.42501">
        <ele>855</ele>
        <time>2019-11-08T14:36:50Z</time>
      </trkpt>
      <trkpt lat="43.4672" lon="2.424">
        <ele>850</ele>
        <time>2019-11-08T14:37:50Z</time>
      </trkpt>
      <trkpt lat="43.46722" lon="2.42326">
        <ele>847</ele>
        <time>2019-11-08T14:38:34Z</time>
      </trkpt>
      <trkpt lat="43.46721" lon="2.42312">
        <ele>847</ele>
        <time>2019-11-08T14:38:42Z</time>
      </trkpt>
      <trkpt lat="43.46712" lon="2.42272">
        <ele>847</ele>
        <time>2019-11-08T14:39:06Z</time>
      </trkpt>
      <trkpt lat="43.46709" lon="2.42217">
        <ele>846</ele>
        <time>2019-11-08T14:39:38Z</time>
      </trkpt>
      <trkpt lat="43.46728" lon="2.4221">
        <ele>845</ele>
        <time>2019-11-08T14:39:54Z</time>
      </trkpt>
      <trkpt lat="43.46736" lon="2.42205">
        <ele>845</ele>
        <time>2019-11-08T14:40:01Z</time>
      </trkpt>
      <trkpt lat="43.46747" lon="2.42193">
        <ele>844</ele>
        <time>2019-11-08T14:40:12Z</time>
      </trkpt>
      <trkpt lat="43.46752" lon="2.42191">
        <ele>844</ele>
        <time>2019-11-08T14:40:16Z</time>
      </trkpt>
      <trkpt lat="43.46764" lon="2.42193">
        <ele>842</ele>
        <time>2019-11-08T14:40:26Z</time>
      </trkpt>
      <trkpt lat="43.46771" lon="2.42198">
        <ele>840</ele>
        <time>2019-11-08T14:40:32Z</time>
      </trkpt>
      <trkpt lat="43.46782" lon="2.42198">
        <ele>838</ele>
        <time>2019-11-08T14:40:41Z</time>
      </trkpt>
      <trkpt lat="43.46794" lon="2.42202">
        <ele>835</ele>
        <time>2019-11-08T14:40:51Z</time>
      </trkpt>
      <trkpt lat="43.46801" lon="2.42202">
        <ele>834</ele>
        <time>2019-11-08T14:40:57Z</time>
      </trkpt>
      <trkpt lat="43.46806" lon="2.42199">
        <ele>833</ele>
        <time>2019-11-08T14:41:01Z</time>
      </trkpt>
      <trkpt lat="43.46817" lon="2.4218">
        <ele>833</ele>
        <time>2019-11-08T14:41:15Z</time>
      </trkpt>
      <trkpt lat="43.46826" lon="2.42182">
        <ele>831</ele>
        <time>2019-11-08T14:41:22Z</time>
      </trkpt>
      <trkpt lat="43.46841" lon="2.42173">
        <ele>828</ele>
        <time>2019-11-08T14:41:35Z</time>
      </trkpt>
      <trkpt lat="43.46857" lon="2.42158">
        <ele>824</ele>
        <time>2019-11-08T14:41:51Z</time>
      </trkpt>
      <trkpt lat="43.46871" lon="2.4213">
        <ele>822</ele>
        <time>2019-11-08T14:42:11Z</time>
      </trkpt>
      <trkpt lat="43.46879" lon="2.42106">
        <ele>822</ele>
        <time>2019-11-08T14:42:26Z</time>
      </trkpt>
      <trkpt lat="43.46884" lon="2.421">
        <ele>821</ele>
        <time>2019-11-08T14:42:31Z</time>
      </trkpt>
      <trkpt lat="43.46889" lon="2.421">
        <ele>819</ele>
        <time>2019-11-08T14:42:35Z</time>
      </trkpt>
      <trkpt lat="43.46936" lon="2.42163">
        <ele>797</ele>
        <time>2019-11-08T14:43:28Z</time>
      </trkpt>
      <trkpt lat="43.46941" lon="2.42172">
        <ele>795</ele>
        <time>2019-11-08T14:43:34Z</time>
      </trkpt>
      <trkpt lat="43.46948" lon="2.42208">
        <ele>791</ele>
        <time>2019-11-08T14:43:56Z</time>
      </trkpt>
      <trkpt lat="43.46959" lon="2.42194">
        <ele>788</ele>
        <time>2019-11-08T14:44:08Z</time>
      </trkpt>
      <trkpt lat="43.46966" lon="2.4218">
        <ele>787</ele>
        <time>2019-11-08T14:44:18Z</time>
      </trkpt>
      <trkpt lat="43.46973" lon="2.42161">
        <ele>786</ele>
        <time>2019-11-08T14:44:30Z</time>
      </trkpt>
      <trkpt lat="43.4698" lon="2.42126">
        <ele>786</ele>
        <time>2019-11-08T14:44:51Z</time>
      </trkpt>
      <trkpt lat="43.46988" lon="2.42168">
        <ele>781</ele>
        <time>2019-11-08T14:45:17Z</time>
      </trkpt>
      <trkpt lat="43.46987" lon="2.42208">
        <ele>779</ele>
        <time>2019-11-08T14:45:40Z</time>
      </trkpt>
      <trkpt lat="43.4698" lon="2.42254">
        <ele>780</ele>
        <time>2019-11-08T14:46:07Z</time>
      </trkpt>
      <trkpt lat="43.4698" lon="2.4227">
        <ele>779</ele>
        <time>2019-11-08T14:46:17Z</time>
      </trkpt>
      <trkpt lat="43.46984" lon="2.42289">
        <ele>777</ele>
        <time>2019-11-08T14:46:28Z</time>
      </trkpt>
      <trkpt lat="43.46998" lon="2.42317">
        <ele>772</ele>
        <time>2019-11-08T14:46:48Z</time>
      </trkpt>
      <trkpt lat="43.46989" lon="2.42282">
        <ele>776</ele>
        <time>2019-11-08T14:47:09Z</time>
      </trkpt>
      <trkpt lat="43.4699" lon="2.42265">
        <ele>776</ele>
        <time>2019-11-08T14:47:19Z</time>
      </trkpt>
      <trkpt lat="43.46993" lon="2.42253">
        <ele>776</ele>
        <time>2019-11-08T14:47:27Z</time>
      </trkpt>
      <trkpt lat="43.47015" lon="2.42203">
        <ele>770</ele>
        <time>2019-11-08T14:48:01Z</time>
      </trkpt>
      <trkpt lat="43.47022" lon="2.42168">
        <ele>769</ele>
        <time>2019-11-08T14:48:22Z</time>
      </trkpt>
      <trkpt lat="43.47027" lon="2.42091">
        <ele>768</ele>
        <time>2019-11-08T14:49:07Z</time>
      </trkpt>
      <trkpt lat="43.4702" lon="2.42039">
        <ele>776</ele>
        <time>2019-11-08T14:49:37Z</time>
      </trkpt>
      <trkpt lat="43.47023" lon="2.42021">
        <ele>777</ele>
        <time>2019-11-08T14:49:48Z</time>
      </trkpt>
      <trkpt lat="43.47034" lon="2.41998">
        <ele>773</ele>
        <time>2019-11-08T14:50:04Z</time>
      </trkpt>
      <trkpt lat="43.4704" lon="2.41958">
        <ele>776</ele>
        <time>2019-11-08T14:50:28Z</time>
      </trkpt>
      <trkpt lat="43.47046" lon="2.41944">
        <ele>775</ele>
        <time>2019-11-08T14:50:37Z</time>
      </trkpt>
      <trkpt lat="43.4706" lon="2.41922">
        <ele>772</ele>
        <time>2019-11-08T14:50:54Z</time>
      </trkpt>
      <trkpt lat="43.47092" lon="2.41905">
        <ele>761</ele>
        <time>2019-11-08T14:51:22Z</time>
      </trkpt>
      <trkpt lat="43.47103" lon="2.41892">
        <ele>759</ele>
        <time>2019-11-08T14:51:33Z</time>
      </trkpt>
      <trkpt lat="43.47173" lon="2.41787">
        <ele>748</ele>
        <time>2019-11-08T14:52:56Z</time>
      </trkpt>
      <trkpt lat="43.47176" lon="2.41774">
        <ele>748</ele>
        <time>2019-11-08T14:53:04Z</time>
      </trkpt>
      <trkpt lat="43.47179" lon="2.4173">
        <ele>755</ele>
        <time>2019-11-08T14:53:30Z</time>
      </trkpt>
      <trkpt lat="43.47183" lon="2.41714">
        <ele>756</ele>
        <time>2019-11-08T14:53:40Z</time>
      </trkpt>
      <trkpt lat="43.47193" lon="2.41696">
        <ele>755</ele>
        <time>2019-11-08T14:53:53Z</time>
      </trkpt>
      <trkpt lat="43.47236" lon="2.41637">
        <ele>746</ele>
        <time>2019-11-08T14:54:41Z</time>
      </trkpt>
      <trkpt lat="43.47282" lon="2.41586">
        <ele>740</ele>
        <time>2019-11-08T14:55:29Z</time>
      </trkpt>
      <trkpt lat="43.473" lon="2.41562">
        <ele>738</ele>
        <time>2019-11-08T14:55:49Z</time>
      </trkpt>
      <trkpt lat="43.47346" lon="2.41513">
        <ele>734</ele>
        <time>2019-11-08T14:56:35Z</time>
      </trkpt>
      <trkpt lat="43.47375" lon="2.41469">
        <ele>728</ele>
        <time>2019-11-08T14:57:10Z</time>
      </trkpt>
      <trkpt lat="43.47382" lon="2.41453">
        <ele>727</ele>
        <time>2019-11-08T14:57:21Z</time>
      </trkpt>
      <trkpt lat="43.47386" lon="2.41431">
        <ele>728</ele>
        <time>2019-11-08T14:57:34Z</time>
      </trkpt>
      <trkpt lat="43.47382" lon="2.41408">
        <ele>730</ele>
        <time>2019-11-08T14:57:48Z</time>
      </trkpt>
      <trkpt lat="43.47361" lon="2.41375">
        <ele>730</ele>
        <time>2019-11-08T14:58:13Z</time>
      </trkpt>
      <trkpt lat="43.47338" lon="2.41348">
        <ele>731</ele>
        <time>2019-11-08T14:58:37Z</time>
      </trkpt>
      <trkpt lat="43.47289" lon="2.41281">
        <ele>728</ele>
        <time>2019-11-08T14:59:33Z</time>
      </trkpt>
      <trkpt lat="43.47283" lon="2.41269">
        <ele>727</ele>
        <time>2019-11-08T14:59:41Z</time>
      </trkpt>
      <trkpt lat="43.47276" lon="2.41242">
        <ele>724</ele>
        <time>2019-11-08T14:59:58Z</time>
      </trkpt>
      <trkpt lat="43.47275" lon="2.41224">
        <ele>723</ele>
        <time>2019-11-08T15:00:08Z</time>
      </trkpt>
      <trkpt lat="43.47278" lon="2.41159">
        <ele>715</ele>
        <time>2019-11-08T15:00:46Z</time>
      </trkpt>
      <trkpt lat="43.4727" lon="2.41129">
        <ele>714</ele>
        <time>2019-11-08T15:01:05Z</time>
      </trkpt>
      <trkpt lat="43.47243" lon="2.41077">
        <ele>714</ele>
        <time>2019-11-08T15:01:42Z</time>
      </trkpt>
      <trkpt lat="43.47236" lon="2.41041">
        <ele>710</ele>
        <time>2019-11-08T15:02:03Z</time>
      </trkpt>
      <trkpt lat="43.47237" lon="2.41">
        <ele>705</ele>
        <time>2019-11-08T15:02:27Z</time>
      </trkpt>
      <trkpt lat="43.47225" lon="2.40986">
        <ele>705</ele>
        <time>2019-11-08T15:02:40Z</time>
      </trkpt>
      <trkpt lat="43.47199" lon="2.40973">
        <ele>707</ele>
        <time>2019-11-08T15:03:02Z</time>
      </trkpt>
      <trkpt lat="43.47201" lon="2.4095">
        <ele>705</ele>
        <time>2019-11-08T15:03:15Z</time>
      </trkpt>
      <trkpt lat="43.4722" lon="2.40905">
        <ele>698</ele>
        <time>2019-11-08T15:03:46Z</time>
      </trkpt>
      <trkpt lat="43.47235" lon="2.40861">
        <ele>688</ele>
        <time>2019-11-08T15:04:14Z</time>
      </trkpt>
      <trkpt lat="43.47316" lon="2.40839">
        <ele>682</ele>
        <time>2019-11-08T15:05:20Z</time>
      </trkpt>
      <trkpt lat="43.47334" lon="2.40836">
        <ele>682</ele>
        <time>2019-11-08T15:05:35Z</time>
      </trkpt>
      <trkpt lat="43.47355" lon="2.40836">
        <ele>682</ele>
        <time>2019-11-08T15:05:51Z</time>
      </trkpt>
      <trkpt lat="43.47385" lon="2.40829">
        <ele>681</ele>
        <time>2019-11-08T15:06:16Z</time>
      </trkpt>
      <trkpt lat="43.47421" lon="2.40812">
        <ele>678</ele>
        <time>2019-11-08T15:06:46Z</time>
      </trkpt>
      <trkpt lat="43.47457" lon="2.40788">
        <ele>672</ele>
        <time>2019-11-08T15:07:18Z</time>
      </trkpt>
      <trkpt lat="43.47489" lon="2.40776">
        <ele>671</ele>
        <time>2019-11-08T15:07:45Z</time>
      </trkpt>
      <trkpt lat="43.47532" lon="2.40733">
        <ele>667</ele>
        <time>2019-11-08T15:08:27Z</time>
      </trkpt>
      <trkpt lat="43.47593" lon="2.40637">
        <ele>657</ele>
        <time>2019-11-08T15:09:41Z</time>
      </trkpt>
      <trkpt lat="43.47636" lon="2.40584">
        <ele>650</ele>
        <time>2019-11-08T15:10:28Z</time>
      </trkpt>
      <trkpt lat="43.47661" lon="2.40563">
        <ele>647</ele>
        <time>2019-11-08T15:10:51Z</time>
      </trkpt>
      <trkpt lat="43.47679" lon="2.40555">
        <ele>643</ele>
        <time>2019-11-08T15:11:06Z</time>
      </trkpt>
      <trkpt lat="43.47709" lon="2.40549">
        <ele>635</ele>
        <time>2019-11-08T15:11:31Z</time>
      </trkpt>
      <trkpt lat="43.47722" lon="2.40549">
        <ele>632</ele>
        <time>2019-11-08T15:11:41Z</time>
      </trkpt>
      <trkpt lat="43.4774" lon="2.40564">
        <ele>630</ele>
        <time>2019-11-08T15:11:58Z</time>
      </trkpt>
      <trkpt lat="43.47747" lon="2.40578">
        <ele>630</ele>
        <time>2019-11-08T15:12:08Z</time>
      </trkpt>
      <trkpt lat="43.47752" lon="2.40613">
        <ele>626</ele>
        <time>2019-11-08T15:12:28Z</time>
      </trkpt>
      <trkpt lat="43.47757" lon="2.40615">
        <ele>623</ele>
        <time>2019-11-08T15:12:33Z</time>
      </trkpt>
      <trkpt lat="43.4776" lon="2.4061">
        <ele>623</ele>
        <time>2019-11-08T15:12:36Z</time>
      </trkpt>
      <trkpt lat="43.47763" lon="2.40556">
        <ele>621</ele>
        <time>2019-11-08T15:13:08Z</time>
      </trkpt>
      <trkpt lat="43.47762" lon="2.40521">
        <ele>617</ele>
        <time>2019-11-08T15:13:28Z</time>
      </trkpt>
      <trkpt lat="43.47759" lon="2.4051">
        <ele>617</ele>
        <time>2019-11-08T15:13:35Z</time>
      </trkpt>
      <trkpt lat="43.47746" lon="2.4049">
        <ele>616</ele>
        <time>2019-11-08T15:13:51Z</time>
      </trkpt>
      <trkpt lat="43.47738" lon="2.40484">
        <ele>615</ele>
        <time>2019-11-08T15:13:58Z</time>
      </trkpt>
      <trkpt lat="43.47729" lon="2.4048">
        <ele>615</ele>
        <time>2019-11-08T15:14:05Z</time>
      </trkpt>
      <trkpt lat="43.47701" lon="2.40477">
        <ele>619</ele>
        <time>2019-11-08T15:14:28Z</time>
      </trkpt>
      <trkpt lat="43.47681" lon="2.4047">
        <ele>619</ele>
        <time>2019-11-08T15:14:44Z</time>
      </trkpt>
      <trkpt lat="43.47667" lon="2.40459">
        <ele>618</ele>
        <time>2019-11-08T15:14:57Z</time>
      </trkpt>
      <trkpt lat="43.47648" lon="2.40427">
        <ele>607</ele>
        <time>2019-11-08T15:15:21Z</time>
      </trkpt>
      <trkpt lat="43.4764" lon="2.40407">
        <ele>603</ele>
        <time>2019-11-08T15:15:35Z</time>
      </trkpt>
      <trkpt lat="43.4763" lon="2.40377">
        <ele>600</ele>
        <time>2019-11-08T15:15:54Z</time>
      </trkpt>
      <trkpt lat="43.47624" lon="2.40338">
        <ele>594</ele>
        <time>2019-11-08T15:16:17Z</time>
      </trkpt>
      <trkpt lat="43.47613" lon="2.40299">
        <ele>591</ele>
        <time>2019-11-08T15:16:41Z</time>
      </trkpt>
      <trkpt lat="43.47617" lon="2.40289">
        <ele>590</ele>
        <time>2019-11-08T15:16:48Z</time>
      </trkpt>
      <trkpt lat="43.4762" lon="2.40268">
        <ele>588</ele>
        <time>2019-11-08T15:17:00Z</time>
      </trkpt>
      <trkpt lat="43.47638" lon="2.40216">
        <ele>583</ele>
        <time>2019-11-08T15:17:34Z</time>
      </trkpt>
      <trkpt lat="43.4764" lon="2.40186">
        <ele>581</ele>
        <time>2019-11-08T15:17:51Z</time>
      </trkpt>
      <trkpt lat="43.47625" lon="2.40163">
        <ele>580</ele>
        <time>2019-11-08T15:18:09Z</time>
      </trkpt>
      <trkpt lat="43.476" lon="2.40145">
        <ele>582</ele>
        <time>2019-11-08T15:18:32Z</time>
      </trkpt>
      <trkpt lat="43.47594" lon="2.40136">
        <ele>582</ele>
        <time>2019-11-08T15:18:39Z</time>
      </trkpt>
      <trkpt lat="43.47593" lon="2.4013">
        <ele>581</ele>
        <time>2019-11-08T15:18:43Z</time>
      </trkpt>
      <trkpt lat="43.47601" lon="2.40103">
        <ele>579</ele>
        <time>2019-11-08T15:19:00Z</time>
      </trkpt>
      <trkpt lat="43.47595" lon="2.40088">
        <ele>579</ele>
        <time>2019-11-08T15:19:09Z</time>
      </trkpt>
      <trkpt lat="43.47604" lon="2.40039">
        <ele>576</ele>
        <time>2019-11-08T15:19:39Z</time>
      </trkpt>
      <trkpt lat="43.47629" lon="2.3995">
        <ele>574</ele>
        <time>2019-11-08T15:20:34Z</time>
      </trkpt>
      <trkpt lat="43.47632" lon="2.39922">
        <ele>576</ele>
        <time>2019-11-08T15:20:51Z</time>
      </trkpt>
      <trkpt lat="43.47632" lon="2.39914">
        <ele>576</ele>
        <time>2019-11-08T15:20:55Z</time>
      </trkpt>
      <trkpt lat="43.47616" lon="2.39855">
        <ele>583</ele>
        <time>2019-11-08T15:21:32Z</time>
      </trkpt>
      <trkpt lat="43.47607" lon="2.3976">
        <ele>588</ele>
        <time>2019-11-08T15:22:28Z</time>
      </trkpt>
      <trkpt lat="43.47607" lon="2.39728">
        <ele>585</ele>
        <time>2019-11-08T15:22:46Z</time>
      </trkpt>
      <trkpt lat="43.4761" lon="2.39718">
        <ele>585</ele>
        <time>2019-11-08T15:22:53Z</time>
      </trkpt>
      <trkpt lat="43.47624" lon="2.39695">
        <ele>586</ele>
        <time>2019-11-08T15:23:10Z</time>
      </trkpt>
      <trkpt lat="43.47663" lon="2.39657">
        <ele>594</ele>
        <time>2019-11-08T15:23:48Z</time>
      </trkpt>
      <trkpt lat="43.47736" lon="2.39608">
        <ele>595</ele>
        <time>2019-11-08T15:24:53Z</time>
      </trkpt>
      <trkpt lat="43.47795" lon="2.39543">
        <ele>588</ele>
        <time>2019-11-08T15:25:54Z</time>
      </trkpt>
      <trkpt lat="43.47816" lon="2.39526">
        <ele>588</ele>
        <time>2019-11-08T15:26:13Z</time>
      </trkpt>
      <trkpt lat="43.47836" lon="2.39501">
        <ele>587</ele>
        <time>2019-11-08T15:26:35Z</time>
      </trkpt>
      <trkpt lat="43.4785" lon="2.39479">
        <ele>586</ele>
        <time>2019-11-08T15:26:52Z</time>
      </trkpt>
      <trkpt lat="43.47864" lon="2.39445">
        <ele>585</ele>
        <time>2019-11-08T15:27:15Z</time>
      </trkpt>
      <trkpt lat="43.47932" lon="2.39355">
        <ele>589</ele>
        <time>2019-11-08T15:28:30Z</time>
      </trkpt>
      <trkpt lat="43.47972" lon="2.39329">
        <ele>586</ele>
        <time>2019-11-08T15:29:05Z</time>
      </trkpt>
      <trkpt lat="43.47992" lon="2.39306">
        <ele>585</ele>
        <time>2019-11-08T15:29:26Z</time>
      </trkpt>
      <trkpt lat="43.48012" lon="2.39248">
        <ele>581</ele>
        <time>2019-11-08T15:30:04Z</time>
      </trkpt>
      <trkpt lat="43.48059" lon="2.39131">
        <ele>571</ele>
        <time>2019-11-08T15:31:21Z</time>
      </trkpt>
      <trkpt lat="43.48105" lon="2.39005">
        <ele>563</ele>
        <time>2019-11-08T15:32:43Z</time>
      </trkpt>
      <trkpt lat="43.48142" lon="2.38919">
        <ele>556</ele>
        <time>2019-11-08T15:33:41Z</time>
      </trkpt>
      <trkpt lat="43.48153" lon="2.38904">
        <ele>555</ele>
        <time>2019-11-08T15:33:54Z</time>
      </trkpt>
      <trkpt lat="43.48231" lon="2.38758">
        <ele>550</ele>
        <time>2019-11-08T15:35:39Z</time>
      </trkpt>
      <trkpt lat="43.48241" lon="2.38748">
        <ele>549</ele>
        <time>2019-11-08T15:35:49Z</time>
      </trkpt>
      <trkpt lat="43.48262" lon="2.38751">
        <ele>543</ele>
        <time>2019-11-08T15:36:06Z</time>
      </trkpt>
      <trkpt lat="43.48276" lon="2.3875">
        <ele>539</ele>
        <time>2019-11-08T15:36:17Z</time>
      </trkpt>
      <trkpt lat="43.4829" lon="2.3874">
        <ele>536</ele>
        <time>2019-11-08T15:36:30Z</time>
      </trkpt>
      <trkpt lat="43.48306" lon="2.3871">
        <ele>535</ele>
        <time>2019-11-08T15:36:51Z</time>
      </trkpt>
      <trkpt lat="43.48321" lon="2.38659">
        <ele>535</ele>
        <time>2019-11-08T15:37:23Z</time>
      </trkpt>
      <trkpt lat="43.48341" lon="2.38566">
        <ele>532</ele>
        <time>2019-11-08T15:38:20Z</time>
      </trkpt>
      <trkpt lat="43.48345" lon="2.38557">
        <ele>531</ele>
        <time>2019-11-08T15:38:26Z</time>
      </trkpt>
      <trkpt lat="43.48351" lon="2.3855">
        <ele>529</ele>
        <time>2019-11-08T15:38:32Z</time>
      </trkpt>
      <trkpt lat="43.48357" lon="2.38548">
        <ele>526</ele>
        <time>2019-11-08T15:38:37Z</time>
      </trkpt>
      <trkpt lat="43.48368" lon="2.38552">
        <ele>521</ele>
        <time>2019-11-08T15:38:46Z</time>
      </trkpt>
      <trkpt lat="43.48374" lon="2.38561">
        <ele>517</ele>
        <time>2019-11-08T15:38:53Z</time>
      </trkpt>
      <trkpt lat="43.48379" lon="2.38557">
        <ele>516</ele>
        <time>2019-11-08T15:38:58Z</time>
      </trkpt>
      <trkpt lat="43.48411" lon="2.38499">
        <ele>508</ele>
        <time>2019-11-08T15:39:40Z</time>
      </trkpt>
      <trkpt lat="43.48421" lon="2.38488">
        <ele>504</ele>
        <time>2019-11-08T15:39:50Z</time>
      </trkpt>
      <trkpt lat="43.4846" lon="2.38457">
        <ele>488</ele>
        <time>2019-11-08T15:40:26Z</time>
      </trkpt>
      <trkpt lat="43.485" lon="2.38431">
        <ele>471</ele>
        <time>2019-11-08T15:41:02Z</time>
      </trkpt>
      <trkpt lat="43.48507" lon="2.38417">
        <ele>470</ele>
        <time>2019-11-08T15:41:12Z</time>
      </trkpt>
      <trkpt lat="43.4851" lon="2.38397">
        <ele>469</ele>
        <time>2019-11-08T15:41:24Z</time>
      </trkpt>
      <trkpt lat="43.48508" lon="2.3838">
        <ele>469</ele>
        <time>2019-11-08T15:41:34Z</time>
      </trkpt>
      <trkpt lat="43.48556" lon="2.38383">
        <ele>453</ele>
        <time>2019-11-08T15:42:12Z</time>
      </trkpt>
      <trkpt lat="43.48588" lon="2.38361">
        <ele>443</ele>
        <time>2019-11-08T15:42:41Z</time>
      </trkpt>
      <trkpt lat="43.4862" lon="2.38321">
        <ele>432</ele>
        <time>2019-11-08T15:43:15Z</time>
      </trkpt>
      <trkpt lat="43.48624" lon="2.38313">
        <ele>430</ele>
        <time>2019-11-08T15:43:21Z</time>
      </trkpt>
      <trkpt lat="43.48635" lon="2.38259">
        <ele>423</ele>
        <time>2019-11-08T15:43:54Z</time>
      </trkpt>
      <trkpt lat="43.48652" lon="2.38221">
        <ele>413</ele>
        <time>2019-11-08T15:44:19Z</time>
      </trkpt>
      <trkpt lat="43.48653" lon="2.38212">
        <ele>412</ele>
        <time>2019-11-08T15:44:25Z</time>
      </trkpt>
      <trkpt lat="43.48651" lon="2.382">
        <ele>410</ele>
        <time>2019-11-08T15:44:32Z</time>
      </trkpt>
      <trkpt lat="43.48625" lon="2.38178">
        <ele>411</ele>
        <time>2019-11-08T15:44:56Z</time>
      </trkpt>
      <trkpt lat="43.48606" lon="2.38171">
        <ele>412</ele>
        <time>2019-11-08T15:45:12Z</time>
      </trkpt>
      <trkpt lat="43.4859" lon="2.38171">
        <ele>415</ele>
        <time>2019-11-08T15:45:25Z</time>
      </trkpt>
      <trkpt lat="43.48573" lon="2.38167">
        <ele>419</ele>
        <time>2019-11-08T15:45:39Z</time>
      </trkpt>
      <trkpt lat="43.48568" lon="2.38143">
        <ele>419</ele>
        <time>2019-11-08T15:45:53Z</time>
      </trkpt>
      <trkpt lat="43.48556" lon="2.38008">
        <ele>416</ele>
        <time>2019-11-08T15:47:12Z</time>
      </trkpt>
      <trkpt lat="43.48548" lon="2.37956">
        <ele>414</ele>
        <time>2019-11-08T15:47:43Z</time>
      </trkpt>
      <trkpt lat="43.48542" lon="2.37937">
        <ele>413</ele>
        <time>2019-11-08T15:47:55Z</time>
      </trkpt>
      <trkpt lat="43.48536" lon="2.37928">
        <ele>414</ele>
        <time>2019-11-08T15:48:02Z</time>
      </trkpt>
      <trkpt lat="43.48521" lon="2.37917">
        <ele>415</ele>
        <time>2019-11-08T15:48:16Z</time>
      </trkpt>
      <trkpt lat="43.48502" lon="2.37919">
        <ele>419</ele>
        <time>2019-11-08T15:48:31Z</time>
      </trkpt>
      <trkpt lat="43.48485" lon="2.37924">
        <ele>417</ele>
        <time>2019-11-08T15:48:45Z</time>
      </trkpt>
      <trkpt lat="43.48469" lon="2.37932">
        <ele>416</ele>
        <time>2019-11-08T15:48:59Z</time>
      </trkpt>
      <trkpt lat="43.48425" lon="2.37971">
        <ele>421</ele>
        <time>2019-11-08T15:49:41Z</time>
      </trkpt>
      <trkpt lat="43.48361" lon="2.38009">
        <ele>422</ele>
        <time>2019-11-08T15:50:36Z</time>
      </trkpt>
      <trkpt lat="43.48306" lon="2.38006">
        <ele>410</ele>
        <time>2019-11-08T15:51:20Z</time>
      </trkpt>
      <trkpt lat="43.48292" lon="2.38008">
        <ele>409</ele>
        <time>2019-11-08T15:51:32Z</time>
      </trkpt>
      <trkpt lat="43.48282" lon="2.38011">
        <ele>408</ele>
        <time>2019-11-08T15:51:40Z</time>
      </trkpt>
      <trkpt lat="43.48253" lon="2.38028">
        <ele>410</ele>
        <time>2019-11-08T15:52:05Z</time>
      </trkpt>
      <trkpt lat="43.48234" lon="2.38043">
        <ele>415</ele>
        <time>2019-11-08T15:52:23Z</time>
      </trkpt>
      <trkpt lat="43.48198" lon="2.38045">
        <ele>415</ele>
        <time>2019-11-08T15:52:51Z</time>
      </trkpt>
      <trkpt lat="43.4819" lon="2.38049">
        <ele>416</ele>
        <time>2019-11-08T15:52:58Z</time>
      </trkpt>
      <trkpt lat="43.48183" lon="2.38049">
        <ele>415</ele>
        <time>2019-11-08T15:53:04Z</time>
      </trkpt>
      <trkpt lat="43.48169" lon="2.38021">
        <ele>406</ele>
        <time>2019-11-08T15:53:24Z</time>
      </trkpt>
      <trkpt lat="43.48151" lon="2.37996">
        <ele>400</ele>
        <time>2019-11-08T15:53:44Z</time>
      </trkpt>
      <trkpt lat="43.48114" lon="2.37979">
        <ele>400</ele>
        <time>2019-11-08T15:54:15Z</time>
      </trkpt>
      <trkpt lat="43.48072" lon="2.37971">
        <ele>401</ele>
        <time>2019-11-08T15:54:49Z</time>
      </trkpt>
      <trkpt lat="43.48053" lon="2.37954">
        <ele>397</ele>
        <time>2019-11-08T15:55:07Z</time>
      </trkpt>
      <trkpt lat="43.48039" lon="2.37947">
        <ele>396</ele>
        <time>2019-11-08T15:55:19Z</time>
      </trkpt>
      <trkpt lat="43.48022" lon="2.37933">
        <ele>392</ele>
        <time>2019-11-08T15:55:35Z</time>
      </trkpt>
      <trkpt lat="43.48014" lon="2.37932">
        <ele>392</ele>
        <time>2019-11-08T15:55:42Z</time>
      </trkpt>
      <trkpt lat="43.48003" lon="2.37926">
        <ele>391</ele>
        <time>2019-11-08T15:55:51Z</time>
      </trkpt>
      <trkpt lat="43.47989" lon="2.37928">
        <ele>390</ele>
        <time>2019-11-08T15:56:02Z</time>
      </trkpt>
      <trkpt lat="43.47983" lon="2.37925">
        <ele>389</ele>
        <time>2019-11-08T15:56:07Z</time>
      </trkpt>
      <trkpt lat="43.47959" lon="2.37894">
        <ele>381</ele>
        <time>2019-11-08T15:56:34Z</time>
      </trkpt>
      <trkpt lat="43.47954" lon="2.37876">
        <ele>377</ele>
        <time>2019-11-08T15:56:45Z</time>
      </trkpt>
      <trkpt lat="43.47946" lon="2.37875">
        <ele>377</ele>
        <time>2019-11-08T15:56:51Z</time>
      </trkpt>
      <trkpt lat="43.47944" lon="2.37868">
        <ele>376</ele>
        <time>2019-11-08T15:56:56Z</time>
      </trkpt>
      <trkpt lat="43.47933" lon="2.37852">
        <ele>374</ele>
        <time>2019-11-08T15:57:09Z</time>
      </trkpt>
      <trkpt lat="43.47921" lon="2.3781">
        <ele>373</ele>
        <time>2019-11-08T15:57:35Z</time>
      </trkpt>
      <trkpt lat="43.47919" lon="2.37794">
        <ele>374</ele>
        <time>2019-11-08T15:57:44Z</time>
      </trkpt>
      <trkpt lat="43.47889" lon="2.37804">
        <ele>369</ele>
        <time>2019-11-08T15:58:09Z</time>
      </trkpt>
      <trkpt lat="43.47884" lon="2.3781">
        <ele>368</ele>
        <time>2019-11-08T15:58:14Z</time>
      </trkpt>
      <trkpt lat="43.47885" lon="2.37837">
        <ele>365</ele>
        <time>2019-11-08T15:58:30Z</time>
      </trkpt>
      <trkpt lat="43.47883" lon="2.37848">
        <ele>365</ele>
        <time>2019-11-08T15:58:37Z</time>
      </trkpt>
      <trkpt lat="43.47849" lon="2.37941">
        <ele>358</ele>
        <time>2019-11-08T15:59:37Z</time>
      </trkpt>
      <trkpt lat="43.47822" lon="2.38044">
        <ele>362</ele>
        <time>2019-11-08T16:00:41Z</time>
      </trkpt>
      <trkpt lat="43.47819" lon="2.38049">
        <ele>362</ele>
        <time>2019-11-08T16:00:45Z</time>
      </trkpt>
      <trkpt lat="43.47816" lon="2.38049">
        <ele>362</ele>
        <time>2019-11-08T16:00:47Z</time>
      </trkpt>
      <trkpt lat="43.47814" lon="2.38061">
        <ele>362</ele>
        <time>2019-11-08T16:00:54Z</time>
      </trkpt>
      <trkpt lat="43.47807" lon="2.3807">
        <ele>361</ele>
        <time>2019-11-08T16:01:02Z</time>
      </trkpt>
      <trkpt lat="43.47794" lon="2.38105">
        <ele>363</ele>
        <time>2019-11-08T16:01:25Z</time>
      </trkpt>
      <trkpt lat="43.47788" lon="2.38114">
        <ele>363</ele>
        <time>2019-11-08T16:01:32Z</time>
      </trkpt>
      <trkpt lat="43.47782" lon="2.38121">
        <ele>363</ele>
        <time>2019-11-08T16:01:38Z</time>
      </trkpt>
      <trkpt lat="43.4776" lon="2.3813">
        <ele>357</ele>
        <time>2019-11-08T16:01:56Z</time>
      </trkpt>
      <trkpt lat="43.47751" lon="2.38093">
        <ele>349</ele>
        <time>2019-11-08T16:02:19Z</time>
      </trkpt>
      <trkpt lat="43.47769" lon="2.38058">
        <ele>355</ele>
        <time>2019-11-08T16:02:44Z</time>
      </trkpt>
      <trkpt lat="43.47768" lon="2.38006">
        <ele>359</ele>
        <time>2019-11-08T16:03:14Z</time>
      </trkpt>
      <trkpt lat="43.47761" lon="2.37968">
        <ele>362</ele>
        <time>2019-11-08T16:03:37Z</time>
      </trkpt>
      <trkpt lat="43.47752" lon="2.38008">
        <ele>359</ele>
        <time>2019-11-08T16:04:01Z</time>
      </trkpt>
      <trkpt lat="43.47746" lon="2.3802">
        <ele>358</ele>
        <time>2019-11-08T16:04:10Z</time>
      </trkpt>
      <trkpt lat="43.47739" lon="2.38028">
        <ele>359</ele>
        <time>2019-11-08T16:04:17Z</time>
      </trkpt>
      <trkpt lat="43.47725" lon="2.38034">
        <ele>362</ele>
        <time>2019-11-08T16:04:29Z</time>
      </trkpt>
      <trkpt lat="43.47707" lon="2.38031">
        <ele>367</ele>
        <time>2019-11-08T16:04:43Z</time>
      </trkpt>
      <trkpt lat="43.47685" lon="2.3802">
        <ele>376</ele>
        <time>2019-11-08T16:05:02Z</time>
      </trkpt>
      <trkpt lat="43.47662" lon="2.38019">
        <ele>383</ele>
        <time>2019-11-08T16:05:20Z</time>
      </trkpt>
      <trkpt lat="43.47646" lon="2.38015">
        <ele>388</ele>
        <time>2019-11-08T16:05:33Z</time>
      </trkpt>
      <trkpt lat="43.47587" lon="2.38011">
        <ele>402</ele>
        <time>2019-11-08T16:06:21Z</time>
      </trkpt>
      <trkpt lat="43.47559" lon="2.38018">
        <ele>407</ele>
        <time>2019-11-08T16:06:44Z</time>
      </trkpt>
      <trkpt lat="43.4756" lon="2.38009">
        <ele>410</ele>
        <time>2019-11-08T16:06:49Z</time>
      </trkpt>
      <trkpt lat="43.47566" lon="2.37994">
        <ele>414</ele>
        <time>2019-11-08T16:06:59Z</time>
      </trkpt>
      <trkpt lat="43.47585" lon="2.37973">
        <ele>419</ele>
        <time>2019-11-08T16:07:18Z</time>
      </trkpt>
      <trkpt lat="43.47609" lon="2.37953">
        <ele>421</ele>
        <time>2019-11-08T16:07:41Z</time>
      </trkpt>
      <trkpt lat="43.47606" lon="2.3795">
        <ele>423</ele>
        <time>2019-11-08T16:07:44Z</time>
      </trkpt>
      <trkpt lat="43.476" lon="2.37951">
        <ele>424</ele>
        <time>2019-11-08T16:07:49Z</time>
      </trkpt>
      <trkpt lat="43.47576" lon="2.37945">
        <ele>433</ele>
        <time>2019-11-08T16:08:08Z</time>
      </trkpt>
      <trkpt lat="43.47562" lon="2.37939">
        <ele>439</ele>
        <time>2019-11-08T16:08:20Z</time>
      </trkpt>
      <trkpt lat="43.47551" lon="2.37942">
        <ele>440</ele>
        <time>2019-11-08T16:08:29Z</time>
      </trkpt>
      <trkpt lat="43.47554" lon="2.37937">
        <ele>441</ele>
        <time>2019-11-08T16:08:33Z</time>
      </trkpt>
      <trkpt lat="43.47566" lon="2.37927">
        <ele>443</ele>
        <time>2019-11-08T16:08:44Z</time>
      </trkpt>
      <trkpt lat="43.47576" lon="2.37923">
        <ele>443</ele>
        <time>2019-11-08T16:08:52Z</time>
      </trkpt>
      <trkpt lat="43.47575" lon="2.37918">
        <ele>445</ele>
        <time>2019-11-08T16:08:55Z</time>
      </trkpt>
      <trkpt lat="43.4757" lon="2.37916">
        <ele>447</ele>
        <time>2019-11-08T16:08:59Z</time>
      </trkpt>
      <trkpt lat="43.47585" lon="2.37905">
        <ele>448</ele>
        <time>2019-11-08T16:09:13Z</time>
      </trkpt>
      <trkpt lat="43.47601" lon="2.37903">
        <ele>443</ele>
        <time>2019-11-08T16:09:26Z</time>
      </trkpt>
      <trkpt lat="43.47627" lon="2.37892">
        <ele>437</ele>
        <time>2019-11-08T16:09:48Z</time>
      </trkpt>
      <trkpt lat="43.4765" lon="2.37889">
        <ele>429</ele>
        <time>2019-11-08T16:10:06Z</time>
      </trkpt>
      <trkpt lat="43.47652" lon="2.37881">
        <ele>430</ele>
        <time>2019-11-08T16:10:11Z</time>
      </trkpt>
      <trkpt lat="43.4765" lon="2.37879">
        <ele>431</ele>
        <time>2019-11-08T16:10:13Z</time>
      </trkpt>
      <trkpt lat="43.47622" lon="2.37881">
        <ele>442</ele>
        <time>2019-11-08T16:10:35Z</time>
      </trkpt>
      <trkpt lat="43.47603" lon="2.37877">
        <ele>450</ele>
        <time>2019-11-08T16:10:51Z</time>
      </trkpt>
      <trkpt lat="43.47601" lon="2.37875">
        <ele>452</ele>
        <time>2019-11-08T16:10:53Z</time>
      </trkpt>
      <trkpt lat="43.47602" lon="2.3787">
        <ele>453</ele>
        <time>2019-11-08T16:10:56Z</time>
      </trkpt>
      <trkpt lat="43.47613" lon="2.37866">
        <ele>449</ele>
        <time>2019-11-08T16:11:05Z</time>
      </trkpt>
      <trkpt lat="43.47613" lon="2.37862">
        <ele>450</ele>
        <time>2019-11-08T16:11:07Z</time>
      </trkpt>
      <trkpt lat="43.47595" lon="2.37863">
        <ele>458</ele>
        <time>2019-11-08T16:11:22Z</time>
      </trkpt>
      <trkpt lat="43.47581" lon="2.37868">
        <ele>462</ele>
        <time>2019-11-08T16:11:33Z</time>
      </trkpt>
      <trkpt lat="43.47576" lon="2.37866">
        <ele>464</ele>
        <time>2019-11-08T16:11:37Z</time>
      </trkpt>
      <trkpt lat="43.47593" lon="2.37849">
        <ele>464</ele>
        <time>2019-11-08T16:11:54Z</time>
      </trkpt>
      <trkpt lat="43.47591" lon="2.37838">
        <ele>468</ele>
        <time>2019-11-08T16:12:01Z</time>
      </trkpt>
      <trkpt lat="43.47596" lon="2.37833">
        <ele>467</ele>
        <time>2019-11-08T16:12:06Z</time>
      </trkpt>
      <trkpt lat="43.47596" lon="2.3783">
        <ele>467</ele>
        <time>2019-11-08T16:12:07Z</time>
      </trkpt>
      <trkpt lat="43.47575" lon="2.37838">
        <ele>474</ele>
        <time>2019-11-08T16:12:25Z</time>
      </trkpt>
      <trkpt lat="43.47572" lon="2.37836">
        <ele>475</ele>
        <time>2019-11-08T16:12:28Z</time>
      </trkpt>
      <trkpt lat="43.4757" lon="2.37828">
        <ele>477</ele>
        <time>2019-11-08T16:12:33Z</time>
      </trkpt>
      <trkpt lat="43.47553" lon="2.37828">
        <ele>480</ele>
        <time>2019-11-08T16:12:46Z</time>
      </trkpt>
      <trkpt lat="43.47544" lon="2.37819">
        <ele>482</ele>
        <time>2019-11-08T16:12:55Z</time>
      </trkpt>
      <trkpt lat="43.47516" lon="2.37822">
        <ele>489</ele>
        <time>2019-11-08T16:13:18Z</time>
      </trkpt>
      <trkpt lat="43.47499" lon="2.37818">
        <ele>493</ele>
        <time>2019-11-08T16:13:31Z</time>
      </trkpt>
      <trkpt lat="43.47507" lon="2.3781">
        <ele>492</ele>
        <time>2019-11-08T16:13:39Z</time>
      </trkpt>
      <trkpt lat="43.47503" lon="2.37781">
        <ele>494</ele>
        <time>2019-11-08T16:13:56Z</time>
      </trkpt>
      <trkpt lat="43.4751" lon="2.37768">
        <ele>493</ele>
        <time>2019-11-08T16:14:06Z</time>
      </trkpt>
      <trkpt lat="43.47502" lon="2.3776">
        <ele>496</ele>
        <time>2019-11-08T16:14:14Z</time>
      </trkpt>
      <trkpt lat="43.475" lon="2.37767">
        <ele>496</ele>
        <time>2019-11-08T16:14:18Z</time>
      </trkpt>
      <trkpt lat="43.47497" lon="2.3777">
        <ele>497</ele>
        <time>2019-11-08T16:14:21Z</time>
      </trkpt>
      <trkpt lat="43.47493" lon="2.3777">
        <ele>498</ele>
        <time>2019-11-08T16:14:24Z</time>
      </trkpt>
      <trkpt lat="43.47473" lon="2.37751">
        <ele>506</ele>
        <time>2019-11-08T16:14:44Z</time>
      </trkpt>
      <trkpt lat="43.47446" lon="2.37764">
        <ele>514</ele>
        <time>2019-11-08T16:15:07Z</time>
      </trkpt>
      <trkpt lat="43.47437" lon="2.37764">
        <ele>517</ele>
        <time>2019-11-08T16:15:14Z</time>
      </trkpt>
      <trkpt lat="43.47414" lon="2.37741">
        <ele>523</ele>
        <time>2019-11-08T16:15:37Z</time>
      </trkpt>
      <trkpt lat="43.47405" lon="2.37738">
        <ele>525</ele>
        <time>2019-11-08T16:15:44Z</time>
      </trkpt>
      <trkpt lat="43.47399" lon="2.37728">
        <ele>524</ele>
        <time>2019-11-08T16:15:52Z</time>
      </trkpt>
      <trkpt lat="43.47386" lon="2.37719">
        <ele>525</ele>
        <time>2019-11-08T16:16:03Z</time>
      </trkpt>
      <trkpt lat="43.4736" lon="2.37721">
        <ele>531</ele>
        <time>2019-11-08T16:16:24Z</time>
      </trkpt>
      <trkpt lat="43.47343" lon="2.37713">
        <ele>533</ele>
        <time>2019-11-08T16:16:38Z</time>
      </trkpt>
      <trkpt lat="43.47267" lon="2.37727">
        <ele>543</ele>
        <time>2019-11-08T16:17:40Z</time>
      </trkpt>
      <trkpt lat="43.47254" lon="2.37732">
        <ele>545</ele>
        <time>2019-11-08T16:17:51Z</time>
      </trkpt>
      <trkpt lat="43.47253" lon="2.3774">
        <ele>548</ele>
        <time>2019-11-08T16:17:55Z</time>
      </trkpt>
      <trkpt lat="43.47251" lon="2.37741">
        <ele>548</ele>
        <time>2019-11-08T16:17:57Z</time>
      </trkpt>
      <trkpt lat="43.47184" lon="2.37756">
        <ele>550</ele>
        <time>2019-11-08T16:18:51Z</time>
      </trkpt>
      <trkpt lat="43.4716" lon="2.37764">
        <ele>552</ele>
        <time>2019-11-08T16:19:11Z</time>
      </trkpt>
      <trkpt lat="43.4712" lon="2.37785">
        <ele>556</ele>
        <time>2019-11-08T16:19:45Z</time>
      </trkpt>
      <trkpt lat="43.47075" lon="2.37818">
        <ele>563</ele>
        <time>2019-11-08T16:20:26Z</time>
      </trkpt>
      <trkpt lat="43.47039" lon="2.37834">
        <ele>565</ele>
        <time>2019-11-08T16:20:57Z</time>
      </trkpt>
      <trkpt lat="43.47009" lon="2.37851">
        <ele>568</ele>
        <time>2019-11-08T16:21:22Z</time>
      </trkpt>
      <trkpt lat="43.46959" lon="2.3787">
        <ele>577</ele>
        <time>2019-11-08T16:22:04Z</time>
      </trkpt>
      <trkpt lat="43.46925" lon="2.37876">
        <ele>582</ele>
        <time>2019-11-08T16:22:31Z</time>
      </trkpt>
      <trkpt lat="43.46912" lon="2.37891">
        <ele>586</ele>
        <time>2019-11-08T16:22:45Z</time>
      </trkpt>
      <trkpt lat="43.46902" lon="2.37911">
        <ele>590</ele>
        <time>2019-11-08T16:22:59Z</time>
      </trkpt>
      <trkpt lat="43.4689" lon="2.37912">
        <ele>593</ele>
        <time>2019-11-08T16:23:09Z</time>
      </trkpt>
      <trkpt lat="43.46872" lon="2.37904">
        <ele>596</ele>
        <time>2019-11-08T16:23:24Z</time>
      </trkpt>
      <trkpt lat="43.46862" lon="2.37906">
        <ele>598</ele>
        <time>2019-11-08T16:23:32Z</time>
      </trkpt>
      <trkpt lat="43.46837" lon="2.37916">
        <ele>604</ele>
        <time>2019-11-08T16:23:53Z</time>
      </trkpt>
      <trkpt lat="43.46826" lon="2.37929">
        <ele>608</ele>
        <time>2019-11-08T16:24:04Z</time>
      </trkpt>
      <trkpt lat="43.46789" lon="2.37951">
        <ele>616</ele>
        <time>2019-11-08T16:24:37Z</time>
      </trkpt>
      <trkpt lat="43.46774" lon="2.37958">
        <ele>619</ele>
        <time>2019-11-08T16:24:49Z</time>
      </trkpt>
      <trkpt lat="43.4675" lon="2.37963">
        <ele>623</ele>
        <time>2019-11-08T16:25:09Z</time>
      </trkpt>
      <trkpt lat="43.46704" lon="2.37959">
        <ele>629</ele>
        <time>2019-11-08T16:25:46Z</time>
      </trkpt>
      <trkpt lat="43.46677" lon="2.37944">
        <ele>632</ele>
        <time>2019-11-08T16:26:09Z</time>
      </trkpt>
      <trkpt lat="43.46629" lon="2.37924">
        <ele>637</ele>
        <time>2019-11-08T16:26:49Z</time>
      </trkpt>
      <trkpt lat="43.46604" lon="2.37918">
        <ele>640</ele>
        <time>2019-11-08T16:27:10Z</time>
      </trkpt>
      <trkpt lat="43.46578" lon="2.37915">
        <ele>644</ele>
        <time>2019-11-08T16:27:30Z</time>
      </trkpt>
      <trkpt lat="43.46558" lon="2.37914">
        <ele>645</ele>
        <time>2019-11-08T16:27:46Z</time>
      </trkpt>
      <trkpt lat="43.46483" lon="2.3793">
        <ele>650</ele>
        <time>2019-11-08T16:28:47Z</time>
      </trkpt>
      <trkpt lat="43.46462" lon="2.37932">
        <ele>649</ele>
        <time>2019-11-08T16:29:04Z</time>
      </trkpt>
      <trkpt lat="43.46443" lon="2.37928">
        <ele>647</ele>
        <time>2019-11-08T16:29:19Z</time>
      </trkpt>
      <trkpt lat="43.46427" lon="2.37915">
        <ele>645</ele>
        <time>2019-11-08T16:29:34Z</time>
      </trkpt>
      <trkpt lat="43.46422" lon="2.37907">
        <ele>644</ele>
        <time>2019-11-08T16:29:40Z</time>
      </trkpt>
      <trkpt lat="43.46385" lon="2.37901">
        <ele>638</ele>
        <time>2019-11-08T16:30:10Z</time>
      </trkpt>
      <trkpt lat="43.46338" lon="2.37898">
        <ele>631</ele>
        <time>2019-11-08T16:30:48Z</time>
      </trkpt>
      <trkpt lat="43.46319" lon="2.37901">
        <ele>628</ele>
        <time>2019-11-08T16:31:03Z</time>
      </trkpt>
      <trkpt lat="43.46289" lon="2.37928">
        <ele>626</ele>
        <time>2019-11-08T16:31:32Z</time>
      </trkpt>
      <trkpt lat="43.46315" lon="2.37866">
        <ele>622</ele>
        <time>2019-11-08T16:32:14Z</time>
      </trkpt>
      <trkpt lat="43.46323" lon="2.3785">
        <ele>620</ele>
        <time>2019-11-08T16:32:25Z</time>
      </trkpt>
      <trkpt lat="43.4635" lon="2.37809">
        <ele>622</ele>
        <time>2019-11-08T16:32:57Z</time>
      </trkpt>
      <trkpt lat="43.46355" lon="2.37794">
        <ele>623</ele>
        <time>2019-11-08T16:33:07Z</time>
      </trkpt>
      <trkpt lat="43.46354" lon="2.37785">
        <ele>622</ele>
        <time>2019-11-08T16:33:12Z</time>
      </trkpt>
      <trkpt lat="43.46344" lon="2.37762">
        <ele>619</ele>
        <time>2019-11-08T16:33:28Z</time>
      </trkpt>
      <trkpt lat="43.46341" lon="2.37749">
        <ele>618</ele>
        <time>2019-11-08T16:33:35Z</time>
      </trkpt>
      <trkpt lat="43.46338" lon="2.3771">
        <ele>620</ele>
        <time>2019-11-08T16:33:58Z</time>
      </trkpt>
      <trkpt lat="43.4632" lon="2.37658">
        <ele>618</ele>
        <time>2019-11-08T16:34:32Z</time>
      </trkpt>
      <trkpt lat="43.46323" lon="2.37604">
        <ele>617</ele>
        <time>2019-11-08T16:35:03Z</time>
      </trkpt>
      <trkpt lat="43.4634" lon="2.37517">
        <ele>613</ele>
        <time>2019-11-08T16:35:56Z</time>
      </trkpt>
      <trkpt lat="43.46347" lon="2.37464">
        <ele>609</ele>
        <time>2019-11-08T16:36:27Z</time>
      </trkpt>
      <trkpt lat="43.46341" lon="2.37405">
        <ele>603</ele>
        <time>2019-11-08T16:37:01Z</time>
      </trkpt>
      <trkpt lat="43.4633" lon="2.37381">
        <ele>601</ele>
        <time>2019-11-08T16:37:18Z</time>
      </trkpt>
      <trkpt lat="43.46323" lon="2.37355">
        <ele>599</ele>
        <time>2019-11-08T16:37:34Z</time>
      </trkpt>
      <trkpt lat="43.46302" lon="2.37249">
        <ele>592</ele>
        <time>2019-11-08T16:38:38Z</time>
      </trkpt>
      <trkpt lat="43.46288" lon="2.37219">
        <ele>590</ele>
        <time>2019-11-08T16:38:59Z</time>
      </trkpt>
      <trkpt lat="43.46258" lon="2.37175">
        <ele>589</ele>
        <time>2019-11-08T16:39:34Z</time>
      </trkpt>
      <trkpt lat="43.46209" lon="2.37133">
        <ele>586</ele>
        <time>2019-11-08T16:40:20Z</time>
      </trkpt>
      <trkpt lat="43.46198" lon="2.37121">
        <ele>586</ele>
        <time>2019-11-08T16:40:31Z</time>
      </trkpt>
      <trkpt lat="43.46159" lon="2.37067">
        <ele>588</ele>
        <time>2019-11-08T16:41:15Z</time>
      </trkpt>
      <trkpt lat="43.46137" lon="2.37045">
        <ele>589</ele>
        <time>2019-11-08T16:41:37Z</time>
      </trkpt>
      <trkpt lat="43.46102" lon="2.37028">
        <ele>591</ele>
        <time>2019-11-08T16:42:07Z</time>
      </trkpt>
      <trkpt lat="43.46038" lon="2.36985">
        <ele>590</ele>
        <time>2019-11-08T16:43:04Z</time>
      </trkpt>
      <trkpt lat="43.46007" lon="2.36953">
        <ele>588</ele>
        <time>2019-11-08T16:43:35Z</time>
      </trkpt>
      <trkpt lat="43.45991" lon="2.36927">
        <ele>588</ele>
        <time>2019-11-08T16:43:55Z</time>
      </trkpt>
      <trkpt lat="43.45963" lon="2.36864">
        <ele>586</ele>
        <time>2019-11-08T16:44:38Z</time>
      </trkpt>
      <trkpt lat="43.45956" lon="2.36853">
        <ele>586</ele>
        <time>2019-11-08T16:44:46Z</time>
      </trkpt>
      <trkpt lat="43.45959" lon="2.36838">
        <ele>586</ele>
        <time>2019-11-08T16:44:55Z</time>
      </trkpt>
      <trkpt lat="43.45998" lon="2.36717">
        <ele>578</ele>
        <time>2019-11-08T16:46:12Z</time>
      </trkpt>
      <trkpt lat="43.46024" lon="2.36603">
        <ele>567</ele>
        <time>2019-11-08T16:47:22Z</time>
      </trkpt>
      <trkpt lat="43.46024" lon="2.3656">
        <ele>563</ele>
        <time>2019-11-08T16:47:47Z</time>
      </trkpt>
      <trkpt lat="43.46008" lon="2.36531">
        <ele>563</ele>
        <time>2019-11-08T16:48:08Z</time>
      </trkpt>
      <trkpt lat="43.45966" lon="2.36484">
        <ele>567</ele>
        <time>2019-11-08T16:48:51Z</time>
      </trkpt>
      <trkpt lat="43.4596" lon="2.36475">
        <ele>568</ele>
        <time>2019-11-08T16:48:58Z</time>
      </trkpt>
      <trkpt lat="43.45957" lon="2.36465">
        <ele>569</ele>
        <time>2019-11-08T16:49:05Z</time>
      </trkpt>
      <trkpt lat="43.45955" lon="2.36453">
        <ele>570</ele>
        <time>2019-11-08T16:49:12Z</time>
      </trkpt>
      <trkpt lat="43.45957" lon="2.36443">
        <ele>569</ele>
        <time>2019-11-08T16:49:18Z</time>
      </trkpt>
      <trkpt lat="43.45952" lon="2.3644">
        <ele>571</ele>
        <time>2019-11-08T16:49:22Z</time>
      </trkpt>
      <trkpt lat="43.45951" lon="2.36434">
        <ele>571</ele>
        <time>2019-11-08T16:49:26Z</time>
      </trkpt>
      <trkpt lat="43.45967" lon="2.36347">
        <ele>572</ele>
        <time>2019-11-08T16:50:18Z</time>
      </trkpt>
      <trkpt lat="43.45968" lon="2.36325">
        <ele>573</ele>
        <time>2019-11-08T16:50:31Z</time>
      </trkpt>
      <trkpt lat="43.45964" lon="2.36227">
        <ele>582</ele>
        <time>2019-11-08T16:51:28Z</time>
      </trkpt>
      <trkpt lat="43.4597" lon="2.36133">
        <ele>583</ele>
        <time>2019-11-08T16:52:23Z</time>
      </trkpt>
      <trkpt lat="43.45969" lon="2.36097">
        <ele>584</ele>
        <time>2019-11-08T16:52:43Z</time>
      </trkpt>
      <trkpt lat="43.45964" lon="2.36057">
        <ele>584</ele>
        <time>2019-11-08T16:53:07Z</time>
      </trkpt>
      <trkpt lat="43.45957" lon="2.36019">
        <ele>583</ele>
        <time>2019-11-08T16:53:30Z</time>
      </trkpt>
      <trkpt lat="43.45943" lon="2.35988">
        <ele>586</ele>
        <time>2019-11-08T16:53:51Z</time>
      </trkpt>
      <trkpt lat="43.45914" lon="2.35892">
        <ele>593</ele>
        <time>2019-11-08T16:54:51Z</time>
      </trkpt>
      <trkpt lat="43.45892" lon="2.35863">
        <ele>601</ele>
        <time>2019-11-08T16:55:16Z</time>
      </trkpt>
      <trkpt lat="43.45884" lon="2.35856">
        <ele>603</ele>
        <time>2019-11-08T16:55:23Z</time>
      </trkpt>
      <trkpt lat="43.45877" lon="2.35844">
        <ele>604</ele>
        <time>2019-11-08T16:55:32Z</time>
      </trkpt>
      <trkpt lat="43.45885" lon="2.35836">
        <ele>603</ele>
        <time>2019-11-08T16:55:40Z</time>
      </trkpt>
      <trkpt lat="43.45907" lon="2.35829">
        <ele>600</ele>
        <time>2019-11-08T16:55:58Z</time>
      </trkpt>
      <trkpt lat="43.45934" lon="2.35824">
        <ele>597</ele>
        <time>2019-11-08T16:56:20Z</time>
      </trkpt>
      <trkpt lat="43.45947" lon="2.35817">
        <ele>596</ele>
        <time>2019-11-08T16:56:31Z</time>
      </trkpt>
      <trkpt lat="43.45954" lon="2.3581">
        <ele>596</ele>
        <time>2019-11-08T16:56:38Z</time>
      </trkpt>
      <trkpt lat="43.45976" lon="2.35761">
        <ele>599</ele>
        <time>2019-11-08T16:57:12Z</time>
      </trkpt>
      <trkpt lat="43.45977" lon="2.35743">
        <ele>602</ele>
        <time>2019-11-08T16:57:22Z</time>
      </trkpt>
      <trkpt lat="43.46006" lon="2.3566">
        <ele>612</ele>
        <time>2019-11-08T16:58:16Z</time>
      </trkpt>
      <trkpt lat="43.46034" lon="2.35615">
        <ele>617</ele>
        <time>2019-11-08T16:58:50Z</time>
      </trkpt>
      <trkpt lat="43.46101" lon="2.35537">
        <ele>627</ele>
        <time>2019-11-08T17:00:00Z</time>
      </trkpt>
      <trkpt lat="43.4611" lon="2.35509">
        <ele>634</ele>
        <time>2019-11-08T17:00:18Z</time>
      </trkpt>
      <trkpt lat="43.46087" lon="2.35527">
        <ele>635</ele>
        <time>2019-11-08T17:00:39Z</time>
      </trkpt>
      <trkpt lat="43.46057" lon="2.35538">
        <ele>636</ele>
        <time>2019-11-08T17:01:04Z</time>
      </trkpt>
      <trkpt lat="43.46043" lon="2.35537">
        <ele>639</ele>
        <time>2019-11-08T17:01:16Z</time>
      </trkpt>
      <trkpt lat="43.46072" lon="2.35521">
        <ele>640</ele>
        <time>2019-11-08T17:01:41Z</time>
      </trkpt>
      <trkpt lat="43.461" lon="2.35483">
        <ele>643</ele>
        <time>2019-11-08T17:02:12Z</time>
      </trkpt>
      <trkpt lat="43.46113" lon="2.35439">
        <ele>648</ele>
        <time>2019-11-08T17:02:40Z</time>
      </trkpt>
      <trkpt lat="43.46119" lon="2.35387">
        <ele>654</ele>
        <time>2019-11-08T17:03:10Z</time>
      </trkpt>
      <trkpt lat="43.46124" lon="2.35311">
        <ele>656</ele>
        <time>2019-11-08T17:03:55Z</time>
      </trkpt>
      <trkpt lat="43.4612" lon="2.35284">
        <ele>657</ele>
        <time>2019-11-08T17:04:11Z</time>
      </trkpt>
      <trkpt lat="43.46103" lon="2.35231">
        <ele>659</ele>
        <time>2019-11-08T17:04:44Z</time>
      </trkpt>
      <trkpt lat="43.46093" lon="2.35208">
        <ele>659</ele>
        <time>2019-11-08T17:05:00Z</time>
      </trkpt>
      <trkpt lat="43.46078" lon="2.35189">
        <ele>660</ele>
        <time>2019-11-08T17:05:16Z</time>
      </trkpt>
      <trkpt lat="43.46032" lon="2.35149">
        <ele>660</ele>
        <time>2019-11-08T17:06:00Z</time>
      </trkpt>
      <trkpt lat="43.46044" lon="2.35098">
        <ele>658</ele>
        <time>2019-11-08T17:06:31Z</time>
      </trkpt>
      <trkpt lat="43.46062" lon="2.35052">
        <ele>656</ele>
        <time>2019-11-08T17:07:01Z</time>
      </trkpt>
      <trkpt lat="43.46046" lon="2.35025">
        <ele>660</ele>
        <time>2019-11-08T17:07:22Z</time>
      </trkpt>
      <trkpt lat="43.46021" lon="2.35001">
        <ele>666</ele>
        <time>2019-11-08T17:07:46Z</time>
      </trkpt>
      <trkpt lat="43.46011" lon="2.34994">
        <ele>668</ele>
        <time>2019-11-08T17:07:55Z</time>
      </trkpt>
      <trkpt lat="43.46004" lon="2.34992">
        <ele>670</ele>
        <time>2019-11-08T17:08:01Z</time>
      </trkpt>
      <trkpt lat="43.46001" lon="2.34982">
        <ele>672</ele>
        <time>2019-11-08T17:08:07Z</time>
      </trkpt>
      <trkpt lat="43.46002" lon="2.34967">
        <ele>673</ele>
        <time>2019-11-08T17:08:16Z</time>
      </trkpt>
      <trkpt lat="43.46006" lon="2.34959">
        <ele>673</ele>
        <time>2019-11-08T17:08:21Z</time>
      </trkpt>
      <trkpt lat="43.46019" lon="2.34945">
        <ele>672</ele>
        <time>2019-11-08T17:08:35Z</time>
      </trkpt>
      <trkpt lat="43.46041" lon="2.34928">
        <ele>668</ele>
        <time>2019-11-08T17:08:55Z</time>
      </trkpt>
      <trkpt lat="43.46043" lon="2.34917">
        <ele>669</ele>
        <time>2019-11-08T17:09:01Z</time>
      </trkpt>
      <trkpt lat="43.46034" lon="2.34857">
        <ele>674</ele>
        <time>2019-11-08T17:09:37Z</time>
      </trkpt>
      <trkpt lat="43.46018" lon="2.34807">
        <ele>677</ele>
        <time>2019-11-08T17:10:09Z</time>
      </trkpt>
      <trkpt lat="43.46015" lon="2.34767">
        <ele>674</ele>
        <time>2019-11-08T17:10:32Z</time>
      </trkpt>
      <trkpt lat="43.46008" lon="2.34737">
        <ele>672</ele>
        <time>2019-11-08T17:10:50Z</time>
      </trkpt>
      <trkpt lat="43.46033" lon="2.34741">
        <ele>672</ele>
        <time>2019-11-08T17:11:10Z</time>
      </trkpt>
      <trkpt lat="43.46049" lon="2.34724">
        <ele>672</ele>
        <time>2019-11-08T17:11:27Z</time>
      </trkpt>
      <trkpt lat="43.46054" lon="2.34722">
        <ele>673</ele>
        <time>2019-11-08T17:11:31Z</time>
      </trkpt>
      <trkpt lat="43.46067" lon="2.34727">
        <ele>672</ele>
        <time>2019-11-08T17:11:42Z</time>
      </trkpt>
      <trkpt lat="43.46111" lon="2.34761">
        <ele>674</ele>
        <time>2019-11-08T17:12:22Z</time>
      </trkpt>
      <trkpt lat="43.46126" lon="2.34782">
        <ele>675</ele>
        <time>2019-11-08T17:12:39Z</time>
      </trkpt>
      <trkpt lat="43.46144" lon="2.34844">
        <ele>671</ele>
        <time>2019-11-08T17:13:18Z</time>
      </trkpt>
      <trkpt lat="43.46158" lon="2.34856">
        <ele>670</ele>
        <time>2019-11-08T17:13:31Z</time>
      </trkpt>
      <trkpt lat="43.46172" lon="2.34856">
        <ele>671</ele>
        <time>2019-11-08T17:13:42Z</time>
      </trkpt>
      <trkpt lat="43.46185" lon="2.34847">
        <ele>672</ele>
        <time>2019-11-08T17:13:54Z</time>
      </trkpt>
      <trkpt lat="43.46205" lon="2.34812">
        <ele>677</ele>
        <time>2019-11-08T17:14:20Z</time>
      </trkpt>
      <trkpt lat="43.46252" lon="2.34644">
        <ele>688</ele>
        <time>2019-11-08T17:16:05Z</time>
      </trkpt>
      <trkpt lat="43.46262" lon="2.34621">
        <ele>688</ele>
        <time>2019-11-08T17:16:20Z</time>
      </trkpt>
      <trkpt lat="43.46267" lon="2.34615">
        <ele>688</ele>
        <time>2019-11-08T17:16:25Z</time>
      </trkpt>
      <trkpt lat="43.4629" lon="2.346">
        <ele>688</ele>
        <time>2019-11-08T17:16:46Z</time>
      </trkpt>
      <trkpt lat="43.46398" lon="2.3455">
        <ele>689</ele>
        <time>2019-11-08T17:18:17Z</time>
      </trkpt>
      <trkpt lat="43.46432" lon="2.34536">
        <ele>690</ele>
        <time>2019-11-08T17:18:45Z</time>
      </trkpt>
      <trkpt lat="43.46486" lon="2.34518">
        <ele>689</ele>
        <time>2019-11-08T17:19:30Z</time>
      </trkpt>
      <trkpt lat="43.46495" lon="2.34513">
        <ele>688</ele>
        <time>2019-11-08T17:19:38Z</time>
      </trkpt>
      <trkpt lat="43.465" lon="2.34506">
        <ele>687</ele>
        <time>2019-11-08T17:19:43Z</time>
      </trkpt>
      <trkpt lat="43.46521" lon="2.34382">
        <ele>688</ele>
        <time>2019-11-08T17:20:57Z</time>
      </trkpt>
      <trkpt lat="43.46512" lon="2.34341">
        <ele>690</ele>
        <time>2019-11-08T17:21:22Z</time>
      </trkpt>
      <trkpt lat="43.46511" lon="2.34297">
        <ele>690</ele>
        <time>2019-11-08T17:21:48Z</time>
      </trkpt>
      <trkpt lat="43.46517" lon="2.34254">
        <ele>691</ele>
        <time>2019-11-08T17:22:13Z</time>
      </trkpt>
      <trkpt lat="43.46531" lon="2.34208">
        <ele>692</ele>
        <time>2019-11-08T17:22:42Z</time>
      </trkpt>
      <trkpt lat="43.46561" lon="2.34147">
        <ele>696</ele>
        <time>2019-11-08T17:23:25Z</time>
      </trkpt>
      <trkpt lat="43.46596" lon="2.34051">
        <ele>706</ele>
        <time>2019-11-08T17:24:28Z</time>
      </trkpt>
      <trkpt lat="43.46598" lon="2.34028">
        <ele>709</ele>
        <time>2019-11-08T17:24:41Z</time>
      </trkpt>
      <trkpt lat="43.46594" lon="2.3401">
        <ele>710</ele>
        <time>2019-11-08T17:24:52Z</time>
      </trkpt>
      <trkpt lat="43.46586" lon="2.3399">
        <ele>710</ele>
        <time>2019-11-08T17:25:05Z</time>
      </trkpt>
      <trkpt lat="43.46581" lon="2.3397">
        <ele>712</ele>
        <time>2019-11-08T17:25:18Z</time>
      </trkpt>
      <trkpt lat="43.46581" lon="2.33961">
        <ele>713</ele>
        <time>2019-11-08T17:25:23Z</time>
      </trkpt>
      <trkpt lat="43.46586" lon="2.33948">
        <ele>714</ele>
        <time>2019-11-08T17:25:31Z</time>
      </trkpt>
      <trkpt lat="43.46614" lon="2.33899">
        <ele>719</ele>
        <time>2019-11-08T17:26:08Z</time>
      </trkpt>
      <trkpt lat="43.46618" lon="2.33877">
        <ele>720</ele>
        <time>2019-11-08T17:26:21Z</time>
      </trkpt>
      <trkpt lat="43.46618" lon="2.33811">
        <ele>722</ele>
        <time>2019-11-08T17:26:59Z</time>
      </trkpt>
      <trkpt lat="43.46612" lon="2.33792">
        <ele>723</ele>
        <time>2019-11-08T17:27:11Z</time>
      </trkpt>
      <trkpt lat="43.46576" lon="2.33743">
        <ele>724</ele>
        <time>2019-11-08T17:27:52Z</time>
      </trkpt>
      <trkpt lat="43.46451" lon="2.33605">
        <ele>733</ele>
        <time>2019-11-08T17:30:00Z</time>
      </trkpt>
      <trkpt lat="43.46422" lon="2.33553">
        <ele>733</ele>
        <time>2019-11-08T17:30:38Z</time>
      </trkpt>
      <trkpt lat="43.46404" lon="2.3348">
        <ele>735</ele>
        <time>2019-11-08T17:31:23Z</time>
      </trkpt>
      <trkpt lat="43.46407" lon="2.33459">
        <ele>735</ele>
        <time>2019-11-08T17:31:35Z</time>
      </trkpt>
      <trkpt lat="43.4641" lon="2.33453">
        <ele>735</ele>
        <time>2019-11-08T17:31:39Z</time>
      </trkpt>
      <trkpt lat="43.46419" lon="2.33446">
        <ele>735</ele>
        <time>2019-11-08T17:31:48Z</time>
      </trkpt>
      <trkpt lat="43.46453" lon="2.33438">
        <ele>736</ele>
        <time>2019-11-08T17:32:15Z</time>
      </trkpt>
      <trkpt lat="43.46474" lon="2.3343">
        <ele>736</ele>
        <time>2019-11-08T17:32:33Z</time>
      </trkpt>
      <trkpt lat="43.46486" lon="2.33413">
        <ele>737</ele>
        <time>2019-11-08T17:32:47Z</time>
      </trkpt>
      <trkpt lat="43.46509" lon="2.33345">
        <ele>741</ele>
        <time>2019-11-08T17:33:30Z</time>
      </trkpt>
      <trkpt lat="43.46518" lon="2.33288">
        <ele>749</ele>
        <time>2019-11-08T17:34:04Z</time>
      </trkpt>
      <trkpt lat="43.46517" lon="2.33261">
        <ele>753</ele>
        <time>2019-11-08T17:34:20Z</time>
      </trkpt>
      <trkpt lat="43.46514" lon="2.33242">
        <ele>754</ele>
        <time>2019-11-08T17:34:31Z</time>
      </trkpt>
      <trkpt lat="43.46507" lon="2.33225">
        <ele>755</ele>
        <time>2019-11-08T17:34:42Z</time>
      </trkpt>
      <trkpt lat="43.46496" lon="2.33208">
        <ele>755</ele>
        <time>2019-11-08T17:34:56Z</time>
      </trkpt>
      <trkpt lat="43.46478" lon="2.33187">
        <ele>753</ele>
        <time>2019-11-08T17:35:15Z</time>
      </trkpt>
      <trkpt lat="43.46472" lon="2.33171">
        <ele>753</ele>
        <time>2019-11-08T17:35:25Z</time>
      </trkpt>
      <trkpt lat="43.46476" lon="2.33101">
        <ele>755</ele>
        <time>2019-11-08T17:36:06Z</time>
      </trkpt>
      <trkpt lat="43.46489" lon="2.33037">
        <ele>758</ele>
        <time>2019-11-08T17:36:44Z</time>
      </trkpt>
      <trkpt lat="43.46519" lon="2.32949">
        <ele>765</ele>
        <time>2019-11-08T17:37:41Z</time>
      </trkpt>
      <trkpt lat="43.46563" lon="2.3285">
        <ele>774</ele>
        <time>2019-11-08T17:38:48Z</time>
      </trkpt>
      <trkpt lat="43.46575" lon="2.32805">
        <ele>777</ele>
        <time>2019-11-08T17:39:16Z</time>
      </trkpt>
      <trkpt lat="43.46584" lon="2.32748">
        <ele>779</ele>
        <time>2019-11-08T17:39:50Z</time>
      </trkpt>
      <trkpt lat="43.46584" lon="2.3268">
        <ele>782</ele>
        <time>2019-11-08T17:40:30Z</time>
      </trkpt>
      <trkpt lat="43.46561" lon="2.32515">
        <ele>790</ele>
        <time>2019-11-08T17:42:07Z</time>
      </trkpt>
      <trkpt lat="43.46556" lon="2.32498">
        <ele>791</ele>
        <time>2019-11-08T17:42:18Z</time>
      </trkpt>
      <trkpt lat="43.46553" lon="2.32493">
        <ele>792</ele>
        <time>2019-11-08T17:42:22Z</time>
      </trkpt>
      <trkpt lat="43.46537" lon="2.32485">
        <ele>793</ele>
        <time>2019-11-08T17:42:35Z</time>
      </trkpt>
      <trkpt lat="43.46515" lon="2.32463">
        <ele>795</ele>
        <time>2019-11-08T17:42:57Z</time>
      </trkpt>
      <trkpt lat="43.46492" lon="2.32451">
        <ele>797</ele>
        <time>2019-11-08T17:43:17Z</time>
      </trkpt>
      <trkpt lat="43.46478" lon="2.32436">
        <ele>798</ele>
        <time>2019-11-08T17:43:31Z</time>
      </trkpt>
      <trkpt lat="43.46471" lon="2.32415">
        <ele>800</ele>
        <time>2019-11-08T17:43:45Z</time>
      </trkpt>
      <trkpt lat="43.46472" lon="2.32392">
        <ele>802</ele>
        <time>2019-11-08T17:43:58Z</time>
      </trkpt>
      <trkpt lat="43.46481" lon="2.32365">
        <ele>804</ele>
        <time>2019-11-08T17:44:15Z</time>
      </trkpt>
      <trkpt lat="43.46535" lon="2.32244">
        <ele>814</ele>
        <time>2019-11-08T17:45:38Z</time>
      </trkpt>
      <trkpt lat="43.46539" lon="2.32223">
        <ele>814</ele>
        <time>2019-11-08T17:45:50Z</time>
      </trkpt>
      <trkpt lat="43.46538" lon="2.3219">
        <ele>816</ele>
        <time>2019-11-08T17:46:10Z</time>
      </trkpt>
      <trkpt lat="43.46531" lon="2.32137">
        <ele>819</ele>
        <time>2019-11-08T17:46:41Z</time>
      </trkpt>
      <trkpt lat="43.4649" lon="2.3196">
        <ele>829</ele>
        <time>2019-11-08T17:48:29Z</time>
      </trkpt>
      <trkpt lat="43.46482" lon="2.31939">
        <ele>831</ele>
        <time>2019-11-08T17:48:43Z</time>
      </trkpt>
      <trkpt lat="43.46392" lon="2.31786">
        <ele>836</ele>
        <time>2019-11-08T17:50:37Z</time>
      </trkpt>
      <trkpt lat="43.46374" lon="2.31761">
        <ele>838</ele>
        <time>2019-11-08T17:50:57Z</time>
      </trkpt>
      <trkpt lat="43.46345" lon="2.31708">
        <ele>843</ele>
        <time>2019-11-08T17:51:36Z</time>
      </trkpt>
      <trkpt lat="43.46321" lon="2.31651">
        <ele>846</ele>
        <time>2019-11-08T17:52:14Z</time>
      </trkpt>
      <trkpt lat="43.46289" lon="2.31563">
        <ele>850</ele>
        <time>2019-11-08T17:53:12Z</time>
      </trkpt>
      <trkpt lat="43.46276" lon="2.31538">
        <ele>851</ele>
        <time>2019-11-08T17:53:29Z</time>
      </trkpt>
      <trkpt lat="43.46239" lon="2.31492">
        <ele>855</ele>
        <time>2019-11-08T17:54:09Z</time>
      </trkpt>
      <trkpt lat="43.46167" lon="2.31388">
        <ele>863</ele>
        <time>2019-11-08T17:55:33Z</time>
      </trkpt>
      <trkpt lat="43.4612" lon="2.31289">
        <ele>871</ele>
        <time>2019-11-08T17:56:42Z</time>
      </trkpt>
      <trkpt lat="43.46073" lon="2.31212">
        <ele>875</ele>
        <time>2019-11-08T17:57:40Z</time>
      </trkpt>
      <trkpt lat="43.46046" lon="2.31155">
        <ele>874</ele>
        <time>2019-11-08T17:58:20Z</time>
      </trkpt>
      <trkpt lat="43.46042" lon="2.31106">
        <ele>874</ele>
        <time>2019-11-08T17:58:48Z</time>
      </trkpt>
      <trkpt lat="43.46043" lon="2.31082">
        <ele>874</ele>
        <time>2019-11-08T17:59:02Z</time>
      </trkpt>
      <trkpt lat="43.46054" lon="2.30979">
        <ele>876</ele>
        <time>2019-11-08T18:00:03Z</time>
      </trkpt>
      <trkpt lat="43.46067" lon="2.30901">
        <ele>879</ele>
        <time>2019-11-08T18:00:49Z</time>
      </trkpt>
      <trkpt lat="43.46072" lon="2.30846">
        <ele>880</ele>
        <time>2019-11-08T18:01:21Z</time>
      </trkpt>
      <trkpt lat="43.46073" lon="2.30773">
        <ele>876</ele>
        <time>2019-11-08T18:02:04Z</time>
      </trkpt>
      <trkpt lat="43.46072" lon="2.3076">
        <ele>875</ele>
        <time>2019-11-08T18:02:12Z</time>
      </trkpt>
      <trkpt lat="43.46055" lon="2.30699">
        <ele>872</ele>
        <time>2019-11-08T18:02:49Z</time>
      </trkpt>
      <trkpt lat="43.46023" lon="2.30616">
        <ele>870</ele>
        <time>2019-11-08T18:03:44Z</time>
      </trkpt>
      <trkpt lat="43.45996" lon="2.30555">
        <ele>870</ele>
        <time>2019-11-08T18:04:26Z</time>
      </trkpt>
      <trkpt lat="43.4597" lon="2.3051">
        <ele>873</ele>
        <time>2019-11-08T18:04:59Z</time>
      </trkpt>
      <trkpt lat="43.45951" lon="2.30514">
        <ele>876</ele>
        <time>2019-11-08T18:05:14Z</time>
      </trkpt>
      <trkpt lat="43.45937" lon="2.30526">
        <ele>878</ele>
        <time>2019-11-08T18:05:28Z</time>
      </trkpt>
      <trkpt lat="43.45929" lon="2.30528">
        <ele>879</ele>
        <time>2019-11-08T18:05:34Z</time>
      </trkpt>
      <trkpt lat="43.45907" lon="2.30526">
        <ele>881</ele>
        <time>2019-11-08T18:05:52Z</time>
      </trkpt>
      <trkpt lat="43.45873" lon="2.30515">
        <ele>882</ele>
        <time>2019-11-08T18:06:20Z</time>
      </trkpt>
      <trkpt lat="43.45826" lon="2.30455">
        <ele>887</ele>
        <time>2019-11-08T18:07:11Z</time>
      </trkpt>
      <trkpt lat="43.45779" lon="2.30414">
        <ele>892</ele>
        <time>2019-11-08T18:07:56Z</time>
      </trkpt>
      <trkpt lat="43.45767" lon="2.304">
        <ele>893</ele>
        <time>2019-11-08T18:08:08Z</time>
      </trkpt>
      <trkpt lat="43.45759" lon="2.30385">
        <ele>894</ele>
        <time>2019-11-08T18:08:19Z</time>
      </trkpt>
      <trkpt lat="43.45733" lon="2.30305">
        <ele>899</ele>
        <time>2019-11-08T18:09:10Z</time>
      </trkpt>
      <trkpt lat="43.45711" lon="2.30202">
        <ele>898</ele>
        <time>2019-11-08T18:10:12Z</time>
      </trkpt>
      <trkpt lat="43.45691" lon="2.30163">
        <ele>899</ele>
        <time>2019-11-08T18:10:40Z</time>
      </trkpt>
      <trkpt lat="43.45687" lon="2.30146">
        <ele>899</ele>
        <time>2019-11-08T18:10:51Z</time>
      </trkpt>
      <trkpt lat="43.45685" lon="2.3013">
        <ele>899</ele>
        <time>2019-11-08T18:11:00Z</time>
      </trkpt>
      <trkpt lat="43.45688" lon="2.30111">
        <ele>898</ele>
        <time>2019-11-08T18:11:11Z</time>
      </trkpt>
      <trkpt lat="43.45687" lon="2.30084">
        <ele>898</ele>
        <time>2019-11-08T18:11:27Z</time>
      </trkpt>
      <trkpt lat="43.45698" lon="2.30057">
        <ele>899</ele>
        <time>2019-11-08T18:11:45Z</time>
      </trkpt>
      <trkpt lat="43.45698" lon="2.30049">
        <ele>899</ele>
        <time>2019-11-08T18:11:50Z</time>
      </trkpt>
      <trkpt lat="43.45672" lon="2.29934">
        <ele>905</ele>
        <time>2019-11-08T18:13:00Z</time>
      </trkpt>
      <trkpt lat="43.45661" lon="2.2991">
        <ele>905</ele>
        <time>2019-11-08T18:13:16Z</time>
      </trkpt>
      <trkpt lat="43.45637" lon="2.29876">
        <ele>902</ele>
        <time>2019-11-08T18:13:44Z</time>
      </trkpt>
      <trkpt lat="43.45601" lon="2.29772">
        <ele>903</ele>
        <time>2019-11-08T18:14:51Z</time>
      </trkpt>
      <trkpt lat="43.45591" lon="2.29748">
        <ele>903</ele>
        <time>2019-11-08T18:15:07Z</time>
      </trkpt>
      <trkpt lat="43.45563" lon="2.29697">
        <ele>907</ele>
        <time>2019-11-08T18:15:44Z</time>
      </trkpt>
      <trkpt lat="43.45542" lon="2.29646">
        <ele>911</ele>
        <time>2019-11-08T18:16:18Z</time>
      </trkpt>
      <trkpt lat="43.45532" lon="2.29614">
        <ele>912</ele>
        <time>2019-11-08T18:16:38Z</time>
      </trkpt>
      <trkpt lat="43.45517" lon="2.29551">
        <ele>915</ele>
        <time>2019-11-08T18:17:17Z</time>
      </trkpt>
      <trkpt lat="43.45505" lon="2.29524">
        <ele>914</ele>
        <time>2019-11-08T18:17:35Z</time>
      </trkpt>
      <trkpt lat="43.45482" lon="2.29492">
        <ele>911</ele>
        <time>2019-11-08T18:18:01Z</time>
      </trkpt>
      <trkpt lat="43.45459" lon="2.29448">
        <ele>911</ele>
        <time>2019-11-08T18:18:33Z</time>
      </trkpt>
      <trkpt lat="43.45454" lon="2.2942">
        <ele>913</ele>
        <time>2019-11-08T18:18:50Z</time>
      </trkpt>
      <trkpt lat="43.45466" lon="2.2935">
        <ele>920</ele>
        <time>2019-11-08T18:19:31Z</time>
      </trkpt>
      <trkpt lat="43.45466" lon="2.29327">
        <ele>921</ele>
        <time>2019-11-08T18:19:45Z</time>
      </trkpt>
      <trkpt lat="43.45462" lon="2.29306">
        <ele>922</ele>
        <time>2019-11-08T18:19:57Z</time>
      </trkpt>
      <trkpt lat="43.45405" lon="2.29176">
        <ele>929</ele>
        <time>2019-11-08T18:21:26Z</time>
      </trkpt>
      <trkpt lat="43.45392" lon="2.29161">
        <ele>930</ele>
        <time>2019-11-08T18:21:39Z</time>
      </trkpt>
      <trkpt lat="43.45312" lon="2.29118">
        <ele>930</ele>
        <time>2019-11-08T18:22:48Z</time>
      </trkpt>
      <trkpt lat="43.45299" lon="2.29107">
        <ele>931</ele>
        <time>2019-11-08T18:23:00Z</time>
      </trkpt>
      <trkpt lat="43.4528" lon="2.29081">
        <ele>933</ele>
        <time>2019-11-08T18:23:22Z</time>
      </trkpt>
      <trkpt lat="43.45262" lon="2.29043">
        <ele>935</ele>
        <time>2019-11-08T18:23:48Z</time>
      </trkpt>
      <trkpt lat="43.45249" lon="2.29025">
        <ele>936</ele>
        <time>2019-11-08T18:24:03Z</time>
      </trkpt>
      <trkpt lat="43.45223" lon="2.2901">
        <ele>938</ele>
        <time>2019-11-08T18:24:25Z</time>
      </trkpt>
      <trkpt lat="43.4519" lon="2.29003">
        <ele>939</ele>
        <time>2019-11-08T18:24:52Z</time>
      </trkpt>
      <trkpt lat="43.45175" lon="2.28997">
        <ele>940</ele>
        <time>2019-11-08T18:25:05Z</time>
      </trkpt>
      <trkpt lat="43.45166" lon="2.28984">
        <ele>941</ele>
        <time>2019-11-08T18:25:15Z</time>
      </trkpt>
      <trkpt lat="43.45151" lon="2.28947">
        <ele>943</ele>
        <time>2019-11-08T18:25:40Z</time>
      </trkpt>
      <trkpt lat="43.45131" lon="2.28922">
        <ele>944</ele>
        <time>2019-11-08T18:26:01Z</time>
      </trkpt>
      <trkpt lat="43.45097" lon="2.28871">
        <ele>941</ele>
        <time>2019-11-08T18:26:42Z</time>
      </trkpt>
      <trkpt lat="43.45075" lon="2.28832">
        <ele>937</ele>
        <time>2019-11-08T18:27:10Z</time>
      </trkpt>
      <trkpt lat="43.45072" lon="2.28822">
        <ele>935</ele>
        <time>2019-11-08T18:27:17Z</time>
      </trkpt>
      <trkpt lat="43.45073" lon="2.2875">
        <ele>927</ele>
        <time>2019-11-08T18:27:58Z</time>
      </trkpt>
      <trkpt lat="43.45066" lon="2.28724">
        <ele>927</ele>
        <time>2019-11-08T18:28:15Z</time>
      </trkpt>
      <trkpt lat="43.45049" lon="2.28689">
        <ele>927</ele>
        <time>2019-11-08T18:28:39Z</time>
      </trkpt>
      <trkpt lat="43.45015" lon="2.28639">
        <ele>923</ele>
        <time>2019-11-08T18:29:19Z</time>
      </trkpt>
      <trkpt lat="43.45004" lon="2.28609">
        <ele>922</ele>
        <time>2019-11-08T18:29:38Z</time>
      </trkpt>
      <trkpt lat="43.44988" lon="2.28579">
        <ele>920</ele>
        <time>2019-11-08T18:30:00Z</time>
      </trkpt>
      <trkpt lat="43.44978" lon="2.28553">
        <ele>919</ele>
        <time>2019-11-08T18:30:17Z</time>
      </trkpt>
      <trkpt lat="43.44969" lon="2.28547">
        <ele>917</ele>
        <time>2019-11-08T18:30:25Z</time>
      </trkpt>
      <trkpt lat="43.44966" lon="2.28469">
        <ele>917</ele>
        <time>2019-11-08T18:31:11Z</time>
      </trkpt>
      <trkpt lat="43.44975" lon="2.28408">
        <ele>915</ele>
        <time>2019-11-08T18:31:47Z</time>
      </trkpt>
      <trkpt lat="43.44967" lon="2.28365">
        <ele>912</ele>
        <time>2019-11-08T18:32:13Z</time>
      </trkpt>
      <trkpt lat="43.44967" lon="2.28352">
        <ele>911</ele>
        <time>2019-11-08T18:32:20Z</time>
      </trkpt>
      <trkpt lat="43.44971" lon="2.28332">
        <ele>910</ele>
        <time>2019-11-08T18:32:32Z</time>
      </trkpt>
      <trkpt lat="43.44977" lon="2.28317">
        <ele>909</ele>
        <time>2019-11-08T18:32:42Z</time>
      </trkpt>
      <trkpt lat="43.45002" lon="2.28278">
        <ele>908</ele>
        <time>2019-11-08T18:33:12Z</time>
      </trkpt>
      <trkpt lat="43.45052" lon="2.28224">
        <ele>909</ele>
        <time>2019-11-08T18:34:03Z</time>
      </trkpt>
      <trkpt lat="43.45072" lon="2.28191">
        <ele>908</ele>
        <time>2019-11-08T18:34:28Z</time>
      </trkpt>
      <trkpt lat="43.45089" lon="2.28154">
        <ele>906</ele>
        <time>2019-11-08T18:34:54Z</time>
      </trkpt>
      <trkpt lat="43.45105" lon="2.28103">
        <ele>903</ele>
        <time>2019-11-08T18:35:26Z</time>
      </trkpt>
      <trkpt lat="43.4514" lon="2.28032">
        <ele>898</ele>
        <time>2019-11-08T18:36:16Z</time>
      </trkpt>
      <trkpt lat="43.45147" lon="2.28022">
        <ele>898</ele>
        <time>2019-11-08T18:36:24Z</time>
      </trkpt>
      <trkpt lat="43.45171" lon="2.28">
        <ele>896</ele>
        <time>2019-11-08T18:36:47Z</time>
      </trkpt>
      <trkpt lat="43.45183" lon="2.27992">
        <ele>894</ele>
        <time>2019-11-08T18:36:58Z</time>
      </trkpt>
      <trkpt lat="43.45206" lon="2.27983">
        <ele>893</ele>
        <time>2019-11-08T18:37:17Z</time>
      </trkpt>
      <trkpt lat="43.45218" lon="2.27984">
        <ele>892</ele>
        <time>2019-11-08T18:37:26Z</time>
      </trkpt>
      <trkpt lat="43.45224" lon="2.27987">
        <ele>892</ele>
        <time>2019-11-08T18:37:32Z</time>
      </trkpt>
      <trkpt lat="43.45236" lon="2.27996">
        <ele>892</ele>
        <time>2019-11-08T18:37:42Z</time>
      </trkpt>
      <trkpt lat="43.45269" lon="2.28029">
        <ele>895</ele>
        <time>2019-11-08T18:38:15Z</time>
      </trkpt>
      <trkpt lat="43.45278" lon="2.28033">
        <ele>895</ele>
        <time>2019-11-08T18:38:23Z</time>
      </trkpt>
      <trkpt lat="43.45288" lon="2.28034">
        <ele>895</ele>
        <time>2019-11-08T18:38:31Z</time>
      </trkpt>
      <trkpt lat="43.45295" lon="2.28023">
        <ele>895</ele>
        <time>2019-11-08T18:38:39Z</time>
      </trkpt>
      <trkpt lat="43.45284" lon="2.27979">
        <ele>892</ele>
        <time>2019-11-08T18:39:06Z</time>
      </trkpt>
      <trkpt lat="43.4527" lon="2.27945">
        <ele>889</ele>
        <time>2019-11-08T18:39:29Z</time>
      </trkpt>
      <trkpt lat="43.4526" lon="2.27899">
        <ele>885</ele>
        <time>2019-11-08T18:39:57Z</time>
      </trkpt>
      <trkpt lat="43.45255" lon="2.27828">
        <ele>880</ele>
        <time>2019-11-08T18:40:38Z</time>
      </trkpt>
      <trkpt lat="43.45252" lon="2.27719">
        <ele>877</ele>
        <time>2019-11-08T18:41:42Z</time>
      </trkpt>
      <trkpt lat="43.45248" lon="2.27675">
        <ele>879</ele>
        <time>2019-11-08T18:42:08Z</time>
      </trkpt>
      <trkpt lat="43.4525" lon="2.27657">
        <ele>879</ele>
        <time>2019-11-08T18:42:18Z</time>
      </trkpt>
      <trkpt lat="43.45269" lon="2.27604">
        <ele>881</ele>
        <time>2019-11-08T18:42:52Z</time>
      </trkpt>
      <trkpt lat="43.4529" lon="2.27526">
        <ele>882</ele>
        <time>2019-11-08T18:43:41Z</time>
      </trkpt>
      <trkpt lat="43.45302" lon="2.27456">
        <ele>883</ele>
        <time>2019-11-08T18:44:23Z</time>
      </trkpt>
      <trkpt lat="43.45305" lon="2.27413">
        <ele>884</ele>
        <time>2019-11-08T18:44:48Z</time>
      </trkpt>
      <trkpt lat="43.45289" lon="2.27332">
        <ele>884</ele>
        <time>2019-11-08T18:45:37Z</time>
      </trkpt>
      <trkpt lat="43.45278" lon="2.27309">
        <ele>884</ele>
        <time>2019-11-08T18:45:53Z</time>
      </trkpt>
      <trkpt lat="43.45246" lon="2.27265">
        <ele>882</ele>
        <time>2019-11-08T18:46:29Z</time>
      </trkpt>
      <trkpt lat="43.45234" lon="2.27239">
        <ele>882</ele>
        <time>2019-11-08T18:46:47Z</time>
      </trkpt>
      <trkpt lat="43.45228" lon="2.27197">
        <ele>884</ele>
        <time>2019-11-08T18:47:12Z</time>
      </trkpt>
      <trkpt lat="43.45229" lon="2.27079">
        <ele>895</ele>
        <time>2019-11-08T18:48:20Z</time>
      </trkpt>
      <trkpt lat="43.45214" lon="2.27058">
        <ele>894</ele>
        <time>2019-11-08T18:48:37Z</time>
      </trkpt>
      <trkpt lat="43.45197" lon="2.27053">
        <ele>891</ele>
        <time>2019-11-08T18:48:51Z</time>
      </trkpt>
      <trkpt lat="43.45187" lon="2.27045">
        <ele>890</ele>
        <time>2019-11-08T18:49:00Z</time>
      </trkpt>
      <trkpt lat="43.45181" lon="2.27034">
        <ele>890</ele>
        <time>2019-11-08T18:49:08Z</time>
      </trkpt>
      <trkpt lat="43.45181" lon="2.27014">
        <ele>892</ele>
        <time>2019-11-08T18:49:20Z</time>
      </trkpt>
      <trkpt lat="43.45196" lon="2.26952">
        <ele>898</ele>
        <time>2019-11-08T18:49:58Z</time>
      </trkpt>
      <trkpt lat="43.45208" lon="2.26864">
        <ele>901</ele>
        <time>2019-11-08T18:50:50Z</time>
      </trkpt>
      <trkpt lat="43.45232" lon="2.26759">
        <ele>900</ele>
        <time>2019-11-08T18:51:54Z</time>
      </trkpt>
      <trkpt lat="43.45258" lon="2.26698">
        <ele>899</ele>
        <time>2019-11-08T18:52:35Z</time>
      </trkpt>
      <trkpt lat="43.45279" lon="2.26622">
        <ele>895</ele>
        <time>2019-11-08T18:53:22Z</time>
      </trkpt>
      <trkpt lat="43.45303" lon="2.26548">
        <ele>890</ele>
        <time>2019-11-08T18:54:10Z</time>
      </trkpt>
      <trkpt lat="43.45335" lon="2.26504">
        <ele>888</ele>
        <time>2019-11-08T18:54:46Z</time>
      </trkpt>
      <trkpt lat="43.45353" lon="2.26496">
        <ele>888</ele>
        <time>2019-11-08T18:55:01Z</time>
      </trkpt>
      <trkpt lat="43.45372" lon="2.26474">
        <ele>886</ele>
        <time>2019-11-08T18:55:21Z</time>
      </trkpt>
      <trkpt lat="43.45381" lon="2.26443">
        <ele>882</ele>
        <time>2019-11-08T18:55:40Z</time>
      </trkpt>
      <trkpt lat="43.45383" lon="2.26413">
        <ele>879</ele>
        <time>2019-11-08T18:55:58Z</time>
      </trkpt>
      <trkpt lat="43.45373" lon="2.26385">
        <ele>876</ele>
        <time>2019-11-08T18:56:16Z</time>
      </trkpt>
      <trkpt lat="43.45367" lon="2.26383">
        <ele>876</ele>
        <time>2019-11-08T18:56:21Z</time>
      </trkpt>
      <trkpt lat="43.45362" lon="2.26374">
        <ele>875</ele>
        <time>2019-11-08T18:56:27Z</time>
      </trkpt>
      <trkpt lat="43.45348" lon="2.2636">
        <ele>874</ele>
        <time>2019-11-08T18:56:41Z</time>
      </trkpt>
      <trkpt lat="43.45334" lon="2.26335">
        <ele>872</ele>
        <time>2019-11-08T18:57:00Z</time>
      </trkpt>
      <trkpt lat="43.4533" lon="2.26319">
        <ele>871</ele>
        <time>2019-11-08T18:57:09Z</time>
      </trkpt>
      <trkpt lat="43.45328" lon="2.26291">
        <ele>870</ele>
        <time>2019-11-08T18:57:26Z</time>
      </trkpt>
      <trkpt lat="43.45328" lon="2.26222">
        <ele>868</ele>
        <time>2019-11-08T18:58:06Z</time>
      </trkpt>
      <trkpt lat="43.45321" lon="2.2619">
        <ele>867</ele>
        <time>2019-11-08T18:58:25Z</time>
      </trkpt>
      <trkpt lat="43.45297" lon="2.26161">
        <ele>866</ele>
        <time>2019-11-08T18:58:51Z</time>
      </trkpt>
      <trkpt lat="43.45293" lon="2.26147">
        <ele>865</ele>
        <time>2019-11-08T18:59:00Z</time>
      </trkpt>
      <trkpt lat="43.45274" lon="2.26115">
        <ele>864</ele>
        <time>2019-11-08T18:59:24Z</time>
      </trkpt>
      <trkpt lat="43.45252" lon="2.26067">
        <ele>863</ele>
        <time>2019-11-08T18:59:57Z</time>
      </trkpt>
      <trkpt lat="43.45221" lon="2.26009">
        <ele>859</ele>
        <time>2019-11-08T19:00:38Z</time>
      </trkpt>
      <trkpt lat="43.45215" lon="2.25993">
        <ele>858</ele>
        <time>2019-11-08T19:00:49Z</time>
      </trkpt>
      <trkpt lat="43.45195" lon="2.25957">
        <ele>855</ele>
        <time>2019-11-08T19:01:15Z</time>
      </trkpt>
      <trkpt lat="43.45195" lon="2.2595">
        <ele>855</ele>
        <time>2019-11-08T19:01:19Z</time>
      </trkpt>
      <trkpt lat="43.45336" lon="2.25826">
        <ele>848</ele>
        <time>2019-11-08T19:03:33Z</time>
      </trkpt>
      <trkpt lat="43.45406" lon="2.2579">
        <ele>846</ele>
        <time>2019-11-08T19:04:33Z</time>
      </trkpt>
      <trkpt lat="43.45485" lon="2.25727">
        <ele>844</ele>
        <time>2019-11-08T19:05:46Z</time>
      </trkpt>
      <trkpt lat="43.45512" lon="2.2572">
        <ele>844</ele>
        <time>2019-11-08T19:06:08Z</time>
      </trkpt>
      <trkpt lat="43.45535" lon="2.2573">
        <ele>844</ele>
        <time>2019-11-08T19:06:28Z</time>
      </trkpt>
      <trkpt lat="43.45556" lon="2.25751">
        <ele>843</ele>
        <time>2019-11-08T19:06:48Z</time>
      </trkpt>
      <trkpt lat="43.45565" lon="2.25771">
        <ele>844</ele>
        <time>2019-11-08T19:07:02Z</time>
      </trkpt>
      <trkpt lat="43.45577" lon="2.25785">
        <ele>844</ele>
        <time>2019-11-08T19:07:15Z</time>
      </trkpt>
      <trkpt lat="43.45591" lon="2.25792">
        <ele>844</ele>
        <time>2019-11-08T19:07:27Z</time>
      </trkpt>
      <trkpt lat="43.45618" lon="2.25795">
        <ele>843</ele>
        <time>2019-11-08T19:07:48Z</time>
      </trkpt>
      <trkpt lat="43.45642" lon="2.25794">
        <ele>842</ele>
        <time>2019-11-08T19:08:07Z</time>
      </trkpt>
      <trkpt lat="43.45657" lon="2.25778">
        <ele>840</ele>
        <time>2019-11-08T19:08:23Z</time>
      </trkpt>
      <trkpt lat="43.45661" lon="2.25762">
        <ele>840</ele>
        <time>2019-11-08T19:08:32Z</time>
      </trkpt>
      <trkpt lat="43.4569" lon="2.2569">
        <ele>844</ele>
        <time>2019-11-08T19:09:20Z</time>
      </trkpt>
      <trkpt lat="43.45696" lon="2.25662">
        <ele>845</ele>
        <time>2019-11-08T19:09:37Z</time>
      </trkpt>
      <trkpt lat="43.45699" lon="2.25629">
        <ele>848</ele>
        <time>2019-11-08T19:09:57Z</time>
      </trkpt>
      <trkpt lat="43.45701" lon="2.25602">
        <ele>850</ele>
        <time>2019-11-08T19:10:12Z</time>
      </trkpt>
      <trkpt lat="43.45699" lon="2.25584">
        <ele>852</ele>
        <time>2019-11-08T19:10:23Z</time>
      </trkpt>
      <trkpt lat="43.45694" lon="2.2557">
        <ele>853</ele>
        <time>2019-11-08T19:10:32Z</time>
      </trkpt>
      <trkpt lat="43.45685" lon="2.25557">
        <ele>853</ele>
        <time>2019-11-08T19:10:42Z</time>
      </trkpt>
      <trkpt lat="43.45593" lon="2.25479">
        <ele>856</ele>
        <time>2019-11-08T19:12:09Z</time>
      </trkpt>
      <trkpt lat="43.45579" lon="2.25464">
        <ele>856</ele>
        <time>2019-11-08T19:12:23Z</time>
      </trkpt>
      <trkpt lat="43.45553" lon="2.25402">
        <ele>857</ele>
        <time>2019-11-08T19:13:05Z</time>
      </trkpt>
      <trkpt lat="43.45549" lon="2.25387">
        <ele>857</ele>
        <time>2019-11-08T19:13:14Z</time>
      </trkpt>
      <trkpt lat="43.45549" lon="2.25371">
        <ele>857</ele>
        <time>2019-11-08T19:13:23Z</time>
      </trkpt>
      <trkpt lat="43.45553" lon="2.25359">
        <ele>858</ele>
        <time>2019-11-08T19:13:31Z</time>
      </trkpt>
      <trkpt lat="43.45561" lon="2.25348">
        <ele>860</ele>
        <time>2019-11-08T19:13:40Z</time>
      </trkpt>
      <trkpt lat="43.45572" lon="2.25339">
        <ele>862</ele>
        <time>2019-11-08T19:13:50Z</time>
      </trkpt>
      <trkpt lat="43.45922" lon="2.2509">
        <ele>884</ele>
        <time>2019-11-08T19:19:06Z</time>
      </trkpt>
      <trkpt lat="43.45937" lon="2.25077">
        <ele>886</ele>
        <time>2019-11-08T19:19:20Z</time>
      </trkpt>
      <trkpt lat="43.45951" lon="2.25059">
        <ele>888</ele>
        <time>2019-11-08T19:19:35Z</time>
      </trkpt>
      <trkpt lat="43.4596" lon="2.25036">
        <ele>888</ele>
        <time>2019-11-08T19:19:50Z</time>
      </trkpt>
      <trkpt lat="43.45967" lon="2.25009">
        <ele>888</ele>
        <time>2019-11-08T19:20:07Z</time>
      </trkpt>
      <trkpt lat="43.45976" lon="2.24956">
        <ele>889</ele>
        <time>2019-11-08T19:20:39Z</time>
      </trkpt>
      <trkpt lat="43.45987" lon="2.24823">
        <ele>891</ele>
        <time>2019-11-08T19:21:57Z</time>
      </trkpt>
      <trkpt lat="43.45996" lon="2.24793">
        <ele>891</ele>
        <time>2019-11-08T19:22:15Z</time>
      </trkpt>
      <trkpt lat="43.46026" lon="2.24725">
        <ele>893</ele>
        <time>2019-11-08T19:23:02Z</time>
      </trkpt>
      <trkpt lat="43.46031" lon="2.24702">
        <ele>892</ele>
        <time>2019-11-08T19:23:16Z</time>
      </trkpt>
      <trkpt lat="43.46033" lon="2.24683">
        <ele>892</ele>
        <time>2019-11-08T19:23:27Z</time>
      </trkpt>
      <trkpt lat="43.46029" lon="2.24608">
        <ele>887</ele>
        <time>2019-11-08T19:24:10Z</time>
      </trkpt>
      <trkpt lat="43.46078" lon="2.24426">
        <ele>882</ele>
        <time>2019-11-08T19:26:03Z</time>
      </trkpt>
      <trkpt lat="43.46083" lon="2.24396">
        <ele>880</ele>
        <time>2019-11-08T19:26:21Z</time>
      </trkpt>
      <trkpt lat="43.46085" lon="2.24343">
        <ele>876</ele>
        <time>2019-11-08T19:26:52Z</time>
      </trkpt>
      <trkpt lat="43.46082" lon="2.24329">
        <ele>875</ele>
        <time>2019-11-08T19:27:00Z</time>
      </trkpt>
      <trkpt lat="43.46059" lon="2.24271">
        <ele>870</ele>
        <time>2019-11-08T19:27:39Z</time>
      </trkpt>
      <trkpt lat="43.4605" lon="2.24241">
        <ele>868</ele>
        <time>2019-11-08T19:27:58Z</time>
      </trkpt>
      <trkpt lat="43.4605" lon="2.24174">
        <ele>866</ele>
        <time>2019-11-08T19:28:37Z</time>
      </trkpt>
      <trkpt lat="43.46056" lon="2.24142">
        <ele>864</ele>
        <time>2019-11-08T19:28:56Z</time>
      </trkpt>
      <trkpt lat="43.46064" lon="2.2412">
        <ele>862</ele>
        <time>2019-11-08T19:29:10Z</time>
      </trkpt>
      <trkpt lat="43.46041" lon="2.2411">
        <ele>864</ele>
        <time>2019-11-08T19:29:30Z</time>
      </trkpt>
      <trkpt lat="43.4605" lon="2.24093">
        <ele>862</ele>
        <time>2019-11-08T19:29:42Z</time>
      </trkpt>
      <trkpt lat="43.46051" lon="2.24082">
        <ele>861</ele>
        <time>2019-11-08T19:29:48Z</time>
      </trkpt>
      <trkpt lat="43.46034" lon="2.24023">
        <ele>860</ele>
        <time>2019-11-08T19:30:25Z</time>
      </trkpt>
      <trkpt lat="43.46033" lon="2.24">
        <ele>859</ele>
        <time>2019-11-08T19:30:38Z</time>
      </trkpt>
      <trkpt lat="43.46035" lon="2.23985">
        <ele>857</ele>
        <time>2019-11-08T19:30:47Z</time>
      </trkpt>
      <trkpt lat="43.46031" lon="2.23945">
        <ele>855</ele>
        <time>2019-11-08T19:31:11Z</time>
      </trkpt>
      <trkpt lat="43.46033" lon="2.23925">
        <ele>852</ele>
        <time>2019-11-08T19:31:23Z</time>
      </trkpt>
      <trkpt lat="43.46026" lon="2.23909">
        <ele>853</ele>
        <time>2019-11-08T19:31:33Z</time>
      </trkpt>
      <trkpt lat="43.46021" lon="2.23885">
        <ele>851</ele>
        <time>2019-11-08T19:31:48Z</time>
      </trkpt>
      <trkpt lat="43.46014" lon="2.23868">
        <ele>851</ele>
        <time>2019-11-08T19:31:59Z</time>
      </trkpt>
      <trkpt lat="43.46" lon="2.23855">
        <ele>852</ele>
        <time>2019-11-08T19:32:13Z</time>
      </trkpt>
      <trkpt lat="43.45959" lon="2.23834">
        <ele>855</ele>
        <time>2019-11-08T19:32:48Z</time>
      </trkpt>
      <trkpt lat="43.45924" lon="2.2382">
        <ele>857</ele>
        <time>2019-11-08T19:33:17Z</time>
      </trkpt>
      <trkpt lat="43.4588" lon="2.23811">
        <ele>857</ele>
        <time>2019-11-08T19:33:53Z</time>
      </trkpt>
      <trkpt lat="43.45865" lon="2.23812">
        <ele>857</ele>
        <time>2019-11-08T19:34:05Z</time>
      </trkpt>
      <trkpt lat="43.45826" lon="2.23821">
        <ele>858</ele>
        <time>2019-11-08T19:34:36Z</time>
      </trkpt>
      <trkpt lat="43.45766" lon="2.23818">
        <ele>856</ele>
        <time>2019-11-08T19:35:24Z</time>
      </trkpt>
      <trkpt lat="43.45621" lon="2.23752">
        <ele>851</ele>
        <time>2019-11-08T19:37:27Z</time>
      </trkpt>
      <trkpt lat="43.4553" lon="2.23698">
        <ele>854</ele>
        <time>2019-11-08T19:38:46Z</time>
      </trkpt>
      <trkpt lat="43.45506" lon="2.23687">
        <ele>854</ele>
        <time>2019-11-08T19:39:06Z</time>
      </trkpt>
      <trkpt lat="43.45498" lon="2.23677">
        <ele>855</ele>
        <time>2019-11-08T19:39:15Z</time>
      </trkpt>
      <trkpt lat="43.45484" lon="2.23669">
        <ele>855</ele>
        <time>2019-11-08T19:39:27Z</time>
      </trkpt>
      <trkpt lat="43.45474" lon="2.23656">
        <ele>857</ele>
        <time>2019-11-08T19:39:38Z</time>
      </trkpt>
      <trkpt lat="43.45468" lon="2.23626">
        <ele>861</ele>
        <time>2019-11-08T19:39:56Z</time>
      </trkpt>
      <trkpt lat="43.45468" lon="2.23587">
        <ele>867</ele>
        <time>2019-11-08T19:40:19Z</time>
      </trkpt>
      <trkpt lat="43.45469" lon="2.23571">
        <ele>869</ele>
        <time>2019-11-08T19:40:28Z</time>
      </trkpt>
      <trkpt lat="43.45486" lon="2.23505">
        <ele>879</ele>
        <time>2019-11-08T19:41:09Z</time>
      </trkpt>
      <trkpt lat="43.45487" lon="2.23482">
        <ele>882</ele>
        <time>2019-11-08T19:41:22Z</time>
      </trkpt>
      <trkpt lat="43.45483" lon="2.2346">
        <ele>884</ele>
        <time>2019-11-08T19:41:35Z</time>
      </trkpt>
      <trkpt lat="43.45468" lon="2.23434">
        <ele>886</ele>
        <time>2019-11-08T19:41:55Z</time>
      </trkpt>
      <trkpt lat="43.45447" lon="2.23382">
        <ele>892</ele>
        <time>2019-11-08T19:42:29Z</time>
      </trkpt>
      <trkpt lat="43.45422" lon="2.23342">
        <ele>896</ele>
        <time>2019-11-08T19:43:00Z</time>
      </trkpt>
      <trkpt lat="43.45403" lon="2.23314">
        <ele>898</ele>
        <time>2019-11-08T19:43:22Z</time>
      </trkpt>
      <trkpt lat="43.45349" lon="2.23273">
        <ele>898</ele>
        <time>2019-11-08T19:44:12Z</time>
      </trkpt>
      <trkpt lat="43.45331" lon="2.23255">
        <ele>899</ele>
        <time>2019-11-08T19:44:29Z</time>
      </trkpt>
      <trkpt lat="43.45325" lon="2.23242">
        <ele>901</ele>
        <time>2019-11-08T19:44:38Z</time>
      </trkpt>
      <trkpt lat="43.45323" lon="2.23224">
        <ele>902</ele>
        <time>2019-11-08T19:44:49Z</time>
      </trkpt>
      <trkpt lat="43.45323" lon="2.23205">
        <ele>903</ele>
        <time>2019-11-08T19:45:00Z</time>
      </trkpt>
      <trkpt lat="43.45335" lon="2.23172">
        <ele>905</ele>
        <time>2019-11-08T19:45:21Z</time>
      </trkpt>
      <trkpt lat="43.45366" lon="2.23152">
        <ele>907</ele>
        <time>2019-11-08T19:45:49Z</time>
      </trkpt>
      <trkpt lat="43.45415" lon="2.23131">
        <ele>909</ele>
        <time>2019-11-08T19:46:30Z</time>
      </trkpt>
      <trkpt lat="43.4542" lon="2.23125">
        <ele>909</ele>
        <time>2019-11-08T19:46:35Z</time>
      </trkpt>
      <trkpt lat="43.45438" lon="2.2309">
        <ele>910</ele>
        <time>2019-11-08T19:47:00Z</time>
      </trkpt>
      <trkpt lat="43.45449" lon="2.23049">
        <ele>909</ele>
        <time>2019-11-08T19:47:26Z</time>
      </trkpt>
      <trkpt lat="43.45452" lon="2.22985">
        <ele>905</ele>
        <time>2019-11-08T19:48:03Z</time>
      </trkpt>
      <trkpt lat="43.45444" lon="2.22942">
        <ele>902</ele>
        <time>2019-11-08T19:48:29Z</time>
      </trkpt>
      <trkpt lat="43.45438" lon="2.22891">
        <ele>898</ele>
        <time>2019-11-08T19:48:59Z</time>
      </trkpt>
      <trkpt lat="43.45431" lon="2.2285">
        <ele>895</ele>
        <time>2019-11-08T19:49:23Z</time>
      </trkpt>
      <trkpt lat="43.45423" lon="2.2282">
        <ele>893</ele>
        <time>2019-11-08T19:49:42Z</time>
      </trkpt>
      <trkpt lat="43.45407" lon="2.22777">
        <ele>889</ele>
        <time>2019-11-08T19:50:10Z</time>
      </trkpt>
      <trkpt lat="43.45399" lon="2.22746">
        <ele>888</ele>
        <time>2019-11-08T19:50:29Z</time>
      </trkpt>
      <trkpt lat="43.45383" lon="2.22716">
        <ele>887</ele>
        <time>2019-11-08T19:50:51Z</time>
      </trkpt>
      <trkpt lat="43.45379" lon="2.22701">
        <ele>887</ele>
        <time>2019-11-08T19:51:00Z</time>
      </trkpt>
      <trkpt lat="43.4536" lon="2.22677">
        <ele>888</ele>
        <time>2019-11-08T19:51:21Z</time>
      </trkpt>
      <trkpt lat="43.45343" lon="2.22649">
        <ele>889</ele>
        <time>2019-11-08T19:51:42Z</time>
      </trkpt>
      <trkpt lat="43.45313" lon="2.2262">
        <ele>889</ele>
        <time>2019-11-08T19:52:11Z</time>
      </trkpt>
      <trkpt lat="43.45299" lon="2.22603">
        <ele>891</ele>
        <time>2019-11-08T19:52:26Z</time>
      </trkpt>
      <trkpt lat="43.45251" lon="2.22512">
        <ele>896</ele>
        <time>2019-11-08T19:53:31Z</time>
      </trkpt>
      <trkpt lat="43.45235" lon="2.22514">
        <ele>896</ele>
        <time>2019-11-08T19:53:44Z</time>
      </trkpt>
      <trkpt lat="43.45177" lon="2.22537">
        <ele>896</ele>
        <time>2019-11-08T19:54:33Z</time>
      </trkpt>
      <trkpt lat="43.45118" lon="2.22552">
        <ele>897</ele>
        <time>2019-11-08T19:55:21Z</time>
      </trkpt>
      <trkpt lat="43.45072" lon="2.22547">
        <ele>898</ele>
        <time>2019-11-08T19:55:58Z</time>
      </trkpt>
      <trkpt lat="43.45034" lon="2.22531">
        <ele>899</ele>
        <time>2019-11-08T19:56:29Z</time>
      </trkpt>
      <trkpt lat="43.45011" lon="2.22514">
        <ele>900</ele>
        <time>2019-11-08T19:56:50Z</time>
      </trkpt>
      <trkpt lat="43.45" lon="2.22489">
        <ele>903</ele>
        <time>2019-11-08T19:57:07Z</time>
      </trkpt>
      <trkpt lat="43.44993" lon="2.22455">
        <ele>904</ele>
        <time>2019-11-08T19:57:28Z</time>
      </trkpt>
      <trkpt lat="43.44991" lon="2.22367">
        <ele>909</ele>
        <time>2019-11-08T19:58:19Z</time>
      </trkpt>
      <trkpt lat="43.44987" lon="2.22343">
        <ele>909</ele>
        <time>2019-11-08T19:58:33Z</time>
      </trkpt>
      <trkpt lat="43.44952" lon="2.2224">
        <ele>905</ele>
        <time>2019-11-08T19:59:39Z</time>
      </trkpt>
      <trkpt lat="43.44926" lon="2.22184">
        <ele>904</ele>
        <time>2019-11-08T20:00:18Z</time>
      </trkpt>
      <trkpt lat="43.449" lon="2.22145">
        <ele>905</ele>
        <time>2019-11-08T20:00:49Z</time>
      </trkpt>
      <trkpt lat="43.44884" lon="2.22131">
        <ele>906</ele>
        <time>2019-11-08T20:01:04Z</time>
      </trkpt>
      <trkpt lat="43.44873" lon="2.22126">
        <ele>906</ele>
        <time>2019-11-08T20:01:13Z</time>
      </trkpt>
      <trkpt lat="43.4483" lon="2.22118">
        <ele>906</ele>
        <time>2019-11-08T20:01:48Z</time>
      </trkpt>
      <trkpt lat="43.44804" lon="2.22122">
        <ele>905</ele>
        <time>2019-11-08T20:02:09Z</time>
      </trkpt>
      <trkpt lat="43.44779" lon="2.22116">
        <ele>906</ele>
        <time>2019-11-08T20:02:29Z</time>
      </trkpt>
      <trkpt lat="43.44748" lon="2.22105">
        <ele>909</ele>
        <time>2019-11-08T20:02:55Z</time>
      </trkpt>
      <trkpt lat="43.44724" lon="2.22093">
        <ele>909</ele>
        <time>2019-11-08T20:03:15Z</time>
      </trkpt>
      <trkpt lat="43.44682" lon="2.22063">
        <ele>911</ele>
        <time>2019-11-08T20:03:53Z</time>
      </trkpt>
      <trkpt lat="43.44672" lon="2.22059">
        <ele>911</ele>
        <time>2019-11-08T20:04:02Z</time>
      </trkpt>
      <trkpt lat="43.44662" lon="2.22059">
        <ele>910</ele>
        <time>2019-11-08T20:04:10Z</time>
      </trkpt>
      <trkpt lat="43.44651" lon="2.22062">
        <ele>910</ele>
        <time>2019-11-08T20:04:19Z</time>
      </trkpt>
      <trkpt lat="43.44577" lon="2.2213">
        <ele>898</ele>
        <time>2019-11-08T20:05:30Z</time>
      </trkpt>
      <trkpt lat="43.44552" lon="2.22147">
        <ele>898</ele>
        <time>2019-11-08T20:05:52Z</time>
      </trkpt>
      <trkpt lat="43.44528" lon="2.22168">
        <ele>897</ele>
        <time>2019-11-08T20:06:15Z</time>
      </trkpt>
      <trkpt lat="43.44504" lon="2.222">
        <ele>896</ele>
        <time>2019-11-08T20:06:42Z</time>
      </trkpt>
      <trkpt lat="43.44474" lon="2.22261">
        <ele>891</ele>
        <time>2019-11-08T20:07:24Z</time>
      </trkpt>
      <trkpt lat="43.44448" lon="2.22301">
        <ele>888</ele>
        <time>2019-11-08T20:07:56Z</time>
      </trkpt>
      <trkpt lat="43.44425" lon="2.22347">
        <ele>884</ele>
        <time>2019-11-08T20:08:28Z</time>
      </trkpt>
      <trkpt lat="43.44406" lon="2.22374">
        <ele>881</ele>
        <time>2019-11-08T20:08:50Z</time>
      </trkpt>
      <trkpt lat="43.44374" lon="2.22379">
        <ele>878</ele>
        <time>2019-11-08T20:09:16Z</time>
      </trkpt>
      <trkpt lat="43.44366" lon="2.22378">
        <ele>878</ele>
        <time>2019-11-08T20:09:22Z</time>
      </trkpt>
      <trkpt lat="43.44353" lon="2.2237">
        <ele>879</ele>
        <time>2019-11-08T20:09:34Z</time>
      </trkpt>
      <trkpt lat="43.44327" lon="2.22338">
        <ele>883</ele>
        <time>2019-11-08T20:10:02Z</time>
      </trkpt>
      <trkpt lat="43.443" lon="2.22324">
        <ele>882</ele>
        <time>2019-11-08T20:10:25Z</time>
      </trkpt>
      <trkpt lat="43.44281" lon="2.22317">
        <ele>881</ele>
        <time>2019-11-08T20:10:40Z</time>
      </trkpt>
      <trkpt lat="43.44254" lon="2.22314">
        <ele>878</ele>
        <time>2019-11-08T20:11:02Z</time>
      </trkpt>
      <trkpt lat="43.44241" lon="2.22305">
        <ele>877</ele>
        <time>2019-11-08T20:11:14Z</time>
      </trkpt>
      <trkpt lat="43.44224" lon="2.22256">
        <ele>878</ele>
        <time>2019-11-08T20:11:45Z</time>
      </trkpt>
      <trkpt lat="43.44224" lon="2.22219">
        <ele>878</ele>
        <time>2019-11-08T20:12:07Z</time>
      </trkpt>
      <trkpt lat="43.44236" lon="2.22181">
        <ele>880</ele>
        <time>2019-11-08T20:12:31Z</time>
      </trkpt>
      <trkpt lat="43.44255" lon="2.22135">
        <ele>882</ele>
        <time>2019-11-08T20:13:02Z</time>
      </trkpt>
      <trkpt lat="43.44274" lon="2.22076">
        <ele>884</ele>
        <time>2019-11-08T20:13:39Z</time>
      </trkpt>
      <trkpt lat="43.44347" lon="2.21893">
        <ele>873</ele>
        <time>2019-11-08T20:15:41Z</time>
      </trkpt>
      <trkpt lat="43.44387" lon="2.21833">
        <ele>872</ele>
        <time>2019-11-08T20:16:28Z</time>
      </trkpt>
      <trkpt lat="43.4449" lon="2.217">
        <ele>869</ele>
        <time>2019-11-08T20:18:21Z</time>
      </trkpt>
      <trkpt lat="43.44559" lon="2.21632">
        <ele>871</ele>
        <time>2019-11-08T20:19:29Z</time>
      </trkpt>
      <trkpt lat="43.4457" lon="2.21623">
        <ele>871</ele>
        <time>2019-11-08T20:19:39Z</time>
      </trkpt>
      <trkpt lat="43.44603" lon="2.21605">
        <ele>874</ele>
        <time>2019-11-08T20:20:08Z</time>
      </trkpt>
      <trkpt lat="43.44635" lon="2.21576">
        <ele>878</ele>
        <time>2019-11-08T20:20:38Z</time>
      </trkpt>
      <trkpt lat="43.4465" lon="2.21548">
        <ele>880</ele>
        <time>2019-11-08T20:20:58Z</time>
      </trkpt>
      <trkpt lat="43.44652" lon="2.21529">
        <ele>880</ele>
        <time>2019-11-08T20:21:10Z</time>
      </trkpt>
      <trkpt lat="43.44648" lon="2.21506">
        <ele>879</ele>
        <time>2019-11-08T20:21:23Z</time>
      </trkpt>
      <trkpt lat="43.44641" lon="2.21494">
        <ele>878</ele>
        <time>2019-11-08T20:21:32Z</time>
      </trkpt>
      <trkpt lat="43.44609" lon="2.2147">
        <ele>876</ele>
        <time>2019-11-08T20:22:02Z</time>
      </trkpt>
      <trkpt lat="43.44588" lon="2.21444">
        <ele>877</ele>
        <time>2019-11-08T20:22:24Z</time>
      </trkpt>
      <trkpt lat="43.44568" lon="2.2143">
        <ele>877</ele>
        <time>2019-11-08T20:22:42Z</time>
      </trkpt>
      <trkpt lat="43.44537" lon="2.21399">
        <ele>878</ele>
        <time>2019-11-08T20:23:13Z</time>
      </trkpt>
      <trkpt lat="43.44502" lon="2.2138">
        <ele>878</ele>
        <time>2019-11-08T20:23:43Z</time>
      </trkpt>
      <trkpt lat="43.4448" lon="2.21371">
        <ele>877</ele>
        <time>2019-11-08T20:24:01Z</time>
      </trkpt>
      <trkpt lat="43.4446" lon="2.21367">
        <ele>875</ele>
        <time>2019-11-08T20:24:17Z</time>
      </trkpt>
      <trkpt lat="43.44445" lon="2.21361">
        <ele>874</ele>
        <time>2019-11-08T20:24:30Z</time>
      </trkpt>
      <trkpt lat="43.4441" lon="2.21331">
        <ele>876</ele>
        <time>2019-11-08T20:25:03Z</time>
      </trkpt>
      <trkpt lat="43.44378" lon="2.21312">
        <ele>876</ele>
        <time>2019-11-08T20:25:31Z</time>
      </trkpt>
      <trkpt lat="43.44348" lon="2.21272">
        <ele>882</ele>
        <time>2019-11-08T20:26:04Z</time>
      </trkpt>
      <trkpt lat="43.44326" lon="2.21251">
        <ele>885</ele>
        <time>2019-11-08T20:26:26Z</time>
      </trkpt>
      <trkpt lat="43.44286" lon="2.21236">
        <ele>881</ele>
        <time>2019-11-08T20:26:59Z</time>
      </trkpt>
      <trkpt lat="43.44269" lon="2.21223">
        <ele>881</ele>
        <time>2019-11-08T20:27:14Z</time>
      </trkpt>
      <trkpt lat="43.44252" lon="2.212">
        <ele>883</ele>
        <time>2019-11-08T20:27:34Z</time>
      </trkpt>
      <trkpt lat="43.44222" lon="2.21145">
        <ele>882</ele>
        <time>2019-11-08T20:28:14Z</time>
      </trkpt>
      <trkpt lat="43.44191" lon="2.21111">
        <ele>878</ele>
        <time>2019-11-08T20:28:45Z</time>
      </trkpt>
      <trkpt lat="43.4416" lon="2.21072">
        <ele>876</ele>
        <time>2019-11-08T20:29:19Z</time>
      </trkpt>
      <trkpt lat="43.4414" lon="2.21029">
        <ele>874</ele>
        <time>2019-11-08T20:29:49Z</time>
      </trkpt>
      <trkpt lat="43.44124" lon="2.21002">
        <ele>872</ele>
        <time>2019-11-08T20:30:09Z</time>
      </trkpt>
      <trkpt lat="43.44064" lon="2.20926">
        <ele>866</ele>
        <time>2019-11-08T20:31:14Z</time>
      </trkpt>
      <trkpt lat="43.44012" lon="2.20853">
        <ele>861</ele>
        <time>2019-11-08T20:32:14Z</time>
      </trkpt>
      <trkpt lat="43.43985" lon="2.20807">
        <ele>860</ele>
        <time>2019-11-08T20:32:48Z</time>
      </trkpt>
      <trkpt lat="43.43957" lon="2.20774">
        <ele>857</ele>
        <time>2019-11-08T20:33:17Z</time>
      </trkpt>
      <trkpt lat="43.43924" lon="2.20748">
        <ele>855</ele>
        <time>2019-11-08T20:33:48Z</time>
      </trkpt>
      <trkpt lat="43.43911" lon="2.20734">
        <ele>854</ele>
        <time>2019-11-08T20:34:01Z</time>
      </trkpt>
      <trkpt lat="43.43879" lon="2.20682">
        <ele>855</ele>
        <time>2019-11-08T20:34:41Z</time>
      </trkpt>
      <trkpt lat="43.43809" lon="2.2063">
        <ele>856</ele>
        <time>2019-11-08T20:35:44Z</time>
      </trkpt>
      <trkpt lat="43.4379" lon="2.2061">
        <ele>858</ele>
        <time>2019-11-08T20:36:04Z</time>
      </trkpt>
      <trkpt lat="43.43778" lon="2.20606">
        <ele>859</ele>
        <time>2019-11-08T20:36:13Z</time>
      </trkpt>
      <trkpt lat="43.43772" lon="2.20607">
        <ele>859</ele>
        <time>2019-11-08T20:36:18Z</time>
      </trkpt>
      <trkpt lat="43.4371" lon="2.20634">
        <ele>862</ele>
        <time>2019-11-08T20:37:10Z</time>
      </trkpt>
      <trkpt lat="43.43672" lon="2.20659">
        <ele>866</ele>
        <time>2019-11-08T20:37:44Z</time>
      </trkpt>
      <trkpt lat="43.43659" lon="2.20669">
        <ele>867</ele>
        <time>2019-11-08T20:37:56Z</time>
      </trkpt>
      <trkpt lat="43.43621" lon="2.20718">
        <ele>862</ele>
        <time>2019-11-08T20:38:38Z</time>
      </trkpt>
      <trkpt lat="43.43582" lon="2.20763">
        <ele>860</ele>
        <time>2019-11-08T20:39:18Z</time>
      </trkpt>
      <trkpt lat="43.43557" lon="2.20783">
        <ele>857</ele>
        <time>2019-11-08T20:39:42Z</time>
      </trkpt>
      <trkpt lat="43.43547" lon="2.20788">
        <ele>856</ele>
        <time>2019-11-08T20:39:50Z</time>
      </trkpt>
      <trkpt lat="43.4352" lon="2.20786">
        <ele>858</ele>
        <time>2019-11-08T20:40:12Z</time>
      </trkpt>
      <trkpt lat="43.43474" lon="2.20762">
        <ele>865</ele>
        <time>2019-11-08T20:40:51Z</time>
      </trkpt>
      <trkpt lat="43.43439" lon="2.2075">
        <ele>867</ele>
        <time>2019-11-08T20:41:20Z</time>
      </trkpt>
      <trkpt lat="43.43417" lon="2.20751">
        <ele>866</ele>
        <time>2019-11-08T20:41:38Z</time>
      </trkpt>
      <trkpt lat="43.43353" lon="2.2077">
        <ele>862</ele>
        <time>2019-11-08T20:42:30Z</time>
      </trkpt>
      <trkpt lat="43.43318" lon="2.20774">
        <ele>860</ele>
        <time>2019-11-08T20:42:58Z</time>
      </trkpt>
      <trkpt lat="43.43311" lon="2.20772">
        <ele>860</ele>
        <time>2019-11-08T20:43:04Z</time>
      </trkpt>
      <trkpt lat="43.43268" lon="2.20748">
        <ele>864</ele>
        <time>2019-11-08T20:43:41Z</time>
      </trkpt>
      <trkpt lat="43.43241" lon="2.2073">
        <ele>866</ele>
        <time>2019-11-08T20:44:05Z</time>
      </trkpt>
      <trkpt lat="43.4322" lon="2.20691">
        <ele>871</ele>
        <time>2019-11-08T20:44:33Z</time>
      </trkpt>
      <trkpt lat="43.43206" lon="2.20676">
        <ele>871</ele>
        <time>2019-11-08T20:44:47Z</time>
      </trkpt>
      <trkpt lat="43.43195" lon="2.20671">
        <ele>870</ele>
        <time>2019-11-08T20:44:57Z</time>
      </trkpt>
      <trkpt lat="43.43156" lon="2.20668">
        <ele>868</ele>
        <time>2019-11-08T20:45:28Z</time>
      </trkpt>
      <trkpt lat="43.43146" lon="2.20679">
        <ele>869</ele>
        <time>2019-11-08T20:45:38Z</time>
      </trkpt>
      <trkpt lat="43.43099" lon="2.20714">
        <ele>873</ele>
        <time>2019-11-08T20:46:21Z</time>
      </trkpt>
      <trkpt lat="43.43069" lon="2.20747">
        <ele>875</ele>
        <time>2019-11-08T20:46:52Z</time>
      </trkpt>
      <trkpt lat="43.43049" lon="2.2076">
        <ele>876</ele>
        <time>2019-11-08T20:47:10Z</time>
      </trkpt>
      <trkpt lat="43.4303" lon="2.20767">
        <ele>876</ele>
        <time>2019-11-08T20:47:25Z</time>
      </trkpt>
      <trkpt lat="43.43003" lon="2.20773">
        <ele>876</ele>
        <time>2019-11-08T20:47:47Z</time>
      </trkpt>
      <trkpt lat="43.4299" lon="2.20747">
        <ele>876</ele>
        <time>2019-11-08T20:48:06Z</time>
      </trkpt>
      <trkpt lat="43.42936" lon="2.20592">
        <ele>862</ele>
        <time>2019-11-08T20:49:45Z</time>
      </trkpt>
      <trkpt lat="43.42887" lon="2.20438">
        <ele>843</ele>
        <time>2019-11-08T20:51:23Z</time>
      </trkpt>
      <trkpt lat="43.42876" lon="2.20413">
        <ele>840</ele>
        <time>2019-11-08T20:51:40Z</time>
      </trkpt>
      <trkpt lat="43.42872" lon="2.20392">
        <ele>839</ele>
        <time>2019-11-08T20:51:53Z</time>
      </trkpt>
      <trkpt lat="43.42838" lon="2.203">
        <ele>833</ele>
        <time>2019-11-08T20:52:53Z</time>
      </trkpt>
      <trkpt lat="43.42811" lon="2.20215">
        <ele>830</ele>
        <time>2019-11-08T20:53:47Z</time>
      </trkpt>
      <trkpt lat="43.42826" lon="2.2021">
        <ele>831</ele>
        <time>2019-11-08T20:53:59Z</time>
      </trkpt>
      <trkpt lat="43.42837" lon="2.20203">
        <ele>831</ele>
        <time>2019-11-08T20:54:09Z</time>
      </trkpt>
      <trkpt lat="43.42864" lon="2.20176">
        <ele>830</ele>
        <time>2019-11-08T20:54:36Z</time>
      </trkpt>
      <trkpt lat="43.42889" lon="2.20158">
        <ele>830</ele>
        <time>2019-11-08T20:54:58Z</time>
      </trkpt>
      <trkpt lat="43.42917" lon="2.2016">
        <ele>828</ele>
        <time>2019-11-08T20:55:21Z</time>
      </trkpt>
      <trkpt lat="43.42966" lon="2.20172">
        <ele>823</ele>
        <time>2019-11-08T20:56:01Z</time>
      </trkpt>
      <trkpt lat="43.4299" lon="2.20168">
        <ele>821</ele>
        <time>2019-11-08T20:56:20Z</time>
      </trkpt>
      <trkpt lat="43.43039" lon="2.20155">
        <ele>821</ele>
        <time>2019-11-08T20:57:00Z</time>
      </trkpt>
      <trkpt lat="43.43046" lon="2.20151">
        <ele>821</ele>
        <time>2019-11-08T20:57:06Z</time>
      </trkpt>
      <trkpt lat="43.43054" lon="2.2014">
        <ele>821</ele>
        <time>2019-11-08T20:57:15Z</time>
      </trkpt>
      <trkpt lat="43.43078" lon="2.20088">
        <ele>819</ele>
        <time>2019-11-08T20:57:51Z</time>
      </trkpt>
      <trkpt lat="43.43102" lon="2.20048">
        <ele>818</ele>
        <time>2019-11-08T20:58:21Z</time>
      </trkpt>
      <trkpt lat="43.43162" lon="2.19992">
        <ele>808</ele>
        <time>2019-11-08T20:59:19Z</time>
      </trkpt>
      <trkpt lat="43.43207" lon="2.19962">
        <ele>806</ele>
        <time>2019-11-08T20:59:59Z</time>
      </trkpt>
      <trkpt lat="43.43264" lon="2.19932">
        <ele>803</ele>
        <time>2019-11-08T21:00:48Z</time>
      </trkpt>
      <trkpt lat="43.4329" lon="2.19909">
        <ele>803</ele>
        <time>2019-11-08T21:01:13Z</time>
      </trkpt>
      <trkpt lat="43.43298" lon="2.19896">
        <ele>802</ele>
        <time>2019-11-08T21:01:23Z</time>
      </trkpt>
      <trkpt lat="43.4331" lon="2.19867">
        <ele>800</ele>
        <time>2019-11-08T21:01:42Z</time>
      </trkpt>
      <trkpt lat="43.43316" lon="2.19843">
        <ele>797</ele>
        <time>2019-11-08T21:01:57Z</time>
      </trkpt>
      <trkpt lat="43.43334" lon="2.19738">
        <ele>786</ele>
        <time>2019-11-08T21:02:59Z</time>
      </trkpt>
      <trkpt lat="43.43339" lon="2.197">
        <ele>784</ele>
        <time>2019-11-08T21:03:22Z</time>
      </trkpt>
      <trkpt lat="43.43342" lon="2.19602">
        <ele>777</ele>
        <time>2019-11-08T21:04:19Z</time>
      </trkpt>
      <trkpt lat="43.4335" lon="2.19582">
        <ele>776</ele>
        <time>2019-11-08T21:04:32Z</time>
      </trkpt>
      <trkpt lat="43.43366" lon="2.19567">
        <ele>773</ele>
        <time>2019-11-08T21:04:48Z</time>
      </trkpt>
      <trkpt lat="43.43402" lon="2.19546">
        <ele>770</ele>
        <time>2019-11-08T21:05:19Z</time>
      </trkpt>
      <trkpt lat="43.43415" lon="2.19544">
        <ele>769</ele>
        <time>2019-11-08T21:05:29Z</time>
      </trkpt>
      <trkpt lat="43.43454" lon="2.1955">
        <ele>772</ele>
        <time>2019-11-08T21:06:01Z</time>
      </trkpt>
      <trkpt lat="43.43467" lon="2.19545">
        <ele>771</ele>
        <time>2019-11-08T21:06:12Z</time>
      </trkpt>
      <trkpt lat="43.43509" lon="2.195">
        <ele>763</ele>
        <time>2019-11-08T21:06:54Z</time>
      </trkpt>
      <trkpt lat="43.43572" lon="2.19439">
        <ele>754</ele>
        <time>2019-11-08T21:07:56Z</time>
      </trkpt>
      <trkpt lat="43.43607" lon="2.19414">
        <ele>749</ele>
        <time>2019-11-08T21:08:28Z</time>
      </trkpt>
      <trkpt lat="43.43635" lon="2.19402">
        <ele>747</ele>
        <time>2019-11-08T21:08:51Z</time>
      </trkpt>
      <trkpt lat="43.43658" lon="2.194">
        <ele>748</ele>
        <time>2019-11-08T21:09:09Z</time>
      </trkpt>
      <trkpt lat="43.43691" lon="2.19404">
        <ele>747</ele>
        <time>2019-11-08T21:09:36Z</time>
      </trkpt>
      <trkpt lat="43.43719" lon="2.19412">
        <ele>745</ele>
        <time>2019-11-08T21:09:59Z</time>
      </trkpt>
      <trkpt lat="43.43776" lon="2.19438">
        <ele>742</ele>
        <time>2019-11-08T21:10:47Z</time>
      </trkpt>
      <trkpt lat="43.43863" lon="2.19446">
        <ele>731</ele>
        <time>2019-11-08T21:11:57Z</time>
      </trkpt>
      <trkpt lat="43.4389" lon="2.19442">
        <ele>728</ele>
        <time>2019-11-08T21:12:18Z</time>
      </trkpt>
      <trkpt lat="43.43915" lon="2.19435">
        <ele>725</ele>
        <time>2019-11-08T21:12:39Z</time>
      </trkpt>
      <trkpt lat="43.43976" lon="2.19411">
        <ele>721</ele>
        <time>2019-11-08T21:13:30Z</time>
      </trkpt>
      <trkpt lat="43.44014" lon="2.19404">
        <ele>720</ele>
        <time>2019-11-08T21:14:00Z</time>
      </trkpt>
      <trkpt lat="43.44015" lon="2.19357">
        <ele>719</ele>
        <time>2019-11-08T21:14:28Z</time>
      </trkpt>
      <trkpt lat="43.44013" lon="2.19306">
        <ele>716</ele>
        <time>2019-11-08T21:14:57Z</time>
      </trkpt>
      <trkpt lat="43.43993" lon="2.19138">
        <ele>704</ele>
        <time>2019-11-08T21:16:36Z</time>
      </trkpt>
      <trkpt lat="43.43978" lon="2.19042">
        <ele>696</ele>
        <time>2019-11-08T21:17:33Z</time>
      </trkpt>
      <trkpt lat="43.43973" lon="2.1902">
        <ele>694</ele>
        <time>2019-11-08T21:17:47Z</time>
      </trkpt>
      <trkpt lat="43.43935" lon="2.1895">
        <ele>692</ele>
        <time>2019-11-08T21:18:38Z</time>
      </trkpt>
      <trkpt lat="43.43926" lon="2.18938">
        <ele>692</ele>
        <time>2019-11-08T21:18:48Z</time>
      </trkpt>
      <trkpt lat="43.43906" lon="2.18901">
        <ele>692</ele>
        <time>2019-11-08T21:19:15Z</time>
      </trkpt>
      <trkpt lat="43.439" lon="2.18885">
        <ele>692</ele>
        <time>2019-11-08T21:19:25Z</time>
      </trkpt>
      <trkpt lat="43.439" lon="2.18857">
        <ele>692</ele>
        <time>2019-11-08T21:19:41Z</time>
      </trkpt>
      <trkpt lat="43.4391" lon="2.18796">
        <ele>689</ele>
        <time>2019-11-08T21:20:18Z</time>
      </trkpt>
      <trkpt lat="43.43909" lon="2.1879">
        <ele>688</ele>
        <time>2019-11-08T21:20:21Z</time>
      </trkpt>
      <trkpt lat="43.43895" lon="2.18739">
        <ele>686</ele>
        <time>2019-11-08T21:20:53Z</time>
      </trkpt>
      <trkpt lat="43.43867" lon="2.18686">
        <ele>683</ele>
        <time>2019-11-08T21:21:31Z</time>
      </trkpt>
      <trkpt lat="43.43858" lon="2.1864">
        <ele>683</ele>
        <time>2019-11-08T21:21:59Z</time>
      </trkpt>
      <trkpt lat="43.43849" lon="2.1862">
        <ele>684</ele>
        <time>2019-11-08T21:22:12Z</time>
      </trkpt>
      <trkpt lat="43.43844" lon="2.18614">
        <ele>684</ele>
        <time>2019-11-08T21:22:18Z</time>
      </trkpt>
      <trkpt lat="43.43827" lon="2.18601">
        <ele>683</ele>
        <time>2019-11-08T21:22:33Z</time>
      </trkpt>
      <trkpt lat="43.43783" lon="2.18576">
        <ele>681</ele>
        <time>2019-11-08T21:23:11Z</time>
      </trkpt>
      <trkpt lat="43.43771" lon="2.18566">
        <ele>681</ele>
        <time>2019-11-08T21:23:23Z</time>
      </trkpt>
      <trkpt lat="43.43743" lon="2.18541">
        <ele>681</ele>
        <time>2019-11-08T21:23:49Z</time>
      </trkpt>
      <trkpt lat="43.43703" lon="2.18493">
        <ele>681</ele>
        <time>2019-11-08T21:24:32Z</time>
      </trkpt>
      <trkpt lat="43.43686" lon="2.18431">
        <ele>681</ele>
        <time>2019-11-08T21:25:10Z</time>
      </trkpt>
      <trkpt lat="43.43674" lon="2.18401">
        <ele>681</ele>
        <time>2019-11-08T21:25:30Z</time>
      </trkpt>
      <trkpt lat="43.43633" lon="2.18334">
        <ele>681</ele>
        <time>2019-11-08T21:26:21Z</time>
      </trkpt>
      <trkpt lat="43.43627" lon="2.1832">
        <ele>681</ele>
        <time>2019-11-08T21:26:31Z</time>
      </trkpt>
      <trkpt lat="43.43614" lon="2.18243">
        <ele>678</ele>
        <time>2019-11-08T21:27:17Z</time>
      </trkpt>
      <trkpt lat="43.43608" lon="2.18221">
        <ele>677</ele>
        <time>2019-11-08T21:27:30Z</time>
      </trkpt>
      <trkpt lat="43.4356" lon="2.18093">
        <ele>671</ele>
        <time>2019-11-08T21:28:54Z</time>
      </trkpt>
      <trkpt lat="43.43555" lon="2.18042">
        <ele>668</ele>
        <time>2019-11-08T21:29:24Z</time>
      </trkpt>
      <trkpt lat="43.43556" lon="2.18012">
        <ele>666</ele>
        <time>2019-11-08T21:29:41Z</time>
      </trkpt>
      <trkpt lat="43.43551" lon="2.17993">
        <ele>666</ele>
        <time>2019-11-08T21:29:53Z</time>
      </trkpt>
      <trkpt lat="43.43517" lon="2.17974">
        <ele>668</ele>
        <time>2019-11-08T21:30:23Z</time>
      </trkpt>
      <trkpt lat="43.43499" lon="2.17971">
        <ele>668</ele>
        <time>2019-11-08T21:30:37Z</time>
      </trkpt>
      <trkpt lat="43.43491" lon="2.17966">
        <ele>668</ele>
        <time>2019-11-08T21:30:44Z</time>
      </trkpt>
      <trkpt lat="43.43472" lon="2.17943">
        <ele>669</ele>
        <time>2019-11-08T21:31:04Z</time>
      </trkpt>
      <trkpt lat="43.43445" lon="2.17918">
        <ele>668</ele>
        <time>2019-11-08T21:31:30Z</time>
      </trkpt>
      <trkpt lat="43.43422" lon="2.17875">
        <ele>671</ele>
        <time>2019-11-08T21:32:01Z</time>
      </trkpt>
      <trkpt lat="43.43405" lon="2.17851">
        <ele>672</ele>
        <time>2019-11-08T21:32:21Z</time>
      </trkpt>
      <trkpt lat="43.43376" lon="2.17775">
        <ele>675</ele>
        <time>2019-11-08T21:33:11Z</time>
      </trkpt>
      <trkpt lat="43.43334" lon="2.17705">
        <ele>677</ele>
        <time>2019-11-08T21:34:04Z</time>
      </trkpt>
      <trkpt lat="43.43293" lon="2.17629">
        <ele>678</ele>
        <time>2019-11-08T21:34:59Z</time>
      </trkpt>
      <trkpt lat="43.43215" lon="2.17443">
        <ele>674</ele>
        <time>2019-11-08T21:37:04Z</time>
      </trkpt>
      <trkpt lat="43.43158" lon="2.17318">
        <ele>671</ele>
        <time>2019-11-08T21:38:29Z</time>
      </trkpt>
      <trkpt lat="43.43111" lon="2.17235">
        <ele>666</ele>
        <time>2019-11-08T21:39:31Z</time>
      </trkpt>
      <trkpt lat="43.43083" lon="2.17198">
        <ele>665</ele>
        <time>2019-11-08T21:40:02Z</time>
      </trkpt>
      <trkpt lat="43.43086" lon="2.1719">
        <ele>665</ele>
        <time>2019-11-08T21:40:07Z</time>
      </trkpt>
      <trkpt lat="43.43069" lon="2.17159">
        <ele>664</ele>
        <time>2019-11-08T21:40:30Z</time>
      </trkpt>
      <trkpt lat="43.43069" lon="2.17146">
        <ele>664</ele>
        <time>2019-11-08T21:40:37Z</time>
      </trkpt>
      <trkpt lat="43.43073" lon="2.1714">
        <ele>664</ele>
        <time>2019-11-08T21:40:42Z</time>
      </trkpt>
      <trkpt lat="43.43066" lon="2.1712">
        <ele>664</ele>
        <time>2019-11-08T21:40:55Z</time>
      </trkpt>
      <trkpt lat="43.43045" lon="2.17019">
        <ele>662</ele>
        <time>2019-11-08T21:41:56Z</time>
      </trkpt>
      <trkpt lat="43.43045" lon="2.17012">
        <ele>662</ele>
        <time>2019-11-08T21:42:00Z</time>
      </trkpt>
      <trkpt lat="43.43052" lon="2.1699">
        <ele>662</ele>
        <time>2019-11-08T21:42:14Z</time>
      </trkpt>
      <trkpt lat="43.43076" lon="2.1696">
        <ele>662</ele>
        <time>2019-11-08T21:42:40Z</time>
      </trkpt>
      <trkpt lat="43.43047" lon="2.16906">
        <ele>662</ele>
        <time>2019-11-08T21:43:19Z</time>
      </trkpt>
      <trkpt lat="43.43017" lon="2.16865">
        <ele>663</ele>
        <time>2019-11-08T21:43:53Z</time>
      </trkpt>
      <trkpt lat="43.43007" lon="2.16844">
        <ele>663</ele>
        <time>2019-11-08T21:44:07Z</time>
      </trkpt>
      <trkpt lat="43.43002" lon="2.16794">
        <ele>664</ele>
        <time>2019-11-08T21:44:37Z</time>
      </trkpt>
      <trkpt lat="43.43008" lon="2.16676">
        <ele>665</ele>
        <time>2019-11-08T21:45:45Z</time>
      </trkpt>
      <trkpt lat="43.43022" lon="2.16611">
        <ele>665</ele>
        <time>2019-11-08T21:46:25Z</time>
      </trkpt>
      <trkpt lat="43.43028" lon="2.16593">
        <ele>664</ele>
        <time>2019-11-08T21:46:36Z</time>
      </trkpt>
      <trkpt lat="43.43036" lon="2.16579">
        <ele>664</ele>
        <time>2019-11-08T21:46:47Z</time>
      </trkpt>
      <trkpt lat="43.43054" lon="2.16562">
        <ele>663</ele>
        <time>2019-11-08T21:47:04Z</time>
      </trkpt>
      <trkpt lat="43.43081" lon="2.16543">
        <ele>661</ele>
        <time>2019-11-08T21:47:28Z</time>
      </trkpt>
      <trkpt lat="43.43095" lon="2.16537">
        <ele>660</ele>
        <time>2019-11-08T21:47:40Z</time>
      </trkpt>
      <trkpt lat="43.43111" lon="2.16534">
        <ele>659</ele>
        <time>2019-11-08T21:47:53Z</time>
      </trkpt>
      <trkpt lat="43.43186" lon="2.16533">
        <ele>654</ele>
        <time>2019-11-08T21:48:53Z</time>
      </trkpt>
      <trkpt lat="43.43204" lon="2.16535">
        <ele>654</ele>
        <time>2019-11-08T21:49:08Z</time>
      </trkpt>
      <trkpt lat="43.43225" lon="2.16546">
        <ele>654</ele>
        <time>2019-11-08T21:49:26Z</time>
      </trkpt>
      <trkpt lat="43.4324" lon="2.16549">
        <ele>653</ele>
        <time>2019-11-08T21:49:38Z</time>
      </trkpt>
      <trkpt lat="43.433" lon="2.16539">
        <ele>657</ele>
        <time>2019-11-08T21:50:26Z</time>
      </trkpt>
      <trkpt lat="43.43347" lon="2.16535">
        <ele>660</ele>
        <time>2019-11-08T21:51:04Z</time>
      </trkpt>
      <trkpt lat="43.43376" lon="2.16535">
        <ele>660</ele>
        <time>2019-11-08T21:51:27Z</time>
      </trkpt>
      <trkpt lat="43.43393" lon="2.16543">
        <ele>661</ele>
        <time>2019-11-08T21:51:42Z</time>
      </trkpt>
      <trkpt lat="43.43416" lon="2.16561">
        <ele>663</ele>
        <time>2019-11-08T21:52:03Z</time>
      </trkpt>
      <trkpt lat="43.43431" lon="2.16593">
        <ele>665</ele>
        <time>2019-11-08T21:52:25Z</time>
      </trkpt>
      <trkpt lat="43.43435" lon="2.16597">
        <ele>665</ele>
        <time>2019-11-08T21:52:29Z</time>
      </trkpt>
      <trkpt lat="43.43462" lon="2.16605">
        <ele>664</ele>
        <time>2019-11-08T21:52:51Z</time>
      </trkpt>
      <trkpt lat="43.43488" lon="2.16606">
        <ele>663</ele>
        <time>2019-11-08T21:53:12Z</time>
      </trkpt>
      <trkpt lat="43.43523" lon="2.16602">
        <ele>662</ele>
        <time>2019-11-08T21:53:40Z</time>
      </trkpt>
      <trkpt lat="43.43598" lon="2.16587">
        <ele>662</ele>
        <time>2019-11-08T21:54:41Z</time>
      </trkpt>
      <trkpt lat="43.4361" lon="2.16582">
        <ele>662</ele>
        <time>2019-11-08T21:54:51Z</time>
      </trkpt>
      <trkpt lat="43.43647" lon="2.16556">
        <ele>664</ele>
        <time>2019-11-08T21:55:24Z</time>
      </trkpt>
      <trkpt lat="43.43677" lon="2.16544">
        <ele>665</ele>
        <time>2019-11-08T21:55:49Z</time>
      </trkpt>
      <trkpt lat="43.43714" lon="2.16538">
        <ele>665</ele>
        <time>2019-11-08T21:56:19Z</time>
      </trkpt>
      <trkpt lat="43.43774" lon="2.16506">
        <ele>666</ele>
        <time>2019-11-08T21:57:10Z</time>
      </trkpt>
      <trkpt lat="43.43854" lon="2.16511">
        <ele>671</ele>
        <time>2019-11-08T21:58:14Z</time>
      </trkpt>
      <trkpt lat="43.43882" lon="2.16504">
        <ele>672</ele>
        <time>2019-11-08T21:58:37Z</time>
      </trkpt>
      <trkpt lat="43.43907" lon="2.16491">
        <ele>674</ele>
        <time>2019-11-08T21:58:58Z</time>
      </trkpt>
      <trkpt lat="43.43995" lon="2.16497">
        <ele>679</ele>
        <time>2019-11-08T22:00:09Z</time>
      </trkpt>
      <trkpt lat="43.44008" lon="2.16501">
        <ele>680</ele>
        <time>2019-11-08T22:00:20Z</time>
      </trkpt>
      <trkpt lat="43.44025" lon="2.16517">
        <ele>682</ele>
        <time>2019-11-08T22:00:36Z</time>
      </trkpt>
      <trkpt lat="43.44064" lon="2.16603">
        <ele>684</ele>
        <time>2019-11-08T22:01:35Z</time>
      </trkpt>
      <trkpt lat="43.4407" lon="2.16643">
        <ele>684</ele>
        <time>2019-11-08T22:01:59Z</time>
      </trkpt>
      <trkpt lat="43.44112" lon="2.16698">
        <ele>687</ele>
        <time>2019-11-08T22:02:45Z</time>
      </trkpt>
      <trkpt lat="43.44137" lon="2.16726">
        <ele>689</ele>
        <time>2019-11-08T22:03:11Z</time>
      </trkpt>
      <trkpt lat="43.44152" lon="2.16748">
        <ele>689</ele>
        <time>2019-11-08T22:03:29Z</time>
      </trkpt>
      <trkpt lat="43.44169" lon="2.16805">
        <ele>687</ele>
        <time>2019-11-08T22:04:04Z</time>
      </trkpt>
      <trkpt lat="43.44175" lon="2.16812">
        <ele>687</ele>
        <time>2019-11-08T22:04:11Z</time>
      </trkpt>
      <trkpt lat="43.44201" lon="2.16828">
        <ele>690</ele>
        <time>2019-11-08T22:04:34Z</time>
      </trkpt>
      <trkpt lat="43.44234" lon="2.16835">
        <ele>693</ele>
        <time>2019-11-08T22:05:00Z</time>
      </trkpt>
      <trkpt lat="43.44246" lon="2.16842">
        <ele>693</ele>
        <time>2019-11-08T22:05:11Z</time>
      </trkpt>
      <trkpt lat="43.44259" lon="2.16854">
        <ele>693</ele>
        <time>2019-11-08T22:05:23Z</time>
      </trkpt>
      <trkpt lat="43.4431" lon="2.16891">
        <ele>692</ele>
        <time>2019-11-08T22:06:09Z</time>
      </trkpt>
      <trkpt lat="43.44317" lon="2.16894">
        <ele>692</ele>
        <time>2019-11-08T22:06:15Z</time>
      </trkpt>
      <trkpt lat="43.44326" lon="2.16893">
        <ele>693</ele>
        <time>2019-11-08T22:06:22Z</time>
      </trkpt>
      <trkpt lat="43.44346" lon="2.1687">
        <ele>698</ele>
        <time>2019-11-08T22:06:43Z</time>
      </trkpt>
      <trkpt lat="43.44354" lon="2.16872">
        <ele>698</ele>
        <time>2019-11-08T22:06:50Z</time>
      </trkpt>
      <trkpt lat="43.44358" lon="2.16878">
        <ele>698</ele>
        <time>2019-11-08T22:06:55Z</time>
      </trkpt>
      <trkpt lat="43.44359" lon="2.16891">
        <ele>698</ele>
        <time>2019-11-08T22:07:02Z</time>
      </trkpt>
      <trkpt lat="43.44352" lon="2.16935">
        <ele>693</ele>
        <time>2019-11-08T22:07:28Z</time>
      </trkpt>
      <trkpt lat="43.44352" lon="2.16941">
        <ele>692</ele>
        <time>2019-11-08T22:07:32Z</time>
      </trkpt>
      <trkpt lat="43.44355" lon="2.16946">
        <ele>692</ele>
        <time>2019-11-08T22:07:36Z</time>
      </trkpt>
      <trkpt lat="43.44387" lon="2.16959">
        <ele>696</ele>
        <time>2019-11-08T22:08:02Z</time>
      </trkpt>
      <trkpt lat="43.44415" lon="2.16964">
        <ele>699</ele>
        <time>2019-11-08T22:08:25Z</time>
      </trkpt>
      <trkpt lat="43.44427" lon="2.16978">
        <ele>699</ele>
        <time>2019-11-08T22:08:38Z</time>
      </trkpt>
      <trkpt lat="43.44462" lon="2.17009">
        <ele>700</ele>
        <time>2019-11-08T22:09:11Z</time>
      </trkpt>
      <trkpt lat="43.44482" lon="2.17017">
        <ele>702</ele>
        <time>2019-11-08T22:09:28Z</time>
      </trkpt>
      <trkpt lat="43.44532" lon="2.17025">
        <ele>704</ele>
        <time>2019-11-08T22:10:08Z</time>
      </trkpt>
      <trkpt lat="43.44579" lon="2.17019">
        <ele>707</ele>
        <time>2019-11-08T22:10:46Z</time>
      </trkpt>
      <trkpt lat="43.44591" lon="2.1702">
        <ele>708</ele>
        <time>2019-11-08T22:10:55Z</time>
      </trkpt>
      <trkpt lat="43.44668" lon="2.17087">
        <ele>708</ele>
        <time>2019-11-08T22:12:08Z</time>
      </trkpt>
      <trkpt lat="43.44683" lon="2.17114">
        <ele>708</ele>
        <time>2019-11-08T22:12:28Z</time>
      </trkpt>
      <trkpt lat="43.44688" lon="2.1712">
        <ele>708</ele>
        <time>2019-11-08T22:12:33Z</time>
      </trkpt>
      <trkpt lat="43.44693" lon="2.17121">
        <ele>709</ele>
        <time>2019-11-08T22:12:37Z</time>
      </trkpt>
      <trkpt lat="43.44709" lon="2.17115">
        <ele>710</ele>
        <time>2019-11-08T22:12:51Z</time>
      </trkpt>
      <trkpt lat="43.44742" lon="2.17081">
        <ele>713</ele>
        <time>2019-11-08T22:13:24Z</time>
      </trkpt>
      <trkpt lat="43.44755" lon="2.17059">
        <ele>715</ele>
        <time>2019-11-08T22:13:40Z</time>
      </trkpt>
      <trkpt lat="43.44788" lon="2.17045">
        <ele>717</ele>
        <time>2019-11-08T22:14:08Z</time>
      </trkpt>
      <trkpt lat="43.44796" lon="2.17037">
        <ele>718</ele>
        <time>2019-11-08T22:14:16Z</time>
      </trkpt>
      <trkpt lat="43.44813" lon="2.17008">
        <ele>718</ele>
        <time>2019-11-08T22:14:37Z</time>
      </trkpt>
      <trkpt lat="43.44829" lon="2.1699">
        <ele>719</ele>
        <time>2019-11-08T22:14:54Z</time>
      </trkpt>
      <trkpt lat="43.44844" lon="2.16987">
        <ele>720</ele>
        <time>2019-11-08T22:15:06Z</time>
      </trkpt>
      <trkpt lat="43.44894" lon="2.17007">
        <ele>722</ele>
        <time>2019-11-08T22:15:48Z</time>
      </trkpt>
      <trkpt lat="43.44911" lon="2.17022">
        <ele>723</ele>
        <time>2019-11-08T22:16:04Z</time>
      </trkpt>
      <trkpt lat="43.44917" lon="2.1704">
        <ele>723</ele>
        <time>2019-11-08T22:16:15Z</time>
      </trkpt>
      <trkpt lat="43.4491" lon="2.17085">
        <ele>722</ele>
        <time>2019-11-08T22:16:42Z</time>
      </trkpt>
      <trkpt lat="43.44911" lon="2.17095">
        <ele>721</ele>
        <time>2019-11-08T22:16:48Z</time>
      </trkpt>
      <trkpt lat="43.4492" lon="2.17107">
        <ele>721</ele>
        <time>2019-11-08T22:16:58Z</time>
      </trkpt>
      <trkpt lat="43.44942" lon="2.17121">
        <ele>722</ele>
        <time>2019-11-08T22:17:17Z</time>
      </trkpt>
      <trkpt lat="43.44988" lon="2.17141">
        <ele>723</ele>
        <time>2019-11-08T22:17:56Z</time>
      </trkpt>
      <trkpt lat="43.45007" lon="2.17142">
        <ele>724</ele>
        <time>2019-11-08T22:18:11Z</time>
      </trkpt>
      <trkpt lat="43.45022" lon="2.1713">
        <ele>725</ele>
        <time>2019-11-08T22:18:25Z</time>
      </trkpt>
      <trkpt lat="43.45035" lon="2.17101">
        <ele>727</ele>
        <time>2019-11-08T22:18:45Z</time>
      </trkpt>
      <trkpt lat="43.45065" lon="2.16967">
        <ele>734</ele>
        <time>2019-11-08T22:20:06Z</time>
      </trkpt>
      <trkpt lat="43.45076" lon="2.16927">
        <ele>739</ele>
        <time>2019-11-08T22:20:31Z</time>
      </trkpt>
      <trkpt lat="43.45081" lon="2.16923">
        <ele>740</ele>
        <time>2019-11-08T22:20:36Z</time>
      </trkpt>
      <trkpt lat="43.45141" lon="2.16901">
        <ele>740</ele>
        <time>2019-11-08T22:21:26Z</time>
      </trkpt>
      <trkpt lat="43.45171" lon="2.16884">
        <ele>742</ele>
        <time>2019-11-08T22:21:52Z</time>
      </trkpt>
      <trkpt lat="43.45178" lon="2.16879">
        <ele>743</ele>
        <time>2019-11-08T22:21:58Z</time>
      </trkpt>
      <trkpt lat="43.45221" lon="2.16829">
        <ele>748</ele>
        <time>2019-11-08T22:22:43Z</time>
      </trkpt>
      <trkpt lat="43.45241" lon="2.16818">
        <ele>748</ele>
        <time>2019-11-08T22:23:00Z</time>
      </trkpt>
      <trkpt lat="43.45253" lon="2.16816">
        <ele>749</ele>
        <time>2019-11-08T22:23:10Z</time>
      </trkpt>
      <trkpt lat="43.45343" lon="2.1682">
        <ele>754</ele>
        <time>2019-11-08T22:24:22Z</time>
      </trkpt>
      <trkpt lat="43.45393" lon="2.16825">
        <ele>755</ele>
        <time>2019-11-08T22:25:02Z</time>
      </trkpt>
      <trkpt lat="43.45406" lon="2.16821">
        <ele>756</ele>
        <time>2019-11-08T22:25:13Z</time>
      </trkpt>
      <trkpt lat="43.45466" lon="2.16791">
        <ele>759</ele>
        <time>2019-11-08T22:26:04Z</time>
      </trkpt>
      <trkpt lat="43.45551" lon="2.16738">
        <ele>762</ele>
        <time>2019-11-08T22:27:19Z</time>
      </trkpt>
      <trkpt lat="43.45566" lon="2.1672">
        <ele>763</ele>
        <time>2019-11-08T22:27:35Z</time>
      </trkpt>
      <trkpt lat="43.45597" lon="2.16672">
        <ele>762</ele>
        <time>2019-11-08T22:28:12Z</time>
      </trkpt>
      <trkpt lat="43.45614" lon="2.1665">
        <ele>762</ele>
        <time>2019-11-08T22:28:31Z</time>
      </trkpt>
      <trkpt lat="43.45644" lon="2.16595">
        <ele>759</ele>
        <time>2019-11-08T22:29:11Z</time>
      </trkpt>
      <trkpt lat="43.45655" lon="2.16565">
        <ele>756</ele>
        <time>2019-11-08T22:29:30Z</time>
      </trkpt>
      <trkpt lat="43.45658" lon="2.16554">
        <ele>755</ele>
        <time>2019-11-08T22:29:37Z</time>
      </trkpt>
      <trkpt lat="43.45657" lon="2.16533">
        <ele>754</ele>
        <time>2019-11-08T22:29:49Z</time>
      </trkpt>
      <trkpt lat="43.4565" lon="2.16505">
        <ele>753</ele>
        <time>2019-11-08T22:30:06Z</time>
      </trkpt>
      <trkpt lat="43.45648" lon="2.16482">
        <ele>753</ele>
        <time>2019-11-08T22:30:20Z</time>
      </trkpt>
      <trkpt lat="43.4565" lon="2.1646">
        <ele>753</ele>
        <time>2019-11-08T22:30:33Z</time>
      </trkpt>
      <trkpt lat="43.4566" lon="2.16433">
        <ele>751</ele>
        <time>2019-11-08T22:30:50Z</time>
      </trkpt>
      <trkpt lat="43.45712" lon="2.1634">
        <ele>748</ele>
        <time>2019-11-08T22:31:59Z</time>
      </trkpt>
      <trkpt lat="43.45733" lon="2.1632">
        <ele>747</ele>
        <time>2019-11-08T22:32:19Z</time>
      </trkpt>
      <trkpt lat="43.45799" lon="2.16267">
        <ele>739</ele>
        <time>2019-11-08T22:33:20Z</time>
      </trkpt>
      <trkpt lat="43.45832" lon="2.16219">
        <ele>737</ele>
        <time>2019-11-08T22:33:59Z</time>
      </trkpt>
      <trkpt lat="43.45849" lon="2.16188">
        <ele>734</ele>
        <time>2019-11-08T22:34:21Z</time>
      </trkpt>
      <trkpt lat="43.45861" lon="2.16142">
        <ele>732</ele>
        <time>2019-11-08T22:34:50Z</time>
      </trkpt>
      <trkpt lat="43.45863" lon="2.16115">
        <ele>731</ele>
        <time>2019-11-08T22:35:05Z</time>
      </trkpt>
      <trkpt lat="43.45852" lon="2.16015">
        <ele>730</ele>
        <time>2019-11-08T22:36:04Z</time>
      </trkpt>
      <trkpt lat="43.45861" lon="2.15924">
        <ele>722</ele>
        <time>2019-11-08T22:36:58Z</time>
      </trkpt>
      <trkpt lat="43.45849" lon="2.15872">
        <ele>720</ele>
        <time>2019-11-08T22:37:29Z</time>
      </trkpt>
      <trkpt lat="43.45839" lon="2.15852">
        <ele>720</ele>
        <time>2019-11-08T22:37:43Z</time>
      </trkpt>
      <trkpt lat="43.45826" lon="2.15836">
        <ele>721</ele>
        <time>2019-11-08T22:37:57Z</time>
      </trkpt>
      <trkpt lat="43.45773" lon="2.15792">
        <ele>720</ele>
        <time>2019-11-08T22:38:47Z</time>
      </trkpt>
      <trkpt lat="43.45736" lon="2.15743">
        <ele>718</ele>
        <time>2019-11-08T22:39:28Z</time>
      </trkpt>
      <trkpt lat="43.45697" lon="2.15712">
        <ele>723</ele>
        <time>2019-11-08T22:40:04Z</time>
      </trkpt>
      <trkpt lat="43.45688" lon="2.15701">
        <ele>723</ele>
        <time>2019-11-08T22:40:14Z</time>
      </trkpt>
      <trkpt lat="43.45666" lon="2.15624">
        <ele>726</ele>
        <time>2019-11-08T22:41:02Z</time>
      </trkpt>
      <trkpt lat="43.45668" lon="2.15616">
        <ele>727</ele>
        <time>2019-11-08T22:41:07Z</time>
      </trkpt>
      <trkpt lat="43.45672" lon="2.15611">
        <ele>726</ele>
        <time>2019-11-08T22:41:11Z</time>
      </trkpt>
      <trkpt lat="43.45676" lon="2.1561">
        <ele>726</ele>
        <time>2019-11-08T22:41:14Z</time>
      </trkpt>
      <trkpt lat="43.45682" lon="2.1561">
        <ele>725</ele>
        <time>2019-11-08T22:41:19Z</time>
      </trkpt>
      <trkpt lat="43.45699" lon="2.1562">
        <ele>720</ele>
        <time>2019-11-08T22:41:34Z</time>
      </trkpt>
      <trkpt lat="43.45708" lon="2.15617">
        <ele>719</ele>
        <time>2019-11-08T22:41:41Z</time>
      </trkpt>
      <trkpt lat="43.45737" lon="2.15565">
        <ele>720</ele>
        <time>2019-11-08T22:42:19Z</time>
      </trkpt>
      <trkpt lat="43.45743" lon="2.15561">
        <ele>719</ele>
        <time>2019-11-08T22:42:25Z</time>
      </trkpt>
      <trkpt lat="43.45755" lon="2.15562">
        <ele>717</ele>
        <time>2019-11-08T22:42:34Z</time>
      </trkpt>
      <trkpt lat="43.45778" lon="2.15572">
        <ele>710</ele>
        <time>2019-11-08T22:42:54Z</time>
      </trkpt>
      <trkpt lat="43.45788" lon="2.15567">
        <ele>709</ele>
        <time>2019-11-08T22:43:02Z</time>
      </trkpt>
      <trkpt lat="43.45818" lon="2.15493">
        <ele>713</ele>
        <time>2019-11-08T22:43:51Z</time>
      </trkpt>
      <trkpt lat="43.45841" lon="2.15375">
        <ele>715</ele>
        <time>2019-11-08T22:45:02Z</time>
      </trkpt>
      <trkpt lat="43.45846" lon="2.1536">
        <ele>714</ele>
        <time>2019-11-08T22:45:12Z</time>
      </trkpt>
      <trkpt lat="43.45856" lon="2.15341">
        <ele>713</ele>
        <time>2019-11-08T22:45:26Z</time>
      </trkpt>
      <trkpt lat="43.45868" lon="2.15329">
        <ele>712</ele>
        <time>2019-11-08T22:45:38Z</time>
      </trkpt>
      <trkpt lat="43.45888" lon="2.15315">
        <ele>709</ele>
        <time>2019-11-08T22:45:55Z</time>
      </trkpt>
      <trkpt lat="43.45893" lon="2.15346">
        <ele>708</ele>
        <time>2019-11-08T22:46:14Z</time>
      </trkpt>
      <trkpt lat="43.45923" lon="2.15386">
        <ele>700</ele>
        <time>2019-11-08T22:46:47Z</time>
      </trkpt>
      <trkpt lat="43.4594" lon="2.15413">
        <ele>696</ele>
        <time>2019-11-08T22:47:08Z</time>
      </trkpt>
      <trkpt lat="43.45949" lon="2.15422">
        <ele>693</ele>
        <time>2019-11-08T22:47:17Z</time>
      </trkpt>
      <trkpt lat="43.45987" lon="2.15435">
        <ele>685</ele>
        <time>2019-11-08T22:47:48Z</time>
      </trkpt>
      <trkpt lat="43.4606" lon="2.15446">
        <ele>674</ele>
        <time>2019-11-08T22:48:47Z</time>
      </trkpt>
      <trkpt lat="43.46091" lon="2.15459">
        <ele>668</ele>
        <time>2019-11-08T22:49:13Z</time>
      </trkpt>
      <trkpt lat="43.46098" lon="2.1546">
        <ele>668</ele>
        <time>2019-11-08T22:49:19Z</time>
      </trkpt>
      <trkpt lat="43.46113" lon="2.15457">
        <ele>668</ele>
        <time>2019-11-08T22:49:31Z</time>
      </trkpt>
      <trkpt lat="43.46137" lon="2.15446">
        <ele>668</ele>
        <time>2019-11-08T22:49:51Z</time>
      </trkpt>
      <trkpt lat="43.46187" lon="2.15443">
        <ele>666</ele>
        <time>2019-11-08T22:50:31Z</time>
      </trkpt>
      <trkpt lat="43.46205" lon="2.15438">
        <ele>666</ele>
        <time>2019-11-08T22:50:46Z</time>
      </trkpt>
      <trkpt lat="43.46287" lon="2.15383">
        <ele>659</ele>
        <time>2019-11-08T22:51:59Z</time>
      </trkpt>
      <trkpt lat="43.46308" lon="2.1538">
        <ele>657</ele>
        <time>2019-11-08T22:52:16Z</time>
      </trkpt>
      <trkpt lat="43.46318" lon="2.15382">
        <ele>656</ele>
        <time>2019-11-08T22:52:24Z</time>
      </trkpt>
      <trkpt lat="43.46326" lon="2.15387">
        <ele>656</ele>
        <time>2019-11-08T22:52:31Z</time>
      </trkpt>
      <trkpt lat="43.46341" lon="2.15411">
        <ele>656</ele>
        <time>2019-11-08T22:52:49Z</time>
      </trkpt>
      <trkpt lat="43.46373" lon="2.15438">
        <ele>651</ele>
        <time>2019-11-08T22:53:19Z</time>
      </trkpt>
      <trkpt lat="43.46416" lon="2.15467">
        <ele>646</ele>
        <time>2019-11-08T22:53:58Z</time>
      </trkpt>
      <trkpt lat="43.46459" lon="2.15486">
        <ele>644</ele>
        <time>2019-11-08T22:54:34Z</time>
      </trkpt>
      <trkpt lat="43.46475" lon="2.1549">
        <ele>643</ele>
        <time>2019-11-08T22:54:47Z</time>
      </trkpt>
      <trkpt lat="43.46508" lon="2.1549">
        <ele>639</ele>
        <time>2019-11-08T22:55:13Z</time>
      </trkpt>
      <trkpt lat="43.4655" lon="2.15481">
        <ele>635</ele>
        <time>2019-11-08T22:55:47Z</time>
      </trkpt>
      <trkpt lat="43.46577" lon="2.15478">
        <ele>632</ele>
        <time>2019-11-08T22:56:09Z</time>
      </trkpt>
      <trkpt lat="43.46603" lon="2.15484">
        <ele>630</ele>
        <time>2019-11-08T22:56:30Z</time>
      </trkpt>
      <trkpt lat="43.46653" lon="2.1549">
        <ele>623</ele>
        <time>2019-11-08T22:57:10Z</time>
      </trkpt>
      <trkpt lat="43.46663" lon="2.15489">
        <ele>621</ele>
        <time>2019-11-08T22:57:18Z</time>
      </trkpt>
      <trkpt lat="43.46678" lon="2.1548">
        <ele>617</ele>
        <time>2019-11-08T22:57:32Z</time>
      </trkpt>
      <trkpt lat="43.46682" lon="2.15481">
        <ele>616</ele>
        <time>2019-11-08T22:57:35Z</time>
      </trkpt>
      <trkpt lat="43.467" lon="2.15492">
        <ele>615</ele>
        <time>2019-11-08T22:57:51Z</time>
      </trkpt>
      <trkpt lat="43.46731" lon="2.15519">
        <ele>612</ele>
        <time>2019-11-08T22:58:20Z</time>
      </trkpt>
      <trkpt lat="43.46779" lon="2.15591">
        <ele>607</ele>
        <time>2019-11-08T22:59:17Z</time>
      </trkpt>
      <trkpt lat="43.46817" lon="2.1564">
        <ele>603</ele>
        <time>2019-11-08T22:59:58Z</time>
      </trkpt>
      <trkpt lat="43.46848" lon="2.15673">
        <ele>599</ele>
        <time>2019-11-08T23:00:30Z</time>
      </trkpt>
      <trkpt lat="43.46878" lon="2.15696">
        <ele>597</ele>
        <time>2019-11-08T23:00:57Z</time>
      </trkpt>
      <trkpt lat="43.46895" lon="2.15704">
        <ele>596</ele>
        <time>2019-11-08T23:01:12Z</time>
      </trkpt>
      <trkpt lat="43.46904" lon="2.15698">
        <ele>594</ele>
        <time>2019-11-08T23:01:20Z</time>
      </trkpt>
      <trkpt lat="43.46915" lon="2.1566">
        <ele>589</ele>
        <time>2019-11-08T23:01:43Z</time>
      </trkpt>
      <trkpt lat="43.46926" lon="2.15582">
        <ele>583</ele>
        <time>2019-11-08T23:02:30Z</time>
      </trkpt>
      <trkpt lat="43.46926" lon="2.15557">
        <ele>582</ele>
        <time>2019-11-08T23:02:44Z</time>
      </trkpt>
      <trkpt lat="43.46911" lon="2.15447">
        <ele>574</ele>
        <time>2019-11-08T23:03:49Z</time>
      </trkpt>
      <trkpt lat="43.469" lon="2.15395">
        <ele>570</ele>
        <time>2019-11-08T23:04:21Z</time>
      </trkpt>
      <trkpt lat="43.46895" lon="2.15377">
        <ele>569</ele>
        <time>2019-11-08T23:04:32Z</time>
      </trkpt>
      <trkpt lat="43.46857" lon="2.15285">
        <ele>566</ele>
        <time>2019-11-08T23:05:33Z</time>
      </trkpt>
      <trkpt lat="43.46856" lon="2.15266">
        <ele>564</ele>
        <time>2019-11-08T23:05:44Z</time>
      </trkpt>
      <trkpt lat="43.46859" lon="2.15238">
        <ele>558</ele>
        <time>2019-11-08T23:06:01Z</time>
      </trkpt>
      <trkpt lat="43.46856" lon="2.15215">
        <ele>554</ele>
        <time>2019-11-08T23:06:14Z</time>
      </trkpt>
      <trkpt lat="43.4685" lon="2.15196">
        <ele>551</ele>
        <time>2019-11-08T23:06:26Z</time>
      </trkpt>
      <trkpt lat="43.46845" lon="2.1519">
        <ele>551</ele>
        <time>2019-11-08T23:06:32Z</time>
      </trkpt>
      <trkpt lat="43.46831" lon="2.15181">
        <ele>550</ele>
        <time>2019-11-08T23:06:44Z</time>
      </trkpt>
      <trkpt lat="43.46813" lon="2.15178">
        <ele>550</ele>
        <time>2019-11-08T23:06:59Z</time>
      </trkpt>
      <trkpt lat="43.46803" lon="2.15179">
        <ele>550</ele>
        <time>2019-11-08T23:07:07Z</time>
      </trkpt>
      <trkpt lat="43.46799" lon="2.15173">
        <ele>548</ele>
        <time>2019-11-08T23:07:11Z</time>
      </trkpt>
      <trkpt lat="43.46719" lon="2.15169">
        <ele>549</ele>
        <time>2019-11-08T23:08:16Z</time>
      </trkpt>
      <trkpt lat="43.46702" lon="2.15163">
        <ele>549</ele>
        <time>2019-11-08T23:08:30Z</time>
      </trkpt>
      <trkpt lat="43.46688" lon="2.15156">
        <ele>549</ele>
        <time>2019-11-08T23:08:41Z</time>
      </trkpt>
      <trkpt lat="43.4668" lon="2.15146">
        <ele>549</ele>
        <time>2019-11-08T23:08:50Z</time>
      </trkpt>
      <trkpt lat="43.46664" lon="2.15119">
        <ele>549</ele>
        <time>2019-11-08T23:09:10Z</time>
      </trkpt>
      <trkpt lat="43.46659" lon="2.15102">
        <ele>548</ele>
        <time>2019-11-08T23:09:21Z</time>
      </trkpt>
      <trkpt lat="43.46659" lon="2.15089">
        <ele>547</ele>
        <time>2019-11-08T23:09:29Z</time>
      </trkpt>
      <trkpt lat="43.46664" lon="2.15077">
        <ele>546</ele>
        <time>2019-11-08T23:09:37Z</time>
      </trkpt>
      <trkpt lat="43.46684" lon="2.15056">
        <ele>540</ele>
        <time>2019-11-08T23:09:57Z</time>
      </trkpt>
      <trkpt lat="43.46718" lon="2.15036">
        <ele>531</ele>
        <time>2019-11-08T23:10:26Z</time>
      </trkpt>
      <trkpt lat="43.46729" lon="2.15027">
        <ele>528</ele>
        <time>2019-11-08T23:10:37Z</time>
      </trkpt>
      <trkpt lat="43.4675" lon="2.14988">
        <ele>521</ele>
        <time>2019-11-08T23:11:05Z</time>
      </trkpt>
      <trkpt lat="43.46757" lon="2.14971">
        <ele>519</ele>
        <time>2019-11-08T23:11:16Z</time>
      </trkpt>
      <trkpt lat="43.46766" lon="2.14933">
        <ele>517</ele>
        <time>2019-11-08T23:11:39Z</time>
      </trkpt>
      <trkpt lat="43.46769" lon="2.14847">
        <ele>507</ele>
        <time>2019-11-08T23:12:29Z</time>
      </trkpt>
      <trkpt lat="43.46765" lon="2.14822">
        <ele>505</ele>
        <time>2019-11-08T23:12:44Z</time>
      </trkpt>
      <trkpt lat="43.46757" lon="2.14807">
        <ele>505</ele>
        <time>2019-11-08T23:12:55Z</time>
      </trkpt>
      <trkpt lat="43.46753" lon="2.14803">
        <ele>505</ele>
        <time>2019-11-08T23:12:59Z</time>
      </trkpt>
      <trkpt lat="43.46731" lon="2.14793">
        <ele>510</ele>
        <time>2019-11-08T23:13:18Z</time>
      </trkpt>
      <trkpt lat="43.46724" lon="2.14782">
        <ele>510</ele>
        <time>2019-11-08T23:13:26Z</time>
      </trkpt>
      <trkpt lat="43.46718" lon="2.14742">
        <ele>507</ele>
        <time>2019-11-08T23:13:50Z</time>
      </trkpt>
      <trkpt lat="43.46726" lon="2.14721">
        <ele>500</ele>
        <time>2019-11-08T23:14:04Z</time>
      </trkpt>
      <trkpt lat="43.46727" lon="2.14707">
        <ele>496</ele>
        <time>2019-11-08T23:14:12Z</time>
      </trkpt>
      <trkpt lat="43.46725" lon="2.14703">
        <ele>496</ele>
        <time>2019-11-08T23:14:15Z</time>
      </trkpt>
      <trkpt lat="43.46721" lon="2.14697">
        <ele>496</ele>
        <time>2019-11-08T23:14:19Z</time>
      </trkpt>
      <trkpt lat="43.46695" lon="2.14678">
        <ele>502</ele>
        <time>2019-11-08T23:14:43Z</time>
      </trkpt>
      <trkpt lat="43.46681" lon="2.14662">
        <ele>505</ele>
        <time>2019-11-08T23:14:58Z</time>
      </trkpt>
      <trkpt lat="43.46667" lon="2.14634">
        <ele>504</ele>
        <time>2019-11-08T23:15:17Z</time>
      </trkpt>
      <trkpt lat="43.46633" lon="2.14584">
        <ele>508</ele>
        <time>2019-11-08T23:15:57Z</time>
      </trkpt>
      <trkpt lat="43.4662" lon="2.1456">
        <ele>509</ele>
        <time>2019-11-08T23:16:15Z</time>
      </trkpt>
      <trkpt lat="43.46617" lon="2.14547">
        <ele>508</ele>
        <time>2019-11-08T23:16:22Z</time>
      </trkpt>
      <trkpt lat="43.46618" lon="2.14532">
        <ele>505</ele>
        <time>2019-11-08T23:16:31Z</time>
      </trkpt>
      <trkpt lat="43.46625" lon="2.1451">
        <ele>498</ele>
        <time>2019-11-08T23:16:45Z</time>
      </trkpt>
      <trkpt lat="43.46631" lon="2.14502">
        <ele>494</ele>
        <time>2019-11-08T23:16:52Z</time>
      </trkpt>
      <trkpt lat="43.46642" lon="2.14476">
        <ele>489</ele>
        <time>2019-11-08T23:17:09Z</time>
      </trkpt>
      <trkpt lat="43.46644" lon="2.14424">
        <ele>486</ele>
        <time>2019-11-08T23:17:40Z</time>
      </trkpt>
      <trkpt lat="43.4665" lon="2.14416">
        <ele>485</ele>
        <time>2019-11-08T23:17:46Z</time>
      </trkpt>
      <trkpt lat="43.46654" lon="2.14415">
        <ele>485</ele>
        <time>2019-11-08T23:17:50Z</time>
      </trkpt>
      <trkpt lat="43.46671" lon="2.14423">
        <ele>484</ele>
        <time>2019-11-08T23:18:04Z</time>
      </trkpt>
      <trkpt lat="43.46682" lon="2.14443">
        <ele>486</ele>
        <time>2019-11-08T23:18:19Z</time>
      </trkpt>
      <trkpt lat="43.46686" lon="2.1446">
        <ele>485</ele>
        <time>2019-11-08T23:18:29Z</time>
      </trkpt>
      <trkpt lat="43.46684" lon="2.14488">
        <ele>483</ele>
        <time>2019-11-08T23:18:45Z</time>
      </trkpt>
      <trkpt lat="43.46672" lon="2.14543">
        <ele>486</ele>
        <time>2019-11-08T23:19:19Z</time>
      </trkpt>
      <trkpt lat="43.46671" lon="2.14561">
        <ele>489</ele>
        <time>2019-11-08T23:19:29Z</time>
      </trkpt>
      <trkpt lat="43.46701" lon="2.1459">
        <ele>486</ele>
        <time>2019-11-08T23:19:58Z</time>
      </trkpt>
      <trkpt lat="43.46723" lon="2.14621">
        <ele>484</ele>
        <time>2019-11-08T23:20:24Z</time>
      </trkpt>
      <trkpt lat="43.46739" lon="2.14636">
        <ele>480</ele>
        <time>2019-11-08T23:20:39Z</time>
      </trkpt>
      <trkpt lat="43.46785" lon="2.14668">
        <ele>469</ele>
        <time>2019-11-08T23:21:20Z</time>
      </trkpt>
      <trkpt lat="43.46801" lon="2.14671">
        <ele>465</ele>
        <time>2019-11-08T23:21:33Z</time>
      </trkpt>
      <trkpt lat="43.46819" lon="2.14667">
        <ele>459</ele>
        <time>2019-11-08T23:21:48Z</time>
      </trkpt>
      <trkpt lat="43.46839" lon="2.14654">
        <ele>456</ele>
        <time>2019-11-08T23:22:06Z</time>
      </trkpt>
      <trkpt lat="43.46851" lon="2.14651">
        <ele>454</ele>
        <time>2019-11-08T23:22:15Z</time>
      </trkpt>
      <trkpt lat="43.46855" lon="2.14653">
        <ele>454</ele>
        <time>2019-11-08T23:22:19Z</time>
      </trkpt>
      <trkpt lat="43.4686" lon="2.14657">
        <ele>452</ele>
        <time>2019-11-08T23:22:23Z</time>
      </trkpt>
      <trkpt lat="43.46861" lon="2.14662">
        <ele>452</ele>
        <time>2019-11-08T23:22:26Z</time>
      </trkpt>
      <trkpt lat="43.46861" lon="2.14701">
        <ele>459</ele>
        <time>2019-11-08T23:22:49Z</time>
      </trkpt>
      <trkpt lat="43.46864" lon="2.14702">
        <ele>459</ele>
        <time>2019-11-08T23:22:52Z</time>
      </trkpt>
      <trkpt lat="43.4691" lon="2.14699">
        <ele>452</ele>
        <time>2019-11-08T23:23:28Z</time>
      </trkpt>
      <trkpt lat="43.46922" lon="2.14693">
        <ele>450</ele>
        <time>2019-11-08T23:23:39Z</time>
      </trkpt>
      <trkpt lat="43.46943" lon="2.14676">
        <ele>444</ele>
        <time>2019-11-08T23:23:58Z</time>
      </trkpt>
      <trkpt lat="43.46966" lon="2.14664">
        <ele>441</ele>
        <time>2019-11-08T23:24:18Z</time>
      </trkpt>
      <trkpt lat="43.47029" lon="2.14613">
        <ele>439</ele>
        <time>2019-11-08T23:25:16Z</time>
      </trkpt>
      <trkpt lat="43.47082" lon="2.14551">
        <ele>434</ele>
        <time>2019-11-08T23:26:12Z</time>
      </trkpt>
      <trkpt lat="43.47096" lon="2.14546">
        <ele>434</ele>
        <time>2019-11-08T23:26:24Z</time>
      </trkpt>
      <trkpt lat="43.47118" lon="2.14547">
        <ele>433</ele>
        <time>2019-11-08T23:26:41Z</time>
      </trkpt>
      <trkpt lat="43.47129" lon="2.14545">
        <ele>432</ele>
        <time>2019-11-08T23:26:50Z</time>
      </trkpt>
      <trkpt lat="43.4716" lon="2.14529">
        <ele>428</ele>
        <time>2019-11-08T23:27:17Z</time>
      </trkpt>
      <trkpt lat="43.47189" lon="2.14532">
        <ele>428</ele>
        <time>2019-11-08T23:27:40Z</time>
      </trkpt>
      <trkpt lat="43.47201" lon="2.14531">
        <ele>428</ele>
        <time>2019-11-08T23:27:50Z</time>
      </trkpt>
      <trkpt lat="43.47212" lon="2.14522">
        <ele>427</ele>
        <time>2019-11-08T23:28:00Z</time>
      </trkpt>
      <trkpt lat="43.47229" lon="2.14486">
        <ele>423</ele>
        <time>2019-11-08T23:28:25Z</time>
      </trkpt>
      <trkpt lat="43.47251" lon="2.14462">
        <ele>421</ele>
        <time>2019-11-08T23:28:47Z</time>
      </trkpt>
      <trkpt lat="43.47271" lon="2.14451">
        <ele>418</ele>
        <time>2019-11-08T23:29:04Z</time>
      </trkpt>
      <trkpt lat="43.47302" lon="2.14445">
        <ele>414</ele>
        <time>2019-11-08T23:29:30Z</time>
      </trkpt>
      <trkpt lat="43.47327" lon="2.14443">
        <ele>411</ele>
        <time>2019-11-08T23:29:50Z</time>
      </trkpt>
      <trkpt lat="43.47342" lon="2.14449">
        <ele>409</ele>
        <time>2019-11-08T23:30:02Z</time>
      </trkpt>
      <trkpt lat="43.47348" lon="2.14474">
        <ele>408</ele>
        <time>2019-11-08T23:30:17Z</time>
      </trkpt>
      <trkpt lat="43.47365" lon="2.14494">
        <ele>402</ele>
        <time>2019-11-08T23:30:35Z</time>
      </trkpt>
      <trkpt lat="43.47393" lon="2.14516">
        <ele>392</ele>
        <time>2019-11-08T23:31:01Z</time>
      </trkpt>
      <trkpt lat="43.47398" lon="2.14525">
        <ele>390</ele>
        <time>2019-11-08T23:31:08Z</time>
      </trkpt>
      <trkpt lat="43.47399" lon="2.14574">
        <ele>391</ele>
        <time>2019-11-08T23:31:36Z</time>
      </trkpt>
      <trkpt lat="43.47423" lon="2.1462">
        <ele>386</ele>
        <time>2019-11-08T23:32:09Z</time>
      </trkpt>
      <trkpt lat="43.47432" lon="2.14647">
        <ele>389</ele>
        <time>2019-11-08T23:32:26Z</time>
      </trkpt>
      <trkpt lat="43.47448" lon="2.14665">
        <ele>386</ele>
        <time>2019-11-08T23:32:43Z</time>
      </trkpt>
      <trkpt lat="43.47481" lon="2.14681">
        <ele>377</ele>
        <time>2019-11-08T23:33:11Z</time>
      </trkpt>
      <trkpt lat="43.47527" lon="2.14683">
        <ele>360</ele>
        <time>2019-11-08T23:33:48Z</time>
      </trkpt>
      <trkpt lat="43.47541" lon="2.14685">
        <ele>356</ele>
        <time>2019-11-08T23:33:59Z</time>
      </trkpt>
      <trkpt lat="43.47555" lon="2.14691">
        <ele>353</ele>
        <time>2019-11-08T23:34:11Z</time>
      </trkpt>
      <trkpt lat="43.47558" lon="2.14687">
        <ele>351</ele>
        <time>2019-11-08T23:34:14Z</time>
      </trkpt>
      <trkpt lat="43.47558" lon="2.14683">
        <ele>350</ele>
        <time>2019-11-08T23:34:16Z</time>
      </trkpt>
      <trkpt lat="43.47551" lon="2.14675">
        <ele>350</ele>
        <time>2019-11-08T23:34:24Z</time>
      </trkpt>
      <trkpt lat="43.47508" lon="2.14662">
        <ele>361</ele>
        <time>2019-11-08T23:34:59Z</time>
      </trkpt>
      <trkpt lat="43.47473" lon="2.14648">
        <ele>374</ele>
        <time>2019-11-08T23:35:28Z</time>
      </trkpt>
      <trkpt lat="43.47467" lon="2.1464">
        <ele>375</ele>
        <time>2019-11-08T23:35:35Z</time>
      </trkpt>
      <trkpt lat="43.47468" lon="2.14625">
        <ele>373</ele>
        <time>2019-11-08T23:35:44Z</time>
      </trkpt>
      <trkpt lat="43.47478" lon="2.14616">
        <ele>368</ele>
        <time>2019-11-08T23:35:53Z</time>
      </trkpt>
      <trkpt lat="43.47485" lon="2.14614">
        <ele>366</ele>
        <time>2019-11-08T23:35:59Z</time>
      </trkpt>
      <trkpt lat="43.47496" lon="2.14614">
        <ele>363</ele>
        <time>2019-11-08T23:36:08Z</time>
      </trkpt>
      <trkpt lat="43.47502" lon="2.14617">
        <ele>361</ele>
        <time>2019-11-08T23:36:13Z</time>
      </trkpt>
      <trkpt lat="43.47505" lon="2.1462">
        <ele>361</ele>
        <time>2019-11-08T23:36:16Z</time>
      </trkpt>
      <trkpt lat="43.47512" lon="2.14641">
        <ele>360</ele>
        <time>2019-11-08T23:36:29Z</time>
      </trkpt>
      <trkpt lat="43.47518" lon="2.14643">
        <ele>358</ele>
        <time>2019-11-08T23:36:34Z</time>
      </trkpt>
      <trkpt lat="43.47589" lon="2.14647">
        <ele>339</ele>
        <time>2019-11-08T23:37:31Z</time>
      </trkpt>
      <trkpt lat="43.47621" lon="2.14651">
        <ele>332</ele>
        <time>2019-11-08T23:37:57Z</time>
      </trkpt>
      <trkpt lat="43.47626" lon="2.14658">
        <ele>329</ele>
        <time>2019-11-08T23:38:02Z</time>
      </trkpt>
      <trkpt lat="43.47626" lon="2.14694">
        <ele>331</ele>
        <time>2019-11-08T23:38:23Z</time>
      </trkpt>
      <trkpt lat="43.47636" lon="2.14716">
        <ele>330</ele>
        <time>2019-11-08T23:38:38Z</time>
      </trkpt>
      <trkpt lat="43.47648" lon="2.14728">
        <ele>327</ele>
        <time>2019-11-08T23:38:50Z</time>
      </trkpt>
      <trkpt lat="43.47665" lon="2.14738">
        <ele>320</ele>
        <time>2019-11-08T23:39:05Z</time>
      </trkpt>
      <trkpt lat="43.47705" lon="2.14748">
        <ele>315</ele>
        <time>2019-11-08T23:39:38Z</time>
      </trkpt>
      <trkpt lat="43.47792" lon="2.14729">
        <ele>308</ele>
        <time>2019-11-08T23:40:48Z</time>
      </trkpt>
      <trkpt lat="43.47829" lon="2.14715">
        <ele>308</ele>
        <time>2019-11-08T23:41:19Z</time>
      </trkpt>
      <trkpt lat="43.47876" lon="2.14702">
        <ele>303</ele>
        <time>2019-11-08T23:41:57Z</time>
      </trkpt>
      <trkpt lat="43.47897" lon="2.14693">
        <ele>300</ele>
        <time>2019-11-08T23:42:15Z</time>
      </trkpt>
      <trkpt lat="43.4791" lon="2.14679">
        <ele>297</ele>
        <time>2019-11-08T23:42:28Z</time>
      </trkpt>
      <trkpt lat="43.4799" lon="2.14567">
        <ele>293</ele>
        <time>2019-11-08T23:43:59Z</time>
      </trkpt>
      <trkpt lat="43.48013" lon="2.14542">
        <ele>292</ele>
        <time>2019-11-08T23:44:23Z</time>
      </trkpt>
      <trkpt lat="43.48054" lon="2.14485">
        <ele>290</ele>
        <time>2019-11-08T23:45:09Z</time>
      </trkpt>
    </trkseg>
  </trk>
</gpx>